﻿<?xml version="1.0" encoding="UTF-8" standalone="no" ?>
<gpx xmlns="http://www.topografix.com/GPX/1/1" creator="CompeGPS" version="1.1" xmlns:xsi="http://www.w3.org/2001/XMLSchema-instance" xsi:schemaLocation="http://www.topografix.com/GPX/1/1 http://www.topografix.com/GPX/1/1/gpx.xsd">
  <metadata>
    <link href="http://www.compegps.com">
      <text>CompeGPS TEAM, SL</text>
    </link>
    <time>2021-11-10T08:12:07Z</time>
    <bounds maxlat="39.897227" maxlon="-5.168937" minlat="39.526658" minlon="-7.538645"/>
  </metadata>
  <trk>
    <name>CN-Tajo</name>
    <desc>&lt;html xmlns:fo=&quot;http://www.w3.org/1999/XSL/Format&quot; xmlns:msxsl=&quot;urn:schemas-microsoft-com:xslt&quot;&gt;

&lt;head&gt;

&lt;META http-equiv=&quot;Content-Type&quot; content=&quot;text/html&quot;&gt;

&lt;meta http-equiv=&quot;content-type&quot; content=&quot;text/html; charset=UTF-8&quot;&gt;

&lt;/head&gt;

&lt;body style=&quot;mar</desc>
    <trkseg>
      <trkpt lat="39.804293" lon="-6.372110">
        <ele>402.3</ele>
        <time>1970-01-01T00:00:00Z</time>
      </trkpt>
      <trkpt lat="39.804173" lon="-6.372093">
        <ele>401.3</ele>
        <time>1970-01-01T00:00:00Z</time>
      </trkpt>
      <trkpt lat="39.804044" lon="-6.372101">
        <ele>400.4</ele>
        <time>1970-01-01T00:00:00Z</time>
      </trkpt>
      <trkpt lat="39.803754" lon="-6.372243">
        <ele>398.7</ele>
        <time>1970-01-01T00:00:00Z</time>
      </trkpt>
      <trkpt lat="39.803607" lon="-6.372291">
        <ele>398.3</ele>
        <time>1970-01-01T00:00:00Z</time>
      </trkpt>
      <trkpt lat="39.803489" lon="-6.372297">
        <ele>397.5</ele>
        <time>1970-01-01T00:00:00Z</time>
      </trkpt>
      <trkpt lat="39.802620" lon="-6.372110">
        <ele>392.8</ele>
        <time>1970-01-01T00:00:00Z</time>
      </trkpt>
      <trkpt lat="39.802282" lon="-6.372119">
        <ele>392.3</ele>
        <time>1970-01-01T00:00:00Z</time>
      </trkpt>
      <trkpt lat="39.802094" lon="-6.372099">
        <ele>391.4</ele>
        <time>1970-01-01T00:00:00Z</time>
      </trkpt>
      <trkpt lat="39.801910" lon="-6.372108">
        <ele>391.2</ele>
        <time>1970-01-01T00:00:00Z</time>
      </trkpt>
    </trkseg>
    <trkseg>
      <trkpt lat="39.663859" lon="-7.538645">
        <ele>123.0</ele>
        <time>1970-01-01T00:00:00Z</time>
      </trkpt>
      <trkpt lat="39.664158" lon="-7.538182">
        <ele>130.8</ele>
        <time>1970-01-01T00:00:00Z</time>
      </trkpt>
      <trkpt lat="39.664349" lon="-7.537762">
        <ele>132.1</ele>
        <time>1970-01-01T00:00:00Z</time>
      </trkpt>
      <trkpt lat="39.664502" lon="-7.537472">
        <ele>130.6</ele>
        <time>1970-01-01T00:00:00Z</time>
      </trkpt>
      <trkpt lat="39.664626" lon="-7.537177">
        <ele>131.1</ele>
        <time>1970-01-01T00:00:00Z</time>
      </trkpt>
      <trkpt lat="39.664654" lon="-7.536944">
        <ele>131.8</ele>
        <time>1970-01-01T00:00:00Z</time>
      </trkpt>
      <trkpt lat="39.664717" lon="-7.536100">
        <ele>139.3</ele>
        <time>1970-01-01T00:00:00Z</time>
      </trkpt>
      <trkpt lat="39.664719" lon="-7.535960">
        <ele>140.6</ele>
        <time>1970-01-01T00:00:00Z</time>
      </trkpt>
      <trkpt lat="39.664680" lon="-7.535891">
        <ele>141.9</ele>
        <time>1970-01-01T00:00:00Z</time>
      </trkpt>
      <trkpt lat="39.664621" lon="-7.535879">
        <ele>143.5</ele>
        <time>1970-01-01T00:00:00Z</time>
      </trkpt>
      <trkpt lat="39.664593" lon="-7.535919">
        <ele>143.7</ele>
        <time>1970-01-01T00:00:00Z</time>
      </trkpt>
      <trkpt lat="39.664559" lon="-7.536679">
        <ele>135.3</ele>
        <time>1970-01-01T00:00:00Z</time>
      </trkpt>
      <trkpt lat="39.664515" lon="-7.536985">
        <ele>133.5</ele>
        <time>1970-01-01T00:00:00Z</time>
      </trkpt>
      <trkpt lat="39.664335" lon="-7.537296">
        <ele>134.7</ele>
        <time>1970-01-01T00:00:00Z</time>
      </trkpt>
      <trkpt lat="39.664075" lon="-7.537619">
        <ele>135.3</ele>
        <time>1970-01-01T00:00:00Z</time>
      </trkpt>
      <trkpt lat="39.663837" lon="-7.537885">
        <ele>133.6</ele>
        <time>1970-01-01T00:00:00Z</time>
      </trkpt>
      <trkpt lat="39.663686" lon="-7.537986">
        <ele>131.6</ele>
        <time>1970-01-01T00:00:00Z</time>
      </trkpt>
      <trkpt lat="39.663561" lon="-7.537982">
        <ele>130.5</ele>
        <time>1970-01-01T00:00:00Z</time>
      </trkpt>
      <trkpt lat="39.663449" lon="-7.537909">
        <ele>129.9</ele>
        <time>1970-01-01T00:00:00Z</time>
      </trkpt>
      <trkpt lat="39.663415" lon="-7.537766">
        <ele>131.5</ele>
        <time>1970-01-01T00:00:00Z</time>
      </trkpt>
      <trkpt lat="39.663392" lon="-7.537537">
        <ele>134.3</ele>
        <time>1970-01-01T00:00:00Z</time>
      </trkpt>
      <trkpt lat="39.663313" lon="-7.537401">
        <ele>135.7</ele>
        <time>1970-01-01T00:00:00Z</time>
      </trkpt>
      <trkpt lat="39.663149" lon="-7.537262">
        <ele>135.3</ele>
        <time>1970-01-01T00:00:00Z</time>
      </trkpt>
      <trkpt lat="39.663076" lon="-7.537181">
        <ele>135.2</ele>
        <time>1970-01-01T00:00:00Z</time>
      </trkpt>
      <trkpt lat="39.663096" lon="-7.537101">
        <ele>137.0</ele>
        <time>1970-01-01T00:00:00Z</time>
      </trkpt>
      <trkpt lat="39.663179" lon="-7.537077">
        <ele>139.2</ele>
        <time>1970-01-01T00:00:00Z</time>
      </trkpt>
      <trkpt lat="39.663287" lon="-7.537104">
        <ele>141.0</ele>
        <time>1970-01-01T00:00:00Z</time>
      </trkpt>
      <trkpt lat="39.663409" lon="-7.537193">
        <ele>140.8</ele>
        <time>1970-01-01T00:00:00Z</time>
      </trkpt>
      <trkpt lat="39.663616" lon="-7.537310">
        <ele>140.2</ele>
        <time>1970-01-01T00:00:00Z</time>
      </trkpt>
      <trkpt lat="39.663725" lon="-7.537342">
        <ele>140.1</ele>
        <time>1970-01-01T00:00:00Z</time>
      </trkpt>
      <trkpt lat="39.663848" lon="-7.537328">
        <ele>139.9</ele>
        <time>1970-01-01T00:00:00Z</time>
      </trkpt>
      <trkpt lat="39.664024" lon="-7.537155">
        <ele>140.7</ele>
        <time>1970-01-01T00:00:00Z</time>
      </trkpt>
      <trkpt lat="39.664164" lon="-7.536947">
        <ele>140.7</ele>
        <time>1970-01-01T00:00:00Z</time>
      </trkpt>
      <trkpt lat="39.664223" lon="-7.536803">
        <ele>140.9</ele>
        <time>1970-01-01T00:00:00Z</time>
      </trkpt>
      <trkpt lat="39.664211" lon="-7.536572">
        <ele>144.0</ele>
        <time>1970-01-01T00:00:00Z</time>
      </trkpt>
      <trkpt lat="39.664108" lon="-7.535794">
        <ele>157.3</ele>
        <time>1970-01-01T00:00:00Z</time>
      </trkpt>
      <trkpt lat="39.664114" lon="-7.535343">
        <ele>163.1</ele>
        <time>1970-01-01T00:00:00Z</time>
      </trkpt>
      <trkpt lat="39.664159" lon="-7.535166">
        <ele>164.8</ele>
        <time>1970-01-01T00:00:00Z</time>
      </trkpt>
      <trkpt lat="39.664297" lon="-7.534948">
        <ele>164.6</ele>
        <time>1970-01-01T00:00:00Z</time>
      </trkpt>
      <trkpt lat="39.664500" lon="-7.534747">
        <ele>163.4</ele>
        <time>1970-01-01T00:00:00Z</time>
      </trkpt>
      <trkpt lat="39.664902" lon="-7.534410">
        <ele>159.4</ele>
        <time>1970-01-01T00:00:00Z</time>
      </trkpt>
      <trkpt lat="39.665042" lon="-7.534274">
        <ele>157.6</ele>
        <time>1970-01-01T00:00:00Z</time>
      </trkpt>
      <trkpt lat="39.665139" lon="-7.534091">
        <ele>157.3</ele>
        <time>1970-01-01T00:00:00Z</time>
      </trkpt>
      <trkpt lat="39.665185" lon="-7.533901">
        <ele>157.0</ele>
        <time>1970-01-01T00:00:00Z</time>
      </trkpt>
      <trkpt lat="39.665206" lon="-7.533695">
        <ele>157.1</ele>
        <time>1970-01-01T00:00:00Z</time>
      </trkpt>
      <trkpt lat="39.665202" lon="-7.533219">
        <ele>160.5</ele>
        <time>1970-01-01T00:00:00Z</time>
      </trkpt>
      <trkpt lat="39.665161" lon="-7.532980">
        <ele>164.1</ele>
        <time>1970-01-01T00:00:00Z</time>
      </trkpt>
      <trkpt lat="39.665039" lon="-7.532409">
        <ele>166.6</ele>
        <time>1970-01-01T00:00:00Z</time>
      </trkpt>
      <trkpt lat="39.664902" lon="-7.531868">
        <ele>170.7</ele>
        <time>1970-01-01T00:00:00Z</time>
      </trkpt>
      <trkpt lat="39.664658" lon="-7.530799">
        <ele>179.3</ele>
        <time>1970-01-01T00:00:00Z</time>
      </trkpt>
      <trkpt lat="39.664402" lon="-7.529623">
        <ele>188.7</ele>
        <time>1970-01-01T00:00:00Z</time>
      </trkpt>
      <trkpt lat="39.664390" lon="-7.529449">
        <ele>190.0</ele>
        <time>1970-01-01T00:00:00Z</time>
      </trkpt>
      <trkpt lat="39.664447" lon="-7.529068">
        <ele>190.2</ele>
        <time>1970-01-01T00:00:00Z</time>
      </trkpt>
      <trkpt lat="39.664500" lon="-7.528589">
        <ele>188.4</ele>
        <time>1970-01-01T00:00:00Z</time>
      </trkpt>
      <trkpt lat="39.664525" lon="-7.528242">
        <ele>185.3</ele>
        <time>1970-01-01T00:00:00Z</time>
      </trkpt>
      <trkpt lat="39.664502" lon="-7.527952">
        <ele>184.2</ele>
        <time>1970-01-01T00:00:00Z</time>
      </trkpt>
      <trkpt lat="39.664425" lon="-7.527720">
        <ele>184.8</ele>
        <time>1970-01-01T00:00:00Z</time>
      </trkpt>
      <trkpt lat="39.664309" lon="-7.527540">
        <ele>187.1</ele>
        <time>1970-01-01T00:00:00Z</time>
      </trkpt>
      <trkpt lat="39.664390" lon="-7.527447">
        <ele>182.7</ele>
        <time>1970-01-01T00:00:00Z</time>
      </trkpt>
      <trkpt lat="39.664418" lon="-7.527370">
        <ele>180.7</ele>
        <time>1970-01-01T00:00:00Z</time>
      </trkpt>
      <trkpt lat="39.664448" lon="-7.527197">
        <ele>178.0</ele>
        <time>1970-01-01T00:00:00Z</time>
      </trkpt>
      <trkpt lat="39.664495" lon="-7.527062">
        <ele>175.5</ele>
        <time>1970-01-01T00:00:00Z</time>
      </trkpt>
      <trkpt lat="39.664392" lon="-7.526525">
        <ele>177.9</ele>
        <time>1970-01-01T00:00:00Z</time>
      </trkpt>
      <trkpt lat="39.664358" lon="-7.526480">
        <ele>179.4</ele>
        <time>1970-01-01T00:00:00Z</time>
      </trkpt>
      <trkpt lat="39.664269" lon="-7.526410">
        <ele>183.2</ele>
        <time>1970-01-01T00:00:00Z</time>
      </trkpt>
      <trkpt lat="39.664204" lon="-7.526275">
        <ele>186.6</ele>
        <time>1970-01-01T00:00:00Z</time>
      </trkpt>
      <trkpt lat="39.664093" lon="-7.525888">
        <ele>193.3</ele>
        <time>1970-01-01T00:00:00Z</time>
      </trkpt>
      <trkpt lat="39.664034" lon="-7.525732">
        <ele>196.2</ele>
        <time>1970-01-01T00:00:00Z</time>
      </trkpt>
      <trkpt lat="39.663923" lon="-7.525303">
        <ele>202.2</ele>
        <time>1970-01-01T00:00:00Z</time>
      </trkpt>
      <trkpt lat="39.663743" lon="-7.524840">
        <ele>205.0</ele>
        <time>1970-01-01T00:00:00Z</time>
      </trkpt>
      <trkpt lat="39.663623" lon="-7.524607">
        <ele>202.6</ele>
        <time>1970-01-01T00:00:00Z</time>
      </trkpt>
      <trkpt lat="39.663627" lon="-7.524502">
        <ele>200.4</ele>
        <time>1970-01-01T00:00:00Z</time>
      </trkpt>
      <trkpt lat="39.663678" lon="-7.524409">
        <ele>197.5</ele>
        <time>1970-01-01T00:00:00Z</time>
      </trkpt>
      <trkpt lat="39.663687" lon="-7.524323">
        <ele>194.9</ele>
        <time>1970-01-01T00:00:00Z</time>
      </trkpt>
      <trkpt lat="39.663692" lon="-7.524252">
        <ele>192.7</ele>
        <time>1970-01-01T00:00:00Z</time>
      </trkpt>
      <trkpt lat="39.663654" lon="-7.524195">
        <ele>191.1</ele>
        <time>1970-01-01T00:00:00Z</time>
      </trkpt>
      <trkpt lat="39.663485" lon="-7.524130">
        <ele>190.4</ele>
        <time>1970-01-01T00:00:00Z</time>
      </trkpt>
      <trkpt lat="39.663390" lon="-7.524129">
        <ele>191.5</ele>
        <time>1970-01-01T00:00:00Z</time>
      </trkpt>
      <trkpt lat="39.663298" lon="-7.524140">
        <ele>192.8</ele>
        <time>1970-01-01T00:00:00Z</time>
      </trkpt>
      <trkpt lat="39.663180" lon="-7.524228">
        <ele>195.9</ele>
        <time>1970-01-01T00:00:00Z</time>
      </trkpt>
      <trkpt lat="39.663109" lon="-7.524226">
        <ele>196.1</ele>
        <time>1970-01-01T00:00:00Z</time>
      </trkpt>
      <trkpt lat="39.662989" lon="-7.524095">
        <ele>191.3</ele>
        <time>1970-01-01T00:00:00Z</time>
      </trkpt>
      <trkpt lat="39.662882" lon="-7.523940">
        <ele>186.3</ele>
        <time>1970-01-01T00:00:00Z</time>
      </trkpt>
      <trkpt lat="39.662772" lon="-7.523982">
        <ele>187.2</ele>
        <time>1970-01-01T00:00:00Z</time>
      </trkpt>
      <trkpt lat="39.662653" lon="-7.524063">
        <ele>189.5</ele>
        <time>1970-01-01T00:00:00Z</time>
      </trkpt>
      <trkpt lat="39.662526" lon="-7.524173">
        <ele>192.8</ele>
        <time>1970-01-01T00:00:00Z</time>
      </trkpt>
      <trkpt lat="39.662276" lon="-7.524179">
        <ele>192.7</ele>
        <time>1970-01-01T00:00:00Z</time>
      </trkpt>
      <trkpt lat="39.662113" lon="-7.524208">
        <ele>193.3</ele>
        <time>1970-01-01T00:00:00Z</time>
      </trkpt>
      <trkpt lat="39.662023" lon="-7.524180">
        <ele>193.0</ele>
        <time>1970-01-01T00:00:00Z</time>
      </trkpt>
      <trkpt lat="39.661960" lon="-7.524141">
        <ele>192.2</ele>
        <time>1970-01-01T00:00:00Z</time>
      </trkpt>
      <trkpt lat="39.661802" lon="-7.524027">
        <ele>190.6</ele>
        <time>1970-01-01T00:00:00Z</time>
      </trkpt>
      <trkpt lat="39.661620" lon="-7.523867">
        <ele>189.8</ele>
        <time>1970-01-01T00:00:00Z</time>
      </trkpt>
      <trkpt lat="39.661518" lon="-7.523824">
        <ele>190.3</ele>
        <time>1970-01-01T00:00:00Z</time>
      </trkpt>
      <trkpt lat="39.661396" lon="-7.523843">
        <ele>192.8</ele>
        <time>1970-01-01T00:00:00Z</time>
      </trkpt>
      <trkpt lat="39.661291" lon="-7.523829">
        <ele>194.7</ele>
        <time>1970-01-01T00:00:00Z</time>
      </trkpt>
      <trkpt lat="39.661063" lon="-7.523860">
        <ele>200.7</ele>
        <time>1970-01-01T00:00:00Z</time>
      </trkpt>
      <trkpt lat="39.660996" lon="-7.523827">
        <ele>201.9</ele>
        <time>1970-01-01T00:00:00Z</time>
      </trkpt>
      <trkpt lat="39.660908" lon="-7.523730">
        <ele>202.0</ele>
        <time>1970-01-01T00:00:00Z</time>
      </trkpt>
      <trkpt lat="39.660787" lon="-7.523473">
        <ele>200.1</ele>
        <time>1970-01-01T00:00:00Z</time>
      </trkpt>
      <trkpt lat="39.660632" lon="-7.523085">
        <ele>199.2</ele>
        <time>1970-01-01T00:00:00Z</time>
      </trkpt>
      <trkpt lat="39.660543" lon="-7.522680">
        <ele>196.6</ele>
        <time>1970-01-01T00:00:00Z</time>
      </trkpt>
      <trkpt lat="39.660500" lon="-7.522568">
        <ele>196.3</ele>
        <time>1970-01-01T00:00:00Z</time>
      </trkpt>
      <trkpt lat="39.660398" lon="-7.522406">
        <ele>197.6</ele>
        <time>1970-01-01T00:00:00Z</time>
      </trkpt>
      <trkpt lat="39.660334" lon="-7.522338">
        <ele>198.9</ele>
        <time>1970-01-01T00:00:00Z</time>
      </trkpt>
      <trkpt lat="39.660287" lon="-7.522251">
        <ele>199.2</ele>
        <time>1970-01-01T00:00:00Z</time>
      </trkpt>
      <trkpt lat="39.660237" lon="-7.522231">
        <ele>201.0</ele>
        <time>1970-01-01T00:00:00Z</time>
      </trkpt>
      <trkpt lat="39.660066" lon="-7.522111">
        <ele>206.0</ele>
        <time>1970-01-01T00:00:00Z</time>
      </trkpt>
      <trkpt lat="39.659970" lon="-7.521932">
        <ele>205.8</ele>
        <time>1970-01-01T00:00:00Z</time>
      </trkpt>
      <trkpt lat="39.659917" lon="-7.521884">
        <ele>206.8</ele>
        <time>1970-01-01T00:00:00Z</time>
      </trkpt>
      <trkpt lat="39.659761" lon="-7.521909">
        <ele>212.7</ele>
        <time>1970-01-01T00:00:00Z</time>
      </trkpt>
      <trkpt lat="39.659691" lon="-7.521867">
        <ele>213.8</ele>
        <time>1970-01-01T00:00:00Z</time>
      </trkpt>
      <trkpt lat="39.659539" lon="-7.521833">
        <ele>216.6</ele>
        <time>1970-01-01T00:00:00Z</time>
      </trkpt>
      <trkpt lat="39.659491" lon="-7.521807">
        <ele>217.0</ele>
        <time>1970-01-01T00:00:00Z</time>
      </trkpt>
      <trkpt lat="39.659352" lon="-7.521650">
        <ele>216.7</ele>
        <time>1970-01-01T00:00:00Z</time>
      </trkpt>
      <trkpt lat="39.659284" lon="-7.521540">
        <ele>215.6</ele>
        <time>1970-01-01T00:00:00Z</time>
      </trkpt>
      <trkpt lat="39.659348" lon="-7.521423">
        <ele>212.9</ele>
        <time>1970-01-01T00:00:00Z</time>
      </trkpt>
      <trkpt lat="39.659359" lon="-7.521281">
        <ele>210.3</ele>
        <time>1970-01-01T00:00:00Z</time>
      </trkpt>
      <trkpt lat="39.659112" lon="-7.520675">
        <ele>205.9</ele>
        <time>1970-01-01T00:00:00Z</time>
      </trkpt>
      <trkpt lat="39.658977" lon="-7.520476">
        <ele>207.1</ele>
        <time>1970-01-01T00:00:00Z</time>
      </trkpt>
      <trkpt lat="39.658909" lon="-7.520398">
        <ele>208.3</ele>
        <time>1970-01-01T00:00:00Z</time>
      </trkpt>
      <trkpt lat="39.658764" lon="-7.520302">
        <ele>212.0</ele>
        <time>1970-01-01T00:00:00Z</time>
      </trkpt>
      <trkpt lat="39.658602" lon="-7.520267">
        <ele>216.2</ele>
        <time>1970-01-01T00:00:00Z</time>
      </trkpt>
      <trkpt lat="39.658585" lon="-7.520214">
        <ele>216.3</ele>
        <time>1970-01-01T00:00:00Z</time>
      </trkpt>
      <trkpt lat="39.658587" lon="-7.520165">
        <ele>216.1</ele>
        <time>1970-01-01T00:00:00Z</time>
      </trkpt>
      <trkpt lat="39.658415" lon="-7.520208">
        <ele>219.8</ele>
        <time>1970-01-01T00:00:00Z</time>
      </trkpt>
      <trkpt lat="39.658335" lon="-7.520208">
        <ele>221.1</ele>
        <time>1970-01-01T00:00:00Z</time>
      </trkpt>
      <trkpt lat="39.658280" lon="-7.520197">
        <ele>221.9</ele>
        <time>1970-01-01T00:00:00Z</time>
      </trkpt>
      <trkpt lat="39.658268" lon="-7.520122">
        <ele>222.0</ele>
        <time>1970-01-01T00:00:00Z</time>
      </trkpt>
      <trkpt lat="39.658286" lon="-7.519699">
        <ele>220.5</ele>
        <time>1970-01-01T00:00:00Z</time>
      </trkpt>
      <trkpt lat="39.658301" lon="-7.519621">
        <ele>220.0</ele>
        <time>1970-01-01T00:00:00Z</time>
      </trkpt>
      <trkpt lat="39.658357" lon="-7.519600">
        <ele>218.8</ele>
        <time>1970-01-01T00:00:00Z</time>
      </trkpt>
      <trkpt lat="39.658476" lon="-7.519632">
        <ele>216.1</ele>
        <time>1970-01-01T00:00:00Z</time>
      </trkpt>
      <trkpt lat="39.658623" lon="-7.519583">
        <ele>212.1</ele>
        <time>1970-01-01T00:00:00Z</time>
      </trkpt>
      <trkpt lat="39.658786" lon="-7.519453">
        <ele>206.7</ele>
        <time>1970-01-01T00:00:00Z</time>
      </trkpt>
      <trkpt lat="39.658826" lon="-7.519389">
        <ele>205.4</ele>
        <time>1970-01-01T00:00:00Z</time>
      </trkpt>
      <trkpt lat="39.658973" lon="-7.519295">
        <ele>201.4</ele>
        <time>1970-01-01T00:00:00Z</time>
      </trkpt>
      <trkpt lat="39.659148" lon="-7.519304">
        <ele>196.1</ele>
        <time>1970-01-01T00:00:00Z</time>
      </trkpt>
      <trkpt lat="39.659166" lon="-7.519337">
        <ele>195.4</ele>
        <time>1970-01-01T00:00:00Z</time>
      </trkpt>
      <trkpt lat="39.659044" lon="-7.519670">
        <ele>199.8</ele>
        <time>1970-01-01T00:00:00Z</time>
      </trkpt>
      <trkpt lat="39.659052" lon="-7.519719">
        <ele>199.8</ele>
        <time>1970-01-01T00:00:00Z</time>
      </trkpt>
      <trkpt lat="39.659121" lon="-7.519746">
        <ele>197.8</ele>
        <time>1970-01-01T00:00:00Z</time>
      </trkpt>
      <trkpt lat="39.659159" lon="-7.519704">
        <ele>196.4</ele>
        <time>1970-01-01T00:00:00Z</time>
      </trkpt>
      <trkpt lat="39.659185" lon="-7.519637">
        <ele>195.3</ele>
        <time>1970-01-01T00:00:00Z</time>
      </trkpt>
      <trkpt lat="39.659218" lon="-7.519624">
        <ele>194.1</ele>
        <time>1970-01-01T00:00:00Z</time>
      </trkpt>
      <trkpt lat="39.659227" lon="-7.519829">
        <ele>194.9</ele>
        <time>1970-01-01T00:00:00Z</time>
      </trkpt>
      <trkpt lat="39.659270" lon="-7.519899">
        <ele>194.0</ele>
        <time>1970-01-01T00:00:00Z</time>
      </trkpt>
      <trkpt lat="39.659381" lon="-7.519975">
        <ele>190.9</ele>
        <time>1970-01-01T00:00:00Z</time>
      </trkpt>
      <trkpt lat="39.659417" lon="-7.519973">
        <ele>189.5</ele>
        <time>1970-01-01T00:00:00Z</time>
      </trkpt>
      <trkpt lat="39.659462" lon="-7.519906">
        <ele>187.5</ele>
        <time>1970-01-01T00:00:00Z</time>
      </trkpt>
      <trkpt lat="39.659503" lon="-7.519796">
        <ele>185.2</ele>
        <time>1970-01-01T00:00:00Z</time>
      </trkpt>
      <trkpt lat="39.659532" lon="-7.519766">
        <ele>183.9</ele>
        <time>1970-01-01T00:00:00Z</time>
      </trkpt>
      <trkpt lat="39.659567" lon="-7.519753">
        <ele>182.6</ele>
        <time>1970-01-01T00:00:00Z</time>
      </trkpt>
      <trkpt lat="39.659595" lon="-7.519770">
        <ele>181.6</ele>
        <time>1970-01-01T00:00:00Z</time>
      </trkpt>
      <trkpt lat="39.659633" lon="-7.519829">
        <ele>180.6</ele>
        <time>1970-01-01T00:00:00Z</time>
      </trkpt>
      <trkpt lat="39.659741" lon="-7.520090">
        <ele>177.8</ele>
        <time>1970-01-01T00:00:00Z</time>
      </trkpt>
      <trkpt lat="39.659777" lon="-7.520230">
        <ele>176.9</ele>
        <time>1970-01-01T00:00:00Z</time>
      </trkpt>
      <trkpt lat="39.659799" lon="-7.520266">
        <ele>176.1</ele>
        <time>1970-01-01T00:00:00Z</time>
      </trkpt>
      <trkpt lat="39.659829" lon="-7.520271">
        <ele>174.7</ele>
        <time>1970-01-01T00:00:00Z</time>
      </trkpt>
      <trkpt lat="39.659900" lon="-7.520201">
        <ele>171.6</ele>
        <time>1970-01-01T00:00:00Z</time>
      </trkpt>
      <trkpt lat="39.659944" lon="-7.520046">
        <ele>169.7</ele>
        <time>1970-01-01T00:00:00Z</time>
      </trkpt>
      <trkpt lat="39.659973" lon="-7.519841">
        <ele>169.2</ele>
        <time>1970-01-01T00:00:00Z</time>
      </trkpt>
      <trkpt lat="39.659992" lon="-7.519793">
        <ele>168.9</ele>
        <time>1970-01-01T00:00:00Z</time>
      </trkpt>
      <trkpt lat="39.660035" lon="-7.519781">
        <ele>167.7</ele>
        <time>1970-01-01T00:00:00Z</time>
      </trkpt>
      <trkpt lat="39.660078" lon="-7.519799">
        <ele>166.4</ele>
        <time>1970-01-01T00:00:00Z</time>
      </trkpt>
      <trkpt lat="39.660104" lon="-7.519677">
        <ele>167.0</ele>
        <time>1970-01-01T00:00:00Z</time>
      </trkpt>
      <trkpt lat="39.660179" lon="-7.519564">
        <ele>166.3</ele>
        <time>1970-01-01T00:00:00Z</time>
      </trkpt>
      <trkpt lat="39.660204" lon="-7.519499">
        <ele>166.2</ele>
        <time>1970-01-01T00:00:00Z</time>
      </trkpt>
      <trkpt lat="39.660288" lon="-7.519438">
        <ele>165.0</ele>
        <time>1970-01-01T00:00:00Z</time>
      </trkpt>
      <trkpt lat="39.660307" lon="-7.519454">
        <ele>164.6</ele>
        <time>1970-01-01T00:00:00Z</time>
      </trkpt>
      <trkpt lat="39.660307" lon="-7.519498">
        <ele>164.4</ele>
        <time>1970-01-01T00:00:00Z</time>
      </trkpt>
      <trkpt lat="39.660285" lon="-7.519627">
        <ele>164.2</ele>
        <time>1970-01-01T00:00:00Z</time>
      </trkpt>
      <trkpt lat="39.660302" lon="-7.519715">
        <ele>163.0</ele>
        <time>1970-01-01T00:00:00Z</time>
      </trkpt>
      <trkpt lat="39.660317" lon="-7.519728">
        <ele>162.7</ele>
        <time>1970-01-01T00:00:00Z</time>
      </trkpt>
      <trkpt lat="39.660378" lon="-7.519690">
        <ele>162.4</ele>
        <time>1970-01-01T00:00:00Z</time>
      </trkpt>
      <trkpt lat="39.660418" lon="-7.519633">
        <ele>162.4</ele>
        <time>1970-01-01T00:00:00Z</time>
      </trkpt>
      <trkpt lat="39.660473" lon="-7.519602">
        <ele>161.7</ele>
        <time>1970-01-01T00:00:00Z</time>
      </trkpt>
      <trkpt lat="39.660678" lon="-7.519557">
        <ele>159.7</ele>
        <time>1970-01-01T00:00:00Z</time>
      </trkpt>
      <trkpt lat="39.660754" lon="-7.519520">
        <ele>159.0</ele>
        <time>1970-01-01T00:00:00Z</time>
      </trkpt>
      <trkpt lat="39.660829" lon="-7.519456">
        <ele>159.0</ele>
        <time>1970-01-01T00:00:00Z</time>
      </trkpt>
      <trkpt lat="39.661189" lon="-7.519422">
        <ele>164.2</ele>
        <time>1970-01-01T00:00:00Z</time>
      </trkpt>
      <trkpt lat="39.661330" lon="-7.519483">
        <ele>169.3</ele>
        <time>1970-01-01T00:00:00Z</time>
      </trkpt>
      <trkpt lat="39.661508" lon="-7.519473">
        <ele>176.2</ele>
        <time>1970-01-01T00:00:00Z</time>
      </trkpt>
      <trkpt lat="39.661976" lon="-7.519341">
        <ele>193.6</ele>
        <time>1970-01-01T00:00:00Z</time>
      </trkpt>
      <trkpt lat="39.662097" lon="-7.519323">
        <ele>197.4</ele>
        <time>1970-01-01T00:00:00Z</time>
      </trkpt>
      <trkpt lat="39.662234" lon="-7.519191">
        <ele>202.6</ele>
        <time>1970-01-01T00:00:00Z</time>
      </trkpt>
      <trkpt lat="39.662382" lon="-7.518968">
        <ele>208.1</ele>
        <time>1970-01-01T00:00:00Z</time>
      </trkpt>
      <trkpt lat="39.662442" lon="-7.518916">
        <ele>209.3</ele>
        <time>1970-01-01T00:00:00Z</time>
      </trkpt>
      <trkpt lat="39.662538" lon="-7.518867">
        <ele>211.2</ele>
        <time>1970-01-01T00:00:00Z</time>
      </trkpt>
      <trkpt lat="39.662567" lon="-7.518791">
        <ele>212.0</ele>
        <time>1970-01-01T00:00:00Z</time>
      </trkpt>
      <trkpt lat="39.662552" lon="-7.518579">
        <ele>212.0</ele>
        <time>1970-01-01T00:00:00Z</time>
      </trkpt>
      <trkpt lat="39.662615" lon="-7.518321">
        <ele>213.0</ele>
        <time>1970-01-01T00:00:00Z</time>
      </trkpt>
      <trkpt lat="39.662640" lon="-7.518168">
        <ele>213.4</ele>
        <time>1970-01-01T00:00:00Z</time>
      </trkpt>
      <trkpt lat="39.662660" lon="-7.517853">
        <ele>214.0</ele>
        <time>1970-01-01T00:00:00Z</time>
      </trkpt>
      <trkpt lat="39.662653" lon="-7.517700">
        <ele>213.2</ele>
        <time>1970-01-01T00:00:00Z</time>
      </trkpt>
      <trkpt lat="39.662673" lon="-7.517534">
        <ele>212.1</ele>
        <time>1970-01-01T00:00:00Z</time>
      </trkpt>
      <trkpt lat="39.662719" lon="-7.517327">
        <ele>211.5</ele>
        <time>1970-01-01T00:00:00Z</time>
      </trkpt>
      <trkpt lat="39.662713" lon="-7.517147">
        <ele>211.1</ele>
        <time>1970-01-01T00:00:00Z</time>
      </trkpt>
      <trkpt lat="39.662566" lon="-7.516466">
        <ele>208.8</ele>
        <time>1970-01-01T00:00:00Z</time>
      </trkpt>
      <trkpt lat="39.662548" lon="-7.516248">
        <ele>207.6</ele>
        <time>1970-01-01T00:00:00Z</time>
      </trkpt>
      <trkpt lat="39.662589" lon="-7.516064">
        <ele>206.7</ele>
        <time>1970-01-01T00:00:00Z</time>
      </trkpt>
      <trkpt lat="39.662672" lon="-7.515842">
        <ele>205.3</ele>
        <time>1970-01-01T00:00:00Z</time>
      </trkpt>
      <trkpt lat="39.662749" lon="-7.515687">
        <ele>204.5</ele>
        <time>1970-01-01T00:00:00Z</time>
      </trkpt>
      <trkpt lat="39.662816" lon="-7.515420">
        <ele>202.5</ele>
        <time>1970-01-01T00:00:00Z</time>
      </trkpt>
      <trkpt lat="39.662988" lon="-7.515258">
        <ele>200.1</ele>
        <time>1970-01-01T00:00:00Z</time>
      </trkpt>
      <trkpt lat="39.663062" lon="-7.514945">
        <ele>193.7</ele>
        <time>1970-01-01T00:00:00Z</time>
      </trkpt>
      <trkpt lat="39.663126" lon="-7.514372">
        <ele>186.2</ele>
        <time>1970-01-01T00:00:00Z</time>
      </trkpt>
      <trkpt lat="39.663133" lon="-7.513951">
        <ele>185.2</ele>
        <time>1970-01-01T00:00:00Z</time>
      </trkpt>
      <trkpt lat="39.663119" lon="-7.513773">
        <ele>185.7</ele>
        <time>1970-01-01T00:00:00Z</time>
      </trkpt>
      <trkpt lat="39.663049" lon="-7.513546">
        <ele>187.9</ele>
        <time>1970-01-01T00:00:00Z</time>
      </trkpt>
      <trkpt lat="39.662801" lon="-7.513113">
        <ele>196.6</ele>
        <time>1970-01-01T00:00:00Z</time>
      </trkpt>
      <trkpt lat="39.662656" lon="-7.513015">
        <ele>198.1</ele>
        <time>1970-01-01T00:00:00Z</time>
      </trkpt>
      <trkpt lat="39.662509" lon="-7.512976">
        <ele>199.0</ele>
        <time>1970-01-01T00:00:00Z</time>
      </trkpt>
      <trkpt lat="39.662251" lon="-7.512944">
        <ele>199.4</ele>
        <time>1970-01-01T00:00:00Z</time>
      </trkpt>
      <trkpt lat="39.662160" lon="-7.512899">
        <ele>199.4</ele>
        <time>1970-01-01T00:00:00Z</time>
      </trkpt>
      <trkpt lat="39.661998" lon="-7.512747">
        <ele>200.6</ele>
        <time>1970-01-01T00:00:00Z</time>
      </trkpt>
      <trkpt lat="39.661566" lon="-7.511979">
        <ele>206.0</ele>
        <time>1970-01-01T00:00:00Z</time>
      </trkpt>
      <trkpt lat="39.661200" lon="-7.511411">
        <ele>210.2</ele>
        <time>1970-01-01T00:00:00Z</time>
      </trkpt>
      <trkpt lat="39.661108" lon="-7.511328">
        <ele>211.4</ele>
        <time>1970-01-01T00:00:00Z</time>
      </trkpt>
      <trkpt lat="39.661063" lon="-7.511192">
        <ele>212.0</ele>
        <time>1970-01-01T00:00:00Z</time>
      </trkpt>
      <trkpt lat="39.661028" lon="-7.510973">
        <ele>212.5</ele>
        <time>1970-01-01T00:00:00Z</time>
      </trkpt>
      <trkpt lat="39.660957" lon="-7.510781">
        <ele>213.3</ele>
        <time>1970-01-01T00:00:00Z</time>
      </trkpt>
      <trkpt lat="39.660871" lon="-7.510492">
        <ele>214.3</ele>
        <time>1970-01-01T00:00:00Z</time>
      </trkpt>
      <trkpt lat="39.660813" lon="-7.510374">
        <ele>215.3</ele>
        <time>1970-01-01T00:00:00Z</time>
      </trkpt>
      <trkpt lat="39.660656" lon="-7.510191">
        <ele>216.8</ele>
        <time>1970-01-01T00:00:00Z</time>
      </trkpt>
      <trkpt lat="39.660590" lon="-7.510074">
        <ele>217.4</ele>
        <time>1970-01-01T00:00:00Z</time>
      </trkpt>
      <trkpt lat="39.660384" lon="-7.509589">
        <ele>220.7</ele>
        <time>1970-01-01T00:00:00Z</time>
      </trkpt>
      <trkpt lat="39.660276" lon="-7.508882">
        <ele>224.5</ele>
        <time>1970-01-01T00:00:00Z</time>
      </trkpt>
      <trkpt lat="39.660206" lon="-7.508640">
        <ele>225.2</ele>
        <time>1970-01-01T00:00:00Z</time>
      </trkpt>
      <trkpt lat="39.660069" lon="-7.508249">
        <ele>225.9</ele>
        <time>1970-01-01T00:00:00Z</time>
      </trkpt>
      <trkpt lat="39.659673" lon="-7.507240">
        <ele>230.3</ele>
        <time>1970-01-01T00:00:00Z</time>
      </trkpt>
      <trkpt lat="39.659406" lon="-7.506850">
        <ele>230.2</ele>
        <time>1970-01-01T00:00:00Z</time>
      </trkpt>
      <trkpt lat="39.659234" lon="-7.506464">
        <ele>231.0</ele>
        <time>1970-01-01T00:00:00Z</time>
      </trkpt>
      <trkpt lat="39.659121" lon="-7.505998">
        <ele>230.1</ele>
        <time>1970-01-01T00:00:00Z</time>
      </trkpt>
      <trkpt lat="39.659022" lon="-7.505789">
        <ele>229.6</ele>
        <time>1970-01-01T00:00:00Z</time>
      </trkpt>
      <trkpt lat="39.658769" lon="-7.505339">
        <ele>230.2</ele>
        <time>1970-01-01T00:00:00Z</time>
      </trkpt>
      <trkpt lat="39.658674" lon="-7.505239">
        <ele>230.7</ele>
        <time>1970-01-01T00:00:00Z</time>
      </trkpt>
      <trkpt lat="39.658294" lon="-7.505019">
        <ele>231.6</ele>
        <time>1970-01-01T00:00:00Z</time>
      </trkpt>
      <trkpt lat="39.658101" lon="-7.504790">
        <ele>232.2</ele>
        <time>1970-01-01T00:00:00Z</time>
      </trkpt>
      <trkpt lat="39.658043" lon="-7.504658">
        <ele>232.8</ele>
        <time>1970-01-01T00:00:00Z</time>
      </trkpt>
      <trkpt lat="39.657849" lon="-7.504492">
        <ele>234.0</ele>
        <time>1970-01-01T00:00:00Z</time>
      </trkpt>
      <trkpt lat="39.657778" lon="-7.504396">
        <ele>234.8</ele>
        <time>1970-01-01T00:00:00Z</time>
      </trkpt>
      <trkpt lat="39.657690" lon="-7.504124">
        <ele>235.2</ele>
        <time>1970-01-01T00:00:00Z</time>
      </trkpt>
      <trkpt lat="39.657288" lon="-7.503834">
        <ele>237.3</ele>
        <time>1970-01-01T00:00:00Z</time>
      </trkpt>
      <trkpt lat="39.657179" lon="-7.503741">
        <ele>237.9</ele>
        <time>1970-01-01T00:00:00Z</time>
      </trkpt>
      <trkpt lat="39.657076" lon="-7.503505">
        <ele>238.0</ele>
        <time>1970-01-01T00:00:00Z</time>
      </trkpt>
      <trkpt lat="39.657015" lon="-7.503254">
        <ele>238.0</ele>
        <time>1970-01-01T00:00:00Z</time>
      </trkpt>
      <trkpt lat="39.656817" lon="-7.502711">
        <ele>239.0</ele>
        <time>1970-01-01T00:00:00Z</time>
      </trkpt>
      <trkpt lat="39.656628" lon="-7.502075">
        <ele>239.2</ele>
        <time>1970-01-01T00:00:00Z</time>
      </trkpt>
      <trkpt lat="39.656616" lon="-7.501946">
        <ele>239.1</ele>
        <time>1970-01-01T00:00:00Z</time>
      </trkpt>
      <trkpt lat="39.656512" lon="-7.501771">
        <ele>239.0</ele>
        <time>1970-01-01T00:00:00Z</time>
      </trkpt>
      <trkpt lat="39.656465" lon="-7.501606">
        <ele>239.9</ele>
        <time>1970-01-01T00:00:00Z</time>
      </trkpt>
      <trkpt lat="39.656382" lon="-7.501393">
        <ele>240.9</ele>
        <time>1970-01-01T00:00:00Z</time>
      </trkpt>
      <trkpt lat="39.656373" lon="-7.501232">
        <ele>242.1</ele>
        <time>1970-01-01T00:00:00Z</time>
      </trkpt>
      <trkpt lat="39.656223" lon="-7.501062">
        <ele>244.2</ele>
        <time>1970-01-01T00:00:00Z</time>
      </trkpt>
      <trkpt lat="39.656101" lon="-7.501003">
        <ele>245.3</ele>
        <time>1970-01-01T00:00:00Z</time>
      </trkpt>
      <trkpt lat="39.656057" lon="-7.500965">
        <ele>246.0</ele>
        <time>1970-01-01T00:00:00Z</time>
      </trkpt>
      <trkpt lat="39.656016" lon="-7.500898">
        <ele>247.0</ele>
        <time>1970-01-01T00:00:00Z</time>
      </trkpt>
      <trkpt lat="39.655909" lon="-7.500862">
        <ele>248.1</ele>
        <time>1970-01-01T00:00:00Z</time>
      </trkpt>
      <trkpt lat="39.655844" lon="-7.500816">
        <ele>248.4</ele>
        <time>1970-01-01T00:00:00Z</time>
      </trkpt>
      <trkpt lat="39.655669" lon="-7.500555">
        <ele>250.0</ele>
        <time>1970-01-01T00:00:00Z</time>
      </trkpt>
      <trkpt lat="39.655534" lon="-7.500312">
        <ele>250.0</ele>
        <time>1970-01-01T00:00:00Z</time>
      </trkpt>
      <trkpt lat="39.655450" lon="-7.499759">
        <ele>251.0</ele>
        <time>1970-01-01T00:00:00Z</time>
      </trkpt>
      <trkpt lat="39.655380" lon="-7.499644">
        <ele>250.9</ele>
        <time>1970-01-01T00:00:00Z</time>
      </trkpt>
      <trkpt lat="39.655302" lon="-7.499538">
        <ele>250.5</ele>
        <time>1970-01-01T00:00:00Z</time>
      </trkpt>
      <trkpt lat="39.655047" lon="-7.499331">
        <ele>249.3</ele>
        <time>1970-01-01T00:00:00Z</time>
      </trkpt>
      <trkpt lat="39.654982" lon="-7.499255">
        <ele>249.1</ele>
        <time>1970-01-01T00:00:00Z</time>
      </trkpt>
      <trkpt lat="39.654917" lon="-7.499165">
        <ele>248.8</ele>
        <time>1970-01-01T00:00:00Z</time>
      </trkpt>
      <trkpt lat="39.654662" lon="-7.498700">
        <ele>248.5</ele>
        <time>1970-01-01T00:00:00Z</time>
      </trkpt>
      <trkpt lat="39.654577" lon="-7.498586">
        <ele>249.0</ele>
        <time>1970-01-01T00:00:00Z</time>
      </trkpt>
      <trkpt lat="39.654267" lon="-7.498262">
        <ele>250.4</ele>
        <time>1970-01-01T00:00:00Z</time>
      </trkpt>
      <trkpt lat="39.654084" lon="-7.498038">
        <ele>250.5</ele>
        <time>1970-01-01T00:00:00Z</time>
      </trkpt>
      <trkpt lat="39.654051" lon="-7.497982">
        <ele>250.6</ele>
        <time>1970-01-01T00:00:00Z</time>
      </trkpt>
      <trkpt lat="39.653859" lon="-7.497883">
        <ele>251.0</ele>
        <time>1970-01-01T00:00:00Z</time>
      </trkpt>
      <trkpt lat="39.653668" lon="-7.497836">
        <ele>251.7</ele>
        <time>1970-01-01T00:00:00Z</time>
      </trkpt>
      <trkpt lat="39.653560" lon="-7.497728">
        <ele>252.1</ele>
        <time>1970-01-01T00:00:00Z</time>
      </trkpt>
      <trkpt lat="39.652809" lon="-7.497147">
        <ele>254.5</ele>
        <time>1970-01-01T00:00:00Z</time>
      </trkpt>
      <trkpt lat="39.652575" lon="-7.497033">
        <ele>256.1</ele>
        <time>1970-01-01T00:00:00Z</time>
      </trkpt>
      <trkpt lat="39.652295" lon="-7.496973">
        <ele>257.5</ele>
        <time>1970-01-01T00:00:00Z</time>
      </trkpt>
      <trkpt lat="39.652093" lon="-7.496910">
        <ele>259.1</ele>
        <time>1970-01-01T00:00:00Z</time>
      </trkpt>
      <trkpt lat="39.651584" lon="-7.496571">
        <ele>264.1</ele>
        <time>1970-01-01T00:00:00Z</time>
      </trkpt>
      <trkpt lat="39.651254" lon="-7.496298">
        <ele>267.0</ele>
        <time>1970-01-01T00:00:00Z</time>
      </trkpt>
      <trkpt lat="39.650832" lon="-7.495914">
        <ele>271.3</ele>
        <time>1970-01-01T00:00:00Z</time>
      </trkpt>
      <trkpt lat="39.650791" lon="-7.495805">
        <ele>272.0</ele>
        <time>1970-01-01T00:00:00Z</time>
      </trkpt>
      <trkpt lat="39.650351" lon="-7.495589">
        <ele>271.9</ele>
        <time>1970-01-01T00:00:00Z</time>
      </trkpt>
      <trkpt lat="39.650268" lon="-7.495482">
        <ele>271.7</ele>
        <time>1970-01-01T00:00:00Z</time>
      </trkpt>
      <trkpt lat="39.650092" lon="-7.495133">
        <ele>270.1</ele>
        <time>1970-01-01T00:00:00Z</time>
      </trkpt>
      <trkpt lat="39.650023" lon="-7.495055">
        <ele>270.0</ele>
        <time>1970-01-01T00:00:00Z</time>
      </trkpt>
      <trkpt lat="39.649828" lon="-7.495022">
        <ele>270.0</ele>
        <time>1970-01-01T00:00:00Z</time>
      </trkpt>
      <trkpt lat="39.649378" lon="-7.492113">
        <ele>277.3</ele>
        <time>1970-01-01T00:00:00Z</time>
      </trkpt>
      <trkpt lat="39.649328" lon="-7.491947">
        <ele>278.0</ele>
        <time>1970-01-01T00:00:00Z</time>
      </trkpt>
      <trkpt lat="39.648933" lon="-7.491204">
        <ele>282.0</ele>
        <time>1970-01-01T00:00:00Z</time>
      </trkpt>
      <trkpt lat="39.648258" lon="-7.489878">
        <ele>279.4</ele>
        <time>1970-01-01T00:00:00Z</time>
      </trkpt>
      <trkpt lat="39.648273" lon="-7.489751">
        <ele>279.1</ele>
        <time>1970-01-01T00:00:00Z</time>
      </trkpt>
      <trkpt lat="39.648236" lon="-7.489583">
        <ele>278.9</ele>
        <time>1970-01-01T00:00:00Z</time>
      </trkpt>
      <trkpt lat="39.648165" lon="-7.489384">
        <ele>278.6</ele>
        <time>1970-01-01T00:00:00Z</time>
      </trkpt>
      <trkpt lat="39.647902" lon="-7.488837">
        <ele>279.0</ele>
        <time>1970-01-01T00:00:00Z</time>
      </trkpt>
      <trkpt lat="39.647650" lon="-7.488426">
        <ele>279.6</ele>
        <time>1970-01-01T00:00:00Z</time>
      </trkpt>
      <trkpt lat="39.647498" lon="-7.488147">
        <ele>280.8</ele>
        <time>1970-01-01T00:00:00Z</time>
      </trkpt>
      <trkpt lat="39.647390" lon="-7.487840">
        <ele>281.0</ele>
        <time>1970-01-01T00:00:00Z</time>
      </trkpt>
      <trkpt lat="39.647298" lon="-7.487659">
        <ele>281.1</ele>
        <time>1970-01-01T00:00:00Z</time>
      </trkpt>
      <trkpt lat="39.647155" lon="-7.487472">
        <ele>281.3</ele>
        <time>1970-01-01T00:00:00Z</time>
      </trkpt>
      <trkpt lat="39.647121" lon="-7.487455">
        <ele>281.2</ele>
        <time>1970-01-01T00:00:00Z</time>
      </trkpt>
      <trkpt lat="39.647085" lon="-7.487391">
        <ele>281.3</ele>
        <time>1970-01-01T00:00:00Z</time>
      </trkpt>
      <trkpt lat="39.646998" lon="-7.487050">
        <ele>282.4</ele>
        <time>1970-01-01T00:00:00Z</time>
      </trkpt>
      <trkpt lat="39.646700" lon="-7.486621">
        <ele>282.3</ele>
        <time>1970-01-01T00:00:00Z</time>
      </trkpt>
      <trkpt lat="39.646588" lon="-7.486353">
        <ele>282.5</ele>
        <time>1970-01-01T00:00:00Z</time>
      </trkpt>
      <trkpt lat="39.646022" lon="-7.485320">
        <ele>282.5</ele>
        <time>1970-01-01T00:00:00Z</time>
      </trkpt>
      <trkpt lat="39.645673" lon="-7.484789">
        <ele>282.8</ele>
        <time>1970-01-01T00:00:00Z</time>
      </trkpt>
      <trkpt lat="39.645545" lon="-7.484682">
        <ele>283.8</ele>
        <time>1970-01-01T00:00:00Z</time>
      </trkpt>
      <trkpt lat="39.644813" lon="-7.483792">
        <ele>286.0</ele>
        <time>1970-01-01T00:00:00Z</time>
      </trkpt>
      <trkpt lat="39.644436" lon="-7.483296">
        <ele>285.6</ele>
        <time>1970-01-01T00:00:00Z</time>
      </trkpt>
      <trkpt lat="39.644103" lon="-7.482888">
        <ele>287.8</ele>
        <time>1970-01-01T00:00:00Z</time>
      </trkpt>
      <trkpt lat="39.643702" lon="-7.482421">
        <ele>289.4</ele>
        <time>1970-01-01T00:00:00Z</time>
      </trkpt>
      <trkpt lat="39.643584" lon="-7.482253">
        <ele>290.7</ele>
        <time>1970-01-01T00:00:00Z</time>
      </trkpt>
      <trkpt lat="39.643448" lon="-7.481990">
        <ele>293.3</ele>
        <time>1970-01-01T00:00:00Z</time>
      </trkpt>
      <trkpt lat="39.642688" lon="-7.481132">
        <ele>290.9</ele>
        <time>1970-01-01T00:00:00Z</time>
      </trkpt>
      <trkpt lat="39.641701" lon="-7.479941">
        <ele>289.0</ele>
        <time>1970-01-01T00:00:00Z</time>
      </trkpt>
      <trkpt lat="39.641564" lon="-7.479824">
        <ele>289.0</ele>
        <time>1970-01-01T00:00:00Z</time>
      </trkpt>
      <trkpt lat="39.641405" lon="-7.479617">
        <ele>289.0</ele>
        <time>1970-01-01T00:00:00Z</time>
      </trkpt>
      <trkpt lat="39.641144" lon="-7.479319">
        <ele>290.2</ele>
        <time>1970-01-01T00:00:00Z</time>
      </trkpt>
      <trkpt lat="39.640486" lon="-7.478478">
        <ele>294.9</ele>
        <time>1970-01-01T00:00:00Z</time>
      </trkpt>
      <trkpt lat="39.639769" lon="-7.477600">
        <ele>297.3</ele>
        <time>1970-01-01T00:00:00Z</time>
      </trkpt>
      <trkpt lat="39.639693" lon="-7.477556">
        <ele>297.0</ele>
        <time>1970-01-01T00:00:00Z</time>
      </trkpt>
      <trkpt lat="39.639276" lon="-7.476782">
        <ele>296.2</ele>
        <time>1970-01-01T00:00:00Z</time>
      </trkpt>
      <trkpt lat="39.638348" lon="-7.474864">
        <ele>296.4</ele>
        <time>1970-01-01T00:00:00Z</time>
      </trkpt>
      <trkpt lat="39.638093" lon="-7.474362">
        <ele>296.7</ele>
        <time>1970-01-01T00:00:00Z</time>
      </trkpt>
      <trkpt lat="39.637664" lon="-7.473565">
        <ele>297.4</ele>
        <time>1970-01-01T00:00:00Z</time>
      </trkpt>
      <trkpt lat="39.637201" lon="-7.472628">
        <ele>301.2</ele>
        <time>1970-01-01T00:00:00Z</time>
      </trkpt>
      <trkpt lat="39.636785" lon="-7.471899">
        <ele>302.2</ele>
        <time>1970-01-01T00:00:00Z</time>
      </trkpt>
      <trkpt lat="39.636638" lon="-7.471569">
        <ele>301.4</ele>
        <time>1970-01-01T00:00:00Z</time>
      </trkpt>
      <trkpt lat="39.636493" lon="-7.471352">
        <ele>300.2</ele>
        <time>1970-01-01T00:00:00Z</time>
      </trkpt>
      <trkpt lat="39.636034" lon="-7.470465">
        <ele>295.1</ele>
        <time>1970-01-01T00:00:00Z</time>
      </trkpt>
      <trkpt lat="39.635721" lon="-7.469823">
        <ele>291.5</ele>
        <time>1970-01-01T00:00:00Z</time>
      </trkpt>
      <trkpt lat="39.635603" lon="-7.469619">
        <ele>290.1</ele>
        <time>1970-01-01T00:00:00Z</time>
      </trkpt>
      <trkpt lat="39.635480" lon="-7.469460">
        <ele>289.6</ele>
        <time>1970-01-01T00:00:00Z</time>
      </trkpt>
      <trkpt lat="39.635166" lon="-7.468900">
        <ele>290.9</ele>
        <time>1970-01-01T00:00:00Z</time>
      </trkpt>
      <trkpt lat="39.634869" lon="-7.468311">
        <ele>292.9</ele>
        <time>1970-01-01T00:00:00Z</time>
      </trkpt>
      <trkpt lat="39.634658" lon="-7.467931">
        <ele>294.9</ele>
        <time>1970-01-01T00:00:00Z</time>
      </trkpt>
      <trkpt lat="39.634407" lon="-7.467416">
        <ele>296.8</ele>
        <time>1970-01-01T00:00:00Z</time>
      </trkpt>
      <trkpt lat="39.634312" lon="-7.467257">
        <ele>297.2</ele>
        <time>1970-01-01T00:00:00Z</time>
      </trkpt>
      <trkpt lat="39.634180" lon="-7.466980">
        <ele>297.9</ele>
        <time>1970-01-01T00:00:00Z</time>
      </trkpt>
      <trkpt lat="39.634007" lon="-7.466668">
        <ele>297.2</ele>
        <time>1970-01-01T00:00:00Z</time>
      </trkpt>
      <trkpt lat="39.633820" lon="-7.466287">
        <ele>298.1</ele>
        <time>1970-01-01T00:00:00Z</time>
      </trkpt>
      <trkpt lat="39.633623" lon="-7.465919">
        <ele>296.6</ele>
        <time>1970-01-01T00:00:00Z</time>
      </trkpt>
      <trkpt lat="39.633460" lon="-7.465546">
        <ele>296.0</ele>
        <time>1970-01-01T00:00:00Z</time>
      </trkpt>
      <trkpt lat="39.633038" lon="-7.464755">
        <ele>297.2</ele>
        <time>1970-01-01T00:00:00Z</time>
      </trkpt>
      <trkpt lat="39.632983" lon="-7.464598">
        <ele>297.8</ele>
        <time>1970-01-01T00:00:00Z</time>
      </trkpt>
      <trkpt lat="39.632730" lon="-7.464158">
        <ele>299.4</ele>
        <time>1970-01-01T00:00:00Z</time>
      </trkpt>
      <trkpt lat="39.632369" lon="-7.463476">
        <ele>298.8</ele>
        <time>1970-01-01T00:00:00Z</time>
      </trkpt>
      <trkpt lat="39.632238" lon="-7.463276">
        <ele>299.2</ele>
        <time>1970-01-01T00:00:00Z</time>
      </trkpt>
      <trkpt lat="39.632267" lon="-7.463095">
        <ele>299.1</ele>
        <time>1970-01-01T00:00:00Z</time>
      </trkpt>
      <trkpt lat="39.632365" lon="-7.462977">
        <ele>299.0</ele>
        <time>1970-01-01T00:00:00Z</time>
      </trkpt>
      <trkpt lat="39.632489" lon="-7.462772">
        <ele>298.4</ele>
        <time>1970-01-01T00:00:00Z</time>
      </trkpt>
      <trkpt lat="39.632631" lon="-7.462463">
        <ele>296.5</ele>
        <time>1970-01-01T00:00:00Z</time>
      </trkpt>
      <trkpt lat="39.632742" lon="-7.462030">
        <ele>294.1</ele>
        <time>1970-01-01T00:00:00Z</time>
      </trkpt>
      <trkpt lat="39.632796" lon="-7.461692">
        <ele>292.6</ele>
        <time>1970-01-01T00:00:00Z</time>
      </trkpt>
      <trkpt lat="39.632804" lon="-7.461522">
        <ele>292.6</ele>
        <time>1970-01-01T00:00:00Z</time>
      </trkpt>
      <trkpt lat="39.632776" lon="-7.461280">
        <ele>293.7</ele>
        <time>1970-01-01T00:00:00Z</time>
      </trkpt>
      <trkpt lat="39.632654" lon="-7.460719">
        <ele>296.4</ele>
        <time>1970-01-01T00:00:00Z</time>
      </trkpt>
      <trkpt lat="39.632620" lon="-7.460628">
        <ele>297.1</ele>
        <time>1970-01-01T00:00:00Z</time>
      </trkpt>
      <trkpt lat="39.632427" lon="-7.460367">
        <ele>301.3</ele>
        <time>1970-01-01T00:00:00Z</time>
      </trkpt>
      <trkpt lat="39.632131" lon="-7.459889">
        <ele>305.1</ele>
        <time>1970-01-01T00:00:00Z</time>
      </trkpt>
      <trkpt lat="39.631867" lon="-7.459427">
        <ele>305.6</ele>
        <time>1970-01-01T00:00:00Z</time>
      </trkpt>
      <trkpt lat="39.631516" lon="-7.458886">
        <ele>302.5</ele>
        <time>1970-01-01T00:00:00Z</time>
      </trkpt>
      <trkpt lat="39.631066" lon="-7.458101">
        <ele>299.0</ele>
        <time>1970-01-01T00:00:00Z</time>
      </trkpt>
      <trkpt lat="39.630934" lon="-7.457914">
        <ele>299.0</ele>
        <time>1970-01-01T00:00:00Z</time>
      </trkpt>
      <trkpt lat="39.630627" lon="-7.457320">
        <ele>296.5</ele>
        <time>1970-01-01T00:00:00Z</time>
      </trkpt>
      <trkpt lat="39.629985" lon="-7.456348">
        <ele>296.9</ele>
        <time>1970-01-01T00:00:00Z</time>
      </trkpt>
      <trkpt lat="39.629857" lon="-7.456117">
        <ele>296.8</ele>
        <time>1970-01-01T00:00:00Z</time>
      </trkpt>
      <trkpt lat="39.629767" lon="-7.455924">
        <ele>295.4</ele>
        <time>1970-01-01T00:00:00Z</time>
      </trkpt>
      <trkpt lat="39.629757" lon="-7.455875">
        <ele>295.0</ele>
        <time>1970-01-01T00:00:00Z</time>
      </trkpt>
      <trkpt lat="39.629721" lon="-7.455846">
        <ele>294.9</ele>
        <time>1970-01-01T00:00:00Z</time>
      </trkpt>
      <trkpt lat="39.629495" lon="-7.455498">
        <ele>295.2</ele>
        <time>1970-01-01T00:00:00Z</time>
      </trkpt>
      <trkpt lat="39.629232" lon="-7.454953">
        <ele>299.5</ele>
        <time>1970-01-01T00:00:00Z</time>
      </trkpt>
      <trkpt lat="39.628789" lon="-7.454284">
        <ele>306.1</ele>
        <time>1970-01-01T00:00:00Z</time>
      </trkpt>
      <trkpt lat="39.628785" lon="-7.454202">
        <ele>306.0</ele>
        <time>1970-01-01T00:00:00Z</time>
      </trkpt>
      <trkpt lat="39.628804" lon="-7.454119">
        <ele>305.8</ele>
        <time>1970-01-01T00:00:00Z</time>
      </trkpt>
      <trkpt lat="39.628877" lon="-7.454012">
        <ele>304.7</ele>
        <time>1970-01-01T00:00:00Z</time>
      </trkpt>
      <trkpt lat="39.629115" lon="-7.453753">
        <ele>303.3</ele>
        <time>1970-01-01T00:00:00Z</time>
      </trkpt>
      <trkpt lat="39.629654" lon="-7.453358">
        <ele>300.7</ele>
        <time>1970-01-01T00:00:00Z</time>
      </trkpt>
      <trkpt lat="39.630276" lon="-7.453006">
        <ele>294.8</ele>
        <time>1970-01-01T00:00:00Z</time>
      </trkpt>
      <trkpt lat="39.630340" lon="-7.452988">
        <ele>294.4</ele>
        <time>1970-01-01T00:00:00Z</time>
      </trkpt>
      <trkpt lat="39.630898" lon="-7.452926">
        <ele>292.7</ele>
        <time>1970-01-01T00:00:00Z</time>
      </trkpt>
      <trkpt lat="39.630987" lon="-7.452857">
        <ele>291.8</ele>
        <time>1970-01-01T00:00:00Z</time>
      </trkpt>
      <trkpt lat="39.631063" lon="-7.452735">
        <ele>290.4</ele>
        <time>1970-01-01T00:00:00Z</time>
      </trkpt>
      <trkpt lat="39.631116" lon="-7.452628">
        <ele>289.0</ele>
        <time>1970-01-01T00:00:00Z</time>
      </trkpt>
      <trkpt lat="39.631137" lon="-7.452478">
        <ele>287.6</ele>
        <time>1970-01-01T00:00:00Z</time>
      </trkpt>
      <trkpt lat="39.631062" lon="-7.452081">
        <ele>284.2</ele>
        <time>1970-01-01T00:00:00Z</time>
      </trkpt>
      <trkpt lat="39.631043" lon="-7.451869">
        <ele>282.1</ele>
        <time>1970-01-01T00:00:00Z</time>
      </trkpt>
      <trkpt lat="39.631073" lon="-7.451558">
        <ele>279.4</ele>
        <time>1970-01-01T00:00:00Z</time>
      </trkpt>
      <trkpt lat="39.631071" lon="-7.451453">
        <ele>278.5</ele>
        <time>1970-01-01T00:00:00Z</time>
      </trkpt>
      <trkpt lat="39.631052" lon="-7.451292">
        <ele>277.4</ele>
        <time>1970-01-01T00:00:00Z</time>
      </trkpt>
      <trkpt lat="39.631043" lon="-7.451037">
        <ele>276.6</ele>
        <time>1970-01-01T00:00:00Z</time>
      </trkpt>
      <trkpt lat="39.631052" lon="-7.450843">
        <ele>276.6</ele>
        <time>1970-01-01T00:00:00Z</time>
      </trkpt>
      <trkpt lat="39.631017" lon="-7.450782">
        <ele>276.3</ele>
        <time>1970-01-01T00:00:00Z</time>
      </trkpt>
      <trkpt lat="39.631077" lon="-7.450265">
        <ele>277.6</ele>
        <time>1970-01-01T00:00:00Z</time>
      </trkpt>
      <trkpt lat="39.631117" lon="-7.450167">
        <ele>277.7</ele>
        <time>1970-01-01T00:00:00Z</time>
      </trkpt>
      <trkpt lat="39.631361" lon="-7.449763">
        <ele>277.0</ele>
        <time>1970-01-01T00:00:00Z</time>
      </trkpt>
      <trkpt lat="39.631427" lon="-7.449684">
        <ele>276.5</ele>
        <time>1970-01-01T00:00:00Z</time>
      </trkpt>
      <trkpt lat="39.631686" lon="-7.449289">
        <ele>276.0</ele>
        <time>1970-01-01T00:00:00Z</time>
      </trkpt>
      <trkpt lat="39.631856" lon="-7.449073">
        <ele>276.9</ele>
        <time>1970-01-01T00:00:00Z</time>
      </trkpt>
      <trkpt lat="39.631907" lon="-7.448983">
        <ele>277.0</ele>
        <time>1970-01-01T00:00:00Z</time>
      </trkpt>
      <trkpt lat="39.632063" lon="-7.448458">
        <ele>279.1</ele>
        <time>1970-01-01T00:00:00Z</time>
      </trkpt>
      <trkpt lat="39.632442" lon="-7.447814">
        <ele>278.5</ele>
        <time>1970-01-01T00:00:00Z</time>
      </trkpt>
      <trkpt lat="39.632528" lon="-7.447546">
        <ele>277.9</ele>
        <time>1970-01-01T00:00:00Z</time>
      </trkpt>
      <trkpt lat="39.632567" lon="-7.447396">
        <ele>277.4</ele>
        <time>1970-01-01T00:00:00Z</time>
      </trkpt>
      <trkpt lat="39.632597" lon="-7.447210">
        <ele>276.4</ele>
        <time>1970-01-01T00:00:00Z</time>
      </trkpt>
      <trkpt lat="39.632610" lon="-7.447063">
        <ele>275.3</ele>
        <time>1970-01-01T00:00:00Z</time>
      </trkpt>
      <trkpt lat="39.632578" lon="-7.446945">
        <ele>274.5</ele>
        <time>1970-01-01T00:00:00Z</time>
      </trkpt>
      <trkpt lat="39.632365" lon="-7.446631">
        <ele>271.6</ele>
        <time>1970-01-01T00:00:00Z</time>
      </trkpt>
      <trkpt lat="39.632313" lon="-7.446504">
        <ele>270.0</ele>
        <time>1970-01-01T00:00:00Z</time>
      </trkpt>
      <trkpt lat="39.632277" lon="-7.446349">
        <ele>267.9</ele>
        <time>1970-01-01T00:00:00Z</time>
      </trkpt>
      <trkpt lat="39.632258" lon="-7.446005">
        <ele>263.6</ele>
        <time>1970-01-01T00:00:00Z</time>
      </trkpt>
      <trkpt lat="39.632259" lon="-7.445675">
        <ele>260.2</ele>
        <time>1970-01-01T00:00:00Z</time>
      </trkpt>
      <trkpt lat="39.632306" lon="-7.445500">
        <ele>258.3</ele>
        <time>1970-01-01T00:00:00Z</time>
      </trkpt>
      <trkpt lat="39.632367" lon="-7.445351">
        <ele>257.0</ele>
        <time>1970-01-01T00:00:00Z</time>
      </trkpt>
      <trkpt lat="39.632480" lon="-7.445129">
        <ele>255.1</ele>
        <time>1970-01-01T00:00:00Z</time>
      </trkpt>
      <trkpt lat="39.632507" lon="-7.445033">
        <ele>255.0</ele>
        <time>1970-01-01T00:00:00Z</time>
      </trkpt>
      <trkpt lat="39.632515" lon="-7.444925">
        <ele>255.0</ele>
        <time>1970-01-01T00:00:00Z</time>
      </trkpt>
      <trkpt lat="39.632490" lon="-7.444721">
        <ele>255.8</ele>
        <time>1970-01-01T00:00:00Z</time>
      </trkpt>
      <trkpt lat="39.632498" lon="-7.444613">
        <ele>255.9</ele>
        <time>1970-01-01T00:00:00Z</time>
      </trkpt>
      <trkpt lat="39.632466" lon="-7.444512">
        <ele>255.6</ele>
        <time>1970-01-01T00:00:00Z</time>
      </trkpt>
      <trkpt lat="39.632402" lon="-7.444434">
        <ele>255.5</ele>
        <time>1970-01-01T00:00:00Z</time>
      </trkpt>
      <trkpt lat="39.632101" lon="-7.443959">
        <ele>259.8</ele>
        <time>1970-01-01T00:00:00Z</time>
      </trkpt>
      <trkpt lat="39.631962" lon="-7.443756">
        <ele>259.5</ele>
        <time>1970-01-01T00:00:00Z</time>
      </trkpt>
      <trkpt lat="39.631893" lon="-7.443677">
        <ele>259.3</ele>
        <time>1970-01-01T00:00:00Z</time>
      </trkpt>
      <trkpt lat="39.631817" lon="-7.443618">
        <ele>259.0</ele>
        <time>1970-01-01T00:00:00Z</time>
      </trkpt>
      <trkpt lat="39.631804" lon="-7.443571">
        <ele>258.5</ele>
        <time>1970-01-01T00:00:00Z</time>
      </trkpt>
      <trkpt lat="39.631855" lon="-7.443517">
        <ele>258.2</ele>
        <time>1970-01-01T00:00:00Z</time>
      </trkpt>
      <trkpt lat="39.632000" lon="-7.443315">
        <ele>256.3</ele>
        <time>1970-01-01T00:00:00Z</time>
      </trkpt>
      <trkpt lat="39.632040" lon="-7.443223">
        <ele>255.6</ele>
        <time>1970-01-01T00:00:00Z</time>
      </trkpt>
      <trkpt lat="39.632626" lon="-7.442657">
        <ele>250.5</ele>
        <time>1970-01-01T00:00:00Z</time>
      </trkpt>
      <trkpt lat="39.632672" lon="-7.442586">
        <ele>249.2</ele>
        <time>1970-01-01T00:00:00Z</time>
      </trkpt>
      <trkpt lat="39.632707" lon="-7.442024">
        <ele>241.6</ele>
        <time>1970-01-01T00:00:00Z</time>
      </trkpt>
      <trkpt lat="39.632700" lon="-7.441925">
        <ele>240.8</ele>
        <time>1970-01-01T00:00:00Z</time>
      </trkpt>
      <trkpt lat="39.632661" lon="-7.441750">
        <ele>240.0</ele>
        <time>1970-01-01T00:00:00Z</time>
      </trkpt>
      <trkpt lat="39.632615" lon="-7.441387">
        <ele>239.2</ele>
        <time>1970-01-01T00:00:00Z</time>
      </trkpt>
      <trkpt lat="39.632611" lon="-7.441266">
        <ele>239.4</ele>
        <time>1970-01-01T00:00:00Z</time>
      </trkpt>
      <trkpt lat="39.632616" lon="-7.441162">
        <ele>239.6</ele>
        <time>1970-01-01T00:00:00Z</time>
      </trkpt>
      <trkpt lat="39.632761" lon="-7.440573">
        <ele>239.3</ele>
        <time>1970-01-01T00:00:00Z</time>
      </trkpt>
      <trkpt lat="39.632820" lon="-7.440118">
        <ele>236.8</ele>
        <time>1970-01-01T00:00:00Z</time>
      </trkpt>
      <trkpt lat="39.632806" lon="-7.440001">
        <ele>236.4</ele>
        <time>1970-01-01T00:00:00Z</time>
      </trkpt>
      <trkpt lat="39.632474" lon="-7.439494">
        <ele>236.8</ele>
        <time>1970-01-01T00:00:00Z</time>
      </trkpt>
      <trkpt lat="39.632261" lon="-7.439394">
        <ele>237.0</ele>
        <time>1970-01-01T00:00:00Z</time>
      </trkpt>
      <trkpt lat="39.632158" lon="-7.439307">
        <ele>236.9</ele>
        <time>1970-01-01T00:00:00Z</time>
      </trkpt>
      <trkpt lat="39.632086" lon="-7.439287">
        <ele>236.8</ele>
        <time>1970-01-01T00:00:00Z</time>
      </trkpt>
      <trkpt lat="39.631986" lon="-7.439305">
        <ele>236.6</ele>
        <time>1970-01-01T00:00:00Z</time>
      </trkpt>
      <trkpt lat="39.631920" lon="-7.439345">
        <ele>236.4</ele>
        <time>1970-01-01T00:00:00Z</time>
      </trkpt>
      <trkpt lat="39.631729" lon="-7.439346">
        <ele>235.6</ele>
        <time>1970-01-01T00:00:00Z</time>
      </trkpt>
      <trkpt lat="39.631647" lon="-7.439202">
        <ele>235.2</ele>
        <time>1970-01-01T00:00:00Z</time>
      </trkpt>
      <trkpt lat="39.631547" lon="-7.439068">
        <ele>234.8</ele>
        <time>1970-01-01T00:00:00Z</time>
      </trkpt>
      <trkpt lat="39.631532" lon="-7.439022">
        <ele>234.7</ele>
        <time>1970-01-01T00:00:00Z</time>
      </trkpt>
      <trkpt lat="39.631485" lon="-7.438965">
        <ele>234.5</ele>
        <time>1970-01-01T00:00:00Z</time>
      </trkpt>
      <trkpt lat="39.631375" lon="-7.438874">
        <ele>234.1</ele>
        <time>1970-01-01T00:00:00Z</time>
      </trkpt>
      <trkpt lat="39.631326" lon="-7.438770">
        <ele>234.1</ele>
        <time>1970-01-01T00:00:00Z</time>
      </trkpt>
      <trkpt lat="39.631242" lon="-7.438668">
        <ele>234.4</ele>
        <time>1970-01-01T00:00:00Z</time>
      </trkpt>
      <trkpt lat="39.631227" lon="-7.438584">
        <ele>234.8</ele>
        <time>1970-01-01T00:00:00Z</time>
      </trkpt>
      <trkpt lat="39.631304" lon="-7.438313">
        <ele>235.9</ele>
        <time>1970-01-01T00:00:00Z</time>
      </trkpt>
      <trkpt lat="39.631295" lon="-7.438226">
        <ele>236.6</ele>
        <time>1970-01-01T00:00:00Z</time>
      </trkpt>
      <trkpt lat="39.631252" lon="-7.438176">
        <ele>237.0</ele>
        <time>1970-01-01T00:00:00Z</time>
      </trkpt>
      <trkpt lat="39.631197" lon="-7.438148">
        <ele>237.3</ele>
        <time>1970-01-01T00:00:00Z</time>
      </trkpt>
      <trkpt lat="39.631176" lon="-7.438115">
        <ele>237.7</ele>
        <time>1970-01-01T00:00:00Z</time>
      </trkpt>
      <trkpt lat="39.631099" lon="-7.438129">
        <ele>237.8</ele>
        <time>1970-01-01T00:00:00Z</time>
      </trkpt>
      <trkpt lat="39.631046" lon="-7.438178">
        <ele>237.7</ele>
        <time>1970-01-01T00:00:00Z</time>
      </trkpt>
      <trkpt lat="39.630951" lon="-7.438053">
        <ele>240.1</ele>
        <time>1970-01-01T00:00:00Z</time>
      </trkpt>
      <trkpt lat="39.630896" lon="-7.438005">
        <ele>241.2</ele>
        <time>1970-01-01T00:00:00Z</time>
      </trkpt>
      <trkpt lat="39.630788" lon="-7.437984">
        <ele>242.4</ele>
        <time>1970-01-01T00:00:00Z</time>
      </trkpt>
      <trkpt lat="39.630801" lon="-7.437938">
        <ele>242.9</ele>
        <time>1970-01-01T00:00:00Z</time>
      </trkpt>
      <trkpt lat="39.630831" lon="-7.437917">
        <ele>242.9</ele>
        <time>1970-01-01T00:00:00Z</time>
      </trkpt>
      <trkpt lat="39.630890" lon="-7.437815">
        <ele>243.7</ele>
        <time>1970-01-01T00:00:00Z</time>
      </trkpt>
      <trkpt lat="39.630909" lon="-7.437725">
        <ele>244.6</ele>
        <time>1970-01-01T00:00:00Z</time>
      </trkpt>
      <trkpt lat="39.630788" lon="-7.437446">
        <ele>249.9</ele>
        <time>1970-01-01T00:00:00Z</time>
      </trkpt>
      <trkpt lat="39.630773" lon="-7.437278">
        <ele>252.6</ele>
        <time>1970-01-01T00:00:00Z</time>
      </trkpt>
      <trkpt lat="39.630776" lon="-7.437152">
        <ele>254.4</ele>
        <time>1970-01-01T00:00:00Z</time>
      </trkpt>
      <trkpt lat="39.630739" lon="-7.437027">
        <ele>256.5</ele>
        <time>1970-01-01T00:00:00Z</time>
      </trkpt>
      <trkpt lat="39.630755" lon="-7.436720">
        <ele>259.3</ele>
        <time>1970-01-01T00:00:00Z</time>
      </trkpt>
      <trkpt lat="39.630873" lon="-7.436513">
        <ele>261.2</ele>
        <time>1970-01-01T00:00:00Z</time>
      </trkpt>
      <trkpt lat="39.630933" lon="-7.436097">
        <ele>262.6</ele>
        <time>1970-01-01T00:00:00Z</time>
      </trkpt>
      <trkpt lat="39.630971" lon="-7.435942">
        <ele>263.6</ele>
        <time>1970-01-01T00:00:00Z</time>
      </trkpt>
      <trkpt lat="39.631011" lon="-7.435799">
        <ele>264.5</ele>
        <time>1970-01-01T00:00:00Z</time>
      </trkpt>
      <trkpt lat="39.631121" lon="-7.435572">
        <ele>265.5</ele>
        <time>1970-01-01T00:00:00Z</time>
      </trkpt>
      <trkpt lat="39.631136" lon="-7.435373">
        <ele>267.1</ele>
        <time>1970-01-01T00:00:00Z</time>
      </trkpt>
      <trkpt lat="39.631195" lon="-7.435123">
        <ele>268.6</ele>
        <time>1970-01-01T00:00:00Z</time>
      </trkpt>
      <trkpt lat="39.631237" lon="-7.434884">
        <ele>270.0</ele>
        <time>1970-01-01T00:00:00Z</time>
      </trkpt>
      <trkpt lat="39.631377" lon="-7.434597">
        <ele>273.3</ele>
        <time>1970-01-01T00:00:00Z</time>
      </trkpt>
      <trkpt lat="39.631406" lon="-7.434501">
        <ele>274.4</ele>
        <time>1970-01-01T00:00:00Z</time>
      </trkpt>
      <trkpt lat="39.631449" lon="-7.434205">
        <ele>277.0</ele>
        <time>1970-01-01T00:00:00Z</time>
      </trkpt>
      <trkpt lat="39.631449" lon="-7.434104">
        <ele>278.1</ele>
        <time>1970-01-01T00:00:00Z</time>
      </trkpt>
      <trkpt lat="39.631469" lon="-7.433940">
        <ele>279.3</ele>
        <time>1970-01-01T00:00:00Z</time>
      </trkpt>
      <trkpt lat="39.631613" lon="-7.433557">
        <ele>279.7</ele>
        <time>1970-01-01T00:00:00Z</time>
      </trkpt>
      <trkpt lat="39.631822" lon="-7.433181">
        <ele>280.0</ele>
        <time>1970-01-01T00:00:00Z</time>
      </trkpt>
      <trkpt lat="39.631904" lon="-7.432893">
        <ele>279.3</ele>
        <time>1970-01-01T00:00:00Z</time>
      </trkpt>
      <trkpt lat="39.631936" lon="-7.432841">
        <ele>279.1</ele>
        <time>1970-01-01T00:00:00Z</time>
      </trkpt>
      <trkpt lat="39.632043" lon="-7.432725">
        <ele>279.1</ele>
        <time>1970-01-01T00:00:00Z</time>
      </trkpt>
      <trkpt lat="39.632087" lon="-7.432636">
        <ele>279.7</ele>
        <time>1970-01-01T00:00:00Z</time>
      </trkpt>
      <trkpt lat="39.632151" lon="-7.432463">
        <ele>280.8</ele>
        <time>1970-01-01T00:00:00Z</time>
      </trkpt>
      <trkpt lat="39.632157" lon="-7.432407">
        <ele>281.3</ele>
        <time>1970-01-01T00:00:00Z</time>
      </trkpt>
      <trkpt lat="39.632144" lon="-7.432233">
        <ele>282.0</ele>
        <time>1970-01-01T00:00:00Z</time>
      </trkpt>
      <trkpt lat="39.632287" lon="-7.431843">
        <ele>285.3</ele>
        <time>1970-01-01T00:00:00Z</time>
      </trkpt>
      <trkpt lat="39.632294" lon="-7.431745">
        <ele>285.8</ele>
        <time>1970-01-01T00:00:00Z</time>
      </trkpt>
      <trkpt lat="39.632286" lon="-7.431557">
        <ele>286.6</ele>
        <time>1970-01-01T00:00:00Z</time>
      </trkpt>
      <trkpt lat="39.632358" lon="-7.431374">
        <ele>287.6</ele>
        <time>1970-01-01T00:00:00Z</time>
      </trkpt>
      <trkpt lat="39.632337" lon="-7.431126">
        <ele>288.0</ele>
        <time>1970-01-01T00:00:00Z</time>
      </trkpt>
      <trkpt lat="39.632375" lon="-7.430877">
        <ele>288.0</ele>
        <time>1970-01-01T00:00:00Z</time>
      </trkpt>
      <trkpt lat="39.632405" lon="-7.430448">
        <ele>286.8</ele>
        <time>1970-01-01T00:00:00Z</time>
      </trkpt>
      <trkpt lat="39.632448" lon="-7.430226">
        <ele>286.0</ele>
        <time>1970-01-01T00:00:00Z</time>
      </trkpt>
      <trkpt lat="39.632456" lon="-7.430116">
        <ele>285.5</ele>
        <time>1970-01-01T00:00:00Z</time>
      </trkpt>
      <trkpt lat="39.632462" lon="-7.430015">
        <ele>285.1</ele>
        <time>1970-01-01T00:00:00Z</time>
      </trkpt>
      <trkpt lat="39.632427" lon="-7.429673">
        <ele>284.8</ele>
        <time>1970-01-01T00:00:00Z</time>
      </trkpt>
      <trkpt lat="39.632431" lon="-7.429419">
        <ele>284.7</ele>
        <time>1970-01-01T00:00:00Z</time>
      </trkpt>
      <trkpt lat="39.632511" lon="-7.429025">
        <ele>285.6</ele>
        <time>1970-01-01T00:00:00Z</time>
      </trkpt>
      <trkpt lat="39.632562" lon="-7.428675">
        <ele>286.8</ele>
        <time>1970-01-01T00:00:00Z</time>
      </trkpt>
      <trkpt lat="39.632464" lon="-7.428201">
        <ele>289.3</ele>
        <time>1970-01-01T00:00:00Z</time>
      </trkpt>
      <trkpt lat="39.632460" lon="-7.428119">
        <ele>289.6</ele>
        <time>1970-01-01T00:00:00Z</time>
      </trkpt>
      <trkpt lat="39.632546" lon="-7.427814">
        <ele>290.6</ele>
        <time>1970-01-01T00:00:00Z</time>
      </trkpt>
      <trkpt lat="39.632575" lon="-7.427399">
        <ele>291.0</ele>
        <time>1970-01-01T00:00:00Z</time>
      </trkpt>
      <trkpt lat="39.632570" lon="-7.427138">
        <ele>290.5</ele>
        <time>1970-01-01T00:00:00Z</time>
      </trkpt>
      <trkpt lat="39.632527" lon="-7.427004">
        <ele>290.0</ele>
        <time>1970-01-01T00:00:00Z</time>
      </trkpt>
      <trkpt lat="39.632574" lon="-7.426914">
        <ele>290.3</ele>
        <time>1970-01-01T00:00:00Z</time>
      </trkpt>
      <trkpt lat="39.632634" lon="-7.426849">
        <ele>290.5</ele>
        <time>1970-01-01T00:00:00Z</time>
      </trkpt>
      <trkpt lat="39.632643" lon="-7.426802">
        <ele>290.4</ele>
        <time>1970-01-01T00:00:00Z</time>
      </trkpt>
      <trkpt lat="39.632635" lon="-7.426762">
        <ele>290.2</ele>
        <time>1970-01-01T00:00:00Z</time>
      </trkpt>
      <trkpt lat="39.632497" lon="-7.426650">
        <ele>289.0</ele>
        <time>1970-01-01T00:00:00Z</time>
      </trkpt>
      <trkpt lat="39.632425" lon="-7.426478">
        <ele>288.5</ele>
        <time>1970-01-01T00:00:00Z</time>
      </trkpt>
      <trkpt lat="39.632403" lon="-7.426351">
        <ele>288.5</ele>
        <time>1970-01-01T00:00:00Z</time>
      </trkpt>
      <trkpt lat="39.632383" lon="-7.426174">
        <ele>287.9</ele>
        <time>1970-01-01T00:00:00Z</time>
      </trkpt>
      <trkpt lat="39.632382" lon="-7.426049">
        <ele>287.8</ele>
        <time>1970-01-01T00:00:00Z</time>
      </trkpt>
      <trkpt lat="39.632441" lon="-7.425604">
        <ele>287.4</ele>
        <time>1970-01-01T00:00:00Z</time>
      </trkpt>
      <trkpt lat="39.632427" lon="-7.425482">
        <ele>286.8</ele>
        <time>1970-01-01T00:00:00Z</time>
      </trkpt>
      <trkpt lat="39.632280" lon="-7.425132">
        <ele>285.7</ele>
        <time>1970-01-01T00:00:00Z</time>
      </trkpt>
      <trkpt lat="39.632180" lon="-7.424958">
        <ele>285.0</ele>
        <time>1970-01-01T00:00:00Z</time>
      </trkpt>
      <trkpt lat="39.632083" lon="-7.424750">
        <ele>285.0</ele>
        <time>1970-01-01T00:00:00Z</time>
      </trkpt>
      <trkpt lat="39.632099" lon="-7.424638">
        <ele>285.0</ele>
        <time>1970-01-01T00:00:00Z</time>
      </trkpt>
      <trkpt lat="39.632127" lon="-7.424556">
        <ele>285.0</ele>
        <time>1970-01-01T00:00:00Z</time>
      </trkpt>
      <trkpt lat="39.632170" lon="-7.424487">
        <ele>285.0</ele>
        <time>1970-01-01T00:00:00Z</time>
      </trkpt>
      <trkpt lat="39.632250" lon="-7.424411">
        <ele>285.0</ele>
        <time>1970-01-01T00:00:00Z</time>
      </trkpt>
      <trkpt lat="39.632335" lon="-7.424290">
        <ele>284.6</ele>
        <time>1970-01-01T00:00:00Z</time>
      </trkpt>
      <trkpt lat="39.632367" lon="-7.424149">
        <ele>283.7</ele>
        <time>1970-01-01T00:00:00Z</time>
      </trkpt>
      <trkpt lat="39.632381" lon="-7.424000">
        <ele>282.9</ele>
        <time>1970-01-01T00:00:00Z</time>
      </trkpt>
      <trkpt lat="39.632298" lon="-7.423627">
        <ele>282.1</ele>
        <time>1970-01-01T00:00:00Z</time>
      </trkpt>
      <trkpt lat="39.632314" lon="-7.423000">
        <ele>282.2</ele>
        <time>1970-01-01T00:00:00Z</time>
      </trkpt>
      <trkpt lat="39.632342" lon="-7.422814">
        <ele>282.3</ele>
        <time>1970-01-01T00:00:00Z</time>
      </trkpt>
      <trkpt lat="39.632331" lon="-7.422661">
        <ele>282.4</ele>
        <time>1970-01-01T00:00:00Z</time>
      </trkpt>
      <trkpt lat="39.632335" lon="-7.422538">
        <ele>281.9</ele>
        <time>1970-01-01T00:00:00Z</time>
      </trkpt>
      <trkpt lat="39.632443" lon="-7.422204">
        <ele>280.6</ele>
        <time>1970-01-01T00:00:00Z</time>
      </trkpt>
      <trkpt lat="39.632471" lon="-7.422016">
        <ele>279.6</ele>
        <time>1970-01-01T00:00:00Z</time>
      </trkpt>
      <trkpt lat="39.632459" lon="-7.421905">
        <ele>279.2</ele>
        <time>1970-01-01T00:00:00Z</time>
      </trkpt>
      <trkpt lat="39.632421" lon="-7.421744">
        <ele>278.5</ele>
        <time>1970-01-01T00:00:00Z</time>
      </trkpt>
      <trkpt lat="39.632351" lon="-7.421580">
        <ele>278.0</ele>
        <time>1970-01-01T00:00:00Z</time>
      </trkpt>
      <trkpt lat="39.632277" lon="-7.421476">
        <ele>277.9</ele>
        <time>1970-01-01T00:00:00Z</time>
      </trkpt>
      <trkpt lat="39.632173" lon="-7.421398">
        <ele>277.5</ele>
        <time>1970-01-01T00:00:00Z</time>
      </trkpt>
      <trkpt lat="39.632031" lon="-7.421372">
        <ele>277.3</ele>
        <time>1970-01-01T00:00:00Z</time>
      </trkpt>
      <trkpt lat="39.631953" lon="-7.421318">
        <ele>276.8</ele>
        <time>1970-01-01T00:00:00Z</time>
      </trkpt>
      <trkpt lat="39.631901" lon="-7.421226">
        <ele>276.1</ele>
        <time>1970-01-01T00:00:00Z</time>
      </trkpt>
      <trkpt lat="39.631847" lon="-7.420956">
        <ele>275.3</ele>
        <time>1970-01-01T00:00:00Z</time>
      </trkpt>
      <trkpt lat="39.631865" lon="-7.420829">
        <ele>275.8</ele>
        <time>1970-01-01T00:00:00Z</time>
      </trkpt>
      <trkpt lat="39.631904" lon="-7.420752">
        <ele>275.9</ele>
        <time>1970-01-01T00:00:00Z</time>
      </trkpt>
      <trkpt lat="39.632153" lon="-7.420428">
        <ele>276.2</ele>
        <time>1970-01-01T00:00:00Z</time>
      </trkpt>
      <trkpt lat="39.632205" lon="-7.420306">
        <ele>276.5</ele>
        <time>1970-01-01T00:00:00Z</time>
      </trkpt>
      <trkpt lat="39.632285" lon="-7.419968">
        <ele>277.0</ele>
        <time>1970-01-01T00:00:00Z</time>
      </trkpt>
      <trkpt lat="39.632417" lon="-7.419705">
        <ele>277.4</ele>
        <time>1970-01-01T00:00:00Z</time>
      </trkpt>
      <trkpt lat="39.632449" lon="-7.419606">
        <ele>277.9</ele>
        <time>1970-01-01T00:00:00Z</time>
      </trkpt>
      <trkpt lat="39.632487" lon="-7.419360">
        <ele>279.2</ele>
        <time>1970-01-01T00:00:00Z</time>
      </trkpt>
      <trkpt lat="39.632522" lon="-7.418901">
        <ele>282.3</ele>
        <time>1970-01-01T00:00:00Z</time>
      </trkpt>
      <trkpt lat="39.632779" lon="-7.418111">
        <ele>284.7</ele>
        <time>1970-01-01T00:00:00Z</time>
      </trkpt>
      <trkpt lat="39.632893" lon="-7.417848">
        <ele>282.9</ele>
        <time>1970-01-01T00:00:00Z</time>
      </trkpt>
      <trkpt lat="39.632900" lon="-7.417717">
        <ele>282.4</ele>
        <time>1970-01-01T00:00:00Z</time>
      </trkpt>
      <trkpt lat="39.632888" lon="-7.417593">
        <ele>282.2</ele>
        <time>1970-01-01T00:00:00Z</time>
      </trkpt>
      <trkpt lat="39.632863" lon="-7.417490">
        <ele>282.5</ele>
        <time>1970-01-01T00:00:00Z</time>
      </trkpt>
      <trkpt lat="39.632899" lon="-7.417453">
        <ele>282.0</ele>
        <time>1970-01-01T00:00:00Z</time>
      </trkpt>
      <trkpt lat="39.632980" lon="-7.417318">
        <ele>280.9</ele>
        <time>1970-01-01T00:00:00Z</time>
      </trkpt>
      <trkpt lat="39.633189" lon="-7.416947">
        <ele>276.7</ele>
        <time>1970-01-01T00:00:00Z</time>
      </trkpt>
      <trkpt lat="39.633219" lon="-7.416818">
        <ele>276.2</ele>
        <time>1970-01-01T00:00:00Z</time>
      </trkpt>
      <trkpt lat="39.633218" lon="-7.416727">
        <ele>276.5</ele>
        <time>1970-01-01T00:00:00Z</time>
      </trkpt>
      <trkpt lat="39.633234" lon="-7.416619">
        <ele>276.7</ele>
        <time>1970-01-01T00:00:00Z</time>
      </trkpt>
      <trkpt lat="39.633260" lon="-7.416525">
        <ele>276.5</ele>
        <time>1970-01-01T00:00:00Z</time>
      </trkpt>
      <trkpt lat="39.633657" lon="-7.415823">
        <ele>274.7</ele>
        <time>1970-01-01T00:00:00Z</time>
      </trkpt>
      <trkpt lat="39.633749" lon="-7.415708">
        <ele>274.0</ele>
        <time>1970-01-01T00:00:00Z</time>
      </trkpt>
      <trkpt lat="39.633917" lon="-7.415556">
        <ele>272.5</ele>
        <time>1970-01-01T00:00:00Z</time>
      </trkpt>
      <trkpt lat="39.633946" lon="-7.415496">
        <ele>272.3</ele>
        <time>1970-01-01T00:00:00Z</time>
      </trkpt>
      <trkpt lat="39.633986" lon="-7.415341">
        <ele>271.8</ele>
        <time>1970-01-01T00:00:00Z</time>
      </trkpt>
      <trkpt lat="39.634312" lon="-7.415248">
        <ele>267.8</ele>
        <time>1970-01-01T00:00:00Z</time>
      </trkpt>
      <trkpt lat="39.634627" lon="-7.414977">
        <ele>264.6</ele>
        <time>1970-01-01T00:00:00Z</time>
      </trkpt>
      <trkpt lat="39.634736" lon="-7.414908">
        <ele>262.9</ele>
        <time>1970-01-01T00:00:00Z</time>
      </trkpt>
      <trkpt lat="39.634832" lon="-7.414749">
        <ele>262.0</ele>
        <time>1970-01-01T00:00:00Z</time>
      </trkpt>
      <trkpt lat="39.634956" lon="-7.414352">
        <ele>260.9</ele>
        <time>1970-01-01T00:00:00Z</time>
      </trkpt>
      <trkpt lat="39.634982" lon="-7.414105">
        <ele>259.4</ele>
        <time>1970-01-01T00:00:00Z</time>
      </trkpt>
      <trkpt lat="39.634991" lon="-7.413871">
        <ele>258.9</ele>
        <time>1970-01-01T00:00:00Z</time>
      </trkpt>
      <trkpt lat="39.634979" lon="-7.413735">
        <ele>259.1</ele>
        <time>1970-01-01T00:00:00Z</time>
      </trkpt>
      <trkpt lat="39.635062" lon="-7.413699">
        <ele>258.0</ele>
        <time>1970-01-01T00:00:00Z</time>
      </trkpt>
      <trkpt lat="39.634980" lon="-7.413457">
        <ele>259.6</ele>
        <time>1970-01-01T00:00:00Z</time>
      </trkpt>
      <trkpt lat="39.635009" lon="-7.413256">
        <ele>259.5</ele>
        <time>1970-01-01T00:00:00Z</time>
      </trkpt>
      <trkpt lat="39.635082" lon="-7.413231">
        <ele>258.9</ele>
        <time>1970-01-01T00:00:00Z</time>
      </trkpt>
      <trkpt lat="39.635179" lon="-7.413228">
        <ele>258.3</ele>
        <time>1970-01-01T00:00:00Z</time>
      </trkpt>
      <trkpt lat="39.635280" lon="-7.413192">
        <ele>257.9</ele>
        <time>1970-01-01T00:00:00Z</time>
      </trkpt>
      <trkpt lat="39.635339" lon="-7.413149">
        <ele>257.6</ele>
        <time>1970-01-01T00:00:00Z</time>
      </trkpt>
      <trkpt lat="39.635445" lon="-7.413023">
        <ele>257.1</ele>
        <time>1970-01-01T00:00:00Z</time>
      </trkpt>
      <trkpt lat="39.635672" lon="-7.412603">
        <ele>255.6</ele>
        <time>1970-01-01T00:00:00Z</time>
      </trkpt>
      <trkpt lat="39.635800" lon="-7.412545">
        <ele>254.7</ele>
        <time>1970-01-01T00:00:00Z</time>
      </trkpt>
      <trkpt lat="39.635976" lon="-7.412593">
        <ele>253.6</ele>
        <time>1970-01-01T00:00:00Z</time>
      </trkpt>
      <trkpt lat="39.636058" lon="-7.412579">
        <ele>253.1</ele>
        <time>1970-01-01T00:00:00Z</time>
      </trkpt>
      <trkpt lat="39.636110" lon="-7.412530">
        <ele>252.7</ele>
        <time>1970-01-01T00:00:00Z</time>
      </trkpt>
      <trkpt lat="39.636125" lon="-7.412465">
        <ele>252.3</ele>
        <time>1970-01-01T00:00:00Z</time>
      </trkpt>
      <trkpt lat="39.636110" lon="-7.412269">
        <ele>250.2</ele>
        <time>1970-01-01T00:00:00Z</time>
      </trkpt>
      <trkpt lat="39.636139" lon="-7.411704">
        <ele>242.8</ele>
        <time>1970-01-01T00:00:00Z</time>
      </trkpt>
      <trkpt lat="39.636176" lon="-7.411640">
        <ele>241.6</ele>
        <time>1970-01-01T00:00:00Z</time>
      </trkpt>
      <trkpt lat="39.636551" lon="-7.411257">
        <ele>235.0</ele>
        <time>1970-01-01T00:00:00Z</time>
      </trkpt>
      <trkpt lat="39.636649" lon="-7.411085">
        <ele>233.1</ele>
        <time>1970-01-01T00:00:00Z</time>
      </trkpt>
      <trkpt lat="39.636828" lon="-7.410623">
        <ele>230.0</ele>
        <time>1970-01-01T00:00:00Z</time>
      </trkpt>
      <trkpt lat="39.636859" lon="-7.410426">
        <ele>228.5</ele>
        <time>1970-01-01T00:00:00Z</time>
      </trkpt>
      <trkpt lat="39.636861" lon="-7.410078">
        <ele>227.9</ele>
        <time>1970-01-01T00:00:00Z</time>
      </trkpt>
      <trkpt lat="39.636832" lon="-7.409739">
        <ele>227.4</ele>
        <time>1970-01-01T00:00:00Z</time>
      </trkpt>
      <trkpt lat="39.636873" lon="-7.409645">
        <ele>227.0</ele>
        <time>1970-01-01T00:00:00Z</time>
      </trkpt>
      <trkpt lat="39.637003" lon="-7.409538">
        <ele>225.5</ele>
        <time>1970-01-01T00:00:00Z</time>
      </trkpt>
      <trkpt lat="39.637422" lon="-7.409290">
        <ele>220.3</ele>
        <time>1970-01-01T00:00:00Z</time>
      </trkpt>
      <trkpt lat="39.637601" lon="-7.409250">
        <ele>217.2</ele>
        <time>1970-01-01T00:00:00Z</time>
      </trkpt>
      <trkpt lat="39.637743" lon="-7.409072">
        <ele>215.8</ele>
        <time>1970-01-01T00:00:00Z</time>
      </trkpt>
      <trkpt lat="39.637782" lon="-7.408914">
        <ele>215.5</ele>
        <time>1970-01-01T00:00:00Z</time>
      </trkpt>
      <trkpt lat="39.638019" lon="-7.408547">
        <ele>216.0</ele>
        <time>1970-01-01T00:00:00Z</time>
      </trkpt>
      <trkpt lat="39.638097" lon="-7.408135">
        <ele>219.9</ele>
        <time>1970-01-01T00:00:00Z</time>
      </trkpt>
      <trkpt lat="39.638224" lon="-7.407852">
        <ele>226.6</ele>
        <time>1970-01-01T00:00:00Z</time>
      </trkpt>
      <trkpt lat="39.638282" lon="-7.407780">
        <ele>228.5</ele>
        <time>1970-01-01T00:00:00Z</time>
      </trkpt>
      <trkpt lat="39.638333" lon="-7.407790">
        <ele>229.2</ele>
        <time>1970-01-01T00:00:00Z</time>
      </trkpt>
      <trkpt lat="39.638336" lon="-7.407859">
        <ele>228.3</ele>
        <time>1970-01-01T00:00:00Z</time>
      </trkpt>
    </trkseg>
    <trkseg>
      <trkpt lat="39.638336" lon="-7.407859">
        <ele>228.3</ele>
        <time>1970-01-01T00:00:00Z</time>
      </trkpt>
      <trkpt lat="39.638361" lon="-7.408053">
        <ele>225.2</ele>
        <time>1970-01-01T00:00:00Z</time>
      </trkpt>
      <trkpt lat="39.638633" lon="-7.407962">
        <ele>230.7</ele>
        <time>1970-01-01T00:00:00Z</time>
      </trkpt>
      <trkpt lat="39.638655" lon="-7.407827">
        <ele>233.5</ele>
        <time>1970-01-01T00:00:00Z</time>
      </trkpt>
      <trkpt lat="39.638695" lon="-7.407762">
        <ele>235.3</ele>
        <time>1970-01-01T00:00:00Z</time>
      </trkpt>
      <trkpt lat="39.639115" lon="-7.407536">
        <ele>244.7</ele>
        <time>1970-01-01T00:00:00Z</time>
      </trkpt>
      <trkpt lat="39.639314" lon="-7.407275">
        <ele>248.5</ele>
        <time>1970-01-01T00:00:00Z</time>
      </trkpt>
      <trkpt lat="39.639549" lon="-7.407063">
        <ele>250.6</ele>
        <time>1970-01-01T00:00:00Z</time>
      </trkpt>
      <trkpt lat="39.639498" lon="-7.407002">
        <ele>250.7</ele>
        <time>1970-01-01T00:00:00Z</time>
      </trkpt>
      <trkpt lat="39.639284" lon="-7.406829">
        <ele>251.3</ele>
        <time>1970-01-01T00:00:00Z</time>
      </trkpt>
      <trkpt lat="39.639066" lon="-7.406603">
        <ele>252.7</ele>
        <time>1970-01-01T00:00:00Z</time>
      </trkpt>
      <trkpt lat="39.639205" lon="-7.406454">
        <ele>253.1</ele>
        <time>1970-01-01T00:00:00Z</time>
      </trkpt>
      <trkpt lat="39.639056" lon="-7.406271">
        <ele>254.6</ele>
        <time>1970-01-01T00:00:00Z</time>
      </trkpt>
      <trkpt lat="39.638727" lon="-7.405692">
        <ele>257.0</ele>
        <time>1970-01-01T00:00:00Z</time>
      </trkpt>
      <trkpt lat="39.638474" lon="-7.405080">
        <ele>258.0</ele>
        <time>1970-01-01T00:00:00Z</time>
      </trkpt>
      <trkpt lat="39.637959" lon="-7.404045">
        <ele>255.1</ele>
        <time>1970-01-01T00:00:00Z</time>
      </trkpt>
      <trkpt lat="39.637715" lon="-7.404151">
        <ele>255.0</ele>
        <time>1970-01-01T00:00:00Z</time>
      </trkpt>
      <trkpt lat="39.637636" lon="-7.404169">
        <ele>255.0</ele>
        <time>1970-01-01T00:00:00Z</time>
      </trkpt>
      <trkpt lat="39.637564" lon="-7.404144">
        <ele>255.0</ele>
        <time>1970-01-01T00:00:00Z</time>
      </trkpt>
      <trkpt lat="39.637358" lon="-7.404001">
        <ele>255.1</ele>
        <time>1970-01-01T00:00:00Z</time>
      </trkpt>
      <trkpt lat="39.636990" lon="-7.404001">
        <ele>256.7</ele>
        <time>1970-01-01T00:00:00Z</time>
      </trkpt>
      <trkpt lat="39.636949" lon="-7.403988">
        <ele>256.9</ele>
        <time>1970-01-01T00:00:00Z</time>
      </trkpt>
      <trkpt lat="39.636843" lon="-7.403903">
        <ele>257.0</ele>
        <time>1970-01-01T00:00:00Z</time>
      </trkpt>
      <trkpt lat="39.636543" lon="-7.403500">
        <ele>259.4</ele>
        <time>1970-01-01T00:00:00Z</time>
      </trkpt>
      <trkpt lat="39.636167" lon="-7.402715">
        <ele>262.4</ele>
        <time>1970-01-01T00:00:00Z</time>
      </trkpt>
      <trkpt lat="39.635983" lon="-7.402235">
        <ele>266.3</ele>
        <time>1970-01-01T00:00:00Z</time>
      </trkpt>
      <trkpt lat="39.635756" lon="-7.401755">
        <ele>266.7</ele>
        <time>1970-01-01T00:00:00Z</time>
      </trkpt>
      <trkpt lat="39.635531" lon="-7.401162">
        <ele>265.9</ele>
        <time>1970-01-01T00:00:00Z</time>
      </trkpt>
      <trkpt lat="39.635551" lon="-7.400639">
        <ele>265.8</ele>
        <time>1970-01-01T00:00:00Z</time>
      </trkpt>
      <trkpt lat="39.635449" lon="-7.400043">
        <ele>265.2</ele>
        <time>1970-01-01T00:00:00Z</time>
      </trkpt>
      <trkpt lat="39.635396" lon="-7.399864">
        <ele>265.6</ele>
        <time>1970-01-01T00:00:00Z</time>
      </trkpt>
      <trkpt lat="39.635273" lon="-7.399634">
        <ele>266.0</ele>
        <time>1970-01-01T00:00:00Z</time>
      </trkpt>
      <trkpt lat="39.634979" lon="-7.399351">
        <ele>267.8</ele>
        <time>1970-01-01T00:00:00Z</time>
      </trkpt>
      <trkpt lat="39.634917" lon="-7.399275">
        <ele>268.0</ele>
        <time>1970-01-01T00:00:00Z</time>
      </trkpt>
      <trkpt lat="39.634601" lon="-7.398633">
        <ele>270.0</ele>
        <time>1970-01-01T00:00:00Z</time>
      </trkpt>
      <trkpt lat="39.634544" lon="-7.398483">
        <ele>270.4</ele>
        <time>1970-01-01T00:00:00Z</time>
      </trkpt>
      <trkpt lat="39.634485" lon="-7.398237">
        <ele>270.8</ele>
        <time>1970-01-01T00:00:00Z</time>
      </trkpt>
      <trkpt lat="39.634451" lon="-7.398019">
        <ele>271.0</ele>
        <time>1970-01-01T00:00:00Z</time>
      </trkpt>
      <trkpt lat="39.634448" lon="-7.397731">
        <ele>271.5</ele>
        <time>1970-01-01T00:00:00Z</time>
      </trkpt>
      <trkpt lat="39.634507" lon="-7.397415">
        <ele>271.4</ele>
        <time>1970-01-01T00:00:00Z</time>
      </trkpt>
      <trkpt lat="39.634637" lon="-7.396967">
        <ele>271.2</ele>
        <time>1970-01-01T00:00:00Z</time>
      </trkpt>
      <trkpt lat="39.634645" lon="-7.396809">
        <ele>271.1</ele>
        <time>1970-01-01T00:00:00Z</time>
      </trkpt>
      <trkpt lat="39.634494" lon="-7.395810">
        <ele>265.9</ele>
        <time>1970-01-01T00:00:00Z</time>
      </trkpt>
      <trkpt lat="39.634423" lon="-7.395171">
        <ele>264.6</ele>
        <time>1970-01-01T00:00:00Z</time>
      </trkpt>
      <trkpt lat="39.634266" lon="-7.394875">
        <ele>264.9</ele>
        <time>1970-01-01T00:00:00Z</time>
      </trkpt>
      <trkpt lat="39.634251" lon="-7.394741">
        <ele>265.0</ele>
        <time>1970-01-01T00:00:00Z</time>
      </trkpt>
      <trkpt lat="39.634284" lon="-7.394547">
        <ele>264.7</ele>
        <time>1970-01-01T00:00:00Z</time>
      </trkpt>
      <trkpt lat="39.634245" lon="-7.394186">
        <ele>264.5</ele>
        <time>1970-01-01T00:00:00Z</time>
      </trkpt>
      <trkpt lat="39.634190" lon="-7.393922">
        <ele>263.8</ele>
        <time>1970-01-01T00:00:00Z</time>
      </trkpt>
      <trkpt lat="39.633654" lon="-7.392500">
        <ele>266.0</ele>
        <time>1970-01-01T00:00:00Z</time>
      </trkpt>
      <trkpt lat="39.633567" lon="-7.391889">
        <ele>267.0</ele>
        <time>1970-01-01T00:00:00Z</time>
      </trkpt>
      <trkpt lat="39.633621" lon="-7.391358">
        <ele>266.5</ele>
        <time>1970-01-01T00:00:00Z</time>
      </trkpt>
      <trkpt lat="39.633589" lon="-7.391246">
        <ele>265.9</ele>
        <time>1970-01-01T00:00:00Z</time>
      </trkpt>
      <trkpt lat="39.633503" lon="-7.391176">
        <ele>265.2</ele>
        <time>1970-01-01T00:00:00Z</time>
      </trkpt>
      <trkpt lat="39.633436" lon="-7.391039">
        <ele>264.3</ele>
        <time>1970-01-01T00:00:00Z</time>
      </trkpt>
      <trkpt lat="39.633396" lon="-7.390889">
        <ele>263.1</ele>
        <time>1970-01-01T00:00:00Z</time>
      </trkpt>
      <trkpt lat="39.633345" lon="-7.390615">
        <ele>260.9</ele>
        <time>1970-01-01T00:00:00Z</time>
      </trkpt>
      <trkpt lat="39.633321" lon="-7.390307">
        <ele>258.9</ele>
        <time>1970-01-01T00:00:00Z</time>
      </trkpt>
      <trkpt lat="39.633322" lon="-7.390018">
        <ele>257.4</ele>
        <time>1970-01-01T00:00:00Z</time>
      </trkpt>
      <trkpt lat="39.633371" lon="-7.389928">
        <ele>256.8</ele>
        <time>1970-01-01T00:00:00Z</time>
      </trkpt>
      <trkpt lat="39.633450" lon="-7.389641">
        <ele>254.7</ele>
        <time>1970-01-01T00:00:00Z</time>
      </trkpt>
      <trkpt lat="39.633377" lon="-7.389493">
        <ele>253.4</ele>
        <time>1970-01-01T00:00:00Z</time>
      </trkpt>
      <trkpt lat="39.633216" lon="-7.388897">
        <ele>251.0</ele>
        <time>1970-01-01T00:00:00Z</time>
      </trkpt>
      <trkpt lat="39.633139" lon="-7.388663">
        <ele>249.8</ele>
        <time>1970-01-01T00:00:00Z</time>
      </trkpt>
      <trkpt lat="39.633120" lon="-7.388490">
        <ele>249.2</ele>
        <time>1970-01-01T00:00:00Z</time>
      </trkpt>
      <trkpt lat="39.633184" lon="-7.387900">
        <ele>245.6</ele>
        <time>1970-01-01T00:00:00Z</time>
      </trkpt>
      <trkpt lat="39.633257" lon="-7.387627">
        <ele>243.7</ele>
        <time>1970-01-01T00:00:00Z</time>
      </trkpt>
      <trkpt lat="39.633261" lon="-7.387529">
        <ele>242.9</ele>
        <time>1970-01-01T00:00:00Z</time>
      </trkpt>
      <trkpt lat="39.633233" lon="-7.387187">
        <ele>239.2</ele>
        <time>1970-01-01T00:00:00Z</time>
      </trkpt>
      <trkpt lat="39.633124" lon="-7.386909">
        <ele>234.0</ele>
        <time>1970-01-01T00:00:00Z</time>
      </trkpt>
      <trkpt lat="39.633100" lon="-7.386684">
        <ele>231.2</ele>
        <time>1970-01-01T00:00:00Z</time>
      </trkpt>
      <trkpt lat="39.632941" lon="-7.386379">
        <ele>225.7</ele>
        <time>1970-01-01T00:00:00Z</time>
      </trkpt>
      <trkpt lat="39.632721" lon="-7.386047">
        <ele>221.5</ele>
        <time>1970-01-01T00:00:00Z</time>
      </trkpt>
      <trkpt lat="39.632702" lon="-7.385903">
        <ele>219.7</ele>
        <time>1970-01-01T00:00:00Z</time>
      </trkpt>
      <trkpt lat="39.632723" lon="-7.385776">
        <ele>218.4</ele>
        <time>1970-01-01T00:00:00Z</time>
      </trkpt>
      <trkpt lat="39.632818" lon="-7.385602">
        <ele>216.5</ele>
        <time>1970-01-01T00:00:00Z</time>
      </trkpt>
      <trkpt lat="39.633112" lon="-7.385186">
        <ele>212.8</ele>
        <time>1970-01-01T00:00:00Z</time>
      </trkpt>
      <trkpt lat="39.633224" lon="-7.384960">
        <ele>211.4</ele>
        <time>1970-01-01T00:00:00Z</time>
      </trkpt>
      <trkpt lat="39.633249" lon="-7.384671">
        <ele>208.5</ele>
        <time>1970-01-01T00:00:00Z</time>
      </trkpt>
      <trkpt lat="39.633229" lon="-7.384271">
        <ele>207.2</ele>
        <time>1970-01-01T00:00:00Z</time>
      </trkpt>
      <trkpt lat="39.633267" lon="-7.384074">
        <ele>208.0</ele>
        <time>1970-01-01T00:00:00Z</time>
      </trkpt>
      <trkpt lat="39.633274" lon="-7.383924">
        <ele>208.2</ele>
        <time>1970-01-01T00:00:00Z</time>
      </trkpt>
      <trkpt lat="39.633320" lon="-7.383624">
        <ele>207.3</ele>
        <time>1970-01-01T00:00:00Z</time>
      </trkpt>
      <trkpt lat="39.633500" lon="-7.383328">
        <ele>206.6</ele>
        <time>1970-01-01T00:00:00Z</time>
      </trkpt>
      <trkpt lat="39.633545" lon="-7.383117">
        <ele>207.0</ele>
        <time>1970-01-01T00:00:00Z</time>
      </trkpt>
      <trkpt lat="39.633589" lon="-7.382806">
        <ele>206.2</ele>
        <time>1970-01-01T00:00:00Z</time>
      </trkpt>
      <trkpt lat="39.633536" lon="-7.382704">
        <ele>206.3</ele>
        <time>1970-01-01T00:00:00Z</time>
      </trkpt>
      <trkpt lat="39.633536" lon="-7.382595">
        <ele>206.2</ele>
        <time>1970-01-01T00:00:00Z</time>
      </trkpt>
      <trkpt lat="39.633518" lon="-7.382535">
        <ele>206.3</ele>
        <time>1970-01-01T00:00:00Z</time>
      </trkpt>
      <trkpt lat="39.633500" lon="-7.382338">
        <ele>206.5</ele>
        <time>1970-01-01T00:00:00Z</time>
      </trkpt>
      <trkpt lat="39.633507" lon="-7.382014">
        <ele>206.6</ele>
        <time>1970-01-01T00:00:00Z</time>
      </trkpt>
      <trkpt lat="39.633600" lon="-7.381909">
        <ele>206.3</ele>
        <time>1970-01-01T00:00:00Z</time>
      </trkpt>
      <trkpt lat="39.633621" lon="-7.381858">
        <ele>206.3</ele>
        <time>1970-01-01T00:00:00Z</time>
      </trkpt>
      <trkpt lat="39.633571" lon="-7.381765">
        <ele>206.7</ele>
        <time>1970-01-01T00:00:00Z</time>
      </trkpt>
      <trkpt lat="39.633624" lon="-7.381683">
        <ele>206.5</ele>
        <time>1970-01-01T00:00:00Z</time>
      </trkpt>
      <trkpt lat="39.633637" lon="-7.381613">
        <ele>206.7</ele>
        <time>1970-01-01T00:00:00Z</time>
      </trkpt>
      <trkpt lat="39.633665" lon="-7.381569">
        <ele>206.6</ele>
        <time>1970-01-01T00:00:00Z</time>
      </trkpt>
      <trkpt lat="39.633614" lon="-7.381507">
        <ele>207.3</ele>
        <time>1970-01-01T00:00:00Z</time>
      </trkpt>
      <trkpt lat="39.633465" lon="-7.381256">
        <ele>210.5</ele>
        <time>1970-01-01T00:00:00Z</time>
      </trkpt>
      <trkpt lat="39.633439" lon="-7.380876">
        <ele>212.6</ele>
        <time>1970-01-01T00:00:00Z</time>
      </trkpt>
      <trkpt lat="39.633448" lon="-7.380509">
        <ele>214.1</ele>
        <time>1970-01-01T00:00:00Z</time>
      </trkpt>
      <trkpt lat="39.633496" lon="-7.380062">
        <ele>216.3</ele>
        <time>1970-01-01T00:00:00Z</time>
      </trkpt>
      <trkpt lat="39.633574" lon="-7.379829">
        <ele>218.7</ele>
        <time>1970-01-01T00:00:00Z</time>
      </trkpt>
      <trkpt lat="39.633726" lon="-7.379656">
        <ele>221.3</ele>
        <time>1970-01-01T00:00:00Z</time>
      </trkpt>
      <trkpt lat="39.633784" lon="-7.379514">
        <ele>222.8</ele>
        <time>1970-01-01T00:00:00Z</time>
      </trkpt>
      <trkpt lat="39.633859" lon="-7.379236">
        <ele>225.1</ele>
        <time>1970-01-01T00:00:00Z</time>
      </trkpt>
      <trkpt lat="39.633947" lon="-7.378983">
        <ele>226.6</ele>
        <time>1970-01-01T00:00:00Z</time>
      </trkpt>
      <trkpt lat="39.634013" lon="-7.378711">
        <ele>226.1</ele>
        <time>1970-01-01T00:00:00Z</time>
      </trkpt>
      <trkpt lat="39.633982" lon="-7.378635">
        <ele>226.5</ele>
        <time>1970-01-01T00:00:00Z</time>
      </trkpt>
      <trkpt lat="39.633976" lon="-7.378561">
        <ele>226.8</ele>
        <time>1970-01-01T00:00:00Z</time>
      </trkpt>
      <trkpt lat="39.633992" lon="-7.378453">
        <ele>226.9</ele>
        <time>1970-01-01T00:00:00Z</time>
      </trkpt>
      <trkpt lat="39.634039" lon="-7.377759">
        <ele>225.7</ele>
        <time>1970-01-01T00:00:00Z</time>
      </trkpt>
      <trkpt lat="39.634064" lon="-7.377186">
        <ele>225.3</ele>
        <time>1970-01-01T00:00:00Z</time>
      </trkpt>
      <trkpt lat="39.634036" lon="-7.376902">
        <ele>225.0</ele>
        <time>1970-01-01T00:00:00Z</time>
      </trkpt>
      <trkpt lat="39.634018" lon="-7.376847">
        <ele>225.1</ele>
        <time>1970-01-01T00:00:00Z</time>
      </trkpt>
      <trkpt lat="39.633983" lon="-7.376804">
        <ele>225.5</ele>
        <time>1970-01-01T00:00:00Z</time>
      </trkpt>
      <trkpt lat="39.633817" lon="-7.376644">
        <ele>227.7</ele>
        <time>1970-01-01T00:00:00Z</time>
      </trkpt>
      <trkpt lat="39.633660" lon="-7.376533">
        <ele>229.6</ele>
        <time>1970-01-01T00:00:00Z</time>
      </trkpt>
      <trkpt lat="39.633638" lon="-7.376498">
        <ele>229.6</ele>
        <time>1970-01-01T00:00:00Z</time>
      </trkpt>
      <trkpt lat="39.633527" lon="-7.376172">
        <ele>228.8</ele>
        <time>1970-01-01T00:00:00Z</time>
      </trkpt>
      <trkpt lat="39.633456" lon="-7.376038">
        <ele>228.9</ele>
        <time>1970-01-01T00:00:00Z</time>
      </trkpt>
      <trkpt lat="39.633357" lon="-7.375919">
        <ele>229.2</ele>
        <time>1970-01-01T00:00:00Z</time>
      </trkpt>
      <trkpt lat="39.633294" lon="-7.375778">
        <ele>228.2</ele>
        <time>1970-01-01T00:00:00Z</time>
      </trkpt>
      <trkpt lat="39.633239" lon="-7.375421">
        <ele>225.7</ele>
        <time>1970-01-01T00:00:00Z</time>
      </trkpt>
      <trkpt lat="39.633226" lon="-7.375124">
        <ele>224.5</ele>
        <time>1970-01-01T00:00:00Z</time>
      </trkpt>
      <trkpt lat="39.633336" lon="-7.374859">
        <ele>221.6</ele>
        <time>1970-01-01T00:00:00Z</time>
      </trkpt>
      <trkpt lat="39.633399" lon="-7.374593">
        <ele>218.2</ele>
        <time>1970-01-01T00:00:00Z</time>
      </trkpt>
      <trkpt lat="39.633398" lon="-7.374542">
        <ele>217.5</ele>
        <time>1970-01-01T00:00:00Z</time>
      </trkpt>
      <trkpt lat="39.633383" lon="-7.374480">
        <ele>216.9</ele>
        <time>1970-01-01T00:00:00Z</time>
      </trkpt>
      <trkpt lat="39.633327" lon="-7.374403">
        <ele>216.5</ele>
        <time>1970-01-01T00:00:00Z</time>
      </trkpt>
      <trkpt lat="39.633219" lon="-7.374398">
        <ele>216.9</ele>
        <time>1970-01-01T00:00:00Z</time>
      </trkpt>
      <trkpt lat="39.633140" lon="-7.374327">
        <ele>216.9</ele>
        <time>1970-01-01T00:00:00Z</time>
      </trkpt>
      <trkpt lat="39.633109" lon="-7.374266">
        <ele>216.8</ele>
        <time>1970-01-01T00:00:00Z</time>
      </trkpt>
      <trkpt lat="39.633131" lon="-7.374187">
        <ele>216.3</ele>
        <time>1970-01-01T00:00:00Z</time>
      </trkpt>
      <trkpt lat="39.633219" lon="-7.374011">
        <ele>214.5</ele>
        <time>1970-01-01T00:00:00Z</time>
      </trkpt>
      <trkpt lat="39.633237" lon="-7.373917">
        <ele>213.5</ele>
        <time>1970-01-01T00:00:00Z</time>
      </trkpt>
      <trkpt lat="39.633240" lon="-7.373804">
        <ele>212.7</ele>
        <time>1970-01-01T00:00:00Z</time>
      </trkpt>
      <trkpt lat="39.633257" lon="-7.373688">
        <ele>211.9</ele>
        <time>1970-01-01T00:00:00Z</time>
      </trkpt>
      <trkpt lat="39.633327" lon="-7.373356">
        <ele>208.5</ele>
        <time>1970-01-01T00:00:00Z</time>
      </trkpt>
      <trkpt lat="39.633379" lon="-7.373232">
        <ele>206.7</ele>
        <time>1970-01-01T00:00:00Z</time>
      </trkpt>
      <trkpt lat="39.633605" lon="-7.372969">
        <ele>202.7</ele>
        <time>1970-01-01T00:00:00Z</time>
      </trkpt>
      <trkpt lat="39.633741" lon="-7.372716">
        <ele>200.6</ele>
        <time>1970-01-01T00:00:00Z</time>
      </trkpt>
      <trkpt lat="39.633850" lon="-7.372501">
        <ele>199.8</ele>
        <time>1970-01-01T00:00:00Z</time>
      </trkpt>
      <trkpt lat="39.633886" lon="-7.372365">
        <ele>200.3</ele>
        <time>1970-01-01T00:00:00Z</time>
      </trkpt>
      <trkpt lat="39.633909" lon="-7.372206">
        <ele>201.0</ele>
        <time>1970-01-01T00:00:00Z</time>
      </trkpt>
      <trkpt lat="39.634050" lon="-7.371968">
        <ele>203.0</ele>
        <time>1970-01-01T00:00:00Z</time>
      </trkpt>
      <trkpt lat="39.634041" lon="-7.371782">
        <ele>204.6</ele>
        <time>1970-01-01T00:00:00Z</time>
      </trkpt>
      <trkpt lat="39.633949" lon="-7.371374">
        <ele>208.8</ele>
        <time>1970-01-01T00:00:00Z</time>
      </trkpt>
      <trkpt lat="39.633944" lon="-7.371280">
        <ele>210.0</ele>
        <time>1970-01-01T00:00:00Z</time>
      </trkpt>
      <trkpt lat="39.634003" lon="-7.371024">
        <ele>212.6</ele>
        <time>1970-01-01T00:00:00Z</time>
      </trkpt>
      <trkpt lat="39.634010" lon="-7.370846">
        <ele>214.2</ele>
        <time>1970-01-01T00:00:00Z</time>
      </trkpt>
      <trkpt lat="39.634070" lon="-7.370655">
        <ele>216.8</ele>
        <time>1970-01-01T00:00:00Z</time>
      </trkpt>
      <trkpt lat="39.634093" lon="-7.370510">
        <ele>218.7</ele>
        <time>1970-01-01T00:00:00Z</time>
      </trkpt>
      <trkpt lat="39.634075" lon="-7.370465">
        <ele>219.3</ele>
        <time>1970-01-01T00:00:00Z</time>
      </trkpt>
      <trkpt lat="39.634062" lon="-7.370363">
        <ele>220.5</ele>
        <time>1970-01-01T00:00:00Z</time>
      </trkpt>
      <trkpt lat="39.634089" lon="-7.370114">
        <ele>224.7</ele>
        <time>1970-01-01T00:00:00Z</time>
      </trkpt>
      <trkpt lat="39.634188" lon="-7.369776">
        <ele>229.4</ele>
        <time>1970-01-01T00:00:00Z</time>
      </trkpt>
      <trkpt lat="39.634195" lon="-7.369682">
        <ele>230.3</ele>
        <time>1970-01-01T00:00:00Z</time>
      </trkpt>
      <trkpt lat="39.634191" lon="-7.369588">
        <ele>231.0</ele>
        <time>1970-01-01T00:00:00Z</time>
      </trkpt>
      <trkpt lat="39.634154" lon="-7.369465">
        <ele>231.7</ele>
        <time>1970-01-01T00:00:00Z</time>
      </trkpt>
      <trkpt lat="39.634090" lon="-7.369271">
        <ele>233.1</ele>
        <time>1970-01-01T00:00:00Z</time>
      </trkpt>
      <trkpt lat="39.633970" lon="-7.369026">
        <ele>235.3</ele>
        <time>1970-01-01T00:00:00Z</time>
      </trkpt>
      <trkpt lat="39.633957" lon="-7.368931">
        <ele>236.2</ele>
        <time>1970-01-01T00:00:00Z</time>
      </trkpt>
      <trkpt lat="39.633972" lon="-7.368812">
        <ele>237.1</ele>
        <time>1970-01-01T00:00:00Z</time>
      </trkpt>
      <trkpt lat="39.634043" lon="-7.368661">
        <ele>237.7</ele>
        <time>1970-01-01T00:00:00Z</time>
      </trkpt>
      <trkpt lat="39.634128" lon="-7.368648">
        <ele>237.4</ele>
        <time>1970-01-01T00:00:00Z</time>
      </trkpt>
      <trkpt lat="39.634168" lon="-7.368657">
        <ele>237.3</ele>
        <time>1970-01-01T00:00:00Z</time>
      </trkpt>
      <trkpt lat="39.634258" lon="-7.368503">
        <ele>238.0</ele>
        <time>1970-01-01T00:00:00Z</time>
      </trkpt>
      <trkpt lat="39.634292" lon="-7.368476">
        <ele>238.2</ele>
        <time>1970-01-01T00:00:00Z</time>
      </trkpt>
      <trkpt lat="39.634293" lon="-7.368391">
        <ele>238.8</ele>
        <time>1970-01-01T00:00:00Z</time>
      </trkpt>
      <trkpt lat="39.634348" lon="-7.368274">
        <ele>239.9</ele>
        <time>1970-01-01T00:00:00Z</time>
      </trkpt>
      <trkpt lat="39.634395" lon="-7.368126">
        <ele>240.7</ele>
        <time>1970-01-01T00:00:00Z</time>
      </trkpt>
      <trkpt lat="39.634420" lon="-7.367983">
        <ele>241.3</ele>
        <time>1970-01-01T00:00:00Z</time>
      </trkpt>
      <trkpt lat="39.634416" lon="-7.367920">
        <ele>241.3</ele>
        <time>1970-01-01T00:00:00Z</time>
      </trkpt>
      <trkpt lat="39.634357" lon="-7.367756">
        <ele>241.2</ele>
        <time>1970-01-01T00:00:00Z</time>
      </trkpt>
      <trkpt lat="39.634272" lon="-7.367590">
        <ele>241.5</ele>
        <time>1970-01-01T00:00:00Z</time>
      </trkpt>
      <trkpt lat="39.634265" lon="-7.367538">
        <ele>241.7</ele>
        <time>1970-01-01T00:00:00Z</time>
      </trkpt>
      <trkpt lat="39.634330" lon="-7.367417">
        <ele>242.5</ele>
        <time>1970-01-01T00:00:00Z</time>
      </trkpt>
      <trkpt lat="39.634355" lon="-7.367293">
        <ele>243.1</ele>
        <time>1970-01-01T00:00:00Z</time>
      </trkpt>
      <trkpt lat="39.634299" lon="-7.367082">
        <ele>243.4</ele>
        <time>1970-01-01T00:00:00Z</time>
      </trkpt>
      <trkpt lat="39.634261" lon="-7.367009">
        <ele>243.3</ele>
        <time>1970-01-01T00:00:00Z</time>
      </trkpt>
      <trkpt lat="39.634239" lon="-7.366922">
        <ele>243.3</ele>
        <time>1970-01-01T00:00:00Z</time>
      </trkpt>
      <trkpt lat="39.634209" lon="-7.366540">
        <ele>244.8</ele>
        <time>1970-01-01T00:00:00Z</time>
      </trkpt>
      <trkpt lat="39.634197" lon="-7.366168">
        <ele>245.6</ele>
        <time>1970-01-01T00:00:00Z</time>
      </trkpt>
      <trkpt lat="39.634112" lon="-7.365943">
        <ele>247.0</ele>
        <time>1970-01-01T00:00:00Z</time>
      </trkpt>
      <trkpt lat="39.633951" lon="-7.365704">
        <ele>248.1</ele>
        <time>1970-01-01T00:00:00Z</time>
      </trkpt>
      <trkpt lat="39.633185" lon="-7.363874">
        <ele>259.9</ele>
        <time>1970-01-01T00:00:00Z</time>
      </trkpt>
      <trkpt lat="39.632679" lon="-7.362876">
        <ele>248.6</ele>
        <time>1970-01-01T00:00:00Z</time>
      </trkpt>
      <trkpt lat="39.632546" lon="-7.362477">
        <ele>246.2</ele>
        <time>1970-01-01T00:00:00Z</time>
      </trkpt>
      <trkpt lat="39.632818" lon="-7.362189">
        <ele>247.4</ele>
        <time>1970-01-01T00:00:00Z</time>
      </trkpt>
      <trkpt lat="39.632999" lon="-7.362062">
        <ele>249.2</ele>
        <time>1970-01-01T00:00:00Z</time>
      </trkpt>
      <trkpt lat="39.633256" lon="-7.361972">
        <ele>255.5</ele>
        <time>1970-01-01T00:00:00Z</time>
      </trkpt>
      <trkpt lat="39.633478" lon="-7.361704">
        <ele>262.1</ele>
        <time>1970-01-01T00:00:00Z</time>
      </trkpt>
      <trkpt lat="39.633691" lon="-7.361567">
        <ele>264.1</ele>
        <time>1970-01-01T00:00:00Z</time>
      </trkpt>
      <trkpt lat="39.634374" lon="-7.361379">
        <ele>269.0</ele>
        <time>1970-01-01T00:00:00Z</time>
      </trkpt>
      <trkpt lat="39.634574" lon="-7.361205">
        <ele>269.9</ele>
        <time>1970-01-01T00:00:00Z</time>
      </trkpt>
      <trkpt lat="39.634717" lon="-7.361111">
        <ele>271.0</ele>
        <time>1970-01-01T00:00:00Z</time>
      </trkpt>
      <trkpt lat="39.634883" lon="-7.360943">
        <ele>271.9</ele>
        <time>1970-01-01T00:00:00Z</time>
      </trkpt>
      <trkpt lat="39.634846" lon="-7.360818">
        <ele>271.7</ele>
        <time>1970-01-01T00:00:00Z</time>
      </trkpt>
      <trkpt lat="39.634916" lon="-7.360627">
        <ele>270.6</ele>
        <time>1970-01-01T00:00:00Z</time>
      </trkpt>
      <trkpt lat="39.635034" lon="-7.360233">
        <ele>269.5</ele>
        <time>1970-01-01T00:00:00Z</time>
      </trkpt>
      <trkpt lat="39.635069" lon="-7.359983">
        <ele>269.0</ele>
        <time>1970-01-01T00:00:00Z</time>
      </trkpt>
      <trkpt lat="39.635137" lon="-7.359727">
        <ele>267.7</ele>
        <time>1970-01-01T00:00:00Z</time>
      </trkpt>
      <trkpt lat="39.635173" lon="-7.359458">
        <ele>267.0</ele>
        <time>1970-01-01T00:00:00Z</time>
      </trkpt>
      <trkpt lat="39.635144" lon="-7.359125">
        <ele>267.0</ele>
        <time>1970-01-01T00:00:00Z</time>
      </trkpt>
      <trkpt lat="39.635082" lon="-7.358737">
        <ele>268.2</ele>
        <time>1970-01-01T00:00:00Z</time>
      </trkpt>
      <trkpt lat="39.634962" lon="-7.358352">
        <ele>271.3</ele>
        <time>1970-01-01T00:00:00Z</time>
      </trkpt>
      <trkpt lat="39.634892" lon="-7.357863">
        <ele>269.8</ele>
        <time>1970-01-01T00:00:00Z</time>
      </trkpt>
      <trkpt lat="39.634779" lon="-7.357468">
        <ele>268.3</ele>
        <time>1970-01-01T00:00:00Z</time>
      </trkpt>
      <trkpt lat="39.634813" lon="-7.357076">
        <ele>268.0</ele>
        <time>1970-01-01T00:00:00Z</time>
      </trkpt>
      <trkpt lat="39.634780" lon="-7.356947">
        <ele>268.0</ele>
        <time>1970-01-01T00:00:00Z</time>
      </trkpt>
      <trkpt lat="39.634041" lon="-7.356307">
        <ele>265.1</ele>
        <time>1970-01-01T00:00:00Z</time>
      </trkpt>
      <trkpt lat="39.633266" lon="-7.355856">
        <ele>266.6</ele>
        <time>1970-01-01T00:00:00Z</time>
      </trkpt>
      <trkpt lat="39.632843" lon="-7.355677">
        <ele>268.4</ele>
        <time>1970-01-01T00:00:00Z</time>
      </trkpt>
      <trkpt lat="39.632562" lon="-7.355521">
        <ele>268.7</ele>
        <time>1970-01-01T00:00:00Z</time>
      </trkpt>
      <trkpt lat="39.632489" lon="-7.355410">
        <ele>268.5</ele>
        <time>1970-01-01T00:00:00Z</time>
      </trkpt>
      <trkpt lat="39.632310" lon="-7.355273">
        <ele>268.8</ele>
        <time>1970-01-01T00:00:00Z</time>
      </trkpt>
      <trkpt lat="39.632045" lon="-7.355243">
        <ele>270.0</ele>
        <time>1970-01-01T00:00:00Z</time>
      </trkpt>
      <trkpt lat="39.631978" lon="-7.355141">
        <ele>270.6</ele>
        <time>1970-01-01T00:00:00Z</time>
      </trkpt>
      <trkpt lat="39.631755" lon="-7.354864">
        <ele>272.3</ele>
        <time>1970-01-01T00:00:00Z</time>
      </trkpt>
      <trkpt lat="39.631630" lon="-7.354675">
        <ele>272.8</ele>
        <time>1970-01-01T00:00:00Z</time>
      </trkpt>
      <trkpt lat="39.631514" lon="-7.354454">
        <ele>272.6</ele>
        <time>1970-01-01T00:00:00Z</time>
      </trkpt>
      <trkpt lat="39.631404" lon="-7.354157">
        <ele>272.0</ele>
        <time>1970-01-01T00:00:00Z</time>
      </trkpt>
      <trkpt lat="39.631317" lon="-7.354105">
        <ele>272.0</ele>
        <time>1970-01-01T00:00:00Z</time>
      </trkpt>
      <trkpt lat="39.631123" lon="-7.354088">
        <ele>272.5</ele>
        <time>1970-01-01T00:00:00Z</time>
      </trkpt>
      <trkpt lat="39.631032" lon="-7.354107">
        <ele>272.7</ele>
        <time>1970-01-01T00:00:00Z</time>
      </trkpt>
      <trkpt lat="39.630922" lon="-7.354161">
        <ele>273.1</ele>
        <time>1970-01-01T00:00:00Z</time>
      </trkpt>
      <trkpt lat="39.630697" lon="-7.354194">
        <ele>274.1</ele>
        <time>1970-01-01T00:00:00Z</time>
      </trkpt>
      <trkpt lat="39.630594" lon="-7.354301">
        <ele>274.7</ele>
        <time>1970-01-01T00:00:00Z</time>
      </trkpt>
      <trkpt lat="39.630501" lon="-7.354298">
        <ele>274.6</ele>
        <time>1970-01-01T00:00:00Z</time>
      </trkpt>
      <trkpt lat="39.630335" lon="-7.354245">
        <ele>274.4</ele>
        <time>1970-01-01T00:00:00Z</time>
      </trkpt>
      <trkpt lat="39.630111" lon="-7.354120">
        <ele>273.8</ele>
        <time>1970-01-01T00:00:00Z</time>
      </trkpt>
      <trkpt lat="39.630055" lon="-7.354102">
        <ele>273.6</ele>
        <time>1970-01-01T00:00:00Z</time>
      </trkpt>
      <trkpt lat="39.629965" lon="-7.354114">
        <ele>273.7</ele>
        <time>1970-01-01T00:00:00Z</time>
      </trkpt>
      <trkpt lat="39.629875" lon="-7.354066">
        <ele>273.0</ele>
        <time>1970-01-01T00:00:00Z</time>
      </trkpt>
      <trkpt lat="39.629732" lon="-7.354017">
        <ele>272.4</ele>
        <time>1970-01-01T00:00:00Z</time>
      </trkpt>
      <trkpt lat="39.629664" lon="-7.353942">
        <ele>271.8</ele>
        <time>1970-01-01T00:00:00Z</time>
      </trkpt>
      <trkpt lat="39.629528" lon="-7.353704">
        <ele>270.9</ele>
        <time>1970-01-01T00:00:00Z</time>
      </trkpt>
      <trkpt lat="39.629543" lon="-7.353614">
        <ele>270.6</ele>
        <time>1970-01-01T00:00:00Z</time>
      </trkpt>
      <trkpt lat="39.629469" lon="-7.353515">
        <ele>270.2</ele>
        <time>1970-01-01T00:00:00Z</time>
      </trkpt>
      <trkpt lat="39.629394" lon="-7.353336">
        <ele>270.0</ele>
        <time>1970-01-01T00:00:00Z</time>
      </trkpt>
      <trkpt lat="39.629256" lon="-7.353201">
        <ele>270.0</ele>
        <time>1970-01-01T00:00:00Z</time>
      </trkpt>
      <trkpt lat="39.628984" lon="-7.353076">
        <ele>269.9</ele>
        <time>1970-01-01T00:00:00Z</time>
      </trkpt>
      <trkpt lat="39.628895" lon="-7.353058">
        <ele>269.8</ele>
        <time>1970-01-01T00:00:00Z</time>
      </trkpt>
      <trkpt lat="39.628714" lon="-7.352958">
        <ele>269.2</ele>
        <time>1970-01-01T00:00:00Z</time>
      </trkpt>
      <trkpt lat="39.628627" lon="-7.352940">
        <ele>268.6</ele>
        <time>1970-01-01T00:00:00Z</time>
      </trkpt>
      <trkpt lat="39.628565" lon="-7.352803">
        <ele>268.7</ele>
        <time>1970-01-01T00:00:00Z</time>
      </trkpt>
      <trkpt lat="39.628402" lon="-7.352181">
        <ele>269.7</ele>
        <time>1970-01-01T00:00:00Z</time>
      </trkpt>
      <trkpt lat="39.628323" lon="-7.351989">
        <ele>269.7</ele>
        <time>1970-01-01T00:00:00Z</time>
      </trkpt>
      <trkpt lat="39.628245" lon="-7.351878">
        <ele>268.6</ele>
        <time>1970-01-01T00:00:00Z</time>
      </trkpt>
      <trkpt lat="39.628075" lon="-7.351582">
        <ele>266.6</ele>
        <time>1970-01-01T00:00:00Z</time>
      </trkpt>
      <trkpt lat="39.628022" lon="-7.351428">
        <ele>266.5</ele>
        <time>1970-01-01T00:00:00Z</time>
      </trkpt>
      <trkpt lat="39.627986" lon="-7.351179">
        <ele>266.8</ele>
        <time>1970-01-01T00:00:00Z</time>
      </trkpt>
      <trkpt lat="39.627931" lon="-7.350966">
        <ele>267.0</ele>
        <time>1970-01-01T00:00:00Z</time>
      </trkpt>
      <trkpt lat="39.627894" lon="-7.350870">
        <ele>267.0</ele>
        <time>1970-01-01T00:00:00Z</time>
      </trkpt>
      <trkpt lat="39.627834" lon="-7.350807">
        <ele>267.0</ele>
        <time>1970-01-01T00:00:00Z</time>
      </trkpt>
      <trkpt lat="39.627683" lon="-7.350758">
        <ele>267.0</ele>
        <time>1970-01-01T00:00:00Z</time>
      </trkpt>
      <trkpt lat="39.627467" lon="-7.350634">
        <ele>268.8</ele>
        <time>1970-01-01T00:00:00Z</time>
      </trkpt>
      <trkpt lat="39.627341" lon="-7.350584">
        <ele>269.8</ele>
        <time>1970-01-01T00:00:00Z</time>
      </trkpt>
      <trkpt lat="39.627237" lon="-7.350501">
        <ele>270.1</ele>
        <time>1970-01-01T00:00:00Z</time>
      </trkpt>
      <trkpt lat="39.627007" lon="-7.350440">
        <ele>269.2</ele>
        <time>1970-01-01T00:00:00Z</time>
      </trkpt>
      <trkpt lat="39.626931" lon="-7.350445">
        <ele>269.0</ele>
        <time>1970-01-01T00:00:00Z</time>
      </trkpt>
      <trkpt lat="39.626902" lon="-7.350389">
        <ele>269.2</ele>
        <time>1970-01-01T00:00:00Z</time>
      </trkpt>
      <trkpt lat="39.626940" lon="-7.350359">
        <ele>269.3</ele>
        <time>1970-01-01T00:00:00Z</time>
      </trkpt>
      <trkpt lat="39.626966" lon="-7.350262">
        <ele>269.8</ele>
        <time>1970-01-01T00:00:00Z</time>
      </trkpt>
      <trkpt lat="39.627100" lon="-7.349541">
        <ele>270.2</ele>
        <time>1970-01-01T00:00:00Z</time>
      </trkpt>
      <trkpt lat="39.627147" lon="-7.349399">
        <ele>270.0</ele>
        <time>1970-01-01T00:00:00Z</time>
      </trkpt>
      <trkpt lat="39.627246" lon="-7.349259">
        <ele>270.0</ele>
        <time>1970-01-01T00:00:00Z</time>
      </trkpt>
      <trkpt lat="39.627396" lon="-7.348916">
        <ele>268.1</ele>
        <time>1970-01-01T00:00:00Z</time>
      </trkpt>
      <trkpt lat="39.627463" lon="-7.348804">
        <ele>267.1</ele>
        <time>1970-01-01T00:00:00Z</time>
      </trkpt>
      <trkpt lat="39.627518" lon="-7.348660">
        <ele>266.7</ele>
        <time>1970-01-01T00:00:00Z</time>
      </trkpt>
      <trkpt lat="39.627652" lon="-7.348094">
        <ele>266.2</ele>
        <time>1970-01-01T00:00:00Z</time>
      </trkpt>
      <trkpt lat="39.627715" lon="-7.347893">
        <ele>266.8</ele>
        <time>1970-01-01T00:00:00Z</time>
      </trkpt>
      <trkpt lat="39.627772" lon="-7.347742">
        <ele>267.2</ele>
        <time>1970-01-01T00:00:00Z</time>
      </trkpt>
      <trkpt lat="39.627829" lon="-7.347647">
        <ele>267.7</ele>
        <time>1970-01-01T00:00:00Z</time>
      </trkpt>
      <trkpt lat="39.627858" lon="-7.347515">
        <ele>267.9</ele>
        <time>1970-01-01T00:00:00Z</time>
      </trkpt>
      <trkpt lat="39.627881" lon="-7.347159">
        <ele>269.1</ele>
        <time>1970-01-01T00:00:00Z</time>
      </trkpt>
      <trkpt lat="39.627950" lon="-7.346910">
        <ele>270.0</ele>
        <time>1970-01-01T00:00:00Z</time>
      </trkpt>
      <trkpt lat="39.627964" lon="-7.346765">
        <ele>269.4</ele>
        <time>1970-01-01T00:00:00Z</time>
      </trkpt>
      <trkpt lat="39.627983" lon="-7.345815">
        <ele>266.2</ele>
        <time>1970-01-01T00:00:00Z</time>
      </trkpt>
      <trkpt lat="39.628063" lon="-7.345514">
        <ele>267.7</ele>
        <time>1970-01-01T00:00:00Z</time>
      </trkpt>
      <trkpt lat="39.628070" lon="-7.345414">
        <ele>268.2</ele>
        <time>1970-01-01T00:00:00Z</time>
      </trkpt>
      <trkpt lat="39.628005" lon="-7.344759">
        <ele>268.0</ele>
        <time>1970-01-01T00:00:00Z</time>
      </trkpt>
      <trkpt lat="39.628026" lon="-7.344376">
        <ele>268.3</ele>
        <time>1970-01-01T00:00:00Z</time>
      </trkpt>
      <trkpt lat="39.627987" lon="-7.344137">
        <ele>268.6</ele>
        <time>1970-01-01T00:00:00Z</time>
      </trkpt>
      <trkpt lat="39.627976" lon="-7.343914">
        <ele>269.2</ele>
        <time>1970-01-01T00:00:00Z</time>
      </trkpt>
      <trkpt lat="39.627990" lon="-7.343804">
        <ele>269.7</ele>
        <time>1970-01-01T00:00:00Z</time>
      </trkpt>
      <trkpt lat="39.628004" lon="-7.343368">
        <ele>271.0</ele>
        <time>1970-01-01T00:00:00Z</time>
      </trkpt>
      <trkpt lat="39.627955" lon="-7.343104">
        <ele>271.8</ele>
        <time>1970-01-01T00:00:00Z</time>
      </trkpt>
      <trkpt lat="39.627940" lon="-7.342852">
        <ele>273.0</ele>
        <time>1970-01-01T00:00:00Z</time>
      </trkpt>
      <trkpt lat="39.627823" lon="-7.342398">
        <ele>273.2</ele>
        <time>1970-01-01T00:00:00Z</time>
      </trkpt>
      <trkpt lat="39.627715" lon="-7.342041">
        <ele>271.7</ele>
        <time>1970-01-01T00:00:00Z</time>
      </trkpt>
      <trkpt lat="39.627673" lon="-7.341824">
        <ele>271.2</ele>
        <time>1970-01-01T00:00:00Z</time>
      </trkpt>
      <trkpt lat="39.627659" lon="-7.341634">
        <ele>271.0</ele>
        <time>1970-01-01T00:00:00Z</time>
      </trkpt>
      <trkpt lat="39.627665" lon="-7.341489">
        <ele>270.4</ele>
        <time>1970-01-01T00:00:00Z</time>
      </trkpt>
      <trkpt lat="39.627634" lon="-7.341341">
        <ele>269.1</ele>
        <time>1970-01-01T00:00:00Z</time>
      </trkpt>
      <trkpt lat="39.627584" lon="-7.341259">
        <ele>267.9</ele>
        <time>1970-01-01T00:00:00Z</time>
      </trkpt>
      <trkpt lat="39.627382" lon="-7.341000">
        <ele>264.0</ele>
        <time>1970-01-01T00:00:00Z</time>
      </trkpt>
      <trkpt lat="39.627338" lon="-7.340896">
        <ele>263.0</ele>
        <time>1970-01-01T00:00:00Z</time>
      </trkpt>
      <trkpt lat="39.627031" lon="-7.340448">
        <ele>259.2</ele>
        <time>1970-01-01T00:00:00Z</time>
      </trkpt>
      <trkpt lat="39.626679" lon="-7.340128">
        <ele>256.3</ele>
        <time>1970-01-01T00:00:00Z</time>
      </trkpt>
      <trkpt lat="39.626440" lon="-7.340034">
        <ele>258.0</ele>
        <time>1970-01-01T00:00:00Z</time>
      </trkpt>
      <trkpt lat="39.626327" lon="-7.339963">
        <ele>257.6</ele>
        <time>1970-01-01T00:00:00Z</time>
      </trkpt>
      <trkpt lat="39.626175" lon="-7.339835">
        <ele>256.7</ele>
        <time>1970-01-01T00:00:00Z</time>
      </trkpt>
      <trkpt lat="39.626047" lon="-7.339748">
        <ele>256.0</ele>
        <time>1970-01-01T00:00:00Z</time>
      </trkpt>
      <trkpt lat="39.625968" lon="-7.339622">
        <ele>255.4</ele>
        <time>1970-01-01T00:00:00Z</time>
      </trkpt>
      <trkpt lat="39.625797" lon="-7.339286">
        <ele>254.0</ele>
        <time>1970-01-01T00:00:00Z</time>
      </trkpt>
      <trkpt lat="39.625689" lon="-7.339127">
        <ele>253.5</ele>
        <time>1970-01-01T00:00:00Z</time>
      </trkpt>
      <trkpt lat="39.625591" lon="-7.338928">
        <ele>252.4</ele>
        <time>1970-01-01T00:00:00Z</time>
      </trkpt>
      <trkpt lat="39.625267" lon="-7.338077">
        <ele>245.7</ele>
        <time>1970-01-01T00:00:00Z</time>
      </trkpt>
      <trkpt lat="39.625122" lon="-7.337775">
        <ele>242.7</ele>
        <time>1970-01-01T00:00:00Z</time>
      </trkpt>
      <trkpt lat="39.624958" lon="-7.337511">
        <ele>239.8</ele>
        <time>1970-01-01T00:00:00Z</time>
      </trkpt>
      <trkpt lat="39.624845" lon="-7.337383">
        <ele>238.3</ele>
        <time>1970-01-01T00:00:00Z</time>
      </trkpt>
      <trkpt lat="39.624474" lon="-7.337044">
        <ele>235.3</ele>
        <time>1970-01-01T00:00:00Z</time>
      </trkpt>
      <trkpt lat="39.624407" lon="-7.336897">
        <ele>235.0</ele>
        <time>1970-01-01T00:00:00Z</time>
      </trkpt>
      <trkpt lat="39.624339" lon="-7.336792">
        <ele>235.0</ele>
        <time>1970-01-01T00:00:00Z</time>
      </trkpt>
      <trkpt lat="39.624286" lon="-7.336626">
        <ele>234.3</ele>
        <time>1970-01-01T00:00:00Z</time>
      </trkpt>
      <trkpt lat="39.624215" lon="-7.336525">
        <ele>234.0</ele>
        <time>1970-01-01T00:00:00Z</time>
      </trkpt>
      <trkpt lat="39.624141" lon="-7.336488">
        <ele>234.0</ele>
        <time>1970-01-01T00:00:00Z</time>
      </trkpt>
      <trkpt lat="39.623885" lon="-7.336537">
        <ele>234.3</ele>
        <time>1970-01-01T00:00:00Z</time>
      </trkpt>
      <trkpt lat="39.623592" lon="-7.336624">
        <ele>235.6</ele>
        <time>1970-01-01T00:00:00Z</time>
      </trkpt>
      <trkpt lat="39.623470" lon="-7.336678">
        <ele>236.0</ele>
        <time>1970-01-01T00:00:00Z</time>
      </trkpt>
      <trkpt lat="39.623357" lon="-7.336701">
        <ele>236.2</ele>
        <time>1970-01-01T00:00:00Z</time>
      </trkpt>
      <trkpt lat="39.623289" lon="-7.336677">
        <ele>236.4</ele>
        <time>1970-01-01T00:00:00Z</time>
      </trkpt>
      <trkpt lat="39.623220" lon="-7.336626">
        <ele>236.6</ele>
        <time>1970-01-01T00:00:00Z</time>
      </trkpt>
      <trkpt lat="39.623190" lon="-7.336464">
        <ele>236.8</ele>
        <time>1970-01-01T00:00:00Z</time>
      </trkpt>
      <trkpt lat="39.623164" lon="-7.336058">
        <ele>237.0</ele>
        <time>1970-01-01T00:00:00Z</time>
      </trkpt>
      <trkpt lat="39.623141" lon="-7.335886">
        <ele>237.0</ele>
        <time>1970-01-01T00:00:00Z</time>
      </trkpt>
      <trkpt lat="39.623016" lon="-7.335425">
        <ele>237.0</ele>
        <time>1970-01-01T00:00:00Z</time>
      </trkpt>
      <trkpt lat="39.622863" lon="-7.335228">
        <ele>237.5</ele>
        <time>1970-01-01T00:00:00Z</time>
      </trkpt>
      <trkpt lat="39.622698" lon="-7.335089">
        <ele>238.6</ele>
        <time>1970-01-01T00:00:00Z</time>
      </trkpt>
      <trkpt lat="39.622372" lon="-7.334704">
        <ele>237.3</ele>
        <time>1970-01-01T00:00:00Z</time>
      </trkpt>
      <trkpt lat="39.622261" lon="-7.334542">
        <ele>236.0</ele>
        <time>1970-01-01T00:00:00Z</time>
      </trkpt>
      <trkpt lat="39.622204" lon="-7.334391">
        <ele>235.7</ele>
        <time>1970-01-01T00:00:00Z</time>
      </trkpt>
      <trkpt lat="39.622168" lon="-7.334228">
        <ele>235.9</ele>
        <time>1970-01-01T00:00:00Z</time>
      </trkpt>
      <trkpt lat="39.622123" lon="-7.333656">
        <ele>236.7</ele>
        <time>1970-01-01T00:00:00Z</time>
      </trkpt>
      <trkpt lat="39.622071" lon="-7.333409">
        <ele>237.2</ele>
        <time>1970-01-01T00:00:00Z</time>
      </trkpt>
      <trkpt lat="39.622001" lon="-7.332933">
        <ele>237.4</ele>
        <time>1970-01-01T00:00:00Z</time>
      </trkpt>
      <trkpt lat="39.621969" lon="-7.332614">
        <ele>237.0</ele>
        <time>1970-01-01T00:00:00Z</time>
      </trkpt>
      <trkpt lat="39.621921" lon="-7.331923">
        <ele>235.0</ele>
        <time>1970-01-01T00:00:00Z</time>
      </trkpt>
      <trkpt lat="39.621940" lon="-7.331717">
        <ele>234.1</ele>
        <time>1970-01-01T00:00:00Z</time>
      </trkpt>
      <trkpt lat="39.622142" lon="-7.331247">
        <ele>232.0</ele>
        <time>1970-01-01T00:00:00Z</time>
      </trkpt>
      <trkpt lat="39.622287" lon="-7.330947">
        <ele>232.0</ele>
        <time>1970-01-01T00:00:00Z</time>
      </trkpt>
      <trkpt lat="39.622356" lon="-7.330841">
        <ele>231.8</ele>
        <time>1970-01-01T00:00:00Z</time>
      </trkpt>
      <trkpt lat="39.622754" lon="-7.330545">
        <ele>229.2</ele>
        <time>1970-01-01T00:00:00Z</time>
      </trkpt>
      <trkpt lat="39.622894" lon="-7.330325">
        <ele>229.0</ele>
        <time>1970-01-01T00:00:00Z</time>
      </trkpt>
      <trkpt lat="39.623099" lon="-7.330094">
        <ele>230.9</ele>
        <time>1970-01-01T00:00:00Z</time>
      </trkpt>
      <trkpt lat="39.623193" lon="-7.330013">
        <ele>231.3</ele>
        <time>1970-01-01T00:00:00Z</time>
      </trkpt>
      <trkpt lat="39.623273" lon="-7.329917">
        <ele>231.7</ele>
        <time>1970-01-01T00:00:00Z</time>
      </trkpt>
      <trkpt lat="39.623316" lon="-7.329829">
        <ele>232.3</ele>
        <time>1970-01-01T00:00:00Z</time>
      </trkpt>
      <trkpt lat="39.623334" lon="-7.329605">
        <ele>233.0</ele>
        <time>1970-01-01T00:00:00Z</time>
      </trkpt>
      <trkpt lat="39.623290" lon="-7.329396">
        <ele>233.9</ele>
        <time>1970-01-01T00:00:00Z</time>
      </trkpt>
      <trkpt lat="39.623253" lon="-7.329127">
        <ele>235.0</ele>
        <time>1970-01-01T00:00:00Z</time>
      </trkpt>
      <trkpt lat="39.623259" lon="-7.328972">
        <ele>235.0</ele>
        <time>1970-01-01T00:00:00Z</time>
      </trkpt>
      <trkpt lat="39.623316" lon="-7.328623">
        <ele>234.7</ele>
        <time>1970-01-01T00:00:00Z</time>
      </trkpt>
      <trkpt lat="39.623339" lon="-7.328561">
        <ele>234.6</ele>
        <time>1970-01-01T00:00:00Z</time>
      </trkpt>
      <trkpt lat="39.623348" lon="-7.328458">
        <ele>234.6</ele>
        <time>1970-01-01T00:00:00Z</time>
      </trkpt>
      <trkpt lat="39.623308" lon="-7.328369">
        <ele>234.8</ele>
        <time>1970-01-01T00:00:00Z</time>
      </trkpt>
      <trkpt lat="39.623246" lon="-7.328173">
        <ele>235.2</ele>
        <time>1970-01-01T00:00:00Z</time>
      </trkpt>
      <trkpt lat="39.623199" lon="-7.327968">
        <ele>235.8</ele>
        <time>1970-01-01T00:00:00Z</time>
      </trkpt>
      <trkpt lat="39.623170" lon="-7.327771">
        <ele>236.0</ele>
        <time>1970-01-01T00:00:00Z</time>
      </trkpt>
      <trkpt lat="39.623168" lon="-7.327473">
        <ele>235.5</ele>
        <time>1970-01-01T00:00:00Z</time>
      </trkpt>
      <trkpt lat="39.623196" lon="-7.327337">
        <ele>235.5</ele>
        <time>1970-01-01T00:00:00Z</time>
      </trkpt>
      <trkpt lat="39.623262" lon="-7.327190">
        <ele>236.0</ele>
        <time>1970-01-01T00:00:00Z</time>
      </trkpt>
      <trkpt lat="39.623306" lon="-7.327134">
        <ele>236.1</ele>
        <time>1970-01-01T00:00:00Z</time>
      </trkpt>
      <trkpt lat="39.623344" lon="-7.327030">
        <ele>236.5</ele>
        <time>1970-01-01T00:00:00Z</time>
      </trkpt>
      <trkpt lat="39.623427" lon="-7.326446">
        <ele>239.2</ele>
        <time>1970-01-01T00:00:00Z</time>
      </trkpt>
      <trkpt lat="39.623433" lon="-7.326289">
        <ele>239.2</ele>
        <time>1970-01-01T00:00:00Z</time>
      </trkpt>
      <trkpt lat="39.623388" lon="-7.326064">
        <ele>237.8</ele>
        <time>1970-01-01T00:00:00Z</time>
      </trkpt>
      <trkpt lat="39.623162" lon="-7.325436">
        <ele>233.7</ele>
        <time>1970-01-01T00:00:00Z</time>
      </trkpt>
      <trkpt lat="39.623185" lon="-7.325320">
        <ele>233.5</ele>
        <time>1970-01-01T00:00:00Z</time>
      </trkpt>
      <trkpt lat="39.623336" lon="-7.324920">
        <ele>232.8</ele>
        <time>1970-01-01T00:00:00Z</time>
      </trkpt>
      <trkpt lat="39.623560" lon="-7.324734">
        <ele>235.9</ele>
        <time>1970-01-01T00:00:00Z</time>
      </trkpt>
      <trkpt lat="39.623726" lon="-7.324557">
        <ele>238.1</ele>
        <time>1970-01-01T00:00:00Z</time>
      </trkpt>
      <trkpt lat="39.623732" lon="-7.324294">
        <ele>240.0</ele>
        <time>1970-01-01T00:00:00Z</time>
      </trkpt>
      <trkpt lat="39.623718" lon="-7.324120">
        <ele>240.7</ele>
        <time>1970-01-01T00:00:00Z</time>
      </trkpt>
      <trkpt lat="39.623720" lon="-7.323963">
        <ele>241.4</ele>
        <time>1970-01-01T00:00:00Z</time>
      </trkpt>
      <trkpt lat="39.623731" lon="-7.323862">
        <ele>241.9</ele>
        <time>1970-01-01T00:00:00Z</time>
      </trkpt>
      <trkpt lat="39.623767" lon="-7.323714">
        <ele>242.6</ele>
        <time>1970-01-01T00:00:00Z</time>
      </trkpt>
      <trkpt lat="39.623782" lon="-7.323476">
        <ele>243.0</ele>
        <time>1970-01-01T00:00:00Z</time>
      </trkpt>
      <trkpt lat="39.623760" lon="-7.323191">
        <ele>242.9</ele>
        <time>1970-01-01T00:00:00Z</time>
      </trkpt>
      <trkpt lat="39.623740" lon="-7.322559">
        <ele>239.9</ele>
        <time>1970-01-01T00:00:00Z</time>
      </trkpt>
      <trkpt lat="39.623713" lon="-7.322365">
        <ele>238.3</ele>
        <time>1970-01-01T00:00:00Z</time>
      </trkpt>
      <trkpt lat="39.623542" lon="-7.321933">
        <ele>232.9</ele>
        <time>1970-01-01T00:00:00Z</time>
      </trkpt>
      <trkpt lat="39.623525" lon="-7.321818">
        <ele>231.3</ele>
        <time>1970-01-01T00:00:00Z</time>
      </trkpt>
      <trkpt lat="39.623633" lon="-7.321534">
        <ele>228.5</ele>
        <time>1970-01-01T00:00:00Z</time>
      </trkpt>
      <trkpt lat="39.623710" lon="-7.321374">
        <ele>227.1</ele>
        <time>1970-01-01T00:00:00Z</time>
      </trkpt>
      <trkpt lat="39.623724" lon="-7.321251">
        <ele>225.7</ele>
        <time>1970-01-01T00:00:00Z</time>
      </trkpt>
      <trkpt lat="39.623755" lon="-7.321130">
        <ele>224.6</ele>
        <time>1970-01-01T00:00:00Z</time>
      </trkpt>
      <trkpt lat="39.624037" lon="-7.320768">
        <ele>220.3</ele>
        <time>1970-01-01T00:00:00Z</time>
      </trkpt>
      <trkpt lat="39.624105" lon="-7.320652">
        <ele>218.9</ele>
        <time>1970-01-01T00:00:00Z</time>
      </trkpt>
      <trkpt lat="39.624260" lon="-7.320158">
        <ele>215.8</ele>
        <time>1970-01-01T00:00:00Z</time>
      </trkpt>
      <trkpt lat="39.624276" lon="-7.320036">
        <ele>215.6</ele>
        <time>1970-01-01T00:00:00Z</time>
      </trkpt>
      <trkpt lat="39.624279" lon="-7.319807">
        <ele>216.1</ele>
        <time>1970-01-01T00:00:00Z</time>
      </trkpt>
      <trkpt lat="39.624258" lon="-7.319310">
        <ele>216.7</ele>
        <time>1970-01-01T00:00:00Z</time>
      </trkpt>
      <trkpt lat="39.624232" lon="-7.319033">
        <ele>217.2</ele>
        <time>1970-01-01T00:00:00Z</time>
      </trkpt>
      <trkpt lat="39.624187" lon="-7.318751">
        <ele>217.0</ele>
        <time>1970-01-01T00:00:00Z</time>
      </trkpt>
      <trkpt lat="39.624140" lon="-7.318586">
        <ele>216.8</ele>
        <time>1970-01-01T00:00:00Z</time>
      </trkpt>
      <trkpt lat="39.623936" lon="-7.318260">
        <ele>215.6</ele>
        <time>1970-01-01T00:00:00Z</time>
      </trkpt>
      <trkpt lat="39.623828" lon="-7.318049">
        <ele>212.4</ele>
        <time>1970-01-01T00:00:00Z</time>
      </trkpt>
      <trkpt lat="39.623760" lon="-7.317786">
        <ele>211.2</ele>
        <time>1970-01-01T00:00:00Z</time>
      </trkpt>
      <trkpt lat="39.623565" lon="-7.316864">
        <ele>206.4</ele>
        <time>1970-01-01T00:00:00Z</time>
      </trkpt>
      <trkpt lat="39.623444" lon="-7.316166">
        <ele>201.6</ele>
        <time>1970-01-01T00:00:00Z</time>
      </trkpt>
      <trkpt lat="39.623395" lon="-7.316018">
        <ele>198.4</ele>
        <time>1970-01-01T00:00:00Z</time>
      </trkpt>
      <trkpt lat="39.622997" lon="-7.315544">
        <ele>182.3</ele>
        <time>1970-01-01T00:00:00Z</time>
      </trkpt>
      <trkpt lat="39.622986" lon="-7.315376">
        <ele>179.4</ele>
        <time>1970-01-01T00:00:00Z</time>
      </trkpt>
      <trkpt lat="39.623035" lon="-7.314864">
        <ele>169.9</ele>
        <time>1970-01-01T00:00:00Z</time>
      </trkpt>
      <trkpt lat="39.623019" lon="-7.314690">
        <ele>165.4</ele>
        <time>1970-01-01T00:00:00Z</time>
      </trkpt>
      <trkpt lat="39.622971" lon="-7.314448">
        <ele>159.2</ele>
        <time>1970-01-01T00:00:00Z</time>
      </trkpt>
      <trkpt lat="39.622831" lon="-7.314011">
        <ele>150.6</ele>
        <time>1970-01-01T00:00:00Z</time>
      </trkpt>
      <trkpt lat="39.622789" lon="-7.313806">
        <ele>147.0</ele>
        <time>1970-01-01T00:00:00Z</time>
      </trkpt>
      <trkpt lat="39.622756" lon="-7.313193">
        <ele>138.7</ele>
        <time>1970-01-01T00:00:00Z</time>
      </trkpt>
      <trkpt lat="39.622774" lon="-7.312706">
        <ele>133.6</ele>
        <time>1970-01-01T00:00:00Z</time>
      </trkpt>
      <trkpt lat="39.622844" lon="-7.312570">
        <ele>132.2</ele>
        <time>1970-01-01T00:00:00Z</time>
      </trkpt>
      <trkpt lat="39.622926" lon="-7.312483">
        <ele>131.0</ele>
        <time>1970-01-01T00:00:00Z</time>
      </trkpt>
      <trkpt lat="39.623014" lon="-7.312415">
        <ele>130.4</ele>
        <time>1970-01-01T00:00:00Z</time>
      </trkpt>
      <trkpt lat="39.623018" lon="-7.312359">
        <ele>129.9</ele>
        <time>1970-01-01T00:00:00Z</time>
      </trkpt>
      <trkpt lat="39.622978" lon="-7.312309">
        <ele>129.3</ele>
        <time>1970-01-01T00:00:00Z</time>
      </trkpt>
      <trkpt lat="39.622870" lon="-7.312288">
        <ele>128.7</ele>
        <time>1970-01-01T00:00:00Z</time>
      </trkpt>
      <trkpt lat="39.622849" lon="-7.312240">
        <ele>128.2</ele>
        <time>1970-01-01T00:00:00Z</time>
      </trkpt>
      <trkpt lat="39.622871" lon="-7.312211">
        <ele>128.2</ele>
        <time>1970-01-01T00:00:00Z</time>
      </trkpt>
      <trkpt lat="39.622957" lon="-7.312202">
        <ele>128.6</ele>
        <time>1970-01-01T00:00:00Z</time>
      </trkpt>
      <trkpt lat="39.622960" lon="-7.312182">
        <ele>128.6</ele>
        <time>1970-01-01T00:00:00Z</time>
      </trkpt>
      <trkpt lat="39.622856" lon="-7.312090">
        <ele>127.8</ele>
        <time>1970-01-01T00:00:00Z</time>
      </trkpt>
      <trkpt lat="39.622617" lon="-7.312031">
        <ele>126.3</ele>
        <time>1970-01-01T00:00:00Z</time>
      </trkpt>
      <trkpt lat="39.622442" lon="-7.311951">
        <ele>125.8</ele>
        <time>1970-01-01T00:00:00Z</time>
      </trkpt>
      <trkpt lat="39.622472" lon="-7.311568">
        <ele>127.9</ele>
        <time>1970-01-01T00:00:00Z</time>
      </trkpt>
      <trkpt lat="39.622557" lon="-7.311573">
        <ele>127.9</ele>
        <time>1970-01-01T00:00:00Z</time>
      </trkpt>
      <trkpt lat="39.622615" lon="-7.311505">
        <ele>129.2</ele>
        <time>1970-01-01T00:00:00Z</time>
      </trkpt>
      <trkpt lat="39.622656" lon="-7.311486">
        <ele>129.9</ele>
        <time>1970-01-01T00:00:00Z</time>
      </trkpt>
      <trkpt lat="39.622686" lon="-7.311433">
        <ele>131.0</ele>
        <time>1970-01-01T00:00:00Z</time>
      </trkpt>
      <trkpt lat="39.622729" lon="-7.311411">
        <ele>131.8</ele>
        <time>1970-01-01T00:00:00Z</time>
      </trkpt>
      <trkpt lat="39.622828" lon="-7.311319">
        <ele>134.6</ele>
        <time>1970-01-01T00:00:00Z</time>
      </trkpt>
      <trkpt lat="39.622789" lon="-7.311240">
        <ele>135.8</ele>
        <time>1970-01-01T00:00:00Z</time>
      </trkpt>
      <trkpt lat="39.622717" lon="-7.311181">
        <ele>136.1</ele>
        <time>1970-01-01T00:00:00Z</time>
      </trkpt>
      <trkpt lat="39.622658" lon="-7.311079">
        <ele>137.6</ele>
        <time>1970-01-01T00:00:00Z</time>
      </trkpt>
      <trkpt lat="39.622506" lon="-7.310907">
        <ele>139.5</ele>
        <time>1970-01-01T00:00:00Z</time>
      </trkpt>
      <trkpt lat="39.622334" lon="-7.310492">
        <ele>148.1</ele>
        <time>1970-01-01T00:00:00Z</time>
      </trkpt>
      <trkpt lat="39.622281" lon="-7.310430">
        <ele>149.2</ele>
        <time>1970-01-01T00:00:00Z</time>
      </trkpt>
      <trkpt lat="39.622053" lon="-7.310014">
        <ele>157.2</ele>
        <time>1970-01-01T00:00:00Z</time>
      </trkpt>
      <trkpt lat="39.622020" lon="-7.309657">
        <ele>165.1</ele>
        <time>1970-01-01T00:00:00Z</time>
      </trkpt>
      <trkpt lat="39.621951" lon="-7.309371">
        <ele>171.7</ele>
        <time>1970-01-01T00:00:00Z</time>
      </trkpt>
      <trkpt lat="39.621985" lon="-7.308624">
        <ele>187.5</ele>
        <time>1970-01-01T00:00:00Z</time>
      </trkpt>
      <trkpt lat="39.622004" lon="-7.308559">
        <ele>188.8</ele>
        <time>1970-01-01T00:00:00Z</time>
      </trkpt>
      <trkpt lat="39.622028" lon="-7.308122">
        <ele>195.1</ele>
        <time>1970-01-01T00:00:00Z</time>
      </trkpt>
      <trkpt lat="39.622093" lon="-7.307793">
        <ele>192.3</ele>
        <time>1970-01-01T00:00:00Z</time>
      </trkpt>
      <trkpt lat="39.622135" lon="-7.307652">
        <ele>189.2</ele>
        <time>1970-01-01T00:00:00Z</time>
      </trkpt>
      <trkpt lat="39.622180" lon="-7.307564">
        <ele>187.4</ele>
        <time>1970-01-01T00:00:00Z</time>
      </trkpt>
      <trkpt lat="39.622241" lon="-7.307516">
        <ele>186.9</ele>
        <time>1970-01-01T00:00:00Z</time>
      </trkpt>
      <trkpt lat="39.622442" lon="-7.307494">
        <ele>189.4</ele>
        <time>1970-01-01T00:00:00Z</time>
      </trkpt>
      <trkpt lat="39.622484" lon="-7.307539">
        <ele>191.0</ele>
        <time>1970-01-01T00:00:00Z</time>
      </trkpt>
      <trkpt lat="39.622545" lon="-7.307550">
        <ele>192.2</ele>
        <time>1970-01-01T00:00:00Z</time>
      </trkpt>
      <trkpt lat="39.622622" lon="-7.307520">
        <ele>193.3</ele>
        <time>1970-01-01T00:00:00Z</time>
      </trkpt>
      <trkpt lat="39.622722" lon="-7.307354">
        <ele>192.1</ele>
        <time>1970-01-01T00:00:00Z</time>
      </trkpt>
      <trkpt lat="39.622962" lon="-7.307349">
        <ele>197.5</ele>
        <time>1970-01-01T00:00:00Z</time>
      </trkpt>
      <trkpt lat="39.623074" lon="-7.307309">
        <ele>198.6</ele>
        <time>1970-01-01T00:00:00Z</time>
      </trkpt>
      <trkpt lat="39.623191" lon="-7.307301">
        <ele>200.1</ele>
        <time>1970-01-01T00:00:00Z</time>
      </trkpt>
      <trkpt lat="39.623364" lon="-7.307263">
        <ele>202.5</ele>
        <time>1970-01-01T00:00:00Z</time>
      </trkpt>
      <trkpt lat="39.623548" lon="-7.307166">
        <ele>204.7</ele>
        <time>1970-01-01T00:00:00Z</time>
      </trkpt>
      <trkpt lat="39.623854" lon="-7.307044">
        <ele>210.2</ele>
        <time>1970-01-01T00:00:00Z</time>
      </trkpt>
      <trkpt lat="39.623983" lon="-7.307008">
        <ele>212.8</ele>
        <time>1970-01-01T00:00:00Z</time>
      </trkpt>
      <trkpt lat="39.624252" lon="-7.306786">
        <ele>219.2</ele>
        <time>1970-01-01T00:00:00Z</time>
      </trkpt>
      <trkpt lat="39.624385" lon="-7.306715">
        <ele>223.0</ele>
        <time>1970-01-01T00:00:00Z</time>
      </trkpt>
      <trkpt lat="39.624651" lon="-7.306687">
        <ele>228.2</ele>
        <time>1970-01-01T00:00:00Z</time>
      </trkpt>
      <trkpt lat="39.624709" lon="-7.306664">
        <ele>229.7</ele>
        <time>1970-01-01T00:00:00Z</time>
      </trkpt>
      <trkpt lat="39.624783" lon="-7.306557">
        <ele>232.5</ele>
        <time>1970-01-01T00:00:00Z</time>
      </trkpt>
      <trkpt lat="39.624876" lon="-7.306465">
        <ele>236.0</ele>
        <time>1970-01-01T00:00:00Z</time>
      </trkpt>
      <trkpt lat="39.625052" lon="-7.306362">
        <ele>242.3</ele>
        <time>1970-01-01T00:00:00Z</time>
      </trkpt>
      <trkpt lat="39.625530" lon="-7.305997">
        <ele>253.6</ele>
        <time>1970-01-01T00:00:00Z</time>
      </trkpt>
      <trkpt lat="39.625649" lon="-7.305830">
        <ele>254.7</ele>
        <time>1970-01-01T00:00:00Z</time>
      </trkpt>
      <trkpt lat="39.625869" lon="-7.305350">
        <ele>259.8</ele>
        <time>1970-01-01T00:00:00Z</time>
      </trkpt>
      <trkpt lat="39.625911" lon="-7.305235">
        <ele>261.2</ele>
        <time>1970-01-01T00:00:00Z</time>
      </trkpt>
      <trkpt lat="39.625907" lon="-7.305032">
        <ele>263.1</ele>
        <time>1970-01-01T00:00:00Z</time>
      </trkpt>
      <trkpt lat="39.625875" lon="-7.304772">
        <ele>264.3</ele>
        <time>1970-01-01T00:00:00Z</time>
      </trkpt>
      <trkpt lat="39.625902" lon="-7.304667">
        <ele>264.8</ele>
        <time>1970-01-01T00:00:00Z</time>
      </trkpt>
      <trkpt lat="39.625995" lon="-7.304518">
        <ele>265.4</ele>
        <time>1970-01-01T00:00:00Z</time>
      </trkpt>
      <trkpt lat="39.626011" lon="-7.304388">
        <ele>266.0</ele>
        <time>1970-01-01T00:00:00Z</time>
      </trkpt>
      <trkpt lat="39.626202" lon="-7.303973">
        <ele>267.1</ele>
        <time>1970-01-01T00:00:00Z</time>
      </trkpt>
      <trkpt lat="39.626211" lon="-7.303321">
        <ele>270.9</ele>
        <time>1970-01-01T00:00:00Z</time>
      </trkpt>
      <trkpt lat="39.626351" lon="-7.302541">
        <ele>273.8</ele>
        <time>1970-01-01T00:00:00Z</time>
      </trkpt>
      <trkpt lat="39.626458" lon="-7.302306">
        <ele>273.5</ele>
        <time>1970-01-01T00:00:00Z</time>
      </trkpt>
      <trkpt lat="39.626592" lon="-7.301942">
        <ele>273.1</ele>
        <time>1970-01-01T00:00:00Z</time>
      </trkpt>
      <trkpt lat="39.626655" lon="-7.301825">
        <ele>273.3</ele>
        <time>1970-01-01T00:00:00Z</time>
      </trkpt>
      <trkpt lat="39.626742" lon="-7.301712">
        <ele>272.9</ele>
        <time>1970-01-01T00:00:00Z</time>
      </trkpt>
      <trkpt lat="39.627026" lon="-7.301439">
        <ele>272.0</ele>
        <time>1970-01-01T00:00:00Z</time>
      </trkpt>
      <trkpt lat="39.627125" lon="-7.301383">
        <ele>272.0</ele>
        <time>1970-01-01T00:00:00Z</time>
      </trkpt>
      <trkpt lat="39.627240" lon="-7.301341">
        <ele>272.1</ele>
        <time>1970-01-01T00:00:00Z</time>
      </trkpt>
      <trkpt lat="39.627293" lon="-7.301295">
        <ele>272.3</ele>
        <time>1970-01-01T00:00:00Z</time>
      </trkpt>
      <trkpt lat="39.627381" lon="-7.301165">
        <ele>272.9</ele>
        <time>1970-01-01T00:00:00Z</time>
      </trkpt>
      <trkpt lat="39.627428" lon="-7.301030">
        <ele>273.0</ele>
        <time>1970-01-01T00:00:00Z</time>
      </trkpt>
      <trkpt lat="39.627533" lon="-7.300918">
        <ele>273.4</ele>
        <time>1970-01-01T00:00:00Z</time>
      </trkpt>
      <trkpt lat="39.627629" lon="-7.300756">
        <ele>274.0</ele>
        <time>1970-01-01T00:00:00Z</time>
      </trkpt>
      <trkpt lat="39.627692" lon="-7.300566">
        <ele>275.1</ele>
        <time>1970-01-01T00:00:00Z</time>
      </trkpt>
      <trkpt lat="39.627753" lon="-7.299218">
        <ele>282.7</ele>
        <time>1970-01-01T00:00:00Z</time>
      </trkpt>
      <trkpt lat="39.627783" lon="-7.299114">
        <ele>283.3</ele>
        <time>1970-01-01T00:00:00Z</time>
      </trkpt>
      <trkpt lat="39.627954" lon="-7.298782">
        <ele>285.2</ele>
        <time>1970-01-01T00:00:00Z</time>
      </trkpt>
      <trkpt lat="39.628157" lon="-7.298344">
        <ele>286.1</ele>
        <time>1970-01-01T00:00:00Z</time>
      </trkpt>
      <trkpt lat="39.628312" lon="-7.297865">
        <ele>286.8</ele>
        <time>1970-01-01T00:00:00Z</time>
      </trkpt>
      <trkpt lat="39.628332" lon="-7.297647">
        <ele>286.1</ele>
        <time>1970-01-01T00:00:00Z</time>
      </trkpt>
      <trkpt lat="39.628335" lon="-7.297455">
        <ele>286.9</ele>
        <time>1970-01-01T00:00:00Z</time>
      </trkpt>
      <trkpt lat="39.628255" lon="-7.296321">
        <ele>288.0</ele>
        <time>1970-01-01T00:00:00Z</time>
      </trkpt>
      <trkpt lat="39.628242" lon="-7.295739">
        <ele>289.0</ele>
        <time>1970-01-01T00:00:00Z</time>
      </trkpt>
      <trkpt lat="39.628256" lon="-7.295052">
        <ele>290.0</ele>
        <time>1970-01-01T00:00:00Z</time>
      </trkpt>
      <trkpt lat="39.628230" lon="-7.294071">
        <ele>291.0</ele>
        <time>1970-01-01T00:00:00Z</time>
      </trkpt>
      <trkpt lat="39.628164" lon="-7.293895">
        <ele>290.9</ele>
        <time>1970-01-01T00:00:00Z</time>
      </trkpt>
      <trkpt lat="39.627902" lon="-7.293344">
        <ele>290.0</ele>
        <time>1970-01-01T00:00:00Z</time>
      </trkpt>
      <trkpt lat="39.627765" lon="-7.292874">
        <ele>288.8</ele>
        <time>1970-01-01T00:00:00Z</time>
      </trkpt>
      <trkpt lat="39.627528" lon="-7.292527">
        <ele>288.3</ele>
        <time>1970-01-01T00:00:00Z</time>
      </trkpt>
      <trkpt lat="39.627469" lon="-7.292378">
        <ele>287.9</ele>
        <time>1970-01-01T00:00:00Z</time>
      </trkpt>
      <trkpt lat="39.627365" lon="-7.292031">
        <ele>287.5</ele>
        <time>1970-01-01T00:00:00Z</time>
      </trkpt>
      <trkpt lat="39.627239" lon="-7.291690">
        <ele>287.9</ele>
        <time>1970-01-01T00:00:00Z</time>
      </trkpt>
      <trkpt lat="39.627174" lon="-7.291627">
        <ele>288.1</ele>
        <time>1970-01-01T00:00:00Z</time>
      </trkpt>
      <trkpt lat="39.626983" lon="-7.291549">
        <ele>289.4</ele>
        <time>1970-01-01T00:00:00Z</time>
      </trkpt>
      <trkpt lat="39.626892" lon="-7.291489">
        <ele>289.6</ele>
        <time>1970-01-01T00:00:00Z</time>
      </trkpt>
      <trkpt lat="39.626778" lon="-7.291356">
        <ele>289.2</ele>
        <time>1970-01-01T00:00:00Z</time>
      </trkpt>
      <trkpt lat="39.626270" lon="-7.290479">
        <ele>283.9</ele>
        <time>1970-01-01T00:00:00Z</time>
      </trkpt>
      <trkpt lat="39.626110" lon="-7.290038">
        <ele>283.7</ele>
        <time>1970-01-01T00:00:00Z</time>
      </trkpt>
      <trkpt lat="39.625946" lon="-7.289631">
        <ele>283.4</ele>
        <time>1970-01-01T00:00:00Z</time>
      </trkpt>
      <trkpt lat="39.625616" lon="-7.288989">
        <ele>285.7</ele>
        <time>1970-01-01T00:00:00Z</time>
      </trkpt>
      <trkpt lat="39.625403" lon="-7.288641">
        <ele>289.5</ele>
        <time>1970-01-01T00:00:00Z</time>
      </trkpt>
      <trkpt lat="39.625075" lon="-7.288399">
        <ele>294.3</ele>
        <time>1970-01-01T00:00:00Z</time>
      </trkpt>
      <trkpt lat="39.624807" lon="-7.288165">
        <ele>297.4</ele>
        <time>1970-01-01T00:00:00Z</time>
      </trkpt>
      <trkpt lat="39.624710" lon="-7.288063">
        <ele>298.2</ele>
        <time>1970-01-01T00:00:00Z</time>
      </trkpt>
      <trkpt lat="39.624594" lon="-7.287851">
        <ele>299.5</ele>
        <time>1970-01-01T00:00:00Z</time>
      </trkpt>
      <trkpt lat="39.624403" lon="-7.287342">
        <ele>300.4</ele>
        <time>1970-01-01T00:00:00Z</time>
      </trkpt>
      <trkpt lat="39.624284" lon="-7.287159">
        <ele>300.4</ele>
        <time>1970-01-01T00:00:00Z</time>
      </trkpt>
      <trkpt lat="39.624138" lon="-7.286827">
        <ele>300.5</ele>
        <time>1970-01-01T00:00:00Z</time>
      </trkpt>
      <trkpt lat="39.623835" lon="-7.286271">
        <ele>303.0</ele>
        <time>1970-01-01T00:00:00Z</time>
      </trkpt>
      <trkpt lat="39.623702" lon="-7.285886">
        <ele>304.1</ele>
        <time>1970-01-01T00:00:00Z</time>
      </trkpt>
      <trkpt lat="39.623582" lon="-7.285430">
        <ele>303.6</ele>
        <time>1970-01-01T00:00:00Z</time>
      </trkpt>
      <trkpt lat="39.623393" lon="-7.285342">
        <ele>303.7</ele>
        <time>1970-01-01T00:00:00Z</time>
      </trkpt>
      <trkpt lat="39.623343" lon="-7.285292">
        <ele>303.5</ele>
        <time>1970-01-01T00:00:00Z</time>
      </trkpt>
      <trkpt lat="39.623054" lon="-7.284954">
        <ele>302.0</ele>
        <time>1970-01-01T00:00:00Z</time>
      </trkpt>
      <trkpt lat="39.622471" lon="-7.284230">
        <ele>302.0</ele>
        <time>1970-01-01T00:00:00Z</time>
      </trkpt>
      <trkpt lat="39.622030" lon="-7.283722">
        <ele>302.4</ele>
        <time>1970-01-01T00:00:00Z</time>
      </trkpt>
      <trkpt lat="39.621335" lon="-7.283036">
        <ele>306.3</ele>
        <time>1970-01-01T00:00:00Z</time>
      </trkpt>
      <trkpt lat="39.621161" lon="-7.282892">
        <ele>307.0</ele>
        <time>1970-01-01T00:00:00Z</time>
      </trkpt>
      <trkpt lat="39.621027" lon="-7.282756">
        <ele>307.2</ele>
        <time>1970-01-01T00:00:00Z</time>
      </trkpt>
      <trkpt lat="39.620709" lon="-7.282243">
        <ele>306.4</ele>
        <time>1970-01-01T00:00:00Z</time>
      </trkpt>
      <trkpt lat="39.620590" lon="-7.282139">
        <ele>305.9</ele>
        <time>1970-01-01T00:00:00Z</time>
      </trkpt>
      <trkpt lat="39.620356" lon="-7.281984">
        <ele>305.2</ele>
        <time>1970-01-01T00:00:00Z</time>
      </trkpt>
      <trkpt lat="39.620054" lon="-7.281601">
        <ele>301.7</ele>
        <time>1970-01-01T00:00:00Z</time>
      </trkpt>
      <trkpt lat="39.619918" lon="-7.281351">
        <ele>300.1</ele>
        <time>1970-01-01T00:00:00Z</time>
      </trkpt>
      <trkpt lat="39.619786" lon="-7.280946">
        <ele>298.0</ele>
        <time>1970-01-01T00:00:00Z</time>
      </trkpt>
      <trkpt lat="39.619589" lon="-7.280446">
        <ele>296.1</ele>
        <time>1970-01-01T00:00:00Z</time>
      </trkpt>
      <trkpt lat="39.619440" lon="-7.280104">
        <ele>295.1</ele>
        <time>1970-01-01T00:00:00Z</time>
      </trkpt>
      <trkpt lat="39.619102" lon="-7.279607">
        <ele>294.1</ele>
        <time>1970-01-01T00:00:00Z</time>
      </trkpt>
      <trkpt lat="39.618648" lon="-7.278887">
        <ele>295.2</ele>
        <time>1970-01-01T00:00:00Z</time>
      </trkpt>
      <trkpt lat="39.618421" lon="-7.278483">
        <ele>297.9</ele>
        <time>1970-01-01T00:00:00Z</time>
      </trkpt>
      <trkpt lat="39.618271" lon="-7.278265">
        <ele>300.0</ele>
        <time>1970-01-01T00:00:00Z</time>
      </trkpt>
      <trkpt lat="39.618067" lon="-7.277998">
        <ele>302.4</ele>
        <time>1970-01-01T00:00:00Z</time>
      </trkpt>
      <trkpt lat="39.617972" lon="-7.277896">
        <ele>303.3</ele>
        <time>1970-01-01T00:00:00Z</time>
      </trkpt>
      <trkpt lat="39.617718" lon="-7.277545">
        <ele>304.9</ele>
        <time>1970-01-01T00:00:00Z</time>
      </trkpt>
      <trkpt lat="39.617518" lon="-7.277331">
        <ele>305.7</ele>
        <time>1970-01-01T00:00:00Z</time>
      </trkpt>
      <trkpt lat="39.617324" lon="-7.277161">
        <ele>307.2</ele>
        <time>1970-01-01T00:00:00Z</time>
      </trkpt>
      <trkpt lat="39.617176" lon="-7.277078">
        <ele>308.2</ele>
        <time>1970-01-01T00:00:00Z</time>
      </trkpt>
      <trkpt lat="39.616881" lon="-7.276870">
        <ele>310.4</ele>
        <time>1970-01-01T00:00:00Z</time>
      </trkpt>
      <trkpt lat="39.616561" lon="-7.276616">
        <ele>312.0</ele>
        <time>1970-01-01T00:00:00Z</time>
      </trkpt>
      <trkpt lat="39.616306" lon="-7.276117">
        <ele>315.0</ele>
        <time>1970-01-01T00:00:00Z</time>
      </trkpt>
      <trkpt lat="39.616194" lon="-7.275972">
        <ele>315.0</ele>
        <time>1970-01-01T00:00:00Z</time>
      </trkpt>
      <trkpt lat="39.616107" lon="-7.275736">
        <ele>315.0</ele>
        <time>1970-01-01T00:00:00Z</time>
      </trkpt>
      <trkpt lat="39.616010" lon="-7.275372">
        <ele>316.0</ele>
        <time>1970-01-01T00:00:00Z</time>
      </trkpt>
      <trkpt lat="39.615864" lon="-7.274922">
        <ele>317.0</ele>
        <time>1970-01-01T00:00:00Z</time>
      </trkpt>
      <trkpt lat="39.615707" lon="-7.274737">
        <ele>317.0</ele>
        <time>1970-01-01T00:00:00Z</time>
      </trkpt>
      <trkpt lat="39.615551" lon="-7.274587">
        <ele>316.0</ele>
        <time>1970-01-01T00:00:00Z</time>
      </trkpt>
      <trkpt lat="39.615385" lon="-7.274313">
        <ele>315.0</ele>
        <time>1970-01-01T00:00:00Z</time>
      </trkpt>
      <trkpt lat="39.615363" lon="-7.274253">
        <ele>315.2</ele>
        <time>1970-01-01T00:00:00Z</time>
      </trkpt>
      <trkpt lat="39.615278" lon="-7.273767">
        <ele>318.1</ele>
        <time>1970-01-01T00:00:00Z</time>
      </trkpt>
      <trkpt lat="39.615069" lon="-7.273340">
        <ele>320.5</ele>
        <time>1970-01-01T00:00:00Z</time>
      </trkpt>
      <trkpt lat="39.614915" lon="-7.273072">
        <ele>321.3</ele>
        <time>1970-01-01T00:00:00Z</time>
      </trkpt>
      <trkpt lat="39.614675" lon="-7.272739">
        <ele>321.9</ele>
        <time>1970-01-01T00:00:00Z</time>
      </trkpt>
      <trkpt lat="39.614323" lon="-7.271850">
        <ele>319.6</ele>
        <time>1970-01-01T00:00:00Z</time>
      </trkpt>
      <trkpt lat="39.613920" lon="-7.271090">
        <ele>318.3</ele>
        <time>1970-01-01T00:00:00Z</time>
      </trkpt>
      <trkpt lat="39.613644" lon="-7.270263">
        <ele>319.3</ele>
        <time>1970-01-01T00:00:00Z</time>
      </trkpt>
      <trkpt lat="39.613381" lon="-7.269840">
        <ele>320.6</ele>
        <time>1970-01-01T00:00:00Z</time>
      </trkpt>
      <trkpt lat="39.613008" lon="-7.269137">
        <ele>321.0</ele>
        <time>1970-01-01T00:00:00Z</time>
      </trkpt>
      <trkpt lat="39.612804" lon="-7.268843">
        <ele>321.5</ele>
        <time>1970-01-01T00:00:00Z</time>
      </trkpt>
      <trkpt lat="39.612531" lon="-7.268390">
        <ele>321.7</ele>
        <time>1970-01-01T00:00:00Z</time>
      </trkpt>
      <trkpt lat="39.612479" lon="-7.268256">
        <ele>321.4</ele>
        <time>1970-01-01T00:00:00Z</time>
      </trkpt>
      <trkpt lat="39.612413" lon="-7.268020">
        <ele>321.1</ele>
        <time>1970-01-01T00:00:00Z</time>
      </trkpt>
      <trkpt lat="39.612124" lon="-7.267320">
        <ele>319.8</ele>
        <time>1970-01-01T00:00:00Z</time>
      </trkpt>
      <trkpt lat="39.611823" lon="-7.266742">
        <ele>317.6</ele>
        <time>1970-01-01T00:00:00Z</time>
      </trkpt>
      <trkpt lat="39.611404" lon="-7.266172">
        <ele>317.6</ele>
        <time>1970-01-01T00:00:00Z</time>
      </trkpt>
      <trkpt lat="39.611125" lon="-7.265768">
        <ele>316.1</ele>
        <time>1970-01-01T00:00:00Z</time>
      </trkpt>
      <trkpt lat="39.610886" lon="-7.265373">
        <ele>316.4</ele>
        <time>1970-01-01T00:00:00Z</time>
      </trkpt>
      <trkpt lat="39.610600" lon="-7.264858">
        <ele>318.8</ele>
        <time>1970-01-01T00:00:00Z</time>
      </trkpt>
      <trkpt lat="39.610337" lon="-7.264130">
        <ele>320.1</ele>
        <time>1970-01-01T00:00:00Z</time>
      </trkpt>
      <trkpt lat="39.610291" lon="-7.263870">
        <ele>320.0</ele>
        <time>1970-01-01T00:00:00Z</time>
      </trkpt>
      <trkpt lat="39.610226" lon="-7.263780">
        <ele>319.8</ele>
        <time>1970-01-01T00:00:00Z</time>
      </trkpt>
      <trkpt lat="39.610137" lon="-7.263558">
        <ele>320.0</ele>
        <time>1970-01-01T00:00:00Z</time>
      </trkpt>
      <trkpt lat="39.609852" lon="-7.262749">
        <ele>320.0</ele>
        <time>1970-01-01T00:00:00Z</time>
      </trkpt>
      <trkpt lat="39.609329" lon="-7.261339">
        <ele>326.7</ele>
        <time>1970-01-01T00:00:00Z</time>
      </trkpt>
      <trkpt lat="39.609174" lon="-7.260987">
        <ele>328.7</ele>
        <time>1970-01-01T00:00:00Z</time>
      </trkpt>
      <trkpt lat="39.609005" lon="-7.260689">
        <ele>328.6</ele>
        <time>1970-01-01T00:00:00Z</time>
      </trkpt>
      <trkpt lat="39.608490" lon="-7.259674">
        <ele>326.8</ele>
        <time>1970-01-01T00:00:00Z</time>
      </trkpt>
      <trkpt lat="39.608110" lon="-7.258867">
        <ele>324.9</ele>
        <time>1970-01-01T00:00:00Z</time>
      </trkpt>
      <trkpt lat="39.607987" lon="-7.258640">
        <ele>324.0</ele>
        <time>1970-01-01T00:00:00Z</time>
      </trkpt>
      <trkpt lat="39.607151" lon="-7.256373">
        <ele>325.8</ele>
        <time>1970-01-01T00:00:00Z</time>
      </trkpt>
      <trkpt lat="39.607146" lon="-7.253904">
        <ele>331.0</ele>
        <time>1970-01-01T00:00:00Z</time>
      </trkpt>
      <trkpt lat="39.607138" lon="-7.253716">
        <ele>331.3</ele>
        <time>1970-01-01T00:00:00Z</time>
      </trkpt>
      <trkpt lat="39.607048" lon="-7.253365">
        <ele>332.0</ele>
        <time>1970-01-01T00:00:00Z</time>
      </trkpt>
      <trkpt lat="39.606969" lon="-7.253119">
        <ele>332.0</ele>
        <time>1970-01-01T00:00:00Z</time>
      </trkpt>
      <trkpt lat="39.606970" lon="-7.252572">
        <ele>331.1</ele>
        <time>1970-01-01T00:00:00Z</time>
      </trkpt>
      <trkpt lat="39.606927" lon="-7.252384">
        <ele>330.7</ele>
        <time>1970-01-01T00:00:00Z</time>
      </trkpt>
      <trkpt lat="39.606817" lon="-7.252129">
        <ele>330.3</ele>
        <time>1970-01-01T00:00:00Z</time>
      </trkpt>
      <trkpt lat="39.606750" lon="-7.251883">
        <ele>330.3</ele>
        <time>1970-01-01T00:00:00Z</time>
      </trkpt>
      <trkpt lat="39.606701" lon="-7.251165">
        <ele>331.5</ele>
        <time>1970-01-01T00:00:00Z</time>
      </trkpt>
      <trkpt lat="39.606596" lon="-7.250242">
        <ele>333.9</ele>
        <time>1970-01-01T00:00:00Z</time>
      </trkpt>
      <trkpt lat="39.606528" lon="-7.249928">
        <ele>334.3</ele>
        <time>1970-01-01T00:00:00Z</time>
      </trkpt>
      <trkpt lat="39.606453" lon="-7.249677">
        <ele>335.3</ele>
        <time>1970-01-01T00:00:00Z</time>
      </trkpt>
      <trkpt lat="39.606411" lon="-7.249477">
        <ele>335.8</ele>
        <time>1970-01-01T00:00:00Z</time>
      </trkpt>
      <trkpt lat="39.606340" lon="-7.248859">
        <ele>337.1</ele>
        <time>1970-01-01T00:00:00Z</time>
      </trkpt>
      <trkpt lat="39.606321" lon="-7.248533">
        <ele>336.7</ele>
        <time>1970-01-01T00:00:00Z</time>
      </trkpt>
      <trkpt lat="39.606294" lon="-7.248354">
        <ele>337.6</ele>
        <time>1970-01-01T00:00:00Z</time>
      </trkpt>
    </trkseg>
    <trkseg>
      <trkpt lat="39.606294" lon="-7.248354">
        <ele>337.6</ele>
        <time>1970-01-01T00:00:00Z</time>
      </trkpt>
      <trkpt lat="39.606199" lon="-7.247886">
        <ele>338.7</ele>
        <time>1970-01-01T00:00:00Z</time>
      </trkpt>
      <trkpt lat="39.606295" lon="-7.246985">
        <ele>338.3</ele>
        <time>1970-01-01T00:00:00Z</time>
      </trkpt>
      <trkpt lat="39.606192" lon="-7.246303">
        <ele>343.6</ele>
        <time>1970-01-01T00:00:00Z</time>
      </trkpt>
      <trkpt lat="39.606236" lon="-7.245828">
        <ele>344.5</ele>
        <time>1970-01-01T00:00:00Z</time>
      </trkpt>
      <trkpt lat="39.606271" lon="-7.245599">
        <ele>344.4</ele>
        <time>1970-01-01T00:00:00Z</time>
      </trkpt>
      <trkpt lat="39.606307" lon="-7.245133">
        <ele>344.2</ele>
        <time>1970-01-01T00:00:00Z</time>
      </trkpt>
      <trkpt lat="39.606358" lon="-7.244845">
        <ele>343.8</ele>
        <time>1970-01-01T00:00:00Z</time>
      </trkpt>
      <trkpt lat="39.606328" lon="-7.244813">
        <ele>343.6</ele>
        <time>1970-01-01T00:00:00Z</time>
      </trkpt>
      <trkpt lat="39.606137" lon="-7.244420">
        <ele>343.0</ele>
        <time>1970-01-01T00:00:00Z</time>
      </trkpt>
      <trkpt lat="39.606156" lon="-7.244216">
        <ele>343.0</ele>
        <time>1970-01-01T00:00:00Z</time>
      </trkpt>
      <trkpt lat="39.606082" lon="-7.244108">
        <ele>342.5</ele>
        <time>1970-01-01T00:00:00Z</time>
      </trkpt>
      <trkpt lat="39.606264" lon="-7.243920">
        <ele>342.6</ele>
        <time>1970-01-01T00:00:00Z</time>
      </trkpt>
      <trkpt lat="39.606169" lon="-7.243769">
        <ele>342.2</ele>
        <time>1970-01-01T00:00:00Z</time>
      </trkpt>
      <trkpt lat="39.605793" lon="-7.243002">
        <ele>339.4</ele>
        <time>1970-01-01T00:00:00Z</time>
      </trkpt>
      <trkpt lat="39.605600" lon="-7.242576">
        <ele>337.4</ele>
        <time>1970-01-01T00:00:00Z</time>
      </trkpt>
      <trkpt lat="39.606180" lon="-7.242286">
        <ele>341.2</ele>
        <time>1970-01-01T00:00:00Z</time>
      </trkpt>
      <trkpt lat="39.606595" lon="-7.242020">
        <ele>344.0</ele>
        <time>1970-01-01T00:00:00Z</time>
      </trkpt>
      <trkpt lat="39.606898" lon="-7.241965">
        <ele>347.0</ele>
        <time>1970-01-01T00:00:00Z</time>
      </trkpt>
      <trkpt lat="39.607100" lon="-7.241716">
        <ele>349.4</ele>
        <time>1970-01-01T00:00:00Z</time>
      </trkpt>
      <trkpt lat="39.607210" lon="-7.241246">
        <ele>350.9</ele>
        <time>1970-01-01T00:00:00Z</time>
      </trkpt>
      <trkpt lat="39.607360" lon="-7.240956">
        <ele>352.6</ele>
        <time>1970-01-01T00:00:00Z</time>
      </trkpt>
      <trkpt lat="39.607510" lon="-7.240806">
        <ele>353.9</ele>
        <time>1970-01-01T00:00:00Z</time>
      </trkpt>
      <trkpt lat="39.607397" lon="-7.240628">
        <ele>353.0</ele>
        <time>1970-01-01T00:00:00Z</time>
      </trkpt>
      <trkpt lat="39.607489" lon="-7.240567">
        <ele>353.7</ele>
        <time>1970-01-01T00:00:00Z</time>
      </trkpt>
      <trkpt lat="39.607806" lon="-7.240498">
        <ele>355.2</ele>
        <time>1970-01-01T00:00:00Z</time>
      </trkpt>
      <trkpt lat="39.607870" lon="-7.240416">
        <ele>355.7</ele>
        <time>1970-01-01T00:00:00Z</time>
      </trkpt>
      <trkpt lat="39.607909" lon="-7.240265">
        <ele>356.0</ele>
        <time>1970-01-01T00:00:00Z</time>
      </trkpt>
      <trkpt lat="39.608039" lon="-7.239908">
        <ele>359.1</ele>
        <time>1970-01-01T00:00:00Z</time>
      </trkpt>
      <trkpt lat="39.608220" lon="-7.239596">
        <ele>362.7</ele>
        <time>1970-01-01T00:00:00Z</time>
      </trkpt>
      <trkpt lat="39.608491" lon="-7.238792">
        <ele>371.7</ele>
        <time>1970-01-01T00:00:00Z</time>
      </trkpt>
      <trkpt lat="39.608586" lon="-7.238850">
        <ele>371.1</ele>
        <time>1970-01-01T00:00:00Z</time>
      </trkpt>
      <trkpt lat="39.608920" lon="-7.238886">
        <ele>371.8</ele>
        <time>1970-01-01T00:00:00Z</time>
      </trkpt>
      <trkpt lat="39.609167" lon="-7.238866">
        <ele>371.2</ele>
        <time>1970-01-01T00:00:00Z</time>
      </trkpt>
      <trkpt lat="39.609240" lon="-7.238836">
        <ele>371.7</ele>
        <time>1970-01-01T00:00:00Z</time>
      </trkpt>
      <trkpt lat="39.609407" lon="-7.238725">
        <ele>373.5</ele>
        <time>1970-01-01T00:00:00Z</time>
      </trkpt>
      <trkpt lat="39.609570" lon="-7.238646">
        <ele>374.1</ele>
        <time>1970-01-01T00:00:00Z</time>
      </trkpt>
      <trkpt lat="39.609758" lon="-7.238507">
        <ele>374.6</ele>
        <time>1970-01-01T00:00:00Z</time>
      </trkpt>
      <trkpt lat="39.609821" lon="-7.238514">
        <ele>373.8</ele>
        <time>1970-01-01T00:00:00Z</time>
      </trkpt>
      <trkpt lat="39.609905" lon="-7.238556">
        <ele>372.0</ele>
        <time>1970-01-01T00:00:00Z</time>
      </trkpt>
      <trkpt lat="39.609992" lon="-7.238576">
        <ele>370.3</ele>
        <time>1970-01-01T00:00:00Z</time>
      </trkpt>
      <trkpt lat="39.610063" lon="-7.238563">
        <ele>369.4</ele>
        <time>1970-01-01T00:00:00Z</time>
      </trkpt>
      <trkpt lat="39.610148" lon="-7.238514">
        <ele>368.6</ele>
        <time>1970-01-01T00:00:00Z</time>
      </trkpt>
      <trkpt lat="39.610217" lon="-7.238469">
        <ele>367.9</ele>
        <time>1970-01-01T00:00:00Z</time>
      </trkpt>
      <trkpt lat="39.610352" lon="-7.238329">
        <ele>366.9</ele>
        <time>1970-01-01T00:00:00Z</time>
      </trkpt>
      <trkpt lat="39.610456" lon="-7.238198">
        <ele>366.3</ele>
        <time>1970-01-01T00:00:00Z</time>
      </trkpt>
      <trkpt lat="39.610492" lon="-7.238086">
        <ele>367.0</ele>
        <time>1970-01-01T00:00:00Z</time>
      </trkpt>
      <trkpt lat="39.610563" lon="-7.237760">
        <ele>368.0</ele>
        <time>1970-01-01T00:00:00Z</time>
      </trkpt>
      <trkpt lat="39.610618" lon="-7.237599">
        <ele>368.4</ele>
        <time>1970-01-01T00:00:00Z</time>
      </trkpt>
      <trkpt lat="39.610676" lon="-7.237474">
        <ele>368.2</ele>
        <time>1970-01-01T00:00:00Z</time>
      </trkpt>
      <trkpt lat="39.610699" lon="-7.237333">
        <ele>368.7</ele>
        <time>1970-01-01T00:00:00Z</time>
      </trkpt>
      <trkpt lat="39.610705" lon="-7.237054">
        <ele>370.0</ele>
        <time>1970-01-01T00:00:00Z</time>
      </trkpt>
      <trkpt lat="39.610682" lon="-7.236804">
        <ele>371.0</ele>
        <time>1970-01-01T00:00:00Z</time>
      </trkpt>
      <trkpt lat="39.610425" lon="-7.236002">
        <ele>374.4</ele>
        <time>1970-01-01T00:00:00Z</time>
      </trkpt>
      <trkpt lat="39.610336" lon="-7.235792">
        <ele>376.2</ele>
        <time>1970-01-01T00:00:00Z</time>
      </trkpt>
      <trkpt lat="39.610319" lon="-7.235685">
        <ele>375.8</ele>
        <time>1970-01-01T00:00:00Z</time>
      </trkpt>
      <trkpt lat="39.610021" lon="-7.235061">
        <ele>385.9</ele>
        <time>1970-01-01T00:00:00Z</time>
      </trkpt>
      <trkpt lat="39.609992" lon="-7.234931">
        <ele>387.2</ele>
        <time>1970-01-01T00:00:00Z</time>
      </trkpt>
      <trkpt lat="39.610005" lon="-7.234833">
        <ele>387.3</ele>
        <time>1970-01-01T00:00:00Z</time>
      </trkpt>
      <trkpt lat="39.610188" lon="-7.234452">
        <ele>384.9</ele>
        <time>1970-01-01T00:00:00Z</time>
      </trkpt>
      <trkpt lat="39.610226" lon="-7.234314">
        <ele>384.8</ele>
        <time>1970-01-01T00:00:00Z</time>
      </trkpt>
      <trkpt lat="39.610270" lon="-7.233942">
        <ele>386.6</ele>
        <time>1970-01-01T00:00:00Z</time>
      </trkpt>
      <trkpt lat="39.610344" lon="-7.233789">
        <ele>385.5</ele>
        <time>1970-01-01T00:00:00Z</time>
      </trkpt>
      <trkpt lat="39.610368" lon="-7.233596">
        <ele>386.4</ele>
        <time>1970-01-01T00:00:00Z</time>
      </trkpt>
      <trkpt lat="39.610414" lon="-7.233532">
        <ele>385.6</ele>
        <time>1970-01-01T00:00:00Z</time>
      </trkpt>
      <trkpt lat="39.610434" lon="-7.233452">
        <ele>385.7</ele>
        <time>1970-01-01T00:00:00Z</time>
      </trkpt>
      <trkpt lat="39.610445" lon="-7.233315">
        <ele>386.5</ele>
        <time>1970-01-01T00:00:00Z</time>
      </trkpt>
      <trkpt lat="39.610505" lon="-7.233037">
        <ele>388.3</ele>
        <time>1970-01-01T00:00:00Z</time>
      </trkpt>
      <trkpt lat="39.610602" lon="-7.232770">
        <ele>389.0</ele>
        <time>1970-01-01T00:00:00Z</time>
      </trkpt>
      <trkpt lat="39.610670" lon="-7.232520">
        <ele>389.2</ele>
        <time>1970-01-01T00:00:00Z</time>
      </trkpt>
      <trkpt lat="39.610728" lon="-7.231976">
        <ele>391.7</ele>
        <time>1970-01-01T00:00:00Z</time>
      </trkpt>
      <trkpt lat="39.610833" lon="-7.231712">
        <ele>389.0</ele>
        <time>1970-01-01T00:00:00Z</time>
      </trkpt>
      <trkpt lat="39.610937" lon="-7.231316">
        <ele>387.2</ele>
        <time>1970-01-01T00:00:00Z</time>
      </trkpt>
      <trkpt lat="39.610961" lon="-7.230973">
        <ele>388.0</ele>
        <time>1970-01-01T00:00:00Z</time>
      </trkpt>
      <trkpt lat="39.610905" lon="-7.230750">
        <ele>391.0</ele>
        <time>1970-01-01T00:00:00Z</time>
      </trkpt>
      <trkpt lat="39.610867" lon="-7.230676">
        <ele>392.7</ele>
        <time>1970-01-01T00:00:00Z</time>
      </trkpt>
      <trkpt lat="39.610840" lon="-7.230584">
        <ele>394.0</ele>
        <time>1970-01-01T00:00:00Z</time>
      </trkpt>
      <trkpt lat="39.610775" lon="-7.230180">
        <ele>398.6</ele>
        <time>1970-01-01T00:00:00Z</time>
      </trkpt>
      <trkpt lat="39.610669" lon="-7.229686">
        <ele>405.1</ele>
        <time>1970-01-01T00:00:00Z</time>
      </trkpt>
      <trkpt lat="39.610649" lon="-7.229505">
        <ele>406.5</ele>
        <time>1970-01-01T00:00:00Z</time>
      </trkpt>
      <trkpt lat="39.610779" lon="-7.228973">
        <ele>405.1</ele>
        <time>1970-01-01T00:00:00Z</time>
      </trkpt>
      <trkpt lat="39.610905" lon="-7.228182">
        <ele>403.3</ele>
        <time>1970-01-01T00:00:00Z</time>
      </trkpt>
      <trkpt lat="39.610939" lon="-7.228086">
        <ele>402.4</ele>
        <time>1970-01-01T00:00:00Z</time>
      </trkpt>
      <trkpt lat="39.610977" lon="-7.227871">
        <ele>401.4</ele>
        <time>1970-01-01T00:00:00Z</time>
      </trkpt>
      <trkpt lat="39.610922" lon="-7.227767">
        <ele>403.0</ele>
        <time>1970-01-01T00:00:00Z</time>
      </trkpt>
      <trkpt lat="39.610866" lon="-7.227615">
        <ele>405.4</ele>
        <time>1970-01-01T00:00:00Z</time>
      </trkpt>
      <trkpt lat="39.610879" lon="-7.227478">
        <ele>405.7</ele>
        <time>1970-01-01T00:00:00Z</time>
      </trkpt>
      <trkpt lat="39.610957" lon="-7.227382">
        <ele>403.7</ele>
        <time>1970-01-01T00:00:00Z</time>
      </trkpt>
      <trkpt lat="39.611004" lon="-7.227289">
        <ele>402.7</ele>
        <time>1970-01-01T00:00:00Z</time>
      </trkpt>
      <trkpt lat="39.611009" lon="-7.227151">
        <ele>403.7</ele>
        <time>1970-01-01T00:00:00Z</time>
      </trkpt>
      <trkpt lat="39.610981" lon="-7.226977">
        <ele>405.6</ele>
        <time>1970-01-01T00:00:00Z</time>
      </trkpt>
      <trkpt lat="39.610919" lon="-7.226897">
        <ele>407.8</ele>
        <time>1970-01-01T00:00:00Z</time>
      </trkpt>
      <trkpt lat="39.610797" lon="-7.226487">
        <ele>414.3</ele>
        <time>1970-01-01T00:00:00Z</time>
      </trkpt>
      <trkpt lat="39.610800" lon="-7.226088">
        <ele>416.5</ele>
        <time>1970-01-01T00:00:00Z</time>
      </trkpt>
      <trkpt lat="39.610696" lon="-7.225821">
        <ele>419.9</ele>
        <time>1970-01-01T00:00:00Z</time>
      </trkpt>
      <trkpt lat="39.610533" lon="-7.224734">
        <ele>419.7</ele>
        <time>1970-01-01T00:00:00Z</time>
      </trkpt>
      <trkpt lat="39.610509" lon="-7.224358">
        <ele>418.8</ele>
        <time>1970-01-01T00:00:00Z</time>
      </trkpt>
      <trkpt lat="39.610559" lon="-7.224114">
        <ele>417.3</ele>
        <time>1970-01-01T00:00:00Z</time>
      </trkpt>
      <trkpt lat="39.610616" lon="-7.223514">
        <ele>417.4</ele>
        <time>1970-01-01T00:00:00Z</time>
      </trkpt>
      <trkpt lat="39.610557" lon="-7.222764">
        <ele>421.3</ele>
        <time>1970-01-01T00:00:00Z</time>
      </trkpt>
      <trkpt lat="39.610529" lon="-7.222538">
        <ele>421.4</ele>
        <time>1970-01-01T00:00:00Z</time>
      </trkpt>
      <trkpt lat="39.610443" lon="-7.222274">
        <ele>422.4</ele>
        <time>1970-01-01T00:00:00Z</time>
      </trkpt>
      <trkpt lat="39.610300" lon="-7.221671">
        <ele>422.2</ele>
        <time>1970-01-01T00:00:00Z</time>
      </trkpt>
      <trkpt lat="39.610277" lon="-7.221502">
        <ele>421.5</ele>
        <time>1970-01-01T00:00:00Z</time>
      </trkpt>
      <trkpt lat="39.610277" lon="-7.221233">
        <ele>420.3</ele>
        <time>1970-01-01T00:00:00Z</time>
      </trkpt>
      <trkpt lat="39.610242" lon="-7.220889">
        <ele>419.3</ele>
        <time>1970-01-01T00:00:00Z</time>
      </trkpt>
      <trkpt lat="39.610062" lon="-7.220175">
        <ele>424.0</ele>
        <time>1970-01-01T00:00:00Z</time>
      </trkpt>
      <trkpt lat="39.609995" lon="-7.219614">
        <ele>426.2</ele>
        <time>1970-01-01T00:00:00Z</time>
      </trkpt>
      <trkpt lat="39.609945" lon="-7.219308">
        <ele>428.1</ele>
        <time>1970-01-01T00:00:00Z</time>
      </trkpt>
      <trkpt lat="39.609855" lon="-7.218866">
        <ele>427.6</ele>
        <time>1970-01-01T00:00:00Z</time>
      </trkpt>
      <trkpt lat="39.609791" lon="-7.218611">
        <ele>427.4</ele>
        <time>1970-01-01T00:00:00Z</time>
      </trkpt>
      <trkpt lat="39.609717" lon="-7.218397">
        <ele>426.8</ele>
        <time>1970-01-01T00:00:00Z</time>
      </trkpt>
      <trkpt lat="39.609634" lon="-7.218269">
        <ele>427.1</ele>
        <time>1970-01-01T00:00:00Z</time>
      </trkpt>
      <trkpt lat="39.609517" lon="-7.218025">
        <ele>426.9</ele>
        <time>1970-01-01T00:00:00Z</time>
      </trkpt>
      <trkpt lat="39.609470" lon="-7.217847">
        <ele>425.8</ele>
        <time>1970-01-01T00:00:00Z</time>
      </trkpt>
      <trkpt lat="39.609403" lon="-7.217693">
        <ele>426.1</ele>
        <time>1970-01-01T00:00:00Z</time>
      </trkpt>
      <trkpt lat="39.609347" lon="-7.217608">
        <ele>426.7</ele>
        <time>1970-01-01T00:00:00Z</time>
      </trkpt>
      <trkpt lat="39.609317" lon="-7.217505">
        <ele>426.6</ele>
        <time>1970-01-01T00:00:00Z</time>
      </trkpt>
      <trkpt lat="39.609323" lon="-7.217397">
        <ele>425.6</ele>
        <time>1970-01-01T00:00:00Z</time>
      </trkpt>
      <trkpt lat="39.609353" lon="-7.217286">
        <ele>424.4</ele>
        <time>1970-01-01T00:00:00Z</time>
      </trkpt>
      <trkpt lat="39.609364" lon="-7.217146">
        <ele>424.1</ele>
        <time>1970-01-01T00:00:00Z</time>
      </trkpt>
      <trkpt lat="39.609316" lon="-7.216852">
        <ele>425.2</ele>
        <time>1970-01-01T00:00:00Z</time>
      </trkpt>
      <trkpt lat="39.609277" lon="-7.216724">
        <ele>426.0</ele>
        <time>1970-01-01T00:00:00Z</time>
      </trkpt>
      <trkpt lat="39.609099" lon="-7.216317">
        <ele>430.9</ele>
        <time>1970-01-01T00:00:00Z</time>
      </trkpt>
      <trkpt lat="39.609050" lon="-7.216144">
        <ele>432.0</ele>
        <time>1970-01-01T00:00:00Z</time>
      </trkpt>
      <trkpt lat="39.609014" lon="-7.215888">
        <ele>433.1</ele>
        <time>1970-01-01T00:00:00Z</time>
      </trkpt>
      <trkpt lat="39.608977" lon="-7.215784">
        <ele>433.8</ele>
        <time>1970-01-01T00:00:00Z</time>
      </trkpt>
      <trkpt lat="39.608859" lon="-7.215536">
        <ele>435.7</ele>
        <time>1970-01-01T00:00:00Z</time>
      </trkpt>
      <trkpt lat="39.608843" lon="-7.215431">
        <ele>435.3</ele>
        <time>1970-01-01T00:00:00Z</time>
      </trkpt>
      <trkpt lat="39.608787" lon="-7.215344">
        <ele>435.6</ele>
        <time>1970-01-01T00:00:00Z</time>
      </trkpt>
      <trkpt lat="39.608704" lon="-7.215171">
        <ele>435.7</ele>
        <time>1970-01-01T00:00:00Z</time>
      </trkpt>
      <trkpt lat="39.608562" lon="-7.214783">
        <ele>433.1</ele>
        <time>1970-01-01T00:00:00Z</time>
      </trkpt>
      <trkpt lat="39.608425" lon="-7.214472">
        <ele>431.2</ele>
        <time>1970-01-01T00:00:00Z</time>
      </trkpt>
      <trkpt lat="39.608368" lon="-7.214303">
        <ele>430.6</ele>
        <time>1970-01-01T00:00:00Z</time>
      </trkpt>
      <trkpt lat="39.608299" lon="-7.213942">
        <ele>428.0</ele>
        <time>1970-01-01T00:00:00Z</time>
      </trkpt>
      <trkpt lat="39.608236" lon="-7.213428">
        <ele>422.8</ele>
        <time>1970-01-01T00:00:00Z</time>
      </trkpt>
      <trkpt lat="39.608172" lon="-7.213291">
        <ele>422.6</ele>
        <time>1970-01-01T00:00:00Z</time>
      </trkpt>
      <trkpt lat="39.608093" lon="-7.213197">
        <ele>423.2</ele>
        <time>1970-01-01T00:00:00Z</time>
      </trkpt>
      <trkpt lat="39.607808" lon="-7.212983">
        <ele>428.1</ele>
        <time>1970-01-01T00:00:00Z</time>
      </trkpt>
      <trkpt lat="39.607775" lon="-7.212880">
        <ele>428.5</ele>
        <time>1970-01-01T00:00:00Z</time>
      </trkpt>
      <trkpt lat="39.607672" lon="-7.212782">
        <ele>431.4</ele>
        <time>1970-01-01T00:00:00Z</time>
      </trkpt>
      <trkpt lat="39.607491" lon="-7.212682">
        <ele>437.1</ele>
        <time>1970-01-01T00:00:00Z</time>
      </trkpt>
      <trkpt lat="39.607389" lon="-7.212593">
        <ele>441.2</ele>
        <time>1970-01-01T00:00:00Z</time>
      </trkpt>
      <trkpt lat="39.607353" lon="-7.212531">
        <ele>442.5</ele>
        <time>1970-01-01T00:00:00Z</time>
      </trkpt>
      <trkpt lat="39.607387" lon="-7.212445">
        <ele>440.9</ele>
        <time>1970-01-01T00:00:00Z</time>
      </trkpt>
      <trkpt lat="39.607706" lon="-7.211261">
        <ele>436.8</ele>
        <time>1970-01-01T00:00:00Z</time>
      </trkpt>
      <trkpt lat="39.608192" lon="-7.210593">
        <ele>429.7</ele>
        <time>1970-01-01T00:00:00Z</time>
      </trkpt>
      <trkpt lat="39.608450" lon="-7.210412">
        <ele>422.8</ele>
        <time>1970-01-01T00:00:00Z</time>
      </trkpt>
      <trkpt lat="39.608551" lon="-7.210302">
        <ele>420.7</ele>
        <time>1970-01-01T00:00:00Z</time>
      </trkpt>
      <trkpt lat="39.608670" lon="-7.209861">
        <ele>419.1</ele>
        <time>1970-01-01T00:00:00Z</time>
      </trkpt>
      <trkpt lat="39.608659" lon="-7.209752">
        <ele>419.4</ele>
        <time>1970-01-01T00:00:00Z</time>
      </trkpt>
      <trkpt lat="39.608621" lon="-7.209685">
        <ele>420.4</ele>
        <time>1970-01-01T00:00:00Z</time>
      </trkpt>
      <trkpt lat="39.608511" lon="-7.209620">
        <ele>423.2</ele>
        <time>1970-01-01T00:00:00Z</time>
      </trkpt>
      <trkpt lat="39.608473" lon="-7.209570">
        <ele>424.2</ele>
        <time>1970-01-01T00:00:00Z</time>
      </trkpt>
      <trkpt lat="39.608472" lon="-7.209452">
        <ele>424.3</ele>
        <time>1970-01-01T00:00:00Z</time>
      </trkpt>
      <trkpt lat="39.608423" lon="-7.209003">
        <ele>424.5</ele>
        <time>1970-01-01T00:00:00Z</time>
      </trkpt>
      <trkpt lat="39.608332" lon="-7.208458">
        <ele>425.5</ele>
        <time>1970-01-01T00:00:00Z</time>
      </trkpt>
      <trkpt lat="39.608328" lon="-7.208312">
        <ele>424.5</ele>
        <time>1970-01-01T00:00:00Z</time>
      </trkpt>
      <trkpt lat="39.608359" lon="-7.208206">
        <ele>423.4</ele>
        <time>1970-01-01T00:00:00Z</time>
      </trkpt>
      <trkpt lat="39.608400" lon="-7.207636">
        <ele>418.4</ele>
        <time>1970-01-01T00:00:00Z</time>
      </trkpt>
      <trkpt lat="39.608404" lon="-7.207476">
        <ele>417.0</ele>
        <time>1970-01-01T00:00:00Z</time>
      </trkpt>
      <trkpt lat="39.608376" lon="-7.207297">
        <ele>416.0</ele>
        <time>1970-01-01T00:00:00Z</time>
      </trkpt>
      <trkpt lat="39.608404" lon="-7.206742">
        <ele>407.7</ele>
        <time>1970-01-01T00:00:00Z</time>
      </trkpt>
      <trkpt lat="39.608314" lon="-7.206431">
        <ele>406.6</ele>
        <time>1970-01-01T00:00:00Z</time>
      </trkpt>
      <trkpt lat="39.608111" lon="-7.206093">
        <ele>409.4</ele>
        <time>1970-01-01T00:00:00Z</time>
      </trkpt>
      <trkpt lat="39.607856" lon="-7.205622">
        <ele>409.3</ele>
        <time>1970-01-01T00:00:00Z</time>
      </trkpt>
      <trkpt lat="39.607620" lon="-7.205233">
        <ele>405.9</ele>
        <time>1970-01-01T00:00:00Z</time>
      </trkpt>
      <trkpt lat="39.607435" lon="-7.204970">
        <ele>402.9</ele>
        <time>1970-01-01T00:00:00Z</time>
      </trkpt>
      <trkpt lat="39.607287" lon="-7.204685">
        <ele>400.1</ele>
        <time>1970-01-01T00:00:00Z</time>
      </trkpt>
      <trkpt lat="39.607038" lon="-7.204131">
        <ele>394.8</ele>
        <time>1970-01-01T00:00:00Z</time>
      </trkpt>
      <trkpt lat="39.606955" lon="-7.204015">
        <ele>393.8</ele>
        <time>1970-01-01T00:00:00Z</time>
      </trkpt>
      <trkpt lat="39.606845" lon="-7.203799">
        <ele>391.0</ele>
        <time>1970-01-01T00:00:00Z</time>
      </trkpt>
      <trkpt lat="39.606593" lon="-7.203525">
        <ele>387.4</ele>
        <time>1970-01-01T00:00:00Z</time>
      </trkpt>
      <trkpt lat="39.606058" lon="-7.203147">
        <ele>382.1</ele>
        <time>1970-01-01T00:00:00Z</time>
      </trkpt>
      <trkpt lat="39.605958" lon="-7.203107">
        <ele>382.0</ele>
        <time>1970-01-01T00:00:00Z</time>
      </trkpt>
      <trkpt lat="39.605954" lon="-7.202971">
        <ele>379.2</ele>
        <time>1970-01-01T00:00:00Z</time>
      </trkpt>
      <trkpt lat="39.606009" lon="-7.202595">
        <ele>372.8</ele>
        <time>1970-01-01T00:00:00Z</time>
      </trkpt>
      <trkpt lat="39.606054" lon="-7.202464">
        <ele>370.8</ele>
        <time>1970-01-01T00:00:00Z</time>
      </trkpt>
      <trkpt lat="39.606111" lon="-7.202372">
        <ele>369.2</ele>
        <time>1970-01-01T00:00:00Z</time>
      </trkpt>
      <trkpt lat="39.606390" lon="-7.202021">
        <ele>363.4</ele>
        <time>1970-01-01T00:00:00Z</time>
      </trkpt>
      <trkpt lat="39.606623" lon="-7.201661">
        <ele>358.3</ele>
        <time>1970-01-01T00:00:00Z</time>
      </trkpt>
      <trkpt lat="39.606639" lon="-7.201593">
        <ele>357.6</ele>
        <time>1970-01-01T00:00:00Z</time>
      </trkpt>
      <trkpt lat="39.606615" lon="-7.201461">
        <ele>356.6</ele>
        <time>1970-01-01T00:00:00Z</time>
      </trkpt>
      <trkpt lat="39.606555" lon="-7.201371">
        <ele>356.1</ele>
        <time>1970-01-01T00:00:00Z</time>
      </trkpt>
      <trkpt lat="39.606500" lon="-7.201304">
        <ele>355.6</ele>
        <time>1970-01-01T00:00:00Z</time>
      </trkpt>
      <trkpt lat="39.606336" lon="-7.201151">
        <ele>354.2</ele>
        <time>1970-01-01T00:00:00Z</time>
      </trkpt>
      <trkpt lat="39.606309" lon="-7.201058">
        <ele>353.2</ele>
        <time>1970-01-01T00:00:00Z</time>
      </trkpt>
      <trkpt lat="39.606305" lon="-7.200966">
        <ele>352.1</ele>
        <time>1970-01-01T00:00:00Z</time>
      </trkpt>
      <trkpt lat="39.606328" lon="-7.200854">
        <ele>350.8</ele>
        <time>1970-01-01T00:00:00Z</time>
      </trkpt>
      <trkpt lat="39.606314" lon="-7.200755">
        <ele>350.0</ele>
        <time>1970-01-01T00:00:00Z</time>
      </trkpt>
      <trkpt lat="39.606157" lon="-7.200615">
        <ele>350.2</ele>
        <time>1970-01-01T00:00:00Z</time>
      </trkpt>
      <trkpt lat="39.606084" lon="-7.200579">
        <ele>350.4</ele>
        <time>1970-01-01T00:00:00Z</time>
      </trkpt>
      <trkpt lat="39.605962" lon="-7.200391">
        <ele>350.0</ele>
        <time>1970-01-01T00:00:00Z</time>
      </trkpt>
      <trkpt lat="39.605941" lon="-7.200316">
        <ele>349.6</ele>
        <time>1970-01-01T00:00:00Z</time>
      </trkpt>
      <trkpt lat="39.605949" lon="-7.200220">
        <ele>348.8</ele>
        <time>1970-01-01T00:00:00Z</time>
      </trkpt>
      <trkpt lat="39.606131" lon="-7.199872">
        <ele>345.0</ele>
        <time>1970-01-01T00:00:00Z</time>
      </trkpt>
      <trkpt lat="39.606196" lon="-7.199701">
        <ele>342.9</ele>
        <time>1970-01-01T00:00:00Z</time>
      </trkpt>
      <trkpt lat="39.606237" lon="-7.199511">
        <ele>340.9</ele>
        <time>1970-01-01T00:00:00Z</time>
      </trkpt>
      <trkpt lat="39.606247" lon="-7.199344">
        <ele>339.4</ele>
        <time>1970-01-01T00:00:00Z</time>
      </trkpt>
      <trkpt lat="39.606234" lon="-7.199183">
        <ele>338.8</ele>
        <time>1970-01-01T00:00:00Z</time>
      </trkpt>
      <trkpt lat="39.606190" lon="-7.199023">
        <ele>338.7</ele>
        <time>1970-01-01T00:00:00Z</time>
      </trkpt>
      <trkpt lat="39.605918" lon="-7.198646">
        <ele>339.0</ele>
        <time>1970-01-01T00:00:00Z</time>
      </trkpt>
      <trkpt lat="39.605785" lon="-7.198591">
        <ele>339.4</ele>
        <time>1970-01-01T00:00:00Z</time>
      </trkpt>
      <trkpt lat="39.605660" lon="-7.198561">
        <ele>339.8</ele>
        <time>1970-01-01T00:00:00Z</time>
      </trkpt>
      <trkpt lat="39.605617" lon="-7.198481">
        <ele>339.5</ele>
        <time>1970-01-01T00:00:00Z</time>
      </trkpt>
      <trkpt lat="39.604507" lon="-7.197807">
        <ele>340.4</ele>
        <time>1970-01-01T00:00:00Z</time>
      </trkpt>
      <trkpt lat="39.604296" lon="-7.197639">
        <ele>341.0</ele>
        <time>1970-01-01T00:00:00Z</time>
      </trkpt>
      <trkpt lat="39.604032" lon="-7.197458">
        <ele>342.1</ele>
        <time>1970-01-01T00:00:00Z</time>
      </trkpt>
      <trkpt lat="39.603959" lon="-7.197416">
        <ele>342.4</ele>
        <time>1970-01-01T00:00:00Z</time>
      </trkpt>
      <trkpt lat="39.603791" lon="-7.197384">
        <ele>343.1</ele>
        <time>1970-01-01T00:00:00Z</time>
      </trkpt>
      <trkpt lat="39.603659" lon="-7.197381">
        <ele>343.5</ele>
        <time>1970-01-01T00:00:00Z</time>
      </trkpt>
      <trkpt lat="39.603428" lon="-7.197276">
        <ele>343.9</ele>
        <time>1970-01-01T00:00:00Z</time>
      </trkpt>
      <trkpt lat="39.603227" lon="-7.197150">
        <ele>344.3</ele>
        <time>1970-01-01T00:00:00Z</time>
      </trkpt>
      <trkpt lat="39.603157" lon="-7.197141">
        <ele>344.5</ele>
        <time>1970-01-01T00:00:00Z</time>
      </trkpt>
      <trkpt lat="39.603126" lon="-7.196881">
        <ele>343.1</ele>
        <time>1970-01-01T00:00:00Z</time>
      </trkpt>
      <trkpt lat="39.603127" lon="-7.196548">
        <ele>342.0</ele>
        <time>1970-01-01T00:00:00Z</time>
      </trkpt>
      <trkpt lat="39.603100" lon="-7.196300">
        <ele>342.0</ele>
        <time>1970-01-01T00:00:00Z</time>
      </trkpt>
      <trkpt lat="39.603096" lon="-7.196127">
        <ele>341.3</ele>
        <time>1970-01-01T00:00:00Z</time>
      </trkpt>
      <trkpt lat="39.603103" lon="-7.195842">
        <ele>340.1</ele>
        <time>1970-01-01T00:00:00Z</time>
      </trkpt>
      <trkpt lat="39.603090" lon="-7.194727">
        <ele>334.4</ele>
        <time>1970-01-01T00:00:00Z</time>
      </trkpt>
      <trkpt lat="39.603096" lon="-7.194513">
        <ele>333.4</ele>
        <time>1970-01-01T00:00:00Z</time>
      </trkpt>
      <trkpt lat="39.603128" lon="-7.194155">
        <ele>331.0</ele>
        <time>1970-01-01T00:00:00Z</time>
      </trkpt>
      <trkpt lat="39.603049" lon="-7.193598">
        <ele>330.4</ele>
        <time>1970-01-01T00:00:00Z</time>
      </trkpt>
      <trkpt lat="39.602963" lon="-7.193120">
        <ele>330.0</ele>
        <time>1970-01-01T00:00:00Z</time>
      </trkpt>
      <trkpt lat="39.602754" lon="-7.192090">
        <ele>325.8</ele>
        <time>1970-01-01T00:00:00Z</time>
      </trkpt>
      <trkpt lat="39.602676" lon="-7.191792">
        <ele>325.5</ele>
        <time>1970-01-01T00:00:00Z</time>
      </trkpt>
      <trkpt lat="39.602480" lon="-7.191600">
        <ele>324.5</ele>
        <time>1970-01-01T00:00:00Z</time>
      </trkpt>
      <trkpt lat="39.602275" lon="-7.191218">
        <ele>323.3</ele>
        <time>1970-01-01T00:00:00Z</time>
      </trkpt>
      <trkpt lat="39.602111" lon="-7.190811">
        <ele>321.9</ele>
        <time>1970-01-01T00:00:00Z</time>
      </trkpt>
      <trkpt lat="39.602012" lon="-7.190488">
        <ele>321.2</ele>
        <time>1970-01-01T00:00:00Z</time>
      </trkpt>
      <trkpt lat="39.601794" lon="-7.188961">
        <ele>312.4</ele>
        <time>1970-01-01T00:00:00Z</time>
      </trkpt>
      <trkpt lat="39.601637" lon="-7.188461">
        <ele>312.8</ele>
        <time>1970-01-01T00:00:00Z</time>
      </trkpt>
      <trkpt lat="39.601138" lon="-7.187130">
        <ele>316.0</ele>
        <time>1970-01-01T00:00:00Z</time>
      </trkpt>
      <trkpt lat="39.600191" lon="-7.184535">
        <ele>318.4</ele>
        <time>1970-01-01T00:00:00Z</time>
      </trkpt>
      <trkpt lat="39.600104" lon="-7.184040">
        <ele>320.9</ele>
        <time>1970-01-01T00:00:00Z</time>
      </trkpt>
      <trkpt lat="39.600082" lon="-7.183745">
        <ele>322.4</ele>
        <time>1970-01-01T00:00:00Z</time>
      </trkpt>
      <trkpt lat="39.600059" lon="-7.182965">
        <ele>325.3</ele>
        <time>1970-01-01T00:00:00Z</time>
      </trkpt>
      <trkpt lat="39.600010" lon="-7.182674">
        <ele>326.0</ele>
        <time>1970-01-01T00:00:00Z</time>
      </trkpt>
      <trkpt lat="39.599921" lon="-7.182284">
        <ele>326.2</ele>
        <time>1970-01-01T00:00:00Z</time>
      </trkpt>
      <trkpt lat="39.599267" lon="-7.180591">
        <ele>324.4</ele>
        <time>1970-01-01T00:00:00Z</time>
      </trkpt>
      <trkpt lat="39.599122" lon="-7.180171">
        <ele>322.7</ele>
        <time>1970-01-01T00:00:00Z</time>
      </trkpt>
      <trkpt lat="39.598988" lon="-7.179717">
        <ele>321.6</ele>
        <time>1970-01-01T00:00:00Z</time>
      </trkpt>
      <trkpt lat="39.598245" lon="-7.176799">
        <ele>313.0</ele>
        <time>1970-01-01T00:00:00Z</time>
      </trkpt>
      <trkpt lat="39.598178" lon="-7.176583">
        <ele>312.7</ele>
        <time>1970-01-01T00:00:00Z</time>
      </trkpt>
      <trkpt lat="39.597994" lon="-7.176621">
        <ele>312.2</ele>
        <time>1970-01-01T00:00:00Z</time>
      </trkpt>
      <trkpt lat="39.597929" lon="-7.176617">
        <ele>312.4</ele>
        <time>1970-01-01T00:00:00Z</time>
      </trkpt>
      <trkpt lat="39.597784" lon="-7.176475">
        <ele>313.1</ele>
        <time>1970-01-01T00:00:00Z</time>
      </trkpt>
      <trkpt lat="39.597658" lon="-7.176384">
        <ele>313.6</ele>
        <time>1970-01-01T00:00:00Z</time>
      </trkpt>
      <trkpt lat="39.597357" lon="-7.176317">
        <ele>314.6</ele>
        <time>1970-01-01T00:00:00Z</time>
      </trkpt>
      <trkpt lat="39.597112" lon="-7.176332">
        <ele>315.0</ele>
        <time>1970-01-01T00:00:00Z</time>
      </trkpt>
      <trkpt lat="39.597020" lon="-7.176314">
        <ele>315.3</ele>
        <time>1970-01-01T00:00:00Z</time>
      </trkpt>
      <trkpt lat="39.596916" lon="-7.176184">
        <ele>315.1</ele>
        <time>1970-01-01T00:00:00Z</time>
      </trkpt>
      <trkpt lat="39.596752" lon="-7.176066">
        <ele>315.3</ele>
        <time>1970-01-01T00:00:00Z</time>
      </trkpt>
      <trkpt lat="39.596664" lon="-7.176021">
        <ele>315.4</ele>
        <time>1970-01-01T00:00:00Z</time>
      </trkpt>
      <trkpt lat="39.596577" lon="-7.175999">
        <ele>315.6</ele>
        <time>1970-01-01T00:00:00Z</time>
      </trkpt>
      <trkpt lat="39.596313" lon="-7.175828">
        <ele>316.2</ele>
        <time>1970-01-01T00:00:00Z</time>
      </trkpt>
      <trkpt lat="39.596207" lon="-7.175784">
        <ele>316.8</ele>
        <time>1970-01-01T00:00:00Z</time>
      </trkpt>
      <trkpt lat="39.596043" lon="-7.175750">
        <ele>318.1</ele>
        <time>1970-01-01T00:00:00Z</time>
      </trkpt>
      <trkpt lat="39.595873" lon="-7.175661">
        <ele>319.5</ele>
        <time>1970-01-01T00:00:00Z</time>
      </trkpt>
      <trkpt lat="39.595748" lon="-7.175616">
        <ele>320.4</ele>
        <time>1970-01-01T00:00:00Z</time>
      </trkpt>
      <trkpt lat="39.595600" lon="-7.175664">
        <ele>321.4</ele>
        <time>1970-01-01T00:00:00Z</time>
      </trkpt>
      <trkpt lat="39.595368" lon="-7.175808">
        <ele>322.5</ele>
        <time>1970-01-01T00:00:00Z</time>
      </trkpt>
      <trkpt lat="39.595242" lon="-7.175859">
        <ele>323.0</ele>
        <time>1970-01-01T00:00:00Z</time>
      </trkpt>
      <trkpt lat="39.595112" lon="-7.175881">
        <ele>323.6</ele>
        <time>1970-01-01T00:00:00Z</time>
      </trkpt>
      <trkpt lat="39.594926" lon="-7.175843">
        <ele>324.0</ele>
        <time>1970-01-01T00:00:00Z</time>
      </trkpt>
      <trkpt lat="39.594530" lon="-7.175688">
        <ele>324.0</ele>
        <time>1970-01-01T00:00:00Z</time>
      </trkpt>
      <trkpt lat="39.594381" lon="-7.175699">
        <ele>324.0</ele>
        <time>1970-01-01T00:00:00Z</time>
      </trkpt>
      <trkpt lat="39.594116" lon="-7.175755">
        <ele>324.0</ele>
        <time>1970-01-01T00:00:00Z</time>
      </trkpt>
      <trkpt lat="39.593902" lon="-7.175764">
        <ele>324.0</ele>
        <time>1970-01-01T00:00:00Z</time>
      </trkpt>
      <trkpt lat="39.593738" lon="-7.175712">
        <ele>324.1</ele>
        <time>1970-01-01T00:00:00Z</time>
      </trkpt>
      <trkpt lat="39.593627" lon="-7.175713">
        <ele>324.1</ele>
        <time>1970-01-01T00:00:00Z</time>
      </trkpt>
      <trkpt lat="39.593420" lon="-7.175796">
        <ele>324.5</ele>
        <time>1970-01-01T00:00:00Z</time>
      </trkpt>
      <trkpt lat="39.593243" lon="-7.175904">
        <ele>324.9</ele>
        <time>1970-01-01T00:00:00Z</time>
      </trkpt>
      <trkpt lat="39.593024" lon="-7.175844">
        <ele>324.7</ele>
        <time>1970-01-01T00:00:00Z</time>
      </trkpt>
      <trkpt lat="39.592925" lon="-7.175794">
        <ele>324.4</ele>
        <time>1970-01-01T00:00:00Z</time>
      </trkpt>
      <trkpt lat="39.592830" lon="-7.175724">
        <ele>324.1</ele>
        <time>1970-01-01T00:00:00Z</time>
      </trkpt>
      <trkpt lat="39.592710" lon="-7.175675">
        <ele>324.0</ele>
        <time>1970-01-01T00:00:00Z</time>
      </trkpt>
      <trkpt lat="39.592424" lon="-7.175609">
        <ele>324.0</ele>
        <time>1970-01-01T00:00:00Z</time>
      </trkpt>
      <trkpt lat="39.592200" lon="-7.175578">
        <ele>324.1</ele>
        <time>1970-01-01T00:00:00Z</time>
      </trkpt>
      <trkpt lat="39.592086" lon="-7.175581">
        <ele>324.4</ele>
        <time>1970-01-01T00:00:00Z</time>
      </trkpt>
      <trkpt lat="39.592026" lon="-7.175493">
        <ele>324.2</ele>
        <time>1970-01-01T00:00:00Z</time>
      </trkpt>
      <trkpt lat="39.591935" lon="-7.175276">
        <ele>324.6</ele>
        <time>1970-01-01T00:00:00Z</time>
      </trkpt>
      <trkpt lat="39.591921" lon="-7.175120">
        <ele>324.9</ele>
        <time>1970-01-01T00:00:00Z</time>
      </trkpt>
      <trkpt lat="39.591938" lon="-7.174912">
        <ele>324.8</ele>
        <time>1970-01-01T00:00:00Z</time>
      </trkpt>
      <trkpt lat="39.591937" lon="-7.174695">
        <ele>324.1</ele>
        <time>1970-01-01T00:00:00Z</time>
      </trkpt>
      <trkpt lat="39.591875" lon="-7.174445">
        <ele>324.2</ele>
        <time>1970-01-01T00:00:00Z</time>
      </trkpt>
      <trkpt lat="39.591808" lon="-7.174236">
        <ele>324.5</ele>
        <time>1970-01-01T00:00:00Z</time>
      </trkpt>
      <trkpt lat="39.591780" lon="-7.174180">
        <ele>324.5</ele>
        <time>1970-01-01T00:00:00Z</time>
      </trkpt>
      <trkpt lat="39.591647" lon="-7.173729">
        <ele>324.1</ele>
        <time>1970-01-01T00:00:00Z</time>
      </trkpt>
      <trkpt lat="39.591617" lon="-7.173569">
        <ele>323.6</ele>
        <time>1970-01-01T00:00:00Z</time>
      </trkpt>
      <trkpt lat="39.591557" lon="-7.173482">
        <ele>323.4</ele>
        <time>1970-01-01T00:00:00Z</time>
      </trkpt>
      <trkpt lat="39.591236" lon="-7.173290">
        <ele>325.3</ele>
        <time>1970-01-01T00:00:00Z</time>
      </trkpt>
      <trkpt lat="39.591096" lon="-7.173176">
        <ele>326.1</ele>
        <time>1970-01-01T00:00:00Z</time>
      </trkpt>
      <trkpt lat="39.590969" lon="-7.173094">
        <ele>327.2</ele>
        <time>1970-01-01T00:00:00Z</time>
      </trkpt>
      <trkpt lat="39.590838" lon="-7.173079">
        <ele>328.8</ele>
        <time>1970-01-01T00:00:00Z</time>
      </trkpt>
      <trkpt lat="39.590551" lon="-7.173002">
        <ele>330.1</ele>
        <time>1970-01-01T00:00:00Z</time>
      </trkpt>
      <trkpt lat="39.590326" lon="-7.173006">
        <ele>331.0</ele>
        <time>1970-01-01T00:00:00Z</time>
      </trkpt>
      <trkpt lat="39.590224" lon="-7.172983">
        <ele>331.1</ele>
        <time>1970-01-01T00:00:00Z</time>
      </trkpt>
      <trkpt lat="39.589844" lon="-7.172997">
        <ele>330.0</ele>
        <time>1970-01-01T00:00:00Z</time>
      </trkpt>
      <trkpt lat="39.589755" lon="-7.172982">
        <ele>329.6</ele>
        <time>1970-01-01T00:00:00Z</time>
      </trkpt>
      <trkpt lat="39.589382" lon="-7.172849">
        <ele>326.8</ele>
        <time>1970-01-01T00:00:00Z</time>
      </trkpt>
      <trkpt lat="39.589106" lon="-7.172669">
        <ele>324.4</ele>
        <time>1970-01-01T00:00:00Z</time>
      </trkpt>
      <trkpt lat="39.588964" lon="-7.172597">
        <ele>324.0</ele>
        <time>1970-01-01T00:00:00Z</time>
      </trkpt>
      <trkpt lat="39.588668" lon="-7.172552">
        <ele>324.2</ele>
        <time>1970-01-01T00:00:00Z</time>
      </trkpt>
      <trkpt lat="39.588492" lon="-7.172433">
        <ele>324.4</ele>
        <time>1970-01-01T00:00:00Z</time>
      </trkpt>
      <trkpt lat="39.588335" lon="-7.172238">
        <ele>325.0</ele>
        <time>1970-01-01T00:00:00Z</time>
      </trkpt>
      <trkpt lat="39.588177" lon="-7.172071">
        <ele>325.6</ele>
        <time>1970-01-01T00:00:00Z</time>
      </trkpt>
      <trkpt lat="39.588108" lon="-7.171956">
        <ele>325.7</ele>
        <time>1970-01-01T00:00:00Z</time>
      </trkpt>
      <trkpt lat="39.587992" lon="-7.171705">
        <ele>325.7</ele>
        <time>1970-01-01T00:00:00Z</time>
      </trkpt>
      <trkpt lat="39.587922" lon="-7.171630">
        <ele>326.3</ele>
        <time>1970-01-01T00:00:00Z</time>
      </trkpt>
      <trkpt lat="39.587567" lon="-7.171468">
        <ele>330.3</ele>
        <time>1970-01-01T00:00:00Z</time>
      </trkpt>
      <trkpt lat="39.587444" lon="-7.171350">
        <ele>331.4</ele>
        <time>1970-01-01T00:00:00Z</time>
      </trkpt>
      <trkpt lat="39.587255" lon="-7.171262">
        <ele>333.1</ele>
        <time>1970-01-01T00:00:00Z</time>
      </trkpt>
      <trkpt lat="39.587130" lon="-7.171227">
        <ele>334.1</ele>
        <time>1970-01-01T00:00:00Z</time>
      </trkpt>
      <trkpt lat="39.586978" lon="-7.171201">
        <ele>335.2</ele>
        <time>1970-01-01T00:00:00Z</time>
      </trkpt>
      <trkpt lat="39.586841" lon="-7.171208">
        <ele>336.0</ele>
        <time>1970-01-01T00:00:00Z</time>
      </trkpt>
      <trkpt lat="39.586739" lon="-7.171179">
        <ele>336.3</ele>
        <time>1970-01-01T00:00:00Z</time>
      </trkpt>
      <trkpt lat="39.586441" lon="-7.171046">
        <ele>336.0</ele>
        <time>1970-01-01T00:00:00Z</time>
      </trkpt>
      <trkpt lat="39.585881" lon="-7.170977">
        <ele>337.5</ele>
        <time>1970-01-01T00:00:00Z</time>
      </trkpt>
      <trkpt lat="39.585712" lon="-7.170992">
        <ele>338.1</ele>
        <time>1970-01-01T00:00:00Z</time>
      </trkpt>
      <trkpt lat="39.585335" lon="-7.170898">
        <ele>338.1</ele>
        <time>1970-01-01T00:00:00Z</time>
      </trkpt>
      <trkpt lat="39.585145" lon="-7.170766">
        <ele>338.0</ele>
        <time>1970-01-01T00:00:00Z</time>
      </trkpt>
      <trkpt lat="39.584840" lon="-7.170504">
        <ele>338.0</ele>
        <time>1970-01-01T00:00:00Z</time>
      </trkpt>
      <trkpt lat="39.584232" lon="-7.170031">
        <ele>338.6</ele>
        <time>1970-01-01T00:00:00Z</time>
      </trkpt>
      <trkpt lat="39.583441" lon="-7.169584">
        <ele>337.6</ele>
        <time>1970-01-01T00:00:00Z</time>
      </trkpt>
      <trkpt lat="39.582395" lon="-7.169204">
        <ele>336.0</ele>
        <time>1970-01-01T00:00:00Z</time>
      </trkpt>
      <trkpt lat="39.582235" lon="-7.169098">
        <ele>336.1</ele>
        <time>1970-01-01T00:00:00Z</time>
      </trkpt>
      <trkpt lat="39.582150" lon="-7.169024">
        <ele>336.1</ele>
        <time>1970-01-01T00:00:00Z</time>
      </trkpt>
      <trkpt lat="39.582057" lon="-7.168882">
        <ele>336.0</ele>
        <time>1970-01-01T00:00:00Z</time>
      </trkpt>
      <trkpt lat="39.581769" lon="-7.168784">
        <ele>337.2</ele>
        <time>1970-01-01T00:00:00Z</time>
      </trkpt>
      <trkpt lat="39.581396" lon="-7.168784">
        <ele>338.2</ele>
        <time>1970-01-01T00:00:00Z</time>
      </trkpt>
      <trkpt lat="39.581111" lon="-7.168809">
        <ele>340.4</ele>
        <time>1970-01-01T00:00:00Z</time>
      </trkpt>
      <trkpt lat="39.581018" lon="-7.168761">
        <ele>340.6</ele>
        <time>1970-01-01T00:00:00Z</time>
      </trkpt>
      <trkpt lat="39.580900" lon="-7.168740">
        <ele>341.0</ele>
        <time>1970-01-01T00:00:00Z</time>
      </trkpt>
      <trkpt lat="39.580610" lon="-7.168737">
        <ele>342.2</ele>
        <time>1970-01-01T00:00:00Z</time>
      </trkpt>
      <trkpt lat="39.580496" lon="-7.168688">
        <ele>342.5</ele>
        <time>1970-01-01T00:00:00Z</time>
      </trkpt>
      <trkpt lat="39.580403" lon="-7.168631">
        <ele>342.6</ele>
        <time>1970-01-01T00:00:00Z</time>
      </trkpt>
      <trkpt lat="39.580359" lon="-7.168586">
        <ele>342.6</ele>
        <time>1970-01-01T00:00:00Z</time>
      </trkpt>
      <trkpt lat="39.580153" lon="-7.168478">
        <ele>343.1</ele>
        <time>1970-01-01T00:00:00Z</time>
      </trkpt>
      <trkpt lat="39.579901" lon="-7.168374">
        <ele>344.3</ele>
        <time>1970-01-01T00:00:00Z</time>
      </trkpt>
      <trkpt lat="39.579732" lon="-7.168406">
        <ele>345.1</ele>
        <time>1970-01-01T00:00:00Z</time>
      </trkpt>
      <trkpt lat="39.579431" lon="-7.168400">
        <ele>347.3</ele>
        <time>1970-01-01T00:00:00Z</time>
      </trkpt>
      <trkpt lat="39.579065" lon="-7.168415">
        <ele>348.0</ele>
        <time>1970-01-01T00:00:00Z</time>
      </trkpt>
      <trkpt lat="39.578895" lon="-7.168356">
        <ele>347.6</ele>
        <time>1970-01-01T00:00:00Z</time>
      </trkpt>
      <trkpt lat="39.578701" lon="-7.168233">
        <ele>346.8</ele>
        <time>1970-01-01T00:00:00Z</time>
      </trkpt>
      <trkpt lat="39.578528" lon="-7.168179">
        <ele>346.8</ele>
        <time>1970-01-01T00:00:00Z</time>
      </trkpt>
      <trkpt lat="39.578187" lon="-7.168018">
        <ele>347.6</ele>
        <time>1970-01-01T00:00:00Z</time>
      </trkpt>
      <trkpt lat="39.577822" lon="-7.167868">
        <ele>348.2</ele>
        <time>1970-01-01T00:00:00Z</time>
      </trkpt>
      <trkpt lat="39.577675" lon="-7.167824">
        <ele>348.0</ele>
        <time>1970-01-01T00:00:00Z</time>
      </trkpt>
      <trkpt lat="39.577531" lon="-7.167803">
        <ele>347.4</ele>
        <time>1970-01-01T00:00:00Z</time>
      </trkpt>
      <trkpt lat="39.577453" lon="-7.167809">
        <ele>347.1</ele>
        <time>1970-01-01T00:00:00Z</time>
      </trkpt>
      <trkpt lat="39.577239" lon="-7.167776">
        <ele>346.0</ele>
        <time>1970-01-01T00:00:00Z</time>
      </trkpt>
      <trkpt lat="39.577042" lon="-7.167774">
        <ele>345.2</ele>
        <time>1970-01-01T00:00:00Z</time>
      </trkpt>
      <trkpt lat="39.576957" lon="-7.167752">
        <ele>344.7</ele>
        <time>1970-01-01T00:00:00Z</time>
      </trkpt>
      <trkpt lat="39.576859" lon="-7.167677">
        <ele>344.2</ele>
        <time>1970-01-01T00:00:00Z</time>
      </trkpt>
      <trkpt lat="39.576740" lon="-7.167638">
        <ele>344.0</ele>
        <time>1970-01-01T00:00:00Z</time>
      </trkpt>
      <trkpt lat="39.576679" lon="-7.167600">
        <ele>344.0</ele>
        <time>1970-01-01T00:00:00Z</time>
      </trkpt>
      <trkpt lat="39.576512" lon="-7.167400">
        <ele>343.2</ele>
        <time>1970-01-01T00:00:00Z</time>
      </trkpt>
      <trkpt lat="39.576428" lon="-7.167264">
        <ele>343.4</ele>
        <time>1970-01-01T00:00:00Z</time>
      </trkpt>
      <trkpt lat="39.576263" lon="-7.166481">
        <ele>345.8</ele>
        <time>1970-01-01T00:00:00Z</time>
      </trkpt>
      <trkpt lat="39.576182" lon="-7.166294">
        <ele>346.9</ele>
        <time>1970-01-01T00:00:00Z</time>
      </trkpt>
      <trkpt lat="39.575945" lon="-7.165959">
        <ele>348.8</ele>
        <time>1970-01-01T00:00:00Z</time>
      </trkpt>
      <trkpt lat="39.575536" lon="-7.164927">
        <ele>352.7</ele>
        <time>1970-01-01T00:00:00Z</time>
      </trkpt>
      <trkpt lat="39.575403" lon="-7.164419">
        <ele>351.7</ele>
        <time>1970-01-01T00:00:00Z</time>
      </trkpt>
      <trkpt lat="39.575356" lon="-7.164296">
        <ele>351.7</ele>
        <time>1970-01-01T00:00:00Z</time>
      </trkpt>
      <trkpt lat="39.575068" lon="-7.163717">
        <ele>349.5</ele>
        <time>1970-01-01T00:00:00Z</time>
      </trkpt>
      <trkpt lat="39.574883" lon="-7.163149">
        <ele>349.0</ele>
        <time>1970-01-01T00:00:00Z</time>
      </trkpt>
      <trkpt lat="39.574749" lon="-7.162848">
        <ele>349.6</ele>
        <time>1970-01-01T00:00:00Z</time>
      </trkpt>
      <trkpt lat="39.574365" lon="-7.162387">
        <ele>349.9</ele>
        <time>1970-01-01T00:00:00Z</time>
      </trkpt>
      <trkpt lat="39.574261" lon="-7.162294">
        <ele>349.4</ele>
        <time>1970-01-01T00:00:00Z</time>
      </trkpt>
      <trkpt lat="39.574116" lon="-7.162209">
        <ele>348.5</ele>
        <time>1970-01-01T00:00:00Z</time>
      </trkpt>
      <trkpt lat="39.574047" lon="-7.162212">
        <ele>348.2</ele>
        <time>1970-01-01T00:00:00Z</time>
      </trkpt>
      <trkpt lat="39.573662" lon="-7.161958">
        <ele>345.2</ele>
        <time>1970-01-01T00:00:00Z</time>
      </trkpt>
      <trkpt lat="39.573469" lon="-7.161862">
        <ele>344.0</ele>
        <time>1970-01-01T00:00:00Z</time>
      </trkpt>
      <trkpt lat="39.573316" lon="-7.161710">
        <ele>343.7</ele>
        <time>1970-01-01T00:00:00Z</time>
      </trkpt>
      <trkpt lat="39.572865" lon="-7.161048">
        <ele>341.4</ele>
        <time>1970-01-01T00:00:00Z</time>
      </trkpt>
      <trkpt lat="39.572703" lon="-7.160772">
        <ele>338.8</ele>
        <time>1970-01-01T00:00:00Z</time>
      </trkpt>
      <trkpt lat="39.572645" lon="-7.160636">
        <ele>337.7</ele>
        <time>1970-01-01T00:00:00Z</time>
      </trkpt>
      <trkpt lat="39.572614" lon="-7.160506">
        <ele>336.7</ele>
        <time>1970-01-01T00:00:00Z</time>
      </trkpt>
      <trkpt lat="39.572533" lon="-7.160360">
        <ele>335.8</ele>
        <time>1970-01-01T00:00:00Z</time>
      </trkpt>
      <trkpt lat="39.572263" lon="-7.160036">
        <ele>335.3</ele>
        <time>1970-01-01T00:00:00Z</time>
      </trkpt>
      <trkpt lat="39.571989" lon="-7.159641">
        <ele>335.8</ele>
        <time>1970-01-01T00:00:00Z</time>
      </trkpt>
      <trkpt lat="39.571683" lon="-7.159393">
        <ele>336.8</ele>
        <time>1970-01-01T00:00:00Z</time>
      </trkpt>
      <trkpt lat="39.571569" lon="-7.159404">
        <ele>337.2</ele>
        <time>1970-01-01T00:00:00Z</time>
      </trkpt>
      <trkpt lat="39.571462" lon="-7.159439">
        <ele>337.6</ele>
        <time>1970-01-01T00:00:00Z</time>
      </trkpt>
      <trkpt lat="39.571189" lon="-7.159410">
        <ele>338.6</ele>
        <time>1970-01-01T00:00:00Z</time>
      </trkpt>
      <trkpt lat="39.571072" lon="-7.159379">
        <ele>339.9</ele>
        <time>1970-01-01T00:00:00Z</time>
      </trkpt>
      <trkpt lat="39.570972" lon="-7.159237">
        <ele>340.6</ele>
        <time>1970-01-01T00:00:00Z</time>
      </trkpt>
      <trkpt lat="39.570911" lon="-7.159034">
        <ele>340.4</ele>
        <time>1970-01-01T00:00:00Z</time>
      </trkpt>
      <trkpt lat="39.570580" lon="-7.158105">
        <ele>342.6</ele>
        <time>1970-01-01T00:00:00Z</time>
      </trkpt>
      <trkpt lat="39.570448" lon="-7.157748">
        <ele>341.4</ele>
        <time>1970-01-01T00:00:00Z</time>
      </trkpt>
      <trkpt lat="39.570269" lon="-7.157323">
        <ele>339.1</ele>
        <time>1970-01-01T00:00:00Z</time>
      </trkpt>
      <trkpt lat="39.570240" lon="-7.157181">
        <ele>339.0</ele>
        <time>1970-01-01T00:00:00Z</time>
      </trkpt>
      <trkpt lat="39.570263" lon="-7.157013">
        <ele>338.3</ele>
        <time>1970-01-01T00:00:00Z</time>
      </trkpt>
      <trkpt lat="39.570397" lon="-7.156506">
        <ele>337.1</ele>
        <time>1970-01-01T00:00:00Z</time>
      </trkpt>
      <trkpt lat="39.570431" lon="-7.156294">
        <ele>336.8</ele>
        <time>1970-01-01T00:00:00Z</time>
      </trkpt>
      <trkpt lat="39.570411" lon="-7.156182">
        <ele>336.4</ele>
        <time>1970-01-01T00:00:00Z</time>
      </trkpt>
      <trkpt lat="39.570363" lon="-7.156080">
        <ele>335.4</ele>
        <time>1970-01-01T00:00:00Z</time>
      </trkpt>
      <trkpt lat="39.570325" lon="-7.156031">
        <ele>334.8</ele>
        <time>1970-01-01T00:00:00Z</time>
      </trkpt>
      <trkpt lat="39.570300" lon="-7.155966">
        <ele>334.2</ele>
        <time>1970-01-01T00:00:00Z</time>
      </trkpt>
      <trkpt lat="39.570303" lon="-7.155845">
        <ele>333.7</ele>
        <time>1970-01-01T00:00:00Z</time>
      </trkpt>
      <trkpt lat="39.570344" lon="-7.155596">
        <ele>331.9</ele>
        <time>1970-01-01T00:00:00Z</time>
      </trkpt>
      <trkpt lat="39.570370" lon="-7.155512">
        <ele>331.3</ele>
        <time>1970-01-01T00:00:00Z</time>
      </trkpt>
      <trkpt lat="39.570418" lon="-7.154746">
        <ele>332.5</ele>
        <time>1970-01-01T00:00:00Z</time>
      </trkpt>
      <trkpt lat="39.570334" lon="-7.154443">
        <ele>333.8</ele>
        <time>1970-01-01T00:00:00Z</time>
      </trkpt>
      <trkpt lat="39.570120" lon="-7.154016">
        <ele>334.8</ele>
        <time>1970-01-01T00:00:00Z</time>
      </trkpt>
      <trkpt lat="39.570039" lon="-7.153893">
        <ele>335.3</ele>
        <time>1970-01-01T00:00:00Z</time>
      </trkpt>
      <trkpt lat="39.569958" lon="-7.153822">
        <ele>336.1</ele>
        <time>1970-01-01T00:00:00Z</time>
      </trkpt>
      <trkpt lat="39.569697" lon="-7.153444">
        <ele>338.5</ele>
        <time>1970-01-01T00:00:00Z</time>
      </trkpt>
      <trkpt lat="39.569560" lon="-7.153325">
        <ele>339.6</ele>
        <time>1970-01-01T00:00:00Z</time>
      </trkpt>
      <trkpt lat="39.569437" lon="-7.153187">
        <ele>340.9</ele>
        <time>1970-01-01T00:00:00Z</time>
      </trkpt>
      <trkpt lat="39.569287" lon="-7.153006">
        <ele>343.1</ele>
        <time>1970-01-01T00:00:00Z</time>
      </trkpt>
      <trkpt lat="39.569197" lon="-7.152863">
        <ele>344.1</ele>
        <time>1970-01-01T00:00:00Z</time>
      </trkpt>
      <trkpt lat="39.568901" lon="-7.152658">
        <ele>344.2</ele>
        <time>1970-01-01T00:00:00Z</time>
      </trkpt>
      <trkpt lat="39.568822" lon="-7.152525">
        <ele>344.1</ele>
        <time>1970-01-01T00:00:00Z</time>
      </trkpt>
      <trkpt lat="39.568788" lon="-7.152360">
        <ele>345.3</ele>
        <time>1970-01-01T00:00:00Z</time>
      </trkpt>
      <trkpt lat="39.568746" lon="-7.151843">
        <ele>348.0</ele>
        <time>1970-01-01T00:00:00Z</time>
      </trkpt>
      <trkpt lat="39.568698" lon="-7.151481">
        <ele>347.9</ele>
        <time>1970-01-01T00:00:00Z</time>
      </trkpt>
      <trkpt lat="39.568644" lon="-7.151263">
        <ele>345.6</ele>
        <time>1970-01-01T00:00:00Z</time>
      </trkpt>
      <trkpt lat="39.568571" lon="-7.151069">
        <ele>343.1</ele>
        <time>1970-01-01T00:00:00Z</time>
      </trkpt>
      <trkpt lat="39.568259" lon="-7.150743">
        <ele>339.6</ele>
        <time>1970-01-01T00:00:00Z</time>
      </trkpt>
      <trkpt lat="39.568193" lon="-7.150655">
        <ele>338.8</ele>
        <time>1970-01-01T00:00:00Z</time>
      </trkpt>
      <trkpt lat="39.568103" lon="-7.150465">
        <ele>337.1</ele>
        <time>1970-01-01T00:00:00Z</time>
      </trkpt>
      <trkpt lat="39.568002" lon="-7.150301">
        <ele>336.5</ele>
        <time>1970-01-01T00:00:00Z</time>
      </trkpt>
      <trkpt lat="39.567820" lon="-7.150155">
        <ele>335.7</ele>
        <time>1970-01-01T00:00:00Z</time>
      </trkpt>
      <trkpt lat="39.567754" lon="-7.150047">
        <ele>335.2</ele>
        <time>1970-01-01T00:00:00Z</time>
      </trkpt>
      <trkpt lat="39.567674" lon="-7.149715">
        <ele>335.0</ele>
        <time>1970-01-01T00:00:00Z</time>
      </trkpt>
      <trkpt lat="39.567639" lon="-7.149483">
        <ele>334.6</ele>
        <time>1970-01-01T00:00:00Z</time>
      </trkpt>
      <trkpt lat="39.567464" lon="-7.149145">
        <ele>336.0</ele>
        <time>1970-01-01T00:00:00Z</time>
      </trkpt>
      <trkpt lat="39.567329" lon="-7.149014">
        <ele>336.6</ele>
        <time>1970-01-01T00:00:00Z</time>
      </trkpt>
      <trkpt lat="39.567170" lon="-7.148901">
        <ele>337.6</ele>
        <time>1970-01-01T00:00:00Z</time>
      </trkpt>
      <trkpt lat="39.566977" lon="-7.148732">
        <ele>339.8</ele>
        <time>1970-01-01T00:00:00Z</time>
      </trkpt>
      <trkpt lat="39.566476" lon="-7.148367">
        <ele>344.3</ele>
        <time>1970-01-01T00:00:00Z</time>
      </trkpt>
      <trkpt lat="39.566352" lon="-7.148300">
        <ele>344.8</ele>
        <time>1970-01-01T00:00:00Z</time>
      </trkpt>
      <trkpt lat="39.566275" lon="-7.148232">
        <ele>345.1</ele>
        <time>1970-01-01T00:00:00Z</time>
      </trkpt>
      <trkpt lat="39.566126" lon="-7.147974">
        <ele>346.4</ele>
        <time>1970-01-01T00:00:00Z</time>
      </trkpt>
      <trkpt lat="39.566085" lon="-7.147841">
        <ele>347.0</ele>
        <time>1970-01-01T00:00:00Z</time>
      </trkpt>
      <trkpt lat="39.565949" lon="-7.147148">
        <ele>346.6</ele>
        <time>1970-01-01T00:00:00Z</time>
      </trkpt>
      <trkpt lat="39.565586" lon="-7.146811">
        <ele>350.0</ele>
        <time>1970-01-01T00:00:00Z</time>
      </trkpt>
      <trkpt lat="39.565369" lon="-7.146591">
        <ele>353.5</ele>
        <time>1970-01-01T00:00:00Z</time>
      </trkpt>
      <trkpt lat="39.565100" lon="-7.146529">
        <ele>354.9</ele>
        <time>1970-01-01T00:00:00Z</time>
      </trkpt>
      <trkpt lat="39.564647" lon="-7.146366">
        <ele>356.7</ele>
        <time>1970-01-01T00:00:00Z</time>
      </trkpt>
      <trkpt lat="39.564244" lon="-7.146118">
        <ele>357.0</ele>
        <time>1970-01-01T00:00:00Z</time>
      </trkpt>
      <trkpt lat="39.564103" lon="-7.145962">
        <ele>357.2</ele>
        <time>1970-01-01T00:00:00Z</time>
      </trkpt>
      <trkpt lat="39.564008" lon="-7.145890">
        <ele>357.0</ele>
        <time>1970-01-01T00:00:00Z</time>
      </trkpt>
      <trkpt lat="39.563953" lon="-7.145825">
        <ele>357.2</ele>
        <time>1970-01-01T00:00:00Z</time>
      </trkpt>
      <trkpt lat="39.563796" lon="-7.145576">
        <ele>359.0</ele>
        <time>1970-01-01T00:00:00Z</time>
      </trkpt>
      <trkpt lat="39.563692" lon="-7.145506">
        <ele>359.6</ele>
        <time>1970-01-01T00:00:00Z</time>
      </trkpt>
      <trkpt lat="39.563440" lon="-7.145146">
        <ele>360.4</ele>
        <time>1970-01-01T00:00:00Z</time>
      </trkpt>
      <trkpt lat="39.563223" lon="-7.144931">
        <ele>361.0</ele>
        <time>1970-01-01T00:00:00Z</time>
      </trkpt>
      <trkpt lat="39.562953" lon="-7.144566">
        <ele>360.7</ele>
        <time>1970-01-01T00:00:00Z</time>
      </trkpt>
      <trkpt lat="39.562772" lon="-7.143991">
        <ele>360.4</ele>
        <time>1970-01-01T00:00:00Z</time>
      </trkpt>
      <trkpt lat="39.562374" lon="-7.143278">
        <ele>363.0</ele>
        <time>1970-01-01T00:00:00Z</time>
      </trkpt>
      <trkpt lat="39.562322" lon="-7.143090">
        <ele>363.3</ele>
        <time>1970-01-01T00:00:00Z</time>
      </trkpt>
      <trkpt lat="39.562247" lon="-7.142896">
        <ele>363.2</ele>
        <time>1970-01-01T00:00:00Z</time>
      </trkpt>
      <trkpt lat="39.562150" lon="-7.142732">
        <ele>363.0</ele>
        <time>1970-01-01T00:00:00Z</time>
      </trkpt>
      <trkpt lat="39.561839" lon="-7.141970">
        <ele>360.6</ele>
        <time>1970-01-01T00:00:00Z</time>
      </trkpt>
      <trkpt lat="39.561655" lon="-7.141693">
        <ele>361.1</ele>
        <time>1970-01-01T00:00:00Z</time>
      </trkpt>
      <trkpt lat="39.561574" lon="-7.141607">
        <ele>361.4</ele>
        <time>1970-01-01T00:00:00Z</time>
      </trkpt>
      <trkpt lat="39.561481" lon="-7.141436">
        <ele>361.0</ele>
        <time>1970-01-01T00:00:00Z</time>
      </trkpt>
      <trkpt lat="39.561248" lon="-7.140849">
        <ele>357.4</ele>
        <time>1970-01-01T00:00:00Z</time>
      </trkpt>
      <trkpt lat="39.561201" lon="-7.140671">
        <ele>356.7</ele>
        <time>1970-01-01T00:00:00Z</time>
      </trkpt>
      <trkpt lat="39.561152" lon="-7.140555">
        <ele>356.2</ele>
        <time>1970-01-01T00:00:00Z</time>
      </trkpt>
      <trkpt lat="39.561009" lon="-7.140416">
        <ele>355.6</ele>
        <time>1970-01-01T00:00:00Z</time>
      </trkpt>
      <trkpt lat="39.560930" lon="-7.140273">
        <ele>354.8</ele>
        <time>1970-01-01T00:00:00Z</time>
      </trkpt>
      <trkpt lat="39.560808" lon="-7.139992">
        <ele>354.0</ele>
        <time>1970-01-01T00:00:00Z</time>
      </trkpt>
      <trkpt lat="39.560603" lon="-7.139867">
        <ele>354.0</ele>
        <time>1970-01-01T00:00:00Z</time>
      </trkpt>
      <trkpt lat="39.560503" lon="-7.139733">
        <ele>354.0</ele>
        <time>1970-01-01T00:00:00Z</time>
      </trkpt>
      <trkpt lat="39.560453" lon="-7.139567">
        <ele>354.4</ele>
        <time>1970-01-01T00:00:00Z</time>
      </trkpt>
      <trkpt lat="39.560435" lon="-7.139458">
        <ele>355.2</ele>
        <time>1970-01-01T00:00:00Z</time>
      </trkpt>
      <trkpt lat="39.560335" lon="-7.139294">
        <ele>356.4</ele>
        <time>1970-01-01T00:00:00Z</time>
      </trkpt>
      <trkpt lat="39.560110" lon="-7.139003">
        <ele>358.5</ele>
        <time>1970-01-01T00:00:00Z</time>
      </trkpt>
      <trkpt lat="39.560000" lon="-7.138917">
        <ele>358.2</ele>
        <time>1970-01-01T00:00:00Z</time>
      </trkpt>
      <trkpt lat="39.559536" lon="-7.138715">
        <ele>358.0</ele>
        <time>1970-01-01T00:00:00Z</time>
      </trkpt>
      <trkpt lat="39.559307" lon="-7.138581">
        <ele>357.9</ele>
        <time>1970-01-01T00:00:00Z</time>
      </trkpt>
      <trkpt lat="39.559018" lon="-7.138435">
        <ele>356.5</ele>
        <time>1970-01-01T00:00:00Z</time>
      </trkpt>
      <trkpt lat="39.558918" lon="-7.138360">
        <ele>356.0</ele>
        <time>1970-01-01T00:00:00Z</time>
      </trkpt>
      <trkpt lat="39.558714" lon="-7.137994">
        <ele>355.0</ele>
        <time>1970-01-01T00:00:00Z</time>
      </trkpt>
      <trkpt lat="39.558551" lon="-7.137760">
        <ele>355.0</ele>
        <time>1970-01-01T00:00:00Z</time>
      </trkpt>
      <trkpt lat="39.558446" lon="-7.137692">
        <ele>355.0</ele>
        <time>1970-01-01T00:00:00Z</time>
      </trkpt>
      <trkpt lat="39.558374" lon="-7.137592">
        <ele>355.3</ele>
        <time>1970-01-01T00:00:00Z</time>
      </trkpt>
      <trkpt lat="39.558298" lon="-7.137516">
        <ele>355.6</ele>
        <time>1970-01-01T00:00:00Z</time>
      </trkpt>
      <trkpt lat="39.558204" lon="-7.137488">
        <ele>356.1</ele>
        <time>1970-01-01T00:00:00Z</time>
      </trkpt>
      <trkpt lat="39.558126" lon="-7.137439">
        <ele>357.0</ele>
        <time>1970-01-01T00:00:00Z</time>
      </trkpt>
      <trkpt lat="39.557898" lon="-7.137128">
        <ele>359.7</ele>
        <time>1970-01-01T00:00:00Z</time>
      </trkpt>
      <trkpt lat="39.557777" lon="-7.136948">
        <ele>360.8</ele>
        <time>1970-01-01T00:00:00Z</time>
      </trkpt>
      <trkpt lat="39.557643" lon="-7.136694">
        <ele>361.5</ele>
        <time>1970-01-01T00:00:00Z</time>
      </trkpt>
      <trkpt lat="39.557394" lon="-7.136364">
        <ele>362.6</ele>
        <time>1970-01-01T00:00:00Z</time>
      </trkpt>
      <trkpt lat="39.557019" lon="-7.135662">
        <ele>362.3</ele>
        <time>1970-01-01T00:00:00Z</time>
      </trkpt>
      <trkpt lat="39.556904" lon="-7.135411">
        <ele>361.7</ele>
        <time>1970-01-01T00:00:00Z</time>
      </trkpt>
      <trkpt lat="39.556829" lon="-7.135313">
        <ele>361.6</ele>
        <time>1970-01-01T00:00:00Z</time>
      </trkpt>
      <trkpt lat="39.556448" lon="-7.134876">
        <ele>359.0</ele>
        <time>1970-01-01T00:00:00Z</time>
      </trkpt>
      <trkpt lat="39.556242" lon="-7.134837">
        <ele>358.8</ele>
        <time>1970-01-01T00:00:00Z</time>
      </trkpt>
      <trkpt lat="39.556150" lon="-7.134782">
        <ele>358.4</ele>
        <time>1970-01-01T00:00:00Z</time>
      </trkpt>
      <trkpt lat="39.556053" lon="-7.134553">
        <ele>357.2</ele>
        <time>1970-01-01T00:00:00Z</time>
      </trkpt>
      <trkpt lat="39.555972" lon="-7.134439">
        <ele>356.9</ele>
        <time>1970-01-01T00:00:00Z</time>
      </trkpt>
      <trkpt lat="39.555809" lon="-7.134252">
        <ele>357.8</ele>
        <time>1970-01-01T00:00:00Z</time>
      </trkpt>
      <trkpt lat="39.555706" lon="-7.134091">
        <ele>358.6</ele>
        <time>1970-01-01T00:00:00Z</time>
      </trkpt>
      <trkpt lat="39.555594" lon="-7.133959">
        <ele>359.6</ele>
        <time>1970-01-01T00:00:00Z</time>
      </trkpt>
      <trkpt lat="39.555504" lon="-7.133865">
        <ele>360.4</ele>
        <time>1970-01-01T00:00:00Z</time>
      </trkpt>
      <trkpt lat="39.555204" lon="-7.133675">
        <ele>361.5</ele>
        <time>1970-01-01T00:00:00Z</time>
      </trkpt>
      <trkpt lat="39.555131" lon="-7.133589">
        <ele>361.5</ele>
        <time>1970-01-01T00:00:00Z</time>
      </trkpt>
      <trkpt lat="39.554969" lon="-7.133483">
        <ele>361.7</ele>
        <time>1970-01-01T00:00:00Z</time>
      </trkpt>
      <trkpt lat="39.554818" lon="-7.133260">
        <ele>361.3</ele>
        <time>1970-01-01T00:00:00Z</time>
      </trkpt>
      <trkpt lat="39.554663" lon="-7.133177">
        <ele>360.5</ele>
        <time>1970-01-01T00:00:00Z</time>
      </trkpt>
      <trkpt lat="39.554568" lon="-7.133071">
        <ele>359.1</ele>
        <time>1970-01-01T00:00:00Z</time>
      </trkpt>
      <trkpt lat="39.554292" lon="-7.132579">
        <ele>357.0</ele>
        <time>1970-01-01T00:00:00Z</time>
      </trkpt>
      <trkpt lat="39.554144" lon="-7.132275">
        <ele>357.6</ele>
        <time>1970-01-01T00:00:00Z</time>
      </trkpt>
      <trkpt lat="39.554025" lon="-7.132100">
        <ele>357.7</ele>
        <time>1970-01-01T00:00:00Z</time>
      </trkpt>
      <trkpt lat="39.553914" lon="-7.131901">
        <ele>356.9</ele>
        <time>1970-01-01T00:00:00Z</time>
      </trkpt>
      <trkpt lat="39.553814" lon="-7.131694">
        <ele>356.0</ele>
        <time>1970-01-01T00:00:00Z</time>
      </trkpt>
      <trkpt lat="39.553714" lon="-7.131459">
        <ele>356.0</ele>
        <time>1970-01-01T00:00:00Z</time>
      </trkpt>
      <trkpt lat="39.553600" lon="-7.131122">
        <ele>354.5</ele>
        <time>1970-01-01T00:00:00Z</time>
      </trkpt>
      <trkpt lat="39.553528" lon="-7.130847">
        <ele>353.2</ele>
        <time>1970-01-01T00:00:00Z</time>
      </trkpt>
      <trkpt lat="39.553195" lon="-7.130071">
        <ele>351.3</ele>
        <time>1970-01-01T00:00:00Z</time>
      </trkpt>
      <trkpt lat="39.553023" lon="-7.129780">
        <ele>349.6</ele>
        <time>1970-01-01T00:00:00Z</time>
      </trkpt>
      <trkpt lat="39.552775" lon="-7.129455">
        <ele>348.6</ele>
        <time>1970-01-01T00:00:00Z</time>
      </trkpt>
      <trkpt lat="39.552672" lon="-7.129294">
        <ele>347.6</ele>
        <time>1970-01-01T00:00:00Z</time>
      </trkpt>
      <trkpt lat="39.552453" lon="-7.128764">
        <ele>344.3</ele>
        <time>1970-01-01T00:00:00Z</time>
      </trkpt>
      <trkpt lat="39.552397" lon="-7.128681">
        <ele>343.9</ele>
        <time>1970-01-01T00:00:00Z</time>
      </trkpt>
      <trkpt lat="39.552342" lon="-7.128671">
        <ele>343.6</ele>
        <time>1970-01-01T00:00:00Z</time>
      </trkpt>
      <trkpt lat="39.552085" lon="-7.128225">
        <ele>342.0</ele>
        <time>1970-01-01T00:00:00Z</time>
      </trkpt>
      <trkpt lat="39.552011" lon="-7.128048">
        <ele>342.0</ele>
        <time>1970-01-01T00:00:00Z</time>
      </trkpt>
      <trkpt lat="39.551846" lon="-7.127536">
        <ele>343.5</ele>
        <time>1970-01-01T00:00:00Z</time>
      </trkpt>
      <trkpt lat="39.551784" lon="-7.127424">
        <ele>344.7</ele>
        <time>1970-01-01T00:00:00Z</time>
      </trkpt>
      <trkpt lat="39.551627" lon="-7.127316">
        <ele>346.4</ele>
        <time>1970-01-01T00:00:00Z</time>
      </trkpt>
      <trkpt lat="39.551335" lon="-7.127328">
        <ele>346.2</ele>
        <time>1970-01-01T00:00:00Z</time>
      </trkpt>
      <trkpt lat="39.551292" lon="-7.127197">
        <ele>346.5</ele>
        <time>1970-01-01T00:00:00Z</time>
      </trkpt>
      <trkpt lat="39.551248" lon="-7.126936">
        <ele>346.9</ele>
        <time>1970-01-01T00:00:00Z</time>
      </trkpt>
      <trkpt lat="39.551189" lon="-7.126775">
        <ele>346.9</ele>
        <time>1970-01-01T00:00:00Z</time>
      </trkpt>
      <trkpt lat="39.551063" lon="-7.126526">
        <ele>347.5</ele>
        <time>1970-01-01T00:00:00Z</time>
      </trkpt>
      <trkpt lat="39.550826" lon="-7.126222">
        <ele>347.7</ele>
        <time>1970-01-01T00:00:00Z</time>
      </trkpt>
      <trkpt lat="39.550265" lon="-7.125627">
        <ele>349.0</ele>
        <time>1970-01-01T00:00:00Z</time>
      </trkpt>
      <trkpt lat="39.550177" lon="-7.125331">
        <ele>349.5</ele>
        <time>1970-01-01T00:00:00Z</time>
      </trkpt>
      <trkpt lat="39.550103" lon="-7.125219">
        <ele>350.0</ele>
        <time>1970-01-01T00:00:00Z</time>
      </trkpt>
      <trkpt lat="39.549988" lon="-7.125125">
        <ele>350.4</ele>
        <time>1970-01-01T00:00:00Z</time>
      </trkpt>
      <trkpt lat="39.549784" lon="-7.124911">
        <ele>351.7</ele>
        <time>1970-01-01T00:00:00Z</time>
      </trkpt>
      <trkpt lat="39.549724" lon="-7.124765">
        <ele>353.0</ele>
        <time>1970-01-01T00:00:00Z</time>
      </trkpt>
      <trkpt lat="39.549678" lon="-7.124391">
        <ele>355.6</ele>
        <time>1970-01-01T00:00:00Z</time>
      </trkpt>
      <trkpt lat="39.549610" lon="-7.124167">
        <ele>356.8</ele>
        <time>1970-01-01T00:00:00Z</time>
      </trkpt>
      <trkpt lat="39.549295" lon="-7.123590">
        <ele>361.6</ele>
        <time>1970-01-01T00:00:00Z</time>
      </trkpt>
      <trkpt lat="39.549204" lon="-7.123311">
        <ele>362.9</ele>
        <time>1970-01-01T00:00:00Z</time>
      </trkpt>
      <trkpt lat="39.549049" lon="-7.123011">
        <ele>363.0</ele>
        <time>1970-01-01T00:00:00Z</time>
      </trkpt>
      <trkpt lat="39.548950" lon="-7.122609">
        <ele>363.3</ele>
        <time>1970-01-01T00:00:00Z</time>
      </trkpt>
      <trkpt lat="39.548873" lon="-7.122481">
        <ele>364.3</ele>
        <time>1970-01-01T00:00:00Z</time>
      </trkpt>
      <trkpt lat="39.548756" lon="-7.122398">
        <ele>364.9</ele>
        <time>1970-01-01T00:00:00Z</time>
      </trkpt>
      <trkpt lat="39.548619" lon="-7.122395">
        <ele>365.0</ele>
        <time>1970-01-01T00:00:00Z</time>
      </trkpt>
      <trkpt lat="39.548500" lon="-7.122363">
        <ele>365.0</ele>
        <time>1970-01-01T00:00:00Z</time>
      </trkpt>
      <trkpt lat="39.548355" lon="-7.122364">
        <ele>365.0</ele>
        <time>1970-01-01T00:00:00Z</time>
      </trkpt>
      <trkpt lat="39.548137" lon="-7.122327">
        <ele>365.0</ele>
        <time>1970-01-01T00:00:00Z</time>
      </trkpt>
      <trkpt lat="39.548041" lon="-7.122021">
        <ele>365.0</ele>
        <time>1970-01-01T00:00:00Z</time>
      </trkpt>
      <trkpt lat="39.547843" lon="-7.121861">
        <ele>364.2</ele>
        <time>1970-01-01T00:00:00Z</time>
      </trkpt>
      <trkpt lat="39.547709" lon="-7.121614">
        <ele>364.6</ele>
        <time>1970-01-01T00:00:00Z</time>
      </trkpt>
      <trkpt lat="39.547681" lon="-7.121482">
        <ele>365.1</ele>
        <time>1970-01-01T00:00:00Z</time>
      </trkpt>
      <trkpt lat="39.547580" lon="-7.121269">
        <ele>365.1</ele>
        <time>1970-01-01T00:00:00Z</time>
      </trkpt>
      <trkpt lat="39.547539" lon="-7.121080">
        <ele>365.9</ele>
        <time>1970-01-01T00:00:00Z</time>
      </trkpt>
      <trkpt lat="39.547511" lon="-7.120894">
        <ele>366.7</ele>
        <time>1970-01-01T00:00:00Z</time>
      </trkpt>
      <trkpt lat="39.547511" lon="-7.120628">
        <ele>368.5</ele>
        <time>1970-01-01T00:00:00Z</time>
      </trkpt>
      <trkpt lat="39.547477" lon="-7.120394">
        <ele>369.8</ele>
        <time>1970-01-01T00:00:00Z</time>
      </trkpt>
      <trkpt lat="39.547257" lon="-7.119743">
        <ele>372.0</ele>
        <time>1970-01-01T00:00:00Z</time>
      </trkpt>
      <trkpt lat="39.547128" lon="-7.119443">
        <ele>373.0</ele>
        <time>1970-01-01T00:00:00Z</time>
      </trkpt>
      <trkpt lat="39.547122" lon="-7.119351">
        <ele>373.0</ele>
        <time>1970-01-01T00:00:00Z</time>
      </trkpt>
      <trkpt lat="39.546973" lon="-7.119040">
        <ele>373.0</ele>
        <time>1970-01-01T00:00:00Z</time>
      </trkpt>
      <trkpt lat="39.546466" lon="-7.118278">
        <ele>374.7</ele>
        <time>1970-01-01T00:00:00Z</time>
      </trkpt>
      <trkpt lat="39.546042" lon="-7.117502">
        <ele>373.0</ele>
        <time>1970-01-01T00:00:00Z</time>
      </trkpt>
      <trkpt lat="39.545882" lon="-7.117185">
        <ele>371.8</ele>
        <time>1970-01-01T00:00:00Z</time>
      </trkpt>
      <trkpt lat="39.545847" lon="-7.116978">
        <ele>370.6</ele>
        <time>1970-01-01T00:00:00Z</time>
      </trkpt>
      <trkpt lat="39.545782" lon="-7.116824">
        <ele>369.7</ele>
        <time>1970-01-01T00:00:00Z</time>
      </trkpt>
      <trkpt lat="39.545713" lon="-7.116771">
        <ele>369.5</ele>
        <time>1970-01-01T00:00:00Z</time>
      </trkpt>
      <trkpt lat="39.545648" lon="-7.116666">
        <ele>369.0</ele>
        <time>1970-01-01T00:00:00Z</time>
      </trkpt>
      <trkpt lat="39.545546" lon="-7.116389">
        <ele>368.0</ele>
        <time>1970-01-01T00:00:00Z</time>
      </trkpt>
      <trkpt lat="39.545425" lon="-7.116124">
        <ele>368.3</ele>
        <time>1970-01-01T00:00:00Z</time>
      </trkpt>
      <trkpt lat="39.545361" lon="-7.115898">
        <ele>368.5</ele>
        <time>1970-01-01T00:00:00Z</time>
      </trkpt>
      <trkpt lat="39.545235" lon="-7.115357">
        <ele>369.0</ele>
        <time>1970-01-01T00:00:00Z</time>
      </trkpt>
      <trkpt lat="39.545159" lon="-7.115207">
        <ele>369.0</ele>
        <time>1970-01-01T00:00:00Z</time>
      </trkpt>
      <trkpt lat="39.545105" lon="-7.115058">
        <ele>369.0</ele>
        <time>1970-01-01T00:00:00Z</time>
      </trkpt>
      <trkpt lat="39.544989" lon="-7.114877">
        <ele>368.9</ele>
        <time>1970-01-01T00:00:00Z</time>
      </trkpt>
      <trkpt lat="39.544553" lon="-7.114482">
        <ele>367.0</ele>
        <time>1970-01-01T00:00:00Z</time>
      </trkpt>
      <trkpt lat="39.544479" lon="-7.114435">
        <ele>367.0</ele>
        <time>1970-01-01T00:00:00Z</time>
      </trkpt>
      <trkpt lat="39.544376" lon="-7.114272">
        <ele>367.1</ele>
        <time>1970-01-01T00:00:00Z</time>
      </trkpt>
      <trkpt lat="39.544192" lon="-7.113822">
        <ele>368.7</ele>
        <time>1970-01-01T00:00:00Z</time>
      </trkpt>
      <trkpt lat="39.544097" lon="-7.113746">
        <ele>368.6</ele>
        <time>1970-01-01T00:00:00Z</time>
      </trkpt>
      <trkpt lat="39.544017" lon="-7.113655">
        <ele>369.0</ele>
        <time>1970-01-01T00:00:00Z</time>
      </trkpt>
      <trkpt lat="39.543929" lon="-7.113484">
        <ele>370.4</ele>
        <time>1970-01-01T00:00:00Z</time>
      </trkpt>
      <trkpt lat="39.543794" lon="-7.113151">
        <ele>372.9</ele>
        <time>1970-01-01T00:00:00Z</time>
      </trkpt>
      <trkpt lat="39.543729" lon="-7.112953">
        <ele>373.4</ele>
        <time>1970-01-01T00:00:00Z</time>
      </trkpt>
      <trkpt lat="39.543676" lon="-7.112391">
        <ele>377.0</ele>
        <time>1970-01-01T00:00:00Z</time>
      </trkpt>
      <trkpt lat="39.543676" lon="-7.112083">
        <ele>379.5</ele>
        <time>1970-01-01T00:00:00Z</time>
      </trkpt>
      <trkpt lat="39.543694" lon="-7.111905">
        <ele>380.5</ele>
        <time>1970-01-01T00:00:00Z</time>
      </trkpt>
      <trkpt lat="39.543680" lon="-7.111795">
        <ele>381.0</ele>
        <time>1970-01-01T00:00:00Z</time>
      </trkpt>
      <trkpt lat="39.543543" lon="-7.111305">
        <ele>381.2</ele>
        <time>1970-01-01T00:00:00Z</time>
      </trkpt>
      <trkpt lat="39.543477" lon="-7.111020">
        <ele>380.7</ele>
        <time>1970-01-01T00:00:00Z</time>
      </trkpt>
      <trkpt lat="39.543410" lon="-7.110802">
        <ele>380.1</ele>
        <time>1970-01-01T00:00:00Z</time>
      </trkpt>
      <trkpt lat="39.543310" lon="-7.110574">
        <ele>379.8</ele>
        <time>1970-01-01T00:00:00Z</time>
      </trkpt>
      <trkpt lat="39.542965" lon="-7.109274">
        <ele>380.0</ele>
        <time>1970-01-01T00:00:00Z</time>
      </trkpt>
      <trkpt lat="39.542812" lon="-7.108802">
        <ele>380.0</ele>
        <time>1970-01-01T00:00:00Z</time>
      </trkpt>
      <trkpt lat="39.542776" lon="-7.108595">
        <ele>380.8</ele>
        <time>1970-01-01T00:00:00Z</time>
      </trkpt>
      <trkpt lat="39.542706" lon="-7.108340">
        <ele>381.0</ele>
        <time>1970-01-01T00:00:00Z</time>
      </trkpt>
      <trkpt lat="39.542627" lon="-7.107941">
        <ele>382.0</ele>
        <time>1970-01-01T00:00:00Z</time>
      </trkpt>
      <trkpt lat="39.542597" lon="-7.107649">
        <ele>382.4</ele>
        <time>1970-01-01T00:00:00Z</time>
      </trkpt>
      <trkpt lat="39.542485" lon="-7.107440">
        <ele>383.0</ele>
        <time>1970-01-01T00:00:00Z</time>
      </trkpt>
      <trkpt lat="39.542303" lon="-7.107198">
        <ele>384.8</ele>
        <time>1970-01-01T00:00:00Z</time>
      </trkpt>
      <trkpt lat="39.542236" lon="-7.107032">
        <ele>385.0</ele>
        <time>1970-01-01T00:00:00Z</time>
      </trkpt>
      <trkpt lat="39.542104" lon="-7.106549">
        <ele>386.4</ele>
        <time>1970-01-01T00:00:00Z</time>
      </trkpt>
      <trkpt lat="39.542029" lon="-7.106370">
        <ele>387.0</ele>
        <time>1970-01-01T00:00:00Z</time>
      </trkpt>
      <trkpt lat="39.541934" lon="-7.106187">
        <ele>387.0</ele>
        <time>1970-01-01T00:00:00Z</time>
      </trkpt>
      <trkpt lat="39.541815" lon="-7.106059">
        <ele>387.0</ele>
        <time>1970-01-01T00:00:00Z</time>
      </trkpt>
      <trkpt lat="39.541717" lon="-7.105770">
        <ele>387.0</ele>
        <time>1970-01-01T00:00:00Z</time>
      </trkpt>
      <trkpt lat="39.541580" lon="-7.105486">
        <ele>387.6</ele>
        <time>1970-01-01T00:00:00Z</time>
      </trkpt>
      <trkpt lat="39.540861" lon="-7.104398">
        <ele>392.0</ele>
        <time>1970-01-01T00:00:00Z</time>
      </trkpt>
      <trkpt lat="39.540684" lon="-7.103799">
        <ele>393.7</ele>
        <time>1970-01-01T00:00:00Z</time>
      </trkpt>
      <trkpt lat="39.540501" lon="-7.102998">
        <ele>393.0</ele>
        <time>1970-01-01T00:00:00Z</time>
      </trkpt>
      <trkpt lat="39.540142" lon="-7.102006">
        <ele>393.0</ele>
        <time>1970-01-01T00:00:00Z</time>
      </trkpt>
      <trkpt lat="39.540018" lon="-7.101726">
        <ele>392.2</ele>
        <time>1970-01-01T00:00:00Z</time>
      </trkpt>
      <trkpt lat="39.539817" lon="-7.101209">
        <ele>390.5</ele>
        <time>1970-01-01T00:00:00Z</time>
      </trkpt>
      <trkpt lat="39.539723" lon="-7.101061">
        <ele>390.0</ele>
        <time>1970-01-01T00:00:00Z</time>
      </trkpt>
      <trkpt lat="39.539638" lon="-7.100888">
        <ele>390.3</ele>
        <time>1970-01-01T00:00:00Z</time>
      </trkpt>
      <trkpt lat="39.539691" lon="-7.100685">
        <ele>390.0</ele>
        <time>1970-01-01T00:00:00Z</time>
      </trkpt>
      <trkpt lat="39.539828" lon="-7.100365">
        <ele>389.8</ele>
        <time>1970-01-01T00:00:00Z</time>
      </trkpt>
      <trkpt lat="39.539873" lon="-7.100164">
        <ele>389.0</ele>
        <time>1970-01-01T00:00:00Z</time>
      </trkpt>
      <trkpt lat="39.539901" lon="-7.099853">
        <ele>388.0</ele>
        <time>1970-01-01T00:00:00Z</time>
      </trkpt>
      <trkpt lat="39.539995" lon="-7.099400">
        <ele>387.1</ele>
        <time>1970-01-01T00:00:00Z</time>
      </trkpt>
      <trkpt lat="39.540018" lon="-7.099197">
        <ele>386.3</ele>
        <time>1970-01-01T00:00:00Z</time>
      </trkpt>
      <trkpt lat="39.540092" lon="-7.098832">
        <ele>385.0</ele>
        <time>1970-01-01T00:00:00Z</time>
      </trkpt>
      <trkpt lat="39.540098" lon="-7.098655">
        <ele>384.8</ele>
        <time>1970-01-01T00:00:00Z</time>
      </trkpt>
      <trkpt lat="39.539974" lon="-7.098345">
        <ele>384.2</ele>
        <time>1970-01-01T00:00:00Z</time>
      </trkpt>
      <trkpt lat="39.539824" lon="-7.098090">
        <ele>383.6</ele>
        <time>1970-01-01T00:00:00Z</time>
      </trkpt>
      <trkpt lat="39.539457" lon="-7.097525">
        <ele>383.0</ele>
        <time>1970-01-01T00:00:00Z</time>
      </trkpt>
      <trkpt lat="39.538980" lon="-7.096750">
        <ele>380.9</ele>
        <time>1970-01-01T00:00:00Z</time>
      </trkpt>
      <trkpt lat="39.538827" lon="-7.096493">
        <ele>379.1</ele>
        <time>1970-01-01T00:00:00Z</time>
      </trkpt>
      <trkpt lat="39.538677" lon="-7.096193">
        <ele>377.2</ele>
        <time>1970-01-01T00:00:00Z</time>
      </trkpt>
      <trkpt lat="39.538551" lon="-7.095989">
        <ele>375.7</ele>
        <time>1970-01-01T00:00:00Z</time>
      </trkpt>
      <trkpt lat="39.538312" lon="-7.095507">
        <ele>376.0</ele>
        <time>1970-01-01T00:00:00Z</time>
      </trkpt>
      <trkpt lat="39.538204" lon="-7.095338">
        <ele>375.9</ele>
        <time>1970-01-01T00:00:00Z</time>
      </trkpt>
      <trkpt lat="39.538102" lon="-7.095145">
        <ele>375.9</ele>
        <time>1970-01-01T00:00:00Z</time>
      </trkpt>
      <trkpt lat="39.538001" lon="-7.094996">
        <ele>375.4</ele>
        <time>1970-01-01T00:00:00Z</time>
      </trkpt>
      <trkpt lat="39.537845" lon="-7.094812">
        <ele>374.6</ele>
        <time>1970-01-01T00:00:00Z</time>
      </trkpt>
      <trkpt lat="39.537595" lon="-7.094392">
        <ele>374.0</ele>
        <time>1970-01-01T00:00:00Z</time>
      </trkpt>
      <trkpt lat="39.537287" lon="-7.093832">
        <ele>373.2</ele>
        <time>1970-01-01T00:00:00Z</time>
      </trkpt>
      <trkpt lat="39.537250" lon="-7.093729">
        <ele>372.9</ele>
        <time>1970-01-01T00:00:00Z</time>
      </trkpt>
      <trkpt lat="39.537229" lon="-7.093572">
        <ele>372.3</ele>
        <time>1970-01-01T00:00:00Z</time>
      </trkpt>
      <trkpt lat="39.537125" lon="-7.093325">
        <ele>372.0</ele>
        <time>1970-01-01T00:00:00Z</time>
      </trkpt>
      <trkpt lat="39.537077" lon="-7.093174">
        <ele>372.0</ele>
        <time>1970-01-01T00:00:00Z</time>
      </trkpt>
      <trkpt lat="39.536738" lon="-7.091709">
        <ele>367.2</ele>
        <time>1970-01-01T00:00:00Z</time>
      </trkpt>
      <trkpt lat="39.536747" lon="-7.091395">
        <ele>366.0</ele>
        <time>1970-01-01T00:00:00Z</time>
      </trkpt>
      <trkpt lat="39.536676" lon="-7.091031">
        <ele>366.0</ele>
        <time>1970-01-01T00:00:00Z</time>
      </trkpt>
      <trkpt lat="39.536583" lon="-7.090661">
        <ele>366.3</ele>
        <time>1970-01-01T00:00:00Z</time>
      </trkpt>
      <trkpt lat="39.536478" lon="-7.090323">
        <ele>366.7</ele>
        <time>1970-01-01T00:00:00Z</time>
      </trkpt>
      <trkpt lat="39.536384" lon="-7.090192">
        <ele>367.7</ele>
        <time>1970-01-01T00:00:00Z</time>
      </trkpt>
      <trkpt lat="39.536232" lon="-7.090074">
        <ele>368.8</ele>
        <time>1970-01-01T00:00:00Z</time>
      </trkpt>
      <trkpt lat="39.536092" lon="-7.089918">
        <ele>369.8</ele>
        <time>1970-01-01T00:00:00Z</time>
      </trkpt>
      <trkpt lat="39.536013" lon="-7.089739">
        <ele>370.0</ele>
        <time>1970-01-01T00:00:00Z</time>
      </trkpt>
      <trkpt lat="39.535974" lon="-7.089599">
        <ele>370.0</ele>
        <time>1970-01-01T00:00:00Z</time>
      </trkpt>
      <trkpt lat="39.535942" lon="-7.089412">
        <ele>369.4</ele>
        <time>1970-01-01T00:00:00Z</time>
      </trkpt>
      <trkpt lat="39.535735" lon="-7.088819">
        <ele>369.0</ele>
        <time>1970-01-01T00:00:00Z</time>
      </trkpt>
      <trkpt lat="39.535705" lon="-7.088677">
        <ele>368.8</ele>
        <time>1970-01-01T00:00:00Z</time>
      </trkpt>
      <trkpt lat="39.535677" lon="-7.088331">
        <ele>367.9</ele>
        <time>1970-01-01T00:00:00Z</time>
      </trkpt>
      <trkpt lat="39.535597" lon="-7.088131">
        <ele>367.2</ele>
        <time>1970-01-01T00:00:00Z</time>
      </trkpt>
      <trkpt lat="39.535245" lon="-7.087498">
        <ele>368.2</ele>
        <time>1970-01-01T00:00:00Z</time>
      </trkpt>
      <trkpt lat="39.534909" lon="-7.086973">
        <ele>371.2</ele>
        <time>1970-01-01T00:00:00Z</time>
      </trkpt>
      <trkpt lat="39.534437" lon="-7.086409">
        <ele>370.6</ele>
        <time>1970-01-01T00:00:00Z</time>
      </trkpt>
      <trkpt lat="39.534264" lon="-7.086251">
        <ele>369.2</ele>
        <time>1970-01-01T00:00:00Z</time>
      </trkpt>
      <trkpt lat="39.534169" lon="-7.086076">
        <ele>368.0</ele>
        <time>1970-01-01T00:00:00Z</time>
      </trkpt>
      <trkpt lat="39.533989" lon="-7.085610">
        <ele>365.3</ele>
        <time>1970-01-01T00:00:00Z</time>
      </trkpt>
      <trkpt lat="39.533764" lon="-7.085129">
        <ele>364.1</ele>
        <time>1970-01-01T00:00:00Z</time>
      </trkpt>
      <trkpt lat="39.533266" lon="-7.084004">
        <ele>361.4</ele>
        <time>1970-01-01T00:00:00Z</time>
      </trkpt>
      <trkpt lat="39.533116" lon="-7.083589">
        <ele>360.1</ele>
        <time>1970-01-01T00:00:00Z</time>
      </trkpt>
      <trkpt lat="39.532743" lon="-7.082920">
        <ele>362.7</ele>
        <time>1970-01-01T00:00:00Z</time>
      </trkpt>
      <trkpt lat="39.532339" lon="-7.081803">
        <ele>358.6</ele>
        <time>1970-01-01T00:00:00Z</time>
      </trkpt>
      <trkpt lat="39.532280" lon="-7.081686">
        <ele>358.0</ele>
        <time>1970-01-01T00:00:00Z</time>
      </trkpt>
      <trkpt lat="39.531886" lon="-7.081185">
        <ele>357.7</ele>
        <time>1970-01-01T00:00:00Z</time>
      </trkpt>
      <trkpt lat="39.531757" lon="-7.080939">
        <ele>357.0</ele>
        <time>1970-01-01T00:00:00Z</time>
      </trkpt>
      <trkpt lat="39.531605" lon="-7.080544">
        <ele>356.9</ele>
        <time>1970-01-01T00:00:00Z</time>
      </trkpt>
      <trkpt lat="39.531337" lon="-7.079760">
        <ele>350.9</ele>
        <time>1970-01-01T00:00:00Z</time>
      </trkpt>
      <trkpt lat="39.531128" lon="-7.079137">
        <ele>350.0</ele>
        <time>1970-01-01T00:00:00Z</time>
      </trkpt>
      <trkpt lat="39.531070" lon="-7.078900">
        <ele>350.0</ele>
        <time>1970-01-01T00:00:00Z</time>
      </trkpt>
      <trkpt lat="39.530983" lon="-7.078658">
        <ele>349.9</ele>
        <time>1970-01-01T00:00:00Z</time>
      </trkpt>
      <trkpt lat="39.530792" lon="-7.078253">
        <ele>350.0</ele>
        <time>1970-01-01T00:00:00Z</time>
      </trkpt>
      <trkpt lat="39.530687" lon="-7.077974">
        <ele>349.8</ele>
        <time>1970-01-01T00:00:00Z</time>
      </trkpt>
      <trkpt lat="39.530556" lon="-7.077516">
        <ele>347.8</ele>
        <time>1970-01-01T00:00:00Z</time>
      </trkpt>
      <trkpt lat="39.530467" lon="-7.077282">
        <ele>346.6</ele>
        <time>1970-01-01T00:00:00Z</time>
      </trkpt>
      <trkpt lat="39.530429" lon="-7.077070">
        <ele>344.9</ele>
        <time>1970-01-01T00:00:00Z</time>
      </trkpt>
      <trkpt lat="39.530223" lon="-7.076477">
        <ele>340.7</ele>
        <time>1970-01-01T00:00:00Z</time>
      </trkpt>
      <trkpt lat="39.530067" lon="-7.076096">
        <ele>337.7</ele>
        <time>1970-01-01T00:00:00Z</time>
      </trkpt>
      <trkpt lat="39.529769" lon="-7.075611">
        <ele>337.0</ele>
        <time>1970-01-01T00:00:00Z</time>
      </trkpt>
      <trkpt lat="39.529441" lon="-7.075178">
        <ele>335.9</ele>
        <time>1970-01-01T00:00:00Z</time>
      </trkpt>
      <trkpt lat="39.528925" lon="-7.074070">
        <ele>331.5</ele>
        <time>1970-01-01T00:00:00Z</time>
      </trkpt>
      <trkpt lat="39.528366" lon="-7.072804">
        <ele>330.1</ele>
        <time>1970-01-01T00:00:00Z</time>
      </trkpt>
      <trkpt lat="39.528209" lon="-7.072221">
        <ele>331.0</ele>
        <time>1970-01-01T00:00:00Z</time>
      </trkpt>
      <trkpt lat="39.528072" lon="-7.071667">
        <ele>330.3</ele>
        <time>1970-01-01T00:00:00Z</time>
      </trkpt>
      <trkpt lat="39.528011" lon="-7.071375">
        <ele>329.5</ele>
        <time>1970-01-01T00:00:00Z</time>
      </trkpt>
      <trkpt lat="39.527985" lon="-7.071031">
        <ele>328.3</ele>
        <time>1970-01-01T00:00:00Z</time>
      </trkpt>
      <trkpt lat="39.528093" lon="-7.070250">
        <ele>324.8</ele>
        <time>1970-01-01T00:00:00Z</time>
      </trkpt>
      <trkpt lat="39.528119" lon="-7.069944">
        <ele>323.3</ele>
        <time>1970-01-01T00:00:00Z</time>
      </trkpt>
      <trkpt lat="39.527866" lon="-7.068238">
        <ele>318.0</ele>
        <time>1970-01-01T00:00:00Z</time>
      </trkpt>
      <trkpt lat="39.527854" lon="-7.068028">
        <ele>317.6</ele>
        <time>1970-01-01T00:00:00Z</time>
      </trkpt>
      <trkpt lat="39.527901" lon="-7.067895">
        <ele>316.7</ele>
        <time>1970-01-01T00:00:00Z</time>
      </trkpt>
      <trkpt lat="39.527990" lon="-7.067706">
        <ele>316.4</ele>
        <time>1970-01-01T00:00:00Z</time>
      </trkpt>
      <trkpt lat="39.528059" lon="-7.067474">
        <ele>316.4</ele>
        <time>1970-01-01T00:00:00Z</time>
      </trkpt>
      <trkpt lat="39.528066" lon="-7.067252">
        <ele>316.5</ele>
        <time>1970-01-01T00:00:00Z</time>
      </trkpt>
      <trkpt lat="39.528190" lon="-7.066334">
        <ele>311.2</ele>
        <time>1970-01-01T00:00:00Z</time>
      </trkpt>
      <trkpt lat="39.528181" lon="-7.066159">
        <ele>310.0</ele>
        <time>1970-01-01T00:00:00Z</time>
      </trkpt>
      <trkpt lat="39.528107" lon="-7.065940">
        <ele>309.9</ele>
        <time>1970-01-01T00:00:00Z</time>
      </trkpt>
      <trkpt lat="39.527973" lon="-7.065635">
        <ele>310.0</ele>
        <time>1970-01-01T00:00:00Z</time>
      </trkpt>
      <trkpt lat="39.527907" lon="-7.065444">
        <ele>309.7</ele>
        <time>1970-01-01T00:00:00Z</time>
      </trkpt>
      <trkpt lat="39.527831" lon="-7.065004">
        <ele>309.2</ele>
        <time>1970-01-01T00:00:00Z</time>
      </trkpt>
      <trkpt lat="39.527640" lon="-7.064180">
        <ele>307.4</ele>
        <time>1970-01-01T00:00:00Z</time>
      </trkpt>
      <trkpt lat="39.527601" lon="-7.063932">
        <ele>307.1</ele>
        <time>1970-01-01T00:00:00Z</time>
      </trkpt>
      <trkpt lat="39.527550" lon="-7.063707">
        <ele>306.2</ele>
        <time>1970-01-01T00:00:00Z</time>
      </trkpt>
      <trkpt lat="39.527470" lon="-7.063589">
        <ele>306.0</ele>
        <time>1970-01-01T00:00:00Z</time>
      </trkpt>
      <trkpt lat="39.527382" lon="-7.063513">
        <ele>305.8</ele>
        <time>1970-01-01T00:00:00Z</time>
      </trkpt>
      <trkpt lat="39.527159" lon="-7.063071">
        <ele>305.5</ele>
        <time>1970-01-01T00:00:00Z</time>
      </trkpt>
      <trkpt lat="39.527112" lon="-7.062938">
        <ele>306.1</ele>
        <time>1970-01-01T00:00:00Z</time>
      </trkpt>
      <trkpt lat="39.527023" lon="-7.062443">
        <ele>308.0</ele>
        <time>1970-01-01T00:00:00Z</time>
      </trkpt>
      <trkpt lat="39.526992" lon="-7.061998">
        <ele>308.9</ele>
        <time>1970-01-01T00:00:00Z</time>
      </trkpt>
      <trkpt lat="39.526944" lon="-7.061845">
        <ele>309.1</ele>
        <time>1970-01-01T00:00:00Z</time>
      </trkpt>
      <trkpt lat="39.526873" lon="-7.061718">
        <ele>309.4</ele>
        <time>1970-01-01T00:00:00Z</time>
      </trkpt>
      <trkpt lat="39.526732" lon="-7.060826">
        <ele>309.0</ele>
        <time>1970-01-01T00:00:00Z</time>
      </trkpt>
      <trkpt lat="39.526678" lon="-7.060370">
        <ele>309.0</ele>
        <time>1970-01-01T00:00:00Z</time>
      </trkpt>
      <trkpt lat="39.526658" lon="-7.060164">
        <ele>309.0</ele>
        <time>1970-01-01T00:00:00Z</time>
      </trkpt>
      <trkpt lat="39.526712" lon="-7.060045">
        <ele>309.5</ele>
        <time>1970-01-01T00:00:00Z</time>
      </trkpt>
      <trkpt lat="39.526737" lon="-7.059477">
        <ele>312.1</ele>
        <time>1970-01-01T00:00:00Z</time>
      </trkpt>
    </trkseg>
    <trkseg>
      <trkpt lat="39.526737" lon="-7.059477">
        <ele>312.1</ele>
        <time>1970-01-01T00:00:00Z</time>
      </trkpt>
      <trkpt lat="39.526744" lon="-7.058967">
        <ele>314.3</ele>
        <time>1970-01-01T00:00:00Z</time>
      </trkpt>
      <trkpt lat="39.526842" lon="-7.058619">
        <ele>316.7</ele>
        <time>1970-01-01T00:00:00Z</time>
      </trkpt>
      <trkpt lat="39.526940" lon="-7.057920">
        <ele>320.6</ele>
        <time>1970-01-01T00:00:00Z</time>
      </trkpt>
      <trkpt lat="39.526973" lon="-7.057165">
        <ele>325.0</ele>
        <time>1970-01-01T00:00:00Z</time>
      </trkpt>
      <trkpt lat="39.527029" lon="-7.056592">
        <ele>328.0</ele>
        <time>1970-01-01T00:00:00Z</time>
      </trkpt>
      <trkpt lat="39.527041" lon="-7.055474">
        <ele>333.1</ele>
        <time>1970-01-01T00:00:00Z</time>
      </trkpt>
      <trkpt lat="39.527252" lon="-7.054800">
        <ele>334.4</ele>
        <time>1970-01-01T00:00:00Z</time>
      </trkpt>
      <trkpt lat="39.527352" lon="-7.054362">
        <ele>335.0</ele>
        <time>1970-01-01T00:00:00Z</time>
      </trkpt>
      <trkpt lat="39.527237" lon="-7.054200">
        <ele>335.0</ele>
        <time>1970-01-01T00:00:00Z</time>
      </trkpt>
      <trkpt lat="39.527311" lon="-7.054028">
        <ele>336.2</ele>
        <time>1970-01-01T00:00:00Z</time>
      </trkpt>
      <trkpt lat="39.527264" lon="-7.053849">
        <ele>337.3</ele>
        <time>1970-01-01T00:00:00Z</time>
      </trkpt>
      <trkpt lat="39.527944" lon="-7.052884">
        <ele>335.8</ele>
        <time>1970-01-01T00:00:00Z</time>
      </trkpt>
      <trkpt lat="39.528200" lon="-7.053142">
        <ele>334.7</ele>
        <time>1970-01-01T00:00:00Z</time>
      </trkpt>
      <trkpt lat="39.528939" lon="-7.053732">
        <ele>330.8</ele>
        <time>1970-01-01T00:00:00Z</time>
      </trkpt>
      <trkpt lat="39.529277" lon="-7.053849">
        <ele>329.0</ele>
        <time>1970-01-01T00:00:00Z</time>
      </trkpt>
      <trkpt lat="39.529431" lon="-7.053789">
        <ele>327.7</ele>
        <time>1970-01-01T00:00:00Z</time>
      </trkpt>
      <trkpt lat="39.529893" lon="-7.053305">
        <ele>324.8</ele>
        <time>1970-01-01T00:00:00Z</time>
      </trkpt>
      <trkpt lat="39.530011" lon="-7.053051">
        <ele>325.0</ele>
        <time>1970-01-01T00:00:00Z</time>
      </trkpt>
      <trkpt lat="39.530215" lon="-7.052760">
        <ele>325.0</ele>
        <time>1970-01-01T00:00:00Z</time>
      </trkpt>
      <trkpt lat="39.530287" lon="-7.052489">
        <ele>325.6</ele>
        <time>1970-01-01T00:00:00Z</time>
      </trkpt>
      <trkpt lat="39.530386" lon="-7.051861">
        <ele>328.0</ele>
        <time>1970-01-01T00:00:00Z</time>
      </trkpt>
      <trkpt lat="39.530537" lon="-7.051050">
        <ele>332.1</ele>
        <time>1970-01-01T00:00:00Z</time>
      </trkpt>
      <trkpt lat="39.530584" lon="-7.050459">
        <ele>332.6</ele>
        <time>1970-01-01T00:00:00Z</time>
      </trkpt>
      <trkpt lat="39.530629" lon="-7.050275">
        <ele>332.8</ele>
        <time>1970-01-01T00:00:00Z</time>
      </trkpt>
      <trkpt lat="39.530721" lon="-7.050034">
        <ele>333.4</ele>
        <time>1970-01-01T00:00:00Z</time>
      </trkpt>
      <trkpt lat="39.531006" lon="-7.049524">
        <ele>335.9</ele>
        <time>1970-01-01T00:00:00Z</time>
      </trkpt>
      <trkpt lat="39.531231" lon="-7.049010">
        <ele>336.4</ele>
        <time>1970-01-01T00:00:00Z</time>
      </trkpt>
      <trkpt lat="39.531274" lon="-7.048722">
        <ele>336.4</ele>
        <time>1970-01-01T00:00:00Z</time>
      </trkpt>
      <trkpt lat="39.531349" lon="-7.048542">
        <ele>336.6</ele>
        <time>1970-01-01T00:00:00Z</time>
      </trkpt>
      <trkpt lat="39.531409" lon="-7.048294">
        <ele>335.9</ele>
        <time>1970-01-01T00:00:00Z</time>
      </trkpt>
      <trkpt lat="39.531619" lon="-7.047581">
        <ele>335.7</ele>
        <time>1970-01-01T00:00:00Z</time>
      </trkpt>
      <trkpt lat="39.531842" lon="-7.047031">
        <ele>334.3</ele>
        <time>1970-01-01T00:00:00Z</time>
      </trkpt>
      <trkpt lat="39.532329" lon="-7.045995">
        <ele>330.8</ele>
        <time>1970-01-01T00:00:00Z</time>
      </trkpt>
      <trkpt lat="39.532544" lon="-7.045473">
        <ele>328.6</ele>
        <time>1970-01-01T00:00:00Z</time>
      </trkpt>
      <trkpt lat="39.532876" lon="-7.044843">
        <ele>326.4</ele>
        <time>1970-01-01T00:00:00Z</time>
      </trkpt>
      <trkpt lat="39.533207" lon="-7.044175">
        <ele>326.0</ele>
        <time>1970-01-01T00:00:00Z</time>
      </trkpt>
      <trkpt lat="39.533314" lon="-7.043898">
        <ele>326.5</ele>
        <time>1970-01-01T00:00:00Z</time>
      </trkpt>
      <trkpt lat="39.533381" lon="-7.043604">
        <ele>326.6</ele>
        <time>1970-01-01T00:00:00Z</time>
      </trkpt>
      <trkpt lat="39.533444" lon="-7.043376">
        <ele>327.0</ele>
        <time>1970-01-01T00:00:00Z</time>
      </trkpt>
      <trkpt lat="39.533499" lon="-7.043227">
        <ele>327.4</ele>
        <time>1970-01-01T00:00:00Z</time>
      </trkpt>
      <trkpt lat="39.533681" lon="-7.042991">
        <ele>327.7</ele>
        <time>1970-01-01T00:00:00Z</time>
      </trkpt>
      <trkpt lat="39.534035" lon="-7.042384">
        <ele>326.1</ele>
        <time>1970-01-01T00:00:00Z</time>
      </trkpt>
      <trkpt lat="39.534102" lon="-7.042218">
        <ele>325.4</ele>
        <time>1970-01-01T00:00:00Z</time>
      </trkpt>
      <trkpt lat="39.534309" lon="-7.041356">
        <ele>322.3</ele>
        <time>1970-01-01T00:00:00Z</time>
      </trkpt>
      <trkpt lat="39.534418" lon="-7.040981">
        <ele>321.0</ele>
        <time>1970-01-01T00:00:00Z</time>
      </trkpt>
      <trkpt lat="39.534533" lon="-7.040643">
        <ele>319.0</ele>
        <time>1970-01-01T00:00:00Z</time>
      </trkpt>
      <trkpt lat="39.534638" lon="-7.040413">
        <ele>317.6</ele>
        <time>1970-01-01T00:00:00Z</time>
      </trkpt>
      <trkpt lat="39.534885" lon="-7.039944">
        <ele>316.7</ele>
        <time>1970-01-01T00:00:00Z</time>
      </trkpt>
      <trkpt lat="39.535073" lon="-7.039512">
        <ele>316.0</ele>
        <time>1970-01-01T00:00:00Z</time>
      </trkpt>
      <trkpt lat="39.535273" lon="-7.039031">
        <ele>317.3</ele>
        <time>1970-01-01T00:00:00Z</time>
      </trkpt>
      <trkpt lat="39.535498" lon="-7.038417">
        <ele>316.8</ele>
        <time>1970-01-01T00:00:00Z</time>
      </trkpt>
      <trkpt lat="39.535614" lon="-7.038158">
        <ele>315.7</ele>
        <time>1970-01-01T00:00:00Z</time>
      </trkpt>
      <trkpt lat="39.535805" lon="-7.037937">
        <ele>313.8</ele>
        <time>1970-01-01T00:00:00Z</time>
      </trkpt>
      <trkpt lat="39.536204" lon="-7.037261">
        <ele>309.1</ele>
        <time>1970-01-01T00:00:00Z</time>
      </trkpt>
      <trkpt lat="39.536355" lon="-7.036984">
        <ele>309.0</ele>
        <time>1970-01-01T00:00:00Z</time>
      </trkpt>
      <trkpt lat="39.536651" lon="-7.036507">
        <ele>310.0</ele>
        <time>1970-01-01T00:00:00Z</time>
      </trkpt>
      <trkpt lat="39.536629" lon="-7.036429">
        <ele>310.0</ele>
        <time>1970-01-01T00:00:00Z</time>
      </trkpt>
      <trkpt lat="39.536570" lon="-7.036369">
        <ele>310.0</ele>
        <time>1970-01-01T00:00:00Z</time>
      </trkpt>
      <trkpt lat="39.537745" lon="-7.035159">
        <ele>307.9</ele>
        <time>1970-01-01T00:00:00Z</time>
      </trkpt>
      <trkpt lat="39.537684" lon="-7.035055">
        <ele>307.8</ele>
        <time>1970-01-01T00:00:00Z</time>
      </trkpt>
      <trkpt lat="39.537733" lon="-7.034937">
        <ele>307.5</ele>
        <time>1970-01-01T00:00:00Z</time>
      </trkpt>
      <trkpt lat="39.537851" lon="-7.034735">
        <ele>307.0</ele>
        <time>1970-01-01T00:00:00Z</time>
      </trkpt>
      <trkpt lat="39.538071" lon="-7.034235">
        <ele>308.1</ele>
        <time>1970-01-01T00:00:00Z</time>
      </trkpt>
      <trkpt lat="39.538130" lon="-7.034066">
        <ele>308.6</ele>
        <time>1970-01-01T00:00:00Z</time>
      </trkpt>
      <trkpt lat="39.538251" lon="-7.034029">
        <ele>308.2</ele>
        <time>1970-01-01T00:00:00Z</time>
      </trkpt>
      <trkpt lat="39.538438" lon="-7.033821">
        <ele>307.8</ele>
        <time>1970-01-01T00:00:00Z</time>
      </trkpt>
      <trkpt lat="39.538542" lon="-7.033664">
        <ele>307.5</ele>
        <time>1970-01-01T00:00:00Z</time>
      </trkpt>
      <trkpt lat="39.538646" lon="-7.033486">
        <ele>307.2</ele>
        <time>1970-01-01T00:00:00Z</time>
      </trkpt>
      <trkpt lat="39.538793" lon="-7.033164">
        <ele>307.6</ele>
        <time>1970-01-01T00:00:00Z</time>
      </trkpt>
      <trkpt lat="39.538964" lon="-7.032878">
        <ele>306.3</ele>
        <time>1970-01-01T00:00:00Z</time>
      </trkpt>
      <trkpt lat="39.539129" lon="-7.032523">
        <ele>306.4</ele>
        <time>1970-01-01T00:00:00Z</time>
      </trkpt>
      <trkpt lat="39.539227" lon="-7.031891">
        <ele>309.5</ele>
        <time>1970-01-01T00:00:00Z</time>
      </trkpt>
      <trkpt lat="39.539304" lon="-7.031489">
        <ele>311.7</ele>
        <time>1970-01-01T00:00:00Z</time>
      </trkpt>
      <trkpt lat="39.539419" lon="-7.031136">
        <ele>313.6</ele>
        <time>1970-01-01T00:00:00Z</time>
      </trkpt>
      <trkpt lat="39.539468" lon="-7.030920">
        <ele>314.0</ele>
        <time>1970-01-01T00:00:00Z</time>
      </trkpt>
      <trkpt lat="39.539429" lon="-7.030393">
        <ele>313.9</ele>
        <time>1970-01-01T00:00:00Z</time>
      </trkpt>
      <trkpt lat="39.539391" lon="-7.030111">
        <ele>313.4</ele>
        <time>1970-01-01T00:00:00Z</time>
      </trkpt>
      <trkpt lat="39.539398" lon="-7.029924">
        <ele>313.1</ele>
        <time>1970-01-01T00:00:00Z</time>
      </trkpt>
      <trkpt lat="39.539436" lon="-7.029665">
        <ele>313.0</ele>
        <time>1970-01-01T00:00:00Z</time>
      </trkpt>
      <trkpt lat="39.539555" lon="-7.029071">
        <ele>312.0</ele>
        <time>1970-01-01T00:00:00Z</time>
      </trkpt>
      <trkpt lat="39.539624" lon="-7.028361">
        <ele>311.2</ele>
        <time>1970-01-01T00:00:00Z</time>
      </trkpt>
      <trkpt lat="39.539762" lon="-7.027990">
        <ele>311.3</ele>
        <time>1970-01-01T00:00:00Z</time>
      </trkpt>
      <trkpt lat="39.539822" lon="-7.027863">
        <ele>311.2</ele>
        <time>1970-01-01T00:00:00Z</time>
      </trkpt>
      <trkpt lat="39.540018" lon="-7.027549">
        <ele>311.4</ele>
        <time>1970-01-01T00:00:00Z</time>
      </trkpt>
      <trkpt lat="39.540196" lon="-7.027321">
        <ele>312.2</ele>
        <time>1970-01-01T00:00:00Z</time>
      </trkpt>
      <trkpt lat="39.540337" lon="-7.027088">
        <ele>312.5</ele>
        <time>1970-01-01T00:00:00Z</time>
      </trkpt>
      <trkpt lat="39.540482" lon="-7.026815">
        <ele>311.9</ele>
        <time>1970-01-01T00:00:00Z</time>
      </trkpt>
      <trkpt lat="39.540817" lon="-7.026340">
        <ele>311.5</ele>
        <time>1970-01-01T00:00:00Z</time>
      </trkpt>
      <trkpt lat="39.540876" lon="-7.026272">
        <ele>311.2</ele>
        <time>1970-01-01T00:00:00Z</time>
      </trkpt>
      <trkpt lat="39.541230" lon="-7.025972">
        <ele>311.8</ele>
        <time>1970-01-01T00:00:00Z</time>
      </trkpt>
      <trkpt lat="39.541487" lon="-7.025734">
        <ele>313.5</ele>
        <time>1970-01-01T00:00:00Z</time>
      </trkpt>
      <trkpt lat="39.541580" lon="-7.025673">
        <ele>314.3</ele>
        <time>1970-01-01T00:00:00Z</time>
      </trkpt>
      <trkpt lat="39.541803" lon="-7.025577">
        <ele>316.2</ele>
        <time>1970-01-01T00:00:00Z</time>
      </trkpt>
      <trkpt lat="39.541865" lon="-7.025502">
        <ele>316.7</ele>
        <time>1970-01-01T00:00:00Z</time>
      </trkpt>
      <trkpt lat="39.542127" lon="-7.025075">
        <ele>319.0</ele>
        <time>1970-01-01T00:00:00Z</time>
      </trkpt>
      <trkpt lat="39.542178" lon="-7.024944">
        <ele>319.4</ele>
        <time>1970-01-01T00:00:00Z</time>
      </trkpt>
      <trkpt lat="39.542248" lon="-7.024819">
        <ele>320.0</ele>
        <time>1970-01-01T00:00:00Z</time>
      </trkpt>
      <trkpt lat="39.542549" lon="-7.024642">
        <ele>320.0</ele>
        <time>1970-01-01T00:00:00Z</time>
      </trkpt>
      <trkpt lat="39.542675" lon="-7.024552">
        <ele>320.0</ele>
        <time>1970-01-01T00:00:00Z</time>
      </trkpt>
      <trkpt lat="39.542847" lon="-7.024374">
        <ele>318.7</ele>
        <time>1970-01-01T00:00:00Z</time>
      </trkpt>
      <trkpt lat="39.543039" lon="-7.024200">
        <ele>317.3</ele>
        <time>1970-01-01T00:00:00Z</time>
      </trkpt>
      <trkpt lat="39.543221" lon="-7.024103">
        <ele>316.6</ele>
        <time>1970-01-01T00:00:00Z</time>
      </trkpt>
      <trkpt lat="39.543401" lon="-7.023894">
        <ele>314.2</ele>
        <time>1970-01-01T00:00:00Z</time>
      </trkpt>
      <trkpt lat="39.543910" lon="-7.023104">
        <ele>310.7</ele>
        <time>1970-01-01T00:00:00Z</time>
      </trkpt>
      <trkpt lat="39.544150" lon="-7.022670">
        <ele>307.9</ele>
        <time>1970-01-01T00:00:00Z</time>
      </trkpt>
      <trkpt lat="39.544406" lon="-7.022337">
        <ele>306.8</ele>
        <time>1970-01-01T00:00:00Z</time>
      </trkpt>
      <trkpt lat="39.544423" lon="-7.022274">
        <ele>306.7</ele>
        <time>1970-01-01T00:00:00Z</time>
      </trkpt>
      <trkpt lat="39.544534" lon="-7.022172">
        <ele>305.9</ele>
        <time>1970-01-01T00:00:00Z</time>
      </trkpt>
      <trkpt lat="39.544570" lon="-7.022108">
        <ele>305.5</ele>
        <time>1970-01-01T00:00:00Z</time>
      </trkpt>
      <trkpt lat="39.544885" lon="-7.021872">
        <ele>302.7</ele>
        <time>1970-01-01T00:00:00Z</time>
      </trkpt>
      <trkpt lat="39.545427" lon="-7.021367">
        <ele>296.0</ele>
        <time>1970-01-01T00:00:00Z</time>
      </trkpt>
      <trkpt lat="39.545634" lon="-7.021187">
        <ele>293.9</ele>
        <time>1970-01-01T00:00:00Z</time>
      </trkpt>
      <trkpt lat="39.545760" lon="-7.021098">
        <ele>293.2</ele>
        <time>1970-01-01T00:00:00Z</time>
      </trkpt>
      <trkpt lat="39.545951" lon="-7.021060">
        <ele>293.0</ele>
        <time>1970-01-01T00:00:00Z</time>
      </trkpt>
      <trkpt lat="39.546458" lon="-7.020892">
        <ele>293.2</ele>
        <time>1970-01-01T00:00:00Z</time>
      </trkpt>
      <trkpt lat="39.546641" lon="-7.020726">
        <ele>294.5</ele>
        <time>1970-01-01T00:00:00Z</time>
      </trkpt>
      <trkpt lat="39.546705" lon="-7.020643">
        <ele>294.9</ele>
        <time>1970-01-01T00:00:00Z</time>
      </trkpt>
      <trkpt lat="39.546731" lon="-7.020385">
        <ele>295.0</ele>
        <time>1970-01-01T00:00:00Z</time>
      </trkpt>
      <trkpt lat="39.546782" lon="-7.020342">
        <ele>295.0</ele>
        <time>1970-01-01T00:00:00Z</time>
      </trkpt>
      <trkpt lat="39.547019" lon="-7.020241">
        <ele>295.0</ele>
        <time>1970-01-01T00:00:00Z</time>
      </trkpt>
      <trkpt lat="39.547296" lon="-7.020060">
        <ele>295.3</ele>
        <time>1970-01-01T00:00:00Z</time>
      </trkpt>
      <trkpt lat="39.547634" lon="-7.019628">
        <ele>293.9</ele>
        <time>1970-01-01T00:00:00Z</time>
      </trkpt>
      <trkpt lat="39.547653" lon="-7.019575">
        <ele>293.9</ele>
        <time>1970-01-01T00:00:00Z</time>
      </trkpt>
      <trkpt lat="39.547800" lon="-7.019446">
        <ele>293.0</ele>
        <time>1970-01-01T00:00:00Z</time>
      </trkpt>
      <trkpt lat="39.547852" lon="-7.019382">
        <ele>293.2</ele>
        <time>1970-01-01T00:00:00Z</time>
      </trkpt>
      <trkpt lat="39.547907" lon="-7.019225">
        <ele>293.5</ele>
        <time>1970-01-01T00:00:00Z</time>
      </trkpt>
      <trkpt lat="39.548018" lon="-7.019054">
        <ele>293.7</ele>
        <time>1970-01-01T00:00:00Z</time>
      </trkpt>
      <trkpt lat="39.548103" lon="-7.018788">
        <ele>294.3</ele>
        <time>1970-01-01T00:00:00Z</time>
      </trkpt>
      <trkpt lat="39.548176" lon="-7.018610">
        <ele>294.6</ele>
        <time>1970-01-01T00:00:00Z</time>
      </trkpt>
      <trkpt lat="39.548455" lon="-7.017621">
        <ele>291.3</ele>
        <time>1970-01-01T00:00:00Z</time>
      </trkpt>
      <trkpt lat="39.548501" lon="-7.017556">
        <ele>290.8</ele>
        <time>1970-01-01T00:00:00Z</time>
      </trkpt>
      <trkpt lat="39.548590" lon="-7.017315">
        <ele>289.4</ele>
        <time>1970-01-01T00:00:00Z</time>
      </trkpt>
      <trkpt lat="39.548695" lon="-7.017151">
        <ele>288.2</ele>
        <time>1970-01-01T00:00:00Z</time>
      </trkpt>
      <trkpt lat="39.548902" lon="-7.016937">
        <ele>287.6</ele>
        <time>1970-01-01T00:00:00Z</time>
      </trkpt>
      <trkpt lat="39.549107" lon="-7.016646">
        <ele>286.4</ele>
        <time>1970-01-01T00:00:00Z</time>
      </trkpt>
      <trkpt lat="39.549299" lon="-7.016426">
        <ele>286.5</ele>
        <time>1970-01-01T00:00:00Z</time>
      </trkpt>
      <trkpt lat="39.549393" lon="-7.016340">
        <ele>286.1</ele>
        <time>1970-01-01T00:00:00Z</time>
      </trkpt>
      <trkpt lat="39.549446" lon="-7.016249">
        <ele>285.9</ele>
        <time>1970-01-01T00:00:00Z</time>
      </trkpt>
      <trkpt lat="39.549513" lon="-7.016227">
        <ele>285.6</ele>
        <time>1970-01-01T00:00:00Z</time>
      </trkpt>
      <trkpt lat="39.549603" lon="-7.016066">
        <ele>285.2</ele>
        <time>1970-01-01T00:00:00Z</time>
      </trkpt>
      <trkpt lat="39.549674" lon="-7.016018">
        <ele>284.9</ele>
        <time>1970-01-01T00:00:00Z</time>
      </trkpt>
      <trkpt lat="39.549834" lon="-7.015758">
        <ele>284.2</ele>
        <time>1970-01-01T00:00:00Z</time>
      </trkpt>
      <trkpt lat="39.550107" lon="-7.015494">
        <ele>282.0</ele>
        <time>1970-01-01T00:00:00Z</time>
      </trkpt>
      <trkpt lat="39.550131" lon="-7.015418">
        <ele>281.5</ele>
        <time>1970-01-01T00:00:00Z</time>
      </trkpt>
      <trkpt lat="39.550162" lon="-7.015368">
        <ele>281.1</ele>
        <time>1970-01-01T00:00:00Z</time>
      </trkpt>
      <trkpt lat="39.550218" lon="-7.015312">
        <ele>280.6</ele>
        <time>1970-01-01T00:00:00Z</time>
      </trkpt>
      <trkpt lat="39.550639" lon="-7.015100">
        <ele>277.7</ele>
        <time>1970-01-01T00:00:00Z</time>
      </trkpt>
      <trkpt lat="39.550989" lon="-7.015037">
        <ele>275.5</ele>
        <time>1970-01-01T00:00:00Z</time>
      </trkpt>
      <trkpt lat="39.551149" lon="-7.014988">
        <ele>275.2</ele>
        <time>1970-01-01T00:00:00Z</time>
      </trkpt>
      <trkpt lat="39.551372" lon="-7.014957">
        <ele>274.9</ele>
        <time>1970-01-01T00:00:00Z</time>
      </trkpt>
      <trkpt lat="39.551564" lon="-7.014997">
        <ele>274.2</ele>
        <time>1970-01-01T00:00:00Z</time>
      </trkpt>
      <trkpt lat="39.551783" lon="-7.015161">
        <ele>273.7</ele>
        <time>1970-01-01T00:00:00Z</time>
      </trkpt>
      <trkpt lat="39.551896" lon="-7.015262">
        <ele>272.6</ele>
        <time>1970-01-01T00:00:00Z</time>
      </trkpt>
      <trkpt lat="39.552044" lon="-7.015261">
        <ele>272.0</ele>
        <time>1970-01-01T00:00:00Z</time>
      </trkpt>
      <trkpt lat="39.552223" lon="-7.015233">
        <ele>271.9</ele>
        <time>1970-01-01T00:00:00Z</time>
      </trkpt>
      <trkpt lat="39.552319" lon="-7.015235">
        <ele>271.5</ele>
        <time>1970-01-01T00:00:00Z</time>
      </trkpt>
      <trkpt lat="39.552725" lon="-7.015192">
        <ele>269.4</ele>
        <time>1970-01-01T00:00:00Z</time>
      </trkpt>
      <trkpt lat="39.552987" lon="-7.015140">
        <ele>267.2</ele>
        <time>1970-01-01T00:00:00Z</time>
      </trkpt>
      <trkpt lat="39.553303" lon="-7.015063">
        <ele>264.4</ele>
        <time>1970-01-01T00:00:00Z</time>
      </trkpt>
      <trkpt lat="39.553498" lon="-7.014982">
        <ele>263.4</ele>
        <time>1970-01-01T00:00:00Z</time>
      </trkpt>
      <trkpt lat="39.553707" lon="-7.014919">
        <ele>262.5</ele>
        <time>1970-01-01T00:00:00Z</time>
      </trkpt>
      <trkpt lat="39.553834" lon="-7.014803">
        <ele>261.9</ele>
        <time>1970-01-01T00:00:00Z</time>
      </trkpt>
      <trkpt lat="39.554350" lon="-7.014448">
        <ele>259.1</ele>
        <time>1970-01-01T00:00:00Z</time>
      </trkpt>
      <trkpt lat="39.554397" lon="-7.014389">
        <ele>259.1</ele>
        <time>1970-01-01T00:00:00Z</time>
      </trkpt>
      <trkpt lat="39.554470" lon="-7.014330">
        <ele>259.0</ele>
        <time>1970-01-01T00:00:00Z</time>
      </trkpt>
      <trkpt lat="39.554605" lon="-7.014169">
        <ele>259.5</ele>
        <time>1970-01-01T00:00:00Z</time>
      </trkpt>
      <trkpt lat="39.554655" lon="-7.014081">
        <ele>259.4</ele>
        <time>1970-01-01T00:00:00Z</time>
      </trkpt>
      <trkpt lat="39.554701" lon="-7.014039">
        <ele>259.4</ele>
        <time>1970-01-01T00:00:00Z</time>
      </trkpt>
      <trkpt lat="39.554854" lon="-7.013778">
        <ele>259.3</ele>
        <time>1970-01-01T00:00:00Z</time>
      </trkpt>
      <trkpt lat="39.554921" lon="-7.013729">
        <ele>259.3</ele>
        <time>1970-01-01T00:00:00Z</time>
      </trkpt>
      <trkpt lat="39.555009" lon="-7.013628">
        <ele>259.0</ele>
        <time>1970-01-01T00:00:00Z</time>
      </trkpt>
      <trkpt lat="39.555173" lon="-7.013329">
        <ele>257.9</ele>
        <time>1970-01-01T00:00:00Z</time>
      </trkpt>
      <trkpt lat="39.555312" lon="-7.013240">
        <ele>258.1</ele>
        <time>1970-01-01T00:00:00Z</time>
      </trkpt>
      <trkpt lat="39.555480" lon="-7.013167">
        <ele>257.8</ele>
        <time>1970-01-01T00:00:00Z</time>
      </trkpt>
      <trkpt lat="39.555575" lon="-7.013109">
        <ele>257.3</ele>
        <time>1970-01-01T00:00:00Z</time>
      </trkpt>
      <trkpt lat="39.555797" lon="-7.012930">
        <ele>255.8</ele>
        <time>1970-01-01T00:00:00Z</time>
      </trkpt>
      <trkpt lat="39.555879" lon="-7.012920">
        <ele>255.7</ele>
        <time>1970-01-01T00:00:00Z</time>
      </trkpt>
      <trkpt lat="39.556074" lon="-7.012862">
        <ele>254.4</ele>
        <time>1970-01-01T00:00:00Z</time>
      </trkpt>
      <trkpt lat="39.556428" lon="-7.012677">
        <ele>251.8</ele>
        <time>1970-01-01T00:00:00Z</time>
      </trkpt>
      <trkpt lat="39.556609" lon="-7.012566">
        <ele>251.2</ele>
        <time>1970-01-01T00:00:00Z</time>
      </trkpt>
      <trkpt lat="39.556741" lon="-7.012438">
        <ele>249.8</ele>
        <time>1970-01-01T00:00:00Z</time>
      </trkpt>
      <trkpt lat="39.556955" lon="-7.012183">
        <ele>247.4</ele>
        <time>1970-01-01T00:00:00Z</time>
      </trkpt>
      <trkpt lat="39.557283" lon="-7.011507">
        <ele>243.7</ele>
        <time>1970-01-01T00:00:00Z</time>
      </trkpt>
      <trkpt lat="39.557368" lon="-7.011279">
        <ele>242.7</ele>
        <time>1970-01-01T00:00:00Z</time>
      </trkpt>
      <trkpt lat="39.557408" lon="-7.011206">
        <ele>242.4</ele>
        <time>1970-01-01T00:00:00Z</time>
      </trkpt>
      <trkpt lat="39.557621" lon="-7.011086">
        <ele>242.0</ele>
        <time>1970-01-01T00:00:00Z</time>
      </trkpt>
      <trkpt lat="39.557710" lon="-7.011089">
        <ele>242.0</ele>
        <time>1970-01-01T00:00:00Z</time>
      </trkpt>
      <trkpt lat="39.557872" lon="-7.011125">
        <ele>242.6</ele>
        <time>1970-01-01T00:00:00Z</time>
      </trkpt>
      <trkpt lat="39.558040" lon="-7.011109">
        <ele>243.2</ele>
        <time>1970-01-01T00:00:00Z</time>
      </trkpt>
      <trkpt lat="39.558176" lon="-7.011063">
        <ele>243.8</ele>
        <time>1970-01-01T00:00:00Z</time>
      </trkpt>
      <trkpt lat="39.558315" lon="-7.010992">
        <ele>244.2</ele>
        <time>1970-01-01T00:00:00Z</time>
      </trkpt>
      <trkpt lat="39.558610" lon="-7.010935">
        <ele>244.2</ele>
        <time>1970-01-01T00:00:00Z</time>
      </trkpt>
      <trkpt lat="39.558813" lon="-7.010869">
        <ele>244.0</ele>
        <time>1970-01-01T00:00:00Z</time>
      </trkpt>
      <trkpt lat="39.559277" lon="-7.010680">
        <ele>241.5</ele>
        <time>1970-01-01T00:00:00Z</time>
      </trkpt>
      <trkpt lat="39.559360" lon="-7.010561">
        <ele>241.0</ele>
        <time>1970-01-01T00:00:00Z</time>
      </trkpt>
      <trkpt lat="39.559583" lon="-7.010448">
        <ele>239.3</ele>
        <time>1970-01-01T00:00:00Z</time>
      </trkpt>
      <trkpt lat="39.559945" lon="-7.010210">
        <ele>238.1</ele>
        <time>1970-01-01T00:00:00Z</time>
      </trkpt>
      <trkpt lat="39.560013" lon="-7.010130">
        <ele>237.8</ele>
        <time>1970-01-01T00:00:00Z</time>
      </trkpt>
      <trkpt lat="39.560230" lon="-7.010058">
        <ele>237.5</ele>
        <time>1970-01-01T00:00:00Z</time>
      </trkpt>
      <trkpt lat="39.560518" lon="-7.009934">
        <ele>238.8</ele>
        <time>1970-01-01T00:00:00Z</time>
      </trkpt>
      <trkpt lat="39.560894" lon="-7.009703">
        <ele>239.9</ele>
        <time>1970-01-01T00:00:00Z</time>
      </trkpt>
      <trkpt lat="39.560918" lon="-7.009680">
        <ele>239.9</ele>
        <time>1970-01-01T00:00:00Z</time>
      </trkpt>
      <trkpt lat="39.560886" lon="-7.009568">
        <ele>239.4</ele>
        <time>1970-01-01T00:00:00Z</time>
      </trkpt>
      <trkpt lat="39.560851" lon="-7.009507">
        <ele>238.9</ele>
        <time>1970-01-01T00:00:00Z</time>
      </trkpt>
      <trkpt lat="39.560873" lon="-7.009393">
        <ele>238.1</ele>
        <time>1970-01-01T00:00:00Z</time>
      </trkpt>
      <trkpt lat="39.560898" lon="-7.009334">
        <ele>237.9</ele>
        <time>1970-01-01T00:00:00Z</time>
      </trkpt>
      <trkpt lat="39.560959" lon="-7.009290">
        <ele>238.0</ele>
        <time>1970-01-01T00:00:00Z</time>
      </trkpt>
      <trkpt lat="39.560962" lon="-7.009185">
        <ele>236.8</ele>
        <time>1970-01-01T00:00:00Z</time>
      </trkpt>
      <trkpt lat="39.561023" lon="-7.009158">
        <ele>236.8</ele>
        <time>1970-01-01T00:00:00Z</time>
      </trkpt>
      <trkpt lat="39.561206" lon="-7.009134">
        <ele>236.9</ele>
        <time>1970-01-01T00:00:00Z</time>
      </trkpt>
      <trkpt lat="39.561417" lon="-7.009204">
        <ele>236.7</ele>
        <time>1970-01-01T00:00:00Z</time>
      </trkpt>
      <trkpt lat="39.561507" lon="-7.009101">
        <ele>235.3</ele>
        <time>1970-01-01T00:00:00Z</time>
      </trkpt>
      <trkpt lat="39.561676" lon="-7.008951">
        <ele>232.1</ele>
        <time>1970-01-01T00:00:00Z</time>
      </trkpt>
      <trkpt lat="39.561736" lon="-7.008925">
        <ele>231.5</ele>
        <time>1970-01-01T00:00:00Z</time>
      </trkpt>
      <trkpt lat="39.562060" lon="-7.008711">
        <ele>227.1</ele>
        <time>1970-01-01T00:00:00Z</time>
      </trkpt>
      <trkpt lat="39.562410" lon="-7.008511">
        <ele>223.3</ele>
        <time>1970-01-01T00:00:00Z</time>
      </trkpt>
      <trkpt lat="39.562518" lon="-7.008344">
        <ele>221.5</ele>
        <time>1970-01-01T00:00:00Z</time>
      </trkpt>
      <trkpt lat="39.562568" lon="-7.008303">
        <ele>220.9</ele>
        <time>1970-01-01T00:00:00Z</time>
      </trkpt>
      <trkpt lat="39.562872" lon="-7.008294">
        <ele>219.7</ele>
        <time>1970-01-01T00:00:00Z</time>
      </trkpt>
      <trkpt lat="39.562895" lon="-7.008198">
        <ele>219.3</ele>
        <time>1970-01-01T00:00:00Z</time>
      </trkpt>
      <trkpt lat="39.562947" lon="-7.008156">
        <ele>219.1</ele>
        <time>1970-01-01T00:00:00Z</time>
      </trkpt>
      <trkpt lat="39.562998" lon="-7.008140">
        <ele>219.1</ele>
        <time>1970-01-01T00:00:00Z</time>
      </trkpt>
      <trkpt lat="39.563149" lon="-7.007984">
        <ele>218.3</ele>
        <time>1970-01-01T00:00:00Z</time>
      </trkpt>
      <trkpt lat="39.563264" lon="-7.007907">
        <ele>218.0</ele>
        <time>1970-01-01T00:00:00Z</time>
      </trkpt>
      <trkpt lat="39.563461" lon="-7.007801">
        <ele>217.4</ele>
        <time>1970-01-01T00:00:00Z</time>
      </trkpt>
      <trkpt lat="39.563552" lon="-7.007768">
        <ele>217.5</ele>
        <time>1970-01-01T00:00:00Z</time>
      </trkpt>
      <trkpt lat="39.563664" lon="-7.007781">
        <ele>217.7</ele>
        <time>1970-01-01T00:00:00Z</time>
      </trkpt>
      <trkpt lat="39.563997" lon="-7.007561">
        <ele>218.0</ele>
        <time>1970-01-01T00:00:00Z</time>
      </trkpt>
      <trkpt lat="39.564214" lon="-7.007442">
        <ele>219.1</ele>
        <time>1970-01-01T00:00:00Z</time>
      </trkpt>
      <trkpt lat="39.564299" lon="-7.007423">
        <ele>219.7</ele>
        <time>1970-01-01T00:00:00Z</time>
      </trkpt>
      <trkpt lat="39.564444" lon="-7.007437">
        <ele>221.1</ele>
        <time>1970-01-01T00:00:00Z</time>
      </trkpt>
      <trkpt lat="39.564647" lon="-7.007426">
        <ele>223.5</ele>
        <time>1970-01-01T00:00:00Z</time>
      </trkpt>
      <trkpt lat="39.564824" lon="-7.007469">
        <ele>225.7</ele>
        <time>1970-01-01T00:00:00Z</time>
      </trkpt>
      <trkpt lat="39.564902" lon="-7.007445">
        <ele>226.2</ele>
        <time>1970-01-01T00:00:00Z</time>
      </trkpt>
      <trkpt lat="39.564989" lon="-7.007328">
        <ele>225.5</ele>
        <time>1970-01-01T00:00:00Z</time>
      </trkpt>
      <trkpt lat="39.565089" lon="-7.007263">
        <ele>225.6</ele>
        <time>1970-01-01T00:00:00Z</time>
      </trkpt>
      <trkpt lat="39.565435" lon="-7.006993">
        <ele>226.2</ele>
        <time>1970-01-01T00:00:00Z</time>
      </trkpt>
      <trkpt lat="39.565605" lon="-7.006808">
        <ele>225.5</ele>
        <time>1970-01-01T00:00:00Z</time>
      </trkpt>
      <trkpt lat="39.565754" lon="-7.006730">
        <ele>226.0</ele>
        <time>1970-01-01T00:00:00Z</time>
      </trkpt>
      <trkpt lat="39.566049" lon="-7.006613">
        <ele>228.6</ele>
        <time>1970-01-01T00:00:00Z</time>
      </trkpt>
      <trkpt lat="39.566112" lon="-7.006565">
        <ele>229.0</ele>
        <time>1970-01-01T00:00:00Z</time>
      </trkpt>
      <trkpt lat="39.566160" lon="-7.006504">
        <ele>228.9</ele>
        <time>1970-01-01T00:00:00Z</time>
      </trkpt>
      <trkpt lat="39.566216" lon="-7.006478">
        <ele>229.1</ele>
        <time>1970-01-01T00:00:00Z</time>
      </trkpt>
      <trkpt lat="39.566272" lon="-7.006485">
        <ele>229.7</ele>
        <time>1970-01-01T00:00:00Z</time>
      </trkpt>
      <trkpt lat="39.566377" lon="-7.006456">
        <ele>231.2</ele>
        <time>1970-01-01T00:00:00Z</time>
      </trkpt>
      <trkpt lat="39.566546" lon="-7.006312">
        <ele>233.5</ele>
        <time>1970-01-01T00:00:00Z</time>
      </trkpt>
      <trkpt lat="39.566623" lon="-7.006288">
        <ele>234.3</ele>
        <time>1970-01-01T00:00:00Z</time>
      </trkpt>
      <trkpt lat="39.566715" lon="-7.006210">
        <ele>235.0</ele>
        <time>1970-01-01T00:00:00Z</time>
      </trkpt>
      <trkpt lat="39.566890" lon="-7.006027">
        <ele>236.9</ele>
        <time>1970-01-01T00:00:00Z</time>
      </trkpt>
      <trkpt lat="39.567013" lon="-7.005985">
        <ele>238.9</ele>
        <time>1970-01-01T00:00:00Z</time>
      </trkpt>
      <trkpt lat="39.567370" lon="-7.005476">
        <ele>241.8</ele>
        <time>1970-01-01T00:00:00Z</time>
      </trkpt>
      <trkpt lat="39.567581" lon="-7.005321">
        <ele>242.5</ele>
        <time>1970-01-01T00:00:00Z</time>
      </trkpt>
      <trkpt lat="39.567796" lon="-7.005225">
        <ele>243.6</ele>
        <time>1970-01-01T00:00:00Z</time>
      </trkpt>
      <trkpt lat="39.567930" lon="-7.005109">
        <ele>244.9</ele>
        <time>1970-01-01T00:00:00Z</time>
      </trkpt>
      <trkpt lat="39.568207" lon="-7.004825">
        <ele>247.6</ele>
        <time>1970-01-01T00:00:00Z</time>
      </trkpt>
      <trkpt lat="39.568277" lon="-7.004782">
        <ele>248.6</ele>
        <time>1970-01-01T00:00:00Z</time>
      </trkpt>
      <trkpt lat="39.568373" lon="-7.004755">
        <ele>249.7</ele>
        <time>1970-01-01T00:00:00Z</time>
      </trkpt>
      <trkpt lat="39.568648" lon="-7.004843">
        <ele>252.2</ele>
        <time>1970-01-01T00:00:00Z</time>
      </trkpt>
      <trkpt lat="39.568779" lon="-7.004823">
        <ele>253.3</ele>
        <time>1970-01-01T00:00:00Z</time>
      </trkpt>
      <trkpt lat="39.568848" lon="-7.004744">
        <ele>253.9</ele>
        <time>1970-01-01T00:00:00Z</time>
      </trkpt>
      <trkpt lat="39.568886" lon="-7.004578">
        <ele>254.0</ele>
        <time>1970-01-01T00:00:00Z</time>
      </trkpt>
      <trkpt lat="39.568801" lon="-7.004458">
        <ele>252.7</ele>
        <time>1970-01-01T00:00:00Z</time>
      </trkpt>
      <trkpt lat="39.568703" lon="-7.004353">
        <ele>251.6</ele>
        <time>1970-01-01T00:00:00Z</time>
      </trkpt>
      <trkpt lat="39.568669" lon="-7.004194">
        <ele>251.2</ele>
        <time>1970-01-01T00:00:00Z</time>
      </trkpt>
      <trkpt lat="39.568701" lon="-7.004095">
        <ele>250.7</ele>
        <time>1970-01-01T00:00:00Z</time>
      </trkpt>
      <trkpt lat="39.568879" lon="-7.003891">
        <ele>249.7</ele>
        <time>1970-01-01T00:00:00Z</time>
      </trkpt>
      <trkpt lat="39.568972" lon="-7.003738">
        <ele>248.8</ele>
        <time>1970-01-01T00:00:00Z</time>
      </trkpt>
      <trkpt lat="39.569036" lon="-7.003606">
        <ele>248.0</ele>
        <time>1970-01-01T00:00:00Z</time>
      </trkpt>
      <trkpt lat="39.569099" lon="-7.003554">
        <ele>247.7</ele>
        <time>1970-01-01T00:00:00Z</time>
      </trkpt>
      <trkpt lat="39.569213" lon="-7.003496">
        <ele>247.7</ele>
        <time>1970-01-01T00:00:00Z</time>
      </trkpt>
      <trkpt lat="39.569339" lon="-7.003454">
        <ele>248.0</ele>
        <time>1970-01-01T00:00:00Z</time>
      </trkpt>
      <trkpt lat="39.569465" lon="-7.003444">
        <ele>248.5</ele>
        <time>1970-01-01T00:00:00Z</time>
      </trkpt>
      <trkpt lat="39.569578" lon="-7.003357">
        <ele>248.7</ele>
        <time>1970-01-01T00:00:00Z</time>
      </trkpt>
      <trkpt lat="39.569680" lon="-7.003240">
        <ele>249.1</ele>
        <time>1970-01-01T00:00:00Z</time>
      </trkpt>
      <trkpt lat="39.569766" lon="-7.003168">
        <ele>249.2</ele>
        <time>1970-01-01T00:00:00Z</time>
      </trkpt>
      <trkpt lat="39.570005" lon="-7.003044">
        <ele>248.5</ele>
        <time>1970-01-01T00:00:00Z</time>
      </trkpt>
      <trkpt lat="39.570299" lon="-7.002916">
        <ele>247.8</ele>
        <time>1970-01-01T00:00:00Z</time>
      </trkpt>
      <trkpt lat="39.570502" lon="-7.002780">
        <ele>246.0</ele>
        <time>1970-01-01T00:00:00Z</time>
      </trkpt>
      <trkpt lat="39.570554" lon="-7.002494">
        <ele>241.0</ele>
        <time>1970-01-01T00:00:00Z</time>
      </trkpt>
      <trkpt lat="39.570579" lon="-7.002412">
        <ele>239.6</ele>
        <time>1970-01-01T00:00:00Z</time>
      </trkpt>
      <trkpt lat="39.570974" lon="-7.002028">
        <ele>231.0</ele>
        <time>1970-01-01T00:00:00Z</time>
      </trkpt>
      <trkpt lat="39.571153" lon="-7.001810">
        <ele>226.7</ele>
        <time>1970-01-01T00:00:00Z</time>
      </trkpt>
      <trkpt lat="39.571218" lon="-7.001764">
        <ele>225.3</ele>
        <time>1970-01-01T00:00:00Z</time>
      </trkpt>
      <trkpt lat="39.571272" lon="-7.001780">
        <ele>224.8</ele>
        <time>1970-01-01T00:00:00Z</time>
      </trkpt>
      <trkpt lat="39.571465" lon="-7.001719">
        <ele>221.2</ele>
        <time>1970-01-01T00:00:00Z</time>
      </trkpt>
      <trkpt lat="39.571524" lon="-7.001732">
        <ele>220.2</ele>
        <time>1970-01-01T00:00:00Z</time>
      </trkpt>
      <trkpt lat="39.571613" lon="-7.001728">
        <ele>218.4</ele>
        <time>1970-01-01T00:00:00Z</time>
      </trkpt>
      <trkpt lat="39.571698" lon="-7.001641">
        <ele>216.5</ele>
        <time>1970-01-01T00:00:00Z</time>
      </trkpt>
      <trkpt lat="39.571919" lon="-7.001312">
        <ele>208.1</ele>
        <time>1970-01-01T00:00:00Z</time>
      </trkpt>
      <trkpt lat="39.571990" lon="-7.001296">
        <ele>207.1</ele>
        <time>1970-01-01T00:00:00Z</time>
      </trkpt>
      <trkpt lat="39.572117" lon="-7.001215">
        <ele>204.5</ele>
        <time>1970-01-01T00:00:00Z</time>
      </trkpt>
      <trkpt lat="39.572157" lon="-7.001168">
        <ele>203.2</ele>
        <time>1970-01-01T00:00:00Z</time>
      </trkpt>
      <trkpt lat="39.572335" lon="-7.001030">
        <ele>197.8</ele>
        <time>1970-01-01T00:00:00Z</time>
      </trkpt>
      <trkpt lat="39.572476" lon="-7.000804">
        <ele>193.5</ele>
        <time>1970-01-01T00:00:00Z</time>
      </trkpt>
      <trkpt lat="39.572580" lon="-7.000557">
        <ele>191.2</ele>
        <time>1970-01-01T00:00:00Z</time>
      </trkpt>
      <trkpt lat="39.572666" lon="-7.000502">
        <ele>189.9</ele>
        <time>1970-01-01T00:00:00Z</time>
      </trkpt>
      <trkpt lat="39.572844" lon="-7.000422">
        <ele>186.8</ele>
        <time>1970-01-01T00:00:00Z</time>
      </trkpt>
      <trkpt lat="39.573116" lon="-7.000238">
        <ele>180.4</ele>
        <time>1970-01-01T00:00:00Z</time>
      </trkpt>
      <trkpt lat="39.573203" lon="-7.000203">
        <ele>177.7</ele>
        <time>1970-01-01T00:00:00Z</time>
      </trkpt>
      <trkpt lat="39.573335" lon="-7.000125">
        <ele>173.3</ele>
        <time>1970-01-01T00:00:00Z</time>
      </trkpt>
      <trkpt lat="39.573452" lon="-7.000166">
        <ele>169.1</ele>
        <time>1970-01-01T00:00:00Z</time>
      </trkpt>
      <trkpt lat="39.573542" lon="-7.000149">
        <ele>165.5</ele>
        <time>1970-01-01T00:00:00Z</time>
      </trkpt>
      <trkpt lat="39.573654" lon="-7.000086">
        <ele>160.8</ele>
        <time>1970-01-01T00:00:00Z</time>
      </trkpt>
      <trkpt lat="39.573731" lon="-7.000010">
        <ele>157.7</ele>
        <time>1970-01-01T00:00:00Z</time>
      </trkpt>
      <trkpt lat="39.573810" lon="-6.999888">
        <ele>154.8</ele>
        <time>1970-01-01T00:00:00Z</time>
      </trkpt>
      <trkpt lat="39.573862" lon="-6.999766">
        <ele>152.6</ele>
        <time>1970-01-01T00:00:00Z</time>
      </trkpt>
      <trkpt lat="39.573899" lon="-6.998842">
        <ele>152.4</ele>
        <time>1970-01-01T00:00:00Z</time>
      </trkpt>
      <trkpt lat="39.573896" lon="-6.998654">
        <ele>152.3</ele>
        <time>1970-01-01T00:00:00Z</time>
      </trkpt>
      <trkpt lat="39.573841" lon="-6.998427">
        <ele>153.2</ele>
        <time>1970-01-01T00:00:00Z</time>
      </trkpt>
      <trkpt lat="39.573702" lon="-6.998156">
        <ele>155.9</ele>
        <time>1970-01-01T00:00:00Z</time>
      </trkpt>
      <trkpt lat="39.573878" lon="-6.998087">
        <ele>150.1</ele>
        <time>1970-01-01T00:00:00Z</time>
      </trkpt>
      <trkpt lat="39.574111" lon="-6.997948">
        <ele>146.0</ele>
        <time>1970-01-01T00:00:00Z</time>
      </trkpt>
      <trkpt lat="39.574391" lon="-6.997747">
        <ele>146.6</ele>
        <time>1970-01-01T00:00:00Z</time>
      </trkpt>
      <trkpt lat="39.574492" lon="-6.997639">
        <ele>147.9</ele>
        <time>1970-01-01T00:00:00Z</time>
      </trkpt>
      <trkpt lat="39.574548" lon="-6.997455">
        <ele>149.7</ele>
        <time>1970-01-01T00:00:00Z</time>
      </trkpt>
      <trkpt lat="39.574541" lon="-6.997307">
        <ele>150.9</ele>
        <time>1970-01-01T00:00:00Z</time>
      </trkpt>
      <trkpt lat="39.574500" lon="-6.997066">
        <ele>154.0</ele>
        <time>1970-01-01T00:00:00Z</time>
      </trkpt>
      <trkpt lat="39.574376" lon="-6.997029">
        <ele>153.1</ele>
        <time>1970-01-01T00:00:00Z</time>
      </trkpt>
      <trkpt lat="39.574185" lon="-6.996819">
        <ele>156.0</ele>
        <time>1970-01-01T00:00:00Z</time>
      </trkpt>
      <trkpt lat="39.574121" lon="-6.996724">
        <ele>157.4</ele>
        <time>1970-01-01T00:00:00Z</time>
      </trkpt>
      <trkpt lat="39.574095" lon="-6.996643">
        <ele>158.3</ele>
        <time>1970-01-01T00:00:00Z</time>
      </trkpt>
      <trkpt lat="39.574142" lon="-6.996553">
        <ele>159.5</ele>
        <time>1970-01-01T00:00:00Z</time>
      </trkpt>
      <trkpt lat="39.574238" lon="-6.996494">
        <ele>161.1</ele>
        <time>1970-01-01T00:00:00Z</time>
      </trkpt>
      <trkpt lat="39.574720" lon="-6.996436">
        <ele>167.5</ele>
        <time>1970-01-01T00:00:00Z</time>
      </trkpt>
      <trkpt lat="39.574867" lon="-6.996444">
        <ele>170.1</ele>
        <time>1970-01-01T00:00:00Z</time>
      </trkpt>
      <trkpt lat="39.574959" lon="-6.996476">
        <ele>170.9</ele>
        <time>1970-01-01T00:00:00Z</time>
      </trkpt>
      <trkpt lat="39.575010" lon="-6.996531">
        <ele>171.1</ele>
        <time>1970-01-01T00:00:00Z</time>
      </trkpt>
      <trkpt lat="39.575189" lon="-6.996561">
        <ele>171.8</ele>
        <time>1970-01-01T00:00:00Z</time>
      </trkpt>
      <trkpt lat="39.575421" lon="-6.996572">
        <ele>171.4</ele>
        <time>1970-01-01T00:00:00Z</time>
      </trkpt>
      <trkpt lat="39.575601" lon="-6.996597">
        <ele>170.3</ele>
        <time>1970-01-01T00:00:00Z</time>
      </trkpt>
      <trkpt lat="39.575769" lon="-6.996589">
        <ele>170.5</ele>
        <time>1970-01-01T00:00:00Z</time>
      </trkpt>
      <trkpt lat="39.575917" lon="-6.996625">
        <ele>172.4</ele>
        <time>1970-01-01T00:00:00Z</time>
      </trkpt>
      <trkpt lat="39.576201" lon="-6.996612">
        <ele>175.9</ele>
        <time>1970-01-01T00:00:00Z</time>
      </trkpt>
      <trkpt lat="39.576514" lon="-6.996652">
        <ele>177.4</ele>
        <time>1970-01-01T00:00:00Z</time>
      </trkpt>
      <trkpt lat="39.576637" lon="-6.996637">
        <ele>176.9</ele>
        <time>1970-01-01T00:00:00Z</time>
      </trkpt>
      <trkpt lat="39.576686" lon="-6.996645">
        <ele>176.7</ele>
        <time>1970-01-01T00:00:00Z</time>
      </trkpt>
      <trkpt lat="39.576744" lon="-6.996678">
        <ele>176.2</ele>
        <time>1970-01-01T00:00:00Z</time>
      </trkpt>
      <trkpt lat="39.576907" lon="-6.996689">
        <ele>174.0</ele>
        <time>1970-01-01T00:00:00Z</time>
      </trkpt>
      <trkpt lat="39.577065" lon="-6.996760">
        <ele>171.7</ele>
        <time>1970-01-01T00:00:00Z</time>
      </trkpt>
      <trkpt lat="39.577309" lon="-6.996927">
        <ele>170.2</ele>
        <time>1970-01-01T00:00:00Z</time>
      </trkpt>
      <trkpt lat="39.577398" lon="-6.996937">
        <ele>168.8</ele>
        <time>1970-01-01T00:00:00Z</time>
      </trkpt>
      <trkpt lat="39.577469" lon="-6.996926">
        <ele>167.8</ele>
        <time>1970-01-01T00:00:00Z</time>
      </trkpt>
      <trkpt lat="39.577645" lon="-6.996966">
        <ele>166.8</ele>
        <time>1970-01-01T00:00:00Z</time>
      </trkpt>
      <trkpt lat="39.577736" lon="-6.996942">
        <ele>166.3</ele>
        <time>1970-01-01T00:00:00Z</time>
      </trkpt>
      <trkpt lat="39.577809" lon="-6.996860">
        <ele>164.9</ele>
        <time>1970-01-01T00:00:00Z</time>
      </trkpt>
      <trkpt lat="39.577949" lon="-6.996772">
        <ele>163.2</ele>
        <time>1970-01-01T00:00:00Z</time>
      </trkpt>
      <trkpt lat="39.578090" lon="-6.996622">
        <ele>161.2</ele>
        <time>1970-01-01T00:00:00Z</time>
      </trkpt>
      <trkpt lat="39.578404" lon="-6.996194">
        <ele>160.2</ele>
        <time>1970-01-01T00:00:00Z</time>
      </trkpt>
      <trkpt lat="39.578542" lon="-6.996153">
        <ele>161.8</ele>
        <time>1970-01-01T00:00:00Z</time>
      </trkpt>
      <trkpt lat="39.578764" lon="-6.996153">
        <ele>163.9</ele>
        <time>1970-01-01T00:00:00Z</time>
      </trkpt>
      <trkpt lat="39.578917" lon="-6.996197">
        <ele>166.1</ele>
        <time>1970-01-01T00:00:00Z</time>
      </trkpt>
      <trkpt lat="39.578983" lon="-6.996252">
        <ele>167.1</ele>
        <time>1970-01-01T00:00:00Z</time>
      </trkpt>
      <trkpt lat="39.579021" lon="-6.996323">
        <ele>167.8</ele>
        <time>1970-01-01T00:00:00Z</time>
      </trkpt>
      <trkpt lat="39.579027" lon="-6.996427">
        <ele>168.3</ele>
        <time>1970-01-01T00:00:00Z</time>
      </trkpt>
      <trkpt lat="39.579063" lon="-6.996538">
        <ele>169.3</ele>
        <time>1970-01-01T00:00:00Z</time>
      </trkpt>
      <trkpt lat="39.579139" lon="-6.996653">
        <ele>171.6</ele>
        <time>1970-01-01T00:00:00Z</time>
      </trkpt>
      <trkpt lat="39.579468" lon="-6.996854">
        <ele>176.5</ele>
        <time>1970-01-01T00:00:00Z</time>
      </trkpt>
      <trkpt lat="39.579587" lon="-6.996866">
        <ele>177.0</ele>
        <time>1970-01-01T00:00:00Z</time>
      </trkpt>
      <trkpt lat="39.579776" lon="-6.996965">
        <ele>179.0</ele>
        <time>1970-01-01T00:00:00Z</time>
      </trkpt>
      <trkpt lat="39.579969" lon="-6.996976">
        <ele>180.8</ele>
        <time>1970-01-01T00:00:00Z</time>
      </trkpt>
      <trkpt lat="39.580147" lon="-6.996960">
        <ele>181.5</ele>
        <time>1970-01-01T00:00:00Z</time>
      </trkpt>
      <trkpt lat="39.580209" lon="-6.996852">
        <ele>180.8</ele>
        <time>1970-01-01T00:00:00Z</time>
      </trkpt>
      <trkpt lat="39.580244" lon="-6.996724">
        <ele>179.8</ele>
        <time>1970-01-01T00:00:00Z</time>
      </trkpt>
      <trkpt lat="39.580332" lon="-6.996505">
        <ele>178.6</ele>
        <time>1970-01-01T00:00:00Z</time>
      </trkpt>
      <trkpt lat="39.580408" lon="-6.996386">
        <ele>179.1</ele>
        <time>1970-01-01T00:00:00Z</time>
      </trkpt>
      <trkpt lat="39.580679" lon="-6.996103">
        <ele>181.3</ele>
        <time>1970-01-01T00:00:00Z</time>
      </trkpt>
      <trkpt lat="39.580846" lon="-6.996012">
        <ele>183.6</ele>
        <time>1970-01-01T00:00:00Z</time>
      </trkpt>
      <trkpt lat="39.580954" lon="-6.995989">
        <ele>185.0</ele>
        <time>1970-01-01T00:00:00Z</time>
      </trkpt>
      <trkpt lat="39.581071" lon="-6.996032">
        <ele>186.4</ele>
        <time>1970-01-01T00:00:00Z</time>
      </trkpt>
      <trkpt lat="39.581333" lon="-6.996212">
        <ele>189.6</ele>
        <time>1970-01-01T00:00:00Z</time>
      </trkpt>
      <trkpt lat="39.581418" lon="-6.996296">
        <ele>190.5</ele>
        <time>1970-01-01T00:00:00Z</time>
      </trkpt>
      <trkpt lat="39.581587" lon="-6.996372">
        <ele>192.0</ele>
        <time>1970-01-01T00:00:00Z</time>
      </trkpt>
      <trkpt lat="39.581657" lon="-6.996376">
        <ele>192.7</ele>
        <time>1970-01-01T00:00:00Z</time>
      </trkpt>
      <trkpt lat="39.581693" lon="-6.996354">
        <ele>193.0</ele>
        <time>1970-01-01T00:00:00Z</time>
      </trkpt>
      <trkpt lat="39.581755" lon="-6.996357">
        <ele>193.6</ele>
        <time>1970-01-01T00:00:00Z</time>
      </trkpt>
      <trkpt lat="39.581804" lon="-6.996380">
        <ele>194.2</ele>
        <time>1970-01-01T00:00:00Z</time>
      </trkpt>
      <trkpt lat="39.581972" lon="-6.996525">
        <ele>197.5</ele>
        <time>1970-01-01T00:00:00Z</time>
      </trkpt>
      <trkpt lat="39.582283" lon="-6.996639">
        <ele>202.4</ele>
        <time>1970-01-01T00:00:00Z</time>
      </trkpt>
      <trkpt lat="39.582447" lon="-6.996646">
        <ele>203.2</ele>
        <time>1970-01-01T00:00:00Z</time>
      </trkpt>
      <trkpt lat="39.582614" lon="-6.996545">
        <ele>203.5</ele>
        <time>1970-01-01T00:00:00Z</time>
      </trkpt>
      <trkpt lat="39.582875" lon="-6.996434">
        <ele>204.5</ele>
        <time>1970-01-01T00:00:00Z</time>
      </trkpt>
      <trkpt lat="39.582921" lon="-6.996378">
        <ele>204.7</ele>
        <time>1970-01-01T00:00:00Z</time>
      </trkpt>
      <trkpt lat="39.583094" lon="-6.996279">
        <ele>205.0</ele>
        <time>1970-01-01T00:00:00Z</time>
      </trkpt>
      <trkpt lat="39.583310" lon="-6.996230">
        <ele>204.9</ele>
        <time>1970-01-01T00:00:00Z</time>
      </trkpt>
      <trkpt lat="39.583597" lon="-6.996133">
        <ele>203.8</ele>
        <time>1970-01-01T00:00:00Z</time>
      </trkpt>
      <trkpt lat="39.584052" lon="-6.996034">
        <ele>201.8</ele>
        <time>1970-01-01T00:00:00Z</time>
      </trkpt>
      <trkpt lat="39.584212" lon="-6.995979">
        <ele>201.5</ele>
        <time>1970-01-01T00:00:00Z</time>
      </trkpt>
      <trkpt lat="39.584261" lon="-6.995955">
        <ele>201.3</ele>
        <time>1970-01-01T00:00:00Z</time>
      </trkpt>
      <trkpt lat="39.584315" lon="-6.995788">
        <ele>199.9</ele>
        <time>1970-01-01T00:00:00Z</time>
      </trkpt>
      <trkpt lat="39.584390" lon="-6.995430">
        <ele>200.5</ele>
        <time>1970-01-01T00:00:00Z</time>
      </trkpt>
      <trkpt lat="39.584479" lon="-6.995292">
        <ele>201.8</ele>
        <time>1970-01-01T00:00:00Z</time>
      </trkpt>
      <trkpt lat="39.584603" lon="-6.995178">
        <ele>202.7</ele>
        <time>1970-01-01T00:00:00Z</time>
      </trkpt>
      <trkpt lat="39.584686" lon="-6.995191">
        <ele>202.9</ele>
        <time>1970-01-01T00:00:00Z</time>
      </trkpt>
      <trkpt lat="39.584761" lon="-6.995082">
        <ele>204.1</ele>
        <time>1970-01-01T00:00:00Z</time>
      </trkpt>
      <trkpt lat="39.584808" lon="-6.995067">
        <ele>204.3</ele>
        <time>1970-01-01T00:00:00Z</time>
      </trkpt>
      <trkpt lat="39.584866" lon="-6.994997">
        <ele>204.8</ele>
        <time>1970-01-01T00:00:00Z</time>
      </trkpt>
      <trkpt lat="39.584932" lon="-6.994889">
        <ele>206.1</ele>
        <time>1970-01-01T00:00:00Z</time>
      </trkpt>
      <trkpt lat="39.584994" lon="-6.994866">
        <ele>206.8</ele>
        <time>1970-01-01T00:00:00Z</time>
      </trkpt>
      <trkpt lat="39.585047" lon="-6.994820">
        <ele>207.7</ele>
        <time>1970-01-01T00:00:00Z</time>
      </trkpt>
      <trkpt lat="39.585070" lon="-6.994774">
        <ele>208.2</ele>
        <time>1970-01-01T00:00:00Z</time>
      </trkpt>
      <trkpt lat="39.585181" lon="-6.994650">
        <ele>209.3</ele>
        <time>1970-01-01T00:00:00Z</time>
      </trkpt>
      <trkpt lat="39.585206" lon="-6.994590">
        <ele>209.9</ele>
        <time>1970-01-01T00:00:00Z</time>
      </trkpt>
      <trkpt lat="39.585252" lon="-6.994561">
        <ele>210.1</ele>
        <time>1970-01-01T00:00:00Z</time>
      </trkpt>
      <trkpt lat="39.585423" lon="-6.994366">
        <ele>211.4</ele>
        <time>1970-01-01T00:00:00Z</time>
      </trkpt>
      <trkpt lat="39.585454" lon="-6.994306">
        <ele>211.9</ele>
        <time>1970-01-01T00:00:00Z</time>
      </trkpt>
      <trkpt lat="39.585599" lon="-6.994132">
        <ele>212.9</ele>
        <time>1970-01-01T00:00:00Z</time>
      </trkpt>
      <trkpt lat="39.585671" lon="-6.994023">
        <ele>213.6</ele>
        <time>1970-01-01T00:00:00Z</time>
      </trkpt>
      <trkpt lat="39.585871" lon="-6.993825">
        <ele>213.5</ele>
        <time>1970-01-01T00:00:00Z</time>
      </trkpt>
      <trkpt lat="39.585908" lon="-6.993746">
        <ele>213.8</ele>
        <time>1970-01-01T00:00:00Z</time>
      </trkpt>
      <trkpt lat="39.586043" lon="-6.993529">
        <ele>214.9</ele>
        <time>1970-01-01T00:00:00Z</time>
      </trkpt>
      <trkpt lat="39.586100" lon="-6.993473">
        <ele>215.3</ele>
        <time>1970-01-01T00:00:00Z</time>
      </trkpt>
      <trkpt lat="39.586162" lon="-6.993443">
        <ele>215.4</ele>
        <time>1970-01-01T00:00:00Z</time>
      </trkpt>
      <trkpt lat="39.586277" lon="-6.993304">
        <ele>216.6</ele>
        <time>1970-01-01T00:00:00Z</time>
      </trkpt>
      <trkpt lat="39.586364" lon="-6.993228">
        <ele>218.3</ele>
        <time>1970-01-01T00:00:00Z</time>
      </trkpt>
      <trkpt lat="39.586653" lon="-6.992761">
        <ele>226.4</ele>
        <time>1970-01-01T00:00:00Z</time>
      </trkpt>
      <trkpt lat="39.586776" lon="-6.992620">
        <ele>229.5</ele>
        <time>1970-01-01T00:00:00Z</time>
      </trkpt>
      <trkpt lat="39.587261" lon="-6.992321">
        <ele>235.3</ele>
        <time>1970-01-01T00:00:00Z</time>
      </trkpt>
      <trkpt lat="39.587414" lon="-6.992295">
        <ele>236.6</ele>
        <time>1970-01-01T00:00:00Z</time>
      </trkpt>
      <trkpt lat="39.587584" lon="-6.992177">
        <ele>238.6</ele>
        <time>1970-01-01T00:00:00Z</time>
      </trkpt>
      <trkpt lat="39.587643" lon="-6.992182">
        <ele>239.2</ele>
        <time>1970-01-01T00:00:00Z</time>
      </trkpt>
      <trkpt lat="39.587701" lon="-6.992146">
        <ele>240.1</ele>
        <time>1970-01-01T00:00:00Z</time>
      </trkpt>
      <trkpt lat="39.587794" lon="-6.992053">
        <ele>241.2</ele>
        <time>1970-01-01T00:00:00Z</time>
      </trkpt>
      <trkpt lat="39.587925" lon="-6.992004">
        <ele>242.9</ele>
        <time>1970-01-01T00:00:00Z</time>
      </trkpt>
      <trkpt lat="39.588255" lon="-6.992055">
        <ele>249.1</ele>
        <time>1970-01-01T00:00:00Z</time>
      </trkpt>
      <trkpt lat="39.588372" lon="-6.992035">
        <ele>251.2</ele>
        <time>1970-01-01T00:00:00Z</time>
      </trkpt>
      <trkpt lat="39.588444" lon="-6.992120">
        <ele>252.4</ele>
        <time>1970-01-01T00:00:00Z</time>
      </trkpt>
      <trkpt lat="39.588516" lon="-6.992132">
        <ele>253.6</ele>
        <time>1970-01-01T00:00:00Z</time>
      </trkpt>
      <trkpt lat="39.588669" lon="-6.992007">
        <ele>256.6</ele>
        <time>1970-01-01T00:00:00Z</time>
      </trkpt>
      <trkpt lat="39.588689" lon="-6.992078">
        <ele>256.8</ele>
        <time>1970-01-01T00:00:00Z</time>
      </trkpt>
      <trkpt lat="39.588751" lon="-6.992153">
        <ele>257.5</ele>
        <time>1970-01-01T00:00:00Z</time>
      </trkpt>
      <trkpt lat="39.588828" lon="-6.992192">
        <ele>258.0</ele>
        <time>1970-01-01T00:00:00Z</time>
      </trkpt>
      <trkpt lat="39.588882" lon="-6.992185">
        <ele>258.5</ele>
        <time>1970-01-01T00:00:00Z</time>
      </trkpt>
      <trkpt lat="39.589098" lon="-6.991709">
        <ele>263.6</ele>
        <time>1970-01-01T00:00:00Z</time>
      </trkpt>
      <trkpt lat="39.589222" lon="-6.991502">
        <ele>266.3</ele>
        <time>1970-01-01T00:00:00Z</time>
      </trkpt>
      <trkpt lat="39.589298" lon="-6.991405">
        <ele>267.0</ele>
        <time>1970-01-01T00:00:00Z</time>
      </trkpt>
      <trkpt lat="39.589500" lon="-6.991227">
        <ele>267.9</ele>
        <time>1970-01-01T00:00:00Z</time>
      </trkpt>
      <trkpt lat="39.589603" lon="-6.991159">
        <ele>268.0</ele>
        <time>1970-01-01T00:00:00Z</time>
      </trkpt>
      <trkpt lat="39.589716" lon="-6.991109">
        <ele>267.9</ele>
        <time>1970-01-01T00:00:00Z</time>
      </trkpt>
      <trkpt lat="39.589976" lon="-6.990915">
        <ele>268.2</ele>
        <time>1970-01-01T00:00:00Z</time>
      </trkpt>
      <trkpt lat="39.590128" lon="-6.990751">
        <ele>269.0</ele>
        <time>1970-01-01T00:00:00Z</time>
      </trkpt>
      <trkpt lat="39.590329" lon="-6.990624">
        <ele>268.8</ele>
        <time>1970-01-01T00:00:00Z</time>
      </trkpt>
      <trkpt lat="39.590539" lon="-6.990385">
        <ele>269.2</ele>
        <time>1970-01-01T00:00:00Z</time>
      </trkpt>
      <trkpt lat="39.591091" lon="-6.990030">
        <ele>272.0</ele>
        <time>1970-01-01T00:00:00Z</time>
      </trkpt>
      <trkpt lat="39.591375" lon="-6.989871">
        <ele>272.2</ele>
        <time>1970-01-01T00:00:00Z</time>
      </trkpt>
      <trkpt lat="39.591564" lon="-6.989702">
        <ele>272.9</ele>
        <time>1970-01-01T00:00:00Z</time>
      </trkpt>
      <trkpt lat="39.591756" lon="-6.989605">
        <ele>272.9</ele>
        <time>1970-01-01T00:00:00Z</time>
      </trkpt>
      <trkpt lat="39.592069" lon="-6.989367">
        <ele>273.9</ele>
        <time>1970-01-01T00:00:00Z</time>
      </trkpt>
      <trkpt lat="39.592387" lon="-6.989394">
        <ele>273.6</ele>
        <time>1970-01-01T00:00:00Z</time>
      </trkpt>
      <trkpt lat="39.592629" lon="-6.989383">
        <ele>273.8</ele>
        <time>1970-01-01T00:00:00Z</time>
      </trkpt>
      <trkpt lat="39.592726" lon="-6.989315">
        <ele>274.3</ele>
        <time>1970-01-01T00:00:00Z</time>
      </trkpt>
      <trkpt lat="39.592810" lon="-6.989194">
        <ele>275.1</ele>
        <time>1970-01-01T00:00:00Z</time>
      </trkpt>
      <trkpt lat="39.592885" lon="-6.989024">
        <ele>275.9</ele>
        <time>1970-01-01T00:00:00Z</time>
      </trkpt>
      <trkpt lat="39.592957" lon="-6.988956">
        <ele>276.0</ele>
        <time>1970-01-01T00:00:00Z</time>
      </trkpt>
      <trkpt lat="39.593041" lon="-6.988894">
        <ele>276.0</ele>
        <time>1970-01-01T00:00:00Z</time>
      </trkpt>
      <trkpt lat="39.593232" lon="-6.988843">
        <ele>276.6</ele>
        <time>1970-01-01T00:00:00Z</time>
      </trkpt>
      <trkpt lat="39.593855" lon="-6.988488">
        <ele>281.2</ele>
        <time>1970-01-01T00:00:00Z</time>
      </trkpt>
      <trkpt lat="39.593946" lon="-6.988415">
        <ele>281.7</ele>
        <time>1970-01-01T00:00:00Z</time>
      </trkpt>
      <trkpt lat="39.594105" lon="-6.988247">
        <ele>283.1</ele>
        <time>1970-01-01T00:00:00Z</time>
      </trkpt>
      <trkpt lat="39.594346" lon="-6.988081">
        <ele>284.2</ele>
        <time>1970-01-01T00:00:00Z</time>
      </trkpt>
      <trkpt lat="39.594403" lon="-6.987961">
        <ele>284.7</ele>
        <time>1970-01-01T00:00:00Z</time>
      </trkpt>
      <trkpt lat="39.594562" lon="-6.987791">
        <ele>286.0</ele>
        <time>1970-01-01T00:00:00Z</time>
      </trkpt>
      <trkpt lat="39.594613" lon="-6.987830">
        <ele>286.2</ele>
        <time>1970-01-01T00:00:00Z</time>
      </trkpt>
      <trkpt lat="39.594645" lon="-6.987937">
        <ele>286.4</ele>
        <time>1970-01-01T00:00:00Z</time>
      </trkpt>
      <trkpt lat="39.594695" lon="-6.988028">
        <ele>286.8</ele>
        <time>1970-01-01T00:00:00Z</time>
      </trkpt>
      <trkpt lat="39.594745" lon="-6.988005">
        <ele>287.0</ele>
        <time>1970-01-01T00:00:00Z</time>
      </trkpt>
      <trkpt lat="39.594893" lon="-6.987841">
        <ele>287.9</ele>
        <time>1970-01-01T00:00:00Z</time>
      </trkpt>
      <trkpt lat="39.595013" lon="-6.987734">
        <ele>289.0</ele>
        <time>1970-01-01T00:00:00Z</time>
      </trkpt>
      <trkpt lat="39.595263" lon="-6.987352">
        <ele>289.0</ele>
        <time>1970-01-01T00:00:00Z</time>
      </trkpt>
      <trkpt lat="39.595310" lon="-6.987300">
        <ele>289.0</ele>
        <time>1970-01-01T00:00:00Z</time>
      </trkpt>
      <trkpt lat="39.595497" lon="-6.987150">
        <ele>289.5</ele>
        <time>1970-01-01T00:00:00Z</time>
      </trkpt>
      <trkpt lat="39.595708" lon="-6.986862">
        <ele>290.0</ele>
        <time>1970-01-01T00:00:00Z</time>
      </trkpt>
      <trkpt lat="39.595778" lon="-6.986751">
        <ele>289.9</ele>
        <time>1970-01-01T00:00:00Z</time>
      </trkpt>
      <trkpt lat="39.595832" lon="-6.986635">
        <ele>289.6</ele>
        <time>1970-01-01T00:00:00Z</time>
      </trkpt>
      <trkpt lat="39.596463" lon="-6.985689">
        <ele>288.8</ele>
        <time>1970-01-01T00:00:00Z</time>
      </trkpt>
      <trkpt lat="39.597085" lon="-6.984704">
        <ele>286.1</ele>
        <time>1970-01-01T00:00:00Z</time>
      </trkpt>
      <trkpt lat="39.597306" lon="-6.984451">
        <ele>285.3</ele>
        <time>1970-01-01T00:00:00Z</time>
      </trkpt>
      <trkpt lat="39.597406" lon="-6.984362">
        <ele>285.2</ele>
        <time>1970-01-01T00:00:00Z</time>
      </trkpt>
      <trkpt lat="39.597598" lon="-6.984050">
        <ele>285.7</ele>
        <time>1970-01-01T00:00:00Z</time>
      </trkpt>
      <trkpt lat="39.597742" lon="-6.983859">
        <ele>285.8</ele>
        <time>1970-01-01T00:00:00Z</time>
      </trkpt>
      <trkpt lat="39.597927" lon="-6.983653">
        <ele>285.7</ele>
        <time>1970-01-01T00:00:00Z</time>
      </trkpt>
      <trkpt lat="39.598108" lon="-6.983384">
        <ele>285.4</ele>
        <time>1970-01-01T00:00:00Z</time>
      </trkpt>
      <trkpt lat="39.598161" lon="-6.983237">
        <ele>285.8</ele>
        <time>1970-01-01T00:00:00Z</time>
      </trkpt>
      <trkpt lat="39.598213" lon="-6.983143">
        <ele>286.0</ele>
        <time>1970-01-01T00:00:00Z</time>
      </trkpt>
      <trkpt lat="39.598620" lon="-6.982618">
        <ele>286.4</ele>
        <time>1970-01-01T00:00:00Z</time>
      </trkpt>
      <trkpt lat="39.598733" lon="-6.982421">
        <ele>286.0</ele>
        <time>1970-01-01T00:00:00Z</time>
      </trkpt>
      <trkpt lat="39.598821" lon="-6.982308">
        <ele>286.0</ele>
        <time>1970-01-01T00:00:00Z</time>
      </trkpt>
      <trkpt lat="39.598905" lon="-6.982154">
        <ele>286.3</ele>
        <time>1970-01-01T00:00:00Z</time>
      </trkpt>
      <trkpt lat="39.599079" lon="-6.981910">
        <ele>286.5</ele>
        <time>1970-01-01T00:00:00Z</time>
      </trkpt>
      <trkpt lat="39.599292" lon="-6.981700">
        <ele>286.0</ele>
        <time>1970-01-01T00:00:00Z</time>
      </trkpt>
      <trkpt lat="39.599777" lon="-6.981069">
        <ele>286.6</ele>
        <time>1970-01-01T00:00:00Z</time>
      </trkpt>
      <trkpt lat="39.600056" lon="-6.980669">
        <ele>287.4</ele>
        <time>1970-01-01T00:00:00Z</time>
      </trkpt>
      <trkpt lat="39.600203" lon="-6.980481">
        <ele>289.0</ele>
        <time>1970-01-01T00:00:00Z</time>
      </trkpt>
      <trkpt lat="39.600899" lon="-6.979475">
        <ele>297.2</ele>
        <time>1970-01-01T00:00:00Z</time>
      </trkpt>
      <trkpt lat="39.601221" lon="-6.979096">
        <ele>298.8</ele>
        <time>1970-01-01T00:00:00Z</time>
      </trkpt>
      <trkpt lat="39.601511" lon="-6.978640">
        <ele>299.0</ele>
        <time>1970-01-01T00:00:00Z</time>
      </trkpt>
      <trkpt lat="39.601761" lon="-6.978347">
        <ele>298.9</ele>
        <time>1970-01-01T00:00:00Z</time>
      </trkpt>
      <trkpt lat="39.602178" lon="-6.977769">
        <ele>297.1</ele>
        <time>1970-01-01T00:00:00Z</time>
      </trkpt>
      <trkpt lat="39.602452" lon="-6.977363">
        <ele>296.9</ele>
        <time>1970-01-01T00:00:00Z</time>
      </trkpt>
      <trkpt lat="39.602644" lon="-6.977126">
        <ele>296.1</ele>
        <time>1970-01-01T00:00:00Z</time>
      </trkpt>
      <trkpt lat="39.602845" lon="-6.976823">
        <ele>296.1</ele>
        <time>1970-01-01T00:00:00Z</time>
      </trkpt>
      <trkpt lat="39.603000" lon="-6.976651">
        <ele>296.9</ele>
        <time>1970-01-01T00:00:00Z</time>
      </trkpt>
      <trkpt lat="39.603461" lon="-6.976042">
        <ele>300.0</ele>
        <time>1970-01-01T00:00:00Z</time>
      </trkpt>
      <trkpt lat="39.603597" lon="-6.975835">
        <ele>299.6</ele>
        <time>1970-01-01T00:00:00Z</time>
      </trkpt>
      <trkpt lat="39.603837" lon="-6.975516">
        <ele>300.1</ele>
        <time>1970-01-01T00:00:00Z</time>
      </trkpt>
      <trkpt lat="39.604133" lon="-6.975042">
        <ele>302.2</ele>
        <time>1970-01-01T00:00:00Z</time>
      </trkpt>
      <trkpt lat="39.604529" lon="-6.974513">
        <ele>304.0</ele>
        <time>1970-01-01T00:00:00Z</time>
      </trkpt>
      <trkpt lat="39.604624" lon="-6.974319">
        <ele>304.0</ele>
        <time>1970-01-01T00:00:00Z</time>
      </trkpt>
      <trkpt lat="39.605224" lon="-6.973500">
        <ele>306.1</ele>
        <time>1970-01-01T00:00:00Z</time>
      </trkpt>
      <trkpt lat="39.605437" lon="-6.973220">
        <ele>308.7</ele>
        <time>1970-01-01T00:00:00Z</time>
      </trkpt>
      <trkpt lat="39.605618" lon="-6.973009">
        <ele>308.8</ele>
        <time>1970-01-01T00:00:00Z</time>
      </trkpt>
      <trkpt lat="39.606748" lon="-6.971432">
        <ele>310.0</ele>
        <time>1970-01-01T00:00:00Z</time>
      </trkpt>
      <trkpt lat="39.606883" lon="-6.971218">
        <ele>310.0</ele>
        <time>1970-01-01T00:00:00Z</time>
      </trkpt>
      <trkpt lat="39.606941" lon="-6.971191">
        <ele>310.0</ele>
        <time>1970-01-01T00:00:00Z</time>
      </trkpt>
      <trkpt lat="39.607094" lon="-6.971270">
        <ele>310.0</ele>
        <time>1970-01-01T00:00:00Z</time>
      </trkpt>
      <trkpt lat="39.607136" lon="-6.971252">
        <ele>310.0</ele>
        <time>1970-01-01T00:00:00Z</time>
      </trkpt>
      <trkpt lat="39.607263" lon="-6.971113">
        <ele>310.0</ele>
        <time>1970-01-01T00:00:00Z</time>
      </trkpt>
      <trkpt lat="39.607417" lon="-6.970907">
        <ele>309.4</ele>
        <time>1970-01-01T00:00:00Z</time>
      </trkpt>
      <trkpt lat="39.607977" lon="-6.970235">
        <ele>307.0</ele>
        <time>1970-01-01T00:00:00Z</time>
      </trkpt>
      <trkpt lat="39.608043" lon="-6.970139">
        <ele>307.0</ele>
        <time>1970-01-01T00:00:00Z</time>
      </trkpt>
      <trkpt lat="39.608521" lon="-6.969064">
        <ele>307.4</ele>
        <time>1970-01-01T00:00:00Z</time>
      </trkpt>
      <trkpt lat="39.608830" lon="-6.968471">
        <ele>306.1</ele>
        <time>1970-01-01T00:00:00Z</time>
      </trkpt>
      <trkpt lat="39.608904" lon="-6.968350">
        <ele>305.3</ele>
        <time>1970-01-01T00:00:00Z</time>
      </trkpt>
      <trkpt lat="39.609007" lon="-6.968218">
        <ele>304.7</ele>
        <time>1970-01-01T00:00:00Z</time>
      </trkpt>
      <trkpt lat="39.609268" lon="-6.968001">
        <ele>305.1</ele>
        <time>1970-01-01T00:00:00Z</time>
      </trkpt>
      <trkpt lat="39.609395" lon="-6.967925">
        <ele>306.1</ele>
        <time>1970-01-01T00:00:00Z</time>
      </trkpt>
      <trkpt lat="39.609499" lon="-6.967806">
        <ele>306.6</ele>
        <time>1970-01-01T00:00:00Z</time>
      </trkpt>
      <trkpt lat="39.609765" lon="-6.967450">
        <ele>308.3</ele>
        <time>1970-01-01T00:00:00Z</time>
      </trkpt>
      <trkpt lat="39.609797" lon="-6.967432">
        <ele>308.5</ele>
        <time>1970-01-01T00:00:00Z</time>
      </trkpt>
      <trkpt lat="39.609973" lon="-6.967516">
        <ele>308.7</ele>
        <time>1970-01-01T00:00:00Z</time>
      </trkpt>
      <trkpt lat="39.610066" lon="-6.967540">
        <ele>309.0</ele>
        <time>1970-01-01T00:00:00Z</time>
      </trkpt>
      <trkpt lat="39.610149" lon="-6.967538">
        <ele>309.0</ele>
        <time>1970-01-01T00:00:00Z</time>
      </trkpt>
      <trkpt lat="39.610269" lon="-6.967469">
        <ele>309.0</ele>
        <time>1970-01-01T00:00:00Z</time>
      </trkpt>
      <trkpt lat="39.610319" lon="-6.967408">
        <ele>309.0</ele>
        <time>1970-01-01T00:00:00Z</time>
      </trkpt>
      <trkpt lat="39.610414" lon="-6.967235">
        <ele>309.0</ele>
        <time>1970-01-01T00:00:00Z</time>
      </trkpt>
      <trkpt lat="39.610477" lon="-6.967200">
        <ele>309.0</ele>
        <time>1970-01-01T00:00:00Z</time>
      </trkpt>
      <trkpt lat="39.610560" lon="-6.967120">
        <ele>308.8</ele>
        <time>1970-01-01T00:00:00Z</time>
      </trkpt>
      <trkpt lat="39.611099" lon="-6.966432">
        <ele>307.0</ele>
        <time>1970-01-01T00:00:00Z</time>
      </trkpt>
      <trkpt lat="39.611369" lon="-6.966124">
        <ele>306.2</ele>
        <time>1970-01-01T00:00:00Z</time>
      </trkpt>
      <trkpt lat="39.611561" lon="-6.965859">
        <ele>305.7</ele>
        <time>1970-01-01T00:00:00Z</time>
      </trkpt>
      <trkpt lat="39.611773" lon="-6.965627">
        <ele>306.0</ele>
        <time>1970-01-01T00:00:00Z</time>
      </trkpt>
      <trkpt lat="39.611822" lon="-6.965530">
        <ele>306.0</ele>
        <time>1970-01-01T00:00:00Z</time>
      </trkpt>
      <trkpt lat="39.611981" lon="-6.965328">
        <ele>305.9</ele>
        <time>1970-01-01T00:00:00Z</time>
      </trkpt>
      <trkpt lat="39.612188" lon="-6.965075">
        <ele>306.7</ele>
        <time>1970-01-01T00:00:00Z</time>
      </trkpt>
      <trkpt lat="39.612532" lon="-6.964703">
        <ele>306.5</ele>
        <time>1970-01-01T00:00:00Z</time>
      </trkpt>
      <trkpt lat="39.612951" lon="-6.964282">
        <ele>305.2</ele>
        <time>1970-01-01T00:00:00Z</time>
      </trkpt>
      <trkpt lat="39.613463" lon="-6.963801">
        <ele>306.9</ele>
        <time>1970-01-01T00:00:00Z</time>
      </trkpt>
      <trkpt lat="39.613885" lon="-6.963705">
        <ele>307.0</ele>
        <time>1970-01-01T00:00:00Z</time>
      </trkpt>
      <trkpt lat="39.614039" lon="-6.963636">
        <ele>307.2</ele>
        <time>1970-01-01T00:00:00Z</time>
      </trkpt>
      <trkpt lat="39.614101" lon="-6.963560">
        <ele>307.9</ele>
        <time>1970-01-01T00:00:00Z</time>
      </trkpt>
      <trkpt lat="39.614159" lon="-6.963415">
        <ele>309.1</ele>
        <time>1970-01-01T00:00:00Z</time>
      </trkpt>
      <trkpt lat="39.614485" lon="-6.962473">
        <ele>315.1</ele>
        <time>1970-01-01T00:00:00Z</time>
      </trkpt>
      <trkpt lat="39.614720" lon="-6.962133">
        <ele>317.2</ele>
        <time>1970-01-01T00:00:00Z</time>
      </trkpt>
      <trkpt lat="39.614966" lon="-6.961812">
        <ele>318.0</ele>
        <time>1970-01-01T00:00:00Z</time>
      </trkpt>
      <trkpt lat="39.615044" lon="-6.961761">
        <ele>318.3</ele>
        <time>1970-01-01T00:00:00Z</time>
      </trkpt>
      <trkpt lat="39.615308" lon="-6.961537">
        <ele>318.5</ele>
        <time>1970-01-01T00:00:00Z</time>
      </trkpt>
      <trkpt lat="39.615961" lon="-6.960931">
        <ele>316.0</ele>
        <time>1970-01-01T00:00:00Z</time>
      </trkpt>
      <trkpt lat="39.616183" lon="-6.960645">
        <ele>313.6</ele>
        <time>1970-01-01T00:00:00Z</time>
      </trkpt>
      <trkpt lat="39.616479" lon="-6.960304">
        <ele>310.6</ele>
        <time>1970-01-01T00:00:00Z</time>
      </trkpt>
      <trkpt lat="39.616993" lon="-6.959800">
        <ele>308.0</ele>
        <time>1970-01-01T00:00:00Z</time>
      </trkpt>
      <trkpt lat="39.617096" lon="-6.959666">
        <ele>308.5</ele>
        <time>1970-01-01T00:00:00Z</time>
      </trkpt>
      <trkpt lat="39.617157" lon="-6.959550">
        <ele>308.9</ele>
        <time>1970-01-01T00:00:00Z</time>
      </trkpt>
      <trkpt lat="39.617243" lon="-6.959247">
        <ele>310.0</ele>
        <time>1970-01-01T00:00:00Z</time>
      </trkpt>
      <trkpt lat="39.617289" lon="-6.959152">
        <ele>310.0</ele>
        <time>1970-01-01T00:00:00Z</time>
      </trkpt>
      <trkpt lat="39.617379" lon="-6.959047">
        <ele>310.0</ele>
        <time>1970-01-01T00:00:00Z</time>
      </trkpt>
      <trkpt lat="39.617555" lon="-6.958893">
        <ele>310.2</ele>
        <time>1970-01-01T00:00:00Z</time>
      </trkpt>
      <trkpt lat="39.618376" lon="-6.958092">
        <ele>309.9</ele>
        <time>1970-01-01T00:00:00Z</time>
      </trkpt>
      <trkpt lat="39.618645" lon="-6.957862">
        <ele>310.0</ele>
        <time>1970-01-01T00:00:00Z</time>
      </trkpt>
      <trkpt lat="39.618834" lon="-6.957679">
        <ele>310.8</ele>
        <time>1970-01-01T00:00:00Z</time>
      </trkpt>
      <trkpt lat="39.619500" lon="-6.956960">
        <ele>316.8</ele>
        <time>1970-01-01T00:00:00Z</time>
      </trkpt>
      <trkpt lat="39.620297" lon="-6.956150">
        <ele>317.9</ele>
        <time>1970-01-01T00:00:00Z</time>
      </trkpt>
      <trkpt lat="39.620800" lon="-6.955722">
        <ele>321.7</ele>
        <time>1970-01-01T00:00:00Z</time>
      </trkpt>
      <trkpt lat="39.620930" lon="-6.955591">
        <ele>322.8</ele>
        <time>1970-01-01T00:00:00Z</time>
      </trkpt>
      <trkpt lat="39.621303" lon="-6.955095">
        <ele>325.0</ele>
        <time>1970-01-01T00:00:00Z</time>
      </trkpt>
      <trkpt lat="39.621632" lon="-6.954767">
        <ele>326.0</ele>
        <time>1970-01-01T00:00:00Z</time>
      </trkpt>
      <trkpt lat="39.621927" lon="-6.954589">
        <ele>327.2</ele>
        <time>1970-01-01T00:00:00Z</time>
      </trkpt>
      <trkpt lat="39.622027" lon="-6.954586">
        <ele>327.7</ele>
        <time>1970-01-01T00:00:00Z</time>
      </trkpt>
      <trkpt lat="39.622079" lon="-6.954554">
        <ele>327.9</ele>
        <time>1970-01-01T00:00:00Z</time>
      </trkpt>
      <trkpt lat="39.622512" lon="-6.953979">
        <ele>328.0</ele>
        <time>1970-01-01T00:00:00Z</time>
      </trkpt>
      <trkpt lat="39.622619" lon="-6.953855">
        <ele>328.2</ele>
        <time>1970-01-01T00:00:00Z</time>
      </trkpt>
      <trkpt lat="39.623273" lon="-6.952817">
        <ele>329.2</ele>
        <time>1970-01-01T00:00:00Z</time>
      </trkpt>
      <trkpt lat="39.623389" lon="-6.952712">
        <ele>329.0</ele>
        <time>1970-01-01T00:00:00Z</time>
      </trkpt>
      <trkpt lat="39.623941" lon="-6.952055">
        <ele>327.9</ele>
        <time>1970-01-01T00:00:00Z</time>
      </trkpt>
      <trkpt lat="39.624110" lon="-6.951769">
        <ele>326.2</ele>
        <time>1970-01-01T00:00:00Z</time>
      </trkpt>
      <trkpt lat="39.624350" lon="-6.951428">
        <ele>325.3</ele>
        <time>1970-01-01T00:00:00Z</time>
      </trkpt>
      <trkpt lat="39.624935" lon="-6.950745">
        <ele>325.0</ele>
        <time>1970-01-01T00:00:00Z</time>
      </trkpt>
      <trkpt lat="39.625397" lon="-6.950149">
        <ele>327.6</ele>
        <time>1970-01-01T00:00:00Z</time>
      </trkpt>
      <trkpt lat="39.626242" lon="-6.949229">
        <ele>321.8</ele>
        <time>1970-01-01T00:00:00Z</time>
      </trkpt>
      <trkpt lat="39.626357" lon="-6.949129">
        <ele>320.8</ele>
        <time>1970-01-01T00:00:00Z</time>
      </trkpt>
      <trkpt lat="39.626619" lon="-6.948832">
        <ele>320.0</ele>
        <time>1970-01-01T00:00:00Z</time>
      </trkpt>
      <trkpt lat="39.626955" lon="-6.948548">
        <ele>320.0</ele>
        <time>1970-01-01T00:00:00Z</time>
      </trkpt>
      <trkpt lat="39.627298" lon="-6.948126">
        <ele>320.0</ele>
        <time>1970-01-01T00:00:00Z</time>
      </trkpt>
      <trkpt lat="39.627351" lon="-6.948025">
        <ele>320.4</ele>
        <time>1970-01-01T00:00:00Z</time>
      </trkpt>
      <trkpt lat="39.627373" lon="-6.947871">
        <ele>320.8</ele>
        <time>1970-01-01T00:00:00Z</time>
      </trkpt>
      <trkpt lat="39.627412" lon="-6.947806">
        <ele>320.9</ele>
        <time>1970-01-01T00:00:00Z</time>
      </trkpt>
      <trkpt lat="39.627545" lon="-6.947701">
        <ele>321.0</ele>
        <time>1970-01-01T00:00:00Z</time>
      </trkpt>
      <trkpt lat="39.627680" lon="-6.947526">
        <ele>321.0</ele>
        <time>1970-01-01T00:00:00Z</time>
      </trkpt>
      <trkpt lat="39.627849" lon="-6.947387">
        <ele>321.0</ele>
        <time>1970-01-01T00:00:00Z</time>
      </trkpt>
      <trkpt lat="39.628025" lon="-6.947280">
        <ele>320.5</ele>
        <time>1970-01-01T00:00:00Z</time>
      </trkpt>
      <trkpt lat="39.628380" lon="-6.947019">
        <ele>320.0</ele>
        <time>1970-01-01T00:00:00Z</time>
      </trkpt>
      <trkpt lat="39.628710" lon="-6.946800">
        <ele>318.6</ele>
        <time>1970-01-01T00:00:00Z</time>
      </trkpt>
      <trkpt lat="39.629508" lon="-6.946205">
        <ele>313.0</ele>
        <time>1970-01-01T00:00:00Z</time>
      </trkpt>
      <trkpt lat="39.629836" lon="-6.945978">
        <ele>311.8</ele>
        <time>1970-01-01T00:00:00Z</time>
      </trkpt>
      <trkpt lat="39.629974" lon="-6.945870">
        <ele>311.1</ele>
        <time>1970-01-01T00:00:00Z</time>
      </trkpt>
      <trkpt lat="39.630036" lon="-6.945698">
        <ele>311.0</ele>
        <time>1970-01-01T00:00:00Z</time>
      </trkpt>
      <trkpt lat="39.630571" lon="-6.945371">
        <ele>311.0</ele>
        <time>1970-01-01T00:00:00Z</time>
      </trkpt>
      <trkpt lat="39.630882" lon="-6.945145">
        <ele>312.0</ele>
        <time>1970-01-01T00:00:00Z</time>
      </trkpt>
      <trkpt lat="39.630974" lon="-6.945118">
        <ele>312.0</ele>
        <time>1970-01-01T00:00:00Z</time>
      </trkpt>
      <trkpt lat="39.631242" lon="-6.944931">
        <ele>312.0</ele>
        <time>1970-01-01T00:00:00Z</time>
      </trkpt>
      <trkpt lat="39.631447" lon="-6.944691">
        <ele>312.6</ele>
        <time>1970-01-01T00:00:00Z</time>
      </trkpt>
      <trkpt lat="39.631515" lon="-6.944641">
        <ele>312.4</ele>
        <time>1970-01-01T00:00:00Z</time>
      </trkpt>
      <trkpt lat="39.631788" lon="-6.944471">
        <ele>312.1</ele>
        <time>1970-01-01T00:00:00Z</time>
      </trkpt>
      <trkpt lat="39.631922" lon="-6.944430">
        <ele>311.5</ele>
        <time>1970-01-01T00:00:00Z</time>
      </trkpt>
      <trkpt lat="39.632129" lon="-6.944407">
        <ele>311.0</ele>
        <time>1970-01-01T00:00:00Z</time>
      </trkpt>
      <trkpt lat="39.632187" lon="-6.944355">
        <ele>311.0</ele>
        <time>1970-01-01T00:00:00Z</time>
      </trkpt>
      <trkpt lat="39.632262" lon="-6.944327">
        <ele>311.0</ele>
        <time>1970-01-01T00:00:00Z</time>
      </trkpt>
      <trkpt lat="39.632365" lon="-6.944325">
        <ele>310.8</ele>
        <time>1970-01-01T00:00:00Z</time>
      </trkpt>
      <trkpt lat="39.632699" lon="-6.944110">
        <ele>310.0</ele>
        <time>1970-01-01T00:00:00Z</time>
      </trkpt>
      <trkpt lat="39.632759" lon="-6.944013">
        <ele>310.0</ele>
        <time>1970-01-01T00:00:00Z</time>
      </trkpt>
      <trkpt lat="39.632817" lon="-6.943888">
        <ele>309.7</ele>
        <time>1970-01-01T00:00:00Z</time>
      </trkpt>
      <trkpt lat="39.632839" lon="-6.943813">
        <ele>309.6</ele>
        <time>1970-01-01T00:00:00Z</time>
      </trkpt>
      <trkpt lat="39.633024" lon="-6.943751">
        <ele>308.8</ele>
        <time>1970-01-01T00:00:00Z</time>
      </trkpt>
      <trkpt lat="39.633116" lon="-6.943678">
        <ele>308.4</ele>
        <time>1970-01-01T00:00:00Z</time>
      </trkpt>
      <trkpt lat="39.633317" lon="-6.943468">
        <ele>308.0</ele>
        <time>1970-01-01T00:00:00Z</time>
      </trkpt>
      <trkpt lat="39.633395" lon="-6.943363">
        <ele>308.0</ele>
        <time>1970-01-01T00:00:00Z</time>
      </trkpt>
      <trkpt lat="39.633517" lon="-6.943272">
        <ele>308.0</ele>
        <time>1970-01-01T00:00:00Z</time>
      </trkpt>
      <trkpt lat="39.633936" lon="-6.942874">
        <ele>307.0</ele>
        <time>1970-01-01T00:00:00Z</time>
      </trkpt>
      <trkpt lat="39.634291" lon="-6.942581">
        <ele>307.0</ele>
        <time>1970-01-01T00:00:00Z</time>
      </trkpt>
      <trkpt lat="39.634605" lon="-6.942259">
        <ele>306.0</ele>
        <time>1970-01-01T00:00:00Z</time>
      </trkpt>
      <trkpt lat="39.634900" lon="-6.942009">
        <ele>305.9</ele>
        <time>1970-01-01T00:00:00Z</time>
      </trkpt>
      <trkpt lat="39.635434" lon="-6.941477">
        <ele>303.8</ele>
        <time>1970-01-01T00:00:00Z</time>
      </trkpt>
      <trkpt lat="39.635611" lon="-6.941317">
        <ele>302.1</ele>
        <time>1970-01-01T00:00:00Z</time>
      </trkpt>
      <trkpt lat="39.635664" lon="-6.941224">
        <ele>301.8</ele>
        <time>1970-01-01T00:00:00Z</time>
      </trkpt>
      <trkpt lat="39.635727" lon="-6.941053">
        <ele>301.3</ele>
        <time>1970-01-01T00:00:00Z</time>
      </trkpt>
      <trkpt lat="39.635818" lon="-6.940663">
        <ele>300.7</ele>
        <time>1970-01-01T00:00:00Z</time>
      </trkpt>
      <trkpt lat="39.635918" lon="-6.940415">
        <ele>300.6</ele>
        <time>1970-01-01T00:00:00Z</time>
      </trkpt>
      <trkpt lat="39.636150" lon="-6.940049">
        <ele>301.0</ele>
        <time>1970-01-01T00:00:00Z</time>
      </trkpt>
      <trkpt lat="39.636268" lon="-6.939828">
        <ele>302.2</ele>
        <time>1970-01-01T00:00:00Z</time>
      </trkpt>
      <trkpt lat="39.636435" lon="-6.939448">
        <ele>304.0</ele>
        <time>1970-01-01T00:00:00Z</time>
      </trkpt>
      <trkpt lat="39.636857" lon="-6.938708">
        <ele>306.9</ele>
        <time>1970-01-01T00:00:00Z</time>
      </trkpt>
      <trkpt lat="39.636935" lon="-6.938606">
        <ele>307.0</ele>
        <time>1970-01-01T00:00:00Z</time>
      </trkpt>
      <trkpt lat="39.637050" lon="-6.938369">
        <ele>306.7</ele>
        <time>1970-01-01T00:00:00Z</time>
      </trkpt>
      <trkpt lat="39.638163" lon="-6.936965">
        <ele>302.7</ele>
        <time>1970-01-01T00:00:00Z</time>
      </trkpt>
      <trkpt lat="39.638381" lon="-6.936714">
        <ele>302.2</ele>
        <time>1970-01-01T00:00:00Z</time>
      </trkpt>
      <trkpt lat="39.638821" lon="-6.936164">
        <ele>301.5</ele>
        <time>1970-01-01T00:00:00Z</time>
      </trkpt>
      <trkpt lat="39.638916" lon="-6.936016">
        <ele>301.2</ele>
        <time>1970-01-01T00:00:00Z</time>
      </trkpt>
      <trkpt lat="39.638951" lon="-6.935885">
        <ele>300.8</ele>
        <time>1970-01-01T00:00:00Z</time>
      </trkpt>
      <trkpt lat="39.638980" lon="-6.935685">
        <ele>300.1</ele>
        <time>1970-01-01T00:00:00Z</time>
      </trkpt>
      <trkpt lat="39.638979" lon="-6.935562">
        <ele>300.0</ele>
        <time>1970-01-01T00:00:00Z</time>
      </trkpt>
      <trkpt lat="39.639020" lon="-6.935487">
        <ele>300.0</ele>
        <time>1970-01-01T00:00:00Z</time>
      </trkpt>
      <trkpt lat="39.639195" lon="-6.935372">
        <ele>299.1</ele>
        <time>1970-01-01T00:00:00Z</time>
      </trkpt>
      <trkpt lat="39.639418" lon="-6.935313">
        <ele>298.6</ele>
        <time>1970-01-01T00:00:00Z</time>
      </trkpt>
      <trkpt lat="39.639936" lon="-6.935345">
        <ele>296.6</ele>
        <time>1970-01-01T00:00:00Z</time>
      </trkpt>
      <trkpt lat="39.640034" lon="-6.935249">
        <ele>295.8</ele>
        <time>1970-01-01T00:00:00Z</time>
      </trkpt>
      <trkpt lat="39.640293" lon="-6.935101">
        <ele>294.2</ele>
        <time>1970-01-01T00:00:00Z</time>
      </trkpt>
      <trkpt lat="39.640646" lon="-6.935094">
        <ele>292.3</ele>
        <time>1970-01-01T00:00:00Z</time>
      </trkpt>
      <trkpt lat="39.640838" lon="-6.935048">
        <ele>291.5</ele>
        <time>1970-01-01T00:00:00Z</time>
      </trkpt>
      <trkpt lat="39.641081" lon="-6.934902">
        <ele>290.0</ele>
        <time>1970-01-01T00:00:00Z</time>
      </trkpt>
      <trkpt lat="39.641230" lon="-6.934779">
        <ele>289.4</ele>
        <time>1970-01-01T00:00:00Z</time>
      </trkpt>
      <trkpt lat="39.641786" lon="-6.934251">
        <ele>284.9</ele>
        <time>1970-01-01T00:00:00Z</time>
      </trkpt>
      <trkpt lat="39.641887" lon="-6.934141">
        <ele>284.0</ele>
        <time>1970-01-01T00:00:00Z</time>
      </trkpt>
      <trkpt lat="39.642234" lon="-6.933739">
        <ele>282.0</ele>
        <time>1970-01-01T00:00:00Z</time>
      </trkpt>
      <trkpt lat="39.642308" lon="-6.933630">
        <ele>282.0</ele>
        <time>1970-01-01T00:00:00Z</time>
      </trkpt>
      <trkpt lat="39.642351" lon="-6.933541">
        <ele>281.9</ele>
        <time>1970-01-01T00:00:00Z</time>
      </trkpt>
      <trkpt lat="39.642497" lon="-6.933357">
        <ele>281.1</ele>
        <time>1970-01-01T00:00:00Z</time>
      </trkpt>
      <trkpt lat="39.642657" lon="-6.933285">
        <ele>281.0</ele>
        <time>1970-01-01T00:00:00Z</time>
      </trkpt>
      <trkpt lat="39.642766" lon="-6.933219">
        <ele>281.0</ele>
        <time>1970-01-01T00:00:00Z</time>
      </trkpt>
      <trkpt lat="39.642817" lon="-6.933173">
        <ele>281.0</ele>
        <time>1970-01-01T00:00:00Z</time>
      </trkpt>
      <trkpt lat="39.642945" lon="-6.933008">
        <ele>281.0</ele>
        <time>1970-01-01T00:00:00Z</time>
      </trkpt>
      <trkpt lat="39.643216" lon="-6.932730">
        <ele>281.8</ele>
        <time>1970-01-01T00:00:00Z</time>
      </trkpt>
      <trkpt lat="39.643441" lon="-6.932446">
        <ele>283.2</ele>
        <time>1970-01-01T00:00:00Z</time>
      </trkpt>
      <trkpt lat="39.643787" lon="-6.932116">
        <ele>286.5</ele>
        <time>1970-01-01T00:00:00Z</time>
      </trkpt>
      <trkpt lat="39.644087" lon="-6.931941">
        <ele>287.0</ele>
        <time>1970-01-01T00:00:00Z</time>
      </trkpt>
      <trkpt lat="39.644294" lon="-6.931851">
        <ele>286.5</ele>
        <time>1970-01-01T00:00:00Z</time>
      </trkpt>
      <trkpt lat="39.644665" lon="-6.931638">
        <ele>286.7</ele>
        <time>1970-01-01T00:00:00Z</time>
      </trkpt>
      <trkpt lat="39.644803" lon="-6.931557">
        <ele>287.1</ele>
        <time>1970-01-01T00:00:00Z</time>
      </trkpt>
      <trkpt lat="39.644884" lon="-6.931480">
        <ele>287.4</ele>
        <time>1970-01-01T00:00:00Z</time>
      </trkpt>
      <trkpt lat="39.645041" lon="-6.931292">
        <ele>289.0</ele>
        <time>1970-01-01T00:00:00Z</time>
      </trkpt>
      <trkpt lat="39.645116" lon="-6.931161">
        <ele>289.8</ele>
        <time>1970-01-01T00:00:00Z</time>
      </trkpt>
      <trkpt lat="39.645283" lon="-6.930798">
        <ele>292.1</ele>
        <time>1970-01-01T00:00:00Z</time>
      </trkpt>
      <trkpt lat="39.645645" lon="-6.930631">
        <ele>293.2</ele>
        <time>1970-01-01T00:00:00Z</time>
      </trkpt>
      <trkpt lat="39.645791" lon="-6.930538">
        <ele>292.7</ele>
        <time>1970-01-01T00:00:00Z</time>
      </trkpt>
      <trkpt lat="39.645977" lon="-6.930391">
        <ele>291.7</ele>
        <time>1970-01-01T00:00:00Z</time>
      </trkpt>
      <trkpt lat="39.646131" lon="-6.930222">
        <ele>290.4</ele>
        <time>1970-01-01T00:00:00Z</time>
      </trkpt>
      <trkpt lat="39.646214" lon="-6.930150">
        <ele>289.5</ele>
        <time>1970-01-01T00:00:00Z</time>
      </trkpt>
      <trkpt lat="39.646562" lon="-6.930128">
        <ele>285.1</ele>
        <time>1970-01-01T00:00:00Z</time>
      </trkpt>
      <trkpt lat="39.646721" lon="-6.930043">
        <ele>283.8</ele>
        <time>1970-01-01T00:00:00Z</time>
      </trkpt>
      <trkpt lat="39.646899" lon="-6.929918">
        <ele>282.9</ele>
        <time>1970-01-01T00:00:00Z</time>
      </trkpt>
      <trkpt lat="39.647029" lon="-6.929780">
        <ele>282.7</ele>
        <time>1970-01-01T00:00:00Z</time>
      </trkpt>
      <trkpt lat="39.647086" lon="-6.929670">
        <ele>282.9</ele>
        <time>1970-01-01T00:00:00Z</time>
      </trkpt>
      <trkpt lat="39.647153" lon="-6.929488">
        <ele>282.9</ele>
        <time>1970-01-01T00:00:00Z</time>
      </trkpt>
      <trkpt lat="39.647344" lon="-6.928757">
        <ele>285.5</ele>
        <time>1970-01-01T00:00:00Z</time>
      </trkpt>
      <trkpt lat="39.648075" lon="-6.928012">
        <ele>287.2</ele>
        <time>1970-01-01T00:00:00Z</time>
      </trkpt>
      <trkpt lat="39.648290" lon="-6.927854">
        <ele>288.0</ele>
        <time>1970-01-01T00:00:00Z</time>
      </trkpt>
      <trkpt lat="39.648525" lon="-6.927615">
        <ele>287.8</ele>
        <time>1970-01-01T00:00:00Z</time>
      </trkpt>
      <trkpt lat="39.648606" lon="-6.927514">
        <ele>287.5</ele>
        <time>1970-01-01T00:00:00Z</time>
      </trkpt>
      <trkpt lat="39.648655" lon="-6.927480">
        <ele>287.3</ele>
        <time>1970-01-01T00:00:00Z</time>
      </trkpt>
      <trkpt lat="39.648731" lon="-6.927484">
        <ele>287.0</ele>
        <time>1970-01-01T00:00:00Z</time>
      </trkpt>
      <trkpt lat="39.648770" lon="-6.927420">
        <ele>287.0</ele>
        <time>1970-01-01T00:00:00Z</time>
      </trkpt>
      <trkpt lat="39.648819" lon="-6.927383">
        <ele>287.0</ele>
        <time>1970-01-01T00:00:00Z</time>
      </trkpt>
      <trkpt lat="39.649047" lon="-6.927334">
        <ele>287.0</ele>
        <time>1970-01-01T00:00:00Z</time>
      </trkpt>
      <trkpt lat="39.649119" lon="-6.927274">
        <ele>287.1</ele>
        <time>1970-01-01T00:00:00Z</time>
      </trkpt>
      <trkpt lat="39.649330" lon="-6.927020">
        <ele>287.5</ele>
        <time>1970-01-01T00:00:00Z</time>
      </trkpt>
      <trkpt lat="39.649364" lon="-6.926968">
        <ele>287.4</ele>
        <time>1970-01-01T00:00:00Z</time>
      </trkpt>
      <trkpt lat="39.649568" lon="-6.926427">
        <ele>287.9</ele>
        <time>1970-01-01T00:00:00Z</time>
      </trkpt>
      <trkpt lat="39.649569" lon="-6.926217">
        <ele>288.0</ele>
        <time>1970-01-01T00:00:00Z</time>
      </trkpt>
      <trkpt lat="39.649579" lon="-6.926092">
        <ele>288.2</ele>
        <time>1970-01-01T00:00:00Z</time>
      </trkpt>
      <trkpt lat="39.649601" lon="-6.926002">
        <ele>288.6</ele>
        <time>1970-01-01T00:00:00Z</time>
      </trkpt>
      <trkpt lat="39.649791" lon="-6.925559">
        <ele>289.4</ele>
        <time>1970-01-01T00:00:00Z</time>
      </trkpt>
      <trkpt lat="39.649851" lon="-6.925368">
        <ele>289.9</ele>
        <time>1970-01-01T00:00:00Z</time>
      </trkpt>
      <trkpt lat="39.649914" lon="-6.925043">
        <ele>291.0</ele>
        <time>1970-01-01T00:00:00Z</time>
      </trkpt>
      <trkpt lat="39.649896" lon="-6.924877">
        <ele>291.7</ele>
        <time>1970-01-01T00:00:00Z</time>
      </trkpt>
      <trkpt lat="39.649897" lon="-6.924756">
        <ele>292.2</ele>
        <time>1970-01-01T00:00:00Z</time>
      </trkpt>
      <trkpt lat="39.649983" lon="-6.924529">
        <ele>293.5</ele>
        <time>1970-01-01T00:00:00Z</time>
      </trkpt>
      <trkpt lat="39.650162" lon="-6.924123">
        <ele>296.3</ele>
        <time>1970-01-01T00:00:00Z</time>
      </trkpt>
      <trkpt lat="39.650209" lon="-6.924044">
        <ele>296.9</ele>
        <time>1970-01-01T00:00:00Z</time>
      </trkpt>
      <trkpt lat="39.650380" lon="-6.923871">
        <ele>298.0</ele>
        <time>1970-01-01T00:00:00Z</time>
      </trkpt>
      <trkpt lat="39.650465" lon="-6.923730">
        <ele>298.0</ele>
        <time>1970-01-01T00:00:00Z</time>
      </trkpt>
      <trkpt lat="39.650564" lon="-6.923295">
        <ele>299.0</ele>
        <time>1970-01-01T00:00:00Z</time>
      </trkpt>
      <trkpt lat="39.650602" lon="-6.923191">
        <ele>299.0</ele>
        <time>1970-01-01T00:00:00Z</time>
      </trkpt>
      <trkpt lat="39.650947" lon="-6.922327">
        <ele>299.2</ele>
        <time>1970-01-01T00:00:00Z</time>
      </trkpt>
      <trkpt lat="39.651025" lon="-6.922102">
        <ele>298.5</ele>
        <time>1970-01-01T00:00:00Z</time>
      </trkpt>
      <trkpt lat="39.651072" lon="-6.922033">
        <ele>298.0</ele>
        <time>1970-01-01T00:00:00Z</time>
      </trkpt>
      <trkpt lat="39.651279" lon="-6.921525">
        <ele>295.9</ele>
        <time>1970-01-01T00:00:00Z</time>
      </trkpt>
      <trkpt lat="39.651382" lon="-6.921190">
        <ele>295.5</ele>
        <time>1970-01-01T00:00:00Z</time>
      </trkpt>
      <trkpt lat="39.651455" lon="-6.920847">
        <ele>295.0</ele>
        <time>1970-01-01T00:00:00Z</time>
      </trkpt>
      <trkpt lat="39.651589" lon="-6.920332">
        <ele>297.3</ele>
        <time>1970-01-01T00:00:00Z</time>
      </trkpt>
      <trkpt lat="39.651724" lon="-6.919888">
        <ele>299.0</ele>
        <time>1970-01-01T00:00:00Z</time>
      </trkpt>
      <trkpt lat="39.652036" lon="-6.918998">
        <ele>294.7</ele>
        <time>1970-01-01T00:00:00Z</time>
      </trkpt>
      <trkpt lat="39.652113" lon="-6.918701">
        <ele>294.4</ele>
        <time>1970-01-01T00:00:00Z</time>
      </trkpt>
      <trkpt lat="39.652180" lon="-6.918520">
        <ele>294.1</ele>
        <time>1970-01-01T00:00:00Z</time>
      </trkpt>
      <trkpt lat="39.652432" lon="-6.918101">
        <ele>292.7</ele>
        <time>1970-01-01T00:00:00Z</time>
      </trkpt>
      <trkpt lat="39.652518" lon="-6.918004">
        <ele>292.3</ele>
        <time>1970-01-01T00:00:00Z</time>
      </trkpt>
      <trkpt lat="39.652667" lon="-6.917872">
        <ele>290.8</ele>
        <time>1970-01-01T00:00:00Z</time>
      </trkpt>
      <trkpt lat="39.653514" lon="-6.917175">
        <ele>281.0</ele>
        <time>1970-01-01T00:00:00Z</time>
      </trkpt>
      <trkpt lat="39.653630" lon="-6.917029">
        <ele>281.4</ele>
        <time>1970-01-01T00:00:00Z</time>
      </trkpt>
      <trkpt lat="39.653756" lon="-6.916903">
        <ele>282.0</ele>
        <time>1970-01-01T00:00:00Z</time>
      </trkpt>
      <trkpt lat="39.654187" lon="-6.916550">
        <ele>283.1</ele>
        <time>1970-01-01T00:00:00Z</time>
      </trkpt>
      <trkpt lat="39.654375" lon="-6.916356">
        <ele>284.0</ele>
        <time>1970-01-01T00:00:00Z</time>
      </trkpt>
      <trkpt lat="39.654492" lon="-6.916207">
        <ele>284.0</ele>
        <time>1970-01-01T00:00:00Z</time>
      </trkpt>
      <trkpt lat="39.654643" lon="-6.916077">
        <ele>284.6</ele>
        <time>1970-01-01T00:00:00Z</time>
      </trkpt>
      <trkpt lat="39.654774" lon="-6.915996">
        <ele>284.9</ele>
        <time>1970-01-01T00:00:00Z</time>
      </trkpt>
      <trkpt lat="39.654908" lon="-6.915977">
        <ele>285.0</ele>
        <time>1970-01-01T00:00:00Z</time>
      </trkpt>
      <trkpt lat="39.655388" lon="-6.915831">
        <ele>284.1</ele>
        <time>1970-01-01T00:00:00Z</time>
      </trkpt>
      <trkpt lat="39.655555" lon="-6.915725">
        <ele>283.5</ele>
        <time>1970-01-01T00:00:00Z</time>
      </trkpt>
      <trkpt lat="39.655785" lon="-6.915511">
        <ele>282.5</ele>
        <time>1970-01-01T00:00:00Z</time>
      </trkpt>
      <trkpt lat="39.655924" lon="-6.915316">
        <ele>282.0</ele>
        <time>1970-01-01T00:00:00Z</time>
      </trkpt>
      <trkpt lat="39.656026" lon="-6.915093">
        <ele>282.4</ele>
        <time>1970-01-01T00:00:00Z</time>
      </trkpt>
      <trkpt lat="39.656027" lon="-6.915058">
        <ele>282.4</ele>
        <time>1970-01-01T00:00:00Z</time>
      </trkpt>
      <trkpt lat="39.656140" lon="-6.914996">
        <ele>281.7</ele>
        <time>1970-01-01T00:00:00Z</time>
      </trkpt>
      <trkpt lat="39.656253" lon="-6.914883">
        <ele>281.1</ele>
        <time>1970-01-01T00:00:00Z</time>
      </trkpt>
      <trkpt lat="39.656469" lon="-6.914573">
        <ele>281.0</ele>
        <time>1970-01-01T00:00:00Z</time>
      </trkpt>
      <trkpt lat="39.656660" lon="-6.914339">
        <ele>281.0</ele>
        <time>1970-01-01T00:00:00Z</time>
      </trkpt>
      <trkpt lat="39.657036" lon="-6.913921">
        <ele>281.0</ele>
        <time>1970-01-01T00:00:00Z</time>
      </trkpt>
      <trkpt lat="39.657227" lon="-6.913683">
        <ele>281.0</ele>
        <time>1970-01-01T00:00:00Z</time>
      </trkpt>
      <trkpt lat="39.657424" lon="-6.913403">
        <ele>282.6</ele>
        <time>1970-01-01T00:00:00Z</time>
      </trkpt>
      <trkpt lat="39.657519" lon="-6.913236">
        <ele>283.0</ele>
        <time>1970-01-01T00:00:00Z</time>
      </trkpt>
      <trkpt lat="39.657702" lon="-6.912822">
        <ele>284.4</ele>
        <time>1970-01-01T00:00:00Z</time>
      </trkpt>
      <trkpt lat="39.657786" lon="-6.912659">
        <ele>285.4</ele>
        <time>1970-01-01T00:00:00Z</time>
      </trkpt>
      <trkpt lat="39.657862" lon="-6.912555">
        <ele>285.9</ele>
        <time>1970-01-01T00:00:00Z</time>
      </trkpt>
      <trkpt lat="39.658481" lon="-6.911961">
        <ele>288.3</ele>
        <time>1970-01-01T00:00:00Z</time>
      </trkpt>
      <trkpt lat="39.658745" lon="-6.911591">
        <ele>290.6</ele>
        <time>1970-01-01T00:00:00Z</time>
      </trkpt>
      <trkpt lat="39.658798" lon="-6.911476">
        <ele>290.8</ele>
        <time>1970-01-01T00:00:00Z</time>
      </trkpt>
      <trkpt lat="39.658998" lon="-6.911258">
        <ele>290.6</ele>
        <time>1970-01-01T00:00:00Z</time>
      </trkpt>
      <trkpt lat="39.659141" lon="-6.911029">
        <ele>289.6</ele>
        <time>1970-01-01T00:00:00Z</time>
      </trkpt>
      <trkpt lat="39.659507" lon="-6.910654">
        <ele>285.4</ele>
        <time>1970-01-01T00:00:00Z</time>
      </trkpt>
      <trkpt lat="39.659686" lon="-6.910369">
        <ele>282.5</ele>
        <time>1970-01-01T00:00:00Z</time>
      </trkpt>
      <trkpt lat="39.659849" lon="-6.910178">
        <ele>279.6</ele>
        <time>1970-01-01T00:00:00Z</time>
      </trkpt>
      <trkpt lat="39.659939" lon="-6.910033">
        <ele>277.8</ele>
        <time>1970-01-01T00:00:00Z</time>
      </trkpt>
      <trkpt lat="39.660097" lon="-6.909825">
        <ele>275.1</ele>
        <time>1970-01-01T00:00:00Z</time>
      </trkpt>
      <trkpt lat="39.660433" lon="-6.909412">
        <ele>272.9</ele>
        <time>1970-01-01T00:00:00Z</time>
      </trkpt>
      <trkpt lat="39.660525" lon="-6.909282">
        <ele>272.9</ele>
        <time>1970-01-01T00:00:00Z</time>
      </trkpt>
      <trkpt lat="39.660792" lon="-6.908833">
        <ele>272.7</ele>
        <time>1970-01-01T00:00:00Z</time>
      </trkpt>
      <trkpt lat="39.661016" lon="-6.908402">
        <ele>272.4</ele>
        <time>1970-01-01T00:00:00Z</time>
      </trkpt>
      <trkpt lat="39.661205" lon="-6.908223">
        <ele>270.2</ele>
        <time>1970-01-01T00:00:00Z</time>
      </trkpt>
      <trkpt lat="39.661330" lon="-6.908015">
        <ele>268.2</ele>
        <time>1970-01-01T00:00:00Z</time>
      </trkpt>
      <trkpt lat="39.661973" lon="-6.907435">
        <ele>259.5</ele>
        <time>1970-01-01T00:00:00Z</time>
      </trkpt>
      <trkpt lat="39.662092" lon="-6.907298">
        <ele>257.9</ele>
        <time>1970-01-01T00:00:00Z</time>
      </trkpt>
      <trkpt lat="39.662182" lon="-6.907232">
        <ele>257.1</ele>
        <time>1970-01-01T00:00:00Z</time>
      </trkpt>
      <trkpt lat="39.662255" lon="-6.907219">
        <ele>256.7</ele>
        <time>1970-01-01T00:00:00Z</time>
      </trkpt>
      <trkpt lat="39.662644" lon="-6.906651">
        <ele>253.5</ele>
        <time>1970-01-01T00:00:00Z</time>
      </trkpt>
      <trkpt lat="39.662798" lon="-6.906502">
        <ele>252.9</ele>
        <time>1970-01-01T00:00:00Z</time>
      </trkpt>
      <trkpt lat="39.663173" lon="-6.906047">
        <ele>252.1</ele>
        <time>1970-01-01T00:00:00Z</time>
      </trkpt>
      <trkpt lat="39.663205" lon="-6.905968">
        <ele>251.8</ele>
        <time>1970-01-01T00:00:00Z</time>
      </trkpt>
      <trkpt lat="39.663215" lon="-6.905884">
        <ele>251.4</ele>
        <time>1970-01-01T00:00:00Z</time>
      </trkpt>
      <trkpt lat="39.663248" lon="-6.905820">
        <ele>251.1</ele>
        <time>1970-01-01T00:00:00Z</time>
      </trkpt>
      <trkpt lat="39.663419" lon="-6.905718">
        <ele>250.5</ele>
        <time>1970-01-01T00:00:00Z</time>
      </trkpt>
      <trkpt lat="39.663460" lon="-6.905674">
        <ele>250.1</ele>
        <time>1970-01-01T00:00:00Z</time>
      </trkpt>
      <trkpt lat="39.663681" lon="-6.905178">
        <ele>248.6</ele>
        <time>1970-01-01T00:00:00Z</time>
      </trkpt>
      <trkpt lat="39.663840" lon="-6.904888">
        <ele>246.8</ele>
        <time>1970-01-01T00:00:00Z</time>
      </trkpt>
      <trkpt lat="39.663926" lon="-6.904701">
        <ele>246.3</ele>
        <time>1970-01-01T00:00:00Z</time>
      </trkpt>
      <trkpt lat="39.663989" lon="-6.904593">
        <ele>246.0</ele>
        <time>1970-01-01T00:00:00Z</time>
      </trkpt>
      <trkpt lat="39.664219" lon="-6.904320">
        <ele>246.0</ele>
        <time>1970-01-01T00:00:00Z</time>
      </trkpt>
      <trkpt lat="39.664385" lon="-6.904083">
        <ele>246.0</ele>
        <time>1970-01-01T00:00:00Z</time>
      </trkpt>
      <trkpt lat="39.664476" lon="-6.903980">
        <ele>246.1</ele>
        <time>1970-01-01T00:00:00Z</time>
      </trkpt>
      <trkpt lat="39.664582" lon="-6.903946">
        <ele>246.5</ele>
        <time>1970-01-01T00:00:00Z</time>
      </trkpt>
      <trkpt lat="39.664851" lon="-6.903599">
        <ele>246.6</ele>
        <time>1970-01-01T00:00:00Z</time>
      </trkpt>
      <trkpt lat="39.665060" lon="-6.903359">
        <ele>247.1</ele>
        <time>1970-01-01T00:00:00Z</time>
      </trkpt>
      <trkpt lat="39.665239" lon="-6.903228">
        <ele>247.3</ele>
        <time>1970-01-01T00:00:00Z</time>
      </trkpt>
      <trkpt lat="39.665316" lon="-6.903117">
        <ele>247.1</ele>
        <time>1970-01-01T00:00:00Z</time>
      </trkpt>
      <trkpt lat="39.665431" lon="-6.903017">
        <ele>247.2</ele>
        <time>1970-01-01T00:00:00Z</time>
      </trkpt>
      <trkpt lat="39.665525" lon="-6.902958">
        <ele>247.3</ele>
        <time>1970-01-01T00:00:00Z</time>
      </trkpt>
      <trkpt lat="39.665578" lon="-6.902902">
        <ele>247.3</ele>
        <time>1970-01-01T00:00:00Z</time>
      </trkpt>
      <trkpt lat="39.665761" lon="-6.902631">
        <ele>247.8</ele>
        <time>1970-01-01T00:00:00Z</time>
      </trkpt>
      <trkpt lat="39.665953" lon="-6.902408">
        <ele>247.8</ele>
        <time>1970-01-01T00:00:00Z</time>
      </trkpt>
      <trkpt lat="39.666619" lon="-6.901937">
        <ele>247.7</ele>
        <time>1970-01-01T00:00:00Z</time>
      </trkpt>
      <trkpt lat="39.667280" lon="-6.901291">
        <ele>249.8</ele>
        <time>1970-01-01T00:00:00Z</time>
      </trkpt>
      <trkpt lat="39.667488" lon="-6.901044">
        <ele>251.2</ele>
        <time>1970-01-01T00:00:00Z</time>
      </trkpt>
      <trkpt lat="39.667611" lon="-6.900858">
        <ele>251.3</ele>
        <time>1970-01-01T00:00:00Z</time>
      </trkpt>
      <trkpt lat="39.667859" lon="-6.900401">
        <ele>252.9</ele>
        <time>1970-01-01T00:00:00Z</time>
      </trkpt>
      <trkpt lat="39.668001" lon="-6.900195">
        <ele>253.7</ele>
        <time>1970-01-01T00:00:00Z</time>
      </trkpt>
      <trkpt lat="39.668066" lon="-6.900137">
        <ele>254.3</ele>
        <time>1970-01-01T00:00:00Z</time>
      </trkpt>
      <trkpt lat="39.668382" lon="-6.899696">
        <ele>256.8</ele>
        <time>1970-01-01T00:00:00Z</time>
      </trkpt>
      <trkpt lat="39.668491" lon="-6.899563">
        <ele>258.8</ele>
        <time>1970-01-01T00:00:00Z</time>
      </trkpt>
      <trkpt lat="39.668558" lon="-6.899503">
        <ele>259.5</ele>
        <time>1970-01-01T00:00:00Z</time>
      </trkpt>
      <trkpt lat="39.668716" lon="-6.899278">
        <ele>261.2</ele>
        <time>1970-01-01T00:00:00Z</time>
      </trkpt>
      <trkpt lat="39.668758" lon="-6.899162">
        <ele>261.7</ele>
        <time>1970-01-01T00:00:00Z</time>
      </trkpt>
      <trkpt lat="39.668854" lon="-6.898977">
        <ele>262.1</ele>
        <time>1970-01-01T00:00:00Z</time>
      </trkpt>
      <trkpt lat="39.668950" lon="-6.898837">
        <ele>262.1</ele>
        <time>1970-01-01T00:00:00Z</time>
      </trkpt>
      <trkpt lat="39.669280" lon="-6.898426">
        <ele>263.1</ele>
        <time>1970-01-01T00:00:00Z</time>
      </trkpt>
      <trkpt lat="39.670103" lon="-6.897269">
        <ele>267.0</ele>
        <time>1970-01-01T00:00:00Z</time>
      </trkpt>
      <trkpt lat="39.670356" lon="-6.896814">
        <ele>267.7</ele>
        <time>1970-01-01T00:00:00Z</time>
      </trkpt>
      <trkpt lat="39.670588" lon="-6.896329">
        <ele>269.9</ele>
        <time>1970-01-01T00:00:00Z</time>
      </trkpt>
      <trkpt lat="39.670714" lon="-6.895981">
        <ele>270.0</ele>
        <time>1970-01-01T00:00:00Z</time>
      </trkpt>
      <trkpt lat="39.670801" lon="-6.895789">
        <ele>270.7</ele>
        <time>1970-01-01T00:00:00Z</time>
      </trkpt>
      <trkpt lat="39.670849" lon="-6.895717">
        <ele>270.9</ele>
        <time>1970-01-01T00:00:00Z</time>
      </trkpt>
      <trkpt lat="39.671100" lon="-6.895460">
        <ele>272.1</ele>
        <time>1970-01-01T00:00:00Z</time>
      </trkpt>
      <trkpt lat="39.671478" lon="-6.895146">
        <ele>273.3</ele>
        <time>1970-01-01T00:00:00Z</time>
      </trkpt>
      <trkpt lat="39.671943" lon="-6.894691">
        <ele>275.0</ele>
        <time>1970-01-01T00:00:00Z</time>
      </trkpt>
      <trkpt lat="39.672360" lon="-6.894372">
        <ele>277.3</ele>
        <time>1970-01-01T00:00:00Z</time>
      </trkpt>
      <trkpt lat="39.672570" lon="-6.894258">
        <ele>279.1</ele>
        <time>1970-01-01T00:00:00Z</time>
      </trkpt>
      <trkpt lat="39.672868" lon="-6.894052">
        <ele>281.7</ele>
        <time>1970-01-01T00:00:00Z</time>
      </trkpt>
      <trkpt lat="39.672992" lon="-6.894012">
        <ele>282.7</ele>
        <time>1970-01-01T00:00:00Z</time>
      </trkpt>
      <trkpt lat="39.673085" lon="-6.894015">
        <ele>283.3</ele>
        <time>1970-01-01T00:00:00Z</time>
      </trkpt>
      <trkpt lat="39.673202" lon="-6.894046">
        <ele>284.0</ele>
        <time>1970-01-01T00:00:00Z</time>
      </trkpt>
      <trkpt lat="39.673321" lon="-6.893974">
        <ele>284.9</ele>
        <time>1970-01-01T00:00:00Z</time>
      </trkpt>
      <trkpt lat="39.673484" lon="-6.893835">
        <ele>287.0</ele>
        <time>1970-01-01T00:00:00Z</time>
      </trkpt>
      <trkpt lat="39.673607" lon="-6.893669">
        <ele>288.0</ele>
        <time>1970-01-01T00:00:00Z</time>
      </trkpt>
      <trkpt lat="39.673825" lon="-6.893142">
        <ele>288.8</ele>
        <time>1970-01-01T00:00:00Z</time>
      </trkpt>
      <trkpt lat="39.673907" lon="-6.892986">
        <ele>289.1</ele>
        <time>1970-01-01T00:00:00Z</time>
      </trkpt>
      <trkpt lat="39.673998" lon="-6.892875">
        <ele>289.8</ele>
        <time>1970-01-01T00:00:00Z</time>
      </trkpt>
      <trkpt lat="39.674321" lon="-6.892639">
        <ele>289.5</ele>
        <time>1970-01-01T00:00:00Z</time>
      </trkpt>
      <trkpt lat="39.674439" lon="-6.892576">
        <ele>289.0</ele>
        <time>1970-01-01T00:00:00Z</time>
      </trkpt>
      <trkpt lat="39.674573" lon="-6.892522">
        <ele>288.8</ele>
        <time>1970-01-01T00:00:00Z</time>
      </trkpt>
      <trkpt lat="39.674763" lon="-6.892484">
        <ele>288.5</ele>
        <time>1970-01-01T00:00:00Z</time>
      </trkpt>
      <trkpt lat="39.675028" lon="-6.892368">
        <ele>288.0</ele>
        <time>1970-01-01T00:00:00Z</time>
      </trkpt>
      <trkpt lat="39.675189" lon="-6.892337">
        <ele>287.5</ele>
        <time>1970-01-01T00:00:00Z</time>
      </trkpt>
      <trkpt lat="39.675592" lon="-6.892350">
        <ele>284.8</ele>
        <time>1970-01-01T00:00:00Z</time>
      </trkpt>
      <trkpt lat="39.675718" lon="-6.892407">
        <ele>283.8</ele>
        <time>1970-01-01T00:00:00Z</time>
      </trkpt>
      <trkpt lat="39.675836" lon="-6.892482">
        <ele>282.6</ele>
        <time>1970-01-01T00:00:00Z</time>
      </trkpt>
      <trkpt lat="39.676204" lon="-6.892649">
        <ele>279.6</ele>
        <time>1970-01-01T00:00:00Z</time>
      </trkpt>
      <trkpt lat="39.676344" lon="-6.892726">
        <ele>278.3</ele>
        <time>1970-01-01T00:00:00Z</time>
      </trkpt>
      <trkpt lat="39.676510" lon="-6.892846">
        <ele>277.0</ele>
        <time>1970-01-01T00:00:00Z</time>
      </trkpt>
      <trkpt lat="39.676667" lon="-6.892823">
        <ele>276.2</ele>
        <time>1970-01-01T00:00:00Z</time>
      </trkpt>
      <trkpt lat="39.676847" lon="-6.892756">
        <ele>275.2</ele>
        <time>1970-01-01T00:00:00Z</time>
      </trkpt>
      <trkpt lat="39.677027" lon="-6.892717">
        <ele>274.1</ele>
        <time>1970-01-01T00:00:00Z</time>
      </trkpt>
      <trkpt lat="39.677275" lon="-6.892615">
        <ele>272.7</ele>
        <time>1970-01-01T00:00:00Z</time>
      </trkpt>
      <trkpt lat="39.677473" lon="-6.892508">
        <ele>271.9</ele>
        <time>1970-01-01T00:00:00Z</time>
      </trkpt>
      <trkpt lat="39.677772" lon="-6.892377">
        <ele>270.5</ele>
        <time>1970-01-01T00:00:00Z</time>
      </trkpt>
      <trkpt lat="39.678070" lon="-6.892265">
        <ele>268.4</ele>
        <time>1970-01-01T00:00:00Z</time>
      </trkpt>
      <trkpt lat="39.678567" lon="-6.892118">
        <ele>266.1</ele>
        <time>1970-01-01T00:00:00Z</time>
      </trkpt>
      <trkpt lat="39.678787" lon="-6.892034">
        <ele>265.5</ele>
        <time>1970-01-01T00:00:00Z</time>
      </trkpt>
      <trkpt lat="39.679271" lon="-6.891911">
        <ele>265.0</ele>
        <time>1970-01-01T00:00:00Z</time>
      </trkpt>
      <trkpt lat="39.679502" lon="-6.891803">
        <ele>265.0</ele>
        <time>1970-01-01T00:00:00Z</time>
      </trkpt>
      <trkpt lat="39.679797" lon="-6.891592">
        <ele>266.5</ele>
        <time>1970-01-01T00:00:00Z</time>
      </trkpt>
      <trkpt lat="39.680385" lon="-6.891270">
        <ele>267.8</ele>
        <time>1970-01-01T00:00:00Z</time>
      </trkpt>
      <trkpt lat="39.680759" lon="-6.891084">
        <ele>267.5</ele>
        <time>1970-01-01T00:00:00Z</time>
      </trkpt>
      <trkpt lat="39.680886" lon="-6.891047">
        <ele>267.3</ele>
        <time>1970-01-01T00:00:00Z</time>
      </trkpt>
      <trkpt lat="39.680963" lon="-6.890992">
        <ele>267.1</ele>
        <time>1970-01-01T00:00:00Z</time>
      </trkpt>
      <trkpt lat="39.681123" lon="-6.890821">
        <ele>266.3</ele>
        <time>1970-01-01T00:00:00Z</time>
      </trkpt>
      <trkpt lat="39.681232" lon="-6.890735">
        <ele>266.0</ele>
        <time>1970-01-01T00:00:00Z</time>
      </trkpt>
      <trkpt lat="39.681435" lon="-6.890609">
        <ele>265.7</ele>
        <time>1970-01-01T00:00:00Z</time>
      </trkpt>
      <trkpt lat="39.681611" lon="-6.890520">
        <ele>265.8</ele>
        <time>1970-01-01T00:00:00Z</time>
      </trkpt>
      <trkpt lat="39.681773" lon="-6.890480">
        <ele>265.5</ele>
        <time>1970-01-01T00:00:00Z</time>
      </trkpt>
      <trkpt lat="39.682605" lon="-6.890509">
        <ele>260.0</ele>
        <time>1970-01-01T00:00:00Z</time>
      </trkpt>
      <trkpt lat="39.682673" lon="-6.890535">
        <ele>259.8</ele>
        <time>1970-01-01T00:00:00Z</time>
      </trkpt>
      <trkpt lat="39.682797" lon="-6.890624">
        <ele>258.9</ele>
        <time>1970-01-01T00:00:00Z</time>
      </trkpt>
      <trkpt lat="39.682948" lon="-6.890672">
        <ele>258.4</ele>
        <time>1970-01-01T00:00:00Z</time>
      </trkpt>
      <trkpt lat="39.683581" lon="-6.890754">
        <ele>256.8</ele>
        <time>1970-01-01T00:00:00Z</time>
      </trkpt>
      <trkpt lat="39.684044" lon="-6.890834">
        <ele>253.5</ele>
        <time>1970-01-01T00:00:00Z</time>
      </trkpt>
      <trkpt lat="39.684297" lon="-6.890908">
        <ele>251.6</ele>
        <time>1970-01-01T00:00:00Z</time>
      </trkpt>
      <trkpt lat="39.684699" lon="-6.891073">
        <ele>247.5</ele>
        <time>1970-01-01T00:00:00Z</time>
      </trkpt>
      <trkpt lat="39.684881" lon="-6.891113">
        <ele>244.6</ele>
        <time>1970-01-01T00:00:00Z</time>
      </trkpt>
      <trkpt lat="39.685096" lon="-6.891061">
        <ele>241.3</ele>
        <time>1970-01-01T00:00:00Z</time>
      </trkpt>
      <trkpt lat="39.685231" lon="-6.891007">
        <ele>238.9</ele>
        <time>1970-01-01T00:00:00Z</time>
      </trkpt>
      <trkpt lat="39.685578" lon="-6.890792">
        <ele>233.3</ele>
        <time>1970-01-01T00:00:00Z</time>
      </trkpt>
      <trkpt lat="39.685823" lon="-6.890463">
        <ele>231.0</ele>
        <time>1970-01-01T00:00:00Z</time>
      </trkpt>
      <trkpt lat="39.686177" lon="-6.890160">
        <ele>228.7</ele>
        <time>1970-01-01T00:00:00Z</time>
      </trkpt>
      <trkpt lat="39.686399" lon="-6.889948">
        <ele>230.2</ele>
        <time>1970-01-01T00:00:00Z</time>
      </trkpt>
      <trkpt lat="39.686537" lon="-6.889872">
        <ele>232.2</ele>
        <time>1970-01-01T00:00:00Z</time>
      </trkpt>
      <trkpt lat="39.686825" lon="-6.889774">
        <ele>238.2</ele>
        <time>1970-01-01T00:00:00Z</time>
      </trkpt>
      <trkpt lat="39.686972" lon="-6.889743">
        <ele>241.4</ele>
        <time>1970-01-01T00:00:00Z</time>
      </trkpt>
      <trkpt lat="39.687090" lon="-6.889745">
        <ele>244.1</ele>
        <time>1970-01-01T00:00:00Z</time>
      </trkpt>
      <trkpt lat="39.687314" lon="-6.889789">
        <ele>249.6</ele>
        <time>1970-01-01T00:00:00Z</time>
      </trkpt>
      <trkpt lat="39.687442" lon="-6.889789">
        <ele>252.6</ele>
        <time>1970-01-01T00:00:00Z</time>
      </trkpt>
      <trkpt lat="39.687788" lon="-6.889848">
        <ele>256.5</ele>
        <time>1970-01-01T00:00:00Z</time>
      </trkpt>
      <trkpt lat="39.688107" lon="-6.890061">
        <ele>252.5</ele>
        <time>1970-01-01T00:00:00Z</time>
      </trkpt>
      <trkpt lat="39.688285" lon="-6.890155">
        <ele>249.3</ele>
        <time>1970-01-01T00:00:00Z</time>
      </trkpt>
      <trkpt lat="39.688455" lon="-6.890214">
        <ele>245.9</ele>
        <time>1970-01-01T00:00:00Z</time>
      </trkpt>
      <trkpt lat="39.688565" lon="-6.890235">
        <ele>243.7</ele>
        <time>1970-01-01T00:00:00Z</time>
      </trkpt>
      <trkpt lat="39.688790" lon="-6.890176">
        <ele>240.0</ele>
        <time>1970-01-01T00:00:00Z</time>
      </trkpt>
      <trkpt lat="39.688950" lon="-6.890057">
        <ele>238.7</ele>
        <time>1970-01-01T00:00:00Z</time>
      </trkpt>
      <trkpt lat="39.689252" lon="-6.889763">
        <ele>239.4</ele>
        <time>1970-01-01T00:00:00Z</time>
      </trkpt>
      <trkpt lat="39.689592" lon="-6.889493">
        <ele>240.4</ele>
        <time>1970-01-01T00:00:00Z</time>
      </trkpt>
      <trkpt lat="39.689697" lon="-6.889452">
        <ele>240.6</ele>
        <time>1970-01-01T00:00:00Z</time>
      </trkpt>
      <trkpt lat="39.689793" lon="-6.889467">
        <ele>241.2</ele>
        <time>1970-01-01T00:00:00Z</time>
      </trkpt>
      <trkpt lat="39.689928" lon="-6.889539">
        <ele>242.1</ele>
        <time>1970-01-01T00:00:00Z</time>
      </trkpt>
      <trkpt lat="39.690306" lon="-6.889805">
        <ele>246.0</ele>
        <time>1970-01-01T00:00:00Z</time>
      </trkpt>
      <trkpt lat="39.690880" lon="-6.890086">
        <ele>255.7</ele>
        <time>1970-01-01T00:00:00Z</time>
      </trkpt>
      <trkpt lat="39.691044" lon="-6.890088">
        <ele>257.7</ele>
        <time>1970-01-01T00:00:00Z</time>
      </trkpt>
      <trkpt lat="39.691315" lon="-6.890140">
        <ele>260.5</ele>
        <time>1970-01-01T00:00:00Z</time>
      </trkpt>
      <trkpt lat="39.691621" lon="-6.890234">
        <ele>265.2</ele>
        <time>1970-01-01T00:00:00Z</time>
      </trkpt>
      <trkpt lat="39.691741" lon="-6.890231">
        <ele>267.2</ele>
        <time>1970-01-01T00:00:00Z</time>
      </trkpt>
      <trkpt lat="39.691941" lon="-6.890192">
        <ele>270.5</ele>
        <time>1970-01-01T00:00:00Z</time>
      </trkpt>
      <trkpt lat="39.692516" lon="-6.890252">
        <ele>279.1</ele>
        <time>1970-01-01T00:00:00Z</time>
      </trkpt>
      <trkpt lat="39.692885" lon="-6.890330">
        <ele>279.0</ele>
        <time>1970-01-01T00:00:00Z</time>
      </trkpt>
      <trkpt lat="39.693223" lon="-6.890430">
        <ele>276.1</ele>
        <time>1970-01-01T00:00:00Z</time>
      </trkpt>
      <trkpt lat="39.693443" lon="-6.890465">
        <ele>275.0</ele>
        <time>1970-01-01T00:00:00Z</time>
      </trkpt>
      <trkpt lat="39.693804" lon="-6.890492">
        <ele>275.7</ele>
        <time>1970-01-01T00:00:00Z</time>
      </trkpt>
      <trkpt lat="39.694416" lon="-6.890509">
        <ele>278.0</ele>
        <time>1970-01-01T00:00:00Z</time>
      </trkpt>
      <trkpt lat="39.694704" lon="-6.890506">
        <ele>278.7</ele>
        <time>1970-01-01T00:00:00Z</time>
      </trkpt>
      <trkpt lat="39.694979" lon="-6.890467">
        <ele>279.9</ele>
        <time>1970-01-01T00:00:00Z</time>
      </trkpt>
      <trkpt lat="39.695396" lon="-6.890510">
        <ele>279.3</ele>
        <time>1970-01-01T00:00:00Z</time>
      </trkpt>
      <trkpt lat="39.695915" lon="-6.890604">
        <ele>280.0</ele>
        <time>1970-01-01T00:00:00Z</time>
      </trkpt>
      <trkpt lat="39.696032" lon="-6.890583">
        <ele>280.8</ele>
        <time>1970-01-01T00:00:00Z</time>
      </trkpt>
      <trkpt lat="39.696295" lon="-6.890341">
        <ele>282.3</ele>
        <time>1970-01-01T00:00:00Z</time>
      </trkpt>
      <trkpt lat="39.696417" lon="-6.890123">
        <ele>283.1</ele>
        <time>1970-01-01T00:00:00Z</time>
      </trkpt>
      <trkpt lat="39.696461" lon="-6.890017">
        <ele>283.5</ele>
        <time>1970-01-01T00:00:00Z</time>
      </trkpt>
      <trkpt lat="39.696527" lon="-6.889927">
        <ele>284.4</ele>
        <time>1970-01-01T00:00:00Z</time>
      </trkpt>
      <trkpt lat="39.697412" lon="-6.889849">
        <ele>291.0</ele>
        <time>1970-01-01T00:00:00Z</time>
      </trkpt>
      <trkpt lat="39.697843" lon="-6.889727">
        <ele>290.8</ele>
        <time>1970-01-01T00:00:00Z</time>
      </trkpt>
      <trkpt lat="39.698006" lon="-6.889648">
        <ele>290.1</ele>
        <time>1970-01-01T00:00:00Z</time>
      </trkpt>
      <trkpt lat="39.698092" lon="-6.889633">
        <ele>289.7</ele>
        <time>1970-01-01T00:00:00Z</time>
      </trkpt>
      <trkpt lat="39.698283" lon="-6.889636">
        <ele>288.9</ele>
        <time>1970-01-01T00:00:00Z</time>
      </trkpt>
      <trkpt lat="39.698444" lon="-6.889657">
        <ele>288.2</ele>
        <time>1970-01-01T00:00:00Z</time>
      </trkpt>
      <trkpt lat="39.698851" lon="-6.889853">
        <ele>286.8</ele>
        <time>1970-01-01T00:00:00Z</time>
      </trkpt>
      <trkpt lat="39.699538" lon="-6.890343">
        <ele>286.5</ele>
        <time>1970-01-01T00:00:00Z</time>
      </trkpt>
      <trkpt lat="39.699642" lon="-6.890384">
        <ele>287.0</ele>
        <time>1970-01-01T00:00:00Z</time>
      </trkpt>
      <trkpt lat="39.699846" lon="-6.890420">
        <ele>287.7</ele>
        <time>1970-01-01T00:00:00Z</time>
      </trkpt>
      <trkpt lat="39.699942" lon="-6.890418">
        <ele>287.8</ele>
        <time>1970-01-01T00:00:00Z</time>
      </trkpt>
      <trkpt lat="39.700097" lon="-6.890493">
        <ele>287.2</ele>
        <time>1970-01-01T00:00:00Z</time>
      </trkpt>
      <trkpt lat="39.700805" lon="-6.891039">
        <ele>282.9</ele>
        <time>1970-01-01T00:00:00Z</time>
      </trkpt>
      <trkpt lat="39.701016" lon="-6.891182">
        <ele>281.0</ele>
        <time>1970-01-01T00:00:00Z</time>
      </trkpt>
      <trkpt lat="39.701108" lon="-6.891212">
        <ele>280.3</ele>
        <time>1970-01-01T00:00:00Z</time>
      </trkpt>
      <trkpt lat="39.701188" lon="-6.891211">
        <ele>279.6</ele>
        <time>1970-01-01T00:00:00Z</time>
      </trkpt>
      <trkpt lat="39.701304" lon="-6.891183">
        <ele>278.6</ele>
        <time>1970-01-01T00:00:00Z</time>
      </trkpt>
      <trkpt lat="39.701592" lon="-6.891004">
        <ele>276.2</ele>
        <time>1970-01-01T00:00:00Z</time>
      </trkpt>
      <trkpt lat="39.701714" lon="-6.890838">
        <ele>274.5</ele>
        <time>1970-01-01T00:00:00Z</time>
      </trkpt>
      <trkpt lat="39.701781" lon="-6.890716">
        <ele>274.1</ele>
        <time>1970-01-01T00:00:00Z</time>
      </trkpt>
      <trkpt lat="39.701902" lon="-6.890405">
        <ele>274.7</ele>
        <time>1970-01-01T00:00:00Z</time>
      </trkpt>
      <trkpt lat="39.701955" lon="-6.890344">
        <ele>274.7</ele>
        <time>1970-01-01T00:00:00Z</time>
      </trkpt>
      <trkpt lat="39.702111" lon="-6.890253">
        <ele>275.2</ele>
        <time>1970-01-01T00:00:00Z</time>
      </trkpt>
      <trkpt lat="39.702679" lon="-6.890091">
        <ele>278.9</ele>
        <time>1970-01-01T00:00:00Z</time>
      </trkpt>
      <trkpt lat="39.703072" lon="-6.889950">
        <ele>280.9</ele>
        <time>1970-01-01T00:00:00Z</time>
      </trkpt>
      <trkpt lat="39.703961" lon="-6.889723">
        <ele>275.3</ele>
        <time>1970-01-01T00:00:00Z</time>
      </trkpt>
      <trkpt lat="39.705435" lon="-6.889300">
        <ele>272.0</ele>
        <time>1970-01-01T00:00:00Z</time>
      </trkpt>
      <trkpt lat="39.705716" lon="-6.889276">
        <ele>271.6</ele>
        <time>1970-01-01T00:00:00Z</time>
      </trkpt>
      <trkpt lat="39.706323" lon="-6.889155">
        <ele>269.1</ele>
        <time>1970-01-01T00:00:00Z</time>
      </trkpt>
      <trkpt lat="39.706707" lon="-6.889179">
        <ele>268.6</ele>
        <time>1970-01-01T00:00:00Z</time>
      </trkpt>
      <trkpt lat="39.707599" lon="-6.889123">
        <ele>266.6</ele>
        <time>1970-01-01T00:00:00Z</time>
      </trkpt>
      <trkpt lat="39.708348" lon="-6.888963">
        <ele>263.0</ele>
        <time>1970-01-01T00:00:00Z</time>
      </trkpt>
      <trkpt lat="39.708412" lon="-6.888981">
        <ele>263.0</ele>
        <time>1970-01-01T00:00:00Z</time>
      </trkpt>
      <trkpt lat="39.708490" lon="-6.889035">
        <ele>263.0</ele>
        <time>1970-01-01T00:00:00Z</time>
      </trkpt>
      <trkpt lat="39.708574" lon="-6.889200">
        <ele>263.0</ele>
        <time>1970-01-01T00:00:00Z</time>
      </trkpt>
      <trkpt lat="39.708548" lon="-6.889305">
        <ele>263.0</ele>
        <time>1970-01-01T00:00:00Z</time>
      </trkpt>
      <trkpt lat="39.708577" lon="-6.889563">
        <ele>263.0</ele>
        <time>1970-01-01T00:00:00Z</time>
      </trkpt>
      <trkpt lat="39.708830" lon="-6.890387">
        <ele>261.5</ele>
        <time>1970-01-01T00:00:00Z</time>
      </trkpt>
      <trkpt lat="39.708843" lon="-6.890694">
        <ele>260.4</ele>
        <time>1970-01-01T00:00:00Z</time>
      </trkpt>
      <trkpt lat="39.708901" lon="-6.890993">
        <ele>259.0</ele>
        <time>1970-01-01T00:00:00Z</time>
      </trkpt>
      <trkpt lat="39.709026" lon="-6.891368">
        <ele>258.6</ele>
        <time>1970-01-01T00:00:00Z</time>
      </trkpt>
      <trkpt lat="39.709184" lon="-6.891935">
        <ele>257.0</ele>
        <time>1970-01-01T00:00:00Z</time>
      </trkpt>
      <trkpt lat="39.709485" lon="-6.892403">
        <ele>256.0</ele>
        <time>1970-01-01T00:00:00Z</time>
      </trkpt>
      <trkpt lat="39.709712" lon="-6.892685">
        <ele>256.0</ele>
        <time>1970-01-01T00:00:00Z</time>
      </trkpt>
      <trkpt lat="39.709971" lon="-6.892910">
        <ele>256.0</ele>
        <time>1970-01-01T00:00:00Z</time>
      </trkpt>
      <trkpt lat="39.710188" lon="-6.893035">
        <ele>256.6</ele>
        <time>1970-01-01T00:00:00Z</time>
      </trkpt>
      <trkpt lat="39.710338" lon="-6.893157">
        <ele>257.0</ele>
        <time>1970-01-01T00:00:00Z</time>
      </trkpt>
      <trkpt lat="39.710454" lon="-6.893181">
        <ele>257.9</ele>
        <time>1970-01-01T00:00:00Z</time>
      </trkpt>
      <trkpt lat="39.710524" lon="-6.893237">
        <ele>258.3</ele>
        <time>1970-01-01T00:00:00Z</time>
      </trkpt>
      <trkpt lat="39.710610" lon="-6.893353">
        <ele>258.2</ele>
        <time>1970-01-01T00:00:00Z</time>
      </trkpt>
      <trkpt lat="39.710782" lon="-6.893844">
        <ele>256.8</ele>
        <time>1970-01-01T00:00:00Z</time>
      </trkpt>
      <trkpt lat="39.710860" lon="-6.894023">
        <ele>256.8</ele>
        <time>1970-01-01T00:00:00Z</time>
      </trkpt>
      <trkpt lat="39.710959" lon="-6.894389">
        <ele>256.0</ele>
        <time>1970-01-01T00:00:00Z</time>
      </trkpt>
      <trkpt lat="39.711019" lon="-6.894679">
        <ele>255.3</ele>
        <time>1970-01-01T00:00:00Z</time>
      </trkpt>
      <trkpt lat="39.711032" lon="-6.894976">
        <ele>255.4</ele>
        <time>1970-01-01T00:00:00Z</time>
      </trkpt>
      <trkpt lat="39.711005" lon="-6.895162">
        <ele>255.2</ele>
        <time>1970-01-01T00:00:00Z</time>
      </trkpt>
      <trkpt lat="39.711054" lon="-6.895177">
        <ele>255.6</ele>
        <time>1970-01-01T00:00:00Z</time>
      </trkpt>
      <trkpt lat="39.711141" lon="-6.895096">
        <ele>256.3</ele>
        <time>1970-01-01T00:00:00Z</time>
      </trkpt>
      <trkpt lat="39.711282" lon="-6.894916">
        <ele>257.3</ele>
        <time>1970-01-01T00:00:00Z</time>
      </trkpt>
      <trkpt lat="39.711357" lon="-6.894844">
        <ele>257.8</ele>
        <time>1970-01-01T00:00:00Z</time>
      </trkpt>
      <trkpt lat="39.711548" lon="-6.894714">
        <ele>259.3</ele>
        <time>1970-01-01T00:00:00Z</time>
      </trkpt>
      <trkpt lat="39.711678" lon="-6.894584">
        <ele>260.4</ele>
        <time>1970-01-01T00:00:00Z</time>
      </trkpt>
      <trkpt lat="39.711772" lon="-6.894524">
        <ele>261.5</ele>
        <time>1970-01-01T00:00:00Z</time>
      </trkpt>
      <trkpt lat="39.712108" lon="-6.894373">
        <ele>264.2</ele>
        <time>1970-01-01T00:00:00Z</time>
      </trkpt>
      <trkpt lat="39.712494" lon="-6.894219">
        <ele>266.5</ele>
        <time>1970-01-01T00:00:00Z</time>
      </trkpt>
      <trkpt lat="39.712664" lon="-6.894118">
        <ele>265.8</ele>
        <time>1970-01-01T00:00:00Z</time>
      </trkpt>
      <trkpt lat="39.712848" lon="-6.893986">
        <ele>263.9</ele>
        <time>1970-01-01T00:00:00Z</time>
      </trkpt>
      <trkpt lat="39.713058" lon="-6.893784">
        <ele>261.1</ele>
        <time>1970-01-01T00:00:00Z</time>
      </trkpt>
      <trkpt lat="39.713110" lon="-6.893700">
        <ele>260.0</ele>
        <time>1970-01-01T00:00:00Z</time>
      </trkpt>
      <trkpt lat="39.713186" lon="-6.893525">
        <ele>258.0</ele>
        <time>1970-01-01T00:00:00Z</time>
      </trkpt>
      <trkpt lat="39.713254" lon="-6.893405">
        <ele>256.4</ele>
        <time>1970-01-01T00:00:00Z</time>
      </trkpt>
      <trkpt lat="39.713419" lon="-6.893166">
        <ele>252.9</ele>
        <time>1970-01-01T00:00:00Z</time>
      </trkpt>
      <trkpt lat="39.713501" lon="-6.893018">
        <ele>251.5</ele>
        <time>1970-01-01T00:00:00Z</time>
      </trkpt>
      <trkpt lat="39.713535" lon="-6.892867">
        <ele>250.9</ele>
        <time>1970-01-01T00:00:00Z</time>
      </trkpt>
      <trkpt lat="39.713537" lon="-6.892785">
        <ele>250.9</ele>
        <time>1970-01-01T00:00:00Z</time>
      </trkpt>
      <trkpt lat="39.713518" lon="-6.892672">
        <ele>251.3</ele>
        <time>1970-01-01T00:00:00Z</time>
      </trkpt>
      <trkpt lat="39.713459" lon="-6.892457">
        <ele>253.6</ele>
        <time>1970-01-01T00:00:00Z</time>
      </trkpt>
      <trkpt lat="39.713475" lon="-6.892336">
        <ele>254.2</ele>
        <time>1970-01-01T00:00:00Z</time>
      </trkpt>
      <trkpt lat="39.713533" lon="-6.892125">
        <ele>255.0</ele>
        <time>1970-01-01T00:00:00Z</time>
      </trkpt>
      <trkpt lat="39.713601" lon="-6.891996">
        <ele>254.3</ele>
        <time>1970-01-01T00:00:00Z</time>
      </trkpt>
      <trkpt lat="39.713787" lon="-6.891750">
        <ele>251.8</ele>
        <time>1970-01-01T00:00:00Z</time>
      </trkpt>
      <trkpt lat="39.713847" lon="-6.891730">
        <ele>251.2</ele>
        <time>1970-01-01T00:00:00Z</time>
      </trkpt>
      <trkpt lat="39.714024" lon="-6.891858">
        <ele>248.8</ele>
        <time>1970-01-01T00:00:00Z</time>
      </trkpt>
      <trkpt lat="39.714772" lon="-6.892552">
        <ele>240.8</ele>
        <time>1970-01-01T00:00:00Z</time>
      </trkpt>
      <trkpt lat="39.714918" lon="-6.892806">
        <ele>240.0</ele>
        <time>1970-01-01T00:00:00Z</time>
      </trkpt>
      <trkpt lat="39.714977" lon="-6.892825">
        <ele>239.8</ele>
        <time>1970-01-01T00:00:00Z</time>
      </trkpt>
      <trkpt lat="39.714996" lon="-6.892906">
        <ele>239.3</ele>
        <time>1970-01-01T00:00:00Z</time>
      </trkpt>
      <trkpt lat="39.714976" lon="-6.893238">
        <ele>239.3</ele>
        <time>1970-01-01T00:00:00Z</time>
      </trkpt>
      <trkpt lat="39.714997" lon="-6.893378">
        <ele>239.3</ele>
        <time>1970-01-01T00:00:00Z</time>
      </trkpt>
      <trkpt lat="39.715033" lon="-6.893491">
        <ele>239.0</ele>
        <time>1970-01-01T00:00:00Z</time>
      </trkpt>
      <trkpt lat="39.715018" lon="-6.893699">
        <ele>239.5</ele>
        <time>1970-01-01T00:00:00Z</time>
      </trkpt>
      <trkpt lat="39.715291" lon="-6.894171">
        <ele>238.7</ele>
        <time>1970-01-01T00:00:00Z</time>
      </trkpt>
      <trkpt lat="39.715300" lon="-6.894270">
        <ele>238.7</ele>
        <time>1970-01-01T00:00:00Z</time>
      </trkpt>
      <trkpt lat="39.715285" lon="-6.894380">
        <ele>238.8</ele>
        <time>1970-01-01T00:00:00Z</time>
      </trkpt>
      <trkpt lat="39.715247" lon="-6.894453">
        <ele>239.2</ele>
        <time>1970-01-01T00:00:00Z</time>
      </trkpt>
      <trkpt lat="39.715039" lon="-6.894707">
        <ele>242.0</ele>
        <time>1970-01-01T00:00:00Z</time>
      </trkpt>
      <trkpt lat="39.715150" lon="-6.895043">
        <ele>242.0</ele>
        <time>1970-01-01T00:00:00Z</time>
      </trkpt>
      <trkpt lat="39.715080" lon="-6.895142">
        <ele>242.6</ele>
        <time>1970-01-01T00:00:00Z</time>
      </trkpt>
      <trkpt lat="39.715058" lon="-6.895195">
        <ele>242.8</ele>
        <time>1970-01-01T00:00:00Z</time>
      </trkpt>
      <trkpt lat="39.715052" lon="-6.895258">
        <ele>242.9</ele>
        <time>1970-01-01T00:00:00Z</time>
      </trkpt>
      <trkpt lat="39.715085" lon="-6.895471">
        <ele>242.6</ele>
        <time>1970-01-01T00:00:00Z</time>
      </trkpt>
      <trkpt lat="39.715102" lon="-6.895526">
        <ele>242.4</ele>
        <time>1970-01-01T00:00:00Z</time>
      </trkpt>
      <trkpt lat="39.715164" lon="-6.895640">
        <ele>242.1</ele>
        <time>1970-01-01T00:00:00Z</time>
      </trkpt>
      <trkpt lat="39.715371" lon="-6.895923">
        <ele>241.1</ele>
        <time>1970-01-01T00:00:00Z</time>
      </trkpt>
      <trkpt lat="39.715419" lon="-6.896023">
        <ele>240.7</ele>
        <time>1970-01-01T00:00:00Z</time>
      </trkpt>
      <trkpt lat="39.715479" lon="-6.896088">
        <ele>240.1</ele>
        <time>1970-01-01T00:00:00Z</time>
      </trkpt>
      <trkpt lat="39.715570" lon="-6.896301">
        <ele>238.4</ele>
        <time>1970-01-01T00:00:00Z</time>
      </trkpt>
      <trkpt lat="39.715602" lon="-6.896333">
        <ele>238.1</ele>
        <time>1970-01-01T00:00:00Z</time>
      </trkpt>
      <trkpt lat="39.715648" lon="-6.896421">
        <ele>237.7</ele>
        <time>1970-01-01T00:00:00Z</time>
      </trkpt>
      <trkpt lat="39.715784" lon="-6.896734">
        <ele>237.4</ele>
        <time>1970-01-01T00:00:00Z</time>
      </trkpt>
      <trkpt lat="39.715827" lon="-6.896851">
        <ele>237.5</ele>
        <time>1970-01-01T00:00:00Z</time>
      </trkpt>
      <trkpt lat="39.715852" lon="-6.896973">
        <ele>237.8</ele>
        <time>1970-01-01T00:00:00Z</time>
      </trkpt>
      <trkpt lat="39.715890" lon="-6.897043">
        <ele>237.2</ele>
        <time>1970-01-01T00:00:00Z</time>
      </trkpt>
      <trkpt lat="39.715932" lon="-6.897078">
        <ele>236.5</ele>
        <time>1970-01-01T00:00:00Z</time>
      </trkpt>
      <trkpt lat="39.715995" lon="-6.897097">
        <ele>235.6</ele>
        <time>1970-01-01T00:00:00Z</time>
      </trkpt>
      <trkpt lat="39.716233" lon="-6.897056">
        <ele>232.2</ele>
        <time>1970-01-01T00:00:00Z</time>
      </trkpt>
      <trkpt lat="39.716378" lon="-6.897789">
        <ele>223.7</ele>
        <time>1970-01-01T00:00:00Z</time>
      </trkpt>
      <trkpt lat="39.716477" lon="-6.898186">
        <ele>217.2</ele>
        <time>1970-01-01T00:00:00Z</time>
      </trkpt>
      <trkpt lat="39.716536" lon="-6.898378">
        <ele>215.1</ele>
        <time>1970-01-01T00:00:00Z</time>
      </trkpt>
      <trkpt lat="39.716675" lon="-6.898608">
        <ele>210.5</ele>
        <time>1970-01-01T00:00:00Z</time>
      </trkpt>
      <trkpt lat="39.716765" lon="-6.898855">
        <ele>208.1</ele>
        <time>1970-01-01T00:00:00Z</time>
      </trkpt>
      <trkpt lat="39.716769" lon="-6.898981">
        <ele>207.5</ele>
        <time>1970-01-01T00:00:00Z</time>
      </trkpt>
      <trkpt lat="39.716883" lon="-6.899744">
        <ele>202.6</ele>
        <time>1970-01-01T00:00:00Z</time>
      </trkpt>
      <trkpt lat="39.716887" lon="-6.900028">
        <ele>205.4</ele>
        <time>1970-01-01T00:00:00Z</time>
      </trkpt>
      <trkpt lat="39.716904" lon="-6.900029">
        <ele>204.6</ele>
        <time>1970-01-01T00:00:00Z</time>
      </trkpt>
      <trkpt lat="39.716910" lon="-6.899985">
        <ele>203.6</ele>
        <time>1970-01-01T00:00:00Z</time>
      </trkpt>
      <trkpt lat="39.716932" lon="-6.900029">
        <ele>203.1</ele>
        <time>1970-01-01T00:00:00Z</time>
      </trkpt>
      <trkpt lat="39.716950" lon="-6.899971">
        <ele>201.4</ele>
        <time>1970-01-01T00:00:00Z</time>
      </trkpt>
      <trkpt lat="39.716969" lon="-6.900025">
        <ele>201.1</ele>
        <time>1970-01-01T00:00:00Z</time>
      </trkpt>
      <trkpt lat="39.716983" lon="-6.900031">
        <ele>200.5</ele>
        <time>1970-01-01T00:00:00Z</time>
      </trkpt>
      <trkpt lat="39.717006" lon="-6.899981">
        <ele>198.6</ele>
        <time>1970-01-01T00:00:00Z</time>
      </trkpt>
      <trkpt lat="39.717033" lon="-6.899966">
        <ele>196.8</ele>
        <time>1970-01-01T00:00:00Z</time>
      </trkpt>
      <trkpt lat="39.717057" lon="-6.899919">
        <ele>194.9</ele>
        <time>1970-01-01T00:00:00Z</time>
      </trkpt>
      <trkpt lat="39.717090" lon="-6.899901">
        <ele>192.7</ele>
        <time>1970-01-01T00:00:00Z</time>
      </trkpt>
      <trkpt lat="39.717130" lon="-6.899702">
        <ele>188.5</ele>
        <time>1970-01-01T00:00:00Z</time>
      </trkpt>
      <trkpt lat="39.717148" lon="-6.899322">
        <ele>185.7</ele>
        <time>1970-01-01T00:00:00Z</time>
      </trkpt>
      <trkpt lat="39.717130" lon="-6.899206">
        <ele>186.5</ele>
        <time>1970-01-01T00:00:00Z</time>
      </trkpt>
      <trkpt lat="39.717132" lon="-6.899083">
        <ele>186.1</ele>
        <time>1970-01-01T00:00:00Z</time>
      </trkpt>
      <trkpt lat="39.717159" lon="-6.898859">
        <ele>184.5</ele>
        <time>1970-01-01T00:00:00Z</time>
      </trkpt>
      <trkpt lat="39.717209" lon="-6.898650">
        <ele>182.4</ele>
        <time>1970-01-01T00:00:00Z</time>
      </trkpt>
      <trkpt lat="39.717196" lon="-6.898484">
        <ele>184.0</ele>
        <time>1970-01-01T00:00:00Z</time>
      </trkpt>
      <trkpt lat="39.717012" lon="-6.898105">
        <ele>197.6</ele>
        <time>1970-01-01T00:00:00Z</time>
      </trkpt>
      <trkpt lat="39.716988" lon="-6.898008">
        <ele>199.3</ele>
        <time>1970-01-01T00:00:00Z</time>
      </trkpt>
      <trkpt lat="39.716981" lon="-6.897359">
        <ele>205.3</ele>
        <time>1970-01-01T00:00:00Z</time>
      </trkpt>
      <trkpt lat="39.717057" lon="-6.897037">
        <ele>202.7</ele>
        <time>1970-01-01T00:00:00Z</time>
      </trkpt>
      <trkpt lat="39.717169" lon="-6.896781">
        <ele>196.9</ele>
        <time>1970-01-01T00:00:00Z</time>
      </trkpt>
      <trkpt lat="39.717298" lon="-6.896441">
        <ele>191.7</ele>
        <time>1970-01-01T00:00:00Z</time>
      </trkpt>
      <trkpt lat="39.717377" lon="-6.896146">
        <ele>191.6</ele>
        <time>1970-01-01T00:00:00Z</time>
      </trkpt>
      <trkpt lat="39.717520" lon="-6.895717">
        <ele>192.0</ele>
        <time>1970-01-01T00:00:00Z</time>
      </trkpt>
      <trkpt lat="39.717577" lon="-6.895598">
        <ele>192.2</ele>
        <time>1970-01-01T00:00:00Z</time>
      </trkpt>
      <trkpt lat="39.717660" lon="-6.895479">
        <ele>191.1</ele>
        <time>1970-01-01T00:00:00Z</time>
      </trkpt>
      <trkpt lat="39.717719" lon="-6.895339">
        <ele>190.9</ele>
        <time>1970-01-01T00:00:00Z</time>
      </trkpt>
      <trkpt lat="39.717737" lon="-6.895274">
        <ele>191.3</ele>
        <time>1970-01-01T00:00:00Z</time>
      </trkpt>
      <trkpt lat="39.717738" lon="-6.895166">
        <ele>192.6</ele>
        <time>1970-01-01T00:00:00Z</time>
      </trkpt>
      <trkpt lat="39.717764" lon="-6.895087">
        <ele>192.8</ele>
        <time>1970-01-01T00:00:00Z</time>
      </trkpt>
      <trkpt lat="39.717812" lon="-6.895077">
        <ele>191.8</ele>
        <time>1970-01-01T00:00:00Z</time>
      </trkpt>
      <trkpt lat="39.717855" lon="-6.895020">
        <ele>191.4</ele>
        <time>1970-01-01T00:00:00Z</time>
      </trkpt>
      <trkpt lat="39.717852" lon="-6.895000">
        <ele>191.7</ele>
        <time>1970-01-01T00:00:00Z</time>
      </trkpt>
      <trkpt lat="39.717775" lon="-6.895028">
        <ele>193.1</ele>
        <time>1970-01-01T00:00:00Z</time>
      </trkpt>
      <trkpt lat="39.717745" lon="-6.895000">
        <ele>194.1</ele>
        <time>1970-01-01T00:00:00Z</time>
      </trkpt>
      <trkpt lat="39.717779" lon="-6.894853">
        <ele>194.6</ele>
        <time>1970-01-01T00:00:00Z</time>
      </trkpt>
      <trkpt lat="39.717807" lon="-6.894817">
        <ele>194.2</ele>
        <time>1970-01-01T00:00:00Z</time>
      </trkpt>
      <trkpt lat="39.717878" lon="-6.894777">
        <ele>193.1</ele>
        <time>1970-01-01T00:00:00Z</time>
      </trkpt>
      <trkpt lat="39.717877" lon="-6.894687">
        <ele>193.8</ele>
        <time>1970-01-01T00:00:00Z</time>
      </trkpt>
      <trkpt lat="39.718013" lon="-6.894567">
        <ele>191.5</ele>
        <time>1970-01-01T00:00:00Z</time>
      </trkpt>
      <trkpt lat="39.718038" lon="-6.894525">
        <ele>191.2</ele>
        <time>1970-01-01T00:00:00Z</time>
      </trkpt>
      <trkpt lat="39.718014" lon="-6.894314">
        <ele>193.3</ele>
        <time>1970-01-01T00:00:00Z</time>
      </trkpt>
      <trkpt lat="39.718026" lon="-6.894172">
        <ele>194.3</ele>
        <time>1970-01-01T00:00:00Z</time>
      </trkpt>
      <trkpt lat="39.718049" lon="-6.894106">
        <ele>194.4</ele>
        <time>1970-01-01T00:00:00Z</time>
      </trkpt>
      <trkpt lat="39.718183" lon="-6.894072">
        <ele>191.6</ele>
        <time>1970-01-01T00:00:00Z</time>
      </trkpt>
      <trkpt lat="39.718235" lon="-6.894003">
        <ele>190.6</ele>
        <time>1970-01-01T00:00:00Z</time>
      </trkpt>
      <trkpt lat="39.718384" lon="-6.893933">
        <ele>186.7</ele>
        <time>1970-01-01T00:00:00Z</time>
      </trkpt>
      <trkpt lat="39.718557" lon="-6.893766">
        <ele>181.4</ele>
        <time>1970-01-01T00:00:00Z</time>
      </trkpt>
      <trkpt lat="39.718666" lon="-6.893700">
        <ele>177.5</ele>
        <time>1970-01-01T00:00:00Z</time>
      </trkpt>
      <trkpt lat="39.718809" lon="-6.893481">
        <ele>174.3</ele>
        <time>1970-01-01T00:00:00Z</time>
      </trkpt>
      <trkpt lat="39.718881" lon="-6.893341">
        <ele>173.3</ele>
        <time>1970-01-01T00:00:00Z</time>
      </trkpt>
      <trkpt lat="39.718857" lon="-6.893222">
        <ele>176.1</ele>
        <time>1970-01-01T00:00:00Z</time>
      </trkpt>
      <trkpt lat="39.718804" lon="-6.893092">
        <ele>180.4</ele>
        <time>1970-01-01T00:00:00Z</time>
      </trkpt>
      <trkpt lat="39.718778" lon="-6.892914">
        <ele>186.0</ele>
        <time>1970-01-01T00:00:00Z</time>
      </trkpt>
      <trkpt lat="39.718766" lon="-6.892720">
        <ele>191.1</ele>
        <time>1970-01-01T00:00:00Z</time>
      </trkpt>
      <trkpt lat="39.718791" lon="-6.892546">
        <ele>194.3</ele>
        <time>1970-01-01T00:00:00Z</time>
      </trkpt>
      <trkpt lat="39.718785" lon="-6.892475">
        <ele>195.6</ele>
        <time>1970-01-01T00:00:00Z</time>
      </trkpt>
      <trkpt lat="39.718721" lon="-6.892299">
        <ele>199.9</ele>
        <time>1970-01-01T00:00:00Z</time>
      </trkpt>
      <trkpt lat="39.718679" lon="-6.892238">
        <ele>201.6</ele>
        <time>1970-01-01T00:00:00Z</time>
      </trkpt>
      <trkpt lat="39.718665" lon="-6.892192">
        <ele>202.5</ele>
        <time>1970-01-01T00:00:00Z</time>
      </trkpt>
      <trkpt lat="39.718761" lon="-6.892101">
        <ele>202.0</ele>
        <time>1970-01-01T00:00:00Z</time>
      </trkpt>
      <trkpt lat="39.718858" lon="-6.892044">
        <ele>201.1</ele>
        <time>1970-01-01T00:00:00Z</time>
      </trkpt>
      <trkpt lat="39.718954" lon="-6.891997">
        <ele>200.3</ele>
        <time>1970-01-01T00:00:00Z</time>
      </trkpt>
      <trkpt lat="39.719033" lon="-6.891991">
        <ele>199.3</ele>
        <time>1970-01-01T00:00:00Z</time>
      </trkpt>
      <trkpt lat="39.719264" lon="-6.891862">
        <ele>196.1</ele>
        <time>1970-01-01T00:00:00Z</time>
      </trkpt>
      <trkpt lat="39.719300" lon="-6.891828">
        <ele>195.7</ele>
        <time>1970-01-01T00:00:00Z</time>
      </trkpt>
      <trkpt lat="39.719322" lon="-6.891741">
        <ele>196.6</ele>
        <time>1970-01-01T00:00:00Z</time>
      </trkpt>
      <trkpt lat="39.719326" lon="-6.891499">
        <ele>199.2</ele>
        <time>1970-01-01T00:00:00Z</time>
      </trkpt>
      <trkpt lat="39.719365" lon="-6.891397">
        <ele>198.4</ele>
        <time>1970-01-01T00:00:00Z</time>
      </trkpt>
      <trkpt lat="39.719401" lon="-6.891329">
        <ele>197.3</ele>
        <time>1970-01-01T00:00:00Z</time>
      </trkpt>
      <trkpt lat="39.719585" lon="-6.891159">
        <ele>191.7</ele>
        <time>1970-01-01T00:00:00Z</time>
      </trkpt>
      <trkpt lat="39.719656" lon="-6.891053">
        <ele>189.2</ele>
        <time>1970-01-01T00:00:00Z</time>
      </trkpt>
      <trkpt lat="39.719684" lon="-6.890920">
        <ele>188.6</ele>
        <time>1970-01-01T00:00:00Z</time>
      </trkpt>
      <trkpt lat="39.719720" lon="-6.890711">
        <ele>188.8</ele>
        <time>1970-01-01T00:00:00Z</time>
      </trkpt>
      <trkpt lat="39.719703" lon="-6.890543">
        <ele>190.5</ele>
        <time>1970-01-01T00:00:00Z</time>
      </trkpt>
      <trkpt lat="39.719706" lon="-6.890382">
        <ele>192.0</ele>
        <time>1970-01-01T00:00:00Z</time>
      </trkpt>
      <trkpt lat="39.719638" lon="-6.889935">
        <ele>198.2</ele>
        <time>1970-01-01T00:00:00Z</time>
      </trkpt>
      <trkpt lat="39.719611" lon="-6.889821">
        <ele>199.7</ele>
        <time>1970-01-01T00:00:00Z</time>
      </trkpt>
      <trkpt lat="39.719539" lon="-6.889664">
        <ele>200.8</ele>
        <time>1970-01-01T00:00:00Z</time>
      </trkpt>
      <trkpt lat="39.719415" lon="-6.889571">
        <ele>202.3</ele>
        <time>1970-01-01T00:00:00Z</time>
      </trkpt>
      <trkpt lat="39.719297" lon="-6.889349">
        <ele>205.2</ele>
        <time>1970-01-01T00:00:00Z</time>
      </trkpt>
      <trkpt lat="39.719233" lon="-6.889109">
        <ele>206.8</ele>
        <time>1970-01-01T00:00:00Z</time>
      </trkpt>
      <trkpt lat="39.719247" lon="-6.888631">
        <ele>209.4</ele>
        <time>1970-01-01T00:00:00Z</time>
      </trkpt>
      <trkpt lat="39.719168" lon="-6.888337">
        <ele>211.1</ele>
        <time>1970-01-01T00:00:00Z</time>
      </trkpt>
    </trkseg>
    <trkseg>
      <trkpt lat="39.719168" lon="-6.888337">
        <ele>211.1</ele>
        <time>1970-01-01T00:00:00Z</time>
      </trkpt>
      <trkpt lat="39.719122" lon="-6.888209">
        <ele>211.8</ele>
        <time>1970-01-01T00:00:00Z</time>
      </trkpt>
      <trkpt lat="39.719099" lon="-6.887974">
        <ele>213.0</ele>
        <time>1970-01-01T00:00:00Z</time>
      </trkpt>
      <trkpt lat="39.719107" lon="-6.887606">
        <ele>214.6</ele>
        <time>1970-01-01T00:00:00Z</time>
      </trkpt>
      <trkpt lat="39.719122" lon="-6.887530">
        <ele>214.9</ele>
        <time>1970-01-01T00:00:00Z</time>
      </trkpt>
      <trkpt lat="39.719552" lon="-6.887224">
        <ele>217.4</ele>
        <time>1970-01-01T00:00:00Z</time>
      </trkpt>
      <trkpt lat="39.718749" lon="-6.886067">
        <ele>222.8</ele>
        <time>1970-01-01T00:00:00Z</time>
      </trkpt>
      <trkpt lat="39.718655" lon="-6.885437">
        <ele>229.8</ele>
        <time>1970-01-01T00:00:00Z</time>
      </trkpt>
      <trkpt lat="39.718425" lon="-6.884577">
        <ele>236.7</ele>
        <time>1970-01-01T00:00:00Z</time>
      </trkpt>
      <trkpt lat="39.718201" lon="-6.884163">
        <ele>239.7</ele>
        <time>1970-01-01T00:00:00Z</time>
      </trkpt>
      <trkpt lat="39.718142" lon="-6.884001">
        <ele>241.0</ele>
        <time>1970-01-01T00:00:00Z</time>
      </trkpt>
      <trkpt lat="39.717772" lon="-6.883430">
        <ele>244.1</ele>
        <time>1970-01-01T00:00:00Z</time>
      </trkpt>
      <trkpt lat="39.717543" lon="-6.882971">
        <ele>245.7</ele>
        <time>1970-01-01T00:00:00Z</time>
      </trkpt>
      <trkpt lat="39.717201" lon="-6.882366">
        <ele>245.9</ele>
        <time>1970-01-01T00:00:00Z</time>
      </trkpt>
      <trkpt lat="39.717386" lon="-6.882292">
        <ele>244.8</ele>
        <time>1970-01-01T00:00:00Z</time>
      </trkpt>
      <trkpt lat="39.717584" lon="-6.882259">
        <ele>244.2</ele>
        <time>1970-01-01T00:00:00Z</time>
      </trkpt>
      <trkpt lat="39.717959" lon="-6.882146">
        <ele>242.6</ele>
        <time>1970-01-01T00:00:00Z</time>
      </trkpt>
      <trkpt lat="39.717833" lon="-6.881841">
        <ele>240.5</ele>
        <time>1970-01-01T00:00:00Z</time>
      </trkpt>
      <trkpt lat="39.717499" lon="-6.881780">
        <ele>240.8</ele>
        <time>1970-01-01T00:00:00Z</time>
      </trkpt>
      <trkpt lat="39.717245" lon="-6.880996">
        <ele>237.8</ele>
        <time>1970-01-01T00:00:00Z</time>
      </trkpt>
      <trkpt lat="39.717295" lon="-6.880920">
        <ele>237.0</ele>
        <time>1970-01-01T00:00:00Z</time>
      </trkpt>
      <trkpt lat="39.717469" lon="-6.880972">
        <ele>235.8</ele>
        <time>1970-01-01T00:00:00Z</time>
      </trkpt>
      <trkpt lat="39.717734" lon="-6.880931">
        <ele>233.9</ele>
        <time>1970-01-01T00:00:00Z</time>
      </trkpt>
      <trkpt lat="39.717821" lon="-6.880868">
        <ele>233.6</ele>
        <time>1970-01-01T00:00:00Z</time>
      </trkpt>
      <trkpt lat="39.717907" lon="-6.880708">
        <ele>232.4</ele>
        <time>1970-01-01T00:00:00Z</time>
      </trkpt>
      <trkpt lat="39.717979" lon="-6.880461">
        <ele>229.9</ele>
        <time>1970-01-01T00:00:00Z</time>
      </trkpt>
      <trkpt lat="39.718161" lon="-6.879986">
        <ele>225.5</ele>
        <time>1970-01-01T00:00:00Z</time>
      </trkpt>
      <trkpt lat="39.718286" lon="-6.879805">
        <ele>224.3</ele>
        <time>1970-01-01T00:00:00Z</time>
      </trkpt>
      <trkpt lat="39.718461" lon="-6.879612">
        <ele>222.6</ele>
        <time>1970-01-01T00:00:00Z</time>
      </trkpt>
      <trkpt lat="39.718528" lon="-6.879461">
        <ele>222.1</ele>
        <time>1970-01-01T00:00:00Z</time>
      </trkpt>
      <trkpt lat="39.718413" lon="-6.879125">
        <ele>222.0</ele>
        <time>1970-01-01T00:00:00Z</time>
      </trkpt>
      <trkpt lat="39.718384" lon="-6.878806">
        <ele>222.6</ele>
        <time>1970-01-01T00:00:00Z</time>
      </trkpt>
      <trkpt lat="39.718468" lon="-6.878844">
        <ele>222.6</ele>
        <time>1970-01-01T00:00:00Z</time>
      </trkpt>
      <trkpt lat="39.718908" lon="-6.879124">
        <ele>222.2</ele>
        <time>1970-01-01T00:00:00Z</time>
      </trkpt>
      <trkpt lat="39.719910" lon="-6.879242">
        <ele>222.0</ele>
        <time>1970-01-01T00:00:00Z</time>
      </trkpt>
      <trkpt lat="39.720001" lon="-6.879126">
        <ele>221.3</ele>
        <time>1970-01-01T00:00:00Z</time>
      </trkpt>
      <trkpt lat="39.720150" lon="-6.878621">
        <ele>222.9</ele>
        <time>1970-01-01T00:00:00Z</time>
      </trkpt>
      <trkpt lat="39.720267" lon="-6.877969">
        <ele>224.1</ele>
        <time>1970-01-01T00:00:00Z</time>
      </trkpt>
      <trkpt lat="39.720346" lon="-6.877874">
        <ele>224.2</ele>
        <time>1970-01-01T00:00:00Z</time>
      </trkpt>
      <trkpt lat="39.720916" lon="-6.877753">
        <ele>222.2</ele>
        <time>1970-01-01T00:00:00Z</time>
      </trkpt>
      <trkpt lat="39.721152" lon="-6.877655">
        <ele>222.6</ele>
        <time>1970-01-01T00:00:00Z</time>
      </trkpt>
      <trkpt lat="39.721868" lon="-6.876997">
        <ele>226.4</ele>
        <time>1970-01-01T00:00:00Z</time>
      </trkpt>
      <trkpt lat="39.722397" lon="-6.876471">
        <ele>229.3</ele>
        <time>1970-01-01T00:00:00Z</time>
      </trkpt>
      <trkpt lat="39.722567" lon="-6.876244">
        <ele>230.6</ele>
        <time>1970-01-01T00:00:00Z</time>
      </trkpt>
      <trkpt lat="39.722778" lon="-6.875902">
        <ele>231.0</ele>
        <time>1970-01-01T00:00:00Z</time>
      </trkpt>
      <trkpt lat="39.722960" lon="-6.875639">
        <ele>231.3</ele>
        <time>1970-01-01T00:00:00Z</time>
      </trkpt>
      <trkpt lat="39.723080" lon="-6.875549">
        <ele>231.7</ele>
        <time>1970-01-01T00:00:00Z</time>
      </trkpt>
      <trkpt lat="39.723247" lon="-6.875549">
        <ele>231.7</ele>
        <time>1970-01-01T00:00:00Z</time>
      </trkpt>
      <trkpt lat="39.723520" lon="-6.875613">
        <ele>231.0</ele>
        <time>1970-01-01T00:00:00Z</time>
      </trkpt>
      <trkpt lat="39.723752" lon="-6.875631">
        <ele>230.9</ele>
        <time>1970-01-01T00:00:00Z</time>
      </trkpt>
      <trkpt lat="39.723852" lon="-6.875526">
        <ele>230.9</ele>
        <time>1970-01-01T00:00:00Z</time>
      </trkpt>
      <trkpt lat="39.723883" lon="-6.875308">
        <ele>231.0</ele>
        <time>1970-01-01T00:00:00Z</time>
      </trkpt>
      <trkpt lat="39.723939" lon="-6.875049">
        <ele>231.0</ele>
        <time>1970-01-01T00:00:00Z</time>
      </trkpt>
      <trkpt lat="39.724300" lon="-6.874346">
        <ele>231.5</ele>
        <time>1970-01-01T00:00:00Z</time>
      </trkpt>
      <trkpt lat="39.724462" lon="-6.873933">
        <ele>230.5</ele>
        <time>1970-01-01T00:00:00Z</time>
      </trkpt>
      <trkpt lat="39.724512" lon="-6.873694">
        <ele>230.1</ele>
        <time>1970-01-01T00:00:00Z</time>
      </trkpt>
      <trkpt lat="39.724612" lon="-6.873347">
        <ele>228.3</ele>
        <time>1970-01-01T00:00:00Z</time>
      </trkpt>
      <trkpt lat="39.724696" lon="-6.872988">
        <ele>228.1</ele>
        <time>1970-01-01T00:00:00Z</time>
      </trkpt>
      <trkpt lat="39.724808" lon="-6.872708">
        <ele>228.2</ele>
        <time>1970-01-01T00:00:00Z</time>
      </trkpt>
      <trkpt lat="39.724882" lon="-6.872567">
        <ele>227.4</ele>
        <time>1970-01-01T00:00:00Z</time>
      </trkpt>
      <trkpt lat="39.724980" lon="-6.872422">
        <ele>226.8</ele>
        <time>1970-01-01T00:00:00Z</time>
      </trkpt>
      <trkpt lat="39.725099" lon="-6.872344">
        <ele>226.5</ele>
        <time>1970-01-01T00:00:00Z</time>
      </trkpt>
      <trkpt lat="39.725325" lon="-6.872127">
        <ele>226.5</ele>
        <time>1970-01-01T00:00:00Z</time>
      </trkpt>
      <trkpt lat="39.725475" lon="-6.871687">
        <ele>227.5</ele>
        <time>1970-01-01T00:00:00Z</time>
      </trkpt>
      <trkpt lat="39.725331" lon="-6.870817">
        <ele>233.0</ele>
        <time>1970-01-01T00:00:00Z</time>
      </trkpt>
      <trkpt lat="39.725196" lon="-6.870678">
        <ele>233.2</ele>
        <time>1970-01-01T00:00:00Z</time>
      </trkpt>
      <trkpt lat="39.725018" lon="-6.870538">
        <ele>232.4</ele>
        <time>1970-01-01T00:00:00Z</time>
      </trkpt>
      <trkpt lat="39.724926" lon="-6.870441">
        <ele>231.6</ele>
        <time>1970-01-01T00:00:00Z</time>
      </trkpt>
      <trkpt lat="39.724890" lon="-6.870313">
        <ele>230.7</ele>
        <time>1970-01-01T00:00:00Z</time>
      </trkpt>
      <trkpt lat="39.724877" lon="-6.870140">
        <ele>229.9</ele>
        <time>1970-01-01T00:00:00Z</time>
      </trkpt>
      <trkpt lat="39.724890" lon="-6.869930">
        <ele>227.2</ele>
        <time>1970-01-01T00:00:00Z</time>
      </trkpt>
      <trkpt lat="39.724834" lon="-6.869722">
        <ele>225.4</ele>
        <time>1970-01-01T00:00:00Z</time>
      </trkpt>
      <trkpt lat="39.724695" lon="-6.869599">
        <ele>223.8</ele>
        <time>1970-01-01T00:00:00Z</time>
      </trkpt>
      <trkpt lat="39.724548" lon="-6.869531">
        <ele>222.9</ele>
        <time>1970-01-01T00:00:00Z</time>
      </trkpt>
      <trkpt lat="39.724349" lon="-6.869394">
        <ele>220.7</ele>
        <time>1970-01-01T00:00:00Z</time>
      </trkpt>
      <trkpt lat="39.724257" lon="-6.869364">
        <ele>219.3</ele>
        <time>1970-01-01T00:00:00Z</time>
      </trkpt>
      <trkpt lat="39.724086" lon="-6.869458">
        <ele>218.9</ele>
        <time>1970-01-01T00:00:00Z</time>
      </trkpt>
      <trkpt lat="39.723973" lon="-6.869588">
        <ele>219.6</ele>
        <time>1970-01-01T00:00:00Z</time>
      </trkpt>
      <trkpt lat="39.723889" lon="-6.869640">
        <ele>220.4</ele>
        <time>1970-01-01T00:00:00Z</time>
      </trkpt>
      <trkpt lat="39.723741" lon="-6.869609">
        <ele>220.1</ele>
        <time>1970-01-01T00:00:00Z</time>
      </trkpt>
      <trkpt lat="39.723547" lon="-6.869544">
        <ele>219.9</ele>
        <time>1970-01-01T00:00:00Z</time>
      </trkpt>
      <trkpt lat="39.723435" lon="-6.869488">
        <ele>219.6</ele>
        <time>1970-01-01T00:00:00Z</time>
      </trkpt>
      <trkpt lat="39.723296" lon="-6.869372">
        <ele>219.4</ele>
        <time>1970-01-01T00:00:00Z</time>
      </trkpt>
      <trkpt lat="39.723087" lon="-6.869099">
        <ele>219.5</ele>
        <time>1970-01-01T00:00:00Z</time>
      </trkpt>
      <trkpt lat="39.723056" lon="-6.869008">
        <ele>219.5</ele>
        <time>1970-01-01T00:00:00Z</time>
      </trkpt>
      <trkpt lat="39.723097" lon="-6.868936">
        <ele>218.7</ele>
        <time>1970-01-01T00:00:00Z</time>
      </trkpt>
      <trkpt lat="39.723246" lon="-6.868752">
        <ele>216.1</ele>
        <time>1970-01-01T00:00:00Z</time>
      </trkpt>
      <trkpt lat="39.723296" lon="-6.868730">
        <ele>215.4</ele>
        <time>1970-01-01T00:00:00Z</time>
      </trkpt>
      <trkpt lat="39.723373" lon="-6.868722">
        <ele>214.1</ele>
        <time>1970-01-01T00:00:00Z</time>
      </trkpt>
      <trkpt lat="39.723535" lon="-6.868603">
        <ele>212.2</ele>
        <time>1970-01-01T00:00:00Z</time>
      </trkpt>
      <trkpt lat="39.723669" lon="-6.868527">
        <ele>211.4</ele>
        <time>1970-01-01T00:00:00Z</time>
      </trkpt>
      <trkpt lat="39.723767" lon="-6.868495">
        <ele>211.2</ele>
        <time>1970-01-01T00:00:00Z</time>
      </trkpt>
      <trkpt lat="39.723994" lon="-6.868480">
        <ele>211.4</ele>
        <time>1970-01-01T00:00:00Z</time>
      </trkpt>
      <trkpt lat="39.724066" lon="-6.868445">
        <ele>211.9</ele>
        <time>1970-01-01T00:00:00Z</time>
      </trkpt>
      <trkpt lat="39.724185" lon="-6.868308">
        <ele>212.9</ele>
        <time>1970-01-01T00:00:00Z</time>
      </trkpt>
      <trkpt lat="39.724309" lon="-6.868204">
        <ele>213.0</ele>
        <time>1970-01-01T00:00:00Z</time>
      </trkpt>
      <trkpt lat="39.724663" lon="-6.868162">
        <ele>210.9</ele>
        <time>1970-01-01T00:00:00Z</time>
      </trkpt>
      <trkpt lat="39.724780" lon="-6.868125">
        <ele>210.4</ele>
        <time>1970-01-01T00:00:00Z</time>
      </trkpt>
      <trkpt lat="39.724813" lon="-6.867993">
        <ele>210.6</ele>
        <time>1970-01-01T00:00:00Z</time>
      </trkpt>
      <trkpt lat="39.724804" lon="-6.867760">
        <ele>211.7</ele>
        <time>1970-01-01T00:00:00Z</time>
      </trkpt>
      <trkpt lat="39.724819" lon="-6.867547">
        <ele>213.1</ele>
        <time>1970-01-01T00:00:00Z</time>
      </trkpt>
      <trkpt lat="39.724921" lon="-6.867377">
        <ele>214.5</ele>
        <time>1970-01-01T00:00:00Z</time>
      </trkpt>
      <trkpt lat="39.725031" lon="-6.867228">
        <ele>215.2</ele>
        <time>1970-01-01T00:00:00Z</time>
      </trkpt>
      <trkpt lat="39.725132" lon="-6.867137">
        <ele>215.7</ele>
        <time>1970-01-01T00:00:00Z</time>
      </trkpt>
      <trkpt lat="39.725422" lon="-6.866998">
        <ele>214.7</ele>
        <time>1970-01-01T00:00:00Z</time>
      </trkpt>
      <trkpt lat="39.725494" lon="-6.866604">
        <ele>220.4</ele>
        <time>1970-01-01T00:00:00Z</time>
      </trkpt>
      <trkpt lat="39.725563" lon="-6.866322">
        <ele>223.6</ele>
        <time>1970-01-01T00:00:00Z</time>
      </trkpt>
      <trkpt lat="39.725623" lon="-6.866295">
        <ele>223.6</ele>
        <time>1970-01-01T00:00:00Z</time>
      </trkpt>
      <trkpt lat="39.725822" lon="-6.866492">
        <ele>220.3</ele>
        <time>1970-01-01T00:00:00Z</time>
      </trkpt>
      <trkpt lat="39.725933" lon="-6.866555">
        <ele>219.5</ele>
        <time>1970-01-01T00:00:00Z</time>
      </trkpt>
      <trkpt lat="39.726562" lon="-6.866765">
        <ele>217.1</ele>
        <time>1970-01-01T00:00:00Z</time>
      </trkpt>
      <trkpt lat="39.726679" lon="-6.866824">
        <ele>216.8</ele>
        <time>1970-01-01T00:00:00Z</time>
      </trkpt>
      <trkpt lat="39.726956" lon="-6.867019">
        <ele>215.5</ele>
        <time>1970-01-01T00:00:00Z</time>
      </trkpt>
      <trkpt lat="39.727110" lon="-6.867090">
        <ele>215.3</ele>
        <time>1970-01-01T00:00:00Z</time>
      </trkpt>
      <trkpt lat="39.727329" lon="-6.867156">
        <ele>214.1</ele>
        <time>1970-01-01T00:00:00Z</time>
      </trkpt>
      <trkpt lat="39.727552" lon="-6.867203">
        <ele>213.7</ele>
        <time>1970-01-01T00:00:00Z</time>
      </trkpt>
      <trkpt lat="39.727655" lon="-6.867204">
        <ele>214.1</ele>
        <time>1970-01-01T00:00:00Z</time>
      </trkpt>
      <trkpt lat="39.727708" lon="-6.867173">
        <ele>214.8</ele>
        <time>1970-01-01T00:00:00Z</time>
      </trkpt>
      <trkpt lat="39.727757" lon="-6.867081">
        <ele>216.6</ele>
        <time>1970-01-01T00:00:00Z</time>
      </trkpt>
      <trkpt lat="39.727780" lon="-6.867009">
        <ele>218.3</ele>
        <time>1970-01-01T00:00:00Z</time>
      </trkpt>
      <trkpt lat="39.727840" lon="-6.866938">
        <ele>220.1</ele>
        <time>1970-01-01T00:00:00Z</time>
      </trkpt>
      <trkpt lat="39.727947" lon="-6.866922">
        <ele>220.9</ele>
        <time>1970-01-01T00:00:00Z</time>
      </trkpt>
      <trkpt lat="39.728094" lon="-6.866925">
        <ele>221.5</ele>
        <time>1970-01-01T00:00:00Z</time>
      </trkpt>
      <trkpt lat="39.728182" lon="-6.866905">
        <ele>222.0</ele>
        <time>1970-01-01T00:00:00Z</time>
      </trkpt>
      <trkpt lat="39.728275" lon="-6.866851">
        <ele>223.4</ele>
        <time>1970-01-01T00:00:00Z</time>
      </trkpt>
      <trkpt lat="39.728356" lon="-6.866777">
        <ele>225.4</ele>
        <time>1970-01-01T00:00:00Z</time>
      </trkpt>
      <trkpt lat="39.728411" lon="-6.866681">
        <ele>228.3</ele>
        <time>1970-01-01T00:00:00Z</time>
      </trkpt>
      <trkpt lat="39.728492" lon="-6.866345">
        <ele>236.4</ele>
        <time>1970-01-01T00:00:00Z</time>
      </trkpt>
      <trkpt lat="39.728565" lon="-6.866275">
        <ele>237.9</ele>
        <time>1970-01-01T00:00:00Z</time>
      </trkpt>
      <trkpt lat="39.729711" lon="-6.865984">
        <ele>251.1</ele>
        <time>1970-01-01T00:00:00Z</time>
      </trkpt>
      <trkpt lat="39.729927" lon="-6.865847">
        <ele>247.9</ele>
        <time>1970-01-01T00:00:00Z</time>
      </trkpt>
      <trkpt lat="39.730248" lon="-6.865614">
        <ele>239.2</ele>
        <time>1970-01-01T00:00:00Z</time>
      </trkpt>
      <trkpt lat="39.730279" lon="-6.865516">
        <ele>238.8</ele>
        <time>1970-01-01T00:00:00Z</time>
      </trkpt>
      <trkpt lat="39.730279" lon="-6.865309">
        <ele>240.3</ele>
        <time>1970-01-01T00:00:00Z</time>
      </trkpt>
      <trkpt lat="39.730237" lon="-6.865057">
        <ele>244.0</ele>
        <time>1970-01-01T00:00:00Z</time>
      </trkpt>
      <trkpt lat="39.730188" lon="-6.864879">
        <ele>247.0</ele>
        <time>1970-01-01T00:00:00Z</time>
      </trkpt>
      <trkpt lat="39.730130" lon="-6.864728">
        <ele>248.8</ele>
        <time>1970-01-01T00:00:00Z</time>
      </trkpt>
      <trkpt lat="39.730204" lon="-6.864236">
        <ele>246.7</ele>
        <time>1970-01-01T00:00:00Z</time>
      </trkpt>
      <trkpt lat="39.730214" lon="-6.864036">
        <ele>245.9</ele>
        <time>1970-01-01T00:00:00Z</time>
      </trkpt>
      <trkpt lat="39.730178" lon="-6.863973">
        <ele>246.8</ele>
        <time>1970-01-01T00:00:00Z</time>
      </trkpt>
      <trkpt lat="39.730099" lon="-6.863902">
        <ele>248.6</ele>
        <time>1970-01-01T00:00:00Z</time>
      </trkpt>
      <trkpt lat="39.730000" lon="-6.863847">
        <ele>250.9</ele>
        <time>1970-01-01T00:00:00Z</time>
      </trkpt>
      <trkpt lat="39.729958" lon="-6.863773">
        <ele>251.7</ele>
        <time>1970-01-01T00:00:00Z</time>
      </trkpt>
      <trkpt lat="39.729964" lon="-6.863704">
        <ele>251.2</ele>
        <time>1970-01-01T00:00:00Z</time>
      </trkpt>
      <trkpt lat="39.730054" lon="-6.863544">
        <ele>248.2</ele>
        <time>1970-01-01T00:00:00Z</time>
      </trkpt>
      <trkpt lat="39.730136" lon="-6.863358">
        <ele>245.6</ele>
        <time>1970-01-01T00:00:00Z</time>
      </trkpt>
      <trkpt lat="39.730189" lon="-6.863198">
        <ele>244.2</ele>
        <time>1970-01-01T00:00:00Z</time>
      </trkpt>
      <trkpt lat="39.730184" lon="-6.863072">
        <ele>244.3</ele>
        <time>1970-01-01T00:00:00Z</time>
      </trkpt>
      <trkpt lat="39.730099" lon="-6.862968">
        <ele>246.1</ele>
        <time>1970-01-01T00:00:00Z</time>
      </trkpt>
      <trkpt lat="39.730012" lon="-6.862897">
        <ele>248.0</ele>
        <time>1970-01-01T00:00:00Z</time>
      </trkpt>
      <trkpt lat="39.729895" lon="-6.862853">
        <ele>250.8</ele>
        <time>1970-01-01T00:00:00Z</time>
      </trkpt>
      <trkpt lat="39.729822" lon="-6.862768">
        <ele>252.7</ele>
        <time>1970-01-01T00:00:00Z</time>
      </trkpt>
      <trkpt lat="39.729999" lon="-6.862370">
        <ele>251.4</ele>
        <time>1970-01-01T00:00:00Z</time>
      </trkpt>
      <trkpt lat="39.730059" lon="-6.862304">
        <ele>250.7</ele>
        <time>1970-01-01T00:00:00Z</time>
      </trkpt>
      <trkpt lat="39.730242" lon="-6.862189">
        <ele>248.1</ele>
        <time>1970-01-01T00:00:00Z</time>
      </trkpt>
      <trkpt lat="39.730464" lon="-6.861927">
        <ele>245.9</ele>
        <time>1970-01-01T00:00:00Z</time>
      </trkpt>
      <trkpt lat="39.730737" lon="-6.861913">
        <ele>237.6</ele>
        <time>1970-01-01T00:00:00Z</time>
      </trkpt>
      <trkpt lat="39.730855" lon="-6.861867">
        <ele>234.4</ele>
        <time>1970-01-01T00:00:00Z</time>
      </trkpt>
      <trkpt lat="39.731086" lon="-6.861609">
        <ele>229.8</ele>
        <time>1970-01-01T00:00:00Z</time>
      </trkpt>
      <trkpt lat="39.731292" lon="-6.861346">
        <ele>227.4</ele>
        <time>1970-01-01T00:00:00Z</time>
      </trkpt>
      <trkpt lat="39.731383" lon="-6.861295">
        <ele>226.2</ele>
        <time>1970-01-01T00:00:00Z</time>
      </trkpt>
      <trkpt lat="39.731508" lon="-6.861252">
        <ele>224.9</ele>
        <time>1970-01-01T00:00:00Z</time>
      </trkpt>
      <trkpt lat="39.731556" lon="-6.861136">
        <ele>226.1</ele>
        <time>1970-01-01T00:00:00Z</time>
      </trkpt>
      <trkpt lat="39.731532" lon="-6.860947">
        <ele>228.9</ele>
        <time>1970-01-01T00:00:00Z</time>
      </trkpt>
      <trkpt lat="39.731425" lon="-6.860727">
        <ele>233.4</ele>
        <time>1970-01-01T00:00:00Z</time>
      </trkpt>
      <trkpt lat="39.731055" lon="-6.860222">
        <ele>241.4</ele>
        <time>1970-01-01T00:00:00Z</time>
      </trkpt>
      <trkpt lat="39.731080" lon="-6.860159">
        <ele>241.6</ele>
        <time>1970-01-01T00:00:00Z</time>
      </trkpt>
      <trkpt lat="39.731755" lon="-6.859960">
        <ele>243.7</ele>
        <time>1970-01-01T00:00:00Z</time>
      </trkpt>
      <trkpt lat="39.731778" lon="-6.859860">
        <ele>246.0</ele>
        <time>1970-01-01T00:00:00Z</time>
      </trkpt>
      <trkpt lat="39.731284" lon="-6.859568">
        <ele>248.6</ele>
        <time>1970-01-01T00:00:00Z</time>
      </trkpt>
      <trkpt lat="39.731270" lon="-6.859469">
        <ele>250.1</ele>
        <time>1970-01-01T00:00:00Z</time>
      </trkpt>
      <trkpt lat="39.731305" lon="-6.859446">
        <ele>250.6</ele>
        <time>1970-01-01T00:00:00Z</time>
      </trkpt>
      <trkpt lat="39.731458" lon="-6.859439">
        <ele>251.8</ele>
        <time>1970-01-01T00:00:00Z</time>
      </trkpt>
      <trkpt lat="39.731757" lon="-6.859451">
        <ele>253.9</ele>
        <time>1970-01-01T00:00:00Z</time>
      </trkpt>
      <trkpt lat="39.731938" lon="-6.859387">
        <ele>256.0</ele>
        <time>1970-01-01T00:00:00Z</time>
      </trkpt>
      <trkpt lat="39.732216" lon="-6.859232">
        <ele>261.7</ele>
        <time>1970-01-01T00:00:00Z</time>
      </trkpt>
      <trkpt lat="39.732358" lon="-6.859100">
        <ele>266.0</ele>
        <time>1970-01-01T00:00:00Z</time>
      </trkpt>
      <trkpt lat="39.732421" lon="-6.858923">
        <ele>268.3</ele>
        <time>1970-01-01T00:00:00Z</time>
      </trkpt>
      <trkpt lat="39.732458" lon="-6.858093">
        <ele>272.8</ele>
        <time>1970-01-01T00:00:00Z</time>
      </trkpt>
      <trkpt lat="39.732445" lon="-6.857917">
        <ele>272.7</ele>
        <time>1970-01-01T00:00:00Z</time>
      </trkpt>
      <trkpt lat="39.732450" lon="-6.857757">
        <ele>272.4</ele>
        <time>1970-01-01T00:00:00Z</time>
      </trkpt>
      <trkpt lat="39.732704" lon="-6.857055">
        <ele>270.2</ele>
        <time>1970-01-01T00:00:00Z</time>
      </trkpt>
      <trkpt lat="39.732787" lon="-6.856994">
        <ele>269.8</ele>
        <time>1970-01-01T00:00:00Z</time>
      </trkpt>
      <trkpt lat="39.732914" lon="-6.856963">
        <ele>269.3</ele>
        <time>1970-01-01T00:00:00Z</time>
      </trkpt>
      <trkpt lat="39.733118" lon="-6.856962">
        <ele>268.4</ele>
        <time>1970-01-01T00:00:00Z</time>
      </trkpt>
      <trkpt lat="39.733199" lon="-6.856933">
        <ele>268.1</ele>
        <time>1970-01-01T00:00:00Z</time>
      </trkpt>
      <trkpt lat="39.733270" lon="-6.856831">
        <ele>268.2</ele>
        <time>1970-01-01T00:00:00Z</time>
      </trkpt>
      <trkpt lat="39.733314" lon="-6.856651">
        <ele>268.7</ele>
        <time>1970-01-01T00:00:00Z</time>
      </trkpt>
      <trkpt lat="39.733442" lon="-6.856418">
        <ele>269.3</ele>
        <time>1970-01-01T00:00:00Z</time>
      </trkpt>
      <trkpt lat="39.733589" lon="-6.856293">
        <ele>269.8</ele>
        <time>1970-01-01T00:00:00Z</time>
      </trkpt>
      <trkpt lat="39.733784" lon="-6.855756">
        <ele>272.7</ele>
        <time>1970-01-01T00:00:00Z</time>
      </trkpt>
      <trkpt lat="39.733879" lon="-6.855645">
        <ele>273.3</ele>
        <time>1970-01-01T00:00:00Z</time>
      </trkpt>
      <trkpt lat="39.733964" lon="-6.855598">
        <ele>273.7</ele>
        <time>1970-01-01T00:00:00Z</time>
      </trkpt>
      <trkpt lat="39.734193" lon="-6.855549">
        <ele>274.1</ele>
        <time>1970-01-01T00:00:00Z</time>
      </trkpt>
      <trkpt lat="39.734590" lon="-6.855362">
        <ele>275.7</ele>
        <time>1970-01-01T00:00:00Z</time>
      </trkpt>
      <trkpt lat="39.734859" lon="-6.855167">
        <ele>278.4</ele>
        <time>1970-01-01T00:00:00Z</time>
      </trkpt>
      <trkpt lat="39.734931" lon="-6.855070">
        <ele>279.3</ele>
        <time>1970-01-01T00:00:00Z</time>
      </trkpt>
      <trkpt lat="39.734977" lon="-6.854904">
        <ele>281.2</ele>
        <time>1970-01-01T00:00:00Z</time>
      </trkpt>
      <trkpt lat="39.735045" lon="-6.854733">
        <ele>282.6</ele>
        <time>1970-01-01T00:00:00Z</time>
      </trkpt>
      <trkpt lat="39.735930" lon="-6.853540">
        <ele>286.0</ele>
        <time>1970-01-01T00:00:00Z</time>
      </trkpt>
      <trkpt lat="39.735984" lon="-6.853400">
        <ele>286.3</ele>
        <time>1970-01-01T00:00:00Z</time>
      </trkpt>
      <trkpt lat="39.735972" lon="-6.853249">
        <ele>287.0</ele>
        <time>1970-01-01T00:00:00Z</time>
      </trkpt>
      <trkpt lat="39.735926" lon="-6.853122">
        <ele>287.4</ele>
        <time>1970-01-01T00:00:00Z</time>
      </trkpt>
      <trkpt lat="39.735234" lon="-6.852402">
        <ele>290.7</ele>
        <time>1970-01-01T00:00:00Z</time>
      </trkpt>
      <trkpt lat="39.735120" lon="-6.852312">
        <ele>291.4</ele>
        <time>1970-01-01T00:00:00Z</time>
      </trkpt>
      <trkpt lat="39.734926" lon="-6.852259">
        <ele>292.5</ele>
        <time>1970-01-01T00:00:00Z</time>
      </trkpt>
      <trkpt lat="39.734576" lon="-6.852215">
        <ele>292.4</ele>
        <time>1970-01-01T00:00:00Z</time>
      </trkpt>
      <trkpt lat="39.734456" lon="-6.852164">
        <ele>292.1</ele>
        <time>1970-01-01T00:00:00Z</time>
      </trkpt>
      <trkpt lat="39.734277" lon="-6.852040">
        <ele>291.8</ele>
        <time>1970-01-01T00:00:00Z</time>
      </trkpt>
      <trkpt lat="39.734112" lon="-6.851851">
        <ele>290.9</ele>
        <time>1970-01-01T00:00:00Z</time>
      </trkpt>
      <trkpt lat="39.733493" lon="-6.851525">
        <ele>287.6</ele>
        <time>1970-01-01T00:00:00Z</time>
      </trkpt>
      <trkpt lat="39.733291" lon="-6.851474">
        <ele>288.3</ele>
        <time>1970-01-01T00:00:00Z</time>
      </trkpt>
      <trkpt lat="39.732051" lon="-6.851516">
        <ele>290.5</ele>
        <time>1970-01-01T00:00:00Z</time>
      </trkpt>
      <trkpt lat="39.731792" lon="-6.851448">
        <ele>289.8</ele>
        <time>1970-01-01T00:00:00Z</time>
      </trkpt>
      <trkpt lat="39.731431" lon="-6.851297">
        <ele>290.0</ele>
        <time>1970-01-01T00:00:00Z</time>
      </trkpt>
      <trkpt lat="39.731074" lon="-6.851183">
        <ele>291.1</ele>
        <time>1970-01-01T00:00:00Z</time>
      </trkpt>
      <trkpt lat="39.730723" lon="-6.851129">
        <ele>292.8</ele>
        <time>1970-01-01T00:00:00Z</time>
      </trkpt>
      <trkpt lat="39.730256" lon="-6.851080">
        <ele>293.0</ele>
        <time>1970-01-01T00:00:00Z</time>
      </trkpt>
      <trkpt lat="39.729995" lon="-6.851123">
        <ele>293.9</ele>
        <time>1970-01-01T00:00:00Z</time>
      </trkpt>
      <trkpt lat="39.729639" lon="-6.851244">
        <ele>295.5</ele>
        <time>1970-01-01T00:00:00Z</time>
      </trkpt>
      <trkpt lat="39.729433" lon="-6.851289">
        <ele>297.7</ele>
        <time>1970-01-01T00:00:00Z</time>
      </trkpt>
      <trkpt lat="39.729275" lon="-6.851302">
        <ele>300.3</ele>
        <time>1970-01-01T00:00:00Z</time>
      </trkpt>
      <trkpt lat="39.729130" lon="-6.851292">
        <ele>303.2</ele>
        <time>1970-01-01T00:00:00Z</time>
      </trkpt>
      <trkpt lat="39.728930" lon="-6.851241">
        <ele>306.1</ele>
        <time>1970-01-01T00:00:00Z</time>
      </trkpt>
      <trkpt lat="39.728543" lon="-6.851183">
        <ele>309.0</ele>
        <time>1970-01-01T00:00:00Z</time>
      </trkpt>
      <trkpt lat="39.728299" lon="-6.851159">
        <ele>308.8</ele>
        <time>1970-01-01T00:00:00Z</time>
      </trkpt>
      <trkpt lat="39.727970" lon="-6.851044">
        <ele>305.9</ele>
        <time>1970-01-01T00:00:00Z</time>
      </trkpt>
      <trkpt lat="39.727187" lon="-6.850490">
        <ele>294.1</ele>
        <time>1970-01-01T00:00:00Z</time>
      </trkpt>
      <trkpt lat="39.727091" lon="-6.850470">
        <ele>293.2</ele>
        <time>1970-01-01T00:00:00Z</time>
      </trkpt>
      <trkpt lat="39.726917" lon="-6.850470">
        <ele>291.7</ele>
        <time>1970-01-01T00:00:00Z</time>
      </trkpt>
      <trkpt lat="39.726673" lon="-6.850414">
        <ele>289.8</ele>
        <time>1970-01-01T00:00:00Z</time>
      </trkpt>
      <trkpt lat="39.726550" lon="-6.850272">
        <ele>289.1</ele>
        <time>1970-01-01T00:00:00Z</time>
      </trkpt>
      <trkpt lat="39.726001" lon="-6.849481">
        <ele>291.3</ele>
        <time>1970-01-01T00:00:00Z</time>
      </trkpt>
      <trkpt lat="39.725840" lon="-6.849205">
        <ele>292.5</ele>
        <time>1970-01-01T00:00:00Z</time>
      </trkpt>
      <trkpt lat="39.725789" lon="-6.849042">
        <ele>293.2</ele>
        <time>1970-01-01T00:00:00Z</time>
      </trkpt>
      <trkpt lat="39.725852" lon="-6.848793">
        <ele>295.7</ele>
        <time>1970-01-01T00:00:00Z</time>
      </trkpt>
      <trkpt lat="39.725998" lon="-6.848424">
        <ele>299.4</ele>
        <time>1970-01-01T00:00:00Z</time>
      </trkpt>
      <trkpt lat="39.726043" lon="-6.848199">
        <ele>301.6</ele>
        <time>1970-01-01T00:00:00Z</time>
      </trkpt>
      <trkpt lat="39.726226" lon="-6.846042">
        <ele>317.1</ele>
        <time>1970-01-01T00:00:00Z</time>
      </trkpt>
      <trkpt lat="39.725791" lon="-6.845060">
        <ele>316.0</ele>
        <time>1970-01-01T00:00:00Z</time>
      </trkpt>
      <trkpt lat="39.725732" lon="-6.844837">
        <ele>315.4</ele>
        <time>1970-01-01T00:00:00Z</time>
      </trkpt>
      <trkpt lat="39.725727" lon="-6.843308">
        <ele>312.7</ele>
        <time>1970-01-01T00:00:00Z</time>
      </trkpt>
      <trkpt lat="39.725738" lon="-6.842630">
        <ele>311.7</ele>
        <time>1970-01-01T00:00:00Z</time>
      </trkpt>
      <trkpt lat="39.725708" lon="-6.842549">
        <ele>311.7</ele>
        <time>1970-01-01T00:00:00Z</time>
      </trkpt>
      <trkpt lat="39.725642" lon="-6.842536">
        <ele>312.2</ele>
        <time>1970-01-01T00:00:00Z</time>
      </trkpt>
      <trkpt lat="39.725464" lon="-6.842555">
        <ele>312.9</ele>
        <time>1970-01-01T00:00:00Z</time>
      </trkpt>
      <trkpt lat="39.724737" lon="-6.842762">
        <ele>313.0</ele>
        <time>1970-01-01T00:00:00Z</time>
      </trkpt>
      <trkpt lat="39.724438" lon="-6.842871">
        <ele>312.8</ele>
        <time>1970-01-01T00:00:00Z</time>
      </trkpt>
      <trkpt lat="39.723997" lon="-6.843113">
        <ele>313.7</ele>
        <time>1970-01-01T00:00:00Z</time>
      </trkpt>
      <trkpt lat="39.723788" lon="-6.843262">
        <ele>314.0</ele>
        <time>1970-01-01T00:00:00Z</time>
      </trkpt>
      <trkpt lat="39.722483" lon="-6.844273">
        <ele>308.6</ele>
        <time>1970-01-01T00:00:00Z</time>
      </trkpt>
      <trkpt lat="39.721127" lon="-6.845272">
        <ele>299.7</ele>
        <time>1970-01-01T00:00:00Z</time>
      </trkpt>
      <trkpt lat="39.720286" lon="-6.845911">
        <ele>291.4</ele>
        <time>1970-01-01T00:00:00Z</time>
      </trkpt>
      <trkpt lat="39.719843" lon="-6.846205">
        <ele>291.7</ele>
        <time>1970-01-01T00:00:00Z</time>
      </trkpt>
      <trkpt lat="39.719672" lon="-6.846265">
        <ele>290.9</ele>
        <time>1970-01-01T00:00:00Z</time>
      </trkpt>
      <trkpt lat="39.719515" lon="-6.846266">
        <ele>289.5</ele>
        <time>1970-01-01T00:00:00Z</time>
      </trkpt>
      <trkpt lat="39.719378" lon="-6.846150">
        <ele>287.9</ele>
        <time>1970-01-01T00:00:00Z</time>
      </trkpt>
      <trkpt lat="39.719267" lon="-6.845983">
        <ele>286.2</ele>
        <time>1970-01-01T00:00:00Z</time>
      </trkpt>
      <trkpt lat="39.719212" lon="-6.845805">
        <ele>285.0</ele>
        <time>1970-01-01T00:00:00Z</time>
      </trkpt>
      <trkpt lat="39.719132" lon="-6.845704">
        <ele>284.3</ele>
        <time>1970-01-01T00:00:00Z</time>
      </trkpt>
      <trkpt lat="39.719124" lon="-6.845587">
        <ele>284.1</ele>
        <time>1970-01-01T00:00:00Z</time>
      </trkpt>
      <trkpt lat="39.719432" lon="-6.845108">
        <ele>284.4</ele>
        <time>1970-01-01T00:00:00Z</time>
      </trkpt>
      <trkpt lat="39.720338" lon="-6.843586">
        <ele>291.1</ele>
        <time>1970-01-01T00:00:00Z</time>
      </trkpt>
      <trkpt lat="39.720569" lon="-6.843172">
        <ele>290.0</ele>
        <time>1970-01-01T00:00:00Z</time>
      </trkpt>
      <trkpt lat="39.720770" lon="-6.842734">
        <ele>291.7</ele>
        <time>1970-01-01T00:00:00Z</time>
      </trkpt>
      <trkpt lat="39.720926" lon="-6.842311">
        <ele>294.5</ele>
        <time>1970-01-01T00:00:00Z</time>
      </trkpt>
      <trkpt lat="39.720988" lon="-6.842052">
        <ele>296.7</ele>
        <time>1970-01-01T00:00:00Z</time>
      </trkpt>
      <trkpt lat="39.721005" lon="-6.841804">
        <ele>299.3</ele>
        <time>1970-01-01T00:00:00Z</time>
      </trkpt>
      <trkpt lat="39.720977" lon="-6.841509">
        <ele>303.1</ele>
        <time>1970-01-01T00:00:00Z</time>
      </trkpt>
      <trkpt lat="39.720893" lon="-6.841062">
        <ele>305.2</ele>
        <time>1970-01-01T00:00:00Z</time>
      </trkpt>
      <trkpt lat="39.720684" lon="-6.840280">
        <ele>307.1</ele>
        <time>1970-01-01T00:00:00Z</time>
      </trkpt>
      <trkpt lat="39.720662" lon="-6.840084">
        <ele>306.5</ele>
        <time>1970-01-01T00:00:00Z</time>
      </trkpt>
      <trkpt lat="39.720640" lon="-6.839717">
        <ele>307.3</ele>
        <time>1970-01-01T00:00:00Z</time>
      </trkpt>
      <trkpt lat="39.720675" lon="-6.837381">
        <ele>307.5</ele>
        <time>1970-01-01T00:00:00Z</time>
      </trkpt>
      <trkpt lat="39.720678" lon="-6.836444">
        <ele>305.9</ele>
        <time>1970-01-01T00:00:00Z</time>
      </trkpt>
      <trkpt lat="39.720476" lon="-6.835405">
        <ele>309.1</ele>
        <time>1970-01-01T00:00:00Z</time>
      </trkpt>
      <trkpt lat="39.720186" lon="-6.834027">
        <ele>314.1</ele>
        <time>1970-01-01T00:00:00Z</time>
      </trkpt>
      <trkpt lat="39.719935" lon="-6.832951">
        <ele>320.0</ele>
        <time>1970-01-01T00:00:00Z</time>
      </trkpt>
      <trkpt lat="39.718539" lon="-6.828825">
        <ele>321.0</ele>
        <time>1970-01-01T00:00:00Z</time>
      </trkpt>
      <trkpt lat="39.717830" lon="-6.827078">
        <ele>323.1</ele>
        <time>1970-01-01T00:00:00Z</time>
      </trkpt>
      <trkpt lat="39.718009" lon="-6.826036">
        <ele>324.8</ele>
        <time>1970-01-01T00:00:00Z</time>
      </trkpt>
      <trkpt lat="39.718157" lon="-6.825383">
        <ele>323.6</ele>
        <time>1970-01-01T00:00:00Z</time>
      </trkpt>
      <trkpt lat="39.718270" lon="-6.824140">
        <ele>319.5</ele>
        <time>1970-01-01T00:00:00Z</time>
      </trkpt>
      <trkpt lat="39.718298" lon="-6.823174">
        <ele>316.6</ele>
        <time>1970-01-01T00:00:00Z</time>
      </trkpt>
      <trkpt lat="39.718390" lon="-6.822700">
        <ele>317.0</ele>
        <time>1970-01-01T00:00:00Z</time>
      </trkpt>
      <trkpt lat="39.718531" lon="-6.822258">
        <ele>317.6</ele>
        <time>1970-01-01T00:00:00Z</time>
      </trkpt>
      <trkpt lat="39.718640" lon="-6.821757">
        <ele>318.1</ele>
        <time>1970-01-01T00:00:00Z</time>
      </trkpt>
    </trkseg>
    <trkseg>
      <trkpt lat="39.718640" lon="-6.821757">
        <ele>318.1</ele>
        <time>1970-01-01T00:00:00Z</time>
      </trkpt>
      <trkpt lat="39.718752" lon="-6.821252">
        <ele>320.2</ele>
        <time>1970-01-01T00:00:00Z</time>
      </trkpt>
      <trkpt lat="39.718696" lon="-6.821062">
        <ele>321.0</ele>
        <time>1970-01-01T00:00:00Z</time>
      </trkpt>
      <trkpt lat="39.718597" lon="-6.820933">
        <ele>321.6</ele>
        <time>1970-01-01T00:00:00Z</time>
      </trkpt>
      <trkpt lat="39.718520" lon="-6.820716">
        <ele>323.1</ele>
        <time>1970-01-01T00:00:00Z</time>
      </trkpt>
      <trkpt lat="39.718544" lon="-6.820280">
        <ele>324.6</ele>
        <time>1970-01-01T00:00:00Z</time>
      </trkpt>
      <trkpt lat="39.718454" lon="-6.820134">
        <ele>325.0</ele>
        <time>1970-01-01T00:00:00Z</time>
      </trkpt>
      <trkpt lat="39.718193" lon="-6.819994">
        <ele>325.0</ele>
        <time>1970-01-01T00:00:00Z</time>
      </trkpt>
      <trkpt lat="39.718220" lon="-6.819744">
        <ele>325.0</ele>
        <time>1970-01-01T00:00:00Z</time>
      </trkpt>
      <trkpt lat="39.718336" lon="-6.819545">
        <ele>325.1</ele>
        <time>1970-01-01T00:00:00Z</time>
      </trkpt>
      <trkpt lat="39.718253" lon="-6.819400">
        <ele>325.8</ele>
        <time>1970-01-01T00:00:00Z</time>
      </trkpt>
      <trkpt lat="39.718089" lon="-6.819223">
        <ele>327.3</ele>
        <time>1970-01-01T00:00:00Z</time>
      </trkpt>
      <trkpt lat="39.718147" lon="-6.819147">
        <ele>327.1</ele>
        <time>1970-01-01T00:00:00Z</time>
      </trkpt>
      <trkpt lat="39.718075" lon="-6.819064">
        <ele>327.6</ele>
        <time>1970-01-01T00:00:00Z</time>
      </trkpt>
      <trkpt lat="39.717968" lon="-6.819073">
        <ele>328.4</ele>
        <time>1970-01-01T00:00:00Z</time>
      </trkpt>
      <trkpt lat="39.717929" lon="-6.819063">
        <ele>328.7</ele>
        <time>1970-01-01T00:00:00Z</time>
      </trkpt>
      <trkpt lat="39.717697" lon="-6.818855">
        <ele>331.2</ele>
        <time>1970-01-01T00:00:00Z</time>
      </trkpt>
      <trkpt lat="39.717469" lon="-6.818485">
        <ele>335.2</ele>
        <time>1970-01-01T00:00:00Z</time>
      </trkpt>
      <trkpt lat="39.717383" lon="-6.818427">
        <ele>335.8</ele>
        <time>1970-01-01T00:00:00Z</time>
      </trkpt>
      <trkpt lat="39.717423" lon="-6.818176">
        <ele>336.8</ele>
        <time>1970-01-01T00:00:00Z</time>
      </trkpt>
      <trkpt lat="39.717435" lon="-6.817999">
        <ele>337.5</ele>
        <time>1970-01-01T00:00:00Z</time>
      </trkpt>
      <trkpt lat="39.717476" lon="-6.817866">
        <ele>337.8</ele>
        <time>1970-01-01T00:00:00Z</time>
      </trkpt>
      <trkpt lat="39.717098" lon="-6.817285">
        <ele>341.8</ele>
        <time>1970-01-01T00:00:00Z</time>
      </trkpt>
      <trkpt lat="39.716959" lon="-6.817091">
        <ele>343.0</ele>
        <time>1970-01-01T00:00:00Z</time>
      </trkpt>
      <trkpt lat="39.716814" lon="-6.816528">
        <ele>344.5</ele>
        <time>1970-01-01T00:00:00Z</time>
      </trkpt>
      <trkpt lat="39.716809" lon="-6.816384">
        <ele>345.1</ele>
        <time>1970-01-01T00:00:00Z</time>
      </trkpt>
      <trkpt lat="39.716779" lon="-6.816265">
        <ele>345.7</ele>
        <time>1970-01-01T00:00:00Z</time>
      </trkpt>
      <trkpt lat="39.716622" lon="-6.816020">
        <ele>345.7</ele>
        <time>1970-01-01T00:00:00Z</time>
      </trkpt>
      <trkpt lat="39.716655" lon="-6.815643">
        <ele>344.8</ele>
        <time>1970-01-01T00:00:00Z</time>
      </trkpt>
      <trkpt lat="39.716598" lon="-6.815290">
        <ele>343.8</ele>
        <time>1970-01-01T00:00:00Z</time>
      </trkpt>
      <trkpt lat="39.716553" lon="-6.815156">
        <ele>343.4</ele>
        <time>1970-01-01T00:00:00Z</time>
      </trkpt>
      <trkpt lat="39.716479" lon="-6.815007">
        <ele>342.6</ele>
        <time>1970-01-01T00:00:00Z</time>
      </trkpt>
      <trkpt lat="39.716066" lon="-6.814554">
        <ele>340.9</ele>
        <time>1970-01-01T00:00:00Z</time>
      </trkpt>
      <trkpt lat="39.715891" lon="-6.814187">
        <ele>340.9</ele>
        <time>1970-01-01T00:00:00Z</time>
      </trkpt>
      <trkpt lat="39.715768" lon="-6.813771">
        <ele>340.0</ele>
        <time>1970-01-01T00:00:00Z</time>
      </trkpt>
      <trkpt lat="39.715712" lon="-6.813310">
        <ele>339.5</ele>
        <time>1970-01-01T00:00:00Z</time>
      </trkpt>
      <trkpt lat="39.715868" lon="-6.812398">
        <ele>337.4</ele>
        <time>1970-01-01T00:00:00Z</time>
      </trkpt>
      <trkpt lat="39.715989" lon="-6.812077">
        <ele>336.4</ele>
        <time>1970-01-01T00:00:00Z</time>
      </trkpt>
      <trkpt lat="39.716242" lon="-6.810343">
        <ele>335.1</ele>
        <time>1970-01-01T00:00:00Z</time>
      </trkpt>
      <trkpt lat="39.716251" lon="-6.810203">
        <ele>335.2</ele>
        <time>1970-01-01T00:00:00Z</time>
      </trkpt>
      <trkpt lat="39.716231" lon="-6.810044">
        <ele>335.3</ele>
        <time>1970-01-01T00:00:00Z</time>
      </trkpt>
      <trkpt lat="39.716247" lon="-6.809894">
        <ele>335.5</ele>
        <time>1970-01-01T00:00:00Z</time>
      </trkpt>
      <trkpt lat="39.716280" lon="-6.809770">
        <ele>335.9</ele>
        <time>1970-01-01T00:00:00Z</time>
      </trkpt>
      <trkpt lat="39.716339" lon="-6.809670">
        <ele>335.9</ele>
        <time>1970-01-01T00:00:00Z</time>
      </trkpt>
      <trkpt lat="39.716491" lon="-6.809498">
        <ele>335.2</ele>
        <time>1970-01-01T00:00:00Z</time>
      </trkpt>
      <trkpt lat="39.716537" lon="-6.809387">
        <ele>335.0</ele>
        <time>1970-01-01T00:00:00Z</time>
      </trkpt>
      <trkpt lat="39.716533" lon="-6.809317">
        <ele>335.0</ele>
        <time>1970-01-01T00:00:00Z</time>
      </trkpt>
      <trkpt lat="39.716433" lon="-6.809100">
        <ele>335.5</ele>
        <time>1970-01-01T00:00:00Z</time>
      </trkpt>
      <trkpt lat="39.716219" lon="-6.808719">
        <ele>338.0</ele>
        <time>1970-01-01T00:00:00Z</time>
      </trkpt>
      <trkpt lat="39.715671" lon="-6.808074">
        <ele>341.9</ele>
        <time>1970-01-01T00:00:00Z</time>
      </trkpt>
      <trkpt lat="39.715645" lon="-6.808006">
        <ele>342.3</ele>
        <time>1970-01-01T00:00:00Z</time>
      </trkpt>
      <trkpt lat="39.715802" lon="-6.807730">
        <ele>342.2</ele>
        <time>1970-01-01T00:00:00Z</time>
      </trkpt>
      <trkpt lat="39.715891" lon="-6.807523">
        <ele>341.8</ele>
        <time>1970-01-01T00:00:00Z</time>
      </trkpt>
      <trkpt lat="39.715962" lon="-6.807291">
        <ele>341.5</ele>
        <time>1970-01-01T00:00:00Z</time>
      </trkpt>
      <trkpt lat="39.716060" lon="-6.807074">
        <ele>341.1</ele>
        <time>1970-01-01T00:00:00Z</time>
      </trkpt>
      <trkpt lat="39.716502" lon="-6.806312">
        <ele>338.2</ele>
        <time>1970-01-01T00:00:00Z</time>
      </trkpt>
      <trkpt lat="39.716641" lon="-6.806041">
        <ele>337.6</ele>
        <time>1970-01-01T00:00:00Z</time>
      </trkpt>
      <trkpt lat="39.716870" lon="-6.805335">
        <ele>338.0</ele>
        <time>1970-01-01T00:00:00Z</time>
      </trkpt>
      <trkpt lat="39.716951" lon="-6.804999">
        <ele>338.0</ele>
        <time>1970-01-01T00:00:00Z</time>
      </trkpt>
      <trkpt lat="39.717104" lon="-6.804178">
        <ele>340.0</ele>
        <time>1970-01-01T00:00:00Z</time>
      </trkpt>
      <trkpt lat="39.717134" lon="-6.803856">
        <ele>341.8</ele>
        <time>1970-01-01T00:00:00Z</time>
      </trkpt>
      <trkpt lat="39.717154" lon="-6.803339">
        <ele>344.6</ele>
        <time>1970-01-01T00:00:00Z</time>
      </trkpt>
      <trkpt lat="39.717188" lon="-6.803072">
        <ele>345.8</ele>
        <time>1970-01-01T00:00:00Z</time>
      </trkpt>
      <trkpt lat="39.717229" lon="-6.802570">
        <ele>348.0</ele>
        <time>1970-01-01T00:00:00Z</time>
      </trkpt>
      <trkpt lat="39.717228" lon="-6.802262">
        <ele>349.3</ele>
        <time>1970-01-01T00:00:00Z</time>
      </trkpt>
      <trkpt lat="39.717199" lon="-6.801986">
        <ele>350.5</ele>
        <time>1970-01-01T00:00:00Z</time>
      </trkpt>
      <trkpt lat="39.717055" lon="-6.801363">
        <ele>353.0</ele>
        <time>1970-01-01T00:00:00Z</time>
      </trkpt>
      <trkpt lat="39.717030" lon="-6.800320">
        <ele>357.7</ele>
        <time>1970-01-01T00:00:00Z</time>
      </trkpt>
      <trkpt lat="39.717010" lon="-6.800129">
        <ele>358.0</ele>
        <time>1970-01-01T00:00:00Z</time>
      </trkpt>
      <trkpt lat="39.716960" lon="-6.799899">
        <ele>358.0</ele>
        <time>1970-01-01T00:00:00Z</time>
      </trkpt>
      <trkpt lat="39.716895" lon="-6.798884">
        <ele>361.9</ele>
        <time>1970-01-01T00:00:00Z</time>
      </trkpt>
      <trkpt lat="39.716842" lon="-6.798273">
        <ele>361.8</ele>
        <time>1970-01-01T00:00:00Z</time>
      </trkpt>
      <trkpt lat="39.716897" lon="-6.798121">
        <ele>361.4</ele>
        <time>1970-01-01T00:00:00Z</time>
      </trkpt>
      <trkpt lat="39.716993" lon="-6.797916">
        <ele>361.0</ele>
        <time>1970-01-01T00:00:00Z</time>
      </trkpt>
      <trkpt lat="39.719626" lon="-6.793766">
        <ele>363.6</ele>
        <time>1970-01-01T00:00:00Z</time>
      </trkpt>
      <trkpt lat="39.719908" lon="-6.793310">
        <ele>364.4</ele>
        <time>1970-01-01T00:00:00Z</time>
      </trkpt>
      <trkpt lat="39.720405" lon="-6.792404">
        <ele>369.8</ele>
        <time>1970-01-01T00:00:00Z</time>
      </trkpt>
      <trkpt lat="39.720889" lon="-6.791341">
        <ele>377.5</ele>
        <time>1970-01-01T00:00:00Z</time>
      </trkpt>
      <trkpt lat="39.720904" lon="-6.791244">
        <ele>378.0</ele>
        <time>1970-01-01T00:00:00Z</time>
      </trkpt>
      <trkpt lat="39.720862" lon="-6.790967">
        <ele>379.8</ele>
        <time>1970-01-01T00:00:00Z</time>
      </trkpt>
      <trkpt lat="39.720690" lon="-6.790558">
        <ele>382.9</ele>
        <time>1970-01-01T00:00:00Z</time>
      </trkpt>
      <trkpt lat="39.720693" lon="-6.790474">
        <ele>383.2</ele>
        <time>1970-01-01T00:00:00Z</time>
      </trkpt>
      <trkpt lat="39.720766" lon="-6.790283">
        <ele>383.5</ele>
        <time>1970-01-01T00:00:00Z</time>
      </trkpt>
      <trkpt lat="39.720794" lon="-6.790166">
        <ele>382.7</ele>
        <time>1970-01-01T00:00:00Z</time>
      </trkpt>
      <trkpt lat="39.720791" lon="-6.790030">
        <ele>382.3</ele>
        <time>1970-01-01T00:00:00Z</time>
      </trkpt>
      <trkpt lat="39.720808" lon="-6.789913">
        <ele>382.1</ele>
        <time>1970-01-01T00:00:00Z</time>
      </trkpt>
      <trkpt lat="39.720876" lon="-6.789815">
        <ele>381.5</ele>
        <time>1970-01-01T00:00:00Z</time>
      </trkpt>
      <trkpt lat="39.720969" lon="-6.789726">
        <ele>380.2</ele>
        <time>1970-01-01T00:00:00Z</time>
      </trkpt>
      <trkpt lat="39.721386" lon="-6.789226">
        <ele>375.1</ele>
        <time>1970-01-01T00:00:00Z</time>
      </trkpt>
      <trkpt lat="39.721511" lon="-6.789127">
        <ele>375.0</ele>
        <time>1970-01-01T00:00:00Z</time>
      </trkpt>
      <trkpt lat="39.721631" lon="-6.789002">
        <ele>375.0</ele>
        <time>1970-01-01T00:00:00Z</time>
      </trkpt>
      <trkpt lat="39.721755" lon="-6.788834">
        <ele>374.5</ele>
        <time>1970-01-01T00:00:00Z</time>
      </trkpt>
      <trkpt lat="39.721854" lon="-6.788664">
        <ele>374.1</ele>
        <time>1970-01-01T00:00:00Z</time>
      </trkpt>
      <trkpt lat="39.721979" lon="-6.788392">
        <ele>375.0</ele>
        <time>1970-01-01T00:00:00Z</time>
      </trkpt>
      <trkpt lat="39.722044" lon="-6.788220">
        <ele>375.0</ele>
        <time>1970-01-01T00:00:00Z</time>
      </trkpt>
      <trkpt lat="39.722020" lon="-6.787915">
        <ele>373.8</ele>
        <time>1970-01-01T00:00:00Z</time>
      </trkpt>
      <trkpt lat="39.722040" lon="-6.787818">
        <ele>373.3</ele>
        <time>1970-01-01T00:00:00Z</time>
      </trkpt>
      <trkpt lat="39.722069" lon="-6.787733">
        <ele>373.0</ele>
        <time>1970-01-01T00:00:00Z</time>
      </trkpt>
      <trkpt lat="39.722193" lon="-6.787572">
        <ele>372.8</ele>
        <time>1970-01-01T00:00:00Z</time>
      </trkpt>
      <trkpt lat="39.722230" lon="-6.787438">
        <ele>372.0</ele>
        <time>1970-01-01T00:00:00Z</time>
      </trkpt>
      <trkpt lat="39.722205" lon="-6.787027">
        <ele>369.4</ele>
        <time>1970-01-01T00:00:00Z</time>
      </trkpt>
      <trkpt lat="39.722223" lon="-6.786778">
        <ele>367.2</ele>
        <time>1970-01-01T00:00:00Z</time>
      </trkpt>
      <trkpt lat="39.722511" lon="-6.786221">
        <ele>360.6</ele>
        <time>1970-01-01T00:00:00Z</time>
      </trkpt>
      <trkpt lat="39.722573" lon="-6.785956">
        <ele>357.6</ele>
        <time>1970-01-01T00:00:00Z</time>
      </trkpt>
      <trkpt lat="39.722650" lon="-6.785484">
        <ele>353.2</ele>
        <time>1970-01-01T00:00:00Z</time>
      </trkpt>
      <trkpt lat="39.722786" lon="-6.784982">
        <ele>349.1</ele>
        <time>1970-01-01T00:00:00Z</time>
      </trkpt>
      <trkpt lat="39.722757" lon="-6.784707">
        <ele>345.9</ele>
        <time>1970-01-01T00:00:00Z</time>
      </trkpt>
      <trkpt lat="39.722730" lon="-6.784594">
        <ele>345.1</ele>
        <time>1970-01-01T00:00:00Z</time>
      </trkpt>
      <trkpt lat="39.722761" lon="-6.784055">
        <ele>341.3</ele>
        <time>1970-01-01T00:00:00Z</time>
      </trkpt>
      <trkpt lat="39.722817" lon="-6.783565">
        <ele>341.0</ele>
        <time>1970-01-01T00:00:00Z</time>
      </trkpt>
      <trkpt lat="39.722854" lon="-6.783480">
        <ele>341.1</ele>
        <time>1970-01-01T00:00:00Z</time>
      </trkpt>
      <trkpt lat="39.722948" lon="-6.783369">
        <ele>341.6</ele>
        <time>1970-01-01T00:00:00Z</time>
      </trkpt>
      <trkpt lat="39.722974" lon="-6.783319">
        <ele>341.9</ele>
        <time>1970-01-01T00:00:00Z</time>
      </trkpt>
      <trkpt lat="39.722990" lon="-6.783251">
        <ele>342.2</ele>
        <time>1970-01-01T00:00:00Z</time>
      </trkpt>
      <trkpt lat="39.722998" lon="-6.783167">
        <ele>342.5</ele>
        <time>1970-01-01T00:00:00Z</time>
      </trkpt>
      <trkpt lat="39.722968" lon="-6.782872">
        <ele>341.2</ele>
        <time>1970-01-01T00:00:00Z</time>
      </trkpt>
      <trkpt lat="39.722967" lon="-6.782763">
        <ele>340.3</ele>
        <time>1970-01-01T00:00:00Z</time>
      </trkpt>
      <trkpt lat="39.722987" lon="-6.782636">
        <ele>339.5</ele>
        <time>1970-01-01T00:00:00Z</time>
      </trkpt>
      <trkpt lat="39.723102" lon="-6.782311">
        <ele>339.0</ele>
        <time>1970-01-01T00:00:00Z</time>
      </trkpt>
      <trkpt lat="39.723354" lon="-6.781483">
        <ele>335.8</ele>
        <time>1970-01-01T00:00:00Z</time>
      </trkpt>
      <trkpt lat="39.723413" lon="-6.781368">
        <ele>335.7</ele>
        <time>1970-01-01T00:00:00Z</time>
      </trkpt>
      <trkpt lat="39.723500" lon="-6.781150">
        <ele>335.2</ele>
        <time>1970-01-01T00:00:00Z</time>
      </trkpt>
      <trkpt lat="39.723568" lon="-6.780939">
        <ele>334.3</ele>
        <time>1970-01-01T00:00:00Z</time>
      </trkpt>
      <trkpt lat="39.723966" lon="-6.780327">
        <ele>334.1</ele>
        <time>1970-01-01T00:00:00Z</time>
      </trkpt>
      <trkpt lat="39.723962" lon="-6.780210">
        <ele>333.6</ele>
        <time>1970-01-01T00:00:00Z</time>
      </trkpt>
      <trkpt lat="39.723897" lon="-6.780029">
        <ele>331.7</ele>
        <time>1970-01-01T00:00:00Z</time>
      </trkpt>
      <trkpt lat="39.723878" lon="-6.779914">
        <ele>330.5</ele>
        <time>1970-01-01T00:00:00Z</time>
      </trkpt>
      <trkpt lat="39.723913" lon="-6.779608">
        <ele>329.3</ele>
        <time>1970-01-01T00:00:00Z</time>
      </trkpt>
      <trkpt lat="39.724115" lon="-6.779261">
        <ele>329.1</ele>
        <time>1970-01-01T00:00:00Z</time>
      </trkpt>
      <trkpt lat="39.724169" lon="-6.779054">
        <ele>328.9</ele>
        <time>1970-01-01T00:00:00Z</time>
      </trkpt>
      <trkpt lat="39.724143" lon="-6.778744">
        <ele>327.7</ele>
        <time>1970-01-01T00:00:00Z</time>
      </trkpt>
      <trkpt lat="39.724099" lon="-6.778532">
        <ele>325.4</ele>
        <time>1970-01-01T00:00:00Z</time>
      </trkpt>
      <trkpt lat="39.724096" lon="-6.778393">
        <ele>324.5</ele>
        <time>1970-01-01T00:00:00Z</time>
      </trkpt>
      <trkpt lat="39.724122" lon="-6.778217">
        <ele>324.2</ele>
        <time>1970-01-01T00:00:00Z</time>
      </trkpt>
      <trkpt lat="39.724227" lon="-6.777818">
        <ele>323.8</ele>
        <time>1970-01-01T00:00:00Z</time>
      </trkpt>
      <trkpt lat="39.724318" lon="-6.777578">
        <ele>323.9</ele>
        <time>1970-01-01T00:00:00Z</time>
      </trkpt>
      <trkpt lat="39.724453" lon="-6.777428">
        <ele>324.8</ele>
        <time>1970-01-01T00:00:00Z</time>
      </trkpt>
      <trkpt lat="39.724515" lon="-6.777337">
        <ele>325.0</ele>
        <time>1970-01-01T00:00:00Z</time>
      </trkpt>
      <trkpt lat="39.724563" lon="-6.777219">
        <ele>324.9</ele>
        <time>1970-01-01T00:00:00Z</time>
      </trkpt>
      <trkpt lat="39.724569" lon="-6.777081">
        <ele>324.4</ele>
        <time>1970-01-01T00:00:00Z</time>
      </trkpt>
      <trkpt lat="39.724523" lon="-6.776928">
        <ele>324.0</ele>
        <time>1970-01-01T00:00:00Z</time>
      </trkpt>
      <trkpt lat="39.724204" lon="-6.776236">
        <ele>315.0</ele>
        <time>1970-01-01T00:00:00Z</time>
      </trkpt>
      <trkpt lat="39.724152" lon="-6.776076">
        <ele>313.2</ele>
        <time>1970-01-01T00:00:00Z</time>
      </trkpt>
      <trkpt lat="39.724132" lon="-6.775924">
        <ele>312.1</ele>
        <time>1970-01-01T00:00:00Z</time>
      </trkpt>
      <trkpt lat="39.724150" lon="-6.775797">
        <ele>311.4</ele>
        <time>1970-01-01T00:00:00Z</time>
      </trkpt>
      <trkpt lat="39.724378" lon="-6.775449">
        <ele>311.4</ele>
        <time>1970-01-01T00:00:00Z</time>
      </trkpt>
      <trkpt lat="39.724450" lon="-6.775285">
        <ele>310.7</ele>
        <time>1970-01-01T00:00:00Z</time>
      </trkpt>
      <trkpt lat="39.724480" lon="-6.775123">
        <ele>310.1</ele>
        <time>1970-01-01T00:00:00Z</time>
      </trkpt>
      <trkpt lat="39.724477" lon="-6.774706">
        <ele>308.5</ele>
        <time>1970-01-01T00:00:00Z</time>
      </trkpt>
      <trkpt lat="39.724402" lon="-6.774243">
        <ele>306.9</ele>
        <time>1970-01-01T00:00:00Z</time>
      </trkpt>
      <trkpt lat="39.724399" lon="-6.774065">
        <ele>306.7</ele>
        <time>1970-01-01T00:00:00Z</time>
      </trkpt>
      <trkpt lat="39.724410" lon="-6.773937">
        <ele>305.7</ele>
        <time>1970-01-01T00:00:00Z</time>
      </trkpt>
      <trkpt lat="39.724402" lon="-6.773766">
        <ele>304.6</ele>
        <time>1970-01-01T00:00:00Z</time>
      </trkpt>
      <trkpt lat="39.724331" lon="-6.773621">
        <ele>303.3</ele>
        <time>1970-01-01T00:00:00Z</time>
      </trkpt>
      <trkpt lat="39.723886" lon="-6.773000">
        <ele>296.1</ele>
        <time>1970-01-01T00:00:00Z</time>
      </trkpt>
      <trkpt lat="39.723817" lon="-6.772853">
        <ele>295.4</ele>
        <time>1970-01-01T00:00:00Z</time>
      </trkpt>
      <trkpt lat="39.723771" lon="-6.772675">
        <ele>295.2</ele>
        <time>1970-01-01T00:00:00Z</time>
      </trkpt>
      <trkpt lat="39.723702" lon="-6.772508">
        <ele>294.1</ele>
        <time>1970-01-01T00:00:00Z</time>
      </trkpt>
      <trkpt lat="39.723655" lon="-6.772422">
        <ele>293.9</ele>
        <time>1970-01-01T00:00:00Z</time>
      </trkpt>
      <trkpt lat="39.723512" lon="-6.772239">
        <ele>294.1</ele>
        <time>1970-01-01T00:00:00Z</time>
      </trkpt>
      <trkpt lat="39.723503" lon="-6.772117">
        <ele>294.5</ele>
        <time>1970-01-01T00:00:00Z</time>
      </trkpt>
      <trkpt lat="39.723549" lon="-6.772053">
        <ele>294.8</ele>
        <time>1970-01-01T00:00:00Z</time>
      </trkpt>
      <trkpt lat="39.723586" lon="-6.771961">
        <ele>295.1</ele>
        <time>1970-01-01T00:00:00Z</time>
      </trkpt>
      <trkpt lat="39.723597" lon="-6.771804">
        <ele>295.4</ele>
        <time>1970-01-01T00:00:00Z</time>
      </trkpt>
      <trkpt lat="39.723413" lon="-6.771483">
        <ele>295.9</ele>
        <time>1970-01-01T00:00:00Z</time>
      </trkpt>
      <trkpt lat="39.723121" lon="-6.771151">
        <ele>296.7</ele>
        <time>1970-01-01T00:00:00Z</time>
      </trkpt>
      <trkpt lat="39.722995" lon="-6.770860">
        <ele>297.0</ele>
        <time>1970-01-01T00:00:00Z</time>
      </trkpt>
      <trkpt lat="39.722890" lon="-6.770674">
        <ele>297.4</ele>
        <time>1970-01-01T00:00:00Z</time>
      </trkpt>
      <trkpt lat="39.722566" lon="-6.770217">
        <ele>300.9</ele>
        <time>1970-01-01T00:00:00Z</time>
      </trkpt>
      <trkpt lat="39.722488" lon="-6.770089">
        <ele>301.9</ele>
        <time>1970-01-01T00:00:00Z</time>
      </trkpt>
      <trkpt lat="39.722335" lon="-6.769649">
        <ele>304.3</ele>
        <time>1970-01-01T00:00:00Z</time>
      </trkpt>
      <trkpt lat="39.722160" lon="-6.769207">
        <ele>307.1</ele>
        <time>1970-01-01T00:00:00Z</time>
      </trkpt>
      <trkpt lat="39.722111" lon="-6.768916">
        <ele>308.4</ele>
        <time>1970-01-01T00:00:00Z</time>
      </trkpt>
      <trkpt lat="39.722153" lon="-6.768476">
        <ele>309.6</ele>
        <time>1970-01-01T00:00:00Z</time>
      </trkpt>
      <trkpt lat="39.722157" lon="-6.768311">
        <ele>309.8</ele>
        <time>1970-01-01T00:00:00Z</time>
      </trkpt>
      <trkpt lat="39.722178" lon="-6.768184">
        <ele>310.1</ele>
        <time>1970-01-01T00:00:00Z</time>
      </trkpt>
      <trkpt lat="39.722222" lon="-6.768127">
        <ele>310.6</ele>
        <time>1970-01-01T00:00:00Z</time>
      </trkpt>
      <trkpt lat="39.722414" lon="-6.767792">
        <ele>312.5</ele>
        <time>1970-01-01T00:00:00Z</time>
      </trkpt>
      <trkpt lat="39.722476" lon="-6.767751">
        <ele>313.6</ele>
        <time>1970-01-01T00:00:00Z</time>
      </trkpt>
      <trkpt lat="39.722595" lon="-6.767747">
        <ele>315.6</ele>
        <time>1970-01-01T00:00:00Z</time>
      </trkpt>
      <trkpt lat="39.722828" lon="-6.767679">
        <ele>318.6</ele>
        <time>1970-01-01T00:00:00Z</time>
      </trkpt>
      <trkpt lat="39.722998" lon="-6.767661">
        <ele>319.8</ele>
        <time>1970-01-01T00:00:00Z</time>
      </trkpt>
      <trkpt lat="39.723367" lon="-6.767678">
        <ele>321.7</ele>
        <time>1970-01-01T00:00:00Z</time>
      </trkpt>
      <trkpt lat="39.723591" lon="-6.767594">
        <ele>321.1</ele>
        <time>1970-01-01T00:00:00Z</time>
      </trkpt>
      <trkpt lat="39.723722" lon="-6.767510">
        <ele>320.4</ele>
        <time>1970-01-01T00:00:00Z</time>
      </trkpt>
      <trkpt lat="39.723873" lon="-6.767358">
        <ele>319.7</ele>
        <time>1970-01-01T00:00:00Z</time>
      </trkpt>
      <trkpt lat="39.724045" lon="-6.767177">
        <ele>319.0</ele>
        <time>1970-01-01T00:00:00Z</time>
      </trkpt>
      <trkpt lat="39.724425" lon="-6.766576">
        <ele>320.9</ele>
        <time>1970-01-01T00:00:00Z</time>
      </trkpt>
      <trkpt lat="39.724472" lon="-6.766465">
        <ele>321.8</ele>
        <time>1970-01-01T00:00:00Z</time>
      </trkpt>
      <trkpt lat="39.724505" lon="-6.766351">
        <ele>322.8</ele>
        <time>1970-01-01T00:00:00Z</time>
      </trkpt>
      <trkpt lat="39.724572" lon="-6.765846">
        <ele>326.0</ele>
        <time>1970-01-01T00:00:00Z</time>
      </trkpt>
      <trkpt lat="39.724621" lon="-6.765712">
        <ele>327.1</ele>
        <time>1970-01-01T00:00:00Z</time>
      </trkpt>
      <trkpt lat="39.724669" lon="-6.765643">
        <ele>327.3</ele>
        <time>1970-01-01T00:00:00Z</time>
      </trkpt>
      <trkpt lat="39.724918" lon="-6.765353">
        <ele>327.5</ele>
        <time>1970-01-01T00:00:00Z</time>
      </trkpt>
      <trkpt lat="39.725116" lon="-6.765206">
        <ele>327.3</ele>
        <time>1970-01-01T00:00:00Z</time>
      </trkpt>
      <trkpt lat="39.725365" lon="-6.764931">
        <ele>327.4</ele>
        <time>1970-01-01T00:00:00Z</time>
      </trkpt>
      <trkpt lat="39.725698" lon="-6.764648">
        <ele>328.3</ele>
        <time>1970-01-01T00:00:00Z</time>
      </trkpt>
      <trkpt lat="39.725842" lon="-6.764498">
        <ele>329.8</ele>
        <time>1970-01-01T00:00:00Z</time>
      </trkpt>
      <trkpt lat="39.726084" lon="-6.764217">
        <ele>332.6</ele>
        <time>1970-01-01T00:00:00Z</time>
      </trkpt>
      <trkpt lat="39.726369" lon="-6.763823">
        <ele>335.9</ele>
        <time>1970-01-01T00:00:00Z</time>
      </trkpt>
      <trkpt lat="39.726599" lon="-6.763657">
        <ele>337.9</ele>
        <time>1970-01-01T00:00:00Z</time>
      </trkpt>
      <trkpt lat="39.726871" lon="-6.763327">
        <ele>339.6</ele>
        <time>1970-01-01T00:00:00Z</time>
      </trkpt>
      <trkpt lat="39.726952" lon="-6.763198">
        <ele>340.0</ele>
        <time>1970-01-01T00:00:00Z</time>
      </trkpt>
      <trkpt lat="39.727058" lon="-6.762870">
        <ele>340.0</ele>
        <time>1970-01-01T00:00:00Z</time>
      </trkpt>
      <trkpt lat="39.727096" lon="-6.762694">
        <ele>339.9</ele>
        <time>1970-01-01T00:00:00Z</time>
      </trkpt>
      <trkpt lat="39.727157" lon="-6.762288">
        <ele>339.7</ele>
        <time>1970-01-01T00:00:00Z</time>
      </trkpt>
      <trkpt lat="39.727289" lon="-6.761846">
        <ele>339.9</ele>
        <time>1970-01-01T00:00:00Z</time>
      </trkpt>
      <trkpt lat="39.727462" lon="-6.761448">
        <ele>342.9</ele>
        <time>1970-01-01T00:00:00Z</time>
      </trkpt>
      <trkpt lat="39.727849" lon="-6.760696">
        <ele>350.6</ele>
        <time>1970-01-01T00:00:00Z</time>
      </trkpt>
      <trkpt lat="39.727884" lon="-6.760545">
        <ele>351.5</ele>
        <time>1970-01-01T00:00:00Z</time>
      </trkpt>
      <trkpt lat="39.727902" lon="-6.760292">
        <ele>352.6</ele>
        <time>1970-01-01T00:00:00Z</time>
      </trkpt>
      <trkpt lat="39.727951" lon="-6.759966">
        <ele>353.3</ele>
        <time>1970-01-01T00:00:00Z</time>
      </trkpt>
      <trkpt lat="39.728097" lon="-6.759236">
        <ele>357.4</ele>
        <time>1970-01-01T00:00:00Z</time>
      </trkpt>
      <trkpt lat="39.728182" lon="-6.759018">
        <ele>358.8</ele>
        <time>1970-01-01T00:00:00Z</time>
      </trkpt>
      <trkpt lat="39.728261" lon="-6.758869">
        <ele>359.1</ele>
        <time>1970-01-01T00:00:00Z</time>
      </trkpt>
      <trkpt lat="39.728354" lon="-6.758746">
        <ele>359.5</ele>
        <time>1970-01-01T00:00:00Z</time>
      </trkpt>
      <trkpt lat="39.728538" lon="-6.758551">
        <ele>360.5</ele>
        <time>1970-01-01T00:00:00Z</time>
      </trkpt>
      <trkpt lat="39.728598" lon="-6.758453">
        <ele>361.5</ele>
        <time>1970-01-01T00:00:00Z</time>
      </trkpt>
      <trkpt lat="39.728714" lon="-6.758190">
        <ele>363.7</ele>
        <time>1970-01-01T00:00:00Z</time>
      </trkpt>
      <trkpt lat="39.728850" lon="-6.757640">
        <ele>366.0</ele>
        <time>1970-01-01T00:00:00Z</time>
      </trkpt>
      <trkpt lat="39.729032" lon="-6.757378">
        <ele>367.0</ele>
        <time>1970-01-01T00:00:00Z</time>
      </trkpt>
      <trkpt lat="39.729038" lon="-6.757257">
        <ele>367.0</ele>
        <time>1970-01-01T00:00:00Z</time>
      </trkpt>
      <trkpt lat="39.728990" lon="-6.757131">
        <ele>366.8</ele>
        <time>1970-01-01T00:00:00Z</time>
      </trkpt>
      <trkpt lat="39.728884" lon="-6.757009">
        <ele>366.2</ele>
        <time>1970-01-01T00:00:00Z</time>
      </trkpt>
      <trkpt lat="39.728816" lon="-6.756966">
        <ele>366.0</ele>
        <time>1970-01-01T00:00:00Z</time>
      </trkpt>
      <trkpt lat="39.728555" lon="-6.756982">
        <ele>367.2</ele>
        <time>1970-01-01T00:00:00Z</time>
      </trkpt>
      <trkpt lat="39.728378" lon="-6.756972">
        <ele>367.9</ele>
        <time>1970-01-01T00:00:00Z</time>
      </trkpt>
      <trkpt lat="39.728158" lon="-6.756935">
        <ele>369.6</ele>
        <time>1970-01-01T00:00:00Z</time>
      </trkpt>
      <trkpt lat="39.727637" lon="-6.757013">
        <ele>372.0</ele>
        <time>1970-01-01T00:00:00Z</time>
      </trkpt>
      <trkpt lat="39.727532" lon="-6.756998">
        <ele>372.0</ele>
        <time>1970-01-01T00:00:00Z</time>
      </trkpt>
      <trkpt lat="39.727428" lon="-6.756928">
        <ele>372.0</ele>
        <time>1970-01-01T00:00:00Z</time>
      </trkpt>
      <trkpt lat="39.727060" lon="-6.756572">
        <ele>370.8</ele>
        <time>1970-01-01T00:00:00Z</time>
      </trkpt>
      <trkpt lat="39.726896" lon="-6.756385">
        <ele>369.3</ele>
        <time>1970-01-01T00:00:00Z</time>
      </trkpt>
      <trkpt lat="39.726655" lon="-6.755827">
        <ele>367.7</ele>
        <time>1970-01-01T00:00:00Z</time>
      </trkpt>
      <trkpt lat="39.726636" lon="-6.755707">
        <ele>367.6</ele>
        <time>1970-01-01T00:00:00Z</time>
      </trkpt>
      <trkpt lat="39.726669" lon="-6.755326">
        <ele>366.9</ele>
        <time>1970-01-01T00:00:00Z</time>
      </trkpt>
      <trkpt lat="39.726656" lon="-6.755209">
        <ele>366.1</ele>
        <time>1970-01-01T00:00:00Z</time>
      </trkpt>
      <trkpt lat="39.726606" lon="-6.755123">
        <ele>365.6</ele>
        <time>1970-01-01T00:00:00Z</time>
      </trkpt>
      <trkpt lat="39.726143" lon="-6.754816">
        <ele>366.0</ele>
        <time>1970-01-01T00:00:00Z</time>
      </trkpt>
      <trkpt lat="39.725864" lon="-6.754596">
        <ele>366.1</ele>
        <time>1970-01-01T00:00:00Z</time>
      </trkpt>
      <trkpt lat="39.725561" lon="-6.754239">
        <ele>366.7</ele>
        <time>1970-01-01T00:00:00Z</time>
      </trkpt>
      <trkpt lat="39.725306" lon="-6.753813">
        <ele>368.4</ele>
        <time>1970-01-01T00:00:00Z</time>
      </trkpt>
      <trkpt lat="39.725115" lon="-6.753393">
        <ele>369.4</ele>
        <time>1970-01-01T00:00:00Z</time>
      </trkpt>
      <trkpt lat="39.725007" lon="-6.753202">
        <ele>369.3</ele>
        <time>1970-01-01T00:00:00Z</time>
      </trkpt>
      <trkpt lat="39.724920" lon="-6.753113">
        <ele>369.4</ele>
        <time>1970-01-01T00:00:00Z</time>
      </trkpt>
      <trkpt lat="39.724659" lon="-6.752936">
        <ele>369.8</ele>
        <time>1970-01-01T00:00:00Z</time>
      </trkpt>
      <trkpt lat="39.724372" lon="-6.752789">
        <ele>370.0</ele>
        <time>1970-01-01T00:00:00Z</time>
      </trkpt>
      <trkpt lat="39.724190" lon="-6.752654">
        <ele>371.2</ele>
        <time>1970-01-01T00:00:00Z</time>
      </trkpt>
      <trkpt lat="39.724007" lon="-6.752478">
        <ele>372.9</ele>
        <time>1970-01-01T00:00:00Z</time>
      </trkpt>
      <trkpt lat="39.723769" lon="-6.752181">
        <ele>375.5</ele>
        <time>1970-01-01T00:00:00Z</time>
      </trkpt>
      <trkpt lat="39.723592" lon="-6.751937">
        <ele>376.7</ele>
        <time>1970-01-01T00:00:00Z</time>
      </trkpt>
      <trkpt lat="39.723531" lon="-6.751751">
        <ele>377.4</ele>
        <time>1970-01-01T00:00:00Z</time>
      </trkpt>
      <trkpt lat="39.723503" lon="-6.751557">
        <ele>377.9</ele>
        <time>1970-01-01T00:00:00Z</time>
      </trkpt>
      <trkpt lat="39.723464" lon="-6.751404">
        <ele>377.9</ele>
        <time>1970-01-01T00:00:00Z</time>
      </trkpt>
      <trkpt lat="39.723400" lon="-6.751253">
        <ele>377.2</ele>
        <time>1970-01-01T00:00:00Z</time>
      </trkpt>
      <trkpt lat="39.723168" lon="-6.750877">
        <ele>376.6</ele>
        <time>1970-01-01T00:00:00Z</time>
      </trkpt>
      <trkpt lat="39.723057" lon="-6.750624">
        <ele>376.2</ele>
        <time>1970-01-01T00:00:00Z</time>
      </trkpt>
      <trkpt lat="39.722989" lon="-6.750401">
        <ele>375.9</ele>
        <time>1970-01-01T00:00:00Z</time>
      </trkpt>
      <trkpt lat="39.722961" lon="-6.750205">
        <ele>375.7</ele>
        <time>1970-01-01T00:00:00Z</time>
      </trkpt>
      <trkpt lat="39.722955" lon="-6.749982">
        <ele>375.8</ele>
        <time>1970-01-01T00:00:00Z</time>
      </trkpt>
      <trkpt lat="39.722973" lon="-6.749724">
        <ele>376.8</ele>
        <time>1970-01-01T00:00:00Z</time>
      </trkpt>
      <trkpt lat="39.723153" lon="-6.748637">
        <ele>379.9</ele>
        <time>1970-01-01T00:00:00Z</time>
      </trkpt>
      <trkpt lat="39.723172" lon="-6.748419">
        <ele>380.9</ele>
        <time>1970-01-01T00:00:00Z</time>
      </trkpt>
      <trkpt lat="39.723130" lon="-6.748229">
        <ele>381.7</ele>
        <time>1970-01-01T00:00:00Z</time>
      </trkpt>
      <trkpt lat="39.722831" lon="-6.747112">
        <ele>386.4</ele>
        <time>1970-01-01T00:00:00Z</time>
      </trkpt>
      <trkpt lat="39.722760" lon="-6.746893">
        <ele>387.3</ele>
        <time>1970-01-01T00:00:00Z</time>
      </trkpt>
      <trkpt lat="39.722613" lon="-6.746643">
        <ele>387.7</ele>
        <time>1970-01-01T00:00:00Z</time>
      </trkpt>
      <trkpt lat="39.722493" lon="-6.746543">
        <ele>388.0</ele>
        <time>1970-01-01T00:00:00Z</time>
      </trkpt>
      <trkpt lat="39.722375" lon="-6.746477">
        <ele>388.3</ele>
        <time>1970-01-01T00:00:00Z</time>
      </trkpt>
      <trkpt lat="39.722169" lon="-6.746293">
        <ele>387.7</ele>
        <time>1970-01-01T00:00:00Z</time>
      </trkpt>
      <trkpt lat="39.722095" lon="-6.746277">
        <ele>387.1</ele>
        <time>1970-01-01T00:00:00Z</time>
      </trkpt>
      <trkpt lat="39.722011" lon="-6.746284">
        <ele>386.7</ele>
        <time>1970-01-01T00:00:00Z</time>
      </trkpt>
      <trkpt lat="39.721848" lon="-6.746325">
        <ele>385.7</ele>
        <time>1970-01-01T00:00:00Z</time>
      </trkpt>
      <trkpt lat="39.721589" lon="-6.746239">
        <ele>384.1</ele>
        <time>1970-01-01T00:00:00Z</time>
      </trkpt>
      <trkpt lat="39.721491" lon="-6.746266">
        <ele>383.6</ele>
        <time>1970-01-01T00:00:00Z</time>
      </trkpt>
      <trkpt lat="39.721418" lon="-6.746339">
        <ele>382.8</ele>
        <time>1970-01-01T00:00:00Z</time>
      </trkpt>
      <trkpt lat="39.721236" lon="-6.746670">
        <ele>380.6</ele>
        <time>1970-01-01T00:00:00Z</time>
      </trkpt>
      <trkpt lat="39.721125" lon="-6.746807">
        <ele>380.0</ele>
        <time>1970-01-01T00:00:00Z</time>
      </trkpt>
      <trkpt lat="39.720998" lon="-6.746891">
        <ele>380.3</ele>
        <time>1970-01-01T00:00:00Z</time>
      </trkpt>
      <trkpt lat="39.720858" lon="-6.746921">
        <ele>381.3</ele>
        <time>1970-01-01T00:00:00Z</time>
      </trkpt>
      <trkpt lat="39.720681" lon="-6.746906">
        <ele>382.5</ele>
        <time>1970-01-01T00:00:00Z</time>
      </trkpt>
      <trkpt lat="39.720483" lon="-6.746849">
        <ele>383.6</ele>
        <time>1970-01-01T00:00:00Z</time>
      </trkpt>
      <trkpt lat="39.720320" lon="-6.746756">
        <ele>383.3</ele>
        <time>1970-01-01T00:00:00Z</time>
      </trkpt>
      <trkpt lat="39.719905" lon="-6.746570">
        <ele>381.6</ele>
        <time>1970-01-01T00:00:00Z</time>
      </trkpt>
      <trkpt lat="39.719483" lon="-6.746231">
        <ele>377.5</ele>
        <time>1970-01-01T00:00:00Z</time>
      </trkpt>
      <trkpt lat="39.719077" lon="-6.745995">
        <ele>374.5</ele>
        <time>1970-01-01T00:00:00Z</time>
      </trkpt>
      <trkpt lat="39.719009" lon="-6.745922">
        <ele>373.6</ele>
        <time>1970-01-01T00:00:00Z</time>
      </trkpt>
      <trkpt lat="39.718946" lon="-6.745802">
        <ele>372.7</ele>
        <time>1970-01-01T00:00:00Z</time>
      </trkpt>
      <trkpt lat="39.718842" lon="-6.745542">
        <ele>371.9</ele>
        <time>1970-01-01T00:00:00Z</time>
      </trkpt>
      <trkpt lat="39.718763" lon="-6.745449">
        <ele>371.6</ele>
        <time>1970-01-01T00:00:00Z</time>
      </trkpt>
      <trkpt lat="39.718676" lon="-6.745408">
        <ele>371.2</ele>
        <time>1970-01-01T00:00:00Z</time>
      </trkpt>
      <trkpt lat="39.718431" lon="-6.745345">
        <ele>369.2</ele>
        <time>1970-01-01T00:00:00Z</time>
      </trkpt>
      <trkpt lat="39.718265" lon="-6.745329">
        <ele>367.7</ele>
        <time>1970-01-01T00:00:00Z</time>
      </trkpt>
      <trkpt lat="39.718090" lon="-6.745275">
        <ele>366.1</ele>
        <time>1970-01-01T00:00:00Z</time>
      </trkpt>
      <trkpt lat="39.717953" lon="-6.745201">
        <ele>365.1</ele>
        <time>1970-01-01T00:00:00Z</time>
      </trkpt>
      <trkpt lat="39.717681" lon="-6.745008">
        <ele>363.2</ele>
        <time>1970-01-01T00:00:00Z</time>
      </trkpt>
      <trkpt lat="39.717462" lon="-6.744893">
        <ele>361.0</ele>
        <time>1970-01-01T00:00:00Z</time>
      </trkpt>
      <trkpt lat="39.717212" lon="-6.744812">
        <ele>359.9</ele>
        <time>1970-01-01T00:00:00Z</time>
      </trkpt>
      <trkpt lat="39.717010" lon="-6.744809">
        <ele>359.0</ele>
        <time>1970-01-01T00:00:00Z</time>
      </trkpt>
      <trkpt lat="39.716839" lon="-6.744854">
        <ele>357.6</ele>
        <time>1970-01-01T00:00:00Z</time>
      </trkpt>
      <trkpt lat="39.716572" lon="-6.744973">
        <ele>356.1</ele>
        <time>1970-01-01T00:00:00Z</time>
      </trkpt>
      <trkpt lat="39.716427" lon="-6.744982">
        <ele>355.6</ele>
        <time>1970-01-01T00:00:00Z</time>
      </trkpt>
      <trkpt lat="39.715888" lon="-6.744852">
        <ele>352.8</ele>
        <time>1970-01-01T00:00:00Z</time>
      </trkpt>
      <trkpt lat="39.715768" lon="-6.744803">
        <ele>350.8</ele>
        <time>1970-01-01T00:00:00Z</time>
      </trkpt>
      <trkpt lat="39.715362" lon="-6.744377">
        <ele>343.8</ele>
        <time>1970-01-01T00:00:00Z</time>
      </trkpt>
      <trkpt lat="39.715224" lon="-6.744280">
        <ele>342.6</ele>
        <time>1970-01-01T00:00:00Z</time>
      </trkpt>
      <trkpt lat="39.714751" lon="-6.744171">
        <ele>339.0</ele>
        <time>1970-01-01T00:00:00Z</time>
      </trkpt>
      <trkpt lat="39.714332" lon="-6.744094">
        <ele>336.7</ele>
        <time>1970-01-01T00:00:00Z</time>
      </trkpt>
      <trkpt lat="39.714136" lon="-6.744085">
        <ele>336.0</ele>
        <time>1970-01-01T00:00:00Z</time>
      </trkpt>
      <trkpt lat="39.714053" lon="-6.744061">
        <ele>336.0</ele>
        <time>1970-01-01T00:00:00Z</time>
      </trkpt>
      <trkpt lat="39.714403" lon="-6.743510">
        <ele>335.9</ele>
        <time>1970-01-01T00:00:00Z</time>
      </trkpt>
      <trkpt lat="39.714630" lon="-6.743075">
        <ele>335.0</ele>
        <time>1970-01-01T00:00:00Z</time>
      </trkpt>
      <trkpt lat="39.714745" lon="-6.742956">
        <ele>335.0</ele>
        <time>1970-01-01T00:00:00Z</time>
      </trkpt>
      <trkpt lat="39.714929" lon="-6.742719">
        <ele>335.0</ele>
        <time>1970-01-01T00:00:00Z</time>
      </trkpt>
      <trkpt lat="39.714978" lon="-6.742578">
        <ele>335.0</ele>
        <time>1970-01-01T00:00:00Z</time>
      </trkpt>
      <trkpt lat="39.715001" lon="-6.742392">
        <ele>335.0</ele>
        <time>1970-01-01T00:00:00Z</time>
      </trkpt>
      <trkpt lat="39.715022" lon="-6.742028">
        <ele>336.0</ele>
        <time>1970-01-01T00:00:00Z</time>
      </trkpt>
      <trkpt lat="39.715115" lon="-6.741749">
        <ele>336.7</ele>
        <time>1970-01-01T00:00:00Z</time>
      </trkpt>
      <trkpt lat="39.715270" lon="-6.741397">
        <ele>339.3</ele>
        <time>1970-01-01T00:00:00Z</time>
      </trkpt>
      <trkpt lat="39.715434" lon="-6.740979">
        <ele>341.0</ele>
        <time>1970-01-01T00:00:00Z</time>
      </trkpt>
      <trkpt lat="39.715504" lon="-6.740874">
        <ele>341.5</ele>
        <time>1970-01-01T00:00:00Z</time>
      </trkpt>
      <trkpt lat="39.715648" lon="-6.740702">
        <ele>342.2</ele>
        <time>1970-01-01T00:00:00Z</time>
      </trkpt>
      <trkpt lat="39.715885" lon="-6.740458">
        <ele>343.3</ele>
        <time>1970-01-01T00:00:00Z</time>
      </trkpt>
      <trkpt lat="39.715980" lon="-6.740416">
        <ele>343.7</ele>
        <time>1970-01-01T00:00:00Z</time>
      </trkpt>
      <trkpt lat="39.716111" lon="-6.740428">
        <ele>343.8</ele>
        <time>1970-01-01T00:00:00Z</time>
      </trkpt>
      <trkpt lat="39.716404" lon="-6.740574">
        <ele>342.8</ele>
        <time>1970-01-01T00:00:00Z</time>
      </trkpt>
      <trkpt lat="39.716630" lon="-6.740765">
        <ele>342.0</ele>
        <time>1970-01-01T00:00:00Z</time>
      </trkpt>
      <trkpt lat="39.716731" lon="-6.740829">
        <ele>342.0</ele>
        <time>1970-01-01T00:00:00Z</time>
      </trkpt>
      <trkpt lat="39.716846" lon="-6.740880">
        <ele>341.7</ele>
        <time>1970-01-01T00:00:00Z</time>
      </trkpt>
      <trkpt lat="39.716937" lon="-6.740895">
        <ele>341.3</ele>
        <time>1970-01-01T00:00:00Z</time>
      </trkpt>
      <trkpt lat="39.717267" lon="-6.740866">
        <ele>340.5</ele>
        <time>1970-01-01T00:00:00Z</time>
      </trkpt>
      <trkpt lat="39.717383" lon="-6.740877">
        <ele>340.5</ele>
        <time>1970-01-01T00:00:00Z</time>
      </trkpt>
      <trkpt lat="39.717688" lon="-6.741034">
        <ele>341.4</ele>
        <time>1970-01-01T00:00:00Z</time>
      </trkpt>
      <trkpt lat="39.717769" lon="-6.741058">
        <ele>342.3</ele>
        <time>1970-01-01T00:00:00Z</time>
      </trkpt>
      <trkpt lat="39.717944" lon="-6.740833">
        <ele>342.4</ele>
        <time>1970-01-01T00:00:00Z</time>
      </trkpt>
      <trkpt lat="39.718124" lon="-6.740707">
        <ele>342.3</ele>
        <time>1970-01-01T00:00:00Z</time>
      </trkpt>
      <trkpt lat="39.718421" lon="-6.740587">
        <ele>342.7</ele>
        <time>1970-01-01T00:00:00Z</time>
      </trkpt>
      <trkpt lat="39.718718" lon="-6.740431">
        <ele>342.6</ele>
        <time>1970-01-01T00:00:00Z</time>
      </trkpt>
      <trkpt lat="39.718980" lon="-6.740391">
        <ele>343.7</ele>
        <time>1970-01-01T00:00:00Z</time>
      </trkpt>
      <trkpt lat="39.719063" lon="-6.740323">
        <ele>343.3</ele>
        <time>1970-01-01T00:00:00Z</time>
      </trkpt>
      <trkpt lat="39.719276" lon="-6.740081">
        <ele>341.1</ele>
        <time>1970-01-01T00:00:00Z</time>
      </trkpt>
      <trkpt lat="39.719440" lon="-6.739724">
        <ele>339.6</ele>
        <time>1970-01-01T00:00:00Z</time>
      </trkpt>
      <trkpt lat="39.719442" lon="-6.739665">
        <ele>339.1</ele>
        <time>1970-01-01T00:00:00Z</time>
      </trkpt>
      <trkpt lat="39.719493" lon="-6.739574">
        <ele>338.7</ele>
        <time>1970-01-01T00:00:00Z</time>
      </trkpt>
      <trkpt lat="39.719532" lon="-6.739430">
        <ele>338.2</ele>
        <time>1970-01-01T00:00:00Z</time>
      </trkpt>
      <trkpt lat="39.719568" lon="-6.739136">
        <ele>337.0</ele>
        <time>1970-01-01T00:00:00Z</time>
      </trkpt>
      <trkpt lat="39.719563" lon="-6.738933">
        <ele>336.2</ele>
        <time>1970-01-01T00:00:00Z</time>
      </trkpt>
      <trkpt lat="39.719530" lon="-6.738764">
        <ele>334.7</ele>
        <time>1970-01-01T00:00:00Z</time>
      </trkpt>
      <trkpt lat="39.719435" lon="-6.738462">
        <ele>332.6</ele>
        <time>1970-01-01T00:00:00Z</time>
      </trkpt>
      <trkpt lat="39.719391" lon="-6.738248">
        <ele>331.5</ele>
        <time>1970-01-01T00:00:00Z</time>
      </trkpt>
      <trkpt lat="39.719383" lon="-6.737776">
        <ele>330.4</ele>
        <time>1970-01-01T00:00:00Z</time>
      </trkpt>
      <trkpt lat="39.719352" lon="-6.737569">
        <ele>329.4</ele>
        <time>1970-01-01T00:00:00Z</time>
      </trkpt>
      <trkpt lat="39.719315" lon="-6.737417">
        <ele>328.6</ele>
        <time>1970-01-01T00:00:00Z</time>
      </trkpt>
      <trkpt lat="39.719223" lon="-6.737170">
        <ele>328.4</ele>
        <time>1970-01-01T00:00:00Z</time>
      </trkpt>
      <trkpt lat="39.719139" lon="-6.736995">
        <ele>328.7</ele>
        <time>1970-01-01T00:00:00Z</time>
      </trkpt>
      <trkpt lat="39.719109" lon="-6.736867">
        <ele>328.8</ele>
        <time>1970-01-01T00:00:00Z</time>
      </trkpt>
      <trkpt lat="39.719212" lon="-6.736626">
        <ele>327.5</ele>
        <time>1970-01-01T00:00:00Z</time>
      </trkpt>
      <trkpt lat="39.719248" lon="-6.736465">
        <ele>326.9</ele>
        <time>1970-01-01T00:00:00Z</time>
      </trkpt>
      <trkpt lat="39.719258" lon="-6.736337">
        <ele>326.5</ele>
        <time>1970-01-01T00:00:00Z</time>
      </trkpt>
      <trkpt lat="39.719342" lon="-6.735806">
        <ele>326.2</ele>
        <time>1970-01-01T00:00:00Z</time>
      </trkpt>
      <trkpt lat="39.719459" lon="-6.735477">
        <ele>326.6</ele>
        <time>1970-01-01T00:00:00Z</time>
      </trkpt>
      <trkpt lat="39.719628" lon="-6.735153">
        <ele>326.5</ele>
        <time>1970-01-01T00:00:00Z</time>
      </trkpt>
      <trkpt lat="39.719683" lon="-6.735086">
        <ele>326.3</ele>
        <time>1970-01-01T00:00:00Z</time>
      </trkpt>
      <trkpt lat="39.720220" lon="-6.734594">
        <ele>327.3</ele>
        <time>1970-01-01T00:00:00Z</time>
      </trkpt>
      <trkpt lat="39.720421" lon="-6.734371">
        <ele>327.5</ele>
        <time>1970-01-01T00:00:00Z</time>
      </trkpt>
      <trkpt lat="39.720586" lon="-6.734232">
        <ele>327.3</ele>
        <time>1970-01-01T00:00:00Z</time>
      </trkpt>
      <trkpt lat="39.720744" lon="-6.734057">
        <ele>326.5</ele>
        <time>1970-01-01T00:00:00Z</time>
      </trkpt>
      <trkpt lat="39.721239" lon="-6.733418">
        <ele>322.1</ele>
        <time>1970-01-01T00:00:00Z</time>
      </trkpt>
      <trkpt lat="39.721548" lon="-6.733002">
        <ele>319.6</ele>
        <time>1970-01-01T00:00:00Z</time>
      </trkpt>
      <trkpt lat="39.721736" lon="-6.732632">
        <ele>318.7</ele>
        <time>1970-01-01T00:00:00Z</time>
      </trkpt>
      <trkpt lat="39.721966" lon="-6.732348">
        <ele>316.1</ele>
        <time>1970-01-01T00:00:00Z</time>
      </trkpt>
      <trkpt lat="39.722040" lon="-6.732303">
        <ele>315.5</ele>
        <time>1970-01-01T00:00:00Z</time>
      </trkpt>
      <trkpt lat="39.722076" lon="-6.732246">
        <ele>315.2</ele>
        <time>1970-01-01T00:00:00Z</time>
      </trkpt>
      <trkpt lat="39.722134" lon="-6.732037">
        <ele>314.0</ele>
        <time>1970-01-01T00:00:00Z</time>
      </trkpt>
      <trkpt lat="39.722196" lon="-6.731948">
        <ele>313.1</ele>
        <time>1970-01-01T00:00:00Z</time>
      </trkpt>
      <trkpt lat="39.722552" lon="-6.731499">
        <ele>308.1</ele>
        <time>1970-01-01T00:00:00Z</time>
      </trkpt>
      <trkpt lat="39.722873" lon="-6.731170">
        <ele>306.3</ele>
        <time>1970-01-01T00:00:00Z</time>
      </trkpt>
      <trkpt lat="39.723052" lon="-6.730894">
        <ele>305.9</ele>
        <time>1970-01-01T00:00:00Z</time>
      </trkpt>
      <trkpt lat="39.723162" lon="-6.730788">
        <ele>305.5</ele>
        <time>1970-01-01T00:00:00Z</time>
      </trkpt>
      <trkpt lat="39.723295" lon="-6.730544">
        <ele>305.9</ele>
        <time>1970-01-01T00:00:00Z</time>
      </trkpt>
      <trkpt lat="39.723416" lon="-6.730244">
        <ele>306.0</ele>
        <time>1970-01-01T00:00:00Z</time>
      </trkpt>
      <trkpt lat="39.723477" lon="-6.730218">
        <ele>305.6</ele>
        <time>1970-01-01T00:00:00Z</time>
      </trkpt>
      <trkpt lat="39.723605" lon="-6.730106">
        <ele>305.0</ele>
        <time>1970-01-01T00:00:00Z</time>
      </trkpt>
      <trkpt lat="39.723733" lon="-6.729930">
        <ele>303.9</ele>
        <time>1970-01-01T00:00:00Z</time>
      </trkpt>
      <trkpt lat="39.723797" lon="-6.729830">
        <ele>303.5</ele>
        <time>1970-01-01T00:00:00Z</time>
      </trkpt>
      <trkpt lat="39.723984" lon="-6.729463">
        <ele>302.7</ele>
        <time>1970-01-01T00:00:00Z</time>
      </trkpt>
      <trkpt lat="39.724255" lon="-6.729161">
        <ele>301.1</ele>
        <time>1970-01-01T00:00:00Z</time>
      </trkpt>
      <trkpt lat="39.724366" lon="-6.728972">
        <ele>301.2</ele>
        <time>1970-01-01T00:00:00Z</time>
      </trkpt>
      <trkpt lat="39.724401" lon="-6.728885">
        <ele>301.3</ele>
        <time>1970-01-01T00:00:00Z</time>
      </trkpt>
      <trkpt lat="39.724568" lon="-6.728739">
        <ele>302.0</ele>
        <time>1970-01-01T00:00:00Z</time>
      </trkpt>
      <trkpt lat="39.724657" lon="-6.728632">
        <ele>302.4</ele>
        <time>1970-01-01T00:00:00Z</time>
      </trkpt>
      <trkpt lat="39.724762" lon="-6.728562">
        <ele>303.0</ele>
        <time>1970-01-01T00:00:00Z</time>
      </trkpt>
      <trkpt lat="39.724855" lon="-6.728470">
        <ele>304.0</ele>
        <time>1970-01-01T00:00:00Z</time>
      </trkpt>
      <trkpt lat="39.724955" lon="-6.728271">
        <ele>304.9</ele>
        <time>1970-01-01T00:00:00Z</time>
      </trkpt>
      <trkpt lat="39.725021" lon="-6.728171">
        <ele>305.2</ele>
        <time>1970-01-01T00:00:00Z</time>
      </trkpt>
      <trkpt lat="39.725290" lon="-6.727933">
        <ele>307.2</ele>
        <time>1970-01-01T00:00:00Z</time>
      </trkpt>
      <trkpt lat="39.725311" lon="-6.727801">
        <ele>307.8</ele>
        <time>1970-01-01T00:00:00Z</time>
      </trkpt>
      <trkpt lat="39.725395" lon="-6.727566">
        <ele>308.0</ele>
        <time>1970-01-01T00:00:00Z</time>
      </trkpt>
      <trkpt lat="39.725493" lon="-6.727369">
        <ele>308.3</ele>
        <time>1970-01-01T00:00:00Z</time>
      </trkpt>
      <trkpt lat="39.725714" lon="-6.727132">
        <ele>308.3</ele>
        <time>1970-01-01T00:00:00Z</time>
      </trkpt>
      <trkpt lat="39.726059" lon="-6.726889">
        <ele>306.0</ele>
        <time>1970-01-01T00:00:00Z</time>
      </trkpt>
      <trkpt lat="39.726300" lon="-6.726813">
        <ele>304.8</ele>
        <time>1970-01-01T00:00:00Z</time>
      </trkpt>
      <trkpt lat="39.726424" lon="-6.726822">
        <ele>304.8</ele>
        <time>1970-01-01T00:00:00Z</time>
      </trkpt>
      <trkpt lat="39.726604" lon="-6.726789">
        <ele>305.0</ele>
        <time>1970-01-01T00:00:00Z</time>
      </trkpt>
      <trkpt lat="39.726909" lon="-6.726838">
        <ele>305.9</ele>
        <time>1970-01-01T00:00:00Z</time>
      </trkpt>
      <trkpt lat="39.727078" lon="-6.726847">
        <ele>305.9</ele>
        <time>1970-01-01T00:00:00Z</time>
      </trkpt>
      <trkpt lat="39.727239" lon="-6.726839">
        <ele>306.1</ele>
        <time>1970-01-01T00:00:00Z</time>
      </trkpt>
      <trkpt lat="39.727324" lon="-6.726794">
        <ele>306.3</ele>
        <time>1970-01-01T00:00:00Z</time>
      </trkpt>
      <trkpt lat="39.727664" lon="-6.726770">
        <ele>307.0</ele>
        <time>1970-01-01T00:00:00Z</time>
      </trkpt>
      <trkpt lat="39.727986" lon="-6.726666">
        <ele>307.0</ele>
        <time>1970-01-01T00:00:00Z</time>
      </trkpt>
      <trkpt lat="39.728110" lon="-6.726597">
        <ele>307.2</ele>
        <time>1970-01-01T00:00:00Z</time>
      </trkpt>
      <trkpt lat="39.728225" lon="-6.726482">
        <ele>308.1</ele>
        <time>1970-01-01T00:00:00Z</time>
      </trkpt>
      <trkpt lat="39.728599" lon="-6.726208">
        <ele>310.7</ele>
        <time>1970-01-01T00:00:00Z</time>
      </trkpt>
      <trkpt lat="39.729100" lon="-6.726050">
        <ele>312.8</ele>
        <time>1970-01-01T00:00:00Z</time>
      </trkpt>
      <trkpt lat="39.729553" lon="-6.726069">
        <ele>314.7</ele>
        <time>1970-01-01T00:00:00Z</time>
      </trkpt>
      <trkpt lat="39.729652" lon="-6.726156">
        <ele>315.3</ele>
        <time>1970-01-01T00:00:00Z</time>
      </trkpt>
      <trkpt lat="39.729980" lon="-6.726246">
        <ele>317.1</ele>
        <time>1970-01-01T00:00:00Z</time>
      </trkpt>
      <trkpt lat="39.730055" lon="-6.726371">
        <ele>317.7</ele>
        <time>1970-01-01T00:00:00Z</time>
      </trkpt>
      <trkpt lat="39.730070" lon="-6.726537">
        <ele>318.5</ele>
        <time>1970-01-01T00:00:00Z</time>
      </trkpt>
      <trkpt lat="39.730106" lon="-6.726679">
        <ele>319.5</ele>
        <time>1970-01-01T00:00:00Z</time>
      </trkpt>
      <trkpt lat="39.730273" lon="-6.726879">
        <ele>322.6</ele>
        <time>1970-01-01T00:00:00Z</time>
      </trkpt>
      <trkpt lat="39.730362" lon="-6.726943">
        <ele>323.6</ele>
        <time>1970-01-01T00:00:00Z</time>
      </trkpt>
      <trkpt lat="39.730460" lon="-6.727086">
        <ele>325.4</ele>
        <time>1970-01-01T00:00:00Z</time>
      </trkpt>
      <trkpt lat="39.730525" lon="-6.727218">
        <ele>326.8</ele>
        <time>1970-01-01T00:00:00Z</time>
      </trkpt>
      <trkpt lat="39.730595" lon="-6.727419">
        <ele>328.2</ele>
        <time>1970-01-01T00:00:00Z</time>
      </trkpt>
      <trkpt lat="39.730640" lon="-6.727664">
        <ele>328.8</ele>
        <time>1970-01-01T00:00:00Z</time>
      </trkpt>
      <trkpt lat="39.730627" lon="-6.727836">
        <ele>328.7</ele>
        <time>1970-01-01T00:00:00Z</time>
      </trkpt>
      <trkpt lat="39.730594" lon="-6.728029">
        <ele>328.4</ele>
        <time>1970-01-01T00:00:00Z</time>
      </trkpt>
      <trkpt lat="39.730528" lon="-6.728241">
        <ele>328.4</ele>
        <time>1970-01-01T00:00:00Z</time>
      </trkpt>
      <trkpt lat="39.730479" lon="-6.728458">
        <ele>327.3</ele>
        <time>1970-01-01T00:00:00Z</time>
      </trkpt>
      <trkpt lat="39.730405" lon="-6.728681">
        <ele>326.1</ele>
        <time>1970-01-01T00:00:00Z</time>
      </trkpt>
      <trkpt lat="39.730361" lon="-6.728876">
        <ele>325.2</ele>
        <time>1970-01-01T00:00:00Z</time>
      </trkpt>
      <trkpt lat="39.730448" lon="-6.729182">
        <ele>323.0</ele>
        <time>1970-01-01T00:00:00Z</time>
      </trkpt>
      <trkpt lat="39.730532" lon="-6.729243">
        <ele>322.3</ele>
        <time>1970-01-01T00:00:00Z</time>
      </trkpt>
      <trkpt lat="39.730597" lon="-6.729234">
        <ele>322.5</ele>
        <time>1970-01-01T00:00:00Z</time>
      </trkpt>
      <trkpt lat="39.730912" lon="-6.729072">
        <ele>323.9</ele>
        <time>1970-01-01T00:00:00Z</time>
      </trkpt>
      <trkpt lat="39.731062" lon="-6.728936">
        <ele>325.1</ele>
        <time>1970-01-01T00:00:00Z</time>
      </trkpt>
      <trkpt lat="39.731203" lon="-6.728847">
        <ele>326.1</ele>
        <time>1970-01-01T00:00:00Z</time>
      </trkpt>
      <trkpt lat="39.731463" lon="-6.728847">
        <ele>326.4</ele>
        <time>1970-01-01T00:00:00Z</time>
      </trkpt>
      <trkpt lat="39.731628" lon="-6.728885">
        <ele>326.3</ele>
        <time>1970-01-01T00:00:00Z</time>
      </trkpt>
      <trkpt lat="39.731702" lon="-6.728867">
        <ele>326.5</ele>
        <time>1970-01-01T00:00:00Z</time>
      </trkpt>
      <trkpt lat="39.731948" lon="-6.728610">
        <ele>328.2</ele>
        <time>1970-01-01T00:00:00Z</time>
      </trkpt>
      <trkpt lat="39.732098" lon="-6.728403">
        <ele>329.6</ele>
        <time>1970-01-01T00:00:00Z</time>
      </trkpt>
      <trkpt lat="39.732172" lon="-6.728225">
        <ele>330.7</ele>
        <time>1970-01-01T00:00:00Z</time>
      </trkpt>
      <trkpt lat="39.732285" lon="-6.728002">
        <ele>332.2</ele>
        <time>1970-01-01T00:00:00Z</time>
      </trkpt>
      <trkpt lat="39.732344" lon="-6.727846">
        <ele>333.2</ele>
        <time>1970-01-01T00:00:00Z</time>
      </trkpt>
      <trkpt lat="39.732393" lon="-6.727760">
        <ele>333.7</ele>
        <time>1970-01-01T00:00:00Z</time>
      </trkpt>
      <trkpt lat="39.732560" lon="-6.727550">
        <ele>334.8</ele>
        <time>1970-01-01T00:00:00Z</time>
      </trkpt>
      <trkpt lat="39.732942" lon="-6.727226">
        <ele>335.6</ele>
        <time>1970-01-01T00:00:00Z</time>
      </trkpt>
      <trkpt lat="39.733152" lon="-6.727023">
        <ele>336.3</ele>
        <time>1970-01-01T00:00:00Z</time>
      </trkpt>
      <trkpt lat="39.733358" lon="-6.726752">
        <ele>337.5</ele>
        <time>1970-01-01T00:00:00Z</time>
      </trkpt>
      <trkpt lat="39.733478" lon="-6.726485">
        <ele>338.8</ele>
        <time>1970-01-01T00:00:00Z</time>
      </trkpt>
      <trkpt lat="39.733548" lon="-6.726418">
        <ele>339.4</ele>
        <time>1970-01-01T00:00:00Z</time>
      </trkpt>
      <trkpt lat="39.733706" lon="-6.726316">
        <ele>340.0</ele>
        <time>1970-01-01T00:00:00Z</time>
      </trkpt>
      <trkpt lat="39.733796" lon="-6.726102">
        <ele>340.0</ele>
        <time>1970-01-01T00:00:00Z</time>
      </trkpt>
      <trkpt lat="39.734036" lon="-6.726000">
        <ele>339.8</ele>
        <time>1970-01-01T00:00:00Z</time>
      </trkpt>
      <trkpt lat="39.734180" lon="-6.725893">
        <ele>339.8</ele>
        <time>1970-01-01T00:00:00Z</time>
      </trkpt>
      <trkpt lat="39.734451" lon="-6.725748">
        <ele>338.6</ele>
        <time>1970-01-01T00:00:00Z</time>
      </trkpt>
      <trkpt lat="39.734659" lon="-6.725482">
        <ele>337.7</ele>
        <time>1970-01-01T00:00:00Z</time>
      </trkpt>
      <trkpt lat="39.734751" lon="-6.725394">
        <ele>337.6</ele>
        <time>1970-01-01T00:00:00Z</time>
      </trkpt>
      <trkpt lat="39.734826" lon="-6.725269">
        <ele>337.9</ele>
        <time>1970-01-01T00:00:00Z</time>
      </trkpt>
      <trkpt lat="39.734880" lon="-6.725105">
        <ele>338.4</ele>
        <time>1970-01-01T00:00:00Z</time>
      </trkpt>
      <trkpt lat="39.734901" lon="-6.724999">
        <ele>338.7</ele>
        <time>1970-01-01T00:00:00Z</time>
      </trkpt>
      <trkpt lat="39.734886" lon="-6.724735">
        <ele>339.4</ele>
        <time>1970-01-01T00:00:00Z</time>
      </trkpt>
      <trkpt lat="39.735065" lon="-6.724067">
        <ele>342.1</ele>
        <time>1970-01-01T00:00:00Z</time>
      </trkpt>
      <trkpt lat="39.735072" lon="-6.723952">
        <ele>342.6</ele>
        <time>1970-01-01T00:00:00Z</time>
      </trkpt>
      <trkpt lat="39.735186" lon="-6.723606">
        <ele>344.0</ele>
        <time>1970-01-01T00:00:00Z</time>
      </trkpt>
      <trkpt lat="39.735326" lon="-6.723421">
        <ele>344.9</ele>
        <time>1970-01-01T00:00:00Z</time>
      </trkpt>
      <trkpt lat="39.735799" lon="-6.723113">
        <ele>347.2</ele>
        <time>1970-01-01T00:00:00Z</time>
      </trkpt>
      <trkpt lat="39.735904" lon="-6.723067">
        <ele>347.4</ele>
        <time>1970-01-01T00:00:00Z</time>
      </trkpt>
      <trkpt lat="39.735980" lon="-6.723008">
        <ele>347.7</ele>
        <time>1970-01-01T00:00:00Z</time>
      </trkpt>
      <trkpt lat="39.736158" lon="-6.722799">
        <ele>349.3</ele>
        <time>1970-01-01T00:00:00Z</time>
      </trkpt>
      <trkpt lat="39.736373" lon="-6.722611">
        <ele>350.0</ele>
        <time>1970-01-01T00:00:00Z</time>
      </trkpt>
      <trkpt lat="39.736502" lon="-6.722518">
        <ele>349.7</ele>
        <time>1970-01-01T00:00:00Z</time>
      </trkpt>
      <trkpt lat="39.736568" lon="-6.722425">
        <ele>349.4</ele>
        <time>1970-01-01T00:00:00Z</time>
      </trkpt>
      <trkpt lat="39.736617" lon="-6.722324">
        <ele>349.1</ele>
        <time>1970-01-01T00:00:00Z</time>
      </trkpt>
      <trkpt lat="39.736749" lon="-6.722139">
        <ele>348.7</ele>
        <time>1970-01-01T00:00:00Z</time>
      </trkpt>
      <trkpt lat="39.736909" lon="-6.721862">
        <ele>348.6</ele>
        <time>1970-01-01T00:00:00Z</time>
      </trkpt>
      <trkpt lat="39.736983" lon="-6.721792">
        <ele>348.6</ele>
        <time>1970-01-01T00:00:00Z</time>
      </trkpt>
      <trkpt lat="39.737053" lon="-6.721662">
        <ele>348.7</ele>
        <time>1970-01-01T00:00:00Z</time>
      </trkpt>
      <trkpt lat="39.737135" lon="-6.721582">
        <ele>348.8</ele>
        <time>1970-01-01T00:00:00Z</time>
      </trkpt>
      <trkpt lat="39.737325" lon="-6.721455">
        <ele>349.4</ele>
        <time>1970-01-01T00:00:00Z</time>
      </trkpt>
      <trkpt lat="39.737487" lon="-6.721227">
        <ele>350.2</ele>
        <time>1970-01-01T00:00:00Z</time>
      </trkpt>
      <trkpt lat="39.737563" lon="-6.721164">
        <ele>350.5</ele>
        <time>1970-01-01T00:00:00Z</time>
      </trkpt>
      <trkpt lat="39.737676" lon="-6.721133">
        <ele>351.1</ele>
        <time>1970-01-01T00:00:00Z</time>
      </trkpt>
      <trkpt lat="39.737955" lon="-6.721174">
        <ele>351.1</ele>
        <time>1970-01-01T00:00:00Z</time>
      </trkpt>
      <trkpt lat="39.738022" lon="-6.721137">
        <ele>350.9</ele>
        <time>1970-01-01T00:00:00Z</time>
      </trkpt>
      <trkpt lat="39.738163" lon="-6.721018">
        <ele>351.5</ele>
        <time>1970-01-01T00:00:00Z</time>
      </trkpt>
      <trkpt lat="39.738273" lon="-6.720898">
        <ele>352.5</ele>
        <time>1970-01-01T00:00:00Z</time>
      </trkpt>
      <trkpt lat="39.738371" lon="-6.720844">
        <ele>353.0</ele>
        <time>1970-01-01T00:00:00Z</time>
      </trkpt>
      <trkpt lat="39.738438" lon="-6.720733">
        <ele>354.0</ele>
        <time>1970-01-01T00:00:00Z</time>
      </trkpt>
      <trkpt lat="39.738503" lon="-6.720570">
        <ele>355.4</ele>
        <time>1970-01-01T00:00:00Z</time>
      </trkpt>
      <trkpt lat="39.738551" lon="-6.720506">
        <ele>355.9</ele>
        <time>1970-01-01T00:00:00Z</time>
      </trkpt>
      <trkpt lat="39.738914" lon="-6.720348">
        <ele>356.2</ele>
        <time>1970-01-01T00:00:00Z</time>
      </trkpt>
      <trkpt lat="39.738999" lon="-6.720278">
        <ele>356.5</ele>
        <time>1970-01-01T00:00:00Z</time>
      </trkpt>
      <trkpt lat="39.739254" lon="-6.720170">
        <ele>356.8</ele>
        <time>1970-01-01T00:00:00Z</time>
      </trkpt>
      <trkpt lat="39.739350" lon="-6.720101">
        <ele>356.2</ele>
        <time>1970-01-01T00:00:00Z</time>
      </trkpt>
      <trkpt lat="39.739461" lon="-6.719962">
        <ele>355.2</ele>
        <time>1970-01-01T00:00:00Z</time>
      </trkpt>
      <trkpt lat="39.739591" lon="-6.719836">
        <ele>354.1</ele>
        <time>1970-01-01T00:00:00Z</time>
      </trkpt>
      <trkpt lat="39.739781" lon="-6.719680">
        <ele>352.9</ele>
        <time>1970-01-01T00:00:00Z</time>
      </trkpt>
      <trkpt lat="39.739857" lon="-6.719643">
        <ele>352.7</ele>
        <time>1970-01-01T00:00:00Z</time>
      </trkpt>
      <trkpt lat="39.740104" lon="-6.719263">
        <ele>350.3</ele>
        <time>1970-01-01T00:00:00Z</time>
      </trkpt>
      <trkpt lat="39.740330" lon="-6.719072">
        <ele>350.1</ele>
        <time>1970-01-01T00:00:00Z</time>
      </trkpt>
      <trkpt lat="39.740389" lon="-6.718927">
        <ele>349.7</ele>
        <time>1970-01-01T00:00:00Z</time>
      </trkpt>
      <trkpt lat="39.740448" lon="-6.718882">
        <ele>349.8</ele>
        <time>1970-01-01T00:00:00Z</time>
      </trkpt>
      <trkpt lat="39.740531" lon="-6.718860">
        <ele>350.1</ele>
        <time>1970-01-01T00:00:00Z</time>
      </trkpt>
      <trkpt lat="39.740656" lon="-6.718708">
        <ele>350.1</ele>
        <time>1970-01-01T00:00:00Z</time>
      </trkpt>
      <trkpt lat="39.740756" lon="-6.718617">
        <ele>350.2</ele>
        <time>1970-01-01T00:00:00Z</time>
      </trkpt>
      <trkpt lat="39.740791" lon="-6.718492">
        <ele>349.8</ele>
        <time>1970-01-01T00:00:00Z</time>
      </trkpt>
      <trkpt lat="39.740739" lon="-6.718215">
        <ele>348.8</ele>
        <time>1970-01-01T00:00:00Z</time>
      </trkpt>
      <trkpt lat="39.740716" lon="-6.718029">
        <ele>348.5</ele>
        <time>1970-01-01T00:00:00Z</time>
      </trkpt>
      <trkpt lat="39.740669" lon="-6.717939">
        <ele>348.3</ele>
        <time>1970-01-01T00:00:00Z</time>
      </trkpt>
      <trkpt lat="39.740612" lon="-6.717885">
        <ele>348.2</ele>
        <time>1970-01-01T00:00:00Z</time>
      </trkpt>
      <trkpt lat="39.740401" lon="-6.717747">
        <ele>349.8</ele>
        <time>1970-01-01T00:00:00Z</time>
      </trkpt>
      <trkpt lat="39.740281" lon="-6.717687">
        <ele>350.7</ele>
        <time>1970-01-01T00:00:00Z</time>
      </trkpt>
      <trkpt lat="39.739097" lon="-6.717218">
        <ele>354.0</ele>
        <time>1970-01-01T00:00:00Z</time>
      </trkpt>
      <trkpt lat="39.739028" lon="-6.717170">
        <ele>354.0</ele>
        <time>1970-01-01T00:00:00Z</time>
      </trkpt>
      <trkpt lat="39.738974" lon="-6.717112">
        <ele>354.0</ele>
        <time>1970-01-01T00:00:00Z</time>
      </trkpt>
      <trkpt lat="39.738903" lon="-6.716963">
        <ele>354.0</ele>
        <time>1970-01-01T00:00:00Z</time>
      </trkpt>
      <trkpt lat="39.738893" lon="-6.716814">
        <ele>354.0</ele>
        <time>1970-01-01T00:00:00Z</time>
      </trkpt>
      <trkpt lat="39.738927" lon="-6.716643">
        <ele>354.0</ele>
        <time>1970-01-01T00:00:00Z</time>
      </trkpt>
      <trkpt lat="39.738970" lon="-6.716290">
        <ele>354.0</ele>
        <time>1970-01-01T00:00:00Z</time>
      </trkpt>
      <trkpt lat="39.738956" lon="-6.716131">
        <ele>353.6</ele>
        <time>1970-01-01T00:00:00Z</time>
      </trkpt>
      <trkpt lat="39.738908" lon="-6.715966">
        <ele>353.0</ele>
        <time>1970-01-01T00:00:00Z</time>
      </trkpt>
      <trkpt lat="39.738828" lon="-6.715840">
        <ele>353.0</ele>
        <time>1970-01-01T00:00:00Z</time>
      </trkpt>
      <trkpt lat="39.738362" lon="-6.715232">
        <ele>349.8</ele>
        <time>1970-01-01T00:00:00Z</time>
      </trkpt>
      <trkpt lat="39.738295" lon="-6.715115">
        <ele>348.5</ele>
        <time>1970-01-01T00:00:00Z</time>
      </trkpt>
      <trkpt lat="39.737861" lon="-6.714072">
        <ele>344.0</ele>
        <time>1970-01-01T00:00:00Z</time>
      </trkpt>
      <trkpt lat="39.737685" lon="-6.713803">
        <ele>344.3</ele>
        <time>1970-01-01T00:00:00Z</time>
      </trkpt>
      <trkpt lat="39.737809" lon="-6.713575">
        <ele>344.5</ele>
        <time>1970-01-01T00:00:00Z</time>
      </trkpt>
      <trkpt lat="39.737945" lon="-6.713257">
        <ele>344.9</ele>
        <time>1970-01-01T00:00:00Z</time>
      </trkpt>
      <trkpt lat="39.738035" lon="-6.712987">
        <ele>345.4</ele>
        <time>1970-01-01T00:00:00Z</time>
      </trkpt>
      <trkpt lat="39.738177" lon="-6.712728">
        <ele>344.6</ele>
        <time>1970-01-01T00:00:00Z</time>
      </trkpt>
      <trkpt lat="39.738395" lon="-6.712239">
        <ele>344.2</ele>
        <time>1970-01-01T00:00:00Z</time>
      </trkpt>
      <trkpt lat="39.738469" lon="-6.712063">
        <ele>343.1</ele>
        <time>1970-01-01T00:00:00Z</time>
      </trkpt>
      <trkpt lat="39.738502" lon="-6.711931">
        <ele>342.4</ele>
        <time>1970-01-01T00:00:00Z</time>
      </trkpt>
      <trkpt lat="39.738641" lon="-6.711704">
        <ele>341.0</ele>
        <time>1970-01-01T00:00:00Z</time>
      </trkpt>
      <trkpt lat="39.738814" lon="-6.711483">
        <ele>339.9</ele>
        <time>1970-01-01T00:00:00Z</time>
      </trkpt>
      <trkpt lat="39.738868" lon="-6.711390">
        <ele>339.6</ele>
        <time>1970-01-01T00:00:00Z</time>
      </trkpt>
      <trkpt lat="39.738907" lon="-6.711261">
        <ele>339.2</ele>
        <time>1970-01-01T00:00:00Z</time>
      </trkpt>
      <trkpt lat="39.738910" lon="-6.711020">
        <ele>338.7</ele>
        <time>1970-01-01T00:00:00Z</time>
      </trkpt>
      <trkpt lat="39.738846" lon="-6.710705">
        <ele>337.8</ele>
        <time>1970-01-01T00:00:00Z</time>
      </trkpt>
      <trkpt lat="39.738846" lon="-6.710475">
        <ele>338.1</ele>
        <time>1970-01-01T00:00:00Z</time>
      </trkpt>
      <trkpt lat="39.738885" lon="-6.710025">
        <ele>338.9</ele>
        <time>1970-01-01T00:00:00Z</time>
      </trkpt>
      <trkpt lat="39.738912" lon="-6.709834">
        <ele>339.8</ele>
        <time>1970-01-01T00:00:00Z</time>
      </trkpt>
      <trkpt lat="39.738915" lon="-6.709686">
        <ele>340.9</ele>
        <time>1970-01-01T00:00:00Z</time>
      </trkpt>
      <trkpt lat="39.738787" lon="-6.709223">
        <ele>344.9</ele>
        <time>1970-01-01T00:00:00Z</time>
      </trkpt>
      <trkpt lat="39.738783" lon="-6.709092">
        <ele>345.6</ele>
        <time>1970-01-01T00:00:00Z</time>
      </trkpt>
      <trkpt lat="39.738818" lon="-6.708970">
        <ele>345.5</ele>
        <time>1970-01-01T00:00:00Z</time>
      </trkpt>
      <trkpt lat="39.738844" lon="-6.708803">
        <ele>345.3</ele>
        <time>1970-01-01T00:00:00Z</time>
      </trkpt>
      <trkpt lat="39.738969" lon="-6.708464">
        <ele>345.1</ele>
        <time>1970-01-01T00:00:00Z</time>
      </trkpt>
      <trkpt lat="39.739025" lon="-6.708349">
        <ele>344.9</ele>
        <time>1970-01-01T00:00:00Z</time>
      </trkpt>
      <trkpt lat="39.739230" lon="-6.708014">
        <ele>345.4</ele>
        <time>1970-01-01T00:00:00Z</time>
      </trkpt>
      <trkpt lat="39.739407" lon="-6.707651">
        <ele>346.2</ele>
        <time>1970-01-01T00:00:00Z</time>
      </trkpt>
      <trkpt lat="39.739543" lon="-6.707451">
        <ele>345.9</ele>
        <time>1970-01-01T00:00:00Z</time>
      </trkpt>
      <trkpt lat="39.739853" lon="-6.707139">
        <ele>346.7</ele>
        <time>1970-01-01T00:00:00Z</time>
      </trkpt>
      <trkpt lat="39.739936" lon="-6.707091">
        <ele>346.8</ele>
        <time>1970-01-01T00:00:00Z</time>
      </trkpt>
      <trkpt lat="39.740134" lon="-6.707030">
        <ele>347.4</ele>
        <time>1970-01-01T00:00:00Z</time>
      </trkpt>
      <trkpt lat="39.740332" lon="-6.706851">
        <ele>348.9</ele>
        <time>1970-01-01T00:00:00Z</time>
      </trkpt>
      <trkpt lat="39.740646" lon="-6.706453">
        <ele>351.3</ele>
        <time>1970-01-01T00:00:00Z</time>
      </trkpt>
      <trkpt lat="39.740542" lon="-6.706371">
        <ele>351.5</ele>
        <time>1970-01-01T00:00:00Z</time>
      </trkpt>
      <trkpt lat="39.740415" lon="-6.706228">
        <ele>352.0</ele>
        <time>1970-01-01T00:00:00Z</time>
      </trkpt>
      <trkpt lat="39.739640" lon="-6.705732">
        <ele>352.9</ele>
        <time>1970-01-01T00:00:00Z</time>
      </trkpt>
      <trkpt lat="39.739558" lon="-6.705664">
        <ele>353.0</ele>
        <time>1970-01-01T00:00:00Z</time>
      </trkpt>
      <trkpt lat="39.739345" lon="-6.705435">
        <ele>353.2</ele>
        <time>1970-01-01T00:00:00Z</time>
      </trkpt>
      <trkpt lat="39.739287" lon="-6.705395">
        <ele>353.5</ele>
        <time>1970-01-01T00:00:00Z</time>
      </trkpt>
      <trkpt lat="39.738962" lon="-6.705419">
        <ele>355.5</ele>
        <time>1970-01-01T00:00:00Z</time>
      </trkpt>
      <trkpt lat="39.738744" lon="-6.705504">
        <ele>356.3</ele>
        <time>1970-01-01T00:00:00Z</time>
      </trkpt>
      <trkpt lat="39.738148" lon="-6.705541">
        <ele>356.4</ele>
        <time>1970-01-01T00:00:00Z</time>
      </trkpt>
      <trkpt lat="39.738091" lon="-6.705526">
        <ele>356.3</ele>
        <time>1970-01-01T00:00:00Z</time>
      </trkpt>
      <trkpt lat="39.738052" lon="-6.705494">
        <ele>356.2</ele>
        <time>1970-01-01T00:00:00Z</time>
      </trkpt>
      <trkpt lat="39.738028" lon="-6.705364">
        <ele>356.5</ele>
        <time>1970-01-01T00:00:00Z</time>
      </trkpt>
      <trkpt lat="39.737979" lon="-6.705274">
        <ele>356.2</ele>
        <time>1970-01-01T00:00:00Z</time>
      </trkpt>
      <trkpt lat="39.737943" lon="-6.705246">
        <ele>355.9</ele>
        <time>1970-01-01T00:00:00Z</time>
      </trkpt>
      <trkpt lat="39.737922" lon="-6.705188">
        <ele>355.7</ele>
        <time>1970-01-01T00:00:00Z</time>
      </trkpt>
      <trkpt lat="39.737859" lon="-6.704953">
        <ele>355.9</ele>
        <time>1970-01-01T00:00:00Z</time>
      </trkpt>
      <trkpt lat="39.737878" lon="-6.704782">
        <ele>356.4</ele>
        <time>1970-01-01T00:00:00Z</time>
      </trkpt>
      <trkpt lat="39.737866" lon="-6.704701">
        <ele>356.3</ele>
        <time>1970-01-01T00:00:00Z</time>
      </trkpt>
      <trkpt lat="39.737833" lon="-6.704601">
        <ele>356.2</ele>
        <time>1970-01-01T00:00:00Z</time>
      </trkpt>
      <trkpt lat="39.737695" lon="-6.704344">
        <ele>355.5</ele>
        <time>1970-01-01T00:00:00Z</time>
      </trkpt>
      <trkpt lat="39.737666" lon="-6.704239">
        <ele>355.6</ele>
        <time>1970-01-01T00:00:00Z</time>
      </trkpt>
      <trkpt lat="39.737655" lon="-6.704127">
        <ele>355.8</ele>
        <time>1970-01-01T00:00:00Z</time>
      </trkpt>
      <trkpt lat="39.737676" lon="-6.703816">
        <ele>357.2</ele>
        <time>1970-01-01T00:00:00Z</time>
      </trkpt>
      <trkpt lat="39.737672" lon="-6.703578">
        <ele>357.6</ele>
        <time>1970-01-01T00:00:00Z</time>
      </trkpt>
      <trkpt lat="39.737640" lon="-6.703115">
        <ele>359.6</ele>
        <time>1970-01-01T00:00:00Z</time>
      </trkpt>
      <trkpt lat="39.737667" lon="-6.702895">
        <ele>360.0</ele>
        <time>1970-01-01T00:00:00Z</time>
      </trkpt>
      <trkpt lat="39.737712" lon="-6.702749">
        <ele>360.0</ele>
        <time>1970-01-01T00:00:00Z</time>
      </trkpt>
      <trkpt lat="39.737701" lon="-6.702672">
        <ele>360.0</ele>
        <time>1970-01-01T00:00:00Z</time>
      </trkpt>
      <trkpt lat="39.737613" lon="-6.702560">
        <ele>360.0</ele>
        <time>1970-01-01T00:00:00Z</time>
      </trkpt>
      <trkpt lat="39.737524" lon="-6.702402">
        <ele>359.7</ele>
        <time>1970-01-01T00:00:00Z</time>
      </trkpt>
      <trkpt lat="39.737496" lon="-6.702390">
        <ele>359.5</ele>
        <time>1970-01-01T00:00:00Z</time>
      </trkpt>
      <trkpt lat="39.737408" lon="-6.702227">
        <ele>359.1</ele>
        <time>1970-01-01T00:00:00Z</time>
      </trkpt>
      <trkpt lat="39.737330" lon="-6.701902">
        <ele>358.1</ele>
        <time>1970-01-01T00:00:00Z</time>
      </trkpt>
      <trkpt lat="39.737263" lon="-6.701712">
        <ele>357.3</ele>
        <time>1970-01-01T00:00:00Z</time>
      </trkpt>
      <trkpt lat="39.737256" lon="-6.701613">
        <ele>357.0</ele>
        <time>1970-01-01T00:00:00Z</time>
      </trkpt>
      <trkpt lat="39.737265" lon="-6.701493">
        <ele>356.7</ele>
        <time>1970-01-01T00:00:00Z</time>
      </trkpt>
      <trkpt lat="39.737254" lon="-6.701405">
        <ele>356.5</ele>
        <time>1970-01-01T00:00:00Z</time>
      </trkpt>
      <trkpt lat="39.737258" lon="-6.701328">
        <ele>356.0</ele>
        <time>1970-01-01T00:00:00Z</time>
      </trkpt>
      <trkpt lat="39.737275" lon="-6.701275">
        <ele>355.6</ele>
        <time>1970-01-01T00:00:00Z</time>
      </trkpt>
      <trkpt lat="39.737249" lon="-6.700995">
        <ele>353.9</ele>
        <time>1970-01-01T00:00:00Z</time>
      </trkpt>
      <trkpt lat="39.737285" lon="-6.700677">
        <ele>352.2</ele>
        <time>1970-01-01T00:00:00Z</time>
      </trkpt>
      <trkpt lat="39.737334" lon="-6.700544">
        <ele>351.5</ele>
        <time>1970-01-01T00:00:00Z</time>
      </trkpt>
      <trkpt lat="39.737417" lon="-6.700378">
        <ele>350.6</ele>
        <time>1970-01-01T00:00:00Z</time>
      </trkpt>
      <trkpt lat="39.737440" lon="-6.700294">
        <ele>350.2</ele>
        <time>1970-01-01T00:00:00Z</time>
      </trkpt>
      <trkpt lat="39.737455" lon="-6.700117">
        <ele>349.8</ele>
        <time>1970-01-01T00:00:00Z</time>
      </trkpt>
      <trkpt lat="39.737450" lon="-6.699822">
        <ele>348.8</ele>
        <time>1970-01-01T00:00:00Z</time>
      </trkpt>
      <trkpt lat="39.737462" lon="-6.699684">
        <ele>348.2</ele>
        <time>1970-01-01T00:00:00Z</time>
      </trkpt>
      <trkpt lat="39.737557" lon="-6.699372">
        <ele>346.4</ele>
        <time>1970-01-01T00:00:00Z</time>
      </trkpt>
      <trkpt lat="39.737576" lon="-6.699216">
        <ele>346.1</ele>
        <time>1970-01-01T00:00:00Z</time>
      </trkpt>
      <trkpt lat="39.737637" lon="-6.698998">
        <ele>345.6</ele>
        <time>1970-01-01T00:00:00Z</time>
      </trkpt>
      <trkpt lat="39.737659" lon="-6.698866">
        <ele>345.0</ele>
        <time>1970-01-01T00:00:00Z</time>
      </trkpt>
      <trkpt lat="39.737615" lon="-6.698638">
        <ele>345.0</ele>
        <time>1970-01-01T00:00:00Z</time>
      </trkpt>
      <trkpt lat="39.737642" lon="-6.698515">
        <ele>344.4</ele>
        <time>1970-01-01T00:00:00Z</time>
      </trkpt>
      <trkpt lat="39.737646" lon="-6.698420">
        <ele>343.9</ele>
        <time>1970-01-01T00:00:00Z</time>
      </trkpt>
      <trkpt lat="39.737619" lon="-6.698212">
        <ele>343.2</ele>
        <time>1970-01-01T00:00:00Z</time>
      </trkpt>
      <trkpt lat="39.737613" lon="-6.698028">
        <ele>343.0</ele>
        <time>1970-01-01T00:00:00Z</time>
      </trkpt>
      <trkpt lat="39.737587" lon="-6.697959">
        <ele>343.0</ele>
        <time>1970-01-01T00:00:00Z</time>
      </trkpt>
      <trkpt lat="39.737452" lon="-6.697944">
        <ele>343.0</ele>
        <time>1970-01-01T00:00:00Z</time>
      </trkpt>
      <trkpt lat="39.737404" lon="-6.697897">
        <ele>343.0</ele>
        <time>1970-01-01T00:00:00Z</time>
      </trkpt>
      <trkpt lat="39.737375" lon="-6.697683">
        <ele>343.0</ele>
        <time>1970-01-01T00:00:00Z</time>
      </trkpt>
      <trkpt lat="39.737327" lon="-6.697577">
        <ele>343.0</ele>
        <time>1970-01-01T00:00:00Z</time>
      </trkpt>
      <trkpt lat="39.737307" lon="-6.697494">
        <ele>343.0</ele>
        <time>1970-01-01T00:00:00Z</time>
      </trkpt>
      <trkpt lat="39.737398" lon="-6.696768">
        <ele>342.0</ele>
        <time>1970-01-01T00:00:00Z</time>
      </trkpt>
      <trkpt lat="39.737521" lon="-6.696335">
        <ele>342.0</ele>
        <time>1970-01-01T00:00:00Z</time>
      </trkpt>
      <trkpt lat="39.737614" lon="-6.695911">
        <ele>340.2</ele>
        <time>1970-01-01T00:00:00Z</time>
      </trkpt>
      <trkpt lat="39.737677" lon="-6.695756">
        <ele>339.3</ele>
        <time>1970-01-01T00:00:00Z</time>
      </trkpt>
      <trkpt lat="39.737682" lon="-6.695635">
        <ele>338.7</ele>
        <time>1970-01-01T00:00:00Z</time>
      </trkpt>
      <trkpt lat="39.737653" lon="-6.695540">
        <ele>338.7</ele>
        <time>1970-01-01T00:00:00Z</time>
      </trkpt>
      <trkpt lat="39.737596" lon="-6.695460">
        <ele>339.1</ele>
        <time>1970-01-01T00:00:00Z</time>
      </trkpt>
      <trkpt lat="39.737440" lon="-6.695294">
        <ele>340.4</ele>
        <time>1970-01-01T00:00:00Z</time>
      </trkpt>
      <trkpt lat="39.737382" lon="-6.695189">
        <ele>340.9</ele>
        <time>1970-01-01T00:00:00Z</time>
      </trkpt>
      <trkpt lat="39.737366" lon="-6.695082">
        <ele>341.0</ele>
        <time>1970-01-01T00:00:00Z</time>
      </trkpt>
      <trkpt lat="39.737432" lon="-6.694940">
        <ele>340.2</ele>
        <time>1970-01-01T00:00:00Z</time>
      </trkpt>
      <trkpt lat="39.737489" lon="-6.694765">
        <ele>339.5</ele>
        <time>1970-01-01T00:00:00Z</time>
      </trkpt>
      <trkpt lat="39.737498" lon="-6.694650">
        <ele>339.4</ele>
        <time>1970-01-01T00:00:00Z</time>
      </trkpt>
      <trkpt lat="39.737491" lon="-6.694563">
        <ele>339.5</ele>
        <time>1970-01-01T00:00:00Z</time>
      </trkpt>
      <trkpt lat="39.737451" lon="-6.694465">
        <ele>340.0</ele>
        <time>1970-01-01T00:00:00Z</time>
      </trkpt>
      <trkpt lat="39.737293" lon="-6.694212">
        <ele>341.4</ele>
        <time>1970-01-01T00:00:00Z</time>
      </trkpt>
      <trkpt lat="39.737200" lon="-6.694026">
        <ele>342.4</ele>
        <time>1970-01-01T00:00:00Z</time>
      </trkpt>
      <trkpt lat="39.737152" lon="-6.693895">
        <ele>342.9</ele>
        <time>1970-01-01T00:00:00Z</time>
      </trkpt>
      <trkpt lat="39.737104" lon="-6.693611">
        <ele>344.0</ele>
        <time>1970-01-01T00:00:00Z</time>
      </trkpt>
      <trkpt lat="39.737034" lon="-6.693378">
        <ele>346.0</ele>
        <time>1970-01-01T00:00:00Z</time>
      </trkpt>
      <trkpt lat="39.737034" lon="-6.693069">
        <ele>347.0</ele>
        <time>1970-01-01T00:00:00Z</time>
      </trkpt>
      <trkpt lat="39.737002" lon="-6.692821">
        <ele>348.0</ele>
        <time>1970-01-01T00:00:00Z</time>
      </trkpt>
      <trkpt lat="39.736921" lon="-6.692651">
        <ele>348.0</ele>
        <time>1970-01-01T00:00:00Z</time>
      </trkpt>
      <trkpt lat="39.736898" lon="-6.692492">
        <ele>347.5</ele>
        <time>1970-01-01T00:00:00Z</time>
      </trkpt>
      <trkpt lat="39.736958" lon="-6.692038">
        <ele>346.2</ele>
        <time>1970-01-01T00:00:00Z</time>
      </trkpt>
      <trkpt lat="39.737098" lon="-6.691710">
        <ele>346.8</ele>
        <time>1970-01-01T00:00:00Z</time>
      </trkpt>
      <trkpt lat="39.737221" lon="-6.691506">
        <ele>347.0</ele>
        <time>1970-01-01T00:00:00Z</time>
      </trkpt>
      <trkpt lat="39.737460" lon="-6.691290">
        <ele>347.8</ele>
        <time>1970-01-01T00:00:00Z</time>
      </trkpt>
      <trkpt lat="39.737542" lon="-6.691178">
        <ele>348.0</ele>
        <time>1970-01-01T00:00:00Z</time>
      </trkpt>
      <trkpt lat="39.737625" lon="-6.690972">
        <ele>348.0</ele>
        <time>1970-01-01T00:00:00Z</time>
      </trkpt>
      <trkpt lat="39.737620" lon="-6.690893">
        <ele>348.0</ele>
        <time>1970-01-01T00:00:00Z</time>
      </trkpt>
      <trkpt lat="39.737567" lon="-6.690829">
        <ele>348.0</ele>
        <time>1970-01-01T00:00:00Z</time>
      </trkpt>
      <trkpt lat="39.737482" lon="-6.690787">
        <ele>348.0</ele>
        <time>1970-01-01T00:00:00Z</time>
      </trkpt>
      <trkpt lat="39.737417" lon="-6.690680">
        <ele>348.0</ele>
        <time>1970-01-01T00:00:00Z</time>
      </trkpt>
      <trkpt lat="39.737360" lon="-6.690543">
        <ele>348.0</ele>
        <time>1970-01-01T00:00:00Z</time>
      </trkpt>
      <trkpt lat="39.737309" lon="-6.690311">
        <ele>348.3</ele>
        <time>1970-01-01T00:00:00Z</time>
      </trkpt>
      <trkpt lat="39.737275" lon="-6.690242">
        <ele>348.4</ele>
        <time>1970-01-01T00:00:00Z</time>
      </trkpt>
      <trkpt lat="39.737212" lon="-6.690217">
        <ele>348.7</ele>
        <time>1970-01-01T00:00:00Z</time>
      </trkpt>
      <trkpt lat="39.736967" lon="-6.690243">
        <ele>349.7</ele>
        <time>1970-01-01T00:00:00Z</time>
      </trkpt>
      <trkpt lat="39.736900" lon="-6.690210">
        <ele>350.1</ele>
        <time>1970-01-01T00:00:00Z</time>
      </trkpt>
      <trkpt lat="39.736834" lon="-6.690197">
        <ele>350.5</ele>
        <time>1970-01-01T00:00:00Z</time>
      </trkpt>
      <trkpt lat="39.736623" lon="-6.690240">
        <ele>351.5</ele>
        <time>1970-01-01T00:00:00Z</time>
      </trkpt>
      <trkpt lat="39.736449" lon="-6.690243">
        <ele>352.2</ele>
        <time>1970-01-01T00:00:00Z</time>
      </trkpt>
      <trkpt lat="39.736285" lon="-6.690202">
        <ele>353.1</ele>
        <time>1970-01-01T00:00:00Z</time>
      </trkpt>
      <trkpt lat="39.736155" lon="-6.690195">
        <ele>353.2</ele>
        <time>1970-01-01T00:00:00Z</time>
      </trkpt>
      <trkpt lat="39.736036" lon="-6.690157">
        <ele>352.8</ele>
        <time>1970-01-01T00:00:00Z</time>
      </trkpt>
      <trkpt lat="39.735771" lon="-6.690157">
        <ele>352.0</ele>
        <time>1970-01-01T00:00:00Z</time>
      </trkpt>
      <trkpt lat="39.735354" lon="-6.689974">
        <ele>352.0</ele>
        <time>1970-01-01T00:00:00Z</time>
      </trkpt>
      <trkpt lat="39.735202" lon="-6.689937">
        <ele>351.8</ele>
        <time>1970-01-01T00:00:00Z</time>
      </trkpt>
      <trkpt lat="39.735103" lon="-6.689956">
        <ele>351.6</ele>
        <time>1970-01-01T00:00:00Z</time>
      </trkpt>
      <trkpt lat="39.734919" lon="-6.690030">
        <ele>351.1</ele>
        <time>1970-01-01T00:00:00Z</time>
      </trkpt>
      <trkpt lat="39.734645" lon="-6.690018">
        <ele>351.3</ele>
        <time>1970-01-01T00:00:00Z</time>
      </trkpt>
      <trkpt lat="39.734423" lon="-6.690058">
        <ele>351.0</ele>
        <time>1970-01-01T00:00:00Z</time>
      </trkpt>
      <trkpt lat="39.734164" lon="-6.690155">
        <ele>351.5</ele>
        <time>1970-01-01T00:00:00Z</time>
      </trkpt>
      <trkpt lat="39.733963" lon="-6.690177">
        <ele>352.2</ele>
        <time>1970-01-01T00:00:00Z</time>
      </trkpt>
      <trkpt lat="39.733820" lon="-6.690130">
        <ele>353.0</ele>
        <time>1970-01-01T00:00:00Z</time>
      </trkpt>
      <trkpt lat="39.733593" lon="-6.689950">
        <ele>354.8</ele>
        <time>1970-01-01T00:00:00Z</time>
      </trkpt>
      <trkpt lat="39.733488" lon="-6.689766">
        <ele>356.3</ele>
        <time>1970-01-01T00:00:00Z</time>
      </trkpt>
      <trkpt lat="39.733325" lon="-6.689636">
        <ele>357.8</ele>
        <time>1970-01-01T00:00:00Z</time>
      </trkpt>
      <trkpt lat="39.733130" lon="-6.689631">
        <ele>358.3</ele>
        <time>1970-01-01T00:00:00Z</time>
      </trkpt>
      <trkpt lat="39.732884" lon="-6.689581">
        <ele>359.0</ele>
        <time>1970-01-01T00:00:00Z</time>
      </trkpt>
      <trkpt lat="39.732643" lon="-6.689420">
        <ele>359.0</ele>
        <time>1970-01-01T00:00:00Z</time>
      </trkpt>
      <trkpt lat="39.732364" lon="-6.689279">
        <ele>358.8</ele>
        <time>1970-01-01T00:00:00Z</time>
      </trkpt>
      <trkpt lat="39.732293" lon="-6.689226">
        <ele>358.4</ele>
        <time>1970-01-01T00:00:00Z</time>
      </trkpt>
      <trkpt lat="39.732245" lon="-6.689186">
        <ele>358.2</ele>
        <time>1970-01-01T00:00:00Z</time>
      </trkpt>
      <trkpt lat="39.732141" lon="-6.688971">
        <ele>358.0</ele>
        <time>1970-01-01T00:00:00Z</time>
      </trkpt>
      <trkpt lat="39.732054" lon="-6.688825">
        <ele>357.7</ele>
        <time>1970-01-01T00:00:00Z</time>
      </trkpt>
      <trkpt lat="39.731984" lon="-6.688765">
        <ele>357.7</ele>
        <time>1970-01-01T00:00:00Z</time>
      </trkpt>
      <trkpt lat="39.731915" lon="-6.688761">
        <ele>358.0</ele>
        <time>1970-01-01T00:00:00Z</time>
      </trkpt>
      <trkpt lat="39.731805" lon="-6.688731">
        <ele>358.2</ele>
        <time>1970-01-01T00:00:00Z</time>
      </trkpt>
      <trkpt lat="39.731699" lon="-6.688663">
        <ele>358.0</ele>
        <time>1970-01-01T00:00:00Z</time>
      </trkpt>
      <trkpt lat="39.731564" lon="-6.688510">
        <ele>358.0</ele>
        <time>1970-01-01T00:00:00Z</time>
      </trkpt>
      <trkpt lat="39.731375" lon="-6.688352">
        <ele>358.0</ele>
        <time>1970-01-01T00:00:00Z</time>
      </trkpt>
      <trkpt lat="39.731234" lon="-6.688280">
        <ele>358.5</ele>
        <time>1970-01-01T00:00:00Z</time>
      </trkpt>
      <trkpt lat="39.731093" lon="-6.688058">
        <ele>359.3</ele>
        <time>1970-01-01T00:00:00Z</time>
      </trkpt>
      <trkpt lat="39.730927" lon="-6.688121">
        <ele>360.7</ele>
        <time>1970-01-01T00:00:00Z</time>
      </trkpt>
      <trkpt lat="39.730788" lon="-6.688052">
        <ele>362.0</ele>
        <time>1970-01-01T00:00:00Z</time>
      </trkpt>
      <trkpt lat="39.730721" lon="-6.688048">
        <ele>362.7</ele>
        <time>1970-01-01T00:00:00Z</time>
      </trkpt>
      <trkpt lat="39.730657" lon="-6.688089">
        <ele>363.5</ele>
        <time>1970-01-01T00:00:00Z</time>
      </trkpt>
      <trkpt lat="39.730524" lon="-6.688243">
        <ele>365.8</ele>
        <time>1970-01-01T00:00:00Z</time>
      </trkpt>
      <trkpt lat="39.730461" lon="-6.688266">
        <ele>366.6</ele>
        <time>1970-01-01T00:00:00Z</time>
      </trkpt>
      <trkpt lat="39.730376" lon="-6.688245">
        <ele>367.2</ele>
        <time>1970-01-01T00:00:00Z</time>
      </trkpt>
      <trkpt lat="39.730262" lon="-6.688095">
        <ele>367.2</ele>
        <time>1970-01-01T00:00:00Z</time>
      </trkpt>
      <trkpt lat="39.730117" lon="-6.688033">
        <ele>367.8</ele>
        <time>1970-01-01T00:00:00Z</time>
      </trkpt>
      <trkpt lat="39.729900" lon="-6.687854">
        <ele>369.3</ele>
        <time>1970-01-01T00:00:00Z</time>
      </trkpt>
      <trkpt lat="39.729826" lon="-6.687778">
        <ele>369.6</ele>
        <time>1970-01-01T00:00:00Z</time>
      </trkpt>
      <trkpt lat="39.729668" lon="-6.687528">
        <ele>369.6</ele>
        <time>1970-01-01T00:00:00Z</time>
      </trkpt>
      <trkpt lat="39.729618" lon="-6.687481">
        <ele>370.1</ele>
        <time>1970-01-01T00:00:00Z</time>
      </trkpt>
      <trkpt lat="39.729484" lon="-6.687402">
        <ele>371.1</ele>
        <time>1970-01-01T00:00:00Z</time>
      </trkpt>
      <trkpt lat="39.729451" lon="-6.687363">
        <ele>371.2</ele>
        <time>1970-01-01T00:00:00Z</time>
      </trkpt>
      <trkpt lat="39.729439" lon="-6.687301">
        <ele>371.3</ele>
        <time>1970-01-01T00:00:00Z</time>
      </trkpt>
      <trkpt lat="39.729472" lon="-6.687125">
        <ele>371.7</ele>
        <time>1970-01-01T00:00:00Z</time>
      </trkpt>
      <trkpt lat="39.729472" lon="-6.687048">
        <ele>372.0</ele>
        <time>1970-01-01T00:00:00Z</time>
      </trkpt>
      <trkpt lat="39.729339" lon="-6.686905">
        <ele>372.6</ele>
        <time>1970-01-01T00:00:00Z</time>
      </trkpt>
      <trkpt lat="39.729227" lon="-6.686731">
        <ele>373.3</ele>
        <time>1970-01-01T00:00:00Z</time>
      </trkpt>
      <trkpt lat="39.729164" lon="-6.686679">
        <ele>373.3</ele>
        <time>1970-01-01T00:00:00Z</time>
      </trkpt>
      <trkpt lat="39.729006" lon="-6.686643">
        <ele>372.9</ele>
        <time>1970-01-01T00:00:00Z</time>
      </trkpt>
      <trkpt lat="39.728788" lon="-6.686320">
        <ele>372.2</ele>
        <time>1970-01-01T00:00:00Z</time>
      </trkpt>
      <trkpt lat="39.728477" lon="-6.685975">
        <ele>372.8</ele>
        <time>1970-01-01T00:00:00Z</time>
      </trkpt>
      <trkpt lat="39.728032" lon="-6.685633">
        <ele>376.4</ele>
        <time>1970-01-01T00:00:00Z</time>
      </trkpt>
      <trkpt lat="39.727955" lon="-6.685587">
        <ele>376.9</ele>
        <time>1970-01-01T00:00:00Z</time>
      </trkpt>
      <trkpt lat="39.727722" lon="-6.685498">
        <ele>378.4</ele>
        <time>1970-01-01T00:00:00Z</time>
      </trkpt>
      <trkpt lat="39.727198" lon="-6.685243">
        <ele>380.8</ele>
        <time>1970-01-01T00:00:00Z</time>
      </trkpt>
      <trkpt lat="39.727013" lon="-6.685179">
        <ele>381.1</ele>
        <time>1970-01-01T00:00:00Z</time>
      </trkpt>
      <trkpt lat="39.726916" lon="-6.685164">
        <ele>381.3</ele>
        <time>1970-01-01T00:00:00Z</time>
      </trkpt>
      <trkpt lat="39.726786" lon="-6.685187">
        <ele>381.8</ele>
        <time>1970-01-01T00:00:00Z</time>
      </trkpt>
      <trkpt lat="39.726683" lon="-6.685235">
        <ele>382.0</ele>
        <time>1970-01-01T00:00:00Z</time>
      </trkpt>
      <trkpt lat="39.726456" lon="-6.685384">
        <ele>382.4</ele>
        <time>1970-01-01T00:00:00Z</time>
      </trkpt>
      <trkpt lat="39.726354" lon="-6.685396">
        <ele>382.8</ele>
        <time>1970-01-01T00:00:00Z</time>
      </trkpt>
      <trkpt lat="39.726157" lon="-6.685356">
        <ele>384.1</ele>
        <time>1970-01-01T00:00:00Z</time>
      </trkpt>
      <trkpt lat="39.725830" lon="-6.685383">
        <ele>386.0</ele>
        <time>1970-01-01T00:00:00Z</time>
      </trkpt>
      <trkpt lat="39.725714" lon="-6.685376">
        <ele>386.6</ele>
        <time>1970-01-01T00:00:00Z</time>
      </trkpt>
      <trkpt lat="39.725624" lon="-6.685352">
        <ele>387.1</ele>
        <time>1970-01-01T00:00:00Z</time>
      </trkpt>
      <trkpt lat="39.725534" lon="-6.685285">
        <ele>387.8</ele>
        <time>1970-01-01T00:00:00Z</time>
      </trkpt>
      <trkpt lat="39.725331" lon="-6.685092">
        <ele>389.0</ele>
        <time>1970-01-01T00:00:00Z</time>
      </trkpt>
      <trkpt lat="39.725070" lon="-6.684954">
        <ele>390.1</ele>
        <time>1970-01-01T00:00:00Z</time>
      </trkpt>
      <trkpt lat="39.724925" lon="-6.684890">
        <ele>390.4</ele>
        <time>1970-01-01T00:00:00Z</time>
      </trkpt>
      <trkpt lat="39.724770" lon="-6.684859">
        <ele>390.1</ele>
        <time>1970-01-01T00:00:00Z</time>
      </trkpt>
      <trkpt lat="39.724559" lon="-6.684880">
        <ele>389.3</ele>
        <time>1970-01-01T00:00:00Z</time>
      </trkpt>
      <trkpt lat="39.724478" lon="-6.684866">
        <ele>388.9</ele>
        <time>1970-01-01T00:00:00Z</time>
      </trkpt>
      <trkpt lat="39.724371" lon="-6.684794">
        <ele>387.9</ele>
        <time>1970-01-01T00:00:00Z</time>
      </trkpt>
      <trkpt lat="39.724188" lon="-6.684616">
        <ele>386.1</ele>
        <time>1970-01-01T00:00:00Z</time>
      </trkpt>
      <trkpt lat="39.724023" lon="-6.684595">
        <ele>385.7</ele>
        <time>1970-01-01T00:00:00Z</time>
      </trkpt>
      <trkpt lat="39.724062" lon="-6.684523">
        <ele>386.0</ele>
        <time>1970-01-01T00:00:00Z</time>
      </trkpt>
      <trkpt lat="39.724135" lon="-6.684445">
        <ele>386.0</ele>
        <time>1970-01-01T00:00:00Z</time>
      </trkpt>
      <trkpt lat="39.724277" lon="-6.684154">
        <ele>385.7</ele>
        <time>1970-01-01T00:00:00Z</time>
      </trkpt>
      <trkpt lat="39.724305" lon="-6.684069">
        <ele>385.2</ele>
        <time>1970-01-01T00:00:00Z</time>
      </trkpt>
      <trkpt lat="39.724290" lon="-6.683817">
        <ele>384.5</ele>
        <time>1970-01-01T00:00:00Z</time>
      </trkpt>
      <trkpt lat="39.724294" lon="-6.683696">
        <ele>384.3</ele>
        <time>1970-01-01T00:00:00Z</time>
      </trkpt>
      <trkpt lat="39.724320" lon="-6.683593">
        <ele>384.0</ele>
        <time>1970-01-01T00:00:00Z</time>
      </trkpt>
      <trkpt lat="39.724418" lon="-6.683396">
        <ele>384.0</ele>
        <time>1970-01-01T00:00:00Z</time>
      </trkpt>
      <trkpt lat="39.724488" lon="-6.683294">
        <ele>384.0</ele>
        <time>1970-01-01T00:00:00Z</time>
      </trkpt>
      <trkpt lat="39.724563" lon="-6.683221">
        <ele>384.0</ele>
        <time>1970-01-01T00:00:00Z</time>
      </trkpt>
      <trkpt lat="39.724595" lon="-6.683149">
        <ele>384.0</ele>
        <time>1970-01-01T00:00:00Z</time>
      </trkpt>
      <trkpt lat="39.724617" lon="-6.683000">
        <ele>384.1</ele>
        <time>1970-01-01T00:00:00Z</time>
      </trkpt>
      <trkpt lat="39.724621" lon="-6.682876">
        <ele>384.2</ele>
        <time>1970-01-01T00:00:00Z</time>
      </trkpt>
      <trkpt lat="39.724542" lon="-6.682603">
        <ele>386.2</ele>
        <time>1970-01-01T00:00:00Z</time>
      </trkpt>
      <trkpt lat="39.724538" lon="-6.682492">
        <ele>386.7</ele>
        <time>1970-01-01T00:00:00Z</time>
      </trkpt>
      <trkpt lat="39.724562" lon="-6.682355">
        <ele>387.3</ele>
        <time>1970-01-01T00:00:00Z</time>
      </trkpt>
      <trkpt lat="39.724607" lon="-6.682231">
        <ele>387.8</ele>
        <time>1970-01-01T00:00:00Z</time>
      </trkpt>
      <trkpt lat="39.724655" lon="-6.682051">
        <ele>389.3</ele>
        <time>1970-01-01T00:00:00Z</time>
      </trkpt>
      <trkpt lat="39.724688" lon="-6.681734">
        <ele>392.1</ele>
        <time>1970-01-01T00:00:00Z</time>
      </trkpt>
      <trkpt lat="39.724685" lon="-6.681527">
        <ele>393.1</ele>
        <time>1970-01-01T00:00:00Z</time>
      </trkpt>
      <trkpt lat="39.724731" lon="-6.681406">
        <ele>393.8</ele>
        <time>1970-01-01T00:00:00Z</time>
      </trkpt>
      <trkpt lat="39.724795" lon="-6.681318">
        <ele>394.4</ele>
        <time>1970-01-01T00:00:00Z</time>
      </trkpt>
      <trkpt lat="39.724965" lon="-6.681008">
        <ele>397.1</ele>
        <time>1970-01-01T00:00:00Z</time>
      </trkpt>
      <trkpt lat="39.724995" lon="-6.680830">
        <ele>397.4</ele>
        <time>1970-01-01T00:00:00Z</time>
      </trkpt>
      <trkpt lat="39.724956" lon="-6.680694">
        <ele>398.3</ele>
        <time>1970-01-01T00:00:00Z</time>
      </trkpt>
      <trkpt lat="39.724878" lon="-6.680564">
        <ele>399.1</ele>
        <time>1970-01-01T00:00:00Z</time>
      </trkpt>
      <trkpt lat="39.724823" lon="-6.680418">
        <ele>400.1</ele>
        <time>1970-01-01T00:00:00Z</time>
      </trkpt>
      <trkpt lat="39.724887" lon="-6.680155">
        <ele>402.6</ele>
        <time>1970-01-01T00:00:00Z</time>
      </trkpt>
      <trkpt lat="39.724914" lon="-6.679707">
        <ele>404.7</ele>
        <time>1970-01-01T00:00:00Z</time>
      </trkpt>
      <trkpt lat="39.724965" lon="-6.679559">
        <ele>404.6</ele>
        <time>1970-01-01T00:00:00Z</time>
      </trkpt>
      <trkpt lat="39.725093" lon="-6.679418">
        <ele>404.0</ele>
        <time>1970-01-01T00:00:00Z</time>
      </trkpt>
      <trkpt lat="39.725116" lon="-6.679315">
        <ele>404.0</ele>
        <time>1970-01-01T00:00:00Z</time>
      </trkpt>
      <trkpt lat="39.725106" lon="-6.679196">
        <ele>404.0</ele>
        <time>1970-01-01T00:00:00Z</time>
      </trkpt>
      <trkpt lat="39.724988" lon="-6.678783">
        <ele>402.8</ele>
        <time>1970-01-01T00:00:00Z</time>
      </trkpt>
      <trkpt lat="39.724991" lon="-6.678679">
        <ele>402.3</ele>
        <time>1970-01-01T00:00:00Z</time>
      </trkpt>
      <trkpt lat="39.725038" lon="-6.678563">
        <ele>402.0</ele>
        <time>1970-01-01T00:00:00Z</time>
      </trkpt>
      <trkpt lat="39.725103" lon="-6.678460">
        <ele>402.0</ele>
        <time>1970-01-01T00:00:00Z</time>
      </trkpt>
      <trkpt lat="39.725177" lon="-6.678351">
        <ele>402.4</ele>
        <time>1970-01-01T00:00:00Z</time>
      </trkpt>
      <trkpt lat="39.725293" lon="-6.678219">
        <ele>402.8</ele>
        <time>1970-01-01T00:00:00Z</time>
      </trkpt>
      <trkpt lat="39.725627" lon="-6.677933">
        <ele>405.3</ele>
        <time>1970-01-01T00:00:00Z</time>
      </trkpt>
      <trkpt lat="39.725878" lon="-6.677766">
        <ele>405.9</ele>
        <time>1970-01-01T00:00:00Z</time>
      </trkpt>
      <trkpt lat="39.725983" lon="-6.677799">
        <ele>406.0</ele>
        <time>1970-01-01T00:00:00Z</time>
      </trkpt>
      <trkpt lat="39.726108" lon="-6.677949">
        <ele>407.0</ele>
        <time>1970-01-01T00:00:00Z</time>
      </trkpt>
      <trkpt lat="39.726215" lon="-6.678139">
        <ele>407.9</ele>
        <time>1970-01-01T00:00:00Z</time>
      </trkpt>
      <trkpt lat="39.726311" lon="-6.678236">
        <ele>407.8</ele>
        <time>1970-01-01T00:00:00Z</time>
      </trkpt>
      <trkpt lat="39.726487" lon="-6.678329">
        <ele>407.0</ele>
        <time>1970-01-01T00:00:00Z</time>
      </trkpt>
      <trkpt lat="39.726767" lon="-6.678450">
        <ele>407.0</ele>
        <time>1970-01-01T00:00:00Z</time>
      </trkpt>
      <trkpt lat="39.726871" lon="-6.678473">
        <ele>407.0</ele>
        <time>1970-01-01T00:00:00Z</time>
      </trkpt>
      <trkpt lat="39.727029" lon="-6.678422">
        <ele>406.4</ele>
        <time>1970-01-01T00:00:00Z</time>
      </trkpt>
      <trkpt lat="39.727248" lon="-6.678328">
        <ele>404.2</ele>
        <time>1970-01-01T00:00:00Z</time>
      </trkpt>
      <trkpt lat="39.727374" lon="-6.678310">
        <ele>402.6</ele>
        <time>1970-01-01T00:00:00Z</time>
      </trkpt>
      <trkpt lat="39.727444" lon="-6.678264">
        <ele>401.9</ele>
        <time>1970-01-01T00:00:00Z</time>
      </trkpt>
      <trkpt lat="39.727668" lon="-6.677999">
        <ele>400.9</ele>
        <time>1970-01-01T00:00:00Z</time>
      </trkpt>
      <trkpt lat="39.727714" lon="-6.677923">
        <ele>400.6</ele>
        <time>1970-01-01T00:00:00Z</time>
      </trkpt>
      <trkpt lat="39.727723" lon="-6.677543">
        <ele>399.7</ele>
        <time>1970-01-01T00:00:00Z</time>
      </trkpt>
      <trkpt lat="39.727817" lon="-6.677378">
        <ele>399.9</ele>
        <time>1970-01-01T00:00:00Z</time>
      </trkpt>
      <trkpt lat="39.727890" lon="-6.677320">
        <ele>399.9</ele>
        <time>1970-01-01T00:00:00Z</time>
      </trkpt>
      <trkpt lat="39.727950" lon="-6.677239">
        <ele>399.5</ele>
        <time>1970-01-01T00:00:00Z</time>
      </trkpt>
      <trkpt lat="39.728019" lon="-6.677095">
        <ele>399.4</ele>
        <time>1970-01-01T00:00:00Z</time>
      </trkpt>
      <trkpt lat="39.728042" lon="-6.676916">
        <ele>399.3</ele>
        <time>1970-01-01T00:00:00Z</time>
      </trkpt>
      <trkpt lat="39.728148" lon="-6.676635">
        <ele>398.8</ele>
        <time>1970-01-01T00:00:00Z</time>
      </trkpt>
      <trkpt lat="39.728303" lon="-6.676149">
        <ele>396.8</ele>
        <time>1970-01-01T00:00:00Z</time>
      </trkpt>
      <trkpt lat="39.728322" lon="-6.676032">
        <ele>396.9</ele>
        <time>1970-01-01T00:00:00Z</time>
      </trkpt>
      <trkpt lat="39.728292" lon="-6.675889">
        <ele>396.5</ele>
        <time>1970-01-01T00:00:00Z</time>
      </trkpt>
      <trkpt lat="39.728187" lon="-6.675642">
        <ele>395.3</ele>
        <time>1970-01-01T00:00:00Z</time>
      </trkpt>
      <trkpt lat="39.728166" lon="-6.675401">
        <ele>395.0</ele>
        <time>1970-01-01T00:00:00Z</time>
      </trkpt>
      <trkpt lat="39.728174" lon="-6.675328">
        <ele>394.8</ele>
        <time>1970-01-01T00:00:00Z</time>
      </trkpt>
      <trkpt lat="39.728376" lon="-6.675042">
        <ele>395.0</ele>
        <time>1970-01-01T00:00:00Z</time>
      </trkpt>
      <trkpt lat="39.728437" lon="-6.674860">
        <ele>393.8</ele>
        <time>1970-01-01T00:00:00Z</time>
      </trkpt>
      <trkpt lat="39.728549" lon="-6.674642">
        <ele>393.3</ele>
        <time>1970-01-01T00:00:00Z</time>
      </trkpt>
      <trkpt lat="39.728568" lon="-6.674445">
        <ele>392.5</ele>
        <time>1970-01-01T00:00:00Z</time>
      </trkpt>
      <trkpt lat="39.728615" lon="-6.674408">
        <ele>392.2</ele>
        <time>1970-01-01T00:00:00Z</time>
      </trkpt>
      <trkpt lat="39.728694" lon="-6.674400">
        <ele>391.8</ele>
        <time>1970-01-01T00:00:00Z</time>
      </trkpt>
      <trkpt lat="39.728740" lon="-6.674363">
        <ele>391.5</ele>
        <time>1970-01-01T00:00:00Z</time>
      </trkpt>
      <trkpt lat="39.728780" lon="-6.674249">
        <ele>391.1</ele>
        <time>1970-01-01T00:00:00Z</time>
      </trkpt>
      <trkpt lat="39.728833" lon="-6.673975">
        <ele>391.0</ele>
        <time>1970-01-01T00:00:00Z</time>
      </trkpt>
      <trkpt lat="39.728864" lon="-6.673893">
        <ele>391.0</ele>
        <time>1970-01-01T00:00:00Z</time>
      </trkpt>
      <trkpt lat="39.728904" lon="-6.673828">
        <ele>391.0</ele>
        <time>1970-01-01T00:00:00Z</time>
      </trkpt>
      <trkpt lat="39.729113" lon="-6.673620">
        <ele>391.0</ele>
        <time>1970-01-01T00:00:00Z</time>
      </trkpt>
      <trkpt lat="39.729194" lon="-6.673466">
        <ele>391.5</ele>
        <time>1970-01-01T00:00:00Z</time>
      </trkpt>
      <trkpt lat="39.729257" lon="-6.673412">
        <ele>391.9</ele>
        <time>1970-01-01T00:00:00Z</time>
      </trkpt>
      <trkpt lat="39.729576" lon="-6.673207">
        <ele>392.9</ele>
        <time>1970-01-01T00:00:00Z</time>
      </trkpt>
      <trkpt lat="39.729655" lon="-6.673184">
        <ele>392.9</ele>
        <time>1970-01-01T00:00:00Z</time>
      </trkpt>
      <trkpt lat="39.729845" lon="-6.673249">
        <ele>392.5</ele>
        <time>1970-01-01T00:00:00Z</time>
      </trkpt>
      <trkpt lat="39.729918" lon="-6.673253">
        <ele>392.3</ele>
        <time>1970-01-01T00:00:00Z</time>
      </trkpt>
      <trkpt lat="39.730135" lon="-6.673133">
        <ele>392.4</ele>
        <time>1970-01-01T00:00:00Z</time>
      </trkpt>
      <trkpt lat="39.730252" lon="-6.673053">
        <ele>392.1</ele>
        <time>1970-01-01T00:00:00Z</time>
      </trkpt>
      <trkpt lat="39.730391" lon="-6.672920">
        <ele>392.2</ele>
        <time>1970-01-01T00:00:00Z</time>
      </trkpt>
      <trkpt lat="39.730477" lon="-6.672870">
        <ele>391.6</ele>
        <time>1970-01-01T00:00:00Z</time>
      </trkpt>
      <trkpt lat="39.730642" lon="-6.672829">
        <ele>390.6</ele>
        <time>1970-01-01T00:00:00Z</time>
      </trkpt>
      <trkpt lat="39.730786" lon="-6.672726">
        <ele>389.9</ele>
        <time>1970-01-01T00:00:00Z</time>
      </trkpt>
      <trkpt lat="39.731212" lon="-6.672521">
        <ele>387.6</ele>
        <time>1970-01-01T00:00:00Z</time>
      </trkpt>
      <trkpt lat="39.731495" lon="-6.672435">
        <ele>386.3</ele>
        <time>1970-01-01T00:00:00Z</time>
      </trkpt>
      <trkpt lat="39.731693" lon="-6.672332">
        <ele>385.7</ele>
        <time>1970-01-01T00:00:00Z</time>
      </trkpt>
      <trkpt lat="39.732023" lon="-6.672199">
        <ele>383.9</ele>
        <time>1970-01-01T00:00:00Z</time>
      </trkpt>
      <trkpt lat="39.732268" lon="-6.672192">
        <ele>382.9</ele>
        <time>1970-01-01T00:00:00Z</time>
      </trkpt>
      <trkpt lat="39.732381" lon="-6.672166">
        <ele>382.3</ele>
        <time>1970-01-01T00:00:00Z</time>
      </trkpt>
      <trkpt lat="39.732476" lon="-6.672164">
        <ele>381.8</ele>
        <time>1970-01-01T00:00:00Z</time>
      </trkpt>
      <trkpt lat="39.732556" lon="-6.672188">
        <ele>381.6</ele>
        <time>1970-01-01T00:00:00Z</time>
      </trkpt>
      <trkpt lat="39.732738" lon="-6.672328">
        <ele>381.4</ele>
        <time>1970-01-01T00:00:00Z</time>
      </trkpt>
      <trkpt lat="39.732842" lon="-6.672366">
        <ele>380.9</ele>
        <time>1970-01-01T00:00:00Z</time>
      </trkpt>
      <trkpt lat="39.733139" lon="-6.672409">
        <ele>380.0</ele>
        <time>1970-01-01T00:00:00Z</time>
      </trkpt>
      <trkpt lat="39.733302" lon="-6.672450">
        <ele>380.9</ele>
        <time>1970-01-01T00:00:00Z</time>
      </trkpt>
      <trkpt lat="39.733902" lon="-6.672711">
        <ele>387.0</ele>
        <time>1970-01-01T00:00:00Z</time>
      </trkpt>
      <trkpt lat="39.733991" lon="-6.672728">
        <ele>386.9</ele>
        <time>1970-01-01T00:00:00Z</time>
      </trkpt>
      <trkpt lat="39.734089" lon="-6.672719">
        <ele>386.9</ele>
        <time>1970-01-01T00:00:00Z</time>
      </trkpt>
      <trkpt lat="39.734425" lon="-6.672643">
        <ele>385.7</ele>
        <time>1970-01-01T00:00:00Z</time>
      </trkpt>
      <trkpt lat="39.734575" lon="-6.672584">
        <ele>385.1</ele>
        <time>1970-01-01T00:00:00Z</time>
      </trkpt>
      <trkpt lat="39.734692" lon="-6.672501">
        <ele>384.1</ele>
        <time>1970-01-01T00:00:00Z</time>
      </trkpt>
      <trkpt lat="39.734756" lon="-6.672416">
        <ele>383.8</ele>
        <time>1970-01-01T00:00:00Z</time>
      </trkpt>
      <trkpt lat="39.734905" lon="-6.672152">
        <ele>383.3</ele>
        <time>1970-01-01T00:00:00Z</time>
      </trkpt>
      <trkpt lat="39.735006" lon="-6.672037">
        <ele>382.5</ele>
        <time>1970-01-01T00:00:00Z</time>
      </trkpt>
      <trkpt lat="39.735293" lon="-6.671770">
        <ele>379.9</ele>
        <time>1970-01-01T00:00:00Z</time>
      </trkpt>
      <trkpt lat="39.735351" lon="-6.671692">
        <ele>379.3</ele>
        <time>1970-01-01T00:00:00Z</time>
      </trkpt>
      <trkpt lat="39.735687" lon="-6.671502">
        <ele>376.4</ele>
        <time>1970-01-01T00:00:00Z</time>
      </trkpt>
      <trkpt lat="39.735829" lon="-6.671399">
        <ele>374.6</ele>
        <time>1970-01-01T00:00:00Z</time>
      </trkpt>
      <trkpt lat="39.736263" lon="-6.670814">
        <ele>369.6</ele>
        <time>1970-01-01T00:00:00Z</time>
      </trkpt>
      <trkpt lat="39.736334" lon="-6.670754">
        <ele>368.8</ele>
        <time>1970-01-01T00:00:00Z</time>
      </trkpt>
      <trkpt lat="39.736462" lon="-6.670674">
        <ele>367.2</ele>
        <time>1970-01-01T00:00:00Z</time>
      </trkpt>
      <trkpt lat="39.736683" lon="-6.670555">
        <ele>365.5</ele>
        <time>1970-01-01T00:00:00Z</time>
      </trkpt>
      <trkpt lat="39.736758" lon="-6.670478">
        <ele>365.0</ele>
        <time>1970-01-01T00:00:00Z</time>
      </trkpt>
      <trkpt lat="39.736846" lon="-6.670344">
        <ele>364.7</ele>
        <time>1970-01-01T00:00:00Z</time>
      </trkpt>
      <trkpt lat="39.736954" lon="-6.670063">
        <ele>365.7</ele>
        <time>1970-01-01T00:00:00Z</time>
      </trkpt>
      <trkpt lat="39.737079" lon="-6.669781">
        <ele>366.3</ele>
        <time>1970-01-01T00:00:00Z</time>
      </trkpt>
      <trkpt lat="39.737347" lon="-6.669455">
        <ele>364.0</ele>
        <time>1970-01-01T00:00:00Z</time>
      </trkpt>
      <trkpt lat="39.737604" lon="-6.669108">
        <ele>361.5</ele>
        <time>1970-01-01T00:00:00Z</time>
      </trkpt>
      <trkpt lat="39.737683" lon="-6.669067">
        <ele>361.8</ele>
        <time>1970-01-01T00:00:00Z</time>
      </trkpt>
      <trkpt lat="39.737910" lon="-6.669018">
        <ele>362.8</ele>
        <time>1970-01-01T00:00:00Z</time>
      </trkpt>
      <trkpt lat="39.737998" lon="-6.668951">
        <ele>363.0</ele>
        <time>1970-01-01T00:00:00Z</time>
      </trkpt>
      <trkpt lat="39.738060" lon="-6.668865">
        <ele>362.8</ele>
        <time>1970-01-01T00:00:00Z</time>
      </trkpt>
      <trkpt lat="39.738217" lon="-6.668590">
        <ele>362.5</ele>
        <time>1970-01-01T00:00:00Z</time>
      </trkpt>
      <trkpt lat="39.738282" lon="-6.668299">
        <ele>360.9</ele>
        <time>1970-01-01T00:00:00Z</time>
      </trkpt>
      <trkpt lat="39.738316" lon="-6.668224">
        <ele>360.5</ele>
        <time>1970-01-01T00:00:00Z</time>
      </trkpt>
      <trkpt lat="39.738456" lon="-6.668089">
        <ele>360.6</ele>
        <time>1970-01-01T00:00:00Z</time>
      </trkpt>
      <trkpt lat="39.738467" lon="-6.667993">
        <ele>359.9</ele>
        <time>1970-01-01T00:00:00Z</time>
      </trkpt>
      <trkpt lat="39.738444" lon="-6.667683">
        <ele>358.2</ele>
        <time>1970-01-01T00:00:00Z</time>
      </trkpt>
      <trkpt lat="39.738450" lon="-6.667557">
        <ele>357.8</ele>
        <time>1970-01-01T00:00:00Z</time>
      </trkpt>
      <trkpt lat="39.738441" lon="-6.667426">
        <ele>357.2</ele>
        <time>1970-01-01T00:00:00Z</time>
      </trkpt>
      <trkpt lat="39.738457" lon="-6.667281">
        <ele>356.8</ele>
        <time>1970-01-01T00:00:00Z</time>
      </trkpt>
      <trkpt lat="39.738547" lon="-6.666911">
        <ele>356.9</ele>
        <time>1970-01-01T00:00:00Z</time>
      </trkpt>
      <trkpt lat="39.738636" lon="-6.666799">
        <ele>356.8</ele>
        <time>1970-01-01T00:00:00Z</time>
      </trkpt>
      <trkpt lat="39.738673" lon="-6.666715">
        <ele>356.7</ele>
        <time>1970-01-01T00:00:00Z</time>
      </trkpt>
      <trkpt lat="39.738707" lon="-6.666623">
        <ele>356.7</ele>
        <time>1970-01-01T00:00:00Z</time>
      </trkpt>
      <trkpt lat="39.738738" lon="-6.666481">
        <ele>357.1</ele>
        <time>1970-01-01T00:00:00Z</time>
      </trkpt>
      <trkpt lat="39.738775" lon="-6.666441">
        <ele>357.0</ele>
        <time>1970-01-01T00:00:00Z</time>
      </trkpt>
      <trkpt lat="39.738993" lon="-6.665821">
        <ele>356.3</ele>
        <time>1970-01-01T00:00:00Z</time>
      </trkpt>
      <trkpt lat="39.739013" lon="-6.665725">
        <ele>355.9</ele>
        <time>1970-01-01T00:00:00Z</time>
      </trkpt>
      <trkpt lat="39.739043" lon="-6.665428">
        <ele>355.8</ele>
        <time>1970-01-01T00:00:00Z</time>
      </trkpt>
      <trkpt lat="39.739037" lon="-6.665334">
        <ele>355.8</ele>
        <time>1970-01-01T00:00:00Z</time>
      </trkpt>
      <trkpt lat="39.738927" lon="-6.664879">
        <ele>354.8</ele>
        <time>1970-01-01T00:00:00Z</time>
      </trkpt>
      <trkpt lat="39.738941" lon="-6.664623">
        <ele>352.6</ele>
        <time>1970-01-01T00:00:00Z</time>
      </trkpt>
      <trkpt lat="39.738957" lon="-6.664485">
        <ele>351.8</ele>
        <time>1970-01-01T00:00:00Z</time>
      </trkpt>
      <trkpt lat="39.739098" lon="-6.664011">
        <ele>348.5</ele>
        <time>1970-01-01T00:00:00Z</time>
      </trkpt>
      <trkpt lat="39.739203" lon="-6.663585">
        <ele>345.1</ele>
        <time>1970-01-01T00:00:00Z</time>
      </trkpt>
      <trkpt lat="39.739217" lon="-6.663252">
        <ele>345.0</ele>
        <time>1970-01-01T00:00:00Z</time>
      </trkpt>
      <trkpt lat="39.739272" lon="-6.663033">
        <ele>344.1</ele>
        <time>1970-01-01T00:00:00Z</time>
      </trkpt>
      <trkpt lat="39.739246" lon="-6.662769">
        <ele>341.2</ele>
        <time>1970-01-01T00:00:00Z</time>
      </trkpt>
      <trkpt lat="39.739266" lon="-6.662669">
        <ele>339.8</ele>
        <time>1970-01-01T00:00:00Z</time>
      </trkpt>
      <trkpt lat="39.739316" lon="-6.662586">
        <ele>338.5</ele>
        <time>1970-01-01T00:00:00Z</time>
      </trkpt>
      <trkpt lat="39.739450" lon="-6.662462">
        <ele>336.3</ele>
        <time>1970-01-01T00:00:00Z</time>
      </trkpt>
      <trkpt lat="39.739643" lon="-6.662371">
        <ele>334.8</ele>
        <time>1970-01-01T00:00:00Z</time>
      </trkpt>
      <trkpt lat="39.739704" lon="-6.662325">
        <ele>334.3</ele>
        <time>1970-01-01T00:00:00Z</time>
      </trkpt>
      <trkpt lat="39.739950" lon="-6.662093">
        <ele>333.0</ele>
        <time>1970-01-01T00:00:00Z</time>
      </trkpt>
      <trkpt lat="39.740190" lon="-6.661908">
        <ele>332.2</ele>
        <time>1970-01-01T00:00:00Z</time>
      </trkpt>
      <trkpt lat="39.740690" lon="-6.661584">
        <ele>327.3</ele>
        <time>1970-01-01T00:00:00Z</time>
      </trkpt>
      <trkpt lat="39.741214" lon="-6.661185">
        <ele>318.6</ele>
        <time>1970-01-01T00:00:00Z</time>
      </trkpt>
      <trkpt lat="39.741666" lon="-6.660860">
        <ele>319.5</ele>
        <time>1970-01-01T00:00:00Z</time>
      </trkpt>
      <trkpt lat="39.741930" lon="-6.660482">
        <ele>321.4</ele>
        <time>1970-01-01T00:00:00Z</time>
      </trkpt>
      <trkpt lat="39.742013" lon="-6.660385">
        <ele>322.0</ele>
        <time>1970-01-01T00:00:00Z</time>
      </trkpt>
      <trkpt lat="39.742195" lon="-6.660227">
        <ele>322.7</ele>
        <time>1970-01-01T00:00:00Z</time>
      </trkpt>
      <trkpt lat="39.742250" lon="-6.660234">
        <ele>323.0</ele>
        <time>1970-01-01T00:00:00Z</time>
      </trkpt>
      <trkpt lat="39.742398" lon="-6.660218">
        <ele>324.3</ele>
        <time>1970-01-01T00:00:00Z</time>
      </trkpt>
      <trkpt lat="39.742430" lon="-6.660204">
        <ele>324.7</ele>
        <time>1970-01-01T00:00:00Z</time>
      </trkpt>
      <trkpt lat="39.742549" lon="-6.660081">
        <ele>325.9</ele>
        <time>1970-01-01T00:00:00Z</time>
      </trkpt>
      <trkpt lat="39.742816" lon="-6.660014">
        <ele>326.8</ele>
        <time>1970-01-01T00:00:00Z</time>
      </trkpt>
      <trkpt lat="39.742866" lon="-6.659968">
        <ele>327.0</ele>
        <time>1970-01-01T00:00:00Z</time>
      </trkpt>
      <trkpt lat="39.742936" lon="-6.659876">
        <ele>327.8</ele>
        <time>1970-01-01T00:00:00Z</time>
      </trkpt>
      <trkpt lat="39.742984" lon="-6.659768">
        <ele>328.7</ele>
        <time>1970-01-01T00:00:00Z</time>
      </trkpt>
      <trkpt lat="39.743081" lon="-6.659471">
        <ele>330.8</ele>
        <time>1970-01-01T00:00:00Z</time>
      </trkpt>
      <trkpt lat="39.743114" lon="-6.659433">
        <ele>330.9</ele>
        <time>1970-01-01T00:00:00Z</time>
      </trkpt>
      <trkpt lat="39.743263" lon="-6.659335">
        <ele>331.0</ele>
        <time>1970-01-01T00:00:00Z</time>
      </trkpt>
      <trkpt lat="39.743354" lon="-6.659172">
        <ele>331.1</ele>
        <time>1970-01-01T00:00:00Z</time>
      </trkpt>
      <trkpt lat="39.743407" lon="-6.659133">
        <ele>330.9</ele>
        <time>1970-01-01T00:00:00Z</time>
      </trkpt>
      <trkpt lat="39.743480" lon="-6.659048">
        <ele>330.6</ele>
        <time>1970-01-01T00:00:00Z</time>
      </trkpt>
      <trkpt lat="39.743606" lon="-6.658739">
        <ele>330.7</ele>
        <time>1970-01-01T00:00:00Z</time>
      </trkpt>
      <trkpt lat="39.743801" lon="-6.658627">
        <ele>329.3</ele>
        <time>1970-01-01T00:00:00Z</time>
      </trkpt>
      <trkpt lat="39.743849" lon="-6.658579">
        <ele>329.0</ele>
        <time>1970-01-01T00:00:00Z</time>
      </trkpt>
      <trkpt lat="39.743952" lon="-6.658408">
        <ele>328.1</ele>
        <time>1970-01-01T00:00:00Z</time>
      </trkpt>
      <trkpt lat="39.744367" lon="-6.658129">
        <ele>326.0</ele>
        <time>1970-01-01T00:00:00Z</time>
      </trkpt>
      <trkpt lat="39.744398" lon="-6.658048">
        <ele>326.0</ele>
        <time>1970-01-01T00:00:00Z</time>
      </trkpt>
      <trkpt lat="39.744518" lon="-6.657566">
        <ele>326.0</ele>
        <time>1970-01-01T00:00:00Z</time>
      </trkpt>
      <trkpt lat="39.744575" lon="-6.657436">
        <ele>326.0</ele>
        <time>1970-01-01T00:00:00Z</time>
      </trkpt>
      <trkpt lat="39.744646" lon="-6.657340">
        <ele>325.8</ele>
        <time>1970-01-01T00:00:00Z</time>
      </trkpt>
      <trkpt lat="39.744735" lon="-6.657262">
        <ele>325.4</ele>
        <time>1970-01-01T00:00:00Z</time>
      </trkpt>
      <trkpt lat="39.744917" lon="-6.657205">
        <ele>325.0</ele>
        <time>1970-01-01T00:00:00Z</time>
      </trkpt>
      <trkpt lat="39.744977" lon="-6.657152">
        <ele>325.0</ele>
        <time>1970-01-01T00:00:00Z</time>
      </trkpt>
      <trkpt lat="39.745026" lon="-6.657085">
        <ele>324.9</ele>
        <time>1970-01-01T00:00:00Z</time>
      </trkpt>
      <trkpt lat="39.745128" lon="-6.656871">
        <ele>323.8</ele>
        <time>1970-01-01T00:00:00Z</time>
      </trkpt>
      <trkpt lat="39.745173" lon="-6.656818">
        <ele>323.4</ele>
        <time>1970-01-01T00:00:00Z</time>
      </trkpt>
      <trkpt lat="39.745347" lon="-6.656694">
        <ele>322.4</ele>
        <time>1970-01-01T00:00:00Z</time>
      </trkpt>
      <trkpt lat="39.745462" lon="-6.656635">
        <ele>321.6</ele>
        <time>1970-01-01T00:00:00Z</time>
      </trkpt>
      <trkpt lat="39.745566" lon="-6.656549">
        <ele>320.3</ele>
        <time>1970-01-01T00:00:00Z</time>
      </trkpt>
      <trkpt lat="39.745725" lon="-6.656376">
        <ele>318.8</ele>
        <time>1970-01-01T00:00:00Z</time>
      </trkpt>
      <trkpt lat="39.745977" lon="-6.656136">
        <ele>316.1</ele>
        <time>1970-01-01T00:00:00Z</time>
      </trkpt>
      <trkpt lat="39.746114" lon="-6.655921">
        <ele>314.7</ele>
        <time>1970-01-01T00:00:00Z</time>
      </trkpt>
      <trkpt lat="39.746291" lon="-6.655777">
        <ele>311.8</ele>
        <time>1970-01-01T00:00:00Z</time>
      </trkpt>
      <trkpt lat="39.746454" lon="-6.655706">
        <ele>308.9</ele>
        <time>1970-01-01T00:00:00Z</time>
      </trkpt>
      <trkpt lat="39.746673" lon="-6.655654">
        <ele>305.8</ele>
        <time>1970-01-01T00:00:00Z</time>
      </trkpt>
      <trkpt lat="39.747525" lon="-6.655520">
        <ele>298.9</ele>
        <time>1970-01-01T00:00:00Z</time>
      </trkpt>
      <trkpt lat="39.747601" lon="-6.655539">
        <ele>298.7</ele>
        <time>1970-01-01T00:00:00Z</time>
      </trkpt>
      <trkpt lat="39.747742" lon="-6.655606">
        <ele>298.1</ele>
        <time>1970-01-01T00:00:00Z</time>
      </trkpt>
      <trkpt lat="39.747872" lon="-6.655628">
        <ele>297.3</ele>
        <time>1970-01-01T00:00:00Z</time>
      </trkpt>
      <trkpt lat="39.748146" lon="-6.655525">
        <ele>295.9</ele>
        <time>1970-01-01T00:00:00Z</time>
      </trkpt>
      <trkpt lat="39.748335" lon="-6.655326">
        <ele>294.2</ele>
        <time>1970-01-01T00:00:00Z</time>
      </trkpt>
      <trkpt lat="39.748468" lon="-6.655255">
        <ele>292.4</ele>
        <time>1970-01-01T00:00:00Z</time>
      </trkpt>
      <trkpt lat="39.748559" lon="-6.655240">
        <ele>291.3</ele>
        <time>1970-01-01T00:00:00Z</time>
      </trkpt>
      <trkpt lat="39.749006" lon="-6.655436">
        <ele>287.7</ele>
        <time>1970-01-01T00:00:00Z</time>
      </trkpt>
      <trkpt lat="39.749212" lon="-6.655492">
        <ele>286.8</ele>
        <time>1970-01-01T00:00:00Z</time>
      </trkpt>
      <trkpt lat="39.749313" lon="-6.655437">
        <ele>286.5</ele>
        <time>1970-01-01T00:00:00Z</time>
      </trkpt>
      <trkpt lat="39.749683" lon="-6.654723">
        <ele>287.3</ele>
        <time>1970-01-01T00:00:00Z</time>
      </trkpt>
      <trkpt lat="39.749747" lon="-6.654592">
        <ele>287.9</ele>
        <time>1970-01-01T00:00:00Z</time>
      </trkpt>
      <trkpt lat="39.749763" lon="-6.654530">
        <ele>288.1</ele>
        <time>1970-01-01T00:00:00Z</time>
      </trkpt>
      <trkpt lat="39.749734" lon="-6.654154">
        <ele>286.4</ele>
        <time>1970-01-01T00:00:00Z</time>
      </trkpt>
      <trkpt lat="39.749678" lon="-6.653879">
        <ele>282.4</ele>
        <time>1970-01-01T00:00:00Z</time>
      </trkpt>
      <trkpt lat="39.749641" lon="-6.653716">
        <ele>280.0</ele>
        <time>1970-01-01T00:00:00Z</time>
      </trkpt>
      <trkpt lat="39.749531" lon="-6.653523">
        <ele>276.0</ele>
        <time>1970-01-01T00:00:00Z</time>
      </trkpt>
      <trkpt lat="39.749484" lon="-6.653323">
        <ele>272.6</ele>
        <time>1970-01-01T00:00:00Z</time>
      </trkpt>
      <trkpt lat="39.749472" lon="-6.653171">
        <ele>270.2</ele>
        <time>1970-01-01T00:00:00Z</time>
      </trkpt>
      <trkpt lat="39.749633" lon="-6.652641">
        <ele>261.0</ele>
        <time>1970-01-01T00:00:00Z</time>
      </trkpt>
      <trkpt lat="39.749656" lon="-6.652521">
        <ele>258.3</ele>
        <time>1970-01-01T00:00:00Z</time>
      </trkpt>
      <trkpt lat="39.749638" lon="-6.652240">
        <ele>254.2</ele>
        <time>1970-01-01T00:00:00Z</time>
      </trkpt>
      <trkpt lat="39.749637" lon="-6.651924">
        <ele>251.5</ele>
        <time>1970-01-01T00:00:00Z</time>
      </trkpt>
      <trkpt lat="39.749652" lon="-6.651818">
        <ele>250.8</ele>
        <time>1970-01-01T00:00:00Z</time>
      </trkpt>
      <trkpt lat="39.749693" lon="-6.651724">
        <ele>250.2</ele>
        <time>1970-01-01T00:00:00Z</time>
      </trkpt>
      <trkpt lat="39.749842" lon="-6.651522">
        <ele>248.6</ele>
        <time>1970-01-01T00:00:00Z</time>
      </trkpt>
      <trkpt lat="39.749891" lon="-6.651431">
        <ele>247.8</ele>
        <time>1970-01-01T00:00:00Z</time>
      </trkpt>
      <trkpt lat="39.749915" lon="-6.651311">
        <ele>246.8</ele>
        <time>1970-01-01T00:00:00Z</time>
      </trkpt>
      <trkpt lat="39.749897" lon="-6.651216">
        <ele>246.7</ele>
        <time>1970-01-01T00:00:00Z</time>
      </trkpt>
      <trkpt lat="39.749823" lon="-6.651081">
        <ele>246.5</ele>
        <time>1970-01-01T00:00:00Z</time>
      </trkpt>
      <trkpt lat="39.749641" lon="-6.650832">
        <ele>246.5</ele>
        <time>1970-01-01T00:00:00Z</time>
      </trkpt>
      <trkpt lat="39.749383" lon="-6.650673">
        <ele>246.6</ele>
        <time>1970-01-01T00:00:00Z</time>
      </trkpt>
      <trkpt lat="39.749307" lon="-6.650590">
        <ele>245.8</ele>
        <time>1970-01-01T00:00:00Z</time>
      </trkpt>
      <trkpt lat="39.749268" lon="-6.650491">
        <ele>245.4</ele>
        <time>1970-01-01T00:00:00Z</time>
      </trkpt>
      <trkpt lat="39.749240" lon="-6.650107">
        <ele>243.5</ele>
        <time>1970-01-01T00:00:00Z</time>
      </trkpt>
      <trkpt lat="39.749242" lon="-6.649752">
        <ele>242.1</ele>
        <time>1970-01-01T00:00:00Z</time>
      </trkpt>
      <trkpt lat="39.749207" lon="-6.649720">
        <ele>241.8</ele>
        <time>1970-01-01T00:00:00Z</time>
      </trkpt>
      <trkpt lat="39.749154" lon="-6.649749">
        <ele>241.7</ele>
        <time>1970-01-01T00:00:00Z</time>
      </trkpt>
      <trkpt lat="39.749127" lon="-6.649891">
        <ele>242.1</ele>
        <time>1970-01-01T00:00:00Z</time>
      </trkpt>
      <trkpt lat="39.749074" lon="-6.650014">
        <ele>242.1</ele>
        <time>1970-01-01T00:00:00Z</time>
      </trkpt>
      <trkpt lat="39.748899" lon="-6.650282">
        <ele>241.4</ele>
        <time>1970-01-01T00:00:00Z</time>
      </trkpt>
      <trkpt lat="39.748785" lon="-6.650407">
        <ele>239.4</ele>
        <time>1970-01-01T00:00:00Z</time>
      </trkpt>
      <trkpt lat="39.748715" lon="-6.650457">
        <ele>238.1</ele>
        <time>1970-01-01T00:00:00Z</time>
      </trkpt>
      <trkpt lat="39.748253" lon="-6.650517">
        <ele>235.8</ele>
        <time>1970-01-01T00:00:00Z</time>
      </trkpt>
      <trkpt lat="39.748091" lon="-6.650474">
        <ele>235.3</ele>
        <time>1970-01-01T00:00:00Z</time>
      </trkpt>
      <trkpt lat="39.747903" lon="-6.650511">
        <ele>235.5</ele>
        <time>1970-01-01T00:00:00Z</time>
      </trkpt>
      <trkpt lat="39.747827" lon="-6.650494">
        <ele>235.8</ele>
        <time>1970-01-01T00:00:00Z</time>
      </trkpt>
      <trkpt lat="39.747756" lon="-6.650456">
        <ele>236.1</ele>
        <time>1970-01-01T00:00:00Z</time>
      </trkpt>
      <trkpt lat="39.747712" lon="-6.650338">
        <ele>236.1</ele>
        <time>1970-01-01T00:00:00Z</time>
      </trkpt>
      <trkpt lat="39.747760" lon="-6.650078">
        <ele>236.0</ele>
        <time>1970-01-01T00:00:00Z</time>
      </trkpt>
      <trkpt lat="39.747803" lon="-6.649972">
        <ele>236.0</ele>
        <time>1970-01-01T00:00:00Z</time>
      </trkpt>
      <trkpt lat="39.747877" lon="-6.649887">
        <ele>236.2</ele>
        <time>1970-01-01T00:00:00Z</time>
      </trkpt>
      <trkpt lat="39.748022" lon="-6.649811">
        <ele>236.9</ele>
        <time>1970-01-01T00:00:00Z</time>
      </trkpt>
      <trkpt lat="39.748096" lon="-6.649696">
        <ele>237.8</ele>
        <time>1970-01-01T00:00:00Z</time>
      </trkpt>
      <trkpt lat="39.748098" lon="-6.649503">
        <ele>239.2</ele>
        <time>1970-01-01T00:00:00Z</time>
      </trkpt>
      <trkpt lat="39.748073" lon="-6.649408">
        <ele>239.6</ele>
        <time>1970-01-01T00:00:00Z</time>
      </trkpt>
      <trkpt lat="39.748045" lon="-6.649187">
        <ele>241.1</ele>
        <time>1970-01-01T00:00:00Z</time>
      </trkpt>
      <trkpt lat="39.747985" lon="-6.649048">
        <ele>242.7</ele>
        <time>1970-01-01T00:00:00Z</time>
      </trkpt>
      <trkpt lat="39.747870" lon="-6.648928">
        <ele>245.2</ele>
        <time>1970-01-01T00:00:00Z</time>
      </trkpt>
      <trkpt lat="39.747754" lon="-6.648749">
        <ele>248.6</ele>
        <time>1970-01-01T00:00:00Z</time>
      </trkpt>
      <trkpt lat="39.747641" lon="-6.648654">
        <ele>250.9</ele>
        <time>1970-01-01T00:00:00Z</time>
      </trkpt>
      <trkpt lat="39.747562" lon="-6.648559">
        <ele>252.8</ele>
        <time>1970-01-01T00:00:00Z</time>
      </trkpt>
      <trkpt lat="39.747511" lon="-6.648423">
        <ele>254.8</ele>
        <time>1970-01-01T00:00:00Z</time>
      </trkpt>
      <trkpt lat="39.747439" lon="-6.648286">
        <ele>256.7</ele>
        <time>1970-01-01T00:00:00Z</time>
      </trkpt>
      <trkpt lat="39.747362" lon="-6.648183">
        <ele>258.5</ele>
        <time>1970-01-01T00:00:00Z</time>
      </trkpt>
      <trkpt lat="39.747279" lon="-6.647919">
        <ele>261.4</ele>
        <time>1970-01-01T00:00:00Z</time>
      </trkpt>
      <trkpt lat="39.747239" lon="-6.647729">
        <ele>263.7</ele>
        <time>1970-01-01T00:00:00Z</time>
      </trkpt>
      <trkpt lat="39.747187" lon="-6.647554">
        <ele>265.7</ele>
        <time>1970-01-01T00:00:00Z</time>
      </trkpt>
      <trkpt lat="39.746955" lon="-6.647070">
        <ele>270.2</ele>
        <time>1970-01-01T00:00:00Z</time>
      </trkpt>
      <trkpt lat="39.746798" lon="-6.646674">
        <ele>272.3</ele>
        <time>1970-01-01T00:00:00Z</time>
      </trkpt>
      <trkpt lat="39.746742" lon="-6.646565">
        <ele>272.9</ele>
        <time>1970-01-01T00:00:00Z</time>
      </trkpt>
      <trkpt lat="39.746735" lon="-6.646236">
        <ele>275.7</ele>
        <time>1970-01-01T00:00:00Z</time>
      </trkpt>
      <trkpt lat="39.746757" lon="-6.646163">
        <ele>276.3</ele>
        <time>1970-01-01T00:00:00Z</time>
      </trkpt>
      <trkpt lat="39.746768" lon="-6.646032">
        <ele>277.5</ele>
        <time>1970-01-01T00:00:00Z</time>
      </trkpt>
      <trkpt lat="39.746669" lon="-6.645620">
        <ele>281.7</ele>
        <time>1970-01-01T00:00:00Z</time>
      </trkpt>
      <trkpt lat="39.746611" lon="-6.645444">
        <ele>284.4</ele>
        <time>1970-01-01T00:00:00Z</time>
      </trkpt>
      <trkpt lat="39.746568" lon="-6.645071">
        <ele>288.8</ele>
        <time>1970-01-01T00:00:00Z</time>
      </trkpt>
      <trkpt lat="39.746537" lon="-6.644941">
        <ele>290.2</ele>
        <time>1970-01-01T00:00:00Z</time>
      </trkpt>
      <trkpt lat="39.746519" lon="-6.644737">
        <ele>292.9</ele>
        <time>1970-01-01T00:00:00Z</time>
      </trkpt>
      <trkpt lat="39.746501" lon="-6.644235">
        <ele>298.0</ele>
        <time>1970-01-01T00:00:00Z</time>
      </trkpt>
      <trkpt lat="39.746422" lon="-6.643809">
        <ele>300.1</ele>
        <time>1970-01-01T00:00:00Z</time>
      </trkpt>
      <trkpt lat="39.746437" lon="-6.643654">
        <ele>301.0</ele>
        <time>1970-01-01T00:00:00Z</time>
      </trkpt>
      <trkpt lat="39.746469" lon="-6.643535">
        <ele>301.9</ele>
        <time>1970-01-01T00:00:00Z</time>
      </trkpt>
      <trkpt lat="39.746502" lon="-6.643462">
        <ele>302.8</ele>
        <time>1970-01-01T00:00:00Z</time>
      </trkpt>
      <trkpt lat="39.746568" lon="-6.643409">
        <ele>304.1</ele>
        <time>1970-01-01T00:00:00Z</time>
      </trkpt>
      <trkpt lat="39.746839" lon="-6.643307">
        <ele>307.8</ele>
        <time>1970-01-01T00:00:00Z</time>
      </trkpt>
      <trkpt lat="39.746955" lon="-6.643229">
        <ele>308.9</ele>
        <time>1970-01-01T00:00:00Z</time>
      </trkpt>
      <trkpt lat="39.747012" lon="-6.643119">
        <ele>310.6</ele>
        <time>1970-01-01T00:00:00Z</time>
      </trkpt>
      <trkpt lat="39.747035" lon="-6.642947">
        <ele>313.1</ele>
        <time>1970-01-01T00:00:00Z</time>
      </trkpt>
      <trkpt lat="39.747043" lon="-6.642701">
        <ele>315.2</ele>
        <time>1970-01-01T00:00:00Z</time>
      </trkpt>
      <trkpt lat="39.747008" lon="-6.642518">
        <ele>315.7</ele>
        <time>1970-01-01T00:00:00Z</time>
      </trkpt>
      <trkpt lat="39.746998" lon="-6.642241">
        <ele>316.5</ele>
        <time>1970-01-01T00:00:00Z</time>
      </trkpt>
      <trkpt lat="39.747013" lon="-6.642116">
        <ele>317.0</ele>
        <time>1970-01-01T00:00:00Z</time>
      </trkpt>
      <trkpt lat="39.747157" lon="-6.641726">
        <ele>319.4</ele>
        <time>1970-01-01T00:00:00Z</time>
      </trkpt>
      <trkpt lat="39.747212" lon="-6.641541">
        <ele>319.7</ele>
        <time>1970-01-01T00:00:00Z</time>
      </trkpt>
      <trkpt lat="39.747222" lon="-6.641164">
        <ele>318.4</ele>
        <time>1970-01-01T00:00:00Z</time>
      </trkpt>
      <trkpt lat="39.746947" lon="-6.640954">
        <ele>315.9</ele>
        <time>1970-01-01T00:00:00Z</time>
      </trkpt>
      <trkpt lat="39.746906" lon="-6.640848">
        <ele>314.8</ele>
        <time>1970-01-01T00:00:00Z</time>
      </trkpt>
      <trkpt lat="39.746873" lon="-6.640573">
        <ele>313.3</ele>
        <time>1970-01-01T00:00:00Z</time>
      </trkpt>
      <trkpt lat="39.746817" lon="-6.640293">
        <ele>310.4</ele>
        <time>1970-01-01T00:00:00Z</time>
      </trkpt>
      <trkpt lat="39.746907" lon="-6.640046">
        <ele>308.2</ele>
        <time>1970-01-01T00:00:00Z</time>
      </trkpt>
      <trkpt lat="39.747031" lon="-6.639845">
        <ele>307.6</ele>
        <time>1970-01-01T00:00:00Z</time>
      </trkpt>
      <trkpt lat="39.747306" lon="-6.639543">
        <ele>307.3</ele>
        <time>1970-01-01T00:00:00Z</time>
      </trkpt>
      <trkpt lat="39.747611" lon="-6.639404">
        <ele>308.4</ele>
        <time>1970-01-01T00:00:00Z</time>
      </trkpt>
      <trkpt lat="39.747797" lon="-6.639270">
        <ele>309.0</ele>
        <time>1970-01-01T00:00:00Z</time>
      </trkpt>
      <trkpt lat="39.747833" lon="-6.639196">
        <ele>309.0</ele>
        <time>1970-01-01T00:00:00Z</time>
      </trkpt>
      <trkpt lat="39.747862" lon="-6.639071">
        <ele>309.0</ele>
        <time>1970-01-01T00:00:00Z</time>
      </trkpt>
      <trkpt lat="39.747883" lon="-6.638593">
        <ele>309.4</ele>
        <time>1970-01-01T00:00:00Z</time>
      </trkpt>
      <trkpt lat="39.747835" lon="-6.638415">
        <ele>308.9</ele>
        <time>1970-01-01T00:00:00Z</time>
      </trkpt>
      <trkpt lat="39.747759" lon="-6.638266">
        <ele>308.2</ele>
        <time>1970-01-01T00:00:00Z</time>
      </trkpt>
      <trkpt lat="39.747565" lon="-6.637954">
        <ele>307.0</ele>
        <time>1970-01-01T00:00:00Z</time>
      </trkpt>
      <trkpt lat="39.747474" lon="-6.637715">
        <ele>306.3</ele>
        <time>1970-01-01T00:00:00Z</time>
      </trkpt>
      <trkpt lat="39.747437" lon="-6.637555">
        <ele>306.4</ele>
        <time>1970-01-01T00:00:00Z</time>
      </trkpt>
      <trkpt lat="39.747420" lon="-6.637420">
        <ele>307.1</ele>
        <time>1970-01-01T00:00:00Z</time>
      </trkpt>
      <trkpt lat="39.747429" lon="-6.637115">
        <ele>309.1</ele>
        <time>1970-01-01T00:00:00Z</time>
      </trkpt>
      <trkpt lat="39.747409" lon="-6.636978">
        <ele>309.8</ele>
        <time>1970-01-01T00:00:00Z</time>
      </trkpt>
      <trkpt lat="39.747365" lon="-6.636867">
        <ele>310.5</ele>
        <time>1970-01-01T00:00:00Z</time>
      </trkpt>
      <trkpt lat="39.747241" lon="-6.636680">
        <ele>313.2</ele>
        <time>1970-01-01T00:00:00Z</time>
      </trkpt>
      <trkpt lat="39.747161" lon="-6.636501">
        <ele>315.4</ele>
        <time>1970-01-01T00:00:00Z</time>
      </trkpt>
      <trkpt lat="39.747053" lon="-6.636344">
        <ele>317.5</ele>
        <time>1970-01-01T00:00:00Z</time>
      </trkpt>
      <trkpt lat="39.746778" lon="-6.636132">
        <ele>322.3</ele>
        <time>1970-01-01T00:00:00Z</time>
      </trkpt>
      <trkpt lat="39.746647" lon="-6.636051">
        <ele>323.6</ele>
        <time>1970-01-01T00:00:00Z</time>
      </trkpt>
      <trkpt lat="39.746489" lon="-6.635917">
        <ele>324.8</ele>
        <time>1970-01-01T00:00:00Z</time>
      </trkpt>
      <trkpt lat="39.746358" lon="-6.635770">
        <ele>325.9</ele>
        <time>1970-01-01T00:00:00Z</time>
      </trkpt>
      <trkpt lat="39.746138" lon="-6.635439">
        <ele>327.8</ele>
        <time>1970-01-01T00:00:00Z</time>
      </trkpt>
      <trkpt lat="39.745952" lon="-6.635294">
        <ele>328.2</ele>
        <time>1970-01-01T00:00:00Z</time>
      </trkpt>
      <trkpt lat="39.745871" lon="-6.635208">
        <ele>328.4</ele>
        <time>1970-01-01T00:00:00Z</time>
      </trkpt>
      <trkpt lat="39.745718" lon="-6.635143">
        <ele>327.6</ele>
        <time>1970-01-01T00:00:00Z</time>
      </trkpt>
      <trkpt lat="39.745644" lon="-6.635132">
        <ele>327.1</ele>
        <time>1970-01-01T00:00:00Z</time>
      </trkpt>
      <trkpt lat="39.744895" lon="-6.635236">
        <ele>320.6</ele>
        <time>1970-01-01T00:00:00Z</time>
      </trkpt>
      <trkpt lat="39.744751" lon="-6.635161">
        <ele>320.2</ele>
        <time>1970-01-01T00:00:00Z</time>
      </trkpt>
      <trkpt lat="39.744540" lon="-6.635014">
        <ele>320.1</ele>
        <time>1970-01-01T00:00:00Z</time>
      </trkpt>
      <trkpt lat="39.744498" lon="-6.634946">
        <ele>320.7</ele>
        <time>1970-01-01T00:00:00Z</time>
      </trkpt>
      <trkpt lat="39.744381" lon="-6.634613">
        <ele>322.9</ele>
        <time>1970-01-01T00:00:00Z</time>
      </trkpt>
      <trkpt lat="39.744348" lon="-6.634402">
        <ele>324.3</ele>
        <time>1970-01-01T00:00:00Z</time>
      </trkpt>
      <trkpt lat="39.744200" lon="-6.633690">
        <ele>328.3</ele>
        <time>1970-01-01T00:00:00Z</time>
      </trkpt>
      <trkpt lat="39.743811" lon="-6.633388">
        <ele>330.0</ele>
        <time>1970-01-01T00:00:00Z</time>
      </trkpt>
      <trkpt lat="39.743742" lon="-6.633296">
        <ele>330.6</ele>
        <time>1970-01-01T00:00:00Z</time>
      </trkpt>
      <trkpt lat="39.743631" lon="-6.633070">
        <ele>332.0</ele>
        <time>1970-01-01T00:00:00Z</time>
      </trkpt>
      <trkpt lat="39.743523" lon="-6.632931">
        <ele>332.2</ele>
        <time>1970-01-01T00:00:00Z</time>
      </trkpt>
      <trkpt lat="39.743326" lon="-6.632762">
        <ele>332.1</ele>
        <time>1970-01-01T00:00:00Z</time>
      </trkpt>
      <trkpt lat="39.743252" lon="-6.632680">
        <ele>331.4</ele>
        <time>1970-01-01T00:00:00Z</time>
      </trkpt>
      <trkpt lat="39.742992" lon="-6.632466">
        <ele>331.1</ele>
        <time>1970-01-01T00:00:00Z</time>
      </trkpt>
      <trkpt lat="39.742939" lon="-6.632391">
        <ele>331.2</ele>
        <time>1970-01-01T00:00:00Z</time>
      </trkpt>
      <trkpt lat="39.742894" lon="-6.632243">
        <ele>331.6</ele>
        <time>1970-01-01T00:00:00Z</time>
      </trkpt>
      <trkpt lat="39.742732" lon="-6.631813">
        <ele>331.2</ele>
        <time>1970-01-01T00:00:00Z</time>
      </trkpt>
      <trkpt lat="39.742636" lon="-6.631667">
        <ele>331.2</ele>
        <time>1970-01-01T00:00:00Z</time>
      </trkpt>
      <trkpt lat="39.742542" lon="-6.631558">
        <ele>331.2</ele>
        <time>1970-01-01T00:00:00Z</time>
      </trkpt>
      <trkpt lat="39.742416" lon="-6.631492">
        <ele>331.0</ele>
        <time>1970-01-01T00:00:00Z</time>
      </trkpt>
      <trkpt lat="39.742157" lon="-6.631503">
        <ele>330.7</ele>
        <time>1970-01-01T00:00:00Z</time>
      </trkpt>
      <trkpt lat="39.741988" lon="-6.631455">
        <ele>330.4</ele>
        <time>1970-01-01T00:00:00Z</time>
      </trkpt>
      <trkpt lat="39.741878" lon="-6.631452">
        <ele>330.7</ele>
        <time>1970-01-01T00:00:00Z</time>
      </trkpt>
      <trkpt lat="39.741354" lon="-6.631624">
        <ele>334.2</ele>
        <time>1970-01-01T00:00:00Z</time>
      </trkpt>
      <trkpt lat="39.740847" lon="-6.631718">
        <ele>336.1</ele>
        <time>1970-01-01T00:00:00Z</time>
      </trkpt>
      <trkpt lat="39.740793" lon="-6.631739">
        <ele>336.2</ele>
        <time>1970-01-01T00:00:00Z</time>
      </trkpt>
      <trkpt lat="39.740735" lon="-6.631800">
        <ele>336.3</ele>
        <time>1970-01-01T00:00:00Z</time>
      </trkpt>
      <trkpt lat="39.740681" lon="-6.631884">
        <ele>336.5</ele>
        <time>1970-01-01T00:00:00Z</time>
      </trkpt>
      <trkpt lat="39.740590" lon="-6.632126">
        <ele>336.6</ele>
        <time>1970-01-01T00:00:00Z</time>
      </trkpt>
      <trkpt lat="39.740517" lon="-6.632263">
        <ele>336.8</ele>
        <time>1970-01-01T00:00:00Z</time>
      </trkpt>
      <trkpt lat="39.740390" lon="-6.632412">
        <ele>337.9</ele>
        <time>1970-01-01T00:00:00Z</time>
      </trkpt>
      <trkpt lat="39.740104" lon="-6.632537">
        <ele>341.0</ele>
        <time>1970-01-01T00:00:00Z</time>
      </trkpt>
      <trkpt lat="39.739821" lon="-6.632688">
        <ele>343.2</ele>
        <time>1970-01-01T00:00:00Z</time>
      </trkpt>
      <trkpt lat="39.739748" lon="-6.632704">
        <ele>343.5</ele>
        <time>1970-01-01T00:00:00Z</time>
      </trkpt>
      <trkpt lat="39.739637" lon="-6.632678">
        <ele>343.9</ele>
        <time>1970-01-01T00:00:00Z</time>
      </trkpt>
      <trkpt lat="39.739534" lon="-6.632606">
        <ele>344.4</ele>
        <time>1970-01-01T00:00:00Z</time>
      </trkpt>
      <trkpt lat="39.739337" lon="-6.632391">
        <ele>346.1</ele>
        <time>1970-01-01T00:00:00Z</time>
      </trkpt>
      <trkpt lat="39.739239" lon="-6.632341">
        <ele>346.3</ele>
        <time>1970-01-01T00:00:00Z</time>
      </trkpt>
      <trkpt lat="39.738850" lon="-6.632229">
        <ele>345.5</ele>
        <time>1970-01-01T00:00:00Z</time>
      </trkpt>
      <trkpt lat="39.738733" lon="-6.632177">
        <ele>344.9</ele>
        <time>1970-01-01T00:00:00Z</time>
      </trkpt>
      <trkpt lat="39.738388" lon="-6.631949">
        <ele>345.5</ele>
        <time>1970-01-01T00:00:00Z</time>
      </trkpt>
      <trkpt lat="39.738263" lon="-6.631900">
        <ele>345.5</ele>
        <time>1970-01-01T00:00:00Z</time>
      </trkpt>
      <trkpt lat="39.738029" lon="-6.631893">
        <ele>343.1</ele>
        <time>1970-01-01T00:00:00Z</time>
      </trkpt>
      <trkpt lat="39.737698" lon="-6.631942">
        <ele>338.3</ele>
        <time>1970-01-01T00:00:00Z</time>
      </trkpt>
      <trkpt lat="39.737557" lon="-6.631996">
        <ele>336.8</ele>
        <time>1970-01-01T00:00:00Z</time>
      </trkpt>
      <trkpt lat="39.737439" lon="-6.632067">
        <ele>336.2</ele>
        <time>1970-01-01T00:00:00Z</time>
      </trkpt>
      <trkpt lat="39.737333" lon="-6.632157">
        <ele>335.3</ele>
        <time>1970-01-01T00:00:00Z</time>
      </trkpt>
      <trkpt lat="39.736940" lon="-6.632645">
        <ele>333.9</ele>
        <time>1970-01-01T00:00:00Z</time>
      </trkpt>
      <trkpt lat="39.736856" lon="-6.632712">
        <ele>333.9</ele>
        <time>1970-01-01T00:00:00Z</time>
      </trkpt>
      <trkpt lat="39.736787" lon="-6.632734">
        <ele>334.2</ele>
        <time>1970-01-01T00:00:00Z</time>
      </trkpt>
      <trkpt lat="39.736372" lon="-6.632707">
        <ele>338.2</ele>
        <time>1970-01-01T00:00:00Z</time>
      </trkpt>
      <trkpt lat="39.735867" lon="-6.632698">
        <ele>342.6</ele>
        <time>1970-01-01T00:00:00Z</time>
      </trkpt>
      <trkpt lat="39.735422" lon="-6.632716">
        <ele>344.0</ele>
        <time>1970-01-01T00:00:00Z</time>
      </trkpt>
      <trkpt lat="39.735310" lon="-6.632708">
        <ele>344.7</ele>
        <time>1970-01-01T00:00:00Z</time>
      </trkpt>
      <trkpt lat="39.735163" lon="-6.632656">
        <ele>345.5</ele>
        <time>1970-01-01T00:00:00Z</time>
      </trkpt>
      <trkpt lat="39.734958" lon="-6.632431">
        <ele>346.4</ele>
        <time>1970-01-01T00:00:00Z</time>
      </trkpt>
      <trkpt lat="39.734748" lon="-6.632156">
        <ele>348.0</ele>
        <time>1970-01-01T00:00:00Z</time>
      </trkpt>
      <trkpt lat="39.734685" lon="-6.632040">
        <ele>348.0</ele>
        <time>1970-01-01T00:00:00Z</time>
      </trkpt>
      <trkpt lat="39.734610" lon="-6.631941">
        <ele>347.9</ele>
        <time>1970-01-01T00:00:00Z</time>
      </trkpt>
      <trkpt lat="39.734459" lon="-6.631816">
        <ele>347.0</ele>
        <time>1970-01-01T00:00:00Z</time>
      </trkpt>
      <trkpt lat="39.734365" lon="-6.631799">
        <ele>346.6</ele>
        <time>1970-01-01T00:00:00Z</time>
      </trkpt>
      <trkpt lat="39.734271" lon="-6.631801">
        <ele>346.8</ele>
        <time>1970-01-01T00:00:00Z</time>
      </trkpt>
      <trkpt lat="39.734106" lon="-6.631836">
        <ele>346.9</ele>
        <time>1970-01-01T00:00:00Z</time>
      </trkpt>
      <trkpt lat="39.733792" lon="-6.631783">
        <ele>345.9</ele>
        <time>1970-01-01T00:00:00Z</time>
      </trkpt>
      <trkpt lat="39.733676" lon="-6.631723">
        <ele>346.0</ele>
        <time>1970-01-01T00:00:00Z</time>
      </trkpt>
      <trkpt lat="39.733435" lon="-6.631543">
        <ele>345.8</ele>
        <time>1970-01-01T00:00:00Z</time>
      </trkpt>
      <trkpt lat="39.733267" lon="-6.631447">
        <ele>346.0</ele>
        <time>1970-01-01T00:00:00Z</time>
      </trkpt>
      <trkpt lat="39.733004" lon="-6.631473">
        <ele>346.9</ele>
        <time>1970-01-01T00:00:00Z</time>
      </trkpt>
      <trkpt lat="39.732695" lon="-6.631543">
        <ele>347.0</ele>
        <time>1970-01-01T00:00:00Z</time>
      </trkpt>
      <trkpt lat="39.732124" lon="-6.631543">
        <ele>347.0</ele>
        <time>1970-01-01T00:00:00Z</time>
      </trkpt>
      <trkpt lat="39.731843" lon="-6.631503">
        <ele>346.1</ele>
        <time>1970-01-01T00:00:00Z</time>
      </trkpt>
      <trkpt lat="39.731733" lon="-6.631473">
        <ele>346.0</ele>
        <time>1970-01-01T00:00:00Z</time>
      </trkpt>
      <trkpt lat="39.731617" lon="-6.631415">
        <ele>346.0</ele>
        <time>1970-01-01T00:00:00Z</time>
      </trkpt>
      <trkpt lat="39.731281" lon="-6.631123">
        <ele>347.3</ele>
        <time>1970-01-01T00:00:00Z</time>
      </trkpt>
      <trkpt lat="39.731204" lon="-6.631072">
        <ele>347.6</ele>
        <time>1970-01-01T00:00:00Z</time>
      </trkpt>
      <trkpt lat="39.731020" lon="-6.630993">
        <ele>348.9</ele>
        <time>1970-01-01T00:00:00Z</time>
      </trkpt>
      <trkpt lat="39.730857" lon="-6.630955">
        <ele>350.3</ele>
        <time>1970-01-01T00:00:00Z</time>
      </trkpt>
      <trkpt lat="39.730621" lon="-6.630928">
        <ele>352.0</ele>
        <time>1970-01-01T00:00:00Z</time>
      </trkpt>
      <trkpt lat="39.730271" lon="-6.630915">
        <ele>352.7</ele>
        <time>1970-01-01T00:00:00Z</time>
      </trkpt>
      <trkpt lat="39.730173" lon="-6.630872">
        <ele>353.0</ele>
        <time>1970-01-01T00:00:00Z</time>
      </trkpt>
      <trkpt lat="39.729909" lon="-6.630673">
        <ele>352.8</ele>
        <time>1970-01-01T00:00:00Z</time>
      </trkpt>
      <trkpt lat="39.729788" lon="-6.630620">
        <ele>352.2</ele>
        <time>1970-01-01T00:00:00Z</time>
      </trkpt>
      <trkpt lat="39.729733" lon="-6.630620">
        <ele>352.0</ele>
        <time>1970-01-01T00:00:00Z</time>
      </trkpt>
      <trkpt lat="39.729562" lon="-6.630667">
        <ele>351.7</ele>
        <time>1970-01-01T00:00:00Z</time>
      </trkpt>
      <trkpt lat="39.729595" lon="-6.630452">
        <ele>352.2</ele>
        <time>1970-01-01T00:00:00Z</time>
      </trkpt>
      <trkpt lat="39.729553" lon="-6.630277">
        <ele>352.4</ele>
        <time>1970-01-01T00:00:00Z</time>
      </trkpt>
      <trkpt lat="39.729466" lon="-6.630144">
        <ele>352.6</ele>
        <time>1970-01-01T00:00:00Z</time>
      </trkpt>
      <trkpt lat="39.729345" lon="-6.629994">
        <ele>351.6</ele>
        <time>1970-01-01T00:00:00Z</time>
      </trkpt>
      <trkpt lat="39.729251" lon="-6.629809">
        <ele>350.8</ele>
        <time>1970-01-01T00:00:00Z</time>
      </trkpt>
      <trkpt lat="39.729172" lon="-6.629607">
        <ele>350.1</ele>
        <time>1970-01-01T00:00:00Z</time>
      </trkpt>
      <trkpt lat="39.729123" lon="-6.629415">
        <ele>349.7</ele>
        <time>1970-01-01T00:00:00Z</time>
      </trkpt>
      <trkpt lat="39.729079" lon="-6.629220">
        <ele>349.3</ele>
        <time>1970-01-01T00:00:00Z</time>
      </trkpt>
      <trkpt lat="39.729058" lon="-6.628844">
        <ele>350.6</ele>
        <time>1970-01-01T00:00:00Z</time>
      </trkpt>
      <trkpt lat="39.729071" lon="-6.628642">
        <ele>351.1</ele>
        <time>1970-01-01T00:00:00Z</time>
      </trkpt>
      <trkpt lat="39.729116" lon="-6.628456">
        <ele>351.3</ele>
        <time>1970-01-01T00:00:00Z</time>
      </trkpt>
      <trkpt lat="39.729188" lon="-6.628060">
        <ele>351.1</ele>
        <time>1970-01-01T00:00:00Z</time>
      </trkpt>
      <trkpt lat="39.729191" lon="-6.627952">
        <ele>350.9</ele>
        <time>1970-01-01T00:00:00Z</time>
      </trkpt>
      <trkpt lat="39.729162" lon="-6.627718">
        <ele>350.2</ele>
        <time>1970-01-01T00:00:00Z</time>
      </trkpt>
      <trkpt lat="39.729147" lon="-6.627468">
        <ele>349.3</ele>
        <time>1970-01-01T00:00:00Z</time>
      </trkpt>
      <trkpt lat="39.729160" lon="-6.627237">
        <ele>348.6</ele>
        <time>1970-01-01T00:00:00Z</time>
      </trkpt>
      <trkpt lat="39.729216" lon="-6.627027">
        <ele>347.6</ele>
        <time>1970-01-01T00:00:00Z</time>
      </trkpt>
      <trkpt lat="39.729287" lon="-6.626848">
        <ele>347.0</ele>
        <time>1970-01-01T00:00:00Z</time>
      </trkpt>
      <trkpt lat="39.729367" lon="-6.626714">
        <ele>347.0</ele>
        <time>1970-01-01T00:00:00Z</time>
      </trkpt>
      <trkpt lat="39.729415" lon="-6.626578">
        <ele>347.0</ele>
        <time>1970-01-01T00:00:00Z</time>
      </trkpt>
      <trkpt lat="39.729463" lon="-6.626336">
        <ele>347.0</ele>
        <time>1970-01-01T00:00:00Z</time>
      </trkpt>
      <trkpt lat="39.729565" lon="-6.625315">
        <ele>347.0</ele>
        <time>1970-01-01T00:00:00Z</time>
      </trkpt>
      <trkpt lat="39.729562" lon="-6.625008">
        <ele>347.0</ele>
        <time>1970-01-01T00:00:00Z</time>
      </trkpt>
      <trkpt lat="39.729579" lon="-6.624624">
        <ele>347.8</ele>
        <time>1970-01-01T00:00:00Z</time>
      </trkpt>
      <trkpt lat="39.729646" lon="-6.624220">
        <ele>348.4</ele>
        <time>1970-01-01T00:00:00Z</time>
      </trkpt>
      <trkpt lat="39.729725" lon="-6.623869">
        <ele>349.9</ele>
        <time>1970-01-01T00:00:00Z</time>
      </trkpt>
      <trkpt lat="39.730034" lon="-6.622759">
        <ele>353.6</ele>
        <time>1970-01-01T00:00:00Z</time>
      </trkpt>
      <trkpt lat="39.730124" lon="-6.622561">
        <ele>354.4</ele>
        <time>1970-01-01T00:00:00Z</time>
      </trkpt>
      <trkpt lat="39.730280" lon="-6.622273">
        <ele>354.9</ele>
        <time>1970-01-01T00:00:00Z</time>
      </trkpt>
      <trkpt lat="39.730403" lon="-6.622070">
        <ele>355.0</ele>
        <time>1970-01-01T00:00:00Z</time>
      </trkpt>
      <trkpt lat="39.730555" lon="-6.621883">
        <ele>355.0</ele>
        <time>1970-01-01T00:00:00Z</time>
      </trkpt>
      <trkpt lat="39.730705" lon="-6.621720">
        <ele>355.1</ele>
        <time>1970-01-01T00:00:00Z</time>
      </trkpt>
      <trkpt lat="39.730874" lon="-6.621571">
        <ele>355.1</ele>
        <time>1970-01-01T00:00:00Z</time>
      </trkpt>
      <trkpt lat="39.731036" lon="-6.621441">
        <ele>354.5</ele>
        <time>1970-01-01T00:00:00Z</time>
      </trkpt>
      <trkpt lat="39.731398" lon="-6.621206">
        <ele>353.4</ele>
        <time>1970-01-01T00:00:00Z</time>
      </trkpt>
      <trkpt lat="39.731553" lon="-6.621009">
        <ele>353.0</ele>
        <time>1970-01-01T00:00:00Z</time>
      </trkpt>
      <trkpt lat="39.731634" lon="-6.620798">
        <ele>353.0</ele>
        <time>1970-01-01T00:00:00Z</time>
      </trkpt>
      <trkpt lat="39.731663" lon="-6.620476">
        <ele>353.0</ele>
        <time>1970-01-01T00:00:00Z</time>
      </trkpt>
      <trkpt lat="39.731562" lon="-6.619923">
        <ele>352.9</ele>
        <time>1970-01-01T00:00:00Z</time>
      </trkpt>
      <trkpt lat="39.731597" lon="-6.619779">
        <ele>353.1</ele>
        <time>1970-01-01T00:00:00Z</time>
      </trkpt>
      <trkpt lat="39.731853" lon="-6.619165">
        <ele>353.2</ele>
        <time>1970-01-01T00:00:00Z</time>
      </trkpt>
      <trkpt lat="39.732381" lon="-6.618601">
        <ele>354.0</ele>
        <time>1970-01-01T00:00:00Z</time>
      </trkpt>
      <trkpt lat="39.732513" lon="-6.618486">
        <ele>354.0</ele>
        <time>1970-01-01T00:00:00Z</time>
      </trkpt>
      <trkpt lat="39.732590" lon="-6.618436">
        <ele>354.1</ele>
        <time>1970-01-01T00:00:00Z</time>
      </trkpt>
      <trkpt lat="39.732792" lon="-6.618222">
        <ele>355.1</ele>
        <time>1970-01-01T00:00:00Z</time>
      </trkpt>
      <trkpt lat="39.733137" lon="-6.617776">
        <ele>357.0</ele>
        <time>1970-01-01T00:00:00Z</time>
      </trkpt>
      <trkpt lat="39.733356" lon="-6.617543">
        <ele>358.2</ele>
        <time>1970-01-01T00:00:00Z</time>
      </trkpt>
      <trkpt lat="39.733865" lon="-6.617172">
        <ele>362.7</ele>
        <time>1970-01-01T00:00:00Z</time>
      </trkpt>
      <trkpt lat="39.734191" lon="-6.617046">
        <ele>364.8</ele>
        <time>1970-01-01T00:00:00Z</time>
      </trkpt>
      <trkpt lat="39.734390" lon="-6.617034">
        <ele>364.5</ele>
        <time>1970-01-01T00:00:00Z</time>
      </trkpt>
      <trkpt lat="39.734516" lon="-6.617078">
        <ele>364.3</ele>
        <time>1970-01-01T00:00:00Z</time>
      </trkpt>
      <trkpt lat="39.734774" lon="-6.617254">
        <ele>364.0</ele>
        <time>1970-01-01T00:00:00Z</time>
      </trkpt>
      <trkpt lat="39.734859" lon="-6.617338">
        <ele>363.6</ele>
        <time>1970-01-01T00:00:00Z</time>
      </trkpt>
      <trkpt lat="39.734970" lon="-6.617383">
        <ele>364.2</ele>
        <time>1970-01-01T00:00:00Z</time>
      </trkpt>
      <trkpt lat="39.735078" lon="-6.617356">
        <ele>365.5</ele>
        <time>1970-01-01T00:00:00Z</time>
      </trkpt>
      <trkpt lat="39.735736" lon="-6.616835">
        <ele>371.3</ele>
        <time>1970-01-01T00:00:00Z</time>
      </trkpt>
      <trkpt lat="39.735784" lon="-6.616776">
        <ele>371.5</ele>
        <time>1970-01-01T00:00:00Z</time>
      </trkpt>
      <trkpt lat="39.735829" lon="-6.616689">
        <ele>371.7</ele>
        <time>1970-01-01T00:00:00Z</time>
      </trkpt>
      <trkpt lat="39.735846" lon="-6.616579">
        <ele>371.8</ele>
        <time>1970-01-01T00:00:00Z</time>
      </trkpt>
      <trkpt lat="39.735840" lon="-6.616453">
        <ele>372.0</ele>
        <time>1970-01-01T00:00:00Z</time>
      </trkpt>
      <trkpt lat="39.735804" lon="-6.616254">
        <ele>372.9</ele>
        <time>1970-01-01T00:00:00Z</time>
      </trkpt>
      <trkpt lat="39.735788" lon="-6.615993">
        <ele>374.0</ele>
        <time>1970-01-01T00:00:00Z</time>
      </trkpt>
      <trkpt lat="39.735853" lon="-6.615742">
        <ele>373.4</ele>
        <time>1970-01-01T00:00:00Z</time>
      </trkpt>
      <trkpt lat="39.735886" lon="-6.615537">
        <ele>372.6</ele>
        <time>1970-01-01T00:00:00Z</time>
      </trkpt>
      <trkpt lat="39.735891" lon="-6.615357">
        <ele>371.9</ele>
        <time>1970-01-01T00:00:00Z</time>
      </trkpt>
      <trkpt lat="39.735810" lon="-6.615266">
        <ele>371.2</ele>
        <time>1970-01-01T00:00:00Z</time>
      </trkpt>
      <trkpt lat="39.735677" lon="-6.615267">
        <ele>370.9</ele>
        <time>1970-01-01T00:00:00Z</time>
      </trkpt>
      <trkpt lat="39.735545" lon="-6.615279">
        <ele>370.9</ele>
        <time>1970-01-01T00:00:00Z</time>
      </trkpt>
      <trkpt lat="39.735438" lon="-6.615328">
        <ele>370.7</ele>
        <time>1970-01-01T00:00:00Z</time>
      </trkpt>
      <trkpt lat="39.735371" lon="-6.615339">
        <ele>370.5</ele>
        <time>1970-01-01T00:00:00Z</time>
      </trkpt>
      <trkpt lat="39.735220" lon="-6.615421">
        <ele>370.7</ele>
        <time>1970-01-01T00:00:00Z</time>
      </trkpt>
      <trkpt lat="39.735062" lon="-6.615548">
        <ele>371.0</ele>
        <time>1970-01-01T00:00:00Z</time>
      </trkpt>
      <trkpt lat="39.734744" lon="-6.615894">
        <ele>370.3</ele>
        <time>1970-01-01T00:00:00Z</time>
      </trkpt>
      <trkpt lat="39.734684" lon="-6.615975">
        <ele>370.0</ele>
        <time>1970-01-01T00:00:00Z</time>
      </trkpt>
      <trkpt lat="39.734659" lon="-6.616127">
        <ele>369.4</ele>
        <time>1970-01-01T00:00:00Z</time>
      </trkpt>
      <trkpt lat="39.734616" lon="-6.616265">
        <ele>369.0</ele>
        <time>1970-01-01T00:00:00Z</time>
      </trkpt>
      <trkpt lat="39.734572" lon="-6.616335">
        <ele>369.0</ele>
        <time>1970-01-01T00:00:00Z</time>
      </trkpt>
      <trkpt lat="39.734475" lon="-6.616384">
        <ele>369.0</ele>
        <time>1970-01-01T00:00:00Z</time>
      </trkpt>
      <trkpt lat="39.734230" lon="-6.616349">
        <ele>368.4</ele>
        <time>1970-01-01T00:00:00Z</time>
      </trkpt>
      <trkpt lat="39.733846" lon="-6.616218">
        <ele>366.5</ele>
        <time>1970-01-01T00:00:00Z</time>
      </trkpt>
      <trkpt lat="39.733746" lon="-6.616161">
        <ele>365.7</ele>
        <time>1970-01-01T00:00:00Z</time>
      </trkpt>
      <trkpt lat="39.733682" lon="-6.616076">
        <ele>365.1</ele>
        <time>1970-01-01T00:00:00Z</time>
      </trkpt>
      <trkpt lat="39.733545" lon="-6.615950">
        <ele>363.8</ele>
        <time>1970-01-01T00:00:00Z</time>
      </trkpt>
      <trkpt lat="39.733382" lon="-6.615855">
        <ele>361.7</ele>
        <time>1970-01-01T00:00:00Z</time>
      </trkpt>
      <trkpt lat="39.733320" lon="-6.615766">
        <ele>360.5</ele>
        <time>1970-01-01T00:00:00Z</time>
      </trkpt>
      <trkpt lat="39.733089" lon="-6.615645">
        <ele>357.5</ele>
        <time>1970-01-01T00:00:00Z</time>
      </trkpt>
      <trkpt lat="39.733038" lon="-6.615581">
        <ele>356.8</ele>
        <time>1970-01-01T00:00:00Z</time>
      </trkpt>
      <trkpt lat="39.733003" lon="-6.615403">
        <ele>355.2</ele>
        <time>1970-01-01T00:00:00Z</time>
      </trkpt>
      <trkpt lat="39.733044" lon="-6.615324">
        <ele>354.8</ele>
        <time>1970-01-01T00:00:00Z</time>
      </trkpt>
      <trkpt lat="39.733070" lon="-6.615153">
        <ele>353.2</ele>
        <time>1970-01-01T00:00:00Z</time>
      </trkpt>
      <trkpt lat="39.733081" lon="-6.614990">
        <ele>351.6</ele>
        <time>1970-01-01T00:00:00Z</time>
      </trkpt>
      <trkpt lat="39.733072" lon="-6.614930">
        <ele>350.9</ele>
        <time>1970-01-01T00:00:00Z</time>
      </trkpt>
      <trkpt lat="39.732988" lon="-6.614803">
        <ele>348.9</ele>
        <time>1970-01-01T00:00:00Z</time>
      </trkpt>
      <trkpt lat="39.732876" lon="-6.614493">
        <ele>345.4</ele>
        <time>1970-01-01T00:00:00Z</time>
      </trkpt>
      <trkpt lat="39.732804" lon="-6.614400">
        <ele>343.8</ele>
        <time>1970-01-01T00:00:00Z</time>
      </trkpt>
      <trkpt lat="39.732749" lon="-6.614289">
        <ele>342.0</ele>
        <time>1970-01-01T00:00:00Z</time>
      </trkpt>
      <trkpt lat="39.732640" lon="-6.613927">
        <ele>335.4</ele>
        <time>1970-01-01T00:00:00Z</time>
      </trkpt>
      <trkpt lat="39.732619" lon="-6.613803">
        <ele>333.4</ele>
        <time>1970-01-01T00:00:00Z</time>
      </trkpt>
      <trkpt lat="39.732522" lon="-6.613553">
        <ele>329.5</ele>
        <time>1970-01-01T00:00:00Z</time>
      </trkpt>
      <trkpt lat="39.732486" lon="-6.613396">
        <ele>327.8</ele>
        <time>1970-01-01T00:00:00Z</time>
      </trkpt>
      <trkpt lat="39.732491" lon="-6.613018">
        <ele>324.5</ele>
        <time>1970-01-01T00:00:00Z</time>
      </trkpt>
      <trkpt lat="39.732455" lon="-6.612868">
        <ele>323.6</ele>
        <time>1970-01-01T00:00:00Z</time>
      </trkpt>
      <trkpt lat="39.732311" lon="-6.612663">
        <ele>322.2</ele>
        <time>1970-01-01T00:00:00Z</time>
      </trkpt>
      <trkpt lat="39.732211" lon="-6.612574">
        <ele>321.8</ele>
        <time>1970-01-01T00:00:00Z</time>
      </trkpt>
      <trkpt lat="39.732084" lon="-6.612417">
        <ele>320.5</ele>
        <time>1970-01-01T00:00:00Z</time>
      </trkpt>
      <trkpt lat="39.731995" lon="-6.612170">
        <ele>317.2</ele>
        <time>1970-01-01T00:00:00Z</time>
      </trkpt>
      <trkpt lat="39.731905" lon="-6.611988">
        <ele>314.7</ele>
        <time>1970-01-01T00:00:00Z</time>
      </trkpt>
      <trkpt lat="39.731751" lon="-6.611748">
        <ele>312.5</ele>
        <time>1970-01-01T00:00:00Z</time>
      </trkpt>
      <trkpt lat="39.731617" lon="-6.611615">
        <ele>311.3</ele>
        <time>1970-01-01T00:00:00Z</time>
      </trkpt>
      <trkpt lat="39.731434" lon="-6.611489">
        <ele>309.2</ele>
        <time>1970-01-01T00:00:00Z</time>
      </trkpt>
      <trkpt lat="39.731374" lon="-6.611419">
        <ele>308.0</ele>
        <time>1970-01-01T00:00:00Z</time>
      </trkpt>
      <trkpt lat="39.731339" lon="-6.611311">
        <ele>306.4</ele>
        <time>1970-01-01T00:00:00Z</time>
      </trkpt>
      <trkpt lat="39.731328" lon="-6.611229">
        <ele>305.4</ele>
        <time>1970-01-01T00:00:00Z</time>
      </trkpt>
      <trkpt lat="39.731289" lon="-6.611143">
        <ele>304.5</ele>
        <time>1970-01-01T00:00:00Z</time>
      </trkpt>
      <trkpt lat="39.731057" lon="-6.610830">
        <ele>301.7</ele>
        <time>1970-01-01T00:00:00Z</time>
      </trkpt>
      <trkpt lat="39.730975" lon="-6.610638">
        <ele>300.6</ele>
        <time>1970-01-01T00:00:00Z</time>
      </trkpt>
      <trkpt lat="39.730926" lon="-6.610487">
        <ele>300.2</ele>
        <time>1970-01-01T00:00:00Z</time>
      </trkpt>
      <trkpt lat="39.730892" lon="-6.610468">
        <ele>300.1</ele>
        <time>1970-01-01T00:00:00Z</time>
      </trkpt>
      <trkpt lat="39.730876" lon="-6.610393">
        <ele>299.6</ele>
        <time>1970-01-01T00:00:00Z</time>
      </trkpt>
      <trkpt lat="39.730826" lon="-6.610329">
        <ele>299.1</ele>
        <time>1970-01-01T00:00:00Z</time>
      </trkpt>
      <trkpt lat="39.730716" lon="-6.610131">
        <ele>297.8</ele>
        <time>1970-01-01T00:00:00Z</time>
      </trkpt>
      <trkpt lat="39.730635" lon="-6.610045">
        <ele>297.3</ele>
        <time>1970-01-01T00:00:00Z</time>
      </trkpt>
      <trkpt lat="39.730606" lon="-6.609997">
        <ele>297.1</ele>
        <time>1970-01-01T00:00:00Z</time>
      </trkpt>
      <trkpt lat="39.730551" lon="-6.609848">
        <ele>296.2</ele>
        <time>1970-01-01T00:00:00Z</time>
      </trkpt>
      <trkpt lat="39.730528" lon="-6.609731">
        <ele>295.4</ele>
        <time>1970-01-01T00:00:00Z</time>
      </trkpt>
      <trkpt lat="39.730492" lon="-6.609625">
        <ele>294.8</ele>
        <time>1970-01-01T00:00:00Z</time>
      </trkpt>
      <trkpt lat="39.730403" lon="-6.609588">
        <ele>294.4</ele>
        <time>1970-01-01T00:00:00Z</time>
      </trkpt>
      <trkpt lat="39.730308" lon="-6.609596">
        <ele>294.8</ele>
        <time>1970-01-01T00:00:00Z</time>
      </trkpt>
      <trkpt lat="39.730148" lon="-6.609506">
        <ele>294.2</ele>
        <time>1970-01-01T00:00:00Z</time>
      </trkpt>
      <trkpt lat="39.730069" lon="-6.609425">
        <ele>293.8</ele>
        <time>1970-01-01T00:00:00Z</time>
      </trkpt>
      <trkpt lat="39.729869" lon="-6.609183">
        <ele>292.8</ele>
        <time>1970-01-01T00:00:00Z</time>
      </trkpt>
      <trkpt lat="39.729788" lon="-6.609127">
        <ele>292.7</ele>
        <time>1970-01-01T00:00:00Z</time>
      </trkpt>
      <trkpt lat="39.729650" lon="-6.608902">
        <ele>291.1</ele>
        <time>1970-01-01T00:00:00Z</time>
      </trkpt>
      <trkpt lat="39.729519" lon="-6.608722">
        <ele>289.7</ele>
        <time>1970-01-01T00:00:00Z</time>
      </trkpt>
      <trkpt lat="39.729472" lon="-6.608641">
        <ele>288.9</ele>
        <time>1970-01-01T00:00:00Z</time>
      </trkpt>
      <trkpt lat="39.729446" lon="-6.608558">
        <ele>288.0</ele>
        <time>1970-01-01T00:00:00Z</time>
      </trkpt>
      <trkpt lat="39.729105" lon="-6.608360">
        <ele>287.5</ele>
        <time>1970-01-01T00:00:00Z</time>
      </trkpt>
      <trkpt lat="39.728788" lon="-6.608116">
        <ele>287.0</ele>
        <time>1970-01-01T00:00:00Z</time>
      </trkpt>
      <trkpt lat="39.728569" lon="-6.608058">
        <ele>287.5</ele>
        <time>1970-01-01T00:00:00Z</time>
      </trkpt>
      <trkpt lat="39.728447" lon="-6.608007">
        <ele>287.3</ele>
        <time>1970-01-01T00:00:00Z</time>
      </trkpt>
      <trkpt lat="39.728116" lon="-6.607802">
        <ele>284.9</ele>
        <time>1970-01-01T00:00:00Z</time>
      </trkpt>
      <trkpt lat="39.727838" lon="-6.607598">
        <ele>280.2</ele>
        <time>1970-01-01T00:00:00Z</time>
      </trkpt>
      <trkpt lat="39.727622" lon="-6.607480">
        <ele>278.0</ele>
        <time>1970-01-01T00:00:00Z</time>
      </trkpt>
      <trkpt lat="39.727581" lon="-6.607406">
        <ele>277.2</ele>
        <time>1970-01-01T00:00:00Z</time>
      </trkpt>
      <trkpt lat="39.727551" lon="-6.607318">
        <ele>276.2</ele>
        <time>1970-01-01T00:00:00Z</time>
      </trkpt>
      <trkpt lat="39.727513" lon="-6.607272">
        <ele>275.5</ele>
        <time>1970-01-01T00:00:00Z</time>
      </trkpt>
      <trkpt lat="39.727429" lon="-6.607218">
        <ele>274.3</ele>
        <time>1970-01-01T00:00:00Z</time>
      </trkpt>
      <trkpt lat="39.727266" lon="-6.606970">
        <ele>273.0</ele>
        <time>1970-01-01T00:00:00Z</time>
      </trkpt>
      <trkpt lat="39.727225" lon="-6.606785">
        <ele>272.2</ele>
        <time>1970-01-01T00:00:00Z</time>
      </trkpt>
      <trkpt lat="39.727197" lon="-6.606703">
        <ele>271.9</ele>
        <time>1970-01-01T00:00:00Z</time>
      </trkpt>
      <trkpt lat="39.727157" lon="-6.606636">
        <ele>271.5</ele>
        <time>1970-01-01T00:00:00Z</time>
      </trkpt>
      <trkpt lat="39.727132" lon="-6.606524">
        <ele>271.1</ele>
        <time>1970-01-01T00:00:00Z</time>
      </trkpt>
      <trkpt lat="39.727108" lon="-6.606296">
        <ele>270.1</ele>
        <time>1970-01-01T00:00:00Z</time>
      </trkpt>
      <trkpt lat="39.727029" lon="-6.605778">
        <ele>270.7</ele>
        <time>1970-01-01T00:00:00Z</time>
      </trkpt>
      <trkpt lat="39.726938" lon="-6.605460">
        <ele>271.7</ele>
        <time>1970-01-01T00:00:00Z</time>
      </trkpt>
      <trkpt lat="39.726885" lon="-6.605136">
        <ele>274.1</ele>
        <time>1970-01-01T00:00:00Z</time>
      </trkpt>
      <trkpt lat="39.726914" lon="-6.604752">
        <ele>277.7</ele>
        <time>1970-01-01T00:00:00Z</time>
      </trkpt>
      <trkpt lat="39.727001" lon="-6.604290">
        <ele>281.9</ele>
        <time>1970-01-01T00:00:00Z</time>
      </trkpt>
      <trkpt lat="39.727047" lon="-6.603604">
        <ele>289.1</ele>
        <time>1970-01-01T00:00:00Z</time>
      </trkpt>
      <trkpt lat="39.727036" lon="-6.603099">
        <ele>293.0</ele>
        <time>1970-01-01T00:00:00Z</time>
      </trkpt>
      <trkpt lat="39.726987" lon="-6.603008">
        <ele>294.4</ele>
        <time>1970-01-01T00:00:00Z</time>
      </trkpt>
      <trkpt lat="39.726922" lon="-6.602963">
        <ele>295.8</ele>
        <time>1970-01-01T00:00:00Z</time>
      </trkpt>
      <trkpt lat="39.726818" lon="-6.602932">
        <ele>297.6</ele>
        <time>1970-01-01T00:00:00Z</time>
      </trkpt>
      <trkpt lat="39.726654" lon="-6.602948">
        <ele>299.8</ele>
        <time>1970-01-01T00:00:00Z</time>
      </trkpt>
      <trkpt lat="39.726555" lon="-6.602924">
        <ele>300.9</ele>
        <time>1970-01-01T00:00:00Z</time>
      </trkpt>
      <trkpt lat="39.726450" lon="-6.602832">
        <ele>301.7</ele>
        <time>1970-01-01T00:00:00Z</time>
      </trkpt>
      <trkpt lat="39.726325" lon="-6.602652">
        <ele>303.2</ele>
        <time>1970-01-01T00:00:00Z</time>
      </trkpt>
      <trkpt lat="39.726273" lon="-6.602563">
        <ele>303.9</ele>
        <time>1970-01-01T00:00:00Z</time>
      </trkpt>
      <trkpt lat="39.726226" lon="-6.602427">
        <ele>304.2</ele>
        <time>1970-01-01T00:00:00Z</time>
      </trkpt>
      <trkpt lat="39.726218" lon="-6.602309">
        <ele>304.2</ele>
        <time>1970-01-01T00:00:00Z</time>
      </trkpt>
      <trkpt lat="39.726236" lon="-6.602206">
        <ele>304.1</ele>
        <time>1970-01-01T00:00:00Z</time>
      </trkpt>
      <trkpt lat="39.726372" lon="-6.602018">
        <ele>303.2</ele>
        <time>1970-01-01T00:00:00Z</time>
      </trkpt>
      <trkpt lat="39.726440" lon="-6.601836">
        <ele>302.8</ele>
        <time>1970-01-01T00:00:00Z</time>
      </trkpt>
      <trkpt lat="39.726518" lon="-6.601687">
        <ele>302.5</ele>
        <time>1970-01-01T00:00:00Z</time>
      </trkpt>
      <trkpt lat="39.726588" lon="-6.601456">
        <ele>302.6</ele>
        <time>1970-01-01T00:00:00Z</time>
      </trkpt>
      <trkpt lat="39.726657" lon="-6.601053">
        <ele>304.2</ele>
        <time>1970-01-01T00:00:00Z</time>
      </trkpt>
      <trkpt lat="39.726687" lon="-6.600763">
        <ele>305.4</ele>
        <time>1970-01-01T00:00:00Z</time>
      </trkpt>
      <trkpt lat="39.726594" lon="-6.600528">
        <ele>308.1</ele>
        <time>1970-01-01T00:00:00Z</time>
      </trkpt>
      <trkpt lat="39.726574" lon="-6.600369">
        <ele>308.6</ele>
        <time>1970-01-01T00:00:00Z</time>
      </trkpt>
      <trkpt lat="39.726547" lon="-6.599867">
        <ele>309.2</ele>
        <time>1970-01-01T00:00:00Z</time>
      </trkpt>
      <trkpt lat="39.726470" lon="-6.599408">
        <ele>308.6</ele>
        <time>1970-01-01T00:00:00Z</time>
      </trkpt>
      <trkpt lat="39.726447" lon="-6.598800">
        <ele>307.3</ele>
        <time>1970-01-01T00:00:00Z</time>
      </trkpt>
      <trkpt lat="39.726414" lon="-6.598704">
        <ele>307.5</ele>
        <time>1970-01-01T00:00:00Z</time>
      </trkpt>
      <trkpt lat="39.726294" lon="-6.598520">
        <ele>307.4</ele>
        <time>1970-01-01T00:00:00Z</time>
      </trkpt>
      <trkpt lat="39.726235" lon="-6.598399">
        <ele>307.1</ele>
        <time>1970-01-01T00:00:00Z</time>
      </trkpt>
      <trkpt lat="39.726192" lon="-6.598241">
        <ele>307.1</ele>
        <time>1970-01-01T00:00:00Z</time>
      </trkpt>
      <trkpt lat="39.726133" lon="-6.597606">
        <ele>307.2</ele>
        <time>1970-01-01T00:00:00Z</time>
      </trkpt>
      <trkpt lat="39.725934" lon="-6.596894">
        <ele>308.5</ele>
        <time>1970-01-01T00:00:00Z</time>
      </trkpt>
      <trkpt lat="39.725755" lon="-6.596584">
        <ele>310.0</ele>
        <time>1970-01-01T00:00:00Z</time>
      </trkpt>
      <trkpt lat="39.725710" lon="-6.596453">
        <ele>311.0</ele>
        <time>1970-01-01T00:00:00Z</time>
      </trkpt>
      <trkpt lat="39.725604" lon="-6.596242">
        <ele>312.3</ele>
        <time>1970-01-01T00:00:00Z</time>
      </trkpt>
      <trkpt lat="39.725010" lon="-6.595172">
        <ele>323.2</ele>
        <time>1970-01-01T00:00:00Z</time>
      </trkpt>
      <trkpt lat="39.724874" lon="-6.594997">
        <ele>325.7</ele>
        <time>1970-01-01T00:00:00Z</time>
      </trkpt>
      <trkpt lat="39.724784" lon="-6.594904">
        <ele>327.4</ele>
        <time>1970-01-01T00:00:00Z</time>
      </trkpt>
      <trkpt lat="39.724643" lon="-6.594827">
        <ele>329.8</ele>
        <time>1970-01-01T00:00:00Z</time>
      </trkpt>
      <trkpt lat="39.724493" lon="-6.594691">
        <ele>331.7</ele>
        <time>1970-01-01T00:00:00Z</time>
      </trkpt>
      <trkpt lat="39.724181" lon="-6.594339">
        <ele>336.1</ele>
        <time>1970-01-01T00:00:00Z</time>
      </trkpt>
      <trkpt lat="39.724086" lon="-6.594216">
        <ele>337.1</ele>
        <time>1970-01-01T00:00:00Z</time>
      </trkpt>
      <trkpt lat="39.723911" lon="-6.593826">
        <ele>339.7</ele>
        <time>1970-01-01T00:00:00Z</time>
      </trkpt>
      <trkpt lat="39.723874" lon="-6.593684">
        <ele>340.6</ele>
        <time>1970-01-01T00:00:00Z</time>
      </trkpt>
      <trkpt lat="39.723760" lon="-6.592999">
        <ele>345.4</ele>
        <time>1970-01-01T00:00:00Z</time>
      </trkpt>
      <trkpt lat="39.723629" lon="-6.592481">
        <ele>347.2</ele>
        <time>1970-01-01T00:00:00Z</time>
      </trkpt>
      <trkpt lat="39.723581" lon="-6.592182">
        <ele>347.4</ele>
        <time>1970-01-01T00:00:00Z</time>
      </trkpt>
      <trkpt lat="39.723486" lon="-6.591911">
        <ele>347.0</ele>
        <time>1970-01-01T00:00:00Z</time>
      </trkpt>
      <trkpt lat="39.723454" lon="-6.591721">
        <ele>346.1</ele>
        <time>1970-01-01T00:00:00Z</time>
      </trkpt>
      <trkpt lat="39.723371" lon="-6.591507">
        <ele>345.2</ele>
        <time>1970-01-01T00:00:00Z</time>
      </trkpt>
      <trkpt lat="39.723352" lon="-6.591326">
        <ele>344.1</ele>
        <time>1970-01-01T00:00:00Z</time>
      </trkpt>
      <trkpt lat="39.723312" lon="-6.591200">
        <ele>343.1</ele>
        <time>1970-01-01T00:00:00Z</time>
      </trkpt>
      <trkpt lat="39.723310" lon="-6.591141">
        <ele>342.8</ele>
        <time>1970-01-01T00:00:00Z</time>
      </trkpt>
      <trkpt lat="39.723269" lon="-6.591052">
        <ele>342.3</ele>
        <time>1970-01-01T00:00:00Z</time>
      </trkpt>
      <trkpt lat="39.723275" lon="-6.590919">
        <ele>341.7</ele>
        <time>1970-01-01T00:00:00Z</time>
      </trkpt>
      <trkpt lat="39.723240" lon="-6.590826">
        <ele>341.3</ele>
        <time>1970-01-01T00:00:00Z</time>
      </trkpt>
      <trkpt lat="39.723259" lon="-6.590689">
        <ele>340.7</ele>
        <time>1970-01-01T00:00:00Z</time>
      </trkpt>
      <trkpt lat="39.723242" lon="-6.590570">
        <ele>340.2</ele>
        <time>1970-01-01T00:00:00Z</time>
      </trkpt>
      <trkpt lat="39.723244" lon="-6.590446">
        <ele>339.3</ele>
        <time>1970-01-01T00:00:00Z</time>
      </trkpt>
      <trkpt lat="39.723157" lon="-6.589810">
        <ele>336.9</ele>
        <time>1970-01-01T00:00:00Z</time>
      </trkpt>
      <trkpt lat="39.723043" lon="-6.589303">
        <ele>335.1</ele>
        <time>1970-01-01T00:00:00Z</time>
      </trkpt>
      <trkpt lat="39.722941" lon="-6.588957">
        <ele>334.5</ele>
        <time>1970-01-01T00:00:00Z</time>
      </trkpt>
      <trkpt lat="39.722817" lon="-6.588409">
        <ele>333.1</ele>
        <time>1970-01-01T00:00:00Z</time>
      </trkpt>
      <trkpt lat="39.722725" lon="-6.587938">
        <ele>333.2</ele>
        <time>1970-01-01T00:00:00Z</time>
      </trkpt>
      <trkpt lat="39.722646" lon="-6.587660">
        <ele>334.1</ele>
        <time>1970-01-01T00:00:00Z</time>
      </trkpt>
      <trkpt lat="39.722650" lon="-6.587033">
        <ele>336.1</ele>
        <time>1970-01-01T00:00:00Z</time>
      </trkpt>
      <trkpt lat="39.722599" lon="-6.586771">
        <ele>337.2</ele>
        <time>1970-01-01T00:00:00Z</time>
      </trkpt>
      <trkpt lat="39.722411" lon="-6.586243">
        <ele>340.2</ele>
        <time>1970-01-01T00:00:00Z</time>
      </trkpt>
      <trkpt lat="39.722282" lon="-6.585720">
        <ele>342.0</ele>
        <time>1970-01-01T00:00:00Z</time>
      </trkpt>
      <trkpt lat="39.722267" lon="-6.585613">
        <ele>342.2</ele>
        <time>1970-01-01T00:00:00Z</time>
      </trkpt>
      <trkpt lat="39.722154" lon="-6.585363">
        <ele>343.0</ele>
        <time>1970-01-01T00:00:00Z</time>
      </trkpt>
      <trkpt lat="39.721939" lon="-6.584942">
        <ele>344.7</ele>
        <time>1970-01-01T00:00:00Z</time>
      </trkpt>
      <trkpt lat="39.721845" lon="-6.584700">
        <ele>345.3</ele>
        <time>1970-01-01T00:00:00Z</time>
      </trkpt>
      <trkpt lat="39.721732" lon="-6.584524">
        <ele>346.5</ele>
        <time>1970-01-01T00:00:00Z</time>
      </trkpt>
      <trkpt lat="39.721493" lon="-6.584252">
        <ele>349.2</ele>
        <time>1970-01-01T00:00:00Z</time>
      </trkpt>
      <trkpt lat="39.721165" lon="-6.583813">
        <ele>352.0</ele>
        <time>1970-01-01T00:00:00Z</time>
      </trkpt>
      <trkpt lat="39.720977" lon="-6.583483">
        <ele>351.4</ele>
        <time>1970-01-01T00:00:00Z</time>
      </trkpt>
      <trkpt lat="39.720861" lon="-6.583422">
        <ele>351.0</ele>
        <time>1970-01-01T00:00:00Z</time>
      </trkpt>
      <trkpt lat="39.720748" lon="-6.583300">
        <ele>349.7</ele>
        <time>1970-01-01T00:00:00Z</time>
      </trkpt>
      <trkpt lat="39.720678" lon="-6.583181">
        <ele>348.4</ele>
        <time>1970-01-01T00:00:00Z</time>
      </trkpt>
      <trkpt lat="39.720658" lon="-6.582999">
        <ele>347.3</ele>
        <time>1970-01-01T00:00:00Z</time>
      </trkpt>
      <trkpt lat="39.720665" lon="-6.582736">
        <ele>346.2</ele>
        <time>1970-01-01T00:00:00Z</time>
      </trkpt>
      <trkpt lat="39.720715" lon="-6.582390">
        <ele>343.9</ele>
        <time>1970-01-01T00:00:00Z</time>
      </trkpt>
      <trkpt lat="39.720799" lon="-6.582036">
        <ele>342.7</ele>
        <time>1970-01-01T00:00:00Z</time>
      </trkpt>
      <trkpt lat="39.720838" lon="-6.581811">
        <ele>341.9</ele>
        <time>1970-01-01T00:00:00Z</time>
      </trkpt>
      <trkpt lat="39.720877" lon="-6.581169">
        <ele>339.7</ele>
        <time>1970-01-01T00:00:00Z</time>
      </trkpt>
      <trkpt lat="39.720742" lon="-6.580856">
        <ele>339.2</ele>
        <time>1970-01-01T00:00:00Z</time>
      </trkpt>
      <trkpt lat="39.720641" lon="-6.580243">
        <ele>339.3</ele>
        <time>1970-01-01T00:00:00Z</time>
      </trkpt>
      <trkpt lat="39.720675" lon="-6.579858">
        <ele>340.1</ele>
        <time>1970-01-01T00:00:00Z</time>
      </trkpt>
      <trkpt lat="39.720675" lon="-6.579734">
        <ele>340.1</ele>
        <time>1970-01-01T00:00:00Z</time>
      </trkpt>
      <trkpt lat="39.720649" lon="-6.579614">
        <ele>340.2</ele>
        <time>1970-01-01T00:00:00Z</time>
      </trkpt>
      <trkpt lat="39.720633" lon="-6.579450">
        <ele>340.3</ele>
        <time>1970-01-01T00:00:00Z</time>
      </trkpt>
      <trkpt lat="39.720516" lon="-6.579388">
        <ele>341.0</ele>
        <time>1970-01-01T00:00:00Z</time>
      </trkpt>
      <trkpt lat="39.720365" lon="-6.579340">
        <ele>342.1</ele>
        <time>1970-01-01T00:00:00Z</time>
      </trkpt>
      <trkpt lat="39.720181" lon="-6.579202">
        <ele>343.3</ele>
        <time>1970-01-01T00:00:00Z</time>
      </trkpt>
      <trkpt lat="39.720064" lon="-6.579046">
        <ele>343.8</ele>
        <time>1970-01-01T00:00:00Z</time>
      </trkpt>
      <trkpt lat="39.719840" lon="-6.578832">
        <ele>344.7</ele>
        <time>1970-01-01T00:00:00Z</time>
      </trkpt>
      <trkpt lat="39.719721" lon="-6.578779">
        <ele>345.0</ele>
        <time>1970-01-01T00:00:00Z</time>
      </trkpt>
      <trkpt lat="39.719617" lon="-6.578694">
        <ele>345.0</ele>
        <time>1970-01-01T00:00:00Z</time>
      </trkpt>
      <trkpt lat="39.719528" lon="-6.578677">
        <ele>345.0</ele>
        <time>1970-01-01T00:00:00Z</time>
      </trkpt>
      <trkpt lat="39.719441" lon="-6.578636">
        <ele>345.0</ele>
        <time>1970-01-01T00:00:00Z</time>
      </trkpt>
      <trkpt lat="39.719119" lon="-6.578165">
        <ele>345.4</ele>
        <time>1970-01-01T00:00:00Z</time>
      </trkpt>
      <trkpt lat="39.719050" lon="-6.578040">
        <ele>346.0</ele>
        <time>1970-01-01T00:00:00Z</time>
      </trkpt>
      <trkpt lat="39.719014" lon="-6.577913">
        <ele>346.0</ele>
        <time>1970-01-01T00:00:00Z</time>
      </trkpt>
      <trkpt lat="39.718995" lon="-6.577731">
        <ele>346.6</ele>
        <time>1970-01-01T00:00:00Z</time>
      </trkpt>
      <trkpt lat="39.718998" lon="-6.577613">
        <ele>347.6</ele>
        <time>1970-01-01T00:00:00Z</time>
      </trkpt>
      <trkpt lat="39.719020" lon="-6.577528">
        <ele>348.3</ele>
        <time>1970-01-01T00:00:00Z</time>
      </trkpt>
      <trkpt lat="39.719015" lon="-6.577142">
        <ele>350.0</ele>
        <time>1970-01-01T00:00:00Z</time>
      </trkpt>
      <trkpt lat="39.719046" lon="-6.577045">
        <ele>350.2</ele>
        <time>1970-01-01T00:00:00Z</time>
      </trkpt>
      <trkpt lat="39.719141" lon="-6.576519">
        <ele>351.3</ele>
        <time>1970-01-01T00:00:00Z</time>
      </trkpt>
      <trkpt lat="39.719148" lon="-6.576280">
        <ele>351.9</ele>
        <time>1970-01-01T00:00:00Z</time>
      </trkpt>
      <trkpt lat="39.718993" lon="-6.575569">
        <ele>352.0</ele>
        <time>1970-01-01T00:00:00Z</time>
      </trkpt>
      <trkpt lat="39.718928" lon="-6.575326">
        <ele>351.5</ele>
        <time>1970-01-01T00:00:00Z</time>
      </trkpt>
      <trkpt lat="39.718988" lon="-6.574969">
        <ele>351.6</ele>
        <time>1970-01-01T00:00:00Z</time>
      </trkpt>
      <trkpt lat="39.718989" lon="-6.574830">
        <ele>351.6</ele>
        <time>1970-01-01T00:00:00Z</time>
      </trkpt>
      <trkpt lat="39.718973" lon="-6.574674">
        <ele>351.8</ele>
        <time>1970-01-01T00:00:00Z</time>
      </trkpt>
      <trkpt lat="39.718910" lon="-6.574466">
        <ele>352.0</ele>
        <time>1970-01-01T00:00:00Z</time>
      </trkpt>
      <trkpt lat="39.718837" lon="-6.574297">
        <ele>352.3</ele>
        <time>1970-01-01T00:00:00Z</time>
      </trkpt>
      <trkpt lat="39.718356" lon="-6.573882">
        <ele>357.0</ele>
        <time>1970-01-01T00:00:00Z</time>
      </trkpt>
      <trkpt lat="39.718275" lon="-6.573850">
        <ele>357.6</ele>
        <time>1970-01-01T00:00:00Z</time>
      </trkpt>
      <trkpt lat="39.718183" lon="-6.573883">
        <ele>357.8</ele>
        <time>1970-01-01T00:00:00Z</time>
      </trkpt>
      <trkpt lat="39.718048" lon="-6.573987">
        <ele>357.9</ele>
        <time>1970-01-01T00:00:00Z</time>
      </trkpt>
      <trkpt lat="39.717957" lon="-6.574034">
        <ele>358.1</ele>
        <time>1970-01-01T00:00:00Z</time>
      </trkpt>
      <trkpt lat="39.717890" lon="-6.574048">
        <ele>358.4</ele>
        <time>1970-01-01T00:00:00Z</time>
      </trkpt>
      <trkpt lat="39.717619" lon="-6.573937">
        <ele>360.0</ele>
        <time>1970-01-01T00:00:00Z</time>
      </trkpt>
      <trkpt lat="39.717525" lon="-6.573881">
        <ele>360.7</ele>
        <time>1970-01-01T00:00:00Z</time>
      </trkpt>
      <trkpt lat="39.717167" lon="-6.573564">
        <ele>364.0</ele>
        <time>1970-01-01T00:00:00Z</time>
      </trkpt>
      <trkpt lat="39.717016" lon="-6.573472">
        <ele>364.0</ele>
        <time>1970-01-01T00:00:00Z</time>
      </trkpt>
      <trkpt lat="39.716492" lon="-6.572714">
        <ele>368.2</ele>
        <time>1970-01-01T00:00:00Z</time>
      </trkpt>
      <trkpt lat="39.716384" lon="-6.572383">
        <ele>370.7</ele>
        <time>1970-01-01T00:00:00Z</time>
      </trkpt>
      <trkpt lat="39.716372" lon="-6.572251">
        <ele>371.4</ele>
        <time>1970-01-01T00:00:00Z</time>
      </trkpt>
      <trkpt lat="39.716389" lon="-6.572017">
        <ele>372.3</ele>
        <time>1970-01-01T00:00:00Z</time>
      </trkpt>
      <trkpt lat="39.716459" lon="-6.571550">
        <ele>374.0</ele>
        <time>1970-01-01T00:00:00Z</time>
      </trkpt>
      <trkpt lat="39.716462" lon="-6.571397">
        <ele>374.2</ele>
        <time>1970-01-01T00:00:00Z</time>
      </trkpt>
      <trkpt lat="39.716429" lon="-6.571210">
        <ele>374.7</ele>
        <time>1970-01-01T00:00:00Z</time>
      </trkpt>
      <trkpt lat="39.716308" lon="-6.570811">
        <ele>376.0</ele>
        <time>1970-01-01T00:00:00Z</time>
      </trkpt>
      <trkpt lat="39.716108" lon="-6.570497">
        <ele>376.9</ele>
        <time>1970-01-01T00:00:00Z</time>
      </trkpt>
      <trkpt lat="39.715976" lon="-6.570337">
        <ele>377.2</ele>
        <time>1970-01-01T00:00:00Z</time>
      </trkpt>
      <trkpt lat="39.715844" lon="-6.570274">
        <ele>377.5</ele>
        <time>1970-01-01T00:00:00Z</time>
      </trkpt>
      <trkpt lat="39.715528" lon="-6.570070">
        <ele>376.6</ele>
        <time>1970-01-01T00:00:00Z</time>
      </trkpt>
      <trkpt lat="39.715428" lon="-6.569931">
        <ele>376.0</ele>
        <time>1970-01-01T00:00:00Z</time>
      </trkpt>
      <trkpt lat="39.715366" lon="-6.569708">
        <ele>375.1</ele>
        <time>1970-01-01T00:00:00Z</time>
      </trkpt>
      <trkpt lat="39.715314" lon="-6.569602">
        <ele>374.3</ele>
        <time>1970-01-01T00:00:00Z</time>
      </trkpt>
      <trkpt lat="39.715245" lon="-6.569482">
        <ele>373.7</ele>
        <time>1970-01-01T00:00:00Z</time>
      </trkpt>
      <trkpt lat="39.715122" lon="-6.569353">
        <ele>373.6</ele>
        <time>1970-01-01T00:00:00Z</time>
      </trkpt>
      <trkpt lat="39.715175" lon="-6.568909">
        <ele>371.5</ele>
        <time>1970-01-01T00:00:00Z</time>
      </trkpt>
      <trkpt lat="39.715215" lon="-6.568780">
        <ele>370.8</ele>
        <time>1970-01-01T00:00:00Z</time>
      </trkpt>
      <trkpt lat="39.715461" lon="-6.568343">
        <ele>368.2</ele>
        <time>1970-01-01T00:00:00Z</time>
      </trkpt>
      <trkpt lat="39.715514" lon="-6.568131">
        <ele>367.6</ele>
        <time>1970-01-01T00:00:00Z</time>
      </trkpt>
      <trkpt lat="39.715540" lon="-6.567947">
        <ele>366.6</ele>
        <time>1970-01-01T00:00:00Z</time>
      </trkpt>
      <trkpt lat="39.715554" lon="-6.567701">
        <ele>365.8</ele>
        <time>1970-01-01T00:00:00Z</time>
      </trkpt>
      <trkpt lat="39.715635" lon="-6.567221">
        <ele>364.3</ele>
        <time>1970-01-01T00:00:00Z</time>
      </trkpt>
      <trkpt lat="39.715653" lon="-6.567003">
        <ele>363.6</ele>
        <time>1970-01-01T00:00:00Z</time>
      </trkpt>
      <trkpt lat="39.715648" lon="-6.566736">
        <ele>362.5</ele>
        <time>1970-01-01T00:00:00Z</time>
      </trkpt>
      <trkpt lat="39.715619" lon="-6.566579">
        <ele>361.6</ele>
        <time>1970-01-01T00:00:00Z</time>
      </trkpt>
      <trkpt lat="39.715596" lon="-6.566247">
        <ele>360.9</ele>
        <time>1970-01-01T00:00:00Z</time>
      </trkpt>
      <trkpt lat="39.715639" lon="-6.565553">
        <ele>358.3</ele>
        <time>1970-01-01T00:00:00Z</time>
      </trkpt>
      <trkpt lat="39.715641" lon="-6.565309">
        <ele>357.3</ele>
        <time>1970-01-01T00:00:00Z</time>
      </trkpt>
      <trkpt lat="39.715562" lon="-6.564628">
        <ele>354.7</ele>
        <time>1970-01-01T00:00:00Z</time>
      </trkpt>
      <trkpt lat="39.715509" lon="-6.564381">
        <ele>354.1</ele>
        <time>1970-01-01T00:00:00Z</time>
      </trkpt>
      <trkpt lat="39.715330" lon="-6.563797">
        <ele>351.9</ele>
        <time>1970-01-01T00:00:00Z</time>
      </trkpt>
      <trkpt lat="39.715217" lon="-6.563504">
        <ele>351.3</ele>
        <time>1970-01-01T00:00:00Z</time>
      </trkpt>
      <trkpt lat="39.715098" lon="-6.563113">
        <ele>350.4</ele>
        <time>1970-01-01T00:00:00Z</time>
      </trkpt>
      <trkpt lat="39.714713" lon="-6.561326">
        <ele>346.0</ele>
        <time>1970-01-01T00:00:00Z</time>
      </trkpt>
      <trkpt lat="39.714628" lon="-6.560791">
        <ele>346.3</ele>
        <time>1970-01-01T00:00:00Z</time>
      </trkpt>
      <trkpt lat="39.714302" lon="-6.559940">
        <ele>345.2</ele>
        <time>1970-01-01T00:00:00Z</time>
      </trkpt>
      <trkpt lat="39.714148" lon="-6.559604">
        <ele>345.1</ele>
        <time>1970-01-01T00:00:00Z</time>
      </trkpt>
      <trkpt lat="39.714068" lon="-6.559494">
        <ele>345.0</ele>
        <time>1970-01-01T00:00:00Z</time>
      </trkpt>
      <trkpt lat="39.713708" lon="-6.558846">
        <ele>344.1</ele>
        <time>1970-01-01T00:00:00Z</time>
      </trkpt>
      <trkpt lat="39.713312" lon="-6.558379">
        <ele>343.0</ele>
        <time>1970-01-01T00:00:00Z</time>
      </trkpt>
      <trkpt lat="39.712848" lon="-6.557874">
        <ele>343.8</ele>
        <time>1970-01-01T00:00:00Z</time>
      </trkpt>
      <trkpt lat="39.712708" lon="-6.557794">
        <ele>344.7</ele>
        <time>1970-01-01T00:00:00Z</time>
      </trkpt>
      <trkpt lat="39.712298" lon="-6.557654">
        <ele>345.0</ele>
        <time>1970-01-01T00:00:00Z</time>
      </trkpt>
      <trkpt lat="39.711898" lon="-6.557404">
        <ele>342.7</ele>
        <time>1970-01-01T00:00:00Z</time>
      </trkpt>
      <trkpt lat="39.711737" lon="-6.557138">
        <ele>339.2</ele>
        <time>1970-01-01T00:00:00Z</time>
      </trkpt>
      <trkpt lat="39.711463" lon="-6.556499">
        <ele>333.0</ele>
        <time>1970-01-01T00:00:00Z</time>
      </trkpt>
      <trkpt lat="39.711571" lon="-6.556162">
        <ele>330.3</ele>
        <time>1970-01-01T00:00:00Z</time>
      </trkpt>
      <trkpt lat="39.711807" lon="-6.555717">
        <ele>327.8</ele>
        <time>1970-01-01T00:00:00Z</time>
      </trkpt>
      <trkpt lat="39.711937" lon="-6.555402">
        <ele>326.9</ele>
        <time>1970-01-01T00:00:00Z</time>
      </trkpt>
      <trkpt lat="39.711972" lon="-6.554846">
        <ele>325.2</ele>
        <time>1970-01-01T00:00:00Z</time>
      </trkpt>
    </trkseg>
    <trkseg>
      <trkpt lat="39.711972" lon="-6.554846">
        <ele>325.2</ele>
        <time>1970-01-01T00:00:00Z</time>
      </trkpt>
      <trkpt lat="39.712010" lon="-6.554218">
        <ele>325.0</ele>
        <time>1970-01-01T00:00:00Z</time>
      </trkpt>
      <trkpt lat="39.712005" lon="-6.553161">
        <ele>321.2</ele>
        <time>1970-01-01T00:00:00Z</time>
      </trkpt>
      <trkpt lat="39.711969" lon="-6.552521">
        <ele>320.7</ele>
        <time>1970-01-01T00:00:00Z</time>
      </trkpt>
      <trkpt lat="39.712029" lon="-6.552322">
        <ele>320.5</ele>
        <time>1970-01-01T00:00:00Z</time>
      </trkpt>
      <trkpt lat="39.712089" lon="-6.551856">
        <ele>321.3</ele>
        <time>1970-01-01T00:00:00Z</time>
      </trkpt>
      <trkpt lat="39.712168" lon="-6.551684">
        <ele>321.8</ele>
        <time>1970-01-01T00:00:00Z</time>
      </trkpt>
      <trkpt lat="39.712178" lon="-6.551060">
        <ele>323.0</ele>
        <time>1970-01-01T00:00:00Z</time>
      </trkpt>
      <trkpt lat="39.712214" lon="-6.551010">
        <ele>323.0</ele>
        <time>1970-01-01T00:00:00Z</time>
      </trkpt>
      <trkpt lat="39.712233" lon="-6.550630">
        <ele>322.9</ele>
        <time>1970-01-01T00:00:00Z</time>
      </trkpt>
      <trkpt lat="39.712469" lon="-6.550304">
        <ele>322.0</ele>
        <time>1970-01-01T00:00:00Z</time>
      </trkpt>
      <trkpt lat="39.712668" lon="-6.550099">
        <ele>322.0</ele>
        <time>1970-01-01T00:00:00Z</time>
      </trkpt>
      <trkpt lat="39.712864" lon="-6.550116">
        <ele>322.0</ele>
        <time>1970-01-01T00:00:00Z</time>
      </trkpt>
      <trkpt lat="39.712886" lon="-6.550088">
        <ele>322.0</ele>
        <time>1970-01-01T00:00:00Z</time>
      </trkpt>
      <trkpt lat="39.712904" lon="-6.549854">
        <ele>321.3</ele>
        <time>1970-01-01T00:00:00Z</time>
      </trkpt>
      <trkpt lat="39.713229" lon="-6.549056">
        <ele>317.1</ele>
        <time>1970-01-01T00:00:00Z</time>
      </trkpt>
      <trkpt lat="39.713049" lon="-6.548098">
        <ele>313.0</ele>
        <time>1970-01-01T00:00:00Z</time>
      </trkpt>
      <trkpt lat="39.712821" lon="-6.546434">
        <ele>318.0</ele>
        <time>1970-01-01T00:00:00Z</time>
      </trkpt>
      <trkpt lat="39.712467" lon="-6.545950">
        <ele>319.2</ele>
        <time>1970-01-01T00:00:00Z</time>
      </trkpt>
      <trkpt lat="39.712193" lon="-6.545715">
        <ele>320.2</ele>
        <time>1970-01-01T00:00:00Z</time>
      </trkpt>
      <trkpt lat="39.711767" lon="-6.545445">
        <ele>322.1</ele>
        <time>1970-01-01T00:00:00Z</time>
      </trkpt>
      <trkpt lat="39.711510" lon="-6.545416">
        <ele>321.2</ele>
        <time>1970-01-01T00:00:00Z</time>
      </trkpt>
      <trkpt lat="39.711079" lon="-6.545572">
        <ele>320.7</ele>
        <time>1970-01-01T00:00:00Z</time>
      </trkpt>
      <trkpt lat="39.711045" lon="-6.545505">
        <ele>320.9</ele>
        <time>1970-01-01T00:00:00Z</time>
      </trkpt>
      <trkpt lat="39.710719" lon="-6.545030">
        <ele>320.4</ele>
        <time>1970-01-01T00:00:00Z</time>
      </trkpt>
      <trkpt lat="39.710863" lon="-6.544604">
        <ele>319.5</ele>
        <time>1970-01-01T00:00:00Z</time>
      </trkpt>
      <trkpt lat="39.710927" lon="-6.544366">
        <ele>319.4</ele>
        <time>1970-01-01T00:00:00Z</time>
      </trkpt>
      <trkpt lat="39.711125" lon="-6.543445">
        <ele>318.2</ele>
        <time>1970-01-01T00:00:00Z</time>
      </trkpt>
      <trkpt lat="39.711276" lon="-6.542933">
        <ele>315.9</ele>
        <time>1970-01-01T00:00:00Z</time>
      </trkpt>
      <trkpt lat="39.711563" lon="-6.542343">
        <ele>315.0</ele>
        <time>1970-01-01T00:00:00Z</time>
      </trkpt>
      <trkpt lat="39.711651" lon="-6.542219">
        <ele>315.0</ele>
        <time>1970-01-01T00:00:00Z</time>
      </trkpt>
      <trkpt lat="39.711713" lon="-6.542041">
        <ele>315.0</ele>
        <time>1970-01-01T00:00:00Z</time>
      </trkpt>
      <trkpt lat="39.711712" lon="-6.541811">
        <ele>315.0</ele>
        <time>1970-01-01T00:00:00Z</time>
      </trkpt>
      <trkpt lat="39.711743" lon="-6.541424">
        <ele>315.0</ele>
        <time>1970-01-01T00:00:00Z</time>
      </trkpt>
      <trkpt lat="39.712213" lon="-6.539719">
        <ele>312.6</ele>
        <time>1970-01-01T00:00:00Z</time>
      </trkpt>
      <trkpt lat="39.712256" lon="-6.539347">
        <ele>312.0</ele>
        <time>1970-01-01T00:00:00Z</time>
      </trkpt>
      <trkpt lat="39.712279" lon="-6.538959">
        <ele>311.4</ele>
        <time>1970-01-01T00:00:00Z</time>
      </trkpt>
      <trkpt lat="39.712327" lon="-6.538603">
        <ele>310.3</ele>
        <time>1970-01-01T00:00:00Z</time>
      </trkpt>
      <trkpt lat="39.712550" lon="-6.536559">
        <ele>305.2</ele>
        <time>1970-01-01T00:00:00Z</time>
      </trkpt>
      <trkpt lat="39.712619" lon="-6.535800">
        <ele>307.0</ele>
        <time>1970-01-01T00:00:00Z</time>
      </trkpt>
      <trkpt lat="39.712232" lon="-6.535547">
        <ele>307.6</ele>
        <time>1970-01-01T00:00:00Z</time>
      </trkpt>
      <trkpt lat="39.711772" lon="-6.535138">
        <ele>308.7</ele>
        <time>1970-01-01T00:00:00Z</time>
      </trkpt>
      <trkpt lat="39.711590" lon="-6.534929">
        <ele>308.5</ele>
        <time>1970-01-01T00:00:00Z</time>
      </trkpt>
      <trkpt lat="39.711354" lon="-6.534691">
        <ele>308.2</ele>
        <time>1970-01-01T00:00:00Z</time>
      </trkpt>
      <trkpt lat="39.710788" lon="-6.534218">
        <ele>307.1</ele>
        <time>1970-01-01T00:00:00Z</time>
      </trkpt>
      <trkpt lat="39.710574" lon="-6.534018">
        <ele>306.1</ele>
        <time>1970-01-01T00:00:00Z</time>
      </trkpt>
      <trkpt lat="39.710384" lon="-6.533771">
        <ele>304.4</ele>
        <time>1970-01-01T00:00:00Z</time>
      </trkpt>
      <trkpt lat="39.709722" lon="-6.533071">
        <ele>301.2</ele>
        <time>1970-01-01T00:00:00Z</time>
      </trkpt>
      <trkpt lat="39.709557" lon="-6.532929">
        <ele>301.5</ele>
        <time>1970-01-01T00:00:00Z</time>
      </trkpt>
      <trkpt lat="39.709336" lon="-6.532681">
        <ele>301.4</ele>
        <time>1970-01-01T00:00:00Z</time>
      </trkpt>
      <trkpt lat="39.709157" lon="-6.532568">
        <ele>302.4</ele>
        <time>1970-01-01T00:00:00Z</time>
      </trkpt>
      <trkpt lat="39.708516" lon="-6.532587">
        <ele>306.3</ele>
        <time>1970-01-01T00:00:00Z</time>
      </trkpt>
      <trkpt lat="39.708136" lon="-6.532475">
        <ele>305.3</ele>
        <time>1970-01-01T00:00:00Z</time>
      </trkpt>
      <trkpt lat="39.707808" lon="-6.532440">
        <ele>304.1</ele>
        <time>1970-01-01T00:00:00Z</time>
      </trkpt>
      <trkpt lat="39.707414" lon="-6.532335">
        <ele>300.8</ele>
        <time>1970-01-01T00:00:00Z</time>
      </trkpt>
      <trkpt lat="39.706919" lon="-6.532421">
        <ele>299.9</ele>
        <time>1970-01-01T00:00:00Z</time>
      </trkpt>
      <trkpt lat="39.706852" lon="-6.532458">
        <ele>300.1</ele>
        <time>1970-01-01T00:00:00Z</time>
      </trkpt>
      <trkpt lat="39.706746" lon="-6.532567">
        <ele>300.9</ele>
        <time>1970-01-01T00:00:00Z</time>
      </trkpt>
      <trkpt lat="39.706519" lon="-6.532900">
        <ele>303.0</ele>
        <time>1970-01-01T00:00:00Z</time>
      </trkpt>
      <trkpt lat="39.706168" lon="-6.532963">
        <ele>302.8</ele>
        <time>1970-01-01T00:00:00Z</time>
      </trkpt>
      <trkpt lat="39.705891" lon="-6.533042">
        <ele>302.7</ele>
        <time>1970-01-01T00:00:00Z</time>
      </trkpt>
      <trkpt lat="39.705749" lon="-6.533012">
        <ele>302.7</ele>
        <time>1970-01-01T00:00:00Z</time>
      </trkpt>
      <trkpt lat="39.705675" lon="-6.532909">
        <ele>303.0</ele>
        <time>1970-01-01T00:00:00Z</time>
      </trkpt>
      <trkpt lat="39.705561" lon="-6.532784">
        <ele>303.0</ele>
        <time>1970-01-01T00:00:00Z</time>
      </trkpt>
      <trkpt lat="39.705503" lon="-6.532804">
        <ele>302.7</ele>
        <time>1970-01-01T00:00:00Z</time>
      </trkpt>
      <trkpt lat="39.705412" lon="-6.532977">
        <ele>302.0</ele>
        <time>1970-01-01T00:00:00Z</time>
      </trkpt>
      <trkpt lat="39.705297" lon="-6.533097">
        <ele>302.0</ele>
        <time>1970-01-01T00:00:00Z</time>
      </trkpt>
      <trkpt lat="39.705117" lon="-6.533099">
        <ele>302.6</ele>
        <time>1970-01-01T00:00:00Z</time>
      </trkpt>
      <trkpt lat="39.704988" lon="-6.533022">
        <ele>303.0</ele>
        <time>1970-01-01T00:00:00Z</time>
      </trkpt>
      <trkpt lat="39.704769" lon="-6.532985">
        <ele>303.6</ele>
        <time>1970-01-01T00:00:00Z</time>
      </trkpt>
      <trkpt lat="39.704298" lon="-6.532953">
        <ele>303.6</ele>
        <time>1970-01-01T00:00:00Z</time>
      </trkpt>
      <trkpt lat="39.704052" lon="-6.532963">
        <ele>303.6</ele>
        <time>1970-01-01T00:00:00Z</time>
      </trkpt>
      <trkpt lat="39.703928" lon="-6.532990">
        <ele>303.4</ele>
        <time>1970-01-01T00:00:00Z</time>
      </trkpt>
      <trkpt lat="39.703812" lon="-6.532743">
        <ele>300.7</ele>
        <time>1970-01-01T00:00:00Z</time>
      </trkpt>
      <trkpt lat="39.703718" lon="-6.532635">
        <ele>299.4</ele>
        <time>1970-01-01T00:00:00Z</time>
      </trkpt>
      <trkpt lat="39.703735" lon="-6.532562">
        <ele>299.0</ele>
        <time>1970-01-01T00:00:00Z</time>
      </trkpt>
      <trkpt lat="39.703709" lon="-6.532383">
        <ele>297.6</ele>
        <time>1970-01-01T00:00:00Z</time>
      </trkpt>
      <trkpt lat="39.703642" lon="-6.532235">
        <ele>296.3</ele>
        <time>1970-01-01T00:00:00Z</time>
      </trkpt>
      <trkpt lat="39.703518" lon="-6.532019">
        <ele>294.2</ele>
        <time>1970-01-01T00:00:00Z</time>
      </trkpt>
      <trkpt lat="39.703395" lon="-6.531863">
        <ele>292.3</ele>
        <time>1970-01-01T00:00:00Z</time>
      </trkpt>
      <trkpt lat="39.703358" lon="-6.531793">
        <ele>291.5</ele>
        <time>1970-01-01T00:00:00Z</time>
      </trkpt>
      <trkpt lat="39.703212" lon="-6.531717">
        <ele>289.8</ele>
        <time>1970-01-01T00:00:00Z</time>
      </trkpt>
      <trkpt lat="39.703067" lon="-6.531707">
        <ele>288.4</ele>
        <time>1970-01-01T00:00:00Z</time>
      </trkpt>
      <trkpt lat="39.702812" lon="-6.531579">
        <ele>285.0</ele>
        <time>1970-01-01T00:00:00Z</time>
      </trkpt>
      <trkpt lat="39.702697" lon="-6.531597">
        <ele>283.3</ele>
        <time>1970-01-01T00:00:00Z</time>
      </trkpt>
      <trkpt lat="39.702581" lon="-6.531476">
        <ele>282.1</ele>
        <time>1970-01-01T00:00:00Z</time>
      </trkpt>
      <trkpt lat="39.702541" lon="-6.531475">
        <ele>281.6</ele>
        <time>1970-01-01T00:00:00Z</time>
      </trkpt>
      <trkpt lat="39.702477" lon="-6.531552">
        <ele>280.5</ele>
        <time>1970-01-01T00:00:00Z</time>
      </trkpt>
      <trkpt lat="39.702444" lon="-6.531571">
        <ele>280.0</ele>
        <time>1970-01-01T00:00:00Z</time>
      </trkpt>
      <trkpt lat="39.702371" lon="-6.531515">
        <ele>279.5</ele>
        <time>1970-01-01T00:00:00Z</time>
      </trkpt>
      <trkpt lat="39.702266" lon="-6.531391">
        <ele>278.8</ele>
        <time>1970-01-01T00:00:00Z</time>
      </trkpt>
      <trkpt lat="39.702160" lon="-6.531403">
        <ele>277.8</ele>
        <time>1970-01-01T00:00:00Z</time>
      </trkpt>
      <trkpt lat="39.702098" lon="-6.531356">
        <ele>277.5</ele>
        <time>1970-01-01T00:00:00Z</time>
      </trkpt>
      <trkpt lat="39.702084" lon="-6.531325">
        <ele>277.4</ele>
        <time>1970-01-01T00:00:00Z</time>
      </trkpt>
      <trkpt lat="39.701977" lon="-6.531213">
        <ele>277.3</ele>
        <time>1970-01-01T00:00:00Z</time>
      </trkpt>
      <trkpt lat="39.701895" lon="-6.531161">
        <ele>277.5</ele>
        <time>1970-01-01T00:00:00Z</time>
      </trkpt>
      <trkpt lat="39.701706" lon="-6.530939">
        <ele>278.0</ele>
        <time>1970-01-01T00:00:00Z</time>
      </trkpt>
      <trkpt lat="39.701630" lon="-6.530897">
        <ele>278.0</ele>
        <time>1970-01-01T00:00:00Z</time>
      </trkpt>
      <trkpt lat="39.701205" lon="-6.530807">
        <ele>278.0</ele>
        <time>1970-01-01T00:00:00Z</time>
      </trkpt>
      <trkpt lat="39.701169" lon="-6.530765">
        <ele>278.0</ele>
        <time>1970-01-01T00:00:00Z</time>
      </trkpt>
      <trkpt lat="39.701017" lon="-6.530678">
        <ele>277.9</ele>
        <time>1970-01-01T00:00:00Z</time>
      </trkpt>
      <trkpt lat="39.700936" lon="-6.530716">
        <ele>277.6</ele>
        <time>1970-01-01T00:00:00Z</time>
      </trkpt>
      <trkpt lat="39.700861" lon="-6.530818">
        <ele>277.3</ele>
        <time>1970-01-01T00:00:00Z</time>
      </trkpt>
      <trkpt lat="39.700818" lon="-6.530838">
        <ele>277.1</ele>
        <time>1970-01-01T00:00:00Z</time>
      </trkpt>
      <trkpt lat="39.700659" lon="-6.530783">
        <ele>276.5</ele>
        <time>1970-01-01T00:00:00Z</time>
      </trkpt>
      <trkpt lat="39.700620" lon="-6.530734">
        <ele>276.5</ele>
        <time>1970-01-01T00:00:00Z</time>
      </trkpt>
      <trkpt lat="39.700543" lon="-6.530775">
        <ele>276.3</ele>
        <time>1970-01-01T00:00:00Z</time>
      </trkpt>
      <trkpt lat="39.700287" lon="-6.530778">
        <ele>277.5</ele>
        <time>1970-01-01T00:00:00Z</time>
      </trkpt>
      <trkpt lat="39.700064" lon="-6.530765">
        <ele>279.6</ele>
        <time>1970-01-01T00:00:00Z</time>
      </trkpt>
      <trkpt lat="39.699995" lon="-6.530723">
        <ele>280.6</ele>
        <time>1970-01-01T00:00:00Z</time>
      </trkpt>
      <trkpt lat="39.699796" lon="-6.530750">
        <ele>283.6</ele>
        <time>1970-01-01T00:00:00Z</time>
      </trkpt>
      <trkpt lat="39.699540" lon="-6.530842">
        <ele>288.2</ele>
        <time>1970-01-01T00:00:00Z</time>
      </trkpt>
      <trkpt lat="39.699412" lon="-6.530801">
        <ele>291.0</ele>
        <time>1970-01-01T00:00:00Z</time>
      </trkpt>
      <trkpt lat="39.699380" lon="-6.530747">
        <ele>291.7</ele>
        <time>1970-01-01T00:00:00Z</time>
      </trkpt>
      <trkpt lat="39.699332" lon="-6.530715">
        <ele>292.7</ele>
        <time>1970-01-01T00:00:00Z</time>
      </trkpt>
      <trkpt lat="39.699264" lon="-6.530720">
        <ele>294.2</ele>
        <time>1970-01-01T00:00:00Z</time>
      </trkpt>
      <trkpt lat="39.699121" lon="-6.530856">
        <ele>296.8</ele>
        <time>1970-01-01T00:00:00Z</time>
      </trkpt>
      <trkpt lat="39.699079" lon="-6.530872">
        <ele>297.5</ele>
        <time>1970-01-01T00:00:00Z</time>
      </trkpt>
      <trkpt lat="39.698939" lon="-6.530825">
        <ele>300.1</ele>
        <time>1970-01-01T00:00:00Z</time>
      </trkpt>
      <trkpt lat="39.698868" lon="-6.530913">
        <ele>300.4</ele>
        <time>1970-01-01T00:00:00Z</time>
      </trkpt>
      <trkpt lat="39.698815" lon="-6.530890">
        <ele>301.2</ele>
        <time>1970-01-01T00:00:00Z</time>
      </trkpt>
      <trkpt lat="39.698546" lon="-6.530996">
        <ele>303.3</ele>
        <time>1970-01-01T00:00:00Z</time>
      </trkpt>
      <trkpt lat="39.698488" lon="-6.530957">
        <ele>304.8</ele>
        <time>1970-01-01T00:00:00Z</time>
      </trkpt>
      <trkpt lat="39.698301" lon="-6.530696">
        <ele>312.9</ele>
        <time>1970-01-01T00:00:00Z</time>
      </trkpt>
      <trkpt lat="39.698263" lon="-6.530679">
        <ele>314.0</ele>
        <time>1970-01-01T00:00:00Z</time>
      </trkpt>
      <trkpt lat="39.698238" lon="-6.530722">
        <ele>313.8</ele>
        <time>1970-01-01T00:00:00Z</time>
      </trkpt>
      <trkpt lat="39.698201" lon="-6.530754">
        <ele>314.1</ele>
        <time>1970-01-01T00:00:00Z</time>
      </trkpt>
      <trkpt lat="39.698166" lon="-6.530757">
        <ele>314.8</ele>
        <time>1970-01-01T00:00:00Z</time>
      </trkpt>
      <trkpt lat="39.698105" lon="-6.530667">
        <ele>317.7</ele>
        <time>1970-01-01T00:00:00Z</time>
      </trkpt>
      <trkpt lat="39.698058" lon="-6.530642">
        <ele>319.1</ele>
        <time>1970-01-01T00:00:00Z</time>
      </trkpt>
      <trkpt lat="39.697857" lon="-6.530660">
        <ele>322.5</ele>
        <time>1970-01-01T00:00:00Z</time>
      </trkpt>
      <trkpt lat="39.697829" lon="-6.530676">
        <ele>322.9</ele>
        <time>1970-01-01T00:00:00Z</time>
      </trkpt>
      <trkpt lat="39.697807" lon="-6.530798">
        <ele>322.6</ele>
        <time>1970-01-01T00:00:00Z</time>
      </trkpt>
      <trkpt lat="39.697753" lon="-6.530816">
        <ele>323.5</ele>
        <time>1970-01-01T00:00:00Z</time>
      </trkpt>
      <trkpt lat="39.697662" lon="-6.530821">
        <ele>325.1</ele>
        <time>1970-01-01T00:00:00Z</time>
      </trkpt>
      <trkpt lat="39.697557" lon="-6.530714">
        <ele>326.2</ele>
        <time>1970-01-01T00:00:00Z</time>
      </trkpt>
      <trkpt lat="39.697464" lon="-6.530674">
        <ele>325.7</ele>
        <time>1970-01-01T00:00:00Z</time>
      </trkpt>
      <trkpt lat="39.697222" lon="-6.530648">
        <ele>324.4</ele>
        <time>1970-01-01T00:00:00Z</time>
      </trkpt>
      <trkpt lat="39.697017" lon="-6.530555">
        <ele>321.7</ele>
        <time>1970-01-01T00:00:00Z</time>
      </trkpt>
      <trkpt lat="39.696751" lon="-6.530375">
        <ele>317.3</ele>
        <time>1970-01-01T00:00:00Z</time>
      </trkpt>
      <trkpt lat="39.696553" lon="-6.530197">
        <ele>313.9</ele>
        <time>1970-01-01T00:00:00Z</time>
      </trkpt>
      <trkpt lat="39.696483" lon="-6.530155">
        <ele>312.9</ele>
        <time>1970-01-01T00:00:00Z</time>
      </trkpt>
      <trkpt lat="39.696410" lon="-6.530136">
        <ele>312.2</ele>
        <time>1970-01-01T00:00:00Z</time>
      </trkpt>
      <trkpt lat="39.696371" lon="-6.530100">
        <ele>311.5</ele>
        <time>1970-01-01T00:00:00Z</time>
      </trkpt>
      <trkpt lat="39.696257" lon="-6.529971">
        <ele>309.9</ele>
        <time>1970-01-01T00:00:00Z</time>
      </trkpt>
      <trkpt lat="39.696105" lon="-6.529715">
        <ele>308.4</ele>
        <time>1970-01-01T00:00:00Z</time>
      </trkpt>
      <trkpt lat="39.696012" lon="-6.529650">
        <ele>307.6</ele>
        <time>1970-01-01T00:00:00Z</time>
      </trkpt>
      <trkpt lat="39.695931" lon="-6.529453">
        <ele>306.1</ele>
        <time>1970-01-01T00:00:00Z</time>
      </trkpt>
      <trkpt lat="39.695883" lon="-6.529368">
        <ele>306.2</ele>
        <time>1970-01-01T00:00:00Z</time>
      </trkpt>
      <trkpt lat="39.695824" lon="-6.528909">
        <ele>306.0</ele>
        <time>1970-01-01T00:00:00Z</time>
      </trkpt>
      <trkpt lat="39.695771" lon="-6.528837">
        <ele>305.5</ele>
        <time>1970-01-01T00:00:00Z</time>
      </trkpt>
      <trkpt lat="39.695477" lon="-6.528583">
        <ele>303.4</ele>
        <time>1970-01-01T00:00:00Z</time>
      </trkpt>
      <trkpt lat="39.695409" lon="-6.528400">
        <ele>302.0</ele>
        <time>1970-01-01T00:00:00Z</time>
      </trkpt>
      <trkpt lat="39.695091" lon="-6.527224">
        <ele>296.8</ele>
        <time>1970-01-01T00:00:00Z</time>
      </trkpt>
      <trkpt lat="39.694960" lon="-6.527009">
        <ele>298.4</ele>
        <time>1970-01-01T00:00:00Z</time>
      </trkpt>
      <trkpt lat="39.694957" lon="-6.526730">
        <ele>300.6</ele>
        <time>1970-01-01T00:00:00Z</time>
      </trkpt>
      <trkpt lat="39.694936" lon="-6.526591">
        <ele>301.8</ele>
        <time>1970-01-01T00:00:00Z</time>
      </trkpt>
      <trkpt lat="39.694804" lon="-6.526157">
        <ele>306.2</ele>
        <time>1970-01-01T00:00:00Z</time>
      </trkpt>
      <trkpt lat="39.694739" lon="-6.525998">
        <ele>307.4</ele>
        <time>1970-01-01T00:00:00Z</time>
      </trkpt>
      <trkpt lat="39.694639" lon="-6.525840">
        <ele>307.7</ele>
        <time>1970-01-01T00:00:00Z</time>
      </trkpt>
      <trkpt lat="39.694527" lon="-6.525699">
        <ele>308.0</ele>
        <time>1970-01-01T00:00:00Z</time>
      </trkpt>
      <trkpt lat="39.694422" lon="-6.525511">
        <ele>308.0</ele>
        <time>1970-01-01T00:00:00Z</time>
      </trkpt>
      <trkpt lat="39.694359" lon="-6.525201">
        <ele>308.0</ele>
        <time>1970-01-01T00:00:00Z</time>
      </trkpt>
      <trkpt lat="39.694225" lon="-6.525088">
        <ele>308.0</ele>
        <time>1970-01-01T00:00:00Z</time>
      </trkpt>
      <trkpt lat="39.693993" lon="-6.524427">
        <ele>306.7</ele>
        <time>1970-01-01T00:00:00Z</time>
      </trkpt>
      <trkpt lat="39.693901" lon="-6.524319">
        <ele>306.8</ele>
        <time>1970-01-01T00:00:00Z</time>
      </trkpt>
      <trkpt lat="39.693875" lon="-6.524229">
        <ele>306.5</ele>
        <time>1970-01-01T00:00:00Z</time>
      </trkpt>
      <trkpt lat="39.693796" lon="-6.524124">
        <ele>306.6</ele>
        <time>1970-01-01T00:00:00Z</time>
      </trkpt>
      <trkpt lat="39.693702" lon="-6.524030">
        <ele>306.8</ele>
        <time>1970-01-01T00:00:00Z</time>
      </trkpt>
      <trkpt lat="39.693635" lon="-6.523933">
        <ele>306.5</ele>
        <time>1970-01-01T00:00:00Z</time>
      </trkpt>
      <trkpt lat="39.693589" lon="-6.523812">
        <ele>306.4</ele>
        <time>1970-01-01T00:00:00Z</time>
      </trkpt>
      <trkpt lat="39.693530" lon="-6.523728">
        <ele>306.8</ele>
        <time>1970-01-01T00:00:00Z</time>
      </trkpt>
      <trkpt lat="39.693166" lon="-6.523426">
        <ele>308.3</ele>
        <time>1970-01-01T00:00:00Z</time>
      </trkpt>
      <trkpt lat="39.693052" lon="-6.523259">
        <ele>307.1</ele>
        <time>1970-01-01T00:00:00Z</time>
      </trkpt>
      <trkpt lat="39.692908" lon="-6.523237">
        <ele>306.4</ele>
        <time>1970-01-01T00:00:00Z</time>
      </trkpt>
      <trkpt lat="39.692642" lon="-6.523266">
        <ele>304.7</ele>
        <time>1970-01-01T00:00:00Z</time>
      </trkpt>
      <trkpt lat="39.692442" lon="-6.523337">
        <ele>304.0</ele>
        <time>1970-01-01T00:00:00Z</time>
      </trkpt>
      <trkpt lat="39.692163" lon="-6.523365">
        <ele>303.3</ele>
        <time>1970-01-01T00:00:00Z</time>
      </trkpt>
      <trkpt lat="39.692046" lon="-6.523396">
        <ele>303.1</ele>
        <time>1970-01-01T00:00:00Z</time>
      </trkpt>
      <trkpt lat="39.691934" lon="-6.523368">
        <ele>303.2</ele>
        <time>1970-01-01T00:00:00Z</time>
      </trkpt>
      <trkpt lat="39.691608" lon="-6.523235">
        <ele>305.2</ele>
        <time>1970-01-01T00:00:00Z</time>
      </trkpt>
      <trkpt lat="39.691474" lon="-6.523149">
        <ele>306.2</ele>
        <time>1970-01-01T00:00:00Z</time>
      </trkpt>
      <trkpt lat="39.691338" lon="-6.523162">
        <ele>306.9</ele>
        <time>1970-01-01T00:00:00Z</time>
      </trkpt>
      <trkpt lat="39.691193" lon="-6.523103">
        <ele>308.0</ele>
        <time>1970-01-01T00:00:00Z</time>
      </trkpt>
      <trkpt lat="39.690816" lon="-6.523002">
        <ele>308.7</ele>
        <time>1970-01-01T00:00:00Z</time>
      </trkpt>
      <trkpt lat="39.690689" lon="-6.522998">
        <ele>307.6</ele>
        <time>1970-01-01T00:00:00Z</time>
      </trkpt>
      <trkpt lat="39.690484" lon="-6.522963">
        <ele>305.4</ele>
        <time>1970-01-01T00:00:00Z</time>
      </trkpt>
      <trkpt lat="39.690384" lon="-6.522980">
        <ele>304.2</ele>
        <time>1970-01-01T00:00:00Z</time>
      </trkpt>
      <trkpt lat="39.690181" lon="-6.523145">
        <ele>302.3</ele>
        <time>1970-01-01T00:00:00Z</time>
      </trkpt>
      <trkpt lat="39.689974" lon="-6.523357">
        <ele>300.5</ele>
        <time>1970-01-01T00:00:00Z</time>
      </trkpt>
      <trkpt lat="39.689851" lon="-6.523405">
        <ele>299.7</ele>
        <time>1970-01-01T00:00:00Z</time>
      </trkpt>
      <trkpt lat="39.689693" lon="-6.523513">
        <ele>299.5</ele>
        <time>1970-01-01T00:00:00Z</time>
      </trkpt>
      <trkpt lat="39.689291" lon="-6.523897">
        <ele>298.5</ele>
        <time>1970-01-01T00:00:00Z</time>
      </trkpt>
      <trkpt lat="39.689137" lon="-6.524003">
        <ele>297.4</ele>
        <time>1970-01-01T00:00:00Z</time>
      </trkpt>
      <trkpt lat="39.688996" lon="-6.524069">
        <ele>295.9</ele>
        <time>1970-01-01T00:00:00Z</time>
      </trkpt>
      <trkpt lat="39.688905" lon="-6.524092">
        <ele>295.6</ele>
        <time>1970-01-01T00:00:00Z</time>
      </trkpt>
      <trkpt lat="39.688828" lon="-6.524184">
        <ele>295.8</ele>
        <time>1970-01-01T00:00:00Z</time>
      </trkpt>
      <trkpt lat="39.688706" lon="-6.524252">
        <ele>295.5</ele>
        <time>1970-01-01T00:00:00Z</time>
      </trkpt>
      <trkpt lat="39.688234" lon="-6.524413">
        <ele>296.7</ele>
        <time>1970-01-01T00:00:00Z</time>
      </trkpt>
      <trkpt lat="39.688076" lon="-6.524482">
        <ele>297.3</ele>
        <time>1970-01-01T00:00:00Z</time>
      </trkpt>
      <trkpt lat="39.687729" lon="-6.524666">
        <ele>302.8</ele>
        <time>1970-01-01T00:00:00Z</time>
      </trkpt>
      <trkpt lat="39.687489" lon="-6.524706">
        <ele>306.1</ele>
        <time>1970-01-01T00:00:00Z</time>
      </trkpt>
      <trkpt lat="39.687241" lon="-6.524723">
        <ele>308.7</ele>
        <time>1970-01-01T00:00:00Z</time>
      </trkpt>
      <trkpt lat="39.686666" lon="-6.524701">
        <ele>312.0</ele>
        <time>1970-01-01T00:00:00Z</time>
      </trkpt>
      <trkpt lat="39.686387" lon="-6.524771">
        <ele>311.8</ele>
        <time>1970-01-01T00:00:00Z</time>
      </trkpt>
      <trkpt lat="39.686277" lon="-6.524827">
        <ele>311.3</ele>
        <time>1970-01-01T00:00:00Z</time>
      </trkpt>
      <trkpt lat="39.686115" lon="-6.524693">
        <ele>311.4</ele>
        <time>1970-01-01T00:00:00Z</time>
      </trkpt>
      <trkpt lat="39.685938" lon="-6.524504">
        <ele>312.2</ele>
        <time>1970-01-01T00:00:00Z</time>
      </trkpt>
      <trkpt lat="39.685045" lon="-6.523404">
        <ele>332.1</ele>
        <time>1970-01-01T00:00:00Z</time>
      </trkpt>
      <trkpt lat="39.684772" lon="-6.523045">
        <ele>335.7</ele>
        <time>1970-01-01T00:00:00Z</time>
      </trkpt>
      <trkpt lat="39.684635" lon="-6.523036">
        <ele>335.9</ele>
        <time>1970-01-01T00:00:00Z</time>
      </trkpt>
      <trkpt lat="39.684466" lon="-6.522928">
        <ele>335.4</ele>
        <time>1970-01-01T00:00:00Z</time>
      </trkpt>
      <trkpt lat="39.684131" lon="-6.522677">
        <ele>331.7</ele>
        <time>1970-01-01T00:00:00Z</time>
      </trkpt>
      <trkpt lat="39.683735" lon="-6.522282">
        <ele>327.3</ele>
        <time>1970-01-01T00:00:00Z</time>
      </trkpt>
      <trkpt lat="39.683557" lon="-6.522031">
        <ele>325.2</ele>
        <time>1970-01-01T00:00:00Z</time>
      </trkpt>
      <trkpt lat="39.683145" lon="-6.521556">
        <ele>320.0</ele>
        <time>1970-01-01T00:00:00Z</time>
      </trkpt>
      <trkpt lat="39.683059" lon="-6.521428">
        <ele>319.1</ele>
        <time>1970-01-01T00:00:00Z</time>
      </trkpt>
      <trkpt lat="39.682803" lon="-6.521186">
        <ele>317.0</ele>
        <time>1970-01-01T00:00:00Z</time>
      </trkpt>
      <trkpt lat="39.682651" lon="-6.521062">
        <ele>315.4</ele>
        <time>1970-01-01T00:00:00Z</time>
      </trkpt>
      <trkpt lat="39.682548" lon="-6.520938">
        <ele>313.9</ele>
        <time>1970-01-01T00:00:00Z</time>
      </trkpt>
      <trkpt lat="39.682414" lon="-6.520820">
        <ele>312.7</ele>
        <time>1970-01-01T00:00:00Z</time>
      </trkpt>
      <trkpt lat="39.682493" lon="-6.520728">
        <ele>311.9</ele>
        <time>1970-01-01T00:00:00Z</time>
      </trkpt>
      <trkpt lat="39.682411" lon="-6.520650">
        <ele>311.2</ele>
        <time>1970-01-01T00:00:00Z</time>
      </trkpt>
      <trkpt lat="39.682333" lon="-6.520656">
        <ele>311.3</ele>
        <time>1970-01-01T00:00:00Z</time>
      </trkpt>
      <trkpt lat="39.682265" lon="-6.520709">
        <ele>311.8</ele>
        <time>1970-01-01T00:00:00Z</time>
      </trkpt>
      <trkpt lat="39.682205" lon="-6.520736">
        <ele>312.1</ele>
        <time>1970-01-01T00:00:00Z</time>
      </trkpt>
      <trkpt lat="39.682277" lon="-6.520512">
        <ele>310.1</ele>
        <time>1970-01-01T00:00:00Z</time>
      </trkpt>
      <trkpt lat="39.682208" lon="-6.520566">
        <ele>310.8</ele>
        <time>1970-01-01T00:00:00Z</time>
      </trkpt>
      <trkpt lat="39.682135" lon="-6.520663">
        <ele>311.9</ele>
        <time>1970-01-01T00:00:00Z</time>
      </trkpt>
      <trkpt lat="39.682092" lon="-6.520691">
        <ele>312.2</ele>
        <time>1970-01-01T00:00:00Z</time>
      </trkpt>
      <trkpt lat="39.682049" lon="-6.520656">
        <ele>312.2</ele>
        <time>1970-01-01T00:00:00Z</time>
      </trkpt>
      <trkpt lat="39.682068" lon="-6.520539">
        <ele>311.2</ele>
        <time>1970-01-01T00:00:00Z</time>
      </trkpt>
      <trkpt lat="39.682065" lon="-6.520435">
        <ele>310.3</ele>
        <time>1970-01-01T00:00:00Z</time>
      </trkpt>
      <trkpt lat="39.682044" lon="-6.520316">
        <ele>309.7</ele>
        <time>1970-01-01T00:00:00Z</time>
      </trkpt>
      <trkpt lat="39.681961" lon="-6.520173">
        <ele>309.5</ele>
        <time>1970-01-01T00:00:00Z</time>
      </trkpt>
      <trkpt lat="39.681847" lon="-6.520024">
        <ele>308.6</ele>
        <time>1970-01-01T00:00:00Z</time>
      </trkpt>
      <trkpt lat="39.681691" lon="-6.519903">
        <ele>308.2</ele>
        <time>1970-01-01T00:00:00Z</time>
      </trkpt>
      <trkpt lat="39.681616" lon="-6.519906">
        <ele>308.6</ele>
        <time>1970-01-01T00:00:00Z</time>
      </trkpt>
      <trkpt lat="39.681552" lon="-6.519933">
        <ele>309.2</ele>
        <time>1970-01-01T00:00:00Z</time>
      </trkpt>
      <trkpt lat="39.681510" lon="-6.520012">
        <ele>310.0</ele>
        <time>1970-01-01T00:00:00Z</time>
      </trkpt>
      <trkpt lat="39.681463" lon="-6.520059">
        <ele>310.7</ele>
        <time>1970-01-01T00:00:00Z</time>
      </trkpt>
      <trkpt lat="39.681412" lon="-6.520086">
        <ele>311.1</ele>
        <time>1970-01-01T00:00:00Z</time>
      </trkpt>
      <trkpt lat="39.681356" lon="-6.520049">
        <ele>311.0</ele>
        <time>1970-01-01T00:00:00Z</time>
      </trkpt>
      <trkpt lat="39.681278" lon="-6.519598">
        <ele>305.2</ele>
        <time>1970-01-01T00:00:00Z</time>
      </trkpt>
      <trkpt lat="39.681190" lon="-6.519445">
        <ele>303.4</ele>
        <time>1970-01-01T00:00:00Z</time>
      </trkpt>
      <trkpt lat="39.681074" lon="-6.519316">
        <ele>301.4</ele>
        <time>1970-01-01T00:00:00Z</time>
      </trkpt>
      <trkpt lat="39.680940" lon="-6.519139">
        <ele>298.4</ele>
        <time>1970-01-01T00:00:00Z</time>
      </trkpt>
      <trkpt lat="39.680706" lon="-6.518918">
        <ele>294.1</ele>
        <time>1970-01-01T00:00:00Z</time>
      </trkpt>
      <trkpt lat="39.680467" lon="-6.518634">
        <ele>290.0</ele>
        <time>1970-01-01T00:00:00Z</time>
      </trkpt>
      <trkpt lat="39.680353" lon="-6.518567">
        <ele>289.6</ele>
        <time>1970-01-01T00:00:00Z</time>
      </trkpt>
      <trkpt lat="39.680301" lon="-6.518581">
        <ele>289.9</ele>
        <time>1970-01-01T00:00:00Z</time>
      </trkpt>
      <trkpt lat="39.680203" lon="-6.518650">
        <ele>290.9</ele>
        <time>1970-01-01T00:00:00Z</time>
      </trkpt>
      <trkpt lat="39.680117" lon="-6.518725">
        <ele>291.9</ele>
        <time>1970-01-01T00:00:00Z</time>
      </trkpt>
      <trkpt lat="39.680040" lon="-6.519005">
        <ele>294.0</ele>
        <time>1970-01-01T00:00:00Z</time>
      </trkpt>
      <trkpt lat="39.679999" lon="-6.519037">
        <ele>294.3</ele>
        <time>1970-01-01T00:00:00Z</time>
      </trkpt>
      <trkpt lat="39.679906" lon="-6.518847">
        <ele>293.6</ele>
        <time>1970-01-01T00:00:00Z</time>
      </trkpt>
      <trkpt lat="39.679848" lon="-6.518684">
        <ele>292.9</ele>
        <time>1970-01-01T00:00:00Z</time>
      </trkpt>
      <trkpt lat="39.679855" lon="-6.518586">
        <ele>292.3</ele>
        <time>1970-01-01T00:00:00Z</time>
      </trkpt>
      <trkpt lat="39.679944" lon="-6.518227">
        <ele>288.6</ele>
        <time>1970-01-01T00:00:00Z</time>
      </trkpt>
      <trkpt lat="39.679936" lon="-6.518094">
        <ele>287.5</ele>
        <time>1970-01-01T00:00:00Z</time>
      </trkpt>
      <trkpt lat="39.679904" lon="-6.517956">
        <ele>287.2</ele>
        <time>1970-01-01T00:00:00Z</time>
      </trkpt>
      <trkpt lat="39.679856" lon="-6.517836">
        <ele>286.9</ele>
        <time>1970-01-01T00:00:00Z</time>
      </trkpt>
      <trkpt lat="39.679814" lon="-6.517789">
        <ele>287.0</ele>
        <time>1970-01-01T00:00:00Z</time>
      </trkpt>
      <trkpt lat="39.679641" lon="-6.517696">
        <ele>288.9</ele>
        <time>1970-01-01T00:00:00Z</time>
      </trkpt>
      <trkpt lat="39.679309" lon="-6.517356">
        <ele>290.2</ele>
        <time>1970-01-01T00:00:00Z</time>
      </trkpt>
      <trkpt lat="39.679102" lon="-6.517250">
        <ele>291.8</ele>
        <time>1970-01-01T00:00:00Z</time>
      </trkpt>
      <trkpt lat="39.679051" lon="-6.517180">
        <ele>291.4</ele>
        <time>1970-01-01T00:00:00Z</time>
      </trkpt>
      <trkpt lat="39.678848" lon="-6.517010">
        <ele>289.6</ele>
        <time>1970-01-01T00:00:00Z</time>
      </trkpt>
      <trkpt lat="39.678802" lon="-6.516906">
        <ele>287.8</ele>
        <time>1970-01-01T00:00:00Z</time>
      </trkpt>
      <trkpt lat="39.678724" lon="-6.516821">
        <ele>286.8</ele>
        <time>1970-01-01T00:00:00Z</time>
      </trkpt>
      <trkpt lat="39.678565" lon="-6.516791">
        <ele>287.2</ele>
        <time>1970-01-01T00:00:00Z</time>
      </trkpt>
      <trkpt lat="39.678435" lon="-6.516853">
        <ele>289.1</ele>
        <time>1970-01-01T00:00:00Z</time>
      </trkpt>
      <trkpt lat="39.678374" lon="-6.516786">
        <ele>288.0</ele>
        <time>1970-01-01T00:00:00Z</time>
      </trkpt>
      <trkpt lat="39.678327" lon="-6.516712">
        <ele>286.6</ele>
        <time>1970-01-01T00:00:00Z</time>
      </trkpt>
      <trkpt lat="39.678286" lon="-6.516614">
        <ele>284.6</ele>
        <time>1970-01-01T00:00:00Z</time>
      </trkpt>
      <trkpt lat="39.678218" lon="-6.516524">
        <ele>283.0</ele>
        <time>1970-01-01T00:00:00Z</time>
      </trkpt>
      <trkpt lat="39.678076" lon="-6.516433">
        <ele>281.2</ele>
        <time>1970-01-01T00:00:00Z</time>
      </trkpt>
      <trkpt lat="39.677991" lon="-6.516406">
        <ele>280.2</ele>
        <time>1970-01-01T00:00:00Z</time>
      </trkpt>
      <trkpt lat="39.677906" lon="-6.516399">
        <ele>279.8</ele>
        <time>1970-01-01T00:00:00Z</time>
      </trkpt>
      <trkpt lat="39.677812" lon="-6.516414">
        <ele>279.5</ele>
        <time>1970-01-01T00:00:00Z</time>
      </trkpt>
      <trkpt lat="39.677772" lon="-6.516459">
        <ele>280.0</ele>
        <time>1970-01-01T00:00:00Z</time>
      </trkpt>
      <trkpt lat="39.677754" lon="-6.516555">
        <ele>282.0</ele>
        <time>1970-01-01T00:00:00Z</time>
      </trkpt>
      <trkpt lat="39.677747" lon="-6.516724">
        <ele>285.4</ele>
        <time>1970-01-01T00:00:00Z</time>
      </trkpt>
      <trkpt lat="39.677593" lon="-6.516643">
        <ele>282.8</ele>
        <time>1970-01-01T00:00:00Z</time>
      </trkpt>
      <trkpt lat="39.677486" lon="-6.516652">
        <ele>282.6</ele>
        <time>1970-01-01T00:00:00Z</time>
      </trkpt>
      <trkpt lat="39.677354" lon="-6.516620">
        <ele>281.3</ele>
        <time>1970-01-01T00:00:00Z</time>
      </trkpt>
      <trkpt lat="39.677300" lon="-6.516578">
        <ele>280.3</ele>
        <time>1970-01-01T00:00:00Z</time>
      </trkpt>
      <trkpt lat="39.677241" lon="-6.516393">
        <ele>277.3</ele>
        <time>1970-01-01T00:00:00Z</time>
      </trkpt>
      <trkpt lat="39.677180" lon="-6.516316">
        <ele>276.1</ele>
        <time>1970-01-01T00:00:00Z</time>
      </trkpt>
      <trkpt lat="39.677132" lon="-6.516212">
        <ele>274.6</ele>
        <time>1970-01-01T00:00:00Z</time>
      </trkpt>
      <trkpt lat="39.677088" lon="-6.516020">
        <ele>273.2</ele>
        <time>1970-01-01T00:00:00Z</time>
      </trkpt>
      <trkpt lat="39.677049" lon="-6.515929">
        <ele>272.1</ele>
        <time>1970-01-01T00:00:00Z</time>
      </trkpt>
      <trkpt lat="39.676885" lon="-6.515736">
        <ele>270.0</ele>
        <time>1970-01-01T00:00:00Z</time>
      </trkpt>
      <trkpt lat="39.676825" lon="-6.515691">
        <ele>269.8</ele>
        <time>1970-01-01T00:00:00Z</time>
      </trkpt>
      <trkpt lat="39.676733" lon="-6.515656">
        <ele>269.6</ele>
        <time>1970-01-01T00:00:00Z</time>
      </trkpt>
      <trkpt lat="39.676674" lon="-6.515656">
        <ele>269.6</ele>
        <time>1970-01-01T00:00:00Z</time>
      </trkpt>
      <trkpt lat="39.676469" lon="-6.515744">
        <ele>270.6</ele>
        <time>1970-01-01T00:00:00Z</time>
      </trkpt>
      <trkpt lat="39.676455" lon="-6.515692">
        <ele>270.0</ele>
        <time>1970-01-01T00:00:00Z</time>
      </trkpt>
      <trkpt lat="39.676512" lon="-6.515463">
        <ele>267.4</ele>
        <time>1970-01-01T00:00:00Z</time>
      </trkpt>
      <trkpt lat="39.676460" lon="-6.515411">
        <ele>267.1</ele>
        <time>1970-01-01T00:00:00Z</time>
      </trkpt>
      <trkpt lat="39.676410" lon="-6.515411">
        <ele>267.3</ele>
        <time>1970-01-01T00:00:00Z</time>
      </trkpt>
      <trkpt lat="39.676338" lon="-6.515350">
        <ele>267.1</ele>
        <time>1970-01-01T00:00:00Z</time>
      </trkpt>
      <trkpt lat="39.676156" lon="-6.515314">
        <ele>266.6</ele>
        <time>1970-01-01T00:00:00Z</time>
      </trkpt>
      <trkpt lat="39.676081" lon="-6.515332">
        <ele>266.5</ele>
        <time>1970-01-01T00:00:00Z</time>
      </trkpt>
      <trkpt lat="39.676027" lon="-6.515369">
        <ele>266.6</ele>
        <time>1970-01-01T00:00:00Z</time>
      </trkpt>
      <trkpt lat="39.675911" lon="-6.515523">
        <ele>267.4</ele>
        <time>1970-01-01T00:00:00Z</time>
      </trkpt>
      <trkpt lat="39.675834" lon="-6.515495">
        <ele>266.8</ele>
        <time>1970-01-01T00:00:00Z</time>
      </trkpt>
      <trkpt lat="39.675707" lon="-6.515279">
        <ele>264.9</ele>
        <time>1970-01-01T00:00:00Z</time>
      </trkpt>
      <trkpt lat="39.675734" lon="-6.515016">
        <ele>263.2</ele>
        <time>1970-01-01T00:00:00Z</time>
      </trkpt>
      <trkpt lat="39.675839" lon="-6.514777">
        <ele>261.5</ele>
        <time>1970-01-01T00:00:00Z</time>
      </trkpt>
      <trkpt lat="39.675844" lon="-6.514725">
        <ele>261.1</ele>
        <time>1970-01-01T00:00:00Z</time>
      </trkpt>
      <trkpt lat="39.675733" lon="-6.514801">
        <ele>261.4</ele>
        <time>1970-01-01T00:00:00Z</time>
      </trkpt>
      <trkpt lat="39.675708" lon="-6.514746">
        <ele>260.8</ele>
        <time>1970-01-01T00:00:00Z</time>
      </trkpt>
      <trkpt lat="39.675700" lon="-6.514679">
        <ele>260.2</ele>
        <time>1970-01-01T00:00:00Z</time>
      </trkpt>
      <trkpt lat="39.675593" lon="-6.514693">
        <ele>259.8</ele>
        <time>1970-01-01T00:00:00Z</time>
      </trkpt>
      <trkpt lat="39.675483" lon="-6.514749">
        <ele>259.3</ele>
        <time>1970-01-01T00:00:00Z</time>
      </trkpt>
      <trkpt lat="39.675370" lon="-6.514766">
        <ele>258.4</ele>
        <time>1970-01-01T00:00:00Z</time>
      </trkpt>
      <trkpt lat="39.675193" lon="-6.514828">
        <ele>257.6</ele>
        <time>1970-01-01T00:00:00Z</time>
      </trkpt>
      <trkpt lat="39.675126" lon="-6.514889">
        <ele>257.8</ele>
        <time>1970-01-01T00:00:00Z</time>
      </trkpt>
      <trkpt lat="39.674999" lon="-6.515114">
        <ele>259.4</ele>
        <time>1970-01-01T00:00:00Z</time>
      </trkpt>
      <trkpt lat="39.674911" lon="-6.515125">
        <ele>258.4</ele>
        <time>1970-01-01T00:00:00Z</time>
      </trkpt>
      <trkpt lat="39.674853" lon="-6.515107">
        <ele>257.3</ele>
        <time>1970-01-01T00:00:00Z</time>
      </trkpt>
      <trkpt lat="39.674820" lon="-6.515034">
        <ele>255.4</ele>
        <time>1970-01-01T00:00:00Z</time>
      </trkpt>
      <trkpt lat="39.674817" lon="-6.514950">
        <ele>253.9</ele>
        <time>1970-01-01T00:00:00Z</time>
      </trkpt>
      <trkpt lat="39.674729" lon="-6.514980">
        <ele>252.9</ele>
        <time>1970-01-01T00:00:00Z</time>
      </trkpt>
      <trkpt lat="39.674659" lon="-6.515077">
        <ele>253.4</ele>
        <time>1970-01-01T00:00:00Z</time>
      </trkpt>
      <trkpt lat="39.674502" lon="-6.515222">
        <ele>253.2</ele>
        <time>1970-01-01T00:00:00Z</time>
      </trkpt>
      <trkpt lat="39.674462" lon="-6.515285">
        <ele>253.7</ele>
        <time>1970-01-01T00:00:00Z</time>
      </trkpt>
      <trkpt lat="39.674306" lon="-6.515462">
        <ele>252.1</ele>
        <time>1970-01-01T00:00:00Z</time>
      </trkpt>
      <trkpt lat="39.674164" lon="-6.515689">
        <ele>251.0</ele>
        <time>1970-01-01T00:00:00Z</time>
      </trkpt>
      <trkpt lat="39.674090" lon="-6.515589">
        <ele>246.5</ele>
        <time>1970-01-01T00:00:00Z</time>
      </trkpt>
      <trkpt lat="39.674036" lon="-6.515697">
        <ele>246.2</ele>
        <time>1970-01-01T00:00:00Z</time>
      </trkpt>
      <trkpt lat="39.673767" lon="-6.516083">
        <ele>243.7</ele>
        <time>1970-01-01T00:00:00Z</time>
      </trkpt>
      <trkpt lat="39.673646" lon="-6.516242">
        <ele>242.8</ele>
        <time>1970-01-01T00:00:00Z</time>
      </trkpt>
      <trkpt lat="39.673496" lon="-6.516400">
        <ele>241.8</ele>
        <time>1970-01-01T00:00:00Z</time>
      </trkpt>
      <trkpt lat="39.673342" lon="-6.516459">
        <ele>239.9</ele>
        <time>1970-01-01T00:00:00Z</time>
      </trkpt>
      <trkpt lat="39.673139" lon="-6.516478">
        <ele>237.3</ele>
        <time>1970-01-01T00:00:00Z</time>
      </trkpt>
      <trkpt lat="39.673026" lon="-6.516440">
        <ele>235.8</ele>
        <time>1970-01-01T00:00:00Z</time>
      </trkpt>
      <trkpt lat="39.672942" lon="-6.516357">
        <ele>234.6</ele>
        <time>1970-01-01T00:00:00Z</time>
      </trkpt>
      <trkpt lat="39.672829" lon="-6.516184">
        <ele>233.4</ele>
        <time>1970-01-01T00:00:00Z</time>
      </trkpt>
      <trkpt lat="39.672796" lon="-6.516029">
        <ele>232.3</ele>
        <time>1970-01-01T00:00:00Z</time>
      </trkpt>
      <trkpt lat="39.672794" lon="-6.515523">
        <ele>228.9</ele>
        <time>1970-01-01T00:00:00Z</time>
      </trkpt>
      <trkpt lat="39.672776" lon="-6.515234">
        <ele>225.8</ele>
        <time>1970-01-01T00:00:00Z</time>
      </trkpt>
      <trkpt lat="39.672753" lon="-6.513616">
        <ele>209.5</ele>
        <time>1970-01-01T00:00:00Z</time>
      </trkpt>
      <trkpt lat="39.672711" lon="-6.513469">
        <ele>207.9</ele>
        <time>1970-01-01T00:00:00Z</time>
      </trkpt>
      <trkpt lat="39.672683" lon="-6.512582">
        <ele>203.0</ele>
        <time>1970-01-01T00:00:00Z</time>
      </trkpt>
      <trkpt lat="39.672635" lon="-6.511730">
        <ele>206.1</ele>
        <time>1970-01-01T00:00:00Z</time>
      </trkpt>
      <trkpt lat="39.672751" lon="-6.511729">
        <ele>205.6</ele>
        <time>1970-01-01T00:00:00Z</time>
      </trkpt>
      <trkpt lat="39.673268" lon="-6.511040">
        <ele>205.6</ele>
        <time>1970-01-01T00:00:00Z</time>
      </trkpt>
      <trkpt lat="39.673556" lon="-6.510775">
        <ele>201.4</ele>
        <time>1970-01-01T00:00:00Z</time>
      </trkpt>
      <trkpt lat="39.673907" lon="-6.510389">
        <ele>195.7</ele>
        <time>1970-01-01T00:00:00Z</time>
      </trkpt>
      <trkpt lat="39.674300" lon="-6.509863">
        <ele>194.2</ele>
        <time>1970-01-01T00:00:00Z</time>
      </trkpt>
      <trkpt lat="39.674348" lon="-6.509740">
        <ele>194.3</ele>
        <time>1970-01-01T00:00:00Z</time>
      </trkpt>
      <trkpt lat="39.674348" lon="-6.509661">
        <ele>194.6</ele>
        <time>1970-01-01T00:00:00Z</time>
      </trkpt>
      <trkpt lat="39.674193" lon="-6.509574">
        <ele>195.7</ele>
        <time>1970-01-01T00:00:00Z</time>
      </trkpt>
      <trkpt lat="39.674105" lon="-6.509501">
        <ele>196.4</ele>
        <time>1970-01-01T00:00:00Z</time>
      </trkpt>
      <trkpt lat="39.674030" lon="-6.509460">
        <ele>196.9</ele>
        <time>1970-01-01T00:00:00Z</time>
      </trkpt>
      <trkpt lat="39.673926" lon="-6.509425">
        <ele>197.6</ele>
        <time>1970-01-01T00:00:00Z</time>
      </trkpt>
      <trkpt lat="39.673770" lon="-6.509348">
        <ele>199.5</ele>
        <time>1970-01-01T00:00:00Z</time>
      </trkpt>
      <trkpt lat="39.673664" lon="-6.509350">
        <ele>200.7</ele>
        <time>1970-01-01T00:00:00Z</time>
      </trkpt>
      <trkpt lat="39.673600" lon="-6.509324">
        <ele>201.5</ele>
        <time>1970-01-01T00:00:00Z</time>
      </trkpt>
      <trkpt lat="39.673463" lon="-6.509310">
        <ele>203.2</ele>
        <time>1970-01-01T00:00:00Z</time>
      </trkpt>
      <trkpt lat="39.673383" lon="-6.509232">
        <ele>203.8</ele>
        <time>1970-01-01T00:00:00Z</time>
      </trkpt>
      <trkpt lat="39.673302" lon="-6.509208">
        <ele>204.3</ele>
        <time>1970-01-01T00:00:00Z</time>
      </trkpt>
      <trkpt lat="39.673060" lon="-6.509255">
        <ele>205.8</ele>
        <time>1970-01-01T00:00:00Z</time>
      </trkpt>
      <trkpt lat="39.672936" lon="-6.509259">
        <ele>206.3</ele>
        <time>1970-01-01T00:00:00Z</time>
      </trkpt>
      <trkpt lat="39.672796" lon="-6.509212">
        <ele>206.7</ele>
        <time>1970-01-01T00:00:00Z</time>
      </trkpt>
      <trkpt lat="39.672647" lon="-6.509286">
        <ele>207.7</ele>
        <time>1970-01-01T00:00:00Z</time>
      </trkpt>
      <trkpt lat="39.672267" lon="-6.509269">
        <ele>208.9</ele>
        <time>1970-01-01T00:00:00Z</time>
      </trkpt>
      <trkpt lat="39.672184" lon="-6.509307">
        <ele>209.3</ele>
        <time>1970-01-01T00:00:00Z</time>
      </trkpt>
      <trkpt lat="39.672107" lon="-6.509367">
        <ele>210.1</ele>
        <time>1970-01-01T00:00:00Z</time>
      </trkpt>
      <trkpt lat="39.672048" lon="-6.509448">
        <ele>211.5</ele>
        <time>1970-01-01T00:00:00Z</time>
      </trkpt>
      <trkpt lat="39.671993" lon="-6.509482">
        <ele>212.4</ele>
        <time>1970-01-01T00:00:00Z</time>
      </trkpt>
      <trkpt lat="39.671912" lon="-6.509506">
        <ele>213.5</ele>
        <time>1970-01-01T00:00:00Z</time>
      </trkpt>
      <trkpt lat="39.671844" lon="-6.509487">
        <ele>213.7</ele>
        <time>1970-01-01T00:00:00Z</time>
      </trkpt>
      <trkpt lat="39.671784" lon="-6.509418">
        <ele>213.2</ele>
        <time>1970-01-01T00:00:00Z</time>
      </trkpt>
      <trkpt lat="39.671715" lon="-6.509296">
        <ele>212.1</ele>
        <time>1970-01-01T00:00:00Z</time>
      </trkpt>
      <trkpt lat="39.671723" lon="-6.509094">
        <ele>210.5</ele>
        <time>1970-01-01T00:00:00Z</time>
      </trkpt>
      <trkpt lat="39.671747" lon="-6.508996">
        <ele>209.8</ele>
        <time>1970-01-01T00:00:00Z</time>
      </trkpt>
      <trkpt lat="39.671758" lon="-6.508881">
        <ele>209.2</ele>
        <time>1970-01-01T00:00:00Z</time>
      </trkpt>
      <trkpt lat="39.671794" lon="-6.508774">
        <ele>208.2</ele>
        <time>1970-01-01T00:00:00Z</time>
      </trkpt>
      <trkpt lat="39.671772" lon="-6.508672">
        <ele>207.5</ele>
        <time>1970-01-01T00:00:00Z</time>
      </trkpt>
      <trkpt lat="39.671697" lon="-6.508569">
        <ele>207.4</ele>
        <time>1970-01-01T00:00:00Z</time>
      </trkpt>
      <trkpt lat="39.671636" lon="-6.508443">
        <ele>207.4</ele>
        <time>1970-01-01T00:00:00Z</time>
      </trkpt>
      <trkpt lat="39.671540" lon="-6.508095">
        <ele>208.3</ele>
        <time>1970-01-01T00:00:00Z</time>
      </trkpt>
      <trkpt lat="39.671493" lon="-6.507997">
        <ele>208.7</ele>
        <time>1970-01-01T00:00:00Z</time>
      </trkpt>
      <trkpt lat="39.671391" lon="-6.507895">
        <ele>209.2</ele>
        <time>1970-01-01T00:00:00Z</time>
      </trkpt>
      <trkpt lat="39.671313" lon="-6.507849">
        <ele>210.7</ele>
        <time>1970-01-01T00:00:00Z</time>
      </trkpt>
      <trkpt lat="39.671119" lon="-6.507677">
        <ele>214.2</ele>
        <time>1970-01-01T00:00:00Z</time>
      </trkpt>
      <trkpt lat="39.671034" lon="-6.507482">
        <ele>216.0</ele>
        <time>1970-01-01T00:00:00Z</time>
      </trkpt>
      <trkpt lat="39.671029" lon="-6.507379">
        <ele>216.2</ele>
        <time>1970-01-01T00:00:00Z</time>
      </trkpt>
      <trkpt lat="39.671131" lon="-6.507095">
        <ele>215.0</ele>
        <time>1970-01-01T00:00:00Z</time>
      </trkpt>
      <trkpt lat="39.671147" lon="-6.506963">
        <ele>215.2</ele>
        <time>1970-01-01T00:00:00Z</time>
      </trkpt>
      <trkpt lat="39.671120" lon="-6.506838">
        <ele>215.9</ele>
        <time>1970-01-01T00:00:00Z</time>
      </trkpt>
      <trkpt lat="39.671024" lon="-6.506552">
        <ele>216.9</ele>
        <time>1970-01-01T00:00:00Z</time>
      </trkpt>
      <trkpt lat="39.671011" lon="-6.506423">
        <ele>217.4</ele>
        <time>1970-01-01T00:00:00Z</time>
      </trkpt>
      <trkpt lat="39.671121" lon="-6.506184">
        <ele>218.3</ele>
        <time>1970-01-01T00:00:00Z</time>
      </trkpt>
      <trkpt lat="39.671127" lon="-6.506091">
        <ele>218.6</ele>
        <time>1970-01-01T00:00:00Z</time>
      </trkpt>
      <trkpt lat="39.671063" lon="-6.505885">
        <ele>219.2</ele>
        <time>1970-01-01T00:00:00Z</time>
      </trkpt>
      <trkpt lat="39.671035" lon="-6.505748">
        <ele>219.8</ele>
        <time>1970-01-01T00:00:00Z</time>
      </trkpt>
      <trkpt lat="39.671059" lon="-6.505530">
        <ele>221.3</ele>
        <time>1970-01-01T00:00:00Z</time>
      </trkpt>
      <trkpt lat="39.671012" lon="-6.505318">
        <ele>222.2</ele>
        <time>1970-01-01T00:00:00Z</time>
      </trkpt>
      <trkpt lat="39.671005" lon="-6.505078">
        <ele>224.5</ele>
        <time>1970-01-01T00:00:00Z</time>
      </trkpt>
      <trkpt lat="39.670946" lon="-6.504964">
        <ele>224.4</ele>
        <time>1970-01-01T00:00:00Z</time>
      </trkpt>
      <trkpt lat="39.670872" lon="-6.504884">
        <ele>224.7</ele>
        <time>1970-01-01T00:00:00Z</time>
      </trkpt>
      <trkpt lat="39.670805" lon="-6.504767">
        <ele>225.6</ele>
        <time>1970-01-01T00:00:00Z</time>
      </trkpt>
      <trkpt lat="39.670744" lon="-6.504596">
        <ele>226.8</ele>
        <time>1970-01-01T00:00:00Z</time>
      </trkpt>
      <trkpt lat="39.670714" lon="-6.504429">
        <ele>228.0</ele>
        <time>1970-01-01T00:00:00Z</time>
      </trkpt>
      <trkpt lat="39.670621" lon="-6.504052">
        <ele>231.8</ele>
        <time>1970-01-01T00:00:00Z</time>
      </trkpt>
      <trkpt lat="39.670599" lon="-6.503896">
        <ele>233.2</ele>
        <time>1970-01-01T00:00:00Z</time>
      </trkpt>
      <trkpt lat="39.670521" lon="-6.503825">
        <ele>233.5</ele>
        <time>1970-01-01T00:00:00Z</time>
      </trkpt>
      <trkpt lat="39.670319" lon="-6.503682">
        <ele>233.7</ele>
        <time>1970-01-01T00:00:00Z</time>
      </trkpt>
      <trkpt lat="39.670207" lon="-6.503673">
        <ele>233.6</ele>
        <time>1970-01-01T00:00:00Z</time>
      </trkpt>
      <trkpt lat="39.670064" lon="-6.503545">
        <ele>234.7</ele>
        <time>1970-01-01T00:00:00Z</time>
      </trkpt>
      <trkpt lat="39.669738" lon="-6.503161">
        <ele>237.1</ele>
        <time>1970-01-01T00:00:00Z</time>
      </trkpt>
      <trkpt lat="39.669677" lon="-6.503106">
        <ele>237.8</ele>
        <time>1970-01-01T00:00:00Z</time>
      </trkpt>
      <trkpt lat="39.669474" lon="-6.503007">
        <ele>239.6</ele>
        <time>1970-01-01T00:00:00Z</time>
      </trkpt>
      <trkpt lat="39.669373" lon="-6.503000">
        <ele>240.1</ele>
        <time>1970-01-01T00:00:00Z</time>
      </trkpt>
      <trkpt lat="39.669224" lon="-6.502963">
        <ele>240.7</ele>
        <time>1970-01-01T00:00:00Z</time>
      </trkpt>
      <trkpt lat="39.669000" lon="-6.502670">
        <ele>245.3</ele>
        <time>1970-01-01T00:00:00Z</time>
      </trkpt>
      <trkpt lat="39.669129" lon="-6.502561">
        <ele>247.0</ele>
        <time>1970-01-01T00:00:00Z</time>
      </trkpt>
      <trkpt lat="39.669215" lon="-6.502516">
        <ele>247.8</ele>
        <time>1970-01-01T00:00:00Z</time>
      </trkpt>
      <trkpt lat="39.669195" lon="-6.502460">
        <ele>249.1</ele>
        <time>1970-01-01T00:00:00Z</time>
      </trkpt>
      <trkpt lat="39.669017" lon="-6.502358">
        <ele>251.3</ele>
        <time>1970-01-01T00:00:00Z</time>
      </trkpt>
      <trkpt lat="39.668991" lon="-6.502265">
        <ele>252.9</ele>
        <time>1970-01-01T00:00:00Z</time>
      </trkpt>
      <trkpt lat="39.668929" lon="-6.502200">
        <ele>253.7</ele>
        <time>1970-01-01T00:00:00Z</time>
      </trkpt>
      <trkpt lat="39.668857" lon="-6.502167">
        <ele>254.0</ele>
        <time>1970-01-01T00:00:00Z</time>
      </trkpt>
      <trkpt lat="39.668700" lon="-6.502001">
        <ele>255.3</ele>
        <time>1970-01-01T00:00:00Z</time>
      </trkpt>
      <trkpt lat="39.668578" lon="-6.501815">
        <ele>257.5</ele>
        <time>1970-01-01T00:00:00Z</time>
      </trkpt>
      <trkpt lat="39.668545" lon="-6.501700">
        <ele>258.7</ele>
        <time>1970-01-01T00:00:00Z</time>
      </trkpt>
      <trkpt lat="39.668564" lon="-6.501595">
        <ele>260.5</ele>
        <time>1970-01-01T00:00:00Z</time>
      </trkpt>
      <trkpt lat="39.668625" lon="-6.501393">
        <ele>265.4</ele>
        <time>1970-01-01T00:00:00Z</time>
      </trkpt>
      <trkpt lat="39.668657" lon="-6.501340">
        <ele>266.8</ele>
        <time>1970-01-01T00:00:00Z</time>
      </trkpt>
      <trkpt lat="39.668787" lon="-6.501337">
        <ele>268.0</ele>
        <time>1970-01-01T00:00:00Z</time>
      </trkpt>
      <trkpt lat="39.668796" lon="-6.501278">
        <ele>269.4</ele>
        <time>1970-01-01T00:00:00Z</time>
      </trkpt>
      <trkpt lat="39.668775" lon="-6.501233">
        <ele>270.2</ele>
        <time>1970-01-01T00:00:00Z</time>
      </trkpt>
      <trkpt lat="39.668796" lon="-6.501106">
        <ele>272.8</ele>
        <time>1970-01-01T00:00:00Z</time>
      </trkpt>
      <trkpt lat="39.668861" lon="-6.501025">
        <ele>274.7</ele>
        <time>1970-01-01T00:00:00Z</time>
      </trkpt>
      <trkpt lat="39.668911" lon="-6.500835">
        <ele>278.4</ele>
        <time>1970-01-01T00:00:00Z</time>
      </trkpt>
      <trkpt lat="39.668943" lon="-6.500777">
        <ele>279.7</ele>
        <time>1970-01-01T00:00:00Z</time>
      </trkpt>
      <trkpt lat="39.669004" lon="-6.500711">
        <ele>281.3</ele>
        <time>1970-01-01T00:00:00Z</time>
      </trkpt>
      <trkpt lat="39.669063" lon="-6.500710">
        <ele>281.9</ele>
        <time>1970-01-01T00:00:00Z</time>
      </trkpt>
      <trkpt lat="39.669159" lon="-6.500633">
        <ele>283.5</ele>
        <time>1970-01-01T00:00:00Z</time>
      </trkpt>
      <trkpt lat="39.669127" lon="-6.500545">
        <ele>284.0</ele>
        <time>1970-01-01T00:00:00Z</time>
      </trkpt>
      <trkpt lat="39.669092" lon="-6.500499">
        <ele>283.9</ele>
        <time>1970-01-01T00:00:00Z</time>
      </trkpt>
      <trkpt lat="39.669131" lon="-6.500469">
        <ele>284.7</ele>
        <time>1970-01-01T00:00:00Z</time>
      </trkpt>
      <trkpt lat="39.669190" lon="-6.500472">
        <ele>285.5</ele>
        <time>1970-01-01T00:00:00Z</time>
      </trkpt>
      <trkpt lat="39.669267" lon="-6.500448">
        <ele>286.7</ele>
        <time>1970-01-01T00:00:00Z</time>
      </trkpt>
      <trkpt lat="39.669246" lon="-6.500400">
        <ele>286.8</ele>
        <time>1970-01-01T00:00:00Z</time>
      </trkpt>
      <trkpt lat="39.669199" lon="-6.500361">
        <ele>286.5</ele>
        <time>1970-01-01T00:00:00Z</time>
      </trkpt>
      <trkpt lat="39.669319" lon="-6.500263">
        <ele>288.9</ele>
        <time>1970-01-01T00:00:00Z</time>
      </trkpt>
      <trkpt lat="39.669395" lon="-6.500124">
        <ele>290.5</ele>
        <time>1970-01-01T00:00:00Z</time>
      </trkpt>
      <trkpt lat="39.669519" lon="-6.499502">
        <ele>296.7</ele>
        <time>1970-01-01T00:00:00Z</time>
      </trkpt>
      <trkpt lat="39.669540" lon="-6.498985">
        <ele>300.9</ele>
        <time>1970-01-01T00:00:00Z</time>
      </trkpt>
      <trkpt lat="39.669536" lon="-6.498873">
        <ele>301.9</ele>
        <time>1970-01-01T00:00:00Z</time>
      </trkpt>
      <trkpt lat="39.669564" lon="-6.498779">
        <ele>302.4</ele>
        <time>1970-01-01T00:00:00Z</time>
      </trkpt>
      <trkpt lat="39.669616" lon="-6.498739">
        <ele>302.8</ele>
        <time>1970-01-01T00:00:00Z</time>
      </trkpt>
      <trkpt lat="39.669691" lon="-6.498723">
        <ele>303.2</ele>
        <time>1970-01-01T00:00:00Z</time>
      </trkpt>
      <trkpt lat="39.669742" lon="-6.498686">
        <ele>303.6</ele>
        <time>1970-01-01T00:00:00Z</time>
      </trkpt>
      <trkpt lat="39.669788" lon="-6.498622">
        <ele>304.2</ele>
        <time>1970-01-01T00:00:00Z</time>
      </trkpt>
      <trkpt lat="39.669823" lon="-6.498471">
        <ele>305.8</ele>
        <time>1970-01-01T00:00:00Z</time>
      </trkpt>
      <trkpt lat="39.669914" lon="-6.498239">
        <ele>308.2</ele>
        <time>1970-01-01T00:00:00Z</time>
      </trkpt>
      <trkpt lat="39.669817" lon="-6.498083">
        <ele>308.6</ele>
        <time>1970-01-01T00:00:00Z</time>
      </trkpt>
      <trkpt lat="39.669775" lon="-6.497970">
        <ele>308.8</ele>
        <time>1970-01-01T00:00:00Z</time>
      </trkpt>
      <trkpt lat="39.669861" lon="-6.497760">
        <ele>311.0</ele>
        <time>1970-01-01T00:00:00Z</time>
      </trkpt>
      <trkpt lat="39.669929" lon="-6.497467">
        <ele>312.7</ele>
        <time>1970-01-01T00:00:00Z</time>
      </trkpt>
      <trkpt lat="39.670056" lon="-6.497170">
        <ele>315.5</ele>
        <time>1970-01-01T00:00:00Z</time>
      </trkpt>
      <trkpt lat="39.670096" lon="-6.496881">
        <ele>316.7</ele>
        <time>1970-01-01T00:00:00Z</time>
      </trkpt>
      <trkpt lat="39.670135" lon="-6.496787">
        <ele>317.0</ele>
        <time>1970-01-01T00:00:00Z</time>
      </trkpt>
      <trkpt lat="39.670274" lon="-6.496597">
        <ele>317.9</ele>
        <time>1970-01-01T00:00:00Z</time>
      </trkpt>
      <trkpt lat="39.670376" lon="-6.496491">
        <ele>318.7</ele>
        <time>1970-01-01T00:00:00Z</time>
      </trkpt>
      <trkpt lat="39.670517" lon="-6.496300">
        <ele>319.2</ele>
        <time>1970-01-01T00:00:00Z</time>
      </trkpt>
      <trkpt lat="39.670536" lon="-6.496183">
        <ele>319.7</ele>
        <time>1970-01-01T00:00:00Z</time>
      </trkpt>
      <trkpt lat="39.670542" lon="-6.495981">
        <ele>320.5</ele>
        <time>1970-01-01T00:00:00Z</time>
      </trkpt>
      <trkpt lat="39.670572" lon="-6.495866">
        <ele>321.0</ele>
        <time>1970-01-01T00:00:00Z</time>
      </trkpt>
      <trkpt lat="39.670592" lon="-6.495660">
        <ele>321.0</ele>
        <time>1970-01-01T00:00:00Z</time>
      </trkpt>
      <trkpt lat="39.670669" lon="-6.495553">
        <ele>321.0</ele>
        <time>1970-01-01T00:00:00Z</time>
      </trkpt>
      <trkpt lat="39.670668" lon="-6.495474">
        <ele>321.0</ele>
        <time>1970-01-01T00:00:00Z</time>
      </trkpt>
      <trkpt lat="39.670621" lon="-6.495385">
        <ele>321.0</ele>
        <time>1970-01-01T00:00:00Z</time>
      </trkpt>
      <trkpt lat="39.670597" lon="-6.495303">
        <ele>321.0</ele>
        <time>1970-01-01T00:00:00Z</time>
      </trkpt>
      <trkpt lat="39.670599" lon="-6.495229">
        <ele>321.0</ele>
        <time>1970-01-01T00:00:00Z</time>
      </trkpt>
      <trkpt lat="39.670520" lon="-6.495213">
        <ele>321.0</ele>
        <time>1970-01-01T00:00:00Z</time>
      </trkpt>
      <trkpt lat="39.670211" lon="-6.495266">
        <ele>321.1</ele>
        <time>1970-01-01T00:00:00Z</time>
      </trkpt>
      <trkpt lat="39.670245" lon="-6.495162">
        <ele>321.0</ele>
        <time>1970-01-01T00:00:00Z</time>
      </trkpt>
      <trkpt lat="39.670401" lon="-6.494898">
        <ele>321.3</ele>
        <time>1970-01-01T00:00:00Z</time>
      </trkpt>
      <trkpt lat="39.670502" lon="-6.494605">
        <ele>320.9</ele>
        <time>1970-01-01T00:00:00Z</time>
      </trkpt>
      <trkpt lat="39.670518" lon="-6.494450">
        <ele>320.8</ele>
        <time>1970-01-01T00:00:00Z</time>
      </trkpt>
      <trkpt lat="39.670484" lon="-6.494313">
        <ele>321.0</ele>
        <time>1970-01-01T00:00:00Z</time>
      </trkpt>
      <trkpt lat="39.670430" lon="-6.494187">
        <ele>321.0</ele>
        <time>1970-01-01T00:00:00Z</time>
      </trkpt>
      <trkpt lat="39.670231" lon="-6.494046">
        <ele>321.2</ele>
        <time>1970-01-01T00:00:00Z</time>
      </trkpt>
      <trkpt lat="39.670138" lon="-6.494014">
        <ele>321.5</ele>
        <time>1970-01-01T00:00:00Z</time>
      </trkpt>
      <trkpt lat="39.670052" lon="-6.493889">
        <ele>321.8</ele>
        <time>1970-01-01T00:00:00Z</time>
      </trkpt>
      <trkpt lat="39.669928" lon="-6.493596">
        <ele>321.5</ele>
        <time>1970-01-01T00:00:00Z</time>
      </trkpt>
      <trkpt lat="39.669903" lon="-6.493420">
        <ele>321.2</ele>
        <time>1970-01-01T00:00:00Z</time>
      </trkpt>
      <trkpt lat="39.669814" lon="-6.493068">
        <ele>320.9</ele>
        <time>1970-01-01T00:00:00Z</time>
      </trkpt>
      <trkpt lat="39.669674" lon="-6.492720">
        <ele>320.7</ele>
        <time>1970-01-01T00:00:00Z</time>
      </trkpt>
      <trkpt lat="39.669576" lon="-6.492555">
        <ele>320.6</ele>
        <time>1970-01-01T00:00:00Z</time>
      </trkpt>
      <trkpt lat="39.669506" lon="-6.492475">
        <ele>320.5</ele>
        <time>1970-01-01T00:00:00Z</time>
      </trkpt>
      <trkpt lat="39.669479" lon="-6.492365">
        <ele>320.3</ele>
        <time>1970-01-01T00:00:00Z</time>
      </trkpt>
      <trkpt lat="39.669453" lon="-6.492213">
        <ele>320.4</ele>
        <time>1970-01-01T00:00:00Z</time>
      </trkpt>
      <trkpt lat="39.669457" lon="-6.492014">
        <ele>321.0</ele>
        <time>1970-01-01T00:00:00Z</time>
      </trkpt>
      <trkpt lat="39.669505" lon="-6.491747">
        <ele>322.0</ele>
        <time>1970-01-01T00:00:00Z</time>
      </trkpt>
      <trkpt lat="39.669532" lon="-6.491679">
        <ele>322.1</ele>
        <time>1970-01-01T00:00:00Z</time>
      </trkpt>
      <trkpt lat="39.669505" lon="-6.491547">
        <ele>322.8</ele>
        <time>1970-01-01T00:00:00Z</time>
      </trkpt>
      <trkpt lat="39.669560" lon="-6.491491">
        <ele>322.8</ele>
        <time>1970-01-01T00:00:00Z</time>
      </trkpt>
      <trkpt lat="39.669598" lon="-6.491429">
        <ele>323.1</ele>
        <time>1970-01-01T00:00:00Z</time>
      </trkpt>
      <trkpt lat="39.669641" lon="-6.491347">
        <ele>323.6</ele>
        <time>1970-01-01T00:00:00Z</time>
      </trkpt>
      <trkpt lat="39.669653" lon="-6.491263">
        <ele>324.3</ele>
        <time>1970-01-01T00:00:00Z</time>
      </trkpt>
      <trkpt lat="39.669628" lon="-6.491211">
        <ele>324.7</ele>
        <time>1970-01-01T00:00:00Z</time>
      </trkpt>
      <trkpt lat="39.669561" lon="-6.491163">
        <ele>325.2</ele>
        <time>1970-01-01T00:00:00Z</time>
      </trkpt>
      <trkpt lat="39.669530" lon="-6.491117">
        <ele>325.6</ele>
        <time>1970-01-01T00:00:00Z</time>
      </trkpt>
      <trkpt lat="39.669535" lon="-6.490759">
        <ele>327.1</ele>
        <time>1970-01-01T00:00:00Z</time>
      </trkpt>
      <trkpt lat="39.669361" lon="-6.490003">
        <ele>328.5</ele>
        <time>1970-01-01T00:00:00Z</time>
      </trkpt>
      <trkpt lat="39.669347" lon="-6.489899">
        <ele>328.1</ele>
        <time>1970-01-01T00:00:00Z</time>
      </trkpt>
      <trkpt lat="39.669355" lon="-6.489495">
        <ele>326.4</ele>
        <time>1970-01-01T00:00:00Z</time>
      </trkpt>
      <trkpt lat="39.669320" lon="-6.489406">
        <ele>326.1</ele>
        <time>1970-01-01T00:00:00Z</time>
      </trkpt>
      <trkpt lat="39.669232" lon="-6.489274">
        <ele>325.6</ele>
        <time>1970-01-01T00:00:00Z</time>
      </trkpt>
      <trkpt lat="39.669094" lon="-6.489104">
        <ele>324.8</ele>
        <time>1970-01-01T00:00:00Z</time>
      </trkpt>
      <trkpt lat="39.669037" lon="-6.489059">
        <ele>324.9</ele>
        <time>1970-01-01T00:00:00Z</time>
      </trkpt>
      <trkpt lat="39.668989" lon="-6.488803">
        <ele>324.4</ele>
        <time>1970-01-01T00:00:00Z</time>
      </trkpt>
      <trkpt lat="39.668868" lon="-6.488446">
        <ele>325.0</ele>
        <time>1970-01-01T00:00:00Z</time>
      </trkpt>
      <trkpt lat="39.668889" lon="-6.488245">
        <ele>324.9</ele>
        <time>1970-01-01T00:00:00Z</time>
      </trkpt>
      <trkpt lat="39.668883" lon="-6.488144">
        <ele>324.9</ele>
        <time>1970-01-01T00:00:00Z</time>
      </trkpt>
      <trkpt lat="39.668866" lon="-6.488029">
        <ele>325.0</ele>
        <time>1970-01-01T00:00:00Z</time>
      </trkpt>
      <trkpt lat="39.668816" lon="-6.487842">
        <ele>325.2</ele>
        <time>1970-01-01T00:00:00Z</time>
      </trkpt>
      <trkpt lat="39.668802" lon="-6.487653">
        <ele>326.0</ele>
        <time>1970-01-01T00:00:00Z</time>
      </trkpt>
      <trkpt lat="39.668765" lon="-6.487454">
        <ele>327.4</ele>
        <time>1970-01-01T00:00:00Z</time>
      </trkpt>
      <trkpt lat="39.668717" lon="-6.487402">
        <ele>327.8</ele>
        <time>1970-01-01T00:00:00Z</time>
      </trkpt>
      <trkpt lat="39.668630" lon="-6.487418">
        <ele>327.9</ele>
        <time>1970-01-01T00:00:00Z</time>
      </trkpt>
      <trkpt lat="39.668546" lon="-6.487352">
        <ele>328.6</ele>
        <time>1970-01-01T00:00:00Z</time>
      </trkpt>
      <trkpt lat="39.668502" lon="-6.487249">
        <ele>329.2</ele>
        <time>1970-01-01T00:00:00Z</time>
      </trkpt>
      <trkpt lat="39.668506" lon="-6.486866">
        <ele>330.8</ele>
        <time>1970-01-01T00:00:00Z</time>
      </trkpt>
      <trkpt lat="39.668403" lon="-6.486615">
        <ele>332.0</ele>
        <time>1970-01-01T00:00:00Z</time>
      </trkpt>
      <trkpt lat="39.668389" lon="-6.486498">
        <ele>332.4</ele>
        <time>1970-01-01T00:00:00Z</time>
      </trkpt>
      <trkpt lat="39.668414" lon="-6.486373">
        <ele>333.1</ele>
        <time>1970-01-01T00:00:00Z</time>
      </trkpt>
      <trkpt lat="39.668495" lon="-6.486212">
        <ele>334.5</ele>
        <time>1970-01-01T00:00:00Z</time>
      </trkpt>
      <trkpt lat="39.668476" lon="-6.486130">
        <ele>335.0</ele>
        <time>1970-01-01T00:00:00Z</time>
      </trkpt>
      <trkpt lat="39.668419" lon="-6.486060">
        <ele>335.3</ele>
        <time>1970-01-01T00:00:00Z</time>
      </trkpt>
      <trkpt lat="39.668340" lon="-6.485674">
        <ele>336.0</ele>
        <time>1970-01-01T00:00:00Z</time>
      </trkpt>
      <trkpt lat="39.668424" lon="-6.485666">
        <ele>336.0</ele>
        <time>1970-01-01T00:00:00Z</time>
      </trkpt>
      <trkpt lat="39.668474" lon="-6.485634">
        <ele>336.2</ele>
        <time>1970-01-01T00:00:00Z</time>
      </trkpt>
      <trkpt lat="39.668451" lon="-6.485519">
        <ele>336.7</ele>
        <time>1970-01-01T00:00:00Z</time>
      </trkpt>
      <trkpt lat="39.668424" lon="-6.485478">
        <ele>336.8</ele>
        <time>1970-01-01T00:00:00Z</time>
      </trkpt>
      <trkpt lat="39.668456" lon="-6.485426">
        <ele>337.0</ele>
        <time>1970-01-01T00:00:00Z</time>
      </trkpt>
      <trkpt lat="39.668449" lon="-6.485336">
        <ele>337.0</ele>
        <time>1970-01-01T00:00:00Z</time>
      </trkpt>
      <trkpt lat="39.668387" lon="-6.485232">
        <ele>337.0</ele>
        <time>1970-01-01T00:00:00Z</time>
      </trkpt>
      <trkpt lat="39.668295" lon="-6.485144">
        <ele>337.0</ele>
        <time>1970-01-01T00:00:00Z</time>
      </trkpt>
      <trkpt lat="39.668215" lon="-6.485006">
        <ele>337.0</ele>
        <time>1970-01-01T00:00:00Z</time>
      </trkpt>
      <trkpt lat="39.668142" lon="-6.484746">
        <ele>336.9</ele>
        <time>1970-01-01T00:00:00Z</time>
      </trkpt>
      <trkpt lat="39.668010" lon="-6.484342">
        <ele>336.0</ele>
        <time>1970-01-01T00:00:00Z</time>
      </trkpt>
      <trkpt lat="39.667713" lon="-6.484239">
        <ele>334.9</ele>
        <time>1970-01-01T00:00:00Z</time>
      </trkpt>
      <trkpt lat="39.663371" lon="-6.483706">
        <ele>332.3</ele>
        <time>1970-01-01T00:00:00Z</time>
      </trkpt>
      <trkpt lat="39.663155" lon="-6.483662">
        <ele>336.4</ele>
        <time>1970-01-01T00:00:00Z</time>
      </trkpt>
      <trkpt lat="39.662680" lon="-6.483656">
        <ele>344.2</ele>
        <time>1970-01-01T00:00:00Z</time>
      </trkpt>
      <trkpt lat="39.662471" lon="-6.483675">
        <ele>344.7</ele>
        <time>1970-01-01T00:00:00Z</time>
      </trkpt>
      <trkpt lat="39.662251" lon="-6.483664">
        <ele>345.0</ele>
        <time>1970-01-01T00:00:00Z</time>
      </trkpt>
      <trkpt lat="39.662092" lon="-6.483531">
        <ele>346.0</ele>
        <time>1970-01-01T00:00:00Z</time>
      </trkpt>
      <trkpt lat="39.662064" lon="-6.483396">
        <ele>346.0</ele>
        <time>1970-01-01T00:00:00Z</time>
      </trkpt>
      <trkpt lat="39.662089" lon="-6.483256">
        <ele>345.2</ele>
        <time>1970-01-01T00:00:00Z</time>
      </trkpt>
      <trkpt lat="39.662199" lon="-6.483218">
        <ele>344.6</ele>
        <time>1970-01-01T00:00:00Z</time>
      </trkpt>
      <trkpt lat="39.662430" lon="-6.483222">
        <ele>344.1</ele>
        <time>1970-01-01T00:00:00Z</time>
      </trkpt>
      <trkpt lat="39.662519" lon="-6.483208">
        <ele>343.7</ele>
        <time>1970-01-01T00:00:00Z</time>
      </trkpt>
      <trkpt lat="39.662690" lon="-6.483135">
        <ele>341.4</ele>
        <time>1970-01-01T00:00:00Z</time>
      </trkpt>
      <trkpt lat="39.662793" lon="-6.483122">
        <ele>340.3</ele>
        <time>1970-01-01T00:00:00Z</time>
      </trkpt>
      <trkpt lat="39.662990" lon="-6.483143">
        <ele>337.6</ele>
        <time>1970-01-01T00:00:00Z</time>
      </trkpt>
      <trkpt lat="39.663328" lon="-6.483045">
        <ele>331.5</ele>
        <time>1970-01-01T00:00:00Z</time>
      </trkpt>
      <trkpt lat="39.663678" lon="-6.483003">
        <ele>329.7</ele>
        <time>1970-01-01T00:00:00Z</time>
      </trkpt>
      <trkpt lat="39.663927" lon="-6.482879">
        <ele>329.0</ele>
        <time>1970-01-01T00:00:00Z</time>
      </trkpt>
      <trkpt lat="39.664020" lon="-6.482858">
        <ele>328.8</ele>
        <time>1970-01-01T00:00:00Z</time>
      </trkpt>
      <trkpt lat="39.664101" lon="-6.482799">
        <ele>328.6</ele>
        <time>1970-01-01T00:00:00Z</time>
      </trkpt>
      <trkpt lat="39.664241" lon="-6.482630">
        <ele>328.0</ele>
        <time>1970-01-01T00:00:00Z</time>
      </trkpt>
      <trkpt lat="39.664610" lon="-6.482135">
        <ele>325.3</ele>
        <time>1970-01-01T00:00:00Z</time>
      </trkpt>
      <trkpt lat="39.664688" lon="-6.482011">
        <ele>325.0</ele>
        <time>1970-01-01T00:00:00Z</time>
      </trkpt>
      <trkpt lat="39.664918" lon="-6.481472">
        <ele>323.9</ele>
        <time>1970-01-01T00:00:00Z</time>
      </trkpt>
      <trkpt lat="39.664974" lon="-6.481376">
        <ele>323.4</ele>
        <time>1970-01-01T00:00:00Z</time>
      </trkpt>
      <trkpt lat="39.665036" lon="-6.481308">
        <ele>323.1</ele>
        <time>1970-01-01T00:00:00Z</time>
      </trkpt>
      <trkpt lat="39.665190" lon="-6.481039">
        <ele>323.0</ele>
        <time>1970-01-01T00:00:00Z</time>
      </trkpt>
      <trkpt lat="39.665406" lon="-6.480391">
        <ele>322.0</ele>
        <time>1970-01-01T00:00:00Z</time>
      </trkpt>
      <trkpt lat="39.665662" lon="-6.479696">
        <ele>320.2</ele>
        <time>1970-01-01T00:00:00Z</time>
      </trkpt>
      <trkpt lat="39.665659" lon="-6.479605">
        <ele>320.0</ele>
        <time>1970-01-01T00:00:00Z</time>
      </trkpt>
      <trkpt lat="39.665684" lon="-6.479515">
        <ele>319.8</ele>
        <time>1970-01-01T00:00:00Z</time>
      </trkpt>
      <trkpt lat="39.665779" lon="-6.479278">
        <ele>319.1</ele>
        <time>1970-01-01T00:00:00Z</time>
      </trkpt>
      <trkpt lat="39.665798" lon="-6.479158">
        <ele>318.9</ele>
        <time>1970-01-01T00:00:00Z</time>
      </trkpt>
      <trkpt lat="39.666048" lon="-6.478384">
        <ele>318.0</ele>
        <time>1970-01-01T00:00:00Z</time>
      </trkpt>
      <trkpt lat="39.666107" lon="-6.478256">
        <ele>318.0</ele>
        <time>1970-01-01T00:00:00Z</time>
      </trkpt>
      <trkpt lat="39.666378" lon="-6.477922">
        <ele>317.1</ele>
        <time>1970-01-01T00:00:00Z</time>
      </trkpt>
      <trkpt lat="39.666421" lon="-6.477832">
        <ele>317.1</ele>
        <time>1970-01-01T00:00:00Z</time>
      </trkpt>
      <trkpt lat="39.666553" lon="-6.477435">
        <ele>317.0</ele>
        <time>1970-01-01T00:00:00Z</time>
      </trkpt>
      <trkpt lat="39.666768" lon="-6.477014">
        <ele>315.6</ele>
        <time>1970-01-01T00:00:00Z</time>
      </trkpt>
      <trkpt lat="39.667049" lon="-6.476537">
        <ele>315.6</ele>
        <time>1970-01-01T00:00:00Z</time>
      </trkpt>
      <trkpt lat="39.667401" lon="-6.476120">
        <ele>314.2</ele>
        <time>1970-01-01T00:00:00Z</time>
      </trkpt>
      <trkpt lat="39.667521" lon="-6.475996">
        <ele>313.8</ele>
        <time>1970-01-01T00:00:00Z</time>
      </trkpt>
      <trkpt lat="39.667753" lon="-6.475699">
        <ele>311.9</ele>
        <time>1970-01-01T00:00:00Z</time>
      </trkpt>
      <trkpt lat="39.667831" lon="-6.475436">
        <ele>310.8</ele>
        <time>1970-01-01T00:00:00Z</time>
      </trkpt>
      <trkpt lat="39.667866" lon="-6.475354">
        <ele>310.4</ele>
        <time>1970-01-01T00:00:00Z</time>
      </trkpt>
      <trkpt lat="39.667930" lon="-6.475308">
        <ele>310.2</ele>
        <time>1970-01-01T00:00:00Z</time>
      </trkpt>
      <trkpt lat="39.667976" lon="-6.475246">
        <ele>310.0</ele>
        <time>1970-01-01T00:00:00Z</time>
      </trkpt>
      <trkpt lat="39.667998" lon="-6.475161">
        <ele>309.6</ele>
        <time>1970-01-01T00:00:00Z</time>
      </trkpt>
      <trkpt lat="39.667978" lon="-6.475069">
        <ele>309.2</ele>
        <time>1970-01-01T00:00:00Z</time>
      </trkpt>
      <trkpt lat="39.667976" lon="-6.475000">
        <ele>309.0</ele>
        <time>1970-01-01T00:00:00Z</time>
      </trkpt>
      <trkpt lat="39.668004" lon="-6.474949">
        <ele>308.9</ele>
        <time>1970-01-01T00:00:00Z</time>
      </trkpt>
      <trkpt lat="39.668322" lon="-6.474854">
        <ele>308.9</ele>
        <time>1970-01-01T00:00:00Z</time>
      </trkpt>
      <trkpt lat="39.668359" lon="-6.474797">
        <ele>308.9</ele>
        <time>1970-01-01T00:00:00Z</time>
      </trkpt>
      <trkpt lat="39.668384" lon="-6.474739">
        <ele>308.7</ele>
        <time>1970-01-01T00:00:00Z</time>
      </trkpt>
      <trkpt lat="39.668389" lon="-6.474510">
        <ele>308.0</ele>
        <time>1970-01-01T00:00:00Z</time>
      </trkpt>
      <trkpt lat="39.668413" lon="-6.474424">
        <ele>308.0</ele>
        <time>1970-01-01T00:00:00Z</time>
      </trkpt>
      <trkpt lat="39.668437" lon="-6.474236">
        <ele>308.0</ele>
        <time>1970-01-01T00:00:00Z</time>
      </trkpt>
      <trkpt lat="39.668624" lon="-6.474122">
        <ele>308.0</ele>
        <time>1970-01-01T00:00:00Z</time>
      </trkpt>
      <trkpt lat="39.668816" lon="-6.474077">
        <ele>307.9</ele>
        <time>1970-01-01T00:00:00Z</time>
      </trkpt>
      <trkpt lat="39.668957" lon="-6.474010">
        <ele>307.3</ele>
        <time>1970-01-01T00:00:00Z</time>
      </trkpt>
      <trkpt lat="39.669116" lon="-6.473589">
        <ele>307.0</ele>
        <time>1970-01-01T00:00:00Z</time>
      </trkpt>
      <trkpt lat="39.669211" lon="-6.473416">
        <ele>306.5</ele>
        <time>1970-01-01T00:00:00Z</time>
      </trkpt>
      <trkpt lat="39.669292" lon="-6.473339">
        <ele>305.8</ele>
        <time>1970-01-01T00:00:00Z</time>
      </trkpt>
      <trkpt lat="39.669432" lon="-6.473099">
        <ele>304.0</ele>
        <time>1970-01-01T00:00:00Z</time>
      </trkpt>
      <trkpt lat="39.669470" lon="-6.472983">
        <ele>303.2</ele>
        <time>1970-01-01T00:00:00Z</time>
      </trkpt>
      <trkpt lat="39.669485" lon="-6.472867">
        <ele>302.8</ele>
        <time>1970-01-01T00:00:00Z</time>
      </trkpt>
      <trkpt lat="39.669525" lon="-6.472741">
        <ele>302.2</ele>
        <time>1970-01-01T00:00:00Z</time>
      </trkpt>
      <trkpt lat="39.669597" lon="-6.472574">
        <ele>300.4</ele>
        <time>1970-01-01T00:00:00Z</time>
      </trkpt>
      <trkpt lat="39.669616" lon="-6.472440">
        <ele>299.1</ele>
        <time>1970-01-01T00:00:00Z</time>
      </trkpt>
      <trkpt lat="39.669607" lon="-6.472274">
        <ele>297.7</ele>
        <time>1970-01-01T00:00:00Z</time>
      </trkpt>
      <trkpt lat="39.669630" lon="-6.472216">
        <ele>297.0</ele>
        <time>1970-01-01T00:00:00Z</time>
      </trkpt>
      <trkpt lat="39.669679" lon="-6.472174">
        <ele>296.3</ele>
        <time>1970-01-01T00:00:00Z</time>
      </trkpt>
      <trkpt lat="39.669842" lon="-6.472197">
        <ele>295.1</ele>
        <time>1970-01-01T00:00:00Z</time>
      </trkpt>
      <trkpt lat="39.669942" lon="-6.472232">
        <ele>294.5</ele>
        <time>1970-01-01T00:00:00Z</time>
      </trkpt>
      <trkpt lat="39.670045" lon="-6.472301">
        <ele>294.2</ele>
        <time>1970-01-01T00:00:00Z</time>
      </trkpt>
      <trkpt lat="39.670148" lon="-6.472486">
        <ele>294.3</ele>
        <time>1970-01-01T00:00:00Z</time>
      </trkpt>
      <trkpt lat="39.670177" lon="-6.472497">
        <ele>294.0</ele>
        <time>1970-01-01T00:00:00Z</time>
      </trkpt>
      <trkpt lat="39.670705" lon="-6.471278">
        <ele>291.6</ele>
        <time>1970-01-01T00:00:00Z</time>
      </trkpt>
      <trkpt lat="39.670622" lon="-6.470874">
        <ele>295.5</ele>
        <time>1970-01-01T00:00:00Z</time>
      </trkpt>
      <trkpt lat="39.670628" lon="-6.470808">
        <ele>295.9</ele>
        <time>1970-01-01T00:00:00Z</time>
      </trkpt>
      <trkpt lat="39.670691" lon="-6.470732">
        <ele>296.5</ele>
        <time>1970-01-01T00:00:00Z</time>
      </trkpt>
      <trkpt lat="39.670873" lon="-6.470635">
        <ele>298.4</ele>
        <time>1970-01-01T00:00:00Z</time>
      </trkpt>
      <trkpt lat="39.670911" lon="-6.470580">
        <ele>299.2</ele>
        <time>1970-01-01T00:00:00Z</time>
      </trkpt>
      <trkpt lat="39.671001" lon="-6.470577">
        <ele>300.0</ele>
        <time>1970-01-01T00:00:00Z</time>
      </trkpt>
      <trkpt lat="39.671078" lon="-6.470542">
        <ele>300.9</ele>
        <time>1970-01-01T00:00:00Z</time>
      </trkpt>
      <trkpt lat="39.671157" lon="-6.470454">
        <ele>302.4</ele>
        <time>1970-01-01T00:00:00Z</time>
      </trkpt>
      <trkpt lat="39.671582" lon="-6.470298">
        <ele>306.4</ele>
        <time>1970-01-01T00:00:00Z</time>
      </trkpt>
      <trkpt lat="39.671801" lon="-6.470235">
        <ele>308.1</ele>
        <time>1970-01-01T00:00:00Z</time>
      </trkpt>
      <trkpt lat="39.672022" lon="-6.470191">
        <ele>309.4</ele>
        <time>1970-01-01T00:00:00Z</time>
      </trkpt>
      <trkpt lat="39.672146" lon="-6.470256">
        <ele>309.3</ele>
        <time>1970-01-01T00:00:00Z</time>
      </trkpt>
      <trkpt lat="39.672265" lon="-6.470399">
        <ele>308.7</ele>
        <time>1970-01-01T00:00:00Z</time>
      </trkpt>
      <trkpt lat="39.672395" lon="-6.470454">
        <ele>308.0</ele>
        <time>1970-01-01T00:00:00Z</time>
      </trkpt>
      <trkpt lat="39.672632" lon="-6.470477">
        <ele>307.3</ele>
        <time>1970-01-01T00:00:00Z</time>
      </trkpt>
      <trkpt lat="39.672742" lon="-6.470519">
        <ele>306.9</ele>
        <time>1970-01-01T00:00:00Z</time>
      </trkpt>
      <trkpt lat="39.673287" lon="-6.470854">
        <ele>307.0</ele>
        <time>1970-01-01T00:00:00Z</time>
      </trkpt>
      <trkpt lat="39.673438" lon="-6.470961">
        <ele>306.5</ele>
        <time>1970-01-01T00:00:00Z</time>
      </trkpt>
      <trkpt lat="39.673765" lon="-6.471095">
        <ele>308.2</ele>
        <time>1970-01-01T00:00:00Z</time>
      </trkpt>
      <trkpt lat="39.673910" lon="-6.471085">
        <ele>308.9</ele>
        <time>1970-01-01T00:00:00Z</time>
      </trkpt>
      <trkpt lat="39.674180" lon="-6.471146">
        <ele>309.5</ele>
        <time>1970-01-01T00:00:00Z</time>
      </trkpt>
      <trkpt lat="39.674250" lon="-6.471206">
        <ele>308.8</ele>
        <time>1970-01-01T00:00:00Z</time>
      </trkpt>
      <trkpt lat="39.674281" lon="-6.471261">
        <ele>308.4</ele>
        <time>1970-01-01T00:00:00Z</time>
      </trkpt>
      <trkpt lat="39.674295" lon="-6.471428">
        <ele>307.1</ele>
        <time>1970-01-01T00:00:00Z</time>
      </trkpt>
      <trkpt lat="39.674292" lon="-6.471498">
        <ele>306.5</ele>
        <time>1970-01-01T00:00:00Z</time>
      </trkpt>
      <trkpt lat="39.674273" lon="-6.471552">
        <ele>306.0</ele>
        <time>1970-01-01T00:00:00Z</time>
      </trkpt>
      <trkpt lat="39.674322" lon="-6.471668">
        <ele>305.0</ele>
        <time>1970-01-01T00:00:00Z</time>
      </trkpt>
      <trkpt lat="39.674371" lon="-6.471709">
        <ele>304.7</ele>
        <time>1970-01-01T00:00:00Z</time>
      </trkpt>
      <trkpt lat="39.674523" lon="-6.471772">
        <ele>304.6</ele>
        <time>1970-01-01T00:00:00Z</time>
      </trkpt>
      <trkpt lat="39.674701" lon="-6.471774">
        <ele>305.1</ele>
        <time>1970-01-01T00:00:00Z</time>
      </trkpt>
      <trkpt lat="39.674762" lon="-6.471838">
        <ele>304.5</ele>
        <time>1970-01-01T00:00:00Z</time>
      </trkpt>
      <trkpt lat="39.674781" lon="-6.471908">
        <ele>303.9</ele>
        <time>1970-01-01T00:00:00Z</time>
      </trkpt>
      <trkpt lat="39.674746" lon="-6.472107">
        <ele>302.0</ele>
        <time>1970-01-01T00:00:00Z</time>
      </trkpt>
      <trkpt lat="39.674766" lon="-6.472299">
        <ele>300.2</ele>
        <time>1970-01-01T00:00:00Z</time>
      </trkpt>
      <trkpt lat="39.674761" lon="-6.472362">
        <ele>299.8</ele>
        <time>1970-01-01T00:00:00Z</time>
      </trkpt>
      <trkpt lat="39.674744" lon="-6.472402">
        <ele>299.4</ele>
        <time>1970-01-01T00:00:00Z</time>
      </trkpt>
      <trkpt lat="39.674746" lon="-6.472467">
        <ele>299.0</ele>
        <time>1970-01-01T00:00:00Z</time>
      </trkpt>
      <trkpt lat="39.674799" lon="-6.472569">
        <ele>298.8</ele>
        <time>1970-01-01T00:00:00Z</time>
      </trkpt>
      <trkpt lat="39.674855" lon="-6.472630">
        <ele>299.1</ele>
        <time>1970-01-01T00:00:00Z</time>
      </trkpt>
      <trkpt lat="39.675089" lon="-6.472793">
        <ele>300.5</ele>
        <time>1970-01-01T00:00:00Z</time>
      </trkpt>
      <trkpt lat="39.675203" lon="-6.472955">
        <ele>300.8</ele>
        <time>1970-01-01T00:00:00Z</time>
      </trkpt>
      <trkpt lat="39.675316" lon="-6.473345">
        <ele>300.7</ele>
        <time>1970-01-01T00:00:00Z</time>
      </trkpt>
      <trkpt lat="39.675350" lon="-6.473399">
        <ele>301.1</ele>
        <time>1970-01-01T00:00:00Z</time>
      </trkpt>
      <trkpt lat="39.675395" lon="-6.473442">
        <ele>301.0</ele>
        <time>1970-01-01T00:00:00Z</time>
      </trkpt>
      <trkpt lat="39.675467" lon="-6.473465">
        <ele>301.2</ele>
        <time>1970-01-01T00:00:00Z</time>
      </trkpt>
      <trkpt lat="39.675597" lon="-6.473476">
        <ele>301.8</ele>
        <time>1970-01-01T00:00:00Z</time>
      </trkpt>
      <trkpt lat="39.675790" lon="-6.473604">
        <ele>301.3</ele>
        <time>1970-01-01T00:00:00Z</time>
      </trkpt>
      <trkpt lat="39.676029" lon="-6.473738">
        <ele>299.7</ele>
        <time>1970-01-01T00:00:00Z</time>
      </trkpt>
      <trkpt lat="39.676080" lon="-6.473759">
        <ele>299.2</ele>
        <time>1970-01-01T00:00:00Z</time>
      </trkpt>
      <trkpt lat="39.676208" lon="-6.473766">
        <ele>298.6</ele>
        <time>1970-01-01T00:00:00Z</time>
      </trkpt>
      <trkpt lat="39.676361" lon="-6.473745">
        <ele>297.1</ele>
        <time>1970-01-01T00:00:00Z</time>
      </trkpt>
      <trkpt lat="39.676747" lon="-6.473593">
        <ele>294.7</ele>
        <time>1970-01-01T00:00:00Z</time>
      </trkpt>
      <trkpt lat="39.677012" lon="-6.473421">
        <ele>294.9</ele>
        <time>1970-01-01T00:00:00Z</time>
      </trkpt>
      <trkpt lat="39.677167" lon="-6.473412">
        <ele>293.1</ele>
        <time>1970-01-01T00:00:00Z</time>
      </trkpt>
      <trkpt lat="39.677297" lon="-6.473485">
        <ele>289.8</ele>
        <time>1970-01-01T00:00:00Z</time>
      </trkpt>
      <trkpt lat="39.677494" lon="-6.473526">
        <ele>286.6</ele>
        <time>1970-01-01T00:00:00Z</time>
      </trkpt>
      <trkpt lat="39.677694" lon="-6.473713">
        <ele>279.7</ele>
        <time>1970-01-01T00:00:00Z</time>
      </trkpt>
      <trkpt lat="39.677818" lon="-6.473788">
        <ele>277.1</ele>
        <time>1970-01-01T00:00:00Z</time>
      </trkpt>
      <trkpt lat="39.678286" lon="-6.473768">
        <ele>279.2</ele>
        <time>1970-01-01T00:00:00Z</time>
      </trkpt>
      <trkpt lat="39.678332" lon="-6.473851">
        <ele>278.2</ele>
        <time>1970-01-01T00:00:00Z</time>
      </trkpt>
      <trkpt lat="39.678360" lon="-6.474008">
        <ele>276.3</ele>
        <time>1970-01-01T00:00:00Z</time>
      </trkpt>
      <trkpt lat="39.678386" lon="-6.474081">
        <ele>275.7</ele>
        <time>1970-01-01T00:00:00Z</time>
      </trkpt>
      <trkpt lat="39.678433" lon="-6.474133">
        <ele>275.8</ele>
        <time>1970-01-01T00:00:00Z</time>
      </trkpt>
      <trkpt lat="39.678556" lon="-6.474176">
        <ele>277.0</ele>
        <time>1970-01-01T00:00:00Z</time>
      </trkpt>
      <trkpt lat="39.678646" lon="-6.474174">
        <ele>277.9</ele>
        <time>1970-01-01T00:00:00Z</time>
      </trkpt>
      <trkpt lat="39.678798" lon="-6.474121">
        <ele>279.7</ele>
        <time>1970-01-01T00:00:00Z</time>
      </trkpt>
      <trkpt lat="39.678903" lon="-6.474157">
        <ele>279.9</ele>
        <time>1970-01-01T00:00:00Z</time>
      </trkpt>
      <trkpt lat="39.678987" lon="-6.474227">
        <ele>279.7</ele>
        <time>1970-01-01T00:00:00Z</time>
      </trkpt>
      <trkpt lat="39.679026" lon="-6.474284">
        <ele>279.3</ele>
        <time>1970-01-01T00:00:00Z</time>
      </trkpt>
      <trkpt lat="39.679153" lon="-6.474565">
        <ele>275.0</ele>
        <time>1970-01-01T00:00:00Z</time>
      </trkpt>
      <trkpt lat="39.679198" lon="-6.474592">
        <ele>274.1</ele>
        <time>1970-01-01T00:00:00Z</time>
      </trkpt>
      <trkpt lat="39.679326" lon="-6.474630">
        <ele>271.9</ele>
        <time>1970-01-01T00:00:00Z</time>
      </trkpt>
      <trkpt lat="39.679387" lon="-6.474642">
        <ele>270.7</ele>
        <time>1970-01-01T00:00:00Z</time>
      </trkpt>
      <trkpt lat="39.679444" lon="-6.474621">
        <ele>270.0</ele>
        <time>1970-01-01T00:00:00Z</time>
      </trkpt>
      <trkpt lat="39.679500" lon="-6.474569">
        <ele>270.0</ele>
        <time>1970-01-01T00:00:00Z</time>
      </trkpt>
      <trkpt lat="39.679656" lon="-6.474312">
        <ele>270.7</ele>
        <time>1970-01-01T00:00:00Z</time>
      </trkpt>
      <trkpt lat="39.679757" lon="-6.474199">
        <ele>271.1</ele>
        <time>1970-01-01T00:00:00Z</time>
      </trkpt>
      <trkpt lat="39.679807" lon="-6.474174">
        <ele>271.1</ele>
        <time>1970-01-01T00:00:00Z</time>
      </trkpt>
      <trkpt lat="39.679879" lon="-6.474162">
        <ele>270.7</ele>
        <time>1970-01-01T00:00:00Z</time>
      </trkpt>
      <trkpt lat="39.679939" lon="-6.474192">
        <ele>269.6</ele>
        <time>1970-01-01T00:00:00Z</time>
      </trkpt>
      <trkpt lat="39.680161" lon="-6.474494">
        <ele>263.3</ele>
        <time>1970-01-01T00:00:00Z</time>
      </trkpt>
      <trkpt lat="39.680219" lon="-6.474552">
        <ele>262.1</ele>
        <time>1970-01-01T00:00:00Z</time>
      </trkpt>
      <trkpt lat="39.680279" lon="-6.474578">
        <ele>261.4</ele>
        <time>1970-01-01T00:00:00Z</time>
      </trkpt>
      <trkpt lat="39.680464" lon="-6.474545">
        <ele>261.3</ele>
        <time>1970-01-01T00:00:00Z</time>
      </trkpt>
      <trkpt lat="39.680548" lon="-6.474499">
        <ele>262.1</ele>
        <time>1970-01-01T00:00:00Z</time>
      </trkpt>
      <trkpt lat="39.680640" lon="-6.474433">
        <ele>263.2</ele>
        <time>1970-01-01T00:00:00Z</time>
      </trkpt>
      <trkpt lat="39.680854" lon="-6.474207">
        <ele>265.2</ele>
        <time>1970-01-01T00:00:00Z</time>
      </trkpt>
      <trkpt lat="39.680894" lon="-6.474182">
        <ele>265.3</ele>
        <time>1970-01-01T00:00:00Z</time>
      </trkpt>
      <trkpt lat="39.680948" lon="-6.474161">
        <ele>264.9</ele>
        <time>1970-01-01T00:00:00Z</time>
      </trkpt>
      <trkpt lat="39.681194" lon="-6.474137">
        <ele>262.7</ele>
        <time>1970-01-01T00:00:00Z</time>
      </trkpt>
      <trkpt lat="39.681266" lon="-6.474119">
        <ele>262.0</ele>
        <time>1970-01-01T00:00:00Z</time>
      </trkpt>
      <trkpt lat="39.681345" lon="-6.474080">
        <ele>261.2</ele>
        <time>1970-01-01T00:00:00Z</time>
      </trkpt>
      <trkpt lat="39.681387" lon="-6.474022">
        <ele>261.0</ele>
        <time>1970-01-01T00:00:00Z</time>
      </trkpt>
      <trkpt lat="39.681421" lon="-6.473938">
        <ele>261.0</ele>
        <time>1970-01-01T00:00:00Z</time>
      </trkpt>
      <trkpt lat="39.681437" lon="-6.473866">
        <ele>261.3</ele>
        <time>1970-01-01T00:00:00Z</time>
      </trkpt>
      <trkpt lat="39.681456" lon="-6.473479">
        <ele>263.5</ele>
        <time>1970-01-01T00:00:00Z</time>
      </trkpt>
      <trkpt lat="39.681483" lon="-6.473400">
        <ele>263.9</ele>
        <time>1970-01-01T00:00:00Z</time>
      </trkpt>
      <trkpt lat="39.681523" lon="-6.473348">
        <ele>264.0</ele>
        <time>1970-01-01T00:00:00Z</time>
      </trkpt>
      <trkpt lat="39.681590" lon="-6.473304">
        <ele>263.9</ele>
        <time>1970-01-01T00:00:00Z</time>
      </trkpt>
      <trkpt lat="39.681671" lon="-6.473309">
        <ele>263.5</ele>
        <time>1970-01-01T00:00:00Z</time>
      </trkpt>
      <trkpt lat="39.681750" lon="-6.473366">
        <ele>262.6</ele>
        <time>1970-01-01T00:00:00Z</time>
      </trkpt>
      <trkpt lat="39.681944" lon="-6.473459">
        <ele>261.4</ele>
        <time>1970-01-01T00:00:00Z</time>
      </trkpt>
      <trkpt lat="39.682097" lon="-6.473479">
        <ele>261.2</ele>
        <time>1970-01-01T00:00:00Z</time>
      </trkpt>
      <trkpt lat="39.682466" lon="-6.473587">
        <ele>259.2</ele>
        <time>1970-01-01T00:00:00Z</time>
      </trkpt>
      <trkpt lat="39.682575" lon="-6.473603">
        <ele>258.2</ele>
        <time>1970-01-01T00:00:00Z</time>
      </trkpt>
      <trkpt lat="39.682648" lon="-6.473558">
        <ele>258.5</ele>
        <time>1970-01-01T00:00:00Z</time>
      </trkpt>
      <trkpt lat="39.682679" lon="-6.473493">
        <ele>259.7</ele>
        <time>1970-01-01T00:00:00Z</time>
      </trkpt>
      <trkpt lat="39.682713" lon="-6.473265">
        <ele>263.6</ele>
        <time>1970-01-01T00:00:00Z</time>
      </trkpt>
      <trkpt lat="39.682764" lon="-6.473204">
        <ele>264.4</ele>
        <time>1970-01-01T00:00:00Z</time>
      </trkpt>
      <trkpt lat="39.682840" lon="-6.473221">
        <ele>263.7</ele>
        <time>1970-01-01T00:00:00Z</time>
      </trkpt>
      <trkpt lat="39.683288" lon="-6.473416">
        <ele>257.1</ele>
        <time>1970-01-01T00:00:00Z</time>
      </trkpt>
      <trkpt lat="39.683342" lon="-6.473426">
        <ele>256.4</ele>
        <time>1970-01-01T00:00:00Z</time>
      </trkpt>
      <trkpt lat="39.683429" lon="-6.473332">
        <ele>257.0</ele>
        <time>1970-01-01T00:00:00Z</time>
      </trkpt>
      <trkpt lat="39.683566" lon="-6.473048">
        <ele>258.2</ele>
        <time>1970-01-01T00:00:00Z</time>
      </trkpt>
      <trkpt lat="39.683581" lon="-6.472960">
        <ele>259.0</ele>
        <time>1970-01-01T00:00:00Z</time>
      </trkpt>
      <trkpt lat="39.683580" lon="-6.472871">
        <ele>259.9</ele>
        <time>1970-01-01T00:00:00Z</time>
      </trkpt>
      <trkpt lat="39.683548" lon="-6.472730">
        <ele>261.9</ele>
        <time>1970-01-01T00:00:00Z</time>
      </trkpt>
      <trkpt lat="39.683577" lon="-6.472594">
        <ele>263.1</ele>
        <time>1970-01-01T00:00:00Z</time>
      </trkpt>
      <trkpt lat="39.683886" lon="-6.472212">
        <ele>262.7</ele>
        <time>1970-01-01T00:00:00Z</time>
      </trkpt>
      <trkpt lat="39.683952" lon="-6.472064">
        <ele>263.6</ele>
        <time>1970-01-01T00:00:00Z</time>
      </trkpt>
      <trkpt lat="39.683962" lon="-6.471905">
        <ele>264.3</ele>
        <time>1970-01-01T00:00:00Z</time>
      </trkpt>
      <trkpt lat="39.683922" lon="-6.471714">
        <ele>265.6</ele>
        <time>1970-01-01T00:00:00Z</time>
      </trkpt>
      <trkpt lat="39.683947" lon="-6.471443">
        <ele>266.2</ele>
        <time>1970-01-01T00:00:00Z</time>
      </trkpt>
      <trkpt lat="39.684012" lon="-6.471343">
        <ele>265.9</ele>
        <time>1970-01-01T00:00:00Z</time>
      </trkpt>
      <trkpt lat="39.684108" lon="-6.471268">
        <ele>264.7</ele>
        <time>1970-01-01T00:00:00Z</time>
      </trkpt>
      <trkpt lat="39.684181" lon="-6.471173">
        <ele>263.8</ele>
        <time>1970-01-01T00:00:00Z</time>
      </trkpt>
      <trkpt lat="39.684245" lon="-6.471136">
        <ele>262.9</ele>
        <time>1970-01-01T00:00:00Z</time>
      </trkpt>
      <trkpt lat="39.684383" lon="-6.471090">
        <ele>260.7</ele>
        <time>1970-01-01T00:00:00Z</time>
      </trkpt>
      <trkpt lat="39.684423" lon="-6.471057">
        <ele>260.2</ele>
        <time>1970-01-01T00:00:00Z</time>
      </trkpt>
      <trkpt lat="39.684573" lon="-6.470852">
        <ele>259.4</ele>
        <time>1970-01-01T00:00:00Z</time>
      </trkpt>
      <trkpt lat="39.684638" lon="-6.470772">
        <ele>259.1</ele>
        <time>1970-01-01T00:00:00Z</time>
      </trkpt>
      <trkpt lat="39.684686" lon="-6.470739">
        <ele>258.7</ele>
        <time>1970-01-01T00:00:00Z</time>
      </trkpt>
      <trkpt lat="39.685019" lon="-6.470679">
        <ele>254.8</ele>
        <time>1970-01-01T00:00:00Z</time>
      </trkpt>
      <trkpt lat="39.685259" lon="-6.470549">
        <ele>255.4</ele>
        <time>1970-01-01T00:00:00Z</time>
      </trkpt>
      <trkpt lat="39.685331" lon="-6.470549">
        <ele>255.5</ele>
        <time>1970-01-01T00:00:00Z</time>
      </trkpt>
      <trkpt lat="39.685418" lon="-6.470576">
        <ele>255.3</ele>
        <time>1970-01-01T00:00:00Z</time>
      </trkpt>
      <trkpt lat="39.685747" lon="-6.470801">
        <ele>253.0</ele>
        <time>1970-01-01T00:00:00Z</time>
      </trkpt>
      <trkpt lat="39.685888" lon="-6.470872">
        <ele>252.3</ele>
        <time>1970-01-01T00:00:00Z</time>
      </trkpt>
      <trkpt lat="39.685974" lon="-6.470888">
        <ele>252.4</ele>
        <time>1970-01-01T00:00:00Z</time>
      </trkpt>
      <trkpt lat="39.686461" lon="-6.471277">
        <ele>243.7</ele>
        <time>1970-01-01T00:00:00Z</time>
      </trkpt>
      <trkpt lat="39.686514" lon="-6.471306">
        <ele>242.7</ele>
        <time>1970-01-01T00:00:00Z</time>
      </trkpt>
      <trkpt lat="39.686592" lon="-6.471324">
        <ele>241.7</ele>
        <time>1970-01-01T00:00:00Z</time>
      </trkpt>
      <trkpt lat="39.686721" lon="-6.471266">
        <ele>241.6</ele>
        <time>1970-01-01T00:00:00Z</time>
      </trkpt>
      <trkpt lat="39.686825" lon="-6.471187">
        <ele>241.7</ele>
        <time>1970-01-01T00:00:00Z</time>
      </trkpt>
      <trkpt lat="39.686980" lon="-6.471036">
        <ele>242.0</ele>
        <time>1970-01-01T00:00:00Z</time>
      </trkpt>
      <trkpt lat="39.687138" lon="-6.470998">
        <ele>240.8</ele>
        <time>1970-01-01T00:00:00Z</time>
      </trkpt>
      <trkpt lat="39.687183" lon="-6.470976">
        <ele>240.5</ele>
        <time>1970-01-01T00:00:00Z</time>
      </trkpt>
      <trkpt lat="39.687219" lon="-6.470933">
        <ele>240.4</ele>
        <time>1970-01-01T00:00:00Z</time>
      </trkpt>
      <trkpt lat="39.687238" lon="-6.470858">
        <ele>240.8</ele>
        <time>1970-01-01T00:00:00Z</time>
      </trkpt>
      <trkpt lat="39.687230" lon="-6.470715">
        <ele>242.7</ele>
        <time>1970-01-01T00:00:00Z</time>
      </trkpt>
      <trkpt lat="39.687255" lon="-6.470488">
        <ele>245.0</ele>
        <time>1970-01-01T00:00:00Z</time>
      </trkpt>
      <trkpt lat="39.687308" lon="-6.470329">
        <ele>246.2</ele>
        <time>1970-01-01T00:00:00Z</time>
      </trkpt>
      <trkpt lat="39.687340" lon="-6.470284">
        <ele>246.3</ele>
        <time>1970-01-01T00:00:00Z</time>
      </trkpt>
      <trkpt lat="39.687383" lon="-6.470258">
        <ele>246.1</ele>
        <time>1970-01-01T00:00:00Z</time>
      </trkpt>
      <trkpt lat="39.687432" lon="-6.470254">
        <ele>245.6</ele>
        <time>1970-01-01T00:00:00Z</time>
      </trkpt>
      <trkpt lat="39.687668" lon="-6.470419">
        <ele>240.6</ele>
        <time>1970-01-01T00:00:00Z</time>
      </trkpt>
      <trkpt lat="39.687776" lon="-6.470464">
        <ele>238.2</ele>
        <time>1970-01-01T00:00:00Z</time>
      </trkpt>
      <trkpt lat="39.687845" lon="-6.470513">
        <ele>236.4</ele>
        <time>1970-01-01T00:00:00Z</time>
      </trkpt>
      <trkpt lat="39.687879" lon="-6.470565">
        <ele>235.3</ele>
        <time>1970-01-01T00:00:00Z</time>
      </trkpt>
      <trkpt lat="39.688004" lon="-6.470609">
        <ele>233.1</ele>
        <time>1970-01-01T00:00:00Z</time>
      </trkpt>
      <trkpt lat="39.688171" lon="-6.470639">
        <ele>230.1</ele>
        <time>1970-01-01T00:00:00Z</time>
      </trkpt>
      <trkpt lat="39.688241" lon="-6.470631">
        <ele>229.0</ele>
        <time>1970-01-01T00:00:00Z</time>
      </trkpt>
      <trkpt lat="39.688425" lon="-6.470531">
        <ele>228.0</ele>
        <time>1970-01-01T00:00:00Z</time>
      </trkpt>
      <trkpt lat="39.688707" lon="-6.470525">
        <ele>224.1</ele>
        <time>1970-01-01T00:00:00Z</time>
      </trkpt>
      <trkpt lat="39.688775" lon="-6.470512">
        <ele>223.3</ele>
        <time>1970-01-01T00:00:00Z</time>
      </trkpt>
      <trkpt lat="39.688973" lon="-6.470434">
        <ele>221.7</ele>
        <time>1970-01-01T00:00:00Z</time>
      </trkpt>
      <trkpt lat="39.689118" lon="-6.470344">
        <ele>221.3</ele>
        <time>1970-01-01T00:00:00Z</time>
      </trkpt>
      <trkpt lat="39.689249" lon="-6.470227">
        <ele>221.6</ele>
        <time>1970-01-01T00:00:00Z</time>
      </trkpt>
      <trkpt lat="39.689376" lon="-6.470086">
        <ele>222.4</ele>
        <time>1970-01-01T00:00:00Z</time>
      </trkpt>
      <trkpt lat="39.689626" lon="-6.469538">
        <ele>226.4</ele>
        <time>1970-01-01T00:00:00Z</time>
      </trkpt>
      <trkpt lat="39.690094" lon="-6.468286">
        <ele>215.8</ele>
        <time>1970-01-01T00:00:00Z</time>
      </trkpt>
      <trkpt lat="39.690123" lon="-6.468287">
        <ele>215.4</ele>
        <time>1970-01-01T00:00:00Z</time>
      </trkpt>
      <trkpt lat="39.690439" lon="-6.467406">
        <ele>212.9</ele>
        <time>1970-01-01T00:00:00Z</time>
      </trkpt>
      <trkpt lat="39.691589" lon="-6.464358">
        <ele>202.1</ele>
        <time>1970-01-01T00:00:00Z</time>
      </trkpt>
      <trkpt lat="39.691733" lon="-6.464146">
        <ele>201.8</ele>
        <time>1970-01-01T00:00:00Z</time>
      </trkpt>
      <trkpt lat="39.691811" lon="-6.464052">
        <ele>202.1</ele>
        <time>1970-01-01T00:00:00Z</time>
      </trkpt>
      <trkpt lat="39.692060" lon="-6.463888">
        <ele>205.2</ele>
        <time>1970-01-01T00:00:00Z</time>
      </trkpt>
      <trkpt lat="39.692032" lon="-6.463809">
        <ele>204.6</ele>
        <time>1970-01-01T00:00:00Z</time>
      </trkpt>
      <trkpt lat="39.692044" lon="-6.463749">
        <ele>204.9</ele>
        <time>1970-01-01T00:00:00Z</time>
      </trkpt>
      <trkpt lat="39.692073" lon="-6.463680">
        <ele>205.5</ele>
        <time>1970-01-01T00:00:00Z</time>
      </trkpt>
      <trkpt lat="39.692119" lon="-6.463626">
        <ele>206.5</ele>
        <time>1970-01-01T00:00:00Z</time>
      </trkpt>
      <trkpt lat="39.692151" lon="-6.463479">
        <ele>207.2</ele>
        <time>1970-01-01T00:00:00Z</time>
      </trkpt>
      <trkpt lat="39.692212" lon="-6.463445">
        <ele>208.5</ele>
        <time>1970-01-01T00:00:00Z</time>
      </trkpt>
      <trkpt lat="39.692303" lon="-6.463427">
        <ele>210.3</ele>
        <time>1970-01-01T00:00:00Z</time>
      </trkpt>
      <trkpt lat="39.692333" lon="-6.463437">
        <ele>211.0</ele>
        <time>1970-01-01T00:00:00Z</time>
      </trkpt>
      <trkpt lat="39.692390" lon="-6.463573">
        <ele>212.3</ele>
        <time>1970-01-01T00:00:00Z</time>
      </trkpt>
      <trkpt lat="39.692441" lon="-6.463586">
        <ele>213.4</ele>
        <time>1970-01-01T00:00:00Z</time>
      </trkpt>
      <trkpt lat="39.692503" lon="-6.463580">
        <ele>214.7</ele>
        <time>1970-01-01T00:00:00Z</time>
      </trkpt>
      <trkpt lat="39.692641" lon="-6.463508">
        <ele>217.2</ele>
        <time>1970-01-01T00:00:00Z</time>
      </trkpt>
      <trkpt lat="39.692708" lon="-6.463491">
        <ele>218.3</ele>
        <time>1970-01-01T00:00:00Z</time>
      </trkpt>
      <trkpt lat="39.692806" lon="-6.463500">
        <ele>220.1</ele>
        <time>1970-01-01T00:00:00Z</time>
      </trkpt>
      <trkpt lat="39.692879" lon="-6.463526">
        <ele>221.4</ele>
        <time>1970-01-01T00:00:00Z</time>
      </trkpt>
      <trkpt lat="39.692922" lon="-6.463559">
        <ele>222.3</ele>
        <time>1970-01-01T00:00:00Z</time>
      </trkpt>
      <trkpt lat="39.693050" lon="-6.463497">
        <ele>224.7</ele>
        <time>1970-01-01T00:00:00Z</time>
      </trkpt>
      <trkpt lat="39.693132" lon="-6.463538">
        <ele>226.4</ele>
        <time>1970-01-01T00:00:00Z</time>
      </trkpt>
      <trkpt lat="39.693251" lon="-6.463633">
        <ele>228.5</ele>
        <time>1970-01-01T00:00:00Z</time>
      </trkpt>
      <trkpt lat="39.693315" lon="-6.463657">
        <ele>229.7</ele>
        <time>1970-01-01T00:00:00Z</time>
      </trkpt>
      <trkpt lat="39.693399" lon="-6.463649">
        <ele>231.1</ele>
        <time>1970-01-01T00:00:00Z</time>
      </trkpt>
      <trkpt lat="39.693516" lon="-6.463692">
        <ele>232.0</ele>
        <time>1970-01-01T00:00:00Z</time>
      </trkpt>
      <trkpt lat="39.693698" lon="-6.463875">
        <ele>232.2</ele>
        <time>1970-01-01T00:00:00Z</time>
      </trkpt>
      <trkpt lat="39.693764" lon="-6.463890">
        <ele>233.0</ele>
        <time>1970-01-01T00:00:00Z</time>
      </trkpt>
      <trkpt lat="39.693833" lon="-6.463934">
        <ele>233.4</ele>
        <time>1970-01-01T00:00:00Z</time>
      </trkpt>
      <trkpt lat="39.693879" lon="-6.463946">
        <ele>233.6</ele>
        <time>1970-01-01T00:00:00Z</time>
      </trkpt>
      <trkpt lat="39.693936" lon="-6.463935">
        <ele>234.0</ele>
        <time>1970-01-01T00:00:00Z</time>
      </trkpt>
      <trkpt lat="39.693973" lon="-6.463894">
        <ele>234.6</ele>
        <time>1970-01-01T00:00:00Z</time>
      </trkpt>
      <trkpt lat="39.694024" lon="-6.463883">
        <ele>235.0</ele>
        <time>1970-01-01T00:00:00Z</time>
      </trkpt>
      <trkpt lat="39.694062" lon="-6.463898">
        <ele>235.0</ele>
        <time>1970-01-01T00:00:00Z</time>
      </trkpt>
      <trkpt lat="39.694092" lon="-6.463955">
        <ele>234.3</ele>
        <time>1970-01-01T00:00:00Z</time>
      </trkpt>
      <trkpt lat="39.694106" lon="-6.464028">
        <ele>233.2</ele>
        <time>1970-01-01T00:00:00Z</time>
      </trkpt>
      <trkpt lat="39.694108" lon="-6.464098">
        <ele>232.0</ele>
        <time>1970-01-01T00:00:00Z</time>
      </trkpt>
      <trkpt lat="39.694091" lon="-6.464158">
        <ele>230.9</ele>
        <time>1970-01-01T00:00:00Z</time>
      </trkpt>
      <trkpt lat="39.694160" lon="-6.464222">
        <ele>230.6</ele>
        <time>1970-01-01T00:00:00Z</time>
      </trkpt>
      <trkpt lat="39.694200" lon="-6.464233">
        <ele>230.8</ele>
        <time>1970-01-01T00:00:00Z</time>
      </trkpt>
      <trkpt lat="39.694247" lon="-6.464214">
        <ele>231.5</ele>
        <time>1970-01-01T00:00:00Z</time>
      </trkpt>
      <trkpt lat="39.694376" lon="-6.464240">
        <ele>232.0</ele>
        <time>1970-01-01T00:00:00Z</time>
      </trkpt>
      <trkpt lat="39.694449" lon="-6.464318">
        <ele>231.3</ele>
        <time>1970-01-01T00:00:00Z</time>
      </trkpt>
      <trkpt lat="39.694753" lon="-6.464464">
        <ele>229.5</ele>
        <time>1970-01-01T00:00:00Z</time>
      </trkpt>
      <trkpt lat="39.694871" lon="-6.464476">
        <ele>228.7</ele>
        <time>1970-01-01T00:00:00Z</time>
      </trkpt>
      <trkpt lat="39.695030" lon="-6.464527">
        <ele>226.9</ele>
        <time>1970-01-01T00:00:00Z</time>
      </trkpt>
      <trkpt lat="39.695152" lon="-6.464473">
        <ele>226.3</ele>
        <time>1970-01-01T00:00:00Z</time>
      </trkpt>
      <trkpt lat="39.695189" lon="-6.464408">
        <ele>227.0</ele>
        <time>1970-01-01T00:00:00Z</time>
      </trkpt>
      <trkpt lat="39.695217" lon="-6.464308">
        <ele>229.0</ele>
        <time>1970-01-01T00:00:00Z</time>
      </trkpt>
      <trkpt lat="39.695240" lon="-6.464282">
        <ele>229.5</ele>
        <time>1970-01-01T00:00:00Z</time>
      </trkpt>
      <trkpt lat="39.695270" lon="-6.464308">
        <ele>228.5</ele>
        <time>1970-01-01T00:00:00Z</time>
      </trkpt>
      <trkpt lat="39.695289" lon="-6.464357">
        <ele>226.9</ele>
        <time>1970-01-01T00:00:00Z</time>
      </trkpt>
      <trkpt lat="39.695318" lon="-6.464376">
        <ele>226.1</ele>
        <time>1970-01-01T00:00:00Z</time>
      </trkpt>
      <trkpt lat="39.695448" lon="-6.464186">
        <ele>229.3</ele>
        <time>1970-01-01T00:00:00Z</time>
      </trkpt>
      <trkpt lat="39.695500" lon="-6.464168">
        <ele>229.0</ele>
        <time>1970-01-01T00:00:00Z</time>
      </trkpt>
      <trkpt lat="39.695617" lon="-6.464184">
        <ele>226.6</ele>
        <time>1970-01-01T00:00:00Z</time>
      </trkpt>
      <trkpt lat="39.695738" lon="-6.464075">
        <ele>227.3</ele>
        <time>1970-01-01T00:00:00Z</time>
      </trkpt>
      <trkpt lat="39.695820" lon="-6.464052">
        <ele>226.5</ele>
        <time>1970-01-01T00:00:00Z</time>
      </trkpt>
      <trkpt lat="39.695865" lon="-6.464015">
        <ele>226.7</ele>
        <time>1970-01-01T00:00:00Z</time>
      </trkpt>
      <trkpt lat="39.695965" lon="-6.463847">
        <ele>229.2</ele>
        <time>1970-01-01T00:00:00Z</time>
      </trkpt>
      <trkpt lat="39.696119" lon="-6.463496">
        <ele>234.8</ele>
        <time>1970-01-01T00:00:00Z</time>
      </trkpt>
      <trkpt lat="39.696228" lon="-6.463479">
        <ele>233.1</ele>
        <time>1970-01-01T00:00:00Z</time>
      </trkpt>
      <trkpt lat="39.696404" lon="-6.463387">
        <ele>231.4</ele>
        <time>1970-01-01T00:00:00Z</time>
      </trkpt>
      <trkpt lat="39.696458" lon="-6.463377">
        <ele>230.7</ele>
        <time>1970-01-01T00:00:00Z</time>
      </trkpt>
      <trkpt lat="39.696506" lon="-6.463402">
        <ele>229.4</ele>
        <time>1970-01-01T00:00:00Z</time>
      </trkpt>
      <trkpt lat="39.696520" lon="-6.463394">
        <ele>229.3</ele>
        <time>1970-01-01T00:00:00Z</time>
      </trkpt>
      <trkpt lat="39.696577" lon="-6.463276">
        <ele>231.4</ele>
        <time>1970-01-01T00:00:00Z</time>
      </trkpt>
      <trkpt lat="39.696640" lon="-6.463192">
        <ele>232.6</ele>
        <time>1970-01-01T00:00:00Z</time>
      </trkpt>
      <trkpt lat="39.696681" lon="-6.463090">
        <ele>234.6</ele>
        <time>1970-01-01T00:00:00Z</time>
      </trkpt>
      <trkpt lat="39.696738" lon="-6.463043">
        <ele>235.4</ele>
        <time>1970-01-01T00:00:00Z</time>
      </trkpt>
      <trkpt lat="39.696821" lon="-6.463073">
        <ele>234.4</ele>
        <time>1970-01-01T00:00:00Z</time>
      </trkpt>
      <trkpt lat="39.696937" lon="-6.463079">
        <ele>233.4</ele>
        <time>1970-01-01T00:00:00Z</time>
      </trkpt>
      <trkpt lat="39.697019" lon="-6.463046">
        <ele>233.4</ele>
        <time>1970-01-01T00:00:00Z</time>
      </trkpt>
      <trkpt lat="39.697107" lon="-6.462980">
        <ele>234.2</ele>
        <time>1970-01-01T00:00:00Z</time>
      </trkpt>
      <trkpt lat="39.697135" lon="-6.462991">
        <ele>233.8</ele>
        <time>1970-01-01T00:00:00Z</time>
      </trkpt>
      <trkpt lat="39.697232" lon="-6.463095">
        <ele>231.1</ele>
        <time>1970-01-01T00:00:00Z</time>
      </trkpt>
      <trkpt lat="39.697281" lon="-6.463111">
        <ele>230.6</ele>
        <time>1970-01-01T00:00:00Z</time>
      </trkpt>
      <trkpt lat="39.697347" lon="-6.463097">
        <ele>230.6</ele>
        <time>1970-01-01T00:00:00Z</time>
      </trkpt>
      <trkpt lat="39.697543" lon="-6.463039">
        <ele>231.0</ele>
        <time>1970-01-01T00:00:00Z</time>
      </trkpt>
      <trkpt lat="39.697661" lon="-6.462909">
        <ele>233.2</ele>
        <time>1970-01-01T00:00:00Z</time>
      </trkpt>
      <trkpt lat="39.697716" lon="-6.462883">
        <ele>233.4</ele>
        <time>1970-01-01T00:00:00Z</time>
      </trkpt>
      <trkpt lat="39.697799" lon="-6.462879">
        <ele>232.7</ele>
        <time>1970-01-01T00:00:00Z</time>
      </trkpt>
      <trkpt lat="39.697886" lon="-6.462929">
        <ele>230.2</ele>
        <time>1970-01-01T00:00:00Z</time>
      </trkpt>
      <trkpt lat="39.698011" lon="-6.462891">
        <ele>229.3</ele>
        <time>1970-01-01T00:00:00Z</time>
      </trkpt>
      <trkpt lat="39.698068" lon="-6.462901">
        <ele>228.4</ele>
        <time>1970-01-01T00:00:00Z</time>
      </trkpt>
      <trkpt lat="39.698123" lon="-6.462885">
        <ele>228.2</ele>
        <time>1970-01-01T00:00:00Z</time>
      </trkpt>
      <trkpt lat="39.698240" lon="-6.462695">
        <ele>230.3</ele>
        <time>1970-01-01T00:00:00Z</time>
      </trkpt>
      <trkpt lat="39.698293" lon="-6.462730">
        <ele>229.0</ele>
        <time>1970-01-01T00:00:00Z</time>
      </trkpt>
      <trkpt lat="39.698385" lon="-6.462687">
        <ele>228.5</ele>
        <time>1970-01-01T00:00:00Z</time>
      </trkpt>
      <trkpt lat="39.698433" lon="-6.462699">
        <ele>227.7</ele>
        <time>1970-01-01T00:00:00Z</time>
      </trkpt>
      <trkpt lat="39.698503" lon="-6.462646">
        <ele>227.6</ele>
        <time>1970-01-01T00:00:00Z</time>
      </trkpt>
      <trkpt lat="39.698534" lon="-6.462601">
        <ele>227.9</ele>
        <time>1970-01-01T00:00:00Z</time>
      </trkpt>
      <trkpt lat="39.698617" lon="-6.462583">
        <ele>226.7</ele>
        <time>1970-01-01T00:00:00Z</time>
      </trkpt>
      <trkpt lat="39.698644" lon="-6.462554">
        <ele>226.8</ele>
        <time>1970-01-01T00:00:00Z</time>
      </trkpt>
      <trkpt lat="39.698653" lon="-6.462505">
        <ele>227.4</ele>
        <time>1970-01-01T00:00:00Z</time>
      </trkpt>
      <trkpt lat="39.698652" lon="-6.462368">
        <ele>229.2</ele>
        <time>1970-01-01T00:00:00Z</time>
      </trkpt>
      <trkpt lat="39.698607" lon="-6.462259">
        <ele>231.3</ele>
        <time>1970-01-01T00:00:00Z</time>
      </trkpt>
      <trkpt lat="39.698596" lon="-6.462173">
        <ele>232.7</ele>
        <time>1970-01-01T00:00:00Z</time>
      </trkpt>
      <trkpt lat="39.698675" lon="-6.461964">
        <ele>234.0</ele>
        <time>1970-01-01T00:00:00Z</time>
      </trkpt>
      <trkpt lat="39.698674" lon="-6.461835">
        <ele>235.7</ele>
        <time>1970-01-01T00:00:00Z</time>
      </trkpt>
      <trkpt lat="39.698701" lon="-6.461836">
        <ele>235.2</ele>
        <time>1970-01-01T00:00:00Z</time>
      </trkpt>
      <trkpt lat="39.698752" lon="-6.461802">
        <ele>234.9</ele>
        <time>1970-01-01T00:00:00Z</time>
      </trkpt>
      <trkpt lat="39.698865" lon="-6.461632">
        <ele>235.1</ele>
        <time>1970-01-01T00:00:00Z</time>
      </trkpt>
      <trkpt lat="39.698902" lon="-6.461598">
        <ele>234.9</ele>
        <time>1970-01-01T00:00:00Z</time>
      </trkpt>
      <trkpt lat="39.698966" lon="-6.461553">
        <ele>234.9</ele>
        <time>1970-01-01T00:00:00Z</time>
      </trkpt>
      <trkpt lat="39.699119" lon="-6.461497">
        <ele>235.2</ele>
        <time>1970-01-01T00:00:00Z</time>
      </trkpt>
      <trkpt lat="39.699168" lon="-6.461460">
        <ele>235.5</ele>
        <time>1970-01-01T00:00:00Z</time>
      </trkpt>
      <trkpt lat="39.699152" lon="-6.461412">
        <ele>236.5</ele>
        <time>1970-01-01T00:00:00Z</time>
      </trkpt>
      <trkpt lat="39.699017" lon="-6.461344">
        <ele>238.9</ele>
        <time>1970-01-01T00:00:00Z</time>
      </trkpt>
      <trkpt lat="39.698994" lon="-6.461304">
        <ele>239.9</ele>
        <time>1970-01-01T00:00:00Z</time>
      </trkpt>
      <trkpt lat="39.699042" lon="-6.461237">
        <ele>240.8</ele>
        <time>1970-01-01T00:00:00Z</time>
      </trkpt>
      <trkpt lat="39.699137" lon="-6.461185">
        <ele>240.7</ele>
        <time>1970-01-01T00:00:00Z</time>
      </trkpt>
      <trkpt lat="39.699178" lon="-6.461113">
        <ele>241.6</ele>
        <time>1970-01-01T00:00:00Z</time>
      </trkpt>
      <trkpt lat="39.699204" lon="-6.461030">
        <ele>243.5</ele>
        <time>1970-01-01T00:00:00Z</time>
      </trkpt>
      <trkpt lat="39.699237" lon="-6.461013">
        <ele>243.6</ele>
        <time>1970-01-01T00:00:00Z</time>
      </trkpt>
      <trkpt lat="39.699311" lon="-6.460852">
        <ele>246.6</ele>
        <time>1970-01-01T00:00:00Z</time>
      </trkpt>
      <trkpt lat="39.699381" lon="-6.460782">
        <ele>247.1</ele>
        <time>1970-01-01T00:00:00Z</time>
      </trkpt>
      <trkpt lat="39.699387" lon="-6.460721">
        <ele>248.4</ele>
        <time>1970-01-01T00:00:00Z</time>
      </trkpt>
      <trkpt lat="39.699409" lon="-6.460664">
        <ele>249.2</ele>
        <time>1970-01-01T00:00:00Z</time>
      </trkpt>
      <trkpt lat="39.699477" lon="-6.460581">
        <ele>248.5</ele>
        <time>1970-01-01T00:00:00Z</time>
      </trkpt>
      <trkpt lat="39.699530" lon="-6.460479">
        <ele>248.5</ele>
        <time>1970-01-01T00:00:00Z</time>
      </trkpt>
      <trkpt lat="39.699595" lon="-6.460434">
        <ele>247.3</ele>
        <time>1970-01-01T00:00:00Z</time>
      </trkpt>
      <trkpt lat="39.699677" lon="-6.460215">
        <ele>248.2</ele>
        <time>1970-01-01T00:00:00Z</time>
      </trkpt>
      <trkpt lat="39.699755" lon="-6.460143">
        <ele>247.4</ele>
        <time>1970-01-01T00:00:00Z</time>
      </trkpt>
      <trkpt lat="39.699797" lon="-6.460063">
        <ele>247.6</ele>
        <time>1970-01-01T00:00:00Z</time>
      </trkpt>
      <trkpt lat="39.699789" lon="-6.460027">
        <ele>248.2</ele>
        <time>1970-01-01T00:00:00Z</time>
      </trkpt>
      <trkpt lat="39.699854" lon="-6.459956">
        <ele>247.7</ele>
        <time>1970-01-01T00:00:00Z</time>
      </trkpt>
      <trkpt lat="39.699948" lon="-6.459659">
        <ele>249.0</ele>
        <time>1970-01-01T00:00:00Z</time>
      </trkpt>
      <trkpt lat="39.699995" lon="-6.459565">
        <ele>248.9</ele>
        <time>1970-01-01T00:00:00Z</time>
      </trkpt>
      <trkpt lat="39.700020" lon="-6.459485">
        <ele>249.1</ele>
        <time>1970-01-01T00:00:00Z</time>
      </trkpt>
      <trkpt lat="39.700038" lon="-6.459336">
        <ele>250.0</ele>
        <time>1970-01-01T00:00:00Z</time>
      </trkpt>
      <trkpt lat="39.700062" lon="-6.459270">
        <ele>250.0</ele>
        <time>1970-01-01T00:00:00Z</time>
      </trkpt>
      <trkpt lat="39.700148" lon="-6.459144">
        <ele>248.8</ele>
        <time>1970-01-01T00:00:00Z</time>
      </trkpt>
      <trkpt lat="39.700205" lon="-6.459089">
        <ele>248.1</ele>
        <time>1970-01-01T00:00:00Z</time>
      </trkpt>
      <trkpt lat="39.700237" lon="-6.459015">
        <ele>247.9</ele>
        <time>1970-01-01T00:00:00Z</time>
      </trkpt>
      <trkpt lat="39.700293" lon="-6.458840">
        <ele>247.7</ele>
        <time>1970-01-01T00:00:00Z</time>
      </trkpt>
      <trkpt lat="39.700308" lon="-6.458747">
        <ele>247.5</ele>
        <time>1970-01-01T00:00:00Z</time>
      </trkpt>
      <trkpt lat="39.700427" lon="-6.458427">
        <ele>245.7</ele>
        <time>1970-01-01T00:00:00Z</time>
      </trkpt>
      <trkpt lat="39.700425" lon="-6.458299">
        <ele>245.7</ele>
        <time>1970-01-01T00:00:00Z</time>
      </trkpt>
      <trkpt lat="39.700446" lon="-6.458168">
        <ele>245.1</ele>
        <time>1970-01-01T00:00:00Z</time>
      </trkpt>
      <trkpt lat="39.700299" lon="-6.457918">
        <ele>246.3</ele>
        <time>1970-01-01T00:00:00Z</time>
      </trkpt>
      <trkpt lat="39.700190" lon="-6.457807">
        <ele>246.9</ele>
        <time>1970-01-01T00:00:00Z</time>
      </trkpt>
      <trkpt lat="39.700198" lon="-6.457782">
        <ele>246.7</ele>
        <time>1970-01-01T00:00:00Z</time>
      </trkpt>
      <trkpt lat="39.700250" lon="-6.457778">
        <ele>246.2</ele>
        <time>1970-01-01T00:00:00Z</time>
      </trkpt>
      <trkpt lat="39.700284" lon="-6.457799">
        <ele>246.0</ele>
        <time>1970-01-01T00:00:00Z</time>
      </trkpt>
      <trkpt lat="39.700393" lon="-6.457827">
        <ele>245.3</ele>
        <time>1970-01-01T00:00:00Z</time>
      </trkpt>
      <trkpt lat="39.700468" lon="-6.457885">
        <ele>244.8</ele>
        <time>1970-01-01T00:00:00Z</time>
      </trkpt>
      <trkpt lat="39.700481" lon="-6.457814">
        <ele>244.6</ele>
        <time>1970-01-01T00:00:00Z</time>
      </trkpt>
      <trkpt lat="39.700508" lon="-6.457766">
        <ele>244.4</ele>
        <time>1970-01-01T00:00:00Z</time>
      </trkpt>
      <trkpt lat="39.700582" lon="-6.457715">
        <ele>243.9</ele>
        <time>1970-01-01T00:00:00Z</time>
      </trkpt>
      <trkpt lat="39.700710" lon="-6.457692">
        <ele>243.3</ele>
        <time>1970-01-01T00:00:00Z</time>
      </trkpt>
      <trkpt lat="39.700747" lon="-6.457667">
        <ele>243.2</ele>
        <time>1970-01-01T00:00:00Z</time>
      </trkpt>
      <trkpt lat="39.700728" lon="-6.457523">
        <ele>243.7</ele>
        <time>1970-01-01T00:00:00Z</time>
      </trkpt>
      <trkpt lat="39.700813" lon="-6.457443">
        <ele>243.9</ele>
        <time>1970-01-01T00:00:00Z</time>
      </trkpt>
      <trkpt lat="39.700776" lon="-6.457328">
        <ele>244.5</ele>
        <time>1970-01-01T00:00:00Z</time>
      </trkpt>
      <trkpt lat="39.700883" lon="-6.457276">
        <ele>244.6</ele>
        <time>1970-01-01T00:00:00Z</time>
      </trkpt>
      <trkpt lat="39.701040" lon="-6.456988">
        <ele>247.7</ele>
        <time>1970-01-01T00:00:00Z</time>
      </trkpt>
      <trkpt lat="39.701112" lon="-6.456932">
        <ele>248.1</ele>
        <time>1970-01-01T00:00:00Z</time>
      </trkpt>
      <trkpt lat="39.701207" lon="-6.456892">
        <ele>248.4</ele>
        <time>1970-01-01T00:00:00Z</time>
      </trkpt>
      <trkpt lat="39.701233" lon="-6.456894">
        <ele>248.4</ele>
        <time>1970-01-01T00:00:00Z</time>
      </trkpt>
      <trkpt lat="39.701260" lon="-6.456947">
        <ele>247.4</ele>
        <time>1970-01-01T00:00:00Z</time>
      </trkpt>
      <trkpt lat="39.701297" lon="-6.456922">
        <ele>247.8</ele>
        <time>1970-01-01T00:00:00Z</time>
      </trkpt>
      <trkpt lat="39.701356" lon="-6.456791">
        <ele>250.1</ele>
        <time>1970-01-01T00:00:00Z</time>
      </trkpt>
      <trkpt lat="39.701380" lon="-6.456778">
        <ele>250.3</ele>
        <time>1970-01-01T00:00:00Z</time>
      </trkpt>
      <trkpt lat="39.701705" lon="-6.456745">
        <ele>250.9</ele>
        <time>1970-01-01T00:00:00Z</time>
      </trkpt>
      <trkpt lat="39.701885" lon="-6.456795">
        <ele>250.0</ele>
        <time>1970-01-01T00:00:00Z</time>
      </trkpt>
      <trkpt lat="39.702010" lon="-6.456735">
        <ele>251.1</ele>
        <time>1970-01-01T00:00:00Z</time>
      </trkpt>
      <trkpt lat="39.702049" lon="-6.456703">
        <ele>251.6</ele>
        <time>1970-01-01T00:00:00Z</time>
      </trkpt>
      <trkpt lat="39.702217" lon="-6.456649">
        <ele>253.1</ele>
        <time>1970-01-01T00:00:00Z</time>
      </trkpt>
      <trkpt lat="39.702317" lon="-6.456563">
        <ele>255.5</ele>
        <time>1970-01-01T00:00:00Z</time>
      </trkpt>
      <trkpt lat="39.702383" lon="-6.456566">
        <ele>255.8</ele>
        <time>1970-01-01T00:00:00Z</time>
      </trkpt>
      <trkpt lat="39.702435" lon="-6.456608">
        <ele>255.4</ele>
        <time>1970-01-01T00:00:00Z</time>
      </trkpt>
      <trkpt lat="39.702630" lon="-6.456598">
        <ele>257.2</ele>
        <time>1970-01-01T00:00:00Z</time>
      </trkpt>
      <trkpt lat="39.702689" lon="-6.456604">
        <ele>257.5</ele>
        <time>1970-01-01T00:00:00Z</time>
      </trkpt>
      <trkpt lat="39.702745" lon="-6.456636">
        <ele>257.2</ele>
        <time>1970-01-01T00:00:00Z</time>
      </trkpt>
      <trkpt lat="39.702794" lon="-6.456592">
        <ele>258.2</ele>
        <time>1970-01-01T00:00:00Z</time>
      </trkpt>
      <trkpt lat="39.702829" lon="-6.456462">
        <ele>260.5</ele>
        <time>1970-01-01T00:00:00Z</time>
      </trkpt>
      <trkpt lat="39.703092" lon="-6.456387">
        <ele>263.0</ele>
        <time>1970-01-01T00:00:00Z</time>
      </trkpt>
      <trkpt lat="39.703271" lon="-6.456475">
        <ele>261.6</ele>
        <time>1970-01-01T00:00:00Z</time>
      </trkpt>
      <trkpt lat="39.703465" lon="-6.456408">
        <ele>262.2</ele>
        <time>1970-01-01T00:00:00Z</time>
      </trkpt>
      <trkpt lat="39.703522" lon="-6.456347">
        <ele>263.0</ele>
        <time>1970-01-01T00:00:00Z</time>
      </trkpt>
      <trkpt lat="39.703577" lon="-6.456354">
        <ele>262.6</ele>
        <time>1970-01-01T00:00:00Z</time>
      </trkpt>
      <trkpt lat="39.703748" lon="-6.456442">
        <ele>260.6</ele>
        <time>1970-01-01T00:00:00Z</time>
      </trkpt>
      <trkpt lat="39.703801" lon="-6.456445">
        <ele>260.4</ele>
        <time>1970-01-01T00:00:00Z</time>
      </trkpt>
      <trkpt lat="39.703859" lon="-6.456423">
        <ele>260.6</ele>
        <time>1970-01-01T00:00:00Z</time>
      </trkpt>
      <trkpt lat="39.704080" lon="-6.456449">
        <ele>259.2</ele>
        <time>1970-01-01T00:00:00Z</time>
      </trkpt>
      <trkpt lat="39.704112" lon="-6.456443">
        <ele>259.3</ele>
        <time>1970-01-01T00:00:00Z</time>
      </trkpt>
      <trkpt lat="39.704222" lon="-6.456288">
        <ele>262.0</ele>
        <time>1970-01-01T00:00:00Z</time>
      </trkpt>
      <trkpt lat="39.704258" lon="-6.456287">
        <ele>261.9</ele>
        <time>1970-01-01T00:00:00Z</time>
      </trkpt>
      <trkpt lat="39.704404" lon="-6.456381">
        <ele>259.9</ele>
        <time>1970-01-01T00:00:00Z</time>
      </trkpt>
      <trkpt lat="39.704464" lon="-6.456396">
        <ele>259.5</ele>
        <time>1970-01-01T00:00:00Z</time>
      </trkpt>
      <trkpt lat="39.704579" lon="-6.456387">
        <ele>259.3</ele>
        <time>1970-01-01T00:00:00Z</time>
      </trkpt>
      <trkpt lat="39.704705" lon="-6.456455">
        <ele>257.3</ele>
        <time>1970-01-01T00:00:00Z</time>
      </trkpt>
      <trkpt lat="39.704766" lon="-6.456458">
        <ele>256.9</ele>
        <time>1970-01-01T00:00:00Z</time>
      </trkpt>
      <trkpt lat="39.704818" lon="-6.456439">
        <ele>257.0</ele>
        <time>1970-01-01T00:00:00Z</time>
      </trkpt>
      <trkpt lat="39.704855" lon="-6.456398">
        <ele>257.6</ele>
        <time>1970-01-01T00:00:00Z</time>
      </trkpt>
      <trkpt lat="39.704896" lon="-6.456378">
        <ele>257.7</ele>
        <time>1970-01-01T00:00:00Z</time>
      </trkpt>
      <trkpt lat="39.704941" lon="-6.456390">
        <ele>257.2</ele>
        <time>1970-01-01T00:00:00Z</time>
      </trkpt>
      <trkpt lat="39.705048" lon="-6.456457">
        <ele>255.6</ele>
        <time>1970-01-01T00:00:00Z</time>
      </trkpt>
      <trkpt lat="39.705098" lon="-6.456448">
        <ele>255.6</ele>
        <time>1970-01-01T00:00:00Z</time>
      </trkpt>
      <trkpt lat="39.705282" lon="-6.456353">
        <ele>256.4</ele>
        <time>1970-01-01T00:00:00Z</time>
      </trkpt>
      <trkpt lat="39.705488" lon="-6.456408">
        <ele>253.1</ele>
        <time>1970-01-01T00:00:00Z</time>
      </trkpt>
      <trkpt lat="39.705531" lon="-6.456363">
        <ele>253.5</ele>
        <time>1970-01-01T00:00:00Z</time>
      </trkpt>
      <trkpt lat="39.705628" lon="-6.456318">
        <ele>253.4</ele>
        <time>1970-01-01T00:00:00Z</time>
      </trkpt>
      <trkpt lat="39.705783" lon="-6.456304">
        <ele>252.8</ele>
        <time>1970-01-01T00:00:00Z</time>
      </trkpt>
      <trkpt lat="39.705873" lon="-6.456276">
        <ele>253.1</ele>
        <time>1970-01-01T00:00:00Z</time>
      </trkpt>
      <trkpt lat="39.705954" lon="-6.456320">
        <ele>251.6</ele>
        <time>1970-01-01T00:00:00Z</time>
      </trkpt>
      <trkpt lat="39.706006" lon="-6.456367">
        <ele>250.3</ele>
        <time>1970-01-01T00:00:00Z</time>
      </trkpt>
      <trkpt lat="39.706047" lon="-6.456382">
        <ele>249.9</ele>
        <time>1970-01-01T00:00:00Z</time>
      </trkpt>
      <trkpt lat="39.706099" lon="-6.456384">
        <ele>249.7</ele>
        <time>1970-01-01T00:00:00Z</time>
      </trkpt>
      <trkpt lat="39.706235" lon="-6.456346">
        <ele>249.9</ele>
        <time>1970-01-01T00:00:00Z</time>
      </trkpt>
      <trkpt lat="39.706324" lon="-6.456388">
        <ele>248.3</ele>
        <time>1970-01-01T00:00:00Z</time>
      </trkpt>
      <trkpt lat="39.706446" lon="-6.456241">
        <ele>251.8</ele>
        <time>1970-01-01T00:00:00Z</time>
      </trkpt>
      <trkpt lat="39.706519" lon="-6.456235">
        <ele>251.9</ele>
        <time>1970-01-01T00:00:00Z</time>
      </trkpt>
      <trkpt lat="39.706706" lon="-6.456335">
        <ele>249.1</ele>
        <time>1970-01-01T00:00:00Z</time>
      </trkpt>
      <trkpt lat="39.706894" lon="-6.456194">
        <ele>252.2</ele>
        <time>1970-01-01T00:00:00Z</time>
      </trkpt>
      <trkpt lat="39.706965" lon="-6.456158">
        <ele>253.5</ele>
        <time>1970-01-01T00:00:00Z</time>
      </trkpt>
      <trkpt lat="39.707023" lon="-6.456151">
        <ele>254.1</ele>
        <time>1970-01-01T00:00:00Z</time>
      </trkpt>
      <trkpt lat="39.707064" lon="-6.456190">
        <ele>253.4</ele>
        <time>1970-01-01T00:00:00Z</time>
      </trkpt>
      <trkpt lat="39.707281" lon="-6.456255">
        <ele>254.4</ele>
        <time>1970-01-01T00:00:00Z</time>
      </trkpt>
      <trkpt lat="39.707374" lon="-6.456255">
        <ele>255.6</ele>
        <time>1970-01-01T00:00:00Z</time>
      </trkpt>
      <trkpt lat="39.707579" lon="-6.456216">
        <ele>258.6</ele>
        <time>1970-01-01T00:00:00Z</time>
      </trkpt>
      <trkpt lat="39.707653" lon="-6.456257">
        <ele>258.5</ele>
        <time>1970-01-01T00:00:00Z</time>
      </trkpt>
      <trkpt lat="39.707672" lon="-6.456310">
        <ele>257.5</ele>
        <time>1970-01-01T00:00:00Z</time>
      </trkpt>
      <trkpt lat="39.707813" lon="-6.456452">
        <ele>254.7</ele>
        <time>1970-01-01T00:00:00Z</time>
      </trkpt>
      <trkpt lat="39.707892" lon="-6.456488">
        <ele>254.1</ele>
        <time>1970-01-01T00:00:00Z</time>
      </trkpt>
      <trkpt lat="39.707934" lon="-6.456466">
        <ele>254.9</ele>
        <time>1970-01-01T00:00:00Z</time>
      </trkpt>
      <trkpt lat="39.707970" lon="-6.456418">
        <ele>256.3</ele>
        <time>1970-01-01T00:00:00Z</time>
      </trkpt>
      <trkpt lat="39.708075" lon="-6.456359">
        <ele>257.6</ele>
        <time>1970-01-01T00:00:00Z</time>
      </trkpt>
      <trkpt lat="39.708147" lon="-6.456351">
        <ele>257.6</ele>
        <time>1970-01-01T00:00:00Z</time>
      </trkpt>
      <trkpt lat="39.708225" lon="-6.456241">
        <ele>259.4</ele>
        <time>1970-01-01T00:00:00Z</time>
      </trkpt>
      <trkpt lat="39.708255" lon="-6.456247">
        <ele>258.9</ele>
        <time>1970-01-01T00:00:00Z</time>
      </trkpt>
      <trkpt lat="39.708313" lon="-6.456423">
        <ele>254.5</ele>
        <time>1970-01-01T00:00:00Z</time>
      </trkpt>
      <trkpt lat="39.708342" lon="-6.456276">
        <ele>257.2</ele>
        <time>1970-01-01T00:00:00Z</time>
      </trkpt>
      <trkpt lat="39.708391" lon="-6.456170">
        <ele>258.4</ele>
        <time>1970-01-01T00:00:00Z</time>
      </trkpt>
      <trkpt lat="39.708542" lon="-6.456099">
        <ele>256.8</ele>
        <time>1970-01-01T00:00:00Z</time>
      </trkpt>
      <trkpt lat="39.708763" lon="-6.455907">
        <ele>254.4</ele>
        <time>1970-01-01T00:00:00Z</time>
      </trkpt>
      <trkpt lat="39.708968" lon="-6.455930">
        <ele>248.9</ele>
        <time>1970-01-01T00:00:00Z</time>
      </trkpt>
      <trkpt lat="39.709033" lon="-6.455857">
        <ele>248.5</ele>
        <time>1970-01-01T00:00:00Z</time>
      </trkpt>
      <trkpt lat="39.709122" lon="-6.455839">
        <ele>246.8</ele>
        <time>1970-01-01T00:00:00Z</time>
      </trkpt>
      <trkpt lat="39.709155" lon="-6.455796">
        <ele>246.8</ele>
        <time>1970-01-01T00:00:00Z</time>
      </trkpt>
      <trkpt lat="39.709180" lon="-6.455736">
        <ele>247.3</ele>
        <time>1970-01-01T00:00:00Z</time>
      </trkpt>
      <trkpt lat="39.709214" lon="-6.455562">
        <ele>249.6</ele>
        <time>1970-01-01T00:00:00Z</time>
      </trkpt>
      <trkpt lat="39.709289" lon="-6.455583">
        <ele>247.6</ele>
        <time>1970-01-01T00:00:00Z</time>
      </trkpt>
      <trkpt lat="39.709351" lon="-6.455621">
        <ele>245.6</ele>
        <time>1970-01-01T00:00:00Z</time>
      </trkpt>
      <trkpt lat="39.709425" lon="-6.455511">
        <ele>246.5</ele>
        <time>1970-01-01T00:00:00Z</time>
      </trkpt>
      <trkpt lat="39.709434" lon="-6.455457">
        <ele>247.5</ele>
        <time>1970-01-01T00:00:00Z</time>
      </trkpt>
      <trkpt lat="39.709506" lon="-6.455419">
        <ele>247.1</ele>
        <time>1970-01-01T00:00:00Z</time>
      </trkpt>
      <trkpt lat="39.709580" lon="-6.455422">
        <ele>245.7</ele>
        <time>1970-01-01T00:00:00Z</time>
      </trkpt>
      <trkpt lat="39.709667" lon="-6.455397">
        <ele>244.8</ele>
        <time>1970-01-01T00:00:00Z</time>
      </trkpt>
      <trkpt lat="39.709826" lon="-6.455284">
        <ele>244.4</ele>
        <time>1970-01-01T00:00:00Z</time>
      </trkpt>
      <trkpt lat="39.709989" lon="-6.455191">
        <ele>243.6</ele>
        <time>1970-01-01T00:00:00Z</time>
      </trkpt>
      <trkpt lat="39.710095" lon="-6.455172">
        <ele>242.4</ele>
        <time>1970-01-01T00:00:00Z</time>
      </trkpt>
      <trkpt lat="39.710379" lon="-6.455033">
        <ele>241.3</ele>
        <time>1970-01-01T00:00:00Z</time>
      </trkpt>
      <trkpt lat="39.710416" lon="-6.455000">
        <ele>241.4</ele>
        <time>1970-01-01T00:00:00Z</time>
      </trkpt>
      <trkpt lat="39.710476" lon="-6.454986">
        <ele>240.9</ele>
        <time>1970-01-01T00:00:00Z</time>
      </trkpt>
      <trkpt lat="39.710460" lon="-6.454812">
        <ele>244.2</ele>
        <time>1970-01-01T00:00:00Z</time>
      </trkpt>
      <trkpt lat="39.710549" lon="-6.454785">
        <ele>243.4</ele>
        <time>1970-01-01T00:00:00Z</time>
      </trkpt>
      <trkpt lat="39.710495" lon="-6.454616">
        <ele>247.3</ele>
        <time>1970-01-01T00:00:00Z</time>
      </trkpt>
      <trkpt lat="39.710699" lon="-6.454461">
        <ele>247.3</ele>
        <time>1970-01-01T00:00:00Z</time>
      </trkpt>
      <trkpt lat="39.710761" lon="-6.454363">
        <ele>248.0</ele>
        <time>1970-01-01T00:00:00Z</time>
      </trkpt>
      <trkpt lat="39.710796" lon="-6.454340">
        <ele>248.0</ele>
        <time>1970-01-01T00:00:00Z</time>
      </trkpt>
      <trkpt lat="39.710838" lon="-6.454340">
        <ele>247.5</ele>
        <time>1970-01-01T00:00:00Z</time>
      </trkpt>
      <trkpt lat="39.710860" lon="-6.454257">
        <ele>248.8</ele>
        <time>1970-01-01T00:00:00Z</time>
      </trkpt>
      <trkpt lat="39.710898" lon="-6.454192">
        <ele>249.8</ele>
        <time>1970-01-01T00:00:00Z</time>
      </trkpt>
      <trkpt lat="39.710953" lon="-6.454133">
        <ele>250.6</ele>
        <time>1970-01-01T00:00:00Z</time>
      </trkpt>
      <trkpt lat="39.710978" lon="-6.454120">
        <ele>250.6</ele>
        <time>1970-01-01T00:00:00Z</time>
      </trkpt>
      <trkpt lat="39.711202" lon="-6.454166">
        <ele>248.7</ele>
        <time>1970-01-01T00:00:00Z</time>
      </trkpt>
      <trkpt lat="39.711217" lon="-6.454117">
        <ele>249.6</ele>
        <time>1970-01-01T00:00:00Z</time>
      </trkpt>
      <trkpt lat="39.711175" lon="-6.454051">
        <ele>251.2</ele>
        <time>1970-01-01T00:00:00Z</time>
      </trkpt>
      <trkpt lat="39.711197" lon="-6.454010">
        <ele>252.0</ele>
        <time>1970-01-01T00:00:00Z</time>
      </trkpt>
      <trkpt lat="39.711335" lon="-6.453864">
        <ele>252.2</ele>
        <time>1970-01-01T00:00:00Z</time>
      </trkpt>
      <trkpt lat="39.711419" lon="-6.453799">
        <ele>251.1</ele>
        <time>1970-01-01T00:00:00Z</time>
      </trkpt>
      <trkpt lat="39.711568" lon="-6.453520">
        <ele>249.5</ele>
        <time>1970-01-01T00:00:00Z</time>
      </trkpt>
      <trkpt lat="39.711639" lon="-6.453437">
        <ele>248.7</ele>
        <time>1970-01-01T00:00:00Z</time>
      </trkpt>
      <trkpt lat="39.711713" lon="-6.453260">
        <ele>250.0</ele>
        <time>1970-01-01T00:00:00Z</time>
      </trkpt>
      <trkpt lat="39.711808" lon="-6.453208">
        <ele>248.2</ele>
        <time>1970-01-01T00:00:00Z</time>
      </trkpt>
      <trkpt lat="39.711817" lon="-6.453113">
        <ele>250.5</ele>
        <time>1970-01-01T00:00:00Z</time>
      </trkpt>
      <trkpt lat="39.711836" lon="-6.453099">
        <ele>250.2</ele>
        <time>1970-01-01T00:00:00Z</time>
      </trkpt>
      <trkpt lat="39.711916" lon="-6.453108">
        <ele>246.9</ele>
        <time>1970-01-01T00:00:00Z</time>
      </trkpt>
      <trkpt lat="39.711916" lon="-6.453046">
        <ele>248.5</ele>
        <time>1970-01-01T00:00:00Z</time>
      </trkpt>
      <trkpt lat="39.711870" lon="-6.452972">
        <ele>252.7</ele>
        <time>1970-01-01T00:00:00Z</time>
      </trkpt>
      <trkpt lat="39.711918" lon="-6.452984">
        <ele>250.5</ele>
        <time>1970-01-01T00:00:00Z</time>
      </trkpt>
      <trkpt lat="39.711977" lon="-6.453039">
        <ele>246.6</ele>
        <time>1970-01-01T00:00:00Z</time>
      </trkpt>
      <trkpt lat="39.712015" lon="-6.453036">
        <ele>245.4</ele>
        <time>1970-01-01T00:00:00Z</time>
      </trkpt>
      <trkpt lat="39.712025" lon="-6.452977">
        <ele>247.1</ele>
        <time>1970-01-01T00:00:00Z</time>
      </trkpt>
      <trkpt lat="39.711999" lon="-6.452862">
        <ele>251.9</ele>
        <time>1970-01-01T00:00:00Z</time>
      </trkpt>
      <trkpt lat="39.712040" lon="-6.452837">
        <ele>251.4</ele>
        <time>1970-01-01T00:00:00Z</time>
      </trkpt>
      <trkpt lat="39.712116" lon="-6.452913">
        <ele>246.1</ele>
        <time>1970-01-01T00:00:00Z</time>
      </trkpt>
      <trkpt lat="39.712139" lon="-6.452907">
        <ele>245.6</ele>
        <time>1970-01-01T00:00:00Z</time>
      </trkpt>
      <trkpt lat="39.712145" lon="-6.452771">
        <ele>249.7</ele>
        <time>1970-01-01T00:00:00Z</time>
      </trkpt>
      <trkpt lat="39.712126" lon="-6.452711">
        <ele>252.0</ele>
        <time>1970-01-01T00:00:00Z</time>
      </trkpt>
      <trkpt lat="39.712146" lon="-6.452687">
        <ele>251.9</ele>
        <time>1970-01-01T00:00:00Z</time>
      </trkpt>
      <trkpt lat="39.712170" lon="-6.452698">
        <ele>250.8</ele>
        <time>1970-01-01T00:00:00Z</time>
      </trkpt>
      <trkpt lat="39.712218" lon="-6.452755">
        <ele>247.5</ele>
        <time>1970-01-01T00:00:00Z</time>
      </trkpt>
      <trkpt lat="39.712307" lon="-6.452898">
        <ele>239.6</ele>
        <time>1970-01-01T00:00:00Z</time>
      </trkpt>
      <trkpt lat="39.712273" lon="-6.452698">
        <ele>247.2</ele>
        <time>1970-01-01T00:00:00Z</time>
      </trkpt>
      <trkpt lat="39.712274" lon="-6.452622">
        <ele>249.5</ele>
        <time>1970-01-01T00:00:00Z</time>
      </trkpt>
      <trkpt lat="39.712302" lon="-6.452549">
        <ele>250.9</ele>
        <time>1970-01-01T00:00:00Z</time>
      </trkpt>
      <trkpt lat="39.712347" lon="-6.452507">
        <ele>251.0</ele>
        <time>1970-01-01T00:00:00Z</time>
      </trkpt>
      <trkpt lat="39.712404" lon="-6.452475">
        <ele>250.3</ele>
        <time>1970-01-01T00:00:00Z</time>
      </trkpt>
      <trkpt lat="39.712622" lon="-6.452434">
        <ele>244.2</ele>
        <time>1970-01-01T00:00:00Z</time>
      </trkpt>
      <trkpt lat="39.712987" lon="-6.452485">
        <ele>231.9</ele>
        <time>1970-01-01T00:00:00Z</time>
      </trkpt>
      <trkpt lat="39.713000" lon="-6.452426">
        <ele>233.4</ele>
        <time>1970-01-01T00:00:00Z</time>
      </trkpt>
      <trkpt lat="39.712871" lon="-6.452341">
        <ele>240.0</ele>
        <time>1970-01-01T00:00:00Z</time>
      </trkpt>
      <trkpt lat="39.712855" lon="-6.452298">
        <ele>241.4</ele>
        <time>1970-01-01T00:00:00Z</time>
      </trkpt>
      <trkpt lat="39.712930" lon="-6.452284">
        <ele>239.5</ele>
        <time>1970-01-01T00:00:00Z</time>
      </trkpt>
      <trkpt lat="39.712983" lon="-6.452280">
        <ele>238.1</ele>
        <time>1970-01-01T00:00:00Z</time>
      </trkpt>
      <trkpt lat="39.713111" lon="-6.452365">
        <ele>232.7</ele>
        <time>1970-01-01T00:00:00Z</time>
      </trkpt>
      <trkpt lat="39.713267" lon="-6.452410">
        <ele>229.3</ele>
        <time>1970-01-01T00:00:00Z</time>
      </trkpt>
      <trkpt lat="39.713327" lon="-6.452381">
        <ele>229.5</ele>
        <time>1970-01-01T00:00:00Z</time>
      </trkpt>
      <trkpt lat="39.713256" lon="-6.452348">
        <ele>231.4</ele>
        <time>1970-01-01T00:00:00Z</time>
      </trkpt>
      <trkpt lat="39.713191" lon="-6.452293">
        <ele>233.6</ele>
        <time>1970-01-01T00:00:00Z</time>
      </trkpt>
      <trkpt lat="39.713173" lon="-6.452259">
        <ele>234.6</ele>
        <time>1970-01-01T00:00:00Z</time>
      </trkpt>
      <trkpt lat="39.713227" lon="-6.452250">
        <ele>234.0</ele>
        <time>1970-01-01T00:00:00Z</time>
      </trkpt>
      <trkpt lat="39.713382" lon="-6.452265">
        <ele>231.6</ele>
        <time>1970-01-01T00:00:00Z</time>
      </trkpt>
      <trkpt lat="39.713483" lon="-6.452144">
        <ele>232.9</ele>
        <time>1970-01-01T00:00:00Z</time>
      </trkpt>
      <trkpt lat="39.713520" lon="-6.452129">
        <ele>232.7</ele>
        <time>1970-01-01T00:00:00Z</time>
      </trkpt>
      <trkpt lat="39.713559" lon="-6.452089">
        <ele>233.0</ele>
        <time>1970-01-01T00:00:00Z</time>
      </trkpt>
      <trkpt lat="39.713741" lon="-6.452127">
        <ele>229.0</ele>
        <time>1970-01-01T00:00:00Z</time>
      </trkpt>
      <trkpt lat="39.713814" lon="-6.452106">
        <ele>228.2</ele>
        <time>1970-01-01T00:00:00Z</time>
      </trkpt>
      <trkpt lat="39.713937" lon="-6.452034">
        <ele>227.4</ele>
        <time>1970-01-01T00:00:00Z</time>
      </trkpt>
      <trkpt lat="39.713976" lon="-6.452001">
        <ele>227.2</ele>
        <time>1970-01-01T00:00:00Z</time>
      </trkpt>
      <trkpt lat="39.714016" lon="-6.451936">
        <ele>227.5</ele>
        <time>1970-01-01T00:00:00Z</time>
      </trkpt>
      <trkpt lat="39.714176" lon="-6.451811">
        <ele>225.7</ele>
        <time>1970-01-01T00:00:00Z</time>
      </trkpt>
      <trkpt lat="39.714203" lon="-6.451728">
        <ele>225.8</ele>
        <time>1970-01-01T00:00:00Z</time>
      </trkpt>
      <trkpt lat="39.714324" lon="-6.451581">
        <ele>223.9</ele>
        <time>1970-01-01T00:00:00Z</time>
      </trkpt>
      <trkpt lat="39.714415" lon="-6.451406">
        <ele>222.3</ele>
        <time>1970-01-01T00:00:00Z</time>
      </trkpt>
      <trkpt lat="39.714421" lon="-6.451265">
        <ele>222.1</ele>
        <time>1970-01-01T00:00:00Z</time>
      </trkpt>
      <trkpt lat="39.714456" lon="-6.451227">
        <ele>221.0</ele>
        <time>1970-01-01T00:00:00Z</time>
      </trkpt>
      <trkpt lat="39.714559" lon="-6.451277">
        <ele>218.3</ele>
        <time>1970-01-01T00:00:00Z</time>
      </trkpt>
      <trkpt lat="39.714642" lon="-6.451256">
        <ele>216.2</ele>
        <time>1970-01-01T00:00:00Z</time>
      </trkpt>
      <trkpt lat="39.714778" lon="-6.451184">
        <ele>213.1</ele>
        <time>1970-01-01T00:00:00Z</time>
      </trkpt>
      <trkpt lat="39.714884" lon="-6.450943">
        <ele>209.5</ele>
        <time>1970-01-01T00:00:00Z</time>
      </trkpt>
      <trkpt lat="39.714945" lon="-6.450830">
        <ele>207.6</ele>
        <time>1970-01-01T00:00:00Z</time>
      </trkpt>
      <trkpt lat="39.715020" lon="-6.450729">
        <ele>205.8</ele>
        <time>1970-01-01T00:00:00Z</time>
      </trkpt>
      <trkpt lat="39.715105" lon="-6.450650">
        <ele>204.3</ele>
        <time>1970-01-01T00:00:00Z</time>
      </trkpt>
      <trkpt lat="39.715200" lon="-6.450531">
        <ele>202.7</ele>
        <time>1970-01-01T00:00:00Z</time>
      </trkpt>
      <trkpt lat="39.715491" lon="-6.450348">
        <ele>200.0</ele>
        <time>1970-01-01T00:00:00Z</time>
      </trkpt>
      <trkpt lat="39.716871" lon="-6.449711">
        <ele>201.8</ele>
        <time>1970-01-01T00:00:00Z</time>
      </trkpt>
      <trkpt lat="39.718539" lon="-6.448965">
        <ele>200.0</ele>
        <time>1970-01-01T00:00:00Z</time>
      </trkpt>
      <trkpt lat="39.719078" lon="-6.448705">
        <ele>198.3</ele>
        <time>1970-01-01T00:00:00Z</time>
      </trkpt>
      <trkpt lat="39.719463" lon="-6.448544">
        <ele>200.9</ele>
        <time>1970-01-01T00:00:00Z</time>
      </trkpt>
      <trkpt lat="39.719702" lon="-6.448462">
        <ele>205.8</ele>
        <time>1970-01-01T00:00:00Z</time>
      </trkpt>
      <trkpt lat="39.719836" lon="-6.448444">
        <ele>209.3</ele>
        <time>1970-01-01T00:00:00Z</time>
      </trkpt>
      <trkpt lat="39.720001" lon="-6.448455">
        <ele>213.5</ele>
        <time>1970-01-01T00:00:00Z</time>
      </trkpt>
      <trkpt lat="39.720099" lon="-6.448482">
        <ele>216.6</ele>
        <time>1970-01-01T00:00:00Z</time>
      </trkpt>
      <trkpt lat="39.720123" lon="-6.448414">
        <ele>217.8</ele>
        <time>1970-01-01T00:00:00Z</time>
      </trkpt>
      <trkpt lat="39.720223" lon="-6.448377">
        <ele>221.4</ele>
        <time>1970-01-01T00:00:00Z</time>
      </trkpt>
      <trkpt lat="39.720278" lon="-6.448380">
        <ele>223.0</ele>
        <time>1970-01-01T00:00:00Z</time>
      </trkpt>
      <trkpt lat="39.720419" lon="-6.448330">
        <ele>226.9</ele>
        <time>1970-01-01T00:00:00Z</time>
      </trkpt>
      <trkpt lat="39.720616" lon="-6.448350">
        <ele>232.5</ele>
        <time>1970-01-01T00:00:00Z</time>
      </trkpt>
      <trkpt lat="39.720804" lon="-6.448320">
        <ele>237.6</ele>
        <time>1970-01-01T00:00:00Z</time>
      </trkpt>
      <trkpt lat="39.720867" lon="-6.448394">
        <ele>238.5</ele>
        <time>1970-01-01T00:00:00Z</time>
      </trkpt>
      <trkpt lat="39.720890" lon="-6.448450">
        <ele>238.2</ele>
        <time>1970-01-01T00:00:00Z</time>
      </trkpt>
      <trkpt lat="39.720893" lon="-6.448536">
        <ele>236.8</ele>
        <time>1970-01-01T00:00:00Z</time>
      </trkpt>
      <trkpt lat="39.721013" lon="-6.448612">
        <ele>236.8</ele>
        <time>1970-01-01T00:00:00Z</time>
      </trkpt>
      <trkpt lat="39.721118" lon="-6.448649">
        <ele>236.5</ele>
        <time>1970-01-01T00:00:00Z</time>
      </trkpt>
      <trkpt lat="39.721307" lon="-6.448656">
        <ele>235.9</ele>
        <time>1970-01-01T00:00:00Z</time>
      </trkpt>
      <trkpt lat="39.721443" lon="-6.448633">
        <ele>235.9</ele>
        <time>1970-01-01T00:00:00Z</time>
      </trkpt>
      <trkpt lat="39.721511" lon="-6.448589">
        <ele>236.6</ele>
        <time>1970-01-01T00:00:00Z</time>
      </trkpt>
      <trkpt lat="39.721564" lon="-6.448590">
        <ele>236.3</ele>
        <time>1970-01-01T00:00:00Z</time>
      </trkpt>
      <trkpt lat="39.721624" lon="-6.448630">
        <ele>235.2</ele>
        <time>1970-01-01T00:00:00Z</time>
      </trkpt>
      <trkpt lat="39.721675" lon="-6.448719">
        <ele>232.1</ele>
        <time>1970-01-01T00:00:00Z</time>
      </trkpt>
      <trkpt lat="39.721749" lon="-6.448708">
        <ele>231.5</ele>
        <time>1970-01-01T00:00:00Z</time>
      </trkpt>
      <trkpt lat="39.721793" lon="-6.448653">
        <ele>232.5</ele>
        <time>1970-01-01T00:00:00Z</time>
      </trkpt>
      <trkpt lat="39.721844" lon="-6.448483">
        <ele>236.2</ele>
        <time>1970-01-01T00:00:00Z</time>
      </trkpt>
      <trkpt lat="39.721896" lon="-6.448382">
        <ele>238.4</ele>
        <time>1970-01-01T00:00:00Z</time>
      </trkpt>
      <trkpt lat="39.721960" lon="-6.448296">
        <ele>240.0</ele>
        <time>1970-01-01T00:00:00Z</time>
      </trkpt>
      <trkpt lat="39.722206" lon="-6.448436">
        <ele>235.2</ele>
        <time>1970-01-01T00:00:00Z</time>
      </trkpt>
      <trkpt lat="39.722395" lon="-6.448468">
        <ele>233.2</ele>
        <time>1970-01-01T00:00:00Z</time>
      </trkpt>
      <trkpt lat="39.722621" lon="-6.448383">
        <ele>234.2</ele>
        <time>1970-01-01T00:00:00Z</time>
      </trkpt>
      <trkpt lat="39.722705" lon="-6.448326">
        <ele>235.1</ele>
        <time>1970-01-01T00:00:00Z</time>
      </trkpt>
      <trkpt lat="39.722796" lon="-6.448325">
        <ele>234.7</ele>
        <time>1970-01-01T00:00:00Z</time>
      </trkpt>
      <trkpt lat="39.722940" lon="-6.448246">
        <ele>235.4</ele>
        <time>1970-01-01T00:00:00Z</time>
      </trkpt>
      <trkpt lat="39.723002" lon="-6.448133">
        <ele>236.9</ele>
        <time>1970-01-01T00:00:00Z</time>
      </trkpt>
      <trkpt lat="39.723031" lon="-6.448048">
        <ele>238.1</ele>
        <time>1970-01-01T00:00:00Z</time>
      </trkpt>
      <trkpt lat="39.723148" lon="-6.447580">
        <ele>247.3</ele>
        <time>1970-01-01T00:00:00Z</time>
      </trkpt>
      <trkpt lat="39.723176" lon="-6.447532">
        <ele>248.2</ele>
        <time>1970-01-01T00:00:00Z</time>
      </trkpt>
      <trkpt lat="39.723236" lon="-6.447515">
        <ele>248.3</ele>
        <time>1970-01-01T00:00:00Z</time>
      </trkpt>
      <trkpt lat="39.723304" lon="-6.447526">
        <ele>247.8</ele>
        <time>1970-01-01T00:00:00Z</time>
      </trkpt>
      <trkpt lat="39.723395" lon="-6.447555">
        <ele>246.8</ele>
        <time>1970-01-01T00:00:00Z</time>
      </trkpt>
      <trkpt lat="39.723515" lon="-6.447620">
        <ele>245.2</ele>
        <time>1970-01-01T00:00:00Z</time>
      </trkpt>
      <trkpt lat="39.723591" lon="-6.447624">
        <ele>245.8</ele>
        <time>1970-01-01T00:00:00Z</time>
      </trkpt>
      <trkpt lat="39.723647" lon="-6.447590">
        <ele>247.0</ele>
        <time>1970-01-01T00:00:00Z</time>
      </trkpt>
      <trkpt lat="39.723731" lon="-6.447584">
        <ele>248.0</ele>
        <time>1970-01-01T00:00:00Z</time>
      </trkpt>
      <trkpt lat="39.723795" lon="-6.447607">
        <ele>248.3</ele>
        <time>1970-01-01T00:00:00Z</time>
      </trkpt>
      <trkpt lat="39.723893" lon="-6.447676">
        <ele>248.1</ele>
        <time>1970-01-01T00:00:00Z</time>
      </trkpt>
      <trkpt lat="39.723960" lon="-6.447667">
        <ele>249.2</ele>
        <time>1970-01-01T00:00:00Z</time>
      </trkpt>
      <trkpt lat="39.724077" lon="-6.447572">
        <ele>253.5</ele>
        <time>1970-01-01T00:00:00Z</time>
      </trkpt>
      <trkpt lat="39.724176" lon="-6.447515">
        <ele>256.4</ele>
        <time>1970-01-01T00:00:00Z</time>
      </trkpt>
      <trkpt lat="39.724243" lon="-6.447368">
        <ele>260.1</ele>
        <time>1970-01-01T00:00:00Z</time>
      </trkpt>
      <trkpt lat="39.724309" lon="-6.447322">
        <ele>261.8</ele>
        <time>1970-01-01T00:00:00Z</time>
      </trkpt>
      <trkpt lat="39.724333" lon="-6.447219">
        <ele>263.4</ele>
        <time>1970-01-01T00:00:00Z</time>
      </trkpt>
      <trkpt lat="39.724490" lon="-6.447148">
        <ele>265.7</ele>
        <time>1970-01-01T00:00:00Z</time>
      </trkpt>
      <trkpt lat="39.724539" lon="-6.447148">
        <ele>265.9</ele>
        <time>1970-01-01T00:00:00Z</time>
      </trkpt>
      <trkpt lat="39.724592" lon="-6.447190">
        <ele>265.9</ele>
        <time>1970-01-01T00:00:00Z</time>
      </trkpt>
      <trkpt lat="39.724647" lon="-6.447195">
        <ele>266.3</ele>
        <time>1970-01-01T00:00:00Z</time>
      </trkpt>
      <trkpt lat="39.724751" lon="-6.447166">
        <ele>267.3</ele>
        <time>1970-01-01T00:00:00Z</time>
      </trkpt>
      <trkpt lat="39.724807" lon="-6.447203">
        <ele>267.6</ele>
        <time>1970-01-01T00:00:00Z</time>
      </trkpt>
      <trkpt lat="39.724860" lon="-6.447320">
        <ele>268.2</ele>
        <time>1970-01-01T00:00:00Z</time>
      </trkpt>
      <trkpt lat="39.725030" lon="-6.447395">
        <ele>269.3</ele>
        <time>1970-01-01T00:00:00Z</time>
      </trkpt>
      <trkpt lat="39.725213" lon="-6.447446">
        <ele>269.5</ele>
        <time>1970-01-01T00:00:00Z</time>
      </trkpt>
      <trkpt lat="39.725266" lon="-6.447394">
        <ele>269.4</ele>
        <time>1970-01-01T00:00:00Z</time>
      </trkpt>
      <trkpt lat="39.725379" lon="-6.447173">
        <ele>270.9</ele>
        <time>1970-01-01T00:00:00Z</time>
      </trkpt>
      <trkpt lat="39.725393" lon="-6.447040">
        <ele>272.3</ele>
        <time>1970-01-01T00:00:00Z</time>
      </trkpt>
      <trkpt lat="39.725370" lon="-6.446903">
        <ele>272.8</ele>
        <time>1970-01-01T00:00:00Z</time>
      </trkpt>
      <trkpt lat="39.725366" lon="-6.446782">
        <ele>273.3</ele>
        <time>1970-01-01T00:00:00Z</time>
      </trkpt>
      <trkpt lat="39.725354" lon="-6.446692">
        <ele>273.6</ele>
        <time>1970-01-01T00:00:00Z</time>
      </trkpt>
      <trkpt lat="39.725312" lon="-6.446624">
        <ele>273.5</ele>
        <time>1970-01-01T00:00:00Z</time>
      </trkpt>
      <trkpt lat="39.725271" lon="-6.446607">
        <ele>273.2</ele>
        <time>1970-01-01T00:00:00Z</time>
      </trkpt>
      <trkpt lat="39.725209" lon="-6.446621">
        <ele>272.6</ele>
        <time>1970-01-01T00:00:00Z</time>
      </trkpt>
      <trkpt lat="39.725139" lon="-6.446669">
        <ele>271.8</ele>
        <time>1970-01-01T00:00:00Z</time>
      </trkpt>
      <trkpt lat="39.725062" lon="-6.446698">
        <ele>271.3</ele>
        <time>1970-01-01T00:00:00Z</time>
      </trkpt>
      <trkpt lat="39.724982" lon="-6.446684">
        <ele>271.1</ele>
        <time>1970-01-01T00:00:00Z</time>
      </trkpt>
      <trkpt lat="39.724934" lon="-6.446585">
        <ele>271.8</ele>
        <time>1970-01-01T00:00:00Z</time>
      </trkpt>
      <trkpt lat="39.724891" lon="-6.446462">
        <ele>272.4</ele>
        <time>1970-01-01T00:00:00Z</time>
      </trkpt>
      <trkpt lat="39.724843" lon="-6.446425">
        <ele>272.6</ele>
        <time>1970-01-01T00:00:00Z</time>
      </trkpt>
      <trkpt lat="39.724738" lon="-6.446420">
        <ele>272.6</ele>
        <time>1970-01-01T00:00:00Z</time>
      </trkpt>
      <trkpt lat="39.724571" lon="-6.446471">
        <ele>272.2</ele>
        <time>1970-01-01T00:00:00Z</time>
      </trkpt>
      <trkpt lat="39.724475" lon="-6.446431">
        <ele>272.2</ele>
        <time>1970-01-01T00:00:00Z</time>
      </trkpt>
      <trkpt lat="39.724383" lon="-6.446333">
        <ele>272.9</ele>
        <time>1970-01-01T00:00:00Z</time>
      </trkpt>
      <trkpt lat="39.724360" lon="-6.446240">
        <ele>273.4</ele>
        <time>1970-01-01T00:00:00Z</time>
      </trkpt>
      <trkpt lat="39.724365" lon="-6.446092">
        <ele>274.0</ele>
        <time>1970-01-01T00:00:00Z</time>
      </trkpt>
      <trkpt lat="39.724428" lon="-6.445844">
        <ele>276.0</ele>
        <time>1970-01-01T00:00:00Z</time>
      </trkpt>
      <trkpt lat="39.724484" lon="-6.445736">
        <ele>276.0</ele>
        <time>1970-01-01T00:00:00Z</time>
      </trkpt>
      <trkpt lat="39.724657" lon="-6.445579">
        <ele>276.3</ele>
        <time>1970-01-01T00:00:00Z</time>
      </trkpt>
      <trkpt lat="39.724689" lon="-6.445501">
        <ele>276.8</ele>
        <time>1970-01-01T00:00:00Z</time>
      </trkpt>
      <trkpt lat="39.724695" lon="-6.445432">
        <ele>277.1</ele>
        <time>1970-01-01T00:00:00Z</time>
      </trkpt>
      <trkpt lat="39.724611" lon="-6.445194">
        <ele>277.9</ele>
        <time>1970-01-01T00:00:00Z</time>
      </trkpt>
      <trkpt lat="39.724573" lon="-6.445130">
        <ele>278.2</ele>
        <time>1970-01-01T00:00:00Z</time>
      </trkpt>
      <trkpt lat="39.724385" lon="-6.445029">
        <ele>278.5</ele>
        <time>1970-01-01T00:00:00Z</time>
      </trkpt>
      <trkpt lat="39.724312" lon="-6.444971">
        <ele>278.5</ele>
        <time>1970-01-01T00:00:00Z</time>
      </trkpt>
      <trkpt lat="39.724283" lon="-6.444881">
        <ele>278.7</ele>
        <time>1970-01-01T00:00:00Z</time>
      </trkpt>
      <trkpt lat="39.724292" lon="-6.444810">
        <ele>279.0</ele>
        <time>1970-01-01T00:00:00Z</time>
      </trkpt>
      <trkpt lat="39.724323" lon="-6.444742">
        <ele>279.2</ele>
        <time>1970-01-01T00:00:00Z</time>
      </trkpt>
      <trkpt lat="39.724419" lon="-6.444606">
        <ele>279.9</ele>
        <time>1970-01-01T00:00:00Z</time>
      </trkpt>
      <trkpt lat="39.724454" lon="-6.444487">
        <ele>281.1</ele>
        <time>1970-01-01T00:00:00Z</time>
      </trkpt>
      <trkpt lat="39.724432" lon="-6.444405">
        <ele>281.7</ele>
        <time>1970-01-01T00:00:00Z</time>
      </trkpt>
      <trkpt lat="39.724378" lon="-6.444318">
        <ele>282.3</ele>
        <time>1970-01-01T00:00:00Z</time>
      </trkpt>
      <trkpt lat="39.724269" lon="-6.444308">
        <ele>282.4</ele>
        <time>1970-01-01T00:00:00Z</time>
      </trkpt>
      <trkpt lat="39.723675" lon="-6.444666">
        <ele>282.7</ele>
        <time>1970-01-01T00:00:00Z</time>
      </trkpt>
      <trkpt lat="39.723566" lon="-6.444675">
        <ele>283.5</ele>
        <time>1970-01-01T00:00:00Z</time>
      </trkpt>
      <trkpt lat="39.723427" lon="-6.444604">
        <ele>285.2</ele>
        <time>1970-01-01T00:00:00Z</time>
      </trkpt>
      <trkpt lat="39.723345" lon="-6.444536">
        <ele>286.2</ele>
        <time>1970-01-01T00:00:00Z</time>
      </trkpt>
      <trkpt lat="39.723300" lon="-6.444395">
        <ele>287.1</ele>
        <time>1970-01-01T00:00:00Z</time>
      </trkpt>
      <trkpt lat="39.723313" lon="-6.444275">
        <ele>287.6</ele>
        <time>1970-01-01T00:00:00Z</time>
      </trkpt>
      <trkpt lat="39.723371" lon="-6.444130">
        <ele>287.7</ele>
        <time>1970-01-01T00:00:00Z</time>
      </trkpt>
      <trkpt lat="39.723450" lon="-6.444040">
        <ele>287.9</ele>
        <time>1970-01-01T00:00:00Z</time>
      </trkpt>
      <trkpt lat="39.723620" lon="-6.443892">
        <ele>288.2</ele>
        <time>1970-01-01T00:00:00Z</time>
      </trkpt>
      <trkpt lat="39.723829" lon="-6.443770">
        <ele>288.6</ele>
        <time>1970-01-01T00:00:00Z</time>
      </trkpt>
      <trkpt lat="39.723917" lon="-6.443660">
        <ele>289.1</ele>
        <time>1970-01-01T00:00:00Z</time>
      </trkpt>
      <trkpt lat="39.723981" lon="-6.443550">
        <ele>289.8</ele>
        <time>1970-01-01T00:00:00Z</time>
      </trkpt>
      <trkpt lat="39.724058" lon="-6.443280">
        <ele>291.7</ele>
        <time>1970-01-01T00:00:00Z</time>
      </trkpt>
      <trkpt lat="39.724139" lon="-6.442926">
        <ele>294.4</ele>
        <time>1970-01-01T00:00:00Z</time>
      </trkpt>
      <trkpt lat="39.724105" lon="-6.442779">
        <ele>294.9</ele>
        <time>1970-01-01T00:00:00Z</time>
      </trkpt>
      <trkpt lat="39.724087" lon="-6.442597">
        <ele>295.2</ele>
        <time>1970-01-01T00:00:00Z</time>
      </trkpt>
      <trkpt lat="39.724105" lon="-6.442502">
        <ele>295.2</ele>
        <time>1970-01-01T00:00:00Z</time>
      </trkpt>
      <trkpt lat="39.724162" lon="-6.442460">
        <ele>295.8</ele>
        <time>1970-01-01T00:00:00Z</time>
      </trkpt>
      <trkpt lat="39.724231" lon="-6.442444">
        <ele>296.5</ele>
        <time>1970-01-01T00:00:00Z</time>
      </trkpt>
      <trkpt lat="39.724495" lon="-6.442531">
        <ele>298.5</ele>
        <time>1970-01-01T00:00:00Z</time>
      </trkpt>
      <trkpt lat="39.724753" lon="-6.442532">
        <ele>300.0</ele>
        <time>1970-01-01T00:00:00Z</time>
      </trkpt>
      <trkpt lat="39.724856" lon="-6.442510">
        <ele>300.8</ele>
        <time>1970-01-01T00:00:00Z</time>
      </trkpt>
      <trkpt lat="39.725088" lon="-6.442339">
        <ele>302.2</ele>
        <time>1970-01-01T00:00:00Z</time>
      </trkpt>
      <trkpt lat="39.725348" lon="-6.442003">
        <ele>304.6</ele>
        <time>1970-01-01T00:00:00Z</time>
      </trkpt>
      <trkpt lat="39.725462" lon="-6.441834">
        <ele>305.6</ele>
        <time>1970-01-01T00:00:00Z</time>
      </trkpt>
      <trkpt lat="39.725495" lon="-6.441751">
        <ele>306.3</ele>
        <time>1970-01-01T00:00:00Z</time>
      </trkpt>
      <trkpt lat="39.725584" lon="-6.441366">
        <ele>308.0</ele>
        <time>1970-01-01T00:00:00Z</time>
      </trkpt>
      <trkpt lat="39.725760" lon="-6.440444">
        <ele>309.2</ele>
        <time>1970-01-01T00:00:00Z</time>
      </trkpt>
      <trkpt lat="39.725841" lon="-6.440095">
        <ele>310.0</ele>
        <time>1970-01-01T00:00:00Z</time>
      </trkpt>
      <trkpt lat="39.725963" lon="-6.439720">
        <ele>309.7</ele>
        <time>1970-01-01T00:00:00Z</time>
      </trkpt>
      <trkpt lat="39.726014" lon="-6.439617">
        <ele>309.9</ele>
        <time>1970-01-01T00:00:00Z</time>
      </trkpt>
      <trkpt lat="39.726108" lon="-6.439476">
        <ele>309.4</ele>
        <time>1970-01-01T00:00:00Z</time>
      </trkpt>
      <trkpt lat="39.726392" lon="-6.439142">
        <ele>308.4</ele>
        <time>1970-01-01T00:00:00Z</time>
      </trkpt>
      <trkpt lat="39.726544" lon="-6.439021">
        <ele>307.3</ele>
        <time>1970-01-01T00:00:00Z</time>
      </trkpt>
      <trkpt lat="39.726828" lon="-6.438707">
        <ele>305.5</ele>
        <time>1970-01-01T00:00:00Z</time>
      </trkpt>
      <trkpt lat="39.727018" lon="-6.438585">
        <ele>305.8</ele>
        <time>1970-01-01T00:00:00Z</time>
      </trkpt>
      <trkpt lat="39.727132" lon="-6.438477">
        <ele>305.9</ele>
        <time>1970-01-01T00:00:00Z</time>
      </trkpt>
      <trkpt lat="39.727256" lon="-6.438414">
        <ele>306.0</ele>
        <time>1970-01-01T00:00:00Z</time>
      </trkpt>
      <trkpt lat="39.727381" lon="-6.438329">
        <ele>306.2</ele>
        <time>1970-01-01T00:00:00Z</time>
      </trkpt>
      <trkpt lat="39.727518" lon="-6.438265">
        <ele>307.0</ele>
        <time>1970-01-01T00:00:00Z</time>
      </trkpt>
      <trkpt lat="39.727738" lon="-6.438110">
        <ele>308.2</ele>
        <time>1970-01-01T00:00:00Z</time>
      </trkpt>
      <trkpt lat="39.727831" lon="-6.438016">
        <ele>308.6</ele>
        <time>1970-01-01T00:00:00Z</time>
      </trkpt>
      <trkpt lat="39.727961" lon="-6.437862">
        <ele>310.2</ele>
        <time>1970-01-01T00:00:00Z</time>
      </trkpt>
      <trkpt lat="39.728154" lon="-6.437578">
        <ele>311.9</ele>
        <time>1970-01-01T00:00:00Z</time>
      </trkpt>
      <trkpt lat="39.728369" lon="-6.437134">
        <ele>314.2</ele>
        <time>1970-01-01T00:00:00Z</time>
      </trkpt>
      <trkpt lat="39.728643" lon="-6.436664">
        <ele>317.4</ele>
        <time>1970-01-01T00:00:00Z</time>
      </trkpt>
      <trkpt lat="39.728796" lon="-6.436429">
        <ele>318.9</ele>
        <time>1970-01-01T00:00:00Z</time>
      </trkpt>
      <trkpt lat="39.729506" lon="-6.435514">
        <ele>316.6</ele>
        <time>1970-01-01T00:00:00Z</time>
      </trkpt>
      <trkpt lat="39.729684" lon="-6.435350">
        <ele>315.6</ele>
        <time>1970-01-01T00:00:00Z</time>
      </trkpt>
      <trkpt lat="39.729781" lon="-6.435298">
        <ele>315.6</ele>
        <time>1970-01-01T00:00:00Z</time>
      </trkpt>
      <trkpt lat="39.729907" lon="-6.435176">
        <ele>315.6</ele>
        <time>1970-01-01T00:00:00Z</time>
      </trkpt>
      <trkpt lat="39.730019" lon="-6.435006">
        <ele>315.3</ele>
        <time>1970-01-01T00:00:00Z</time>
      </trkpt>
      <trkpt lat="39.730080" lon="-6.434950">
        <ele>315.5</ele>
        <time>1970-01-01T00:00:00Z</time>
      </trkpt>
      <trkpt lat="39.730353" lon="-6.434724">
        <ele>316.1</ele>
        <time>1970-01-01T00:00:00Z</time>
      </trkpt>
      <trkpt lat="39.730446" lon="-6.434677">
        <ele>316.4</ele>
        <time>1970-01-01T00:00:00Z</time>
      </trkpt>
      <trkpt lat="39.730534" lon="-6.434597">
        <ele>316.8</ele>
        <time>1970-01-01T00:00:00Z</time>
      </trkpt>
      <trkpt lat="39.730828" lon="-6.434271">
        <ele>318.1</ele>
        <time>1970-01-01T00:00:00Z</time>
      </trkpt>
      <trkpt lat="39.731286" lon="-6.433802">
        <ele>318.1</ele>
        <time>1970-01-01T00:00:00Z</time>
      </trkpt>
      <trkpt lat="39.731691" lon="-6.433336">
        <ele>318.0</ele>
        <time>1970-01-01T00:00:00Z</time>
      </trkpt>
      <trkpt lat="39.731940" lon="-6.433101">
        <ele>319.0</ele>
        <time>1970-01-01T00:00:00Z</time>
      </trkpt>
      <trkpt lat="39.732764" lon="-6.432641">
        <ele>316.9</ele>
        <time>1970-01-01T00:00:00Z</time>
      </trkpt>
      <trkpt lat="39.732888" lon="-6.432499">
        <ele>316.5</ele>
        <time>1970-01-01T00:00:00Z</time>
      </trkpt>
      <trkpt lat="39.733952" lon="-6.431132">
        <ele>316.1</ele>
        <time>1970-01-01T00:00:00Z</time>
      </trkpt>
      <trkpt lat="39.734062" lon="-6.430822">
        <ele>317.7</ele>
        <time>1970-01-01T00:00:00Z</time>
      </trkpt>
      <trkpt lat="39.734142" lon="-6.430643">
        <ele>318.8</ele>
        <time>1970-01-01T00:00:00Z</time>
      </trkpt>
      <trkpt lat="39.734466" lon="-6.430012">
        <ele>320.5</ele>
        <time>1970-01-01T00:00:00Z</time>
      </trkpt>
      <trkpt lat="39.734576" lon="-6.429822">
        <ele>320.7</ele>
        <time>1970-01-01T00:00:00Z</time>
      </trkpt>
      <trkpt lat="39.734764" lon="-6.429602">
        <ele>320.0</ele>
        <time>1970-01-01T00:00:00Z</time>
      </trkpt>
      <trkpt lat="39.734939" lon="-6.429433">
        <ele>319.5</ele>
        <time>1970-01-01T00:00:00Z</time>
      </trkpt>
      <trkpt lat="39.735190" lon="-6.429300">
        <ele>318.8</ele>
        <time>1970-01-01T00:00:00Z</time>
      </trkpt>
      <trkpt lat="39.735319" lon="-6.429274">
        <ele>319.0</ele>
        <time>1970-01-01T00:00:00Z</time>
      </trkpt>
      <trkpt lat="39.735490" lon="-6.429159">
        <ele>319.0</ele>
        <time>1970-01-01T00:00:00Z</time>
      </trkpt>
      <trkpt lat="39.735546" lon="-6.429068">
        <ele>319.1</ele>
        <time>1970-01-01T00:00:00Z</time>
      </trkpt>
      <trkpt lat="39.735568" lon="-6.428975">
        <ele>319.0</ele>
        <time>1970-01-01T00:00:00Z</time>
      </trkpt>
      <trkpt lat="39.735530" lon="-6.428645">
        <ele>317.7</ele>
        <time>1970-01-01T00:00:00Z</time>
      </trkpt>
      <trkpt lat="39.735493" lon="-6.428413">
        <ele>316.9</ele>
        <time>1970-01-01T00:00:00Z</time>
      </trkpt>
      <trkpt lat="39.735442" lon="-6.428206">
        <ele>316.6</ele>
        <time>1970-01-01T00:00:00Z</time>
      </trkpt>
      <trkpt lat="39.735423" lon="-6.428062">
        <ele>316.2</ele>
        <time>1970-01-01T00:00:00Z</time>
      </trkpt>
      <trkpt lat="39.735435" lon="-6.427860">
        <ele>315.5</ele>
        <time>1970-01-01T00:00:00Z</time>
      </trkpt>
      <trkpt lat="39.735466" lon="-6.427730">
        <ele>315.2</ele>
        <time>1970-01-01T00:00:00Z</time>
      </trkpt>
      <trkpt lat="39.735586" lon="-6.427386">
        <ele>314.2</ele>
        <time>1970-01-01T00:00:00Z</time>
      </trkpt>
      <trkpt lat="39.735753" lon="-6.427041">
        <ele>315.0</ele>
        <time>1970-01-01T00:00:00Z</time>
      </trkpt>
      <trkpt lat="39.735806" lon="-6.426997">
        <ele>315.1</ele>
        <time>1970-01-01T00:00:00Z</time>
      </trkpt>
      <trkpt lat="39.736067" lon="-6.426864">
        <ele>316.1</ele>
        <time>1970-01-01T00:00:00Z</time>
      </trkpt>
      <trkpt lat="39.736124" lon="-6.426790">
        <ele>316.7</ele>
        <time>1970-01-01T00:00:00Z</time>
      </trkpt>
      <trkpt lat="39.736181" lon="-6.426670">
        <ele>316.9</ele>
        <time>1970-01-01T00:00:00Z</time>
      </trkpt>
      <trkpt lat="39.736347" lon="-6.425964">
        <ele>318.1</ele>
        <time>1970-01-01T00:00:00Z</time>
      </trkpt>
      <trkpt lat="39.736413" lon="-6.425730">
        <ele>318.0</ele>
        <time>1970-01-01T00:00:00Z</time>
      </trkpt>
      <trkpt lat="39.736537" lon="-6.425403">
        <ele>317.9</ele>
        <time>1970-01-01T00:00:00Z</time>
      </trkpt>
      <trkpt lat="39.736674" lon="-6.425301">
        <ele>317.2</ele>
        <time>1970-01-01T00:00:00Z</time>
      </trkpt>
      <trkpt lat="39.737344" lon="-6.424922">
        <ele>315.7</ele>
        <time>1970-01-01T00:00:00Z</time>
      </trkpt>
      <trkpt lat="39.737425" lon="-6.424844">
        <ele>315.0</ele>
        <time>1970-01-01T00:00:00Z</time>
      </trkpt>
      <trkpt lat="39.737582" lon="-6.424635">
        <ele>314.1</ele>
        <time>1970-01-01T00:00:00Z</time>
      </trkpt>
      <trkpt lat="39.737766" lon="-6.424343">
        <ele>314.0</ele>
        <time>1970-01-01T00:00:00Z</time>
      </trkpt>
      <trkpt lat="39.737910" lon="-6.423979">
        <ele>313.0</ele>
        <time>1970-01-01T00:00:00Z</time>
      </trkpt>
      <trkpt lat="39.737988" lon="-6.423853">
        <ele>313.0</ele>
        <time>1970-01-01T00:00:00Z</time>
      </trkpt>
      <trkpt lat="39.738992" lon="-6.422457">
        <ele>313.2</ele>
        <time>1970-01-01T00:00:00Z</time>
      </trkpt>
      <trkpt lat="39.740151" lon="-6.421189">
        <ele>322.6</ele>
        <time>1970-01-01T00:00:00Z</time>
      </trkpt>
      <trkpt lat="39.740386" lon="-6.420958">
        <ele>324.6</ele>
        <time>1970-01-01T00:00:00Z</time>
      </trkpt>
      <trkpt lat="39.740680" lon="-6.420704">
        <ele>326.5</ele>
        <time>1970-01-01T00:00:00Z</time>
      </trkpt>
      <trkpt lat="39.740869" lon="-6.420562">
        <ele>328.1</ele>
        <time>1970-01-01T00:00:00Z</time>
      </trkpt>
      <trkpt lat="39.740968" lon="-6.420501">
        <ele>328.5</ele>
        <time>1970-01-01T00:00:00Z</time>
      </trkpt>
      <trkpt lat="39.741293" lon="-6.420341">
        <ele>330.9</ele>
        <time>1970-01-01T00:00:00Z</time>
      </trkpt>
      <trkpt lat="39.741571" lon="-6.420160">
        <ele>332.1</ele>
        <time>1970-01-01T00:00:00Z</time>
      </trkpt>
      <trkpt lat="39.741830" lon="-6.420042">
        <ele>333.1</ele>
        <time>1970-01-01T00:00:00Z</time>
      </trkpt>
      <trkpt lat="39.742210" lon="-6.419806">
        <ele>331.5</ele>
        <time>1970-01-01T00:00:00Z</time>
      </trkpt>
      <trkpt lat="39.742582" lon="-6.419625">
        <ele>327.6</ele>
        <time>1970-01-01T00:00:00Z</time>
      </trkpt>
      <trkpt lat="39.742656" lon="-6.419557">
        <ele>326.7</ele>
        <time>1970-01-01T00:00:00Z</time>
      </trkpt>
      <trkpt lat="39.743017" lon="-6.419367">
        <ele>323.2</ele>
        <time>1970-01-01T00:00:00Z</time>
      </trkpt>
      <trkpt lat="39.743256" lon="-6.419258">
        <ele>321.6</ele>
        <time>1970-01-01T00:00:00Z</time>
      </trkpt>
      <trkpt lat="39.744108" lon="-6.418809">
        <ele>323.0</ele>
        <time>1970-01-01T00:00:00Z</time>
      </trkpt>
      <trkpt lat="39.744852" lon="-6.418362">
        <ele>325.8</ele>
        <time>1970-01-01T00:00:00Z</time>
      </trkpt>
      <trkpt lat="39.745288" lon="-6.418121">
        <ele>326.0</ele>
        <time>1970-01-01T00:00:00Z</time>
      </trkpt>
      <trkpt lat="39.745374" lon="-6.417990">
        <ele>326.2</ele>
        <time>1970-01-01T00:00:00Z</time>
      </trkpt>
      <trkpt lat="39.745465" lon="-6.417812">
        <ele>327.0</ele>
        <time>1970-01-01T00:00:00Z</time>
      </trkpt>
      <trkpt lat="39.745800" lon="-6.417095">
        <ele>329.1</ele>
        <time>1970-01-01T00:00:00Z</time>
      </trkpt>
      <trkpt lat="39.745990" lon="-6.416593">
        <ele>330.0</ele>
        <time>1970-01-01T00:00:00Z</time>
      </trkpt>
      <trkpt lat="39.746060" lon="-6.416245">
        <ele>330.0</ele>
        <time>1970-01-01T00:00:00Z</time>
      </trkpt>
      <trkpt lat="39.746177" lon="-6.415829">
        <ele>329.2</ele>
        <time>1970-01-01T00:00:00Z</time>
      </trkpt>
      <trkpt lat="39.746231" lon="-6.415745">
        <ele>328.6</ele>
        <time>1970-01-01T00:00:00Z</time>
      </trkpt>
      <trkpt lat="39.746522" lon="-6.415112">
        <ele>326.4</ele>
        <time>1970-01-01T00:00:00Z</time>
      </trkpt>
      <trkpt lat="39.746593" lon="-6.414782">
        <ele>326.2</ele>
        <time>1970-01-01T00:00:00Z</time>
      </trkpt>
      <trkpt lat="39.746611" lon="-6.414623">
        <ele>326.1</ele>
        <time>1970-01-01T00:00:00Z</time>
      </trkpt>
      <trkpt lat="39.746599" lon="-6.414331">
        <ele>327.0</ele>
        <time>1970-01-01T00:00:00Z</time>
      </trkpt>
      <trkpt lat="39.746552" lon="-6.413901">
        <ele>327.3</ele>
        <time>1970-01-01T00:00:00Z</time>
      </trkpt>
      <trkpt lat="39.746547" lon="-6.413669">
        <ele>327.4</ele>
        <time>1970-01-01T00:00:00Z</time>
      </trkpt>
      <trkpt lat="39.746564" lon="-6.413554">
        <ele>327.7</ele>
        <time>1970-01-01T00:00:00Z</time>
      </trkpt>
      <trkpt lat="39.746592" lon="-6.413461">
        <ele>328.0</ele>
        <time>1970-01-01T00:00:00Z</time>
      </trkpt>
      <trkpt lat="39.746736" lon="-6.413080">
        <ele>326.4</ele>
        <time>1970-01-01T00:00:00Z</time>
      </trkpt>
      <trkpt lat="39.746851" lon="-6.412884">
        <ele>325.6</ele>
        <time>1970-01-01T00:00:00Z</time>
      </trkpt>
      <trkpt lat="39.747045" lon="-6.412624">
        <ele>324.5</ele>
        <time>1970-01-01T00:00:00Z</time>
      </trkpt>
      <trkpt lat="39.747500" lon="-6.412078">
        <ele>321.3</ele>
        <time>1970-01-01T00:00:00Z</time>
      </trkpt>
      <trkpt lat="39.747574" lon="-6.411956">
        <ele>321.0</ele>
        <time>1970-01-01T00:00:00Z</time>
      </trkpt>
      <trkpt lat="39.747678" lon="-6.411870">
        <ele>321.1</ele>
        <time>1970-01-01T00:00:00Z</time>
      </trkpt>
      <trkpt lat="39.747807" lon="-6.411614">
        <ele>321.1</ele>
        <time>1970-01-01T00:00:00Z</time>
      </trkpt>
      <trkpt lat="39.749509" lon="-6.409108">
        <ele>340.0</ele>
        <time>1970-01-01T00:00:00Z</time>
      </trkpt>
      <trkpt lat="39.750664" lon="-6.407312">
        <ele>339.8</ele>
        <time>1970-01-01T00:00:00Z</time>
      </trkpt>
      <trkpt lat="39.750929" lon="-6.406927">
        <ele>339.3</ele>
        <time>1970-01-01T00:00:00Z</time>
      </trkpt>
      <trkpt lat="39.751111" lon="-6.406571">
        <ele>337.9</ele>
        <time>1970-01-01T00:00:00Z</time>
      </trkpt>
      <trkpt lat="39.751355" lon="-6.406252">
        <ele>337.0</ele>
        <time>1970-01-01T00:00:00Z</time>
      </trkpt>
      <trkpt lat="39.751483" lon="-6.406152">
        <ele>336.5</ele>
        <time>1970-01-01T00:00:00Z</time>
      </trkpt>
      <trkpt lat="39.751572" lon="-6.405986">
        <ele>335.7</ele>
        <time>1970-01-01T00:00:00Z</time>
      </trkpt>
      <trkpt lat="39.751653" lon="-6.405891">
        <ele>335.3</ele>
        <time>1970-01-01T00:00:00Z</time>
      </trkpt>
      <trkpt lat="39.752019" lon="-6.405524">
        <ele>333.7</ele>
        <time>1970-01-01T00:00:00Z</time>
      </trkpt>
      <trkpt lat="39.752131" lon="-6.405381">
        <ele>333.2</ele>
        <time>1970-01-01T00:00:00Z</time>
      </trkpt>
      <trkpt lat="39.752227" lon="-6.405230">
        <ele>332.8</ele>
        <time>1970-01-01T00:00:00Z</time>
      </trkpt>
      <trkpt lat="39.752341" lon="-6.404917">
        <ele>332.9</ele>
        <time>1970-01-01T00:00:00Z</time>
      </trkpt>
      <trkpt lat="39.752359" lon="-6.404652">
        <ele>333.0</ele>
        <time>1970-01-01T00:00:00Z</time>
      </trkpt>
      <trkpt lat="39.752357" lon="-6.404261">
        <ele>333.0</ele>
        <time>1970-01-01T00:00:00Z</time>
      </trkpt>
      <trkpt lat="39.752404" lon="-6.403965">
        <ele>332.1</ele>
        <time>1970-01-01T00:00:00Z</time>
      </trkpt>
      <trkpt lat="39.752440" lon="-6.403838">
        <ele>332.0</ele>
        <time>1970-01-01T00:00:00Z</time>
      </trkpt>
      <trkpt lat="39.752544" lon="-6.403606">
        <ele>331.8</ele>
        <time>1970-01-01T00:00:00Z</time>
      </trkpt>
      <trkpt lat="39.752577" lon="-6.403571">
        <ele>331.8</ele>
        <time>1970-01-01T00:00:00Z</time>
      </trkpt>
      <trkpt lat="39.752679" lon="-6.403677">
        <ele>332.0</ele>
        <time>1970-01-01T00:00:00Z</time>
      </trkpt>
      <trkpt lat="39.752748" lon="-6.403786">
        <ele>332.0</ele>
        <time>1970-01-01T00:00:00Z</time>
      </trkpt>
      <trkpt lat="39.752785" lon="-6.403907">
        <ele>332.0</ele>
        <time>1970-01-01T00:00:00Z</time>
      </trkpt>
      <trkpt lat="39.752900" lon="-6.404135">
        <ele>332.0</ele>
        <time>1970-01-01T00:00:00Z</time>
      </trkpt>
      <trkpt lat="39.753005" lon="-6.404278">
        <ele>331.8</ele>
        <time>1970-01-01T00:00:00Z</time>
      </trkpt>
      <trkpt lat="39.753085" lon="-6.404347">
        <ele>331.4</ele>
        <time>1970-01-01T00:00:00Z</time>
      </trkpt>
      <trkpt lat="39.753190" lon="-6.404396">
        <ele>330.8</ele>
        <time>1970-01-01T00:00:00Z</time>
      </trkpt>
      <trkpt lat="39.753439" lon="-6.404482">
        <ele>330.0</ele>
        <time>1970-01-01T00:00:00Z</time>
      </trkpt>
      <trkpt lat="39.753991" lon="-6.404900">
        <ele>327.1</ele>
        <time>1970-01-01T00:00:00Z</time>
      </trkpt>
      <trkpt lat="39.754143" lon="-6.404994">
        <ele>326.1</ele>
        <time>1970-01-01T00:00:00Z</time>
      </trkpt>
      <trkpt lat="39.754217" lon="-6.405010">
        <ele>326.0</ele>
        <time>1970-01-01T00:00:00Z</time>
      </trkpt>
      <trkpt lat="39.754249" lon="-6.405093">
        <ele>325.2</ele>
        <time>1970-01-01T00:00:00Z</time>
      </trkpt>
      <trkpt lat="39.754526" lon="-6.405643">
        <ele>315.8</ele>
        <time>1970-01-01T00:00:00Z</time>
      </trkpt>
      <trkpt lat="39.754581" lon="-6.405719">
        <ele>314.4</ele>
        <time>1970-01-01T00:00:00Z</time>
      </trkpt>
      <trkpt lat="39.754743" lon="-6.405656">
        <ele>316.5</ele>
        <time>1970-01-01T00:00:00Z</time>
      </trkpt>
      <trkpt lat="39.754845" lon="-6.405555">
        <ele>319.0</ele>
        <time>1970-01-01T00:00:00Z</time>
      </trkpt>
      <trkpt lat="39.755020" lon="-6.405324">
        <ele>323.0</ele>
        <time>1970-01-01T00:00:00Z</time>
      </trkpt>
      <trkpt lat="39.755430" lon="-6.404647">
        <ele>328.1</ele>
        <time>1970-01-01T00:00:00Z</time>
      </trkpt>
      <trkpt lat="39.755634" lon="-6.404346">
        <ele>329.5</ele>
        <time>1970-01-01T00:00:00Z</time>
      </trkpt>
      <trkpt lat="39.755754" lon="-6.404219">
        <ele>329.9</ele>
        <time>1970-01-01T00:00:00Z</time>
      </trkpt>
      <trkpt lat="39.755870" lon="-6.404027">
        <ele>330.8</ele>
        <time>1970-01-01T00:00:00Z</time>
      </trkpt>
      <trkpt lat="39.756008" lon="-6.403668">
        <ele>331.4</ele>
        <time>1970-01-01T00:00:00Z</time>
      </trkpt>
      <trkpt lat="39.756124" lon="-6.403427">
        <ele>331.0</ele>
        <time>1970-01-01T00:00:00Z</time>
      </trkpt>
      <trkpt lat="39.756303" lon="-6.403290">
        <ele>331.0</ele>
        <time>1970-01-01T00:00:00Z</time>
      </trkpt>
      <trkpt lat="39.756397" lon="-6.403289">
        <ele>330.8</ele>
        <time>1970-01-01T00:00:00Z</time>
      </trkpt>
      <trkpt lat="39.756487" lon="-6.403328">
        <ele>330.4</ele>
        <time>1970-01-01T00:00:00Z</time>
      </trkpt>
      <trkpt lat="39.756572" lon="-6.403313">
        <ele>330.1</ele>
        <time>1970-01-01T00:00:00Z</time>
      </trkpt>
      <trkpt lat="39.756658" lon="-6.403174">
        <ele>330.0</ele>
        <time>1970-01-01T00:00:00Z</time>
      </trkpt>
      <trkpt lat="39.756724" lon="-6.403113">
        <ele>330.0</ele>
        <time>1970-01-01T00:00:00Z</time>
      </trkpt>
      <trkpt lat="39.756869" lon="-6.403048">
        <ele>329.8</ele>
        <time>1970-01-01T00:00:00Z</time>
      </trkpt>
      <trkpt lat="39.757074" lon="-6.403140">
        <ele>329.3</ele>
        <time>1970-01-01T00:00:00Z</time>
      </trkpt>
      <trkpt lat="39.757385" lon="-6.403331">
        <ele>328.7</ele>
        <time>1970-01-01T00:00:00Z</time>
      </trkpt>
      <trkpt lat="39.757476" lon="-6.403348">
        <ele>328.4</ele>
        <time>1970-01-01T00:00:00Z</time>
      </trkpt>
      <trkpt lat="39.757545" lon="-6.403344">
        <ele>328.3</ele>
        <time>1970-01-01T00:00:00Z</time>
      </trkpt>
      <trkpt lat="39.757808" lon="-6.403465">
        <ele>328.6</ele>
        <time>1970-01-01T00:00:00Z</time>
      </trkpt>
      <trkpt lat="39.758073" lon="-6.403668">
        <ele>328.6</ele>
        <time>1970-01-01T00:00:00Z</time>
      </trkpt>
      <trkpt lat="39.758219" lon="-6.403816">
        <ele>329.3</ele>
        <time>1970-01-01T00:00:00Z</time>
      </trkpt>
      <trkpt lat="39.758332" lon="-6.403953">
        <ele>329.9</ele>
        <time>1970-01-01T00:00:00Z</time>
      </trkpt>
      <trkpt lat="39.758488" lon="-6.404064">
        <ele>330.9</ele>
        <time>1970-01-01T00:00:00Z</time>
      </trkpt>
      <trkpt lat="39.758657" lon="-6.404152">
        <ele>331.6</ele>
        <time>1970-01-01T00:00:00Z</time>
      </trkpt>
      <trkpt lat="39.758850" lon="-6.404216">
        <ele>330.5</ele>
        <time>1970-01-01T00:00:00Z</time>
      </trkpt>
      <trkpt lat="39.759022" lon="-6.404254">
        <ele>329.2</ele>
        <time>1970-01-01T00:00:00Z</time>
      </trkpt>
      <trkpt lat="39.759124" lon="-6.404246">
        <ele>328.3</ele>
        <time>1970-01-01T00:00:00Z</time>
      </trkpt>
      <trkpt lat="39.759386" lon="-6.404289">
        <ele>327.9</ele>
        <time>1970-01-01T00:00:00Z</time>
      </trkpt>
      <trkpt lat="39.759611" lon="-6.404347">
        <ele>326.7</ele>
        <time>1970-01-01T00:00:00Z</time>
      </trkpt>
      <trkpt lat="39.759710" lon="-6.404344">
        <ele>326.7</ele>
        <time>1970-01-01T00:00:00Z</time>
      </trkpt>
      <trkpt lat="39.759799" lon="-6.404307">
        <ele>327.0</ele>
        <time>1970-01-01T00:00:00Z</time>
      </trkpt>
      <trkpt lat="39.759953" lon="-6.404235">
        <ele>327.7</ele>
        <time>1970-01-01T00:00:00Z</time>
      </trkpt>
      <trkpt lat="39.760041" lon="-6.404161">
        <ele>328.3</ele>
        <time>1970-01-01T00:00:00Z</time>
      </trkpt>
      <trkpt lat="39.760241" lon="-6.403909">
        <ele>330.4</ele>
        <time>1970-01-01T00:00:00Z</time>
      </trkpt>
      <trkpt lat="39.760343" lon="-6.403817">
        <ele>331.4</ele>
        <time>1970-01-01T00:00:00Z</time>
      </trkpt>
      <trkpt lat="39.760450" lon="-6.403697">
        <ele>332.0</ele>
        <time>1970-01-01T00:00:00Z</time>
      </trkpt>
      <trkpt lat="39.760536" lon="-6.403563">
        <ele>332.1</ele>
        <time>1970-01-01T00:00:00Z</time>
      </trkpt>
      <trkpt lat="39.760755" lon="-6.403287">
        <ele>332.1</ele>
        <time>1970-01-01T00:00:00Z</time>
      </trkpt>
      <trkpt lat="39.760960" lon="-6.403112">
        <ele>331.6</ele>
        <time>1970-01-01T00:00:00Z</time>
      </trkpt>
      <trkpt lat="39.761052" lon="-6.403049">
        <ele>331.4</ele>
        <time>1970-01-01T00:00:00Z</time>
      </trkpt>
      <trkpt lat="39.761133" lon="-6.403021">
        <ele>331.6</ele>
        <time>1970-01-01T00:00:00Z</time>
      </trkpt>
      <trkpt lat="39.761606" lon="-6.403067">
        <ele>332.4</ele>
        <time>1970-01-01T00:00:00Z</time>
      </trkpt>
      <trkpt lat="39.761760" lon="-6.403102">
        <ele>331.9</ele>
        <time>1970-01-01T00:00:00Z</time>
      </trkpt>
      <trkpt lat="39.761908" lon="-6.403097">
        <ele>331.3</ele>
        <time>1970-01-01T00:00:00Z</time>
      </trkpt>
      <trkpt lat="39.762181" lon="-6.403031">
        <ele>330.0</ele>
        <time>1970-01-01T00:00:00Z</time>
      </trkpt>
      <trkpt lat="39.762715" lon="-6.403033">
        <ele>329.0</ele>
        <time>1970-01-01T00:00:00Z</time>
      </trkpt>
      <trkpt lat="39.763074" lon="-6.403016">
        <ele>329.0</ele>
        <time>1970-01-01T00:00:00Z</time>
      </trkpt>
      <trkpt lat="39.763251" lon="-6.403025">
        <ele>328.2</ele>
        <time>1970-01-01T00:00:00Z</time>
      </trkpt>
      <trkpt lat="39.763562" lon="-6.403092">
        <ele>327.0</ele>
        <time>1970-01-01T00:00:00Z</time>
      </trkpt>
      <trkpt lat="39.763724" lon="-6.403147">
        <ele>327.0</ele>
        <time>1970-01-01T00:00:00Z</time>
      </trkpt>
      <trkpt lat="39.763805" lon="-6.403190">
        <ele>326.9</ele>
        <time>1970-01-01T00:00:00Z</time>
      </trkpt>
      <trkpt lat="39.763938" lon="-6.403325">
        <ele>327.0</ele>
        <time>1970-01-01T00:00:00Z</time>
      </trkpt>
      <trkpt lat="39.764140" lon="-6.403412">
        <ele>326.4</ele>
        <time>1970-01-01T00:00:00Z</time>
      </trkpt>
      <trkpt lat="39.764553" lon="-6.403489">
        <ele>323.6</ele>
        <time>1970-01-01T00:00:00Z</time>
      </trkpt>
      <trkpt lat="39.764652" lon="-6.403489">
        <ele>323.1</ele>
        <time>1970-01-01T00:00:00Z</time>
      </trkpt>
      <trkpt lat="39.764733" lon="-6.403453">
        <ele>322.4</ele>
        <time>1970-01-01T00:00:00Z</time>
      </trkpt>
      <trkpt lat="39.764838" lon="-6.403446">
        <ele>321.6</ele>
        <time>1970-01-01T00:00:00Z</time>
      </trkpt>
      <trkpt lat="39.764925" lon="-6.403460">
        <ele>321.0</ele>
        <time>1970-01-01T00:00:00Z</time>
      </trkpt>
      <trkpt lat="39.765023" lon="-6.403502">
        <ele>320.5</ele>
        <time>1970-01-01T00:00:00Z</time>
      </trkpt>
      <trkpt lat="39.765111" lon="-6.403516">
        <ele>320.2</ele>
        <time>1970-01-01T00:00:00Z</time>
      </trkpt>
      <trkpt lat="39.765237" lon="-6.403562">
        <ele>319.9</ele>
        <time>1970-01-01T00:00:00Z</time>
      </trkpt>
      <trkpt lat="39.765361" lon="-6.403573">
        <ele>319.7</ele>
        <time>1970-01-01T00:00:00Z</time>
      </trkpt>
      <trkpt lat="39.765458" lon="-6.403563">
        <ele>319.7</ele>
        <time>1970-01-01T00:00:00Z</time>
      </trkpt>
      <trkpt lat="39.765656" lon="-6.403449">
        <ele>320.2</ele>
        <time>1970-01-01T00:00:00Z</time>
      </trkpt>
      <trkpt lat="39.765736" lon="-6.403253">
        <ele>320.6</ele>
        <time>1970-01-01T00:00:00Z</time>
      </trkpt>
      <trkpt lat="39.765790" lon="-6.403169">
        <ele>321.2</ele>
        <time>1970-01-01T00:00:00Z</time>
      </trkpt>
      <trkpt lat="39.765860" lon="-6.403123">
        <ele>321.7</ele>
        <time>1970-01-01T00:00:00Z</time>
      </trkpt>
      <trkpt lat="39.765931" lon="-6.403102">
        <ele>322.2</ele>
        <time>1970-01-01T00:00:00Z</time>
      </trkpt>
      <trkpt lat="39.765990" lon="-6.403110">
        <ele>322.5</ele>
        <time>1970-01-01T00:00:00Z</time>
      </trkpt>
      <trkpt lat="39.766061" lon="-6.403165">
        <ele>322.9</ele>
        <time>1970-01-01T00:00:00Z</time>
      </trkpt>
      <trkpt lat="39.766157" lon="-6.403205">
        <ele>323.7</ele>
        <time>1970-01-01T00:00:00Z</time>
      </trkpt>
      <trkpt lat="39.766374" lon="-6.403166">
        <ele>325.3</ele>
        <time>1970-01-01T00:00:00Z</time>
      </trkpt>
      <trkpt lat="39.766528" lon="-6.403109">
        <ele>326.0</ele>
        <time>1970-01-01T00:00:00Z</time>
      </trkpt>
      <trkpt lat="39.766609" lon="-6.403064">
        <ele>326.0</ele>
        <time>1970-01-01T00:00:00Z</time>
      </trkpt>
      <trkpt lat="39.766791" lon="-6.402851">
        <ele>326.0</ele>
        <time>1970-01-01T00:00:00Z</time>
      </trkpt>
      <trkpt lat="39.767067" lon="-6.402590">
        <ele>326.0</ele>
        <time>1970-01-01T00:00:00Z</time>
      </trkpt>
      <trkpt lat="39.767322" lon="-6.402489">
        <ele>326.0</ele>
        <time>1970-01-01T00:00:00Z</time>
      </trkpt>
      <trkpt lat="39.768002" lon="-6.402503">
        <ele>326.8</ele>
        <time>1970-01-01T00:00:00Z</time>
      </trkpt>
      <trkpt lat="39.768318" lon="-6.402533">
        <ele>328.4</ele>
        <time>1970-01-01T00:00:00Z</time>
      </trkpt>
      <trkpt lat="39.768438" lon="-6.402472">
        <ele>329.2</ele>
        <time>1970-01-01T00:00:00Z</time>
      </trkpt>
      <trkpt lat="39.768935" lon="-6.402018">
        <ele>331.0</ele>
        <time>1970-01-01T00:00:00Z</time>
      </trkpt>
      <trkpt lat="39.769031" lon="-6.401953">
        <ele>331.0</ele>
        <time>1970-01-01T00:00:00Z</time>
      </trkpt>
      <trkpt lat="39.769263" lon="-6.401838">
        <ele>330.2</ele>
        <time>1970-01-01T00:00:00Z</time>
      </trkpt>
      <trkpt lat="39.769454" lon="-6.401828">
        <ele>328.8</ele>
        <time>1970-01-01T00:00:00Z</time>
      </trkpt>
      <trkpt lat="39.769554" lon="-6.401850">
        <ele>327.9</ele>
        <time>1970-01-01T00:00:00Z</time>
      </trkpt>
      <trkpt lat="39.769643" lon="-6.401887">
        <ele>327.2</ele>
        <time>1970-01-01T00:00:00Z</time>
      </trkpt>
      <trkpt lat="39.769843" lon="-6.402023">
        <ele>325.2</ele>
        <time>1970-01-01T00:00:00Z</time>
      </trkpt>
      <trkpt lat="39.769943" lon="-6.402055">
        <ele>323.9</ele>
        <time>1970-01-01T00:00:00Z</time>
      </trkpt>
      <trkpt lat="39.770116" lon="-6.402081">
        <ele>322.6</ele>
        <time>1970-01-01T00:00:00Z</time>
      </trkpt>
      <trkpt lat="39.770401" lon="-6.402025">
        <ele>323.1</ele>
        <time>1970-01-01T00:00:00Z</time>
      </trkpt>
      <trkpt lat="39.770692" lon="-6.401924">
        <ele>324.8</ele>
        <time>1970-01-01T00:00:00Z</time>
      </trkpt>
      <trkpt lat="39.770917" lon="-6.401787">
        <ele>322.2</ele>
        <time>1970-01-01T00:00:00Z</time>
      </trkpt>
      <trkpt lat="39.771201" lon="-6.401586">
        <ele>317.5</ele>
        <time>1970-01-01T00:00:00Z</time>
      </trkpt>
      <trkpt lat="39.771448" lon="-6.401511">
        <ele>316.7</ele>
        <time>1970-01-01T00:00:00Z</time>
      </trkpt>
      <trkpt lat="39.771523" lon="-6.401473">
        <ele>316.9</ele>
        <time>1970-01-01T00:00:00Z</time>
      </trkpt>
      <trkpt lat="39.771826" lon="-6.401085">
        <ele>317.8</ele>
        <time>1970-01-01T00:00:00Z</time>
      </trkpt>
      <trkpt lat="39.771904" lon="-6.400956">
        <ele>318.0</ele>
        <time>1970-01-01T00:00:00Z</time>
      </trkpt>
      <trkpt lat="39.771939" lon="-6.400866">
        <ele>317.7</ele>
        <time>1970-01-01T00:00:00Z</time>
      </trkpt>
      <trkpt lat="39.771963" lon="-6.400724">
        <ele>317.4</ele>
        <time>1970-01-01T00:00:00Z</time>
      </trkpt>
      <trkpt lat="39.771976" lon="-6.400453">
        <ele>317.4</ele>
        <time>1970-01-01T00:00:00Z</time>
      </trkpt>
      <trkpt lat="39.772023" lon="-6.399973">
        <ele>316.6</ele>
        <time>1970-01-01T00:00:00Z</time>
      </trkpt>
      <trkpt lat="39.772017" lon="-6.399523">
        <ele>315.1</ele>
        <time>1970-01-01T00:00:00Z</time>
      </trkpt>
      <trkpt lat="39.772034" lon="-6.399410">
        <ele>314.6</ele>
        <time>1970-01-01T00:00:00Z</time>
      </trkpt>
      <trkpt lat="39.772086" lon="-6.399260">
        <ele>314.3</ele>
        <time>1970-01-01T00:00:00Z</time>
      </trkpt>
      <trkpt lat="39.772238" lon="-6.399065">
        <ele>313.4</ele>
        <time>1970-01-01T00:00:00Z</time>
      </trkpt>
      <trkpt lat="39.772464" lon="-6.398843">
        <ele>312.8</ele>
        <time>1970-01-01T00:00:00Z</time>
      </trkpt>
      <trkpt lat="39.772602" lon="-6.398554">
        <ele>311.1</ele>
        <time>1970-01-01T00:00:00Z</time>
      </trkpt>
      <trkpt lat="39.772685" lon="-6.398454">
        <ele>309.8</ele>
        <time>1970-01-01T00:00:00Z</time>
      </trkpt>
      <trkpt lat="39.773043" lon="-6.398200">
        <ele>307.8</ele>
        <time>1970-01-01T00:00:00Z</time>
      </trkpt>
      <trkpt lat="39.773207" lon="-6.398146">
        <ele>306.4</ele>
        <time>1970-01-01T00:00:00Z</time>
      </trkpt>
      <trkpt lat="39.773253" lon="-6.398072">
        <ele>306.0</ele>
        <time>1970-01-01T00:00:00Z</time>
      </trkpt>
      <trkpt lat="39.773275" lon="-6.397977">
        <ele>305.8</ele>
        <time>1970-01-01T00:00:00Z</time>
      </trkpt>
      <trkpt lat="39.773271" lon="-6.397860">
        <ele>305.8</ele>
        <time>1970-01-01T00:00:00Z</time>
      </trkpt>
      <trkpt lat="39.773192" lon="-6.397629">
        <ele>306.2</ele>
        <time>1970-01-01T00:00:00Z</time>
      </trkpt>
      <trkpt lat="39.773172" lon="-6.397512">
        <ele>306.0</ele>
        <time>1970-01-01T00:00:00Z</time>
      </trkpt>
      <trkpt lat="39.773184" lon="-6.397426">
        <ele>305.7</ele>
        <time>1970-01-01T00:00:00Z</time>
      </trkpt>
      <trkpt lat="39.773227" lon="-6.397337">
        <ele>305.3</ele>
        <time>1970-01-01T00:00:00Z</time>
      </trkpt>
      <trkpt lat="39.773374" lon="-6.397186">
        <ele>304.3</ele>
        <time>1970-01-01T00:00:00Z</time>
      </trkpt>
      <trkpt lat="39.773724" lon="-6.397016">
        <ele>301.9</ele>
        <time>1970-01-01T00:00:00Z</time>
      </trkpt>
      <trkpt lat="39.773888" lon="-6.396833">
        <ele>301.1</ele>
        <time>1970-01-01T00:00:00Z</time>
      </trkpt>
      <trkpt lat="39.773985" lon="-6.396648">
        <ele>300.9</ele>
        <time>1970-01-01T00:00:00Z</time>
      </trkpt>
      <trkpt lat="39.774050" lon="-6.396382">
        <ele>300.7</ele>
        <time>1970-01-01T00:00:00Z</time>
      </trkpt>
      <trkpt lat="39.774104" lon="-6.396243">
        <ele>300.0</ele>
        <time>1970-01-01T00:00:00Z</time>
      </trkpt>
      <trkpt lat="39.774264" lon="-6.395987">
        <ele>298.5</ele>
        <time>1970-01-01T00:00:00Z</time>
      </trkpt>
      <trkpt lat="39.774332" lon="-6.395921">
        <ele>298.3</ele>
        <time>1970-01-01T00:00:00Z</time>
      </trkpt>
      <trkpt lat="39.775128" lon="-6.395310">
        <ele>299.0</ele>
        <time>1970-01-01T00:00:00Z</time>
      </trkpt>
      <trkpt lat="39.775473" lon="-6.395117">
        <ele>299.1</ele>
        <time>1970-01-01T00:00:00Z</time>
      </trkpt>
      <trkpt lat="39.775610" lon="-6.395070">
        <ele>299.5</ele>
        <time>1970-01-01T00:00:00Z</time>
      </trkpt>
      <trkpt lat="39.775692" lon="-6.395012">
        <ele>299.9</ele>
        <time>1970-01-01T00:00:00Z</time>
      </trkpt>
      <trkpt lat="39.775748" lon="-6.394923">
        <ele>300.0</ele>
        <time>1970-01-01T00:00:00Z</time>
      </trkpt>
      <trkpt lat="39.775910" lon="-6.394786">
        <ele>300.3</ele>
        <time>1970-01-01T00:00:00Z</time>
      </trkpt>
      <trkpt lat="39.776012" lon="-6.394746">
        <ele>300.8</ele>
        <time>1970-01-01T00:00:00Z</time>
      </trkpt>
      <trkpt lat="39.776098" lon="-6.394748">
        <ele>300.9</ele>
        <time>1970-01-01T00:00:00Z</time>
      </trkpt>
      <trkpt lat="39.776390" lon="-6.394851">
        <ele>301.4</ele>
        <time>1970-01-01T00:00:00Z</time>
      </trkpt>
      <trkpt lat="39.776529" lon="-6.394870">
        <ele>301.8</ele>
        <time>1970-01-01T00:00:00Z</time>
      </trkpt>
      <trkpt lat="39.776655" lon="-6.394909">
        <ele>302.0</ele>
        <time>1970-01-01T00:00:00Z</time>
      </trkpt>
      <trkpt lat="39.776931" lon="-6.395014">
        <ele>302.9</ele>
        <time>1970-01-01T00:00:00Z</time>
      </trkpt>
      <trkpt lat="39.777119" lon="-6.395102">
        <ele>303.7</ele>
        <time>1970-01-01T00:00:00Z</time>
      </trkpt>
      <trkpt lat="39.777447" lon="-6.395160">
        <ele>305.2</ele>
        <time>1970-01-01T00:00:00Z</time>
      </trkpt>
      <trkpt lat="39.777651" lon="-6.395232">
        <ele>305.7</ele>
        <time>1970-01-01T00:00:00Z</time>
      </trkpt>
      <trkpt lat="39.777727" lon="-6.395216">
        <ele>305.8</ele>
        <time>1970-01-01T00:00:00Z</time>
      </trkpt>
      <trkpt lat="39.777798" lon="-6.395165">
        <ele>306.0</ele>
        <time>1970-01-01T00:00:00Z</time>
      </trkpt>
      <trkpt lat="39.777930" lon="-6.395011">
        <ele>306.6</ele>
        <time>1970-01-01T00:00:00Z</time>
      </trkpt>
      <trkpt lat="39.777992" lon="-6.394898">
        <ele>307.2</ele>
        <time>1970-01-01T00:00:00Z</time>
      </trkpt>
      <trkpt lat="39.778030" lon="-6.394791">
        <ele>307.6</ele>
        <time>1970-01-01T00:00:00Z</time>
      </trkpt>
      <trkpt lat="39.778129" lon="-6.394591">
        <ele>307.9</ele>
        <time>1970-01-01T00:00:00Z</time>
      </trkpt>
      <trkpt lat="39.778187" lon="-6.394507">
        <ele>307.6</ele>
        <time>1970-01-01T00:00:00Z</time>
      </trkpt>
      <trkpt lat="39.778415" lon="-6.394521">
        <ele>306.4</ele>
        <time>1970-01-01T00:00:00Z</time>
      </trkpt>
      <trkpt lat="39.778706" lon="-6.394624">
        <ele>303.9</ele>
        <time>1970-01-01T00:00:00Z</time>
      </trkpt>
      <trkpt lat="39.778798" lon="-6.394735">
        <ele>302.8</ele>
        <time>1970-01-01T00:00:00Z</time>
      </trkpt>
      <trkpt lat="39.778964" lon="-6.394901">
        <ele>299.1</ele>
        <time>1970-01-01T00:00:00Z</time>
      </trkpt>
      <trkpt lat="39.778990" lon="-6.395004">
        <ele>298.6</ele>
        <time>1970-01-01T00:00:00Z</time>
      </trkpt>
      <trkpt lat="39.779117" lon="-6.395218">
        <ele>296.5</ele>
        <time>1970-01-01T00:00:00Z</time>
      </trkpt>
      <trkpt lat="39.779202" lon="-6.395313">
        <ele>295.0</ele>
        <time>1970-01-01T00:00:00Z</time>
      </trkpt>
      <trkpt lat="39.779338" lon="-6.395567">
        <ele>292.2</ele>
        <time>1970-01-01T00:00:00Z</time>
      </trkpt>
      <trkpt lat="39.779432" lon="-6.395591">
        <ele>289.7</ele>
        <time>1970-01-01T00:00:00Z</time>
      </trkpt>
      <trkpt lat="39.779535" lon="-6.395587">
        <ele>287.2</ele>
        <time>1970-01-01T00:00:00Z</time>
      </trkpt>
      <trkpt lat="39.779623" lon="-6.395663">
        <ele>285.4</ele>
        <time>1970-01-01T00:00:00Z</time>
      </trkpt>
      <trkpt lat="39.779811" lon="-6.395689">
        <ele>281.6</ele>
        <time>1970-01-01T00:00:00Z</time>
      </trkpt>
      <trkpt lat="39.779901" lon="-6.395731">
        <ele>280.1</ele>
        <time>1970-01-01T00:00:00Z</time>
      </trkpt>
      <trkpt lat="39.779977" lon="-6.395828">
        <ele>278.9</ele>
        <time>1970-01-01T00:00:00Z</time>
      </trkpt>
      <trkpt lat="39.780065" lon="-6.396112">
        <ele>278.3</ele>
        <time>1970-01-01T00:00:00Z</time>
      </trkpt>
      <trkpt lat="39.780135" lon="-6.396152">
        <ele>277.2</ele>
        <time>1970-01-01T00:00:00Z</time>
      </trkpt>
      <trkpt lat="39.780216" lon="-6.396228">
        <ele>276.4</ele>
        <time>1970-01-01T00:00:00Z</time>
      </trkpt>
      <trkpt lat="39.780333" lon="-6.396414">
        <ele>275.8</ele>
        <time>1970-01-01T00:00:00Z</time>
      </trkpt>
      <trkpt lat="39.780364" lon="-6.396529">
        <ele>275.5</ele>
        <time>1970-01-01T00:00:00Z</time>
      </trkpt>
      <trkpt lat="39.780380" lon="-6.396797">
        <ele>274.4</ele>
        <time>1970-01-01T00:00:00Z</time>
      </trkpt>
      <trkpt lat="39.780418" lon="-6.396861">
        <ele>274.1</ele>
        <time>1970-01-01T00:00:00Z</time>
      </trkpt>
      <trkpt lat="39.780480" lon="-6.396909">
        <ele>273.8</ele>
        <time>1970-01-01T00:00:00Z</time>
      </trkpt>
      <trkpt lat="39.780649" lon="-6.396956">
        <ele>273.0</ele>
        <time>1970-01-01T00:00:00Z</time>
      </trkpt>
      <trkpt lat="39.780765" lon="-6.396949">
        <ele>273.3</ele>
        <time>1970-01-01T00:00:00Z</time>
      </trkpt>
      <trkpt lat="39.780850" lon="-6.396914">
        <ele>273.5</ele>
        <time>1970-01-01T00:00:00Z</time>
      </trkpt>
      <trkpt lat="39.780967" lon="-6.396841">
        <ele>273.6</ele>
        <time>1970-01-01T00:00:00Z</time>
      </trkpt>
      <trkpt lat="39.781106" lon="-6.396726">
        <ele>273.7</ele>
        <time>1970-01-01T00:00:00Z</time>
      </trkpt>
      <trkpt lat="39.781183" lon="-6.396619">
        <ele>273.8</ele>
        <time>1970-01-01T00:00:00Z</time>
      </trkpt>
      <trkpt lat="39.781232" lon="-6.396503">
        <ele>273.7</ele>
        <time>1970-01-01T00:00:00Z</time>
      </trkpt>
      <trkpt lat="39.781242" lon="-6.396096">
        <ele>273.5</ele>
        <time>1970-01-01T00:00:00Z</time>
      </trkpt>
      <trkpt lat="39.781280" lon="-6.396055">
        <ele>273.7</ele>
        <time>1970-01-01T00:00:00Z</time>
      </trkpt>
      <trkpt lat="39.781520" lon="-6.395996">
        <ele>275.5</ele>
        <time>1970-01-01T00:00:00Z</time>
      </trkpt>
      <trkpt lat="39.781626" lon="-6.395939">
        <ele>276.5</ele>
        <time>1970-01-01T00:00:00Z</time>
      </trkpt>
      <trkpt lat="39.782225" lon="-6.395363">
        <ele>281.0</ele>
        <time>1970-01-01T00:00:00Z</time>
      </trkpt>
      <trkpt lat="39.782369" lon="-6.395247">
        <ele>282.1</ele>
        <time>1970-01-01T00:00:00Z</time>
      </trkpt>
      <trkpt lat="39.782484" lon="-6.395111">
        <ele>282.2</ele>
        <time>1970-01-01T00:00:00Z</time>
      </trkpt>
      <trkpt lat="39.782806" lon="-6.394779">
        <ele>282.6</ele>
        <time>1970-01-01T00:00:00Z</time>
      </trkpt>
      <trkpt lat="39.783041" lon="-6.394623">
        <ele>282.4</ele>
        <time>1970-01-01T00:00:00Z</time>
      </trkpt>
      <trkpt lat="39.783301" lon="-6.394512">
        <ele>283.5</ele>
        <time>1970-01-01T00:00:00Z</time>
      </trkpt>
      <trkpt lat="39.783377" lon="-6.394503">
        <ele>284.6</ele>
        <time>1970-01-01T00:00:00Z</time>
      </trkpt>
      <trkpt lat="39.783661" lon="-6.394505">
        <ele>289.6</ele>
        <time>1970-01-01T00:00:00Z</time>
      </trkpt>
      <trkpt lat="39.784086" lon="-6.394576">
        <ele>299.3</ele>
        <time>1970-01-01T00:00:00Z</time>
      </trkpt>
      <trkpt lat="39.784376" lon="-6.394588">
        <ele>304.2</ele>
        <time>1970-01-01T00:00:00Z</time>
      </trkpt>
      <trkpt lat="39.784844" lon="-6.394529">
        <ele>310.1</ele>
        <time>1970-01-01T00:00:00Z</time>
      </trkpt>
      <trkpt lat="39.785019" lon="-6.394496">
        <ele>312.6</ele>
        <time>1970-01-01T00:00:00Z</time>
      </trkpt>
      <trkpt lat="39.785131" lon="-6.394455">
        <ele>313.7</ele>
        <time>1970-01-01T00:00:00Z</time>
      </trkpt>
    </trkseg>
    <trkseg>
      <trkpt lat="39.785131" lon="-6.394455">
        <ele>313.7</ele>
        <time>1970-01-01T00:00:00Z</time>
      </trkpt>
      <trkpt lat="39.785325" lon="-6.394404">
        <ele>315.4</ele>
        <time>1970-01-01T00:00:00Z</time>
      </trkpt>
      <trkpt lat="39.785396" lon="-6.394705">
        <ele>319.0</ele>
        <time>1970-01-01T00:00:00Z</time>
      </trkpt>
      <trkpt lat="39.785394" lon="-6.395155">
        <ele>321.3</ele>
        <time>1970-01-01T00:00:00Z</time>
      </trkpt>
      <trkpt lat="39.785415" lon="-6.395356">
        <ele>322.9</ele>
        <time>1970-01-01T00:00:00Z</time>
      </trkpt>
      <trkpt lat="39.785461" lon="-6.394931">
        <ele>321.2</ele>
        <time>1970-01-01T00:00:00Z</time>
      </trkpt>
      <trkpt lat="39.785777" lon="-6.394977">
        <ele>325.0</ele>
        <time>1970-01-01T00:00:00Z</time>
      </trkpt>
      <trkpt lat="39.785815" lon="-6.395000">
        <ele>326.0</ele>
        <time>1970-01-01T00:00:00Z</time>
      </trkpt>
      <trkpt lat="39.785892" lon="-6.395230">
        <ele>330.6</ele>
        <time>1970-01-01T00:00:00Z</time>
      </trkpt>
      <trkpt lat="39.786578" lon="-6.395108">
        <ele>335.0</ele>
        <time>1970-01-01T00:00:00Z</time>
      </trkpt>
      <trkpt lat="39.786666" lon="-6.395193">
        <ele>333.7</ele>
        <time>1970-01-01T00:00:00Z</time>
      </trkpt>
      <trkpt lat="39.787380" lon="-6.395708">
        <ele>328.0</ele>
        <time>1970-01-01T00:00:00Z</time>
      </trkpt>
      <trkpt lat="39.787583" lon="-6.395805">
        <ele>327.4</ele>
        <time>1970-01-01T00:00:00Z</time>
      </trkpt>
      <trkpt lat="39.788527" lon="-6.395844">
        <ele>327.2</ele>
        <time>1970-01-01T00:00:00Z</time>
      </trkpt>
      <trkpt lat="39.788671" lon="-6.395748">
        <ele>329.1</ele>
        <time>1970-01-01T00:00:00Z</time>
      </trkpt>
      <trkpt lat="39.788847" lon="-6.395695">
        <ele>330.5</ele>
        <time>1970-01-01T00:00:00Z</time>
      </trkpt>
      <trkpt lat="39.789020" lon="-6.395756">
        <ele>330.6</ele>
        <time>1970-01-01T00:00:00Z</time>
      </trkpt>
      <trkpt lat="39.789130" lon="-6.395709">
        <ele>331.8</ele>
        <time>1970-01-01T00:00:00Z</time>
      </trkpt>
      <trkpt lat="39.789210" lon="-6.395581">
        <ele>333.4</ele>
        <time>1970-01-01T00:00:00Z</time>
      </trkpt>
      <trkpt lat="39.789331" lon="-6.395550">
        <ele>334.2</ele>
        <time>1970-01-01T00:00:00Z</time>
      </trkpt>
      <trkpt lat="39.789552" lon="-6.395288">
        <ele>338.1</ele>
        <time>1970-01-01T00:00:00Z</time>
      </trkpt>
      <trkpt lat="39.789710" lon="-6.394985">
        <ele>342.4</ele>
        <time>1970-01-01T00:00:00Z</time>
      </trkpt>
      <trkpt lat="39.790115" lon="-6.394406">
        <ele>349.4</ele>
        <time>1970-01-01T00:00:00Z</time>
      </trkpt>
      <trkpt lat="39.790243" lon="-6.394136">
        <ele>352.3</ele>
        <time>1970-01-01T00:00:00Z</time>
      </trkpt>
      <trkpt lat="39.790330" lon="-6.394004">
        <ele>353.8</ele>
        <time>1970-01-01T00:00:00Z</time>
      </trkpt>
      <trkpt lat="39.790629" lon="-6.393360">
        <ele>355.3</ele>
        <time>1970-01-01T00:00:00Z</time>
      </trkpt>
      <trkpt lat="39.791203" lon="-6.392585">
        <ele>354.5</ele>
        <time>1970-01-01T00:00:00Z</time>
      </trkpt>
      <trkpt lat="39.791634" lon="-6.391979">
        <ele>355.5</ele>
        <time>1970-01-01T00:00:00Z</time>
      </trkpt>
      <trkpt lat="39.791947" lon="-6.391454">
        <ele>355.7</ele>
        <time>1970-01-01T00:00:00Z</time>
      </trkpt>
      <trkpt lat="39.792126" lon="-6.391063">
        <ele>354.8</ele>
        <time>1970-01-01T00:00:00Z</time>
      </trkpt>
      <trkpt lat="39.792390" lon="-6.390718">
        <ele>355.8</ele>
        <time>1970-01-01T00:00:00Z</time>
      </trkpt>
      <trkpt lat="39.792597" lon="-6.390694">
        <ele>357.3</ele>
        <time>1970-01-01T00:00:00Z</time>
      </trkpt>
      <trkpt lat="39.792693" lon="-6.390658">
        <ele>357.5</ele>
        <time>1970-01-01T00:00:00Z</time>
      </trkpt>
      <trkpt lat="39.792768" lon="-6.390607">
        <ele>357.9</ele>
        <time>1970-01-01T00:00:00Z</time>
      </trkpt>
      <trkpt lat="39.792827" lon="-6.390528">
        <ele>358.1</ele>
        <time>1970-01-01T00:00:00Z</time>
      </trkpt>
      <trkpt lat="39.792872" lon="-6.390375">
        <ele>357.8</ele>
        <time>1970-01-01T00:00:00Z</time>
      </trkpt>
      <trkpt lat="39.792864" lon="-6.390144">
        <ele>356.8</ele>
        <time>1970-01-01T00:00:00Z</time>
      </trkpt>
      <trkpt lat="39.792784" lon="-6.389528">
        <ele>354.4</ele>
        <time>1970-01-01T00:00:00Z</time>
      </trkpt>
      <trkpt lat="39.792737" lon="-6.388947">
        <ele>356.0</ele>
        <time>1970-01-01T00:00:00Z</time>
      </trkpt>
      <trkpt lat="39.792778" lon="-6.388645">
        <ele>355.0</ele>
        <time>1970-01-01T00:00:00Z</time>
      </trkpt>
      <trkpt lat="39.792853" lon="-6.388320">
        <ele>350.6</ele>
        <time>1970-01-01T00:00:00Z</time>
      </trkpt>
      <trkpt lat="39.792801" lon="-6.388094">
        <ele>347.8</ele>
        <time>1970-01-01T00:00:00Z</time>
      </trkpt>
      <trkpt lat="39.792874" lon="-6.387801">
        <ele>346.7</ele>
        <time>1970-01-01T00:00:00Z</time>
      </trkpt>
      <trkpt lat="39.793118" lon="-6.387282">
        <ele>346.4</ele>
        <time>1970-01-01T00:00:00Z</time>
      </trkpt>
      <trkpt lat="39.793258" lon="-6.387096">
        <ele>345.7</ele>
        <time>1970-01-01T00:00:00Z</time>
      </trkpt>
      <trkpt lat="39.793405" lon="-6.386865">
        <ele>344.3</ele>
        <time>1970-01-01T00:00:00Z</time>
      </trkpt>
      <trkpt lat="39.793525" lon="-6.386605">
        <ele>343.6</ele>
        <time>1970-01-01T00:00:00Z</time>
      </trkpt>
      <trkpt lat="39.793905" lon="-6.385917">
        <ele>341.5</ele>
        <time>1970-01-01T00:00:00Z</time>
      </trkpt>
      <trkpt lat="39.794092" lon="-6.385519">
        <ele>342.8</ele>
        <time>1970-01-01T00:00:00Z</time>
      </trkpt>
      <trkpt lat="39.794275" lon="-6.384875">
        <ele>346.1</ele>
        <time>1970-01-01T00:00:00Z</time>
      </trkpt>
      <trkpt lat="39.794404" lon="-6.384598">
        <ele>349.0</ele>
        <time>1970-01-01T00:00:00Z</time>
      </trkpt>
      <trkpt lat="39.794555" lon="-6.384364">
        <ele>351.1</ele>
        <time>1970-01-01T00:00:00Z</time>
      </trkpt>
      <trkpt lat="39.794595" lon="-6.384067">
        <ele>351.4</ele>
        <time>1970-01-01T00:00:00Z</time>
      </trkpt>
      <trkpt lat="39.794635" lon="-6.383864">
        <ele>351.8</ele>
        <time>1970-01-01T00:00:00Z</time>
      </trkpt>
      <trkpt lat="39.794707" lon="-6.383623">
        <ele>352.4</ele>
        <time>1970-01-01T00:00:00Z</time>
      </trkpt>
      <trkpt lat="39.794875" lon="-6.382814">
        <ele>356.0</ele>
        <time>1970-01-01T00:00:00Z</time>
      </trkpt>
      <trkpt lat="39.795014" lon="-6.382317">
        <ele>359.0</ele>
        <time>1970-01-01T00:00:00Z</time>
      </trkpt>
      <trkpt lat="39.795105" lon="-6.382055">
        <ele>360.1</ele>
        <time>1970-01-01T00:00:00Z</time>
      </trkpt>
      <trkpt lat="39.795335" lon="-6.382024">
        <ele>362.2</ele>
        <time>1970-01-01T00:00:00Z</time>
      </trkpt>
      <trkpt lat="39.795515" lon="-6.381825">
        <ele>363.8</ele>
        <time>1970-01-01T00:00:00Z</time>
      </trkpt>
      <trkpt lat="39.796215" lon="-6.381724">
        <ele>368.4</ele>
        <time>1970-01-01T00:00:00Z</time>
      </trkpt>
      <trkpt lat="39.796665" lon="-6.381644">
        <ele>371.3</ele>
        <time>1970-01-01T00:00:00Z</time>
      </trkpt>
      <trkpt lat="39.797085" lon="-6.381534">
        <ele>376.9</ele>
        <time>1970-01-01T00:00:00Z</time>
      </trkpt>
      <trkpt lat="39.797305" lon="-6.381494">
        <ele>378.9</ele>
        <time>1970-01-01T00:00:00Z</time>
      </trkpt>
      <trkpt lat="39.797525" lon="-6.381425">
        <ele>382.5</ele>
        <time>1970-01-01T00:00:00Z</time>
      </trkpt>
      <trkpt lat="39.797945" lon="-6.381234">
        <ele>388.7</ele>
        <time>1970-01-01T00:00:00Z</time>
      </trkpt>
      <trkpt lat="39.798485" lon="-6.380894">
        <ele>395.4</ele>
        <time>1970-01-01T00:00:00Z</time>
      </trkpt>
      <trkpt lat="39.798585" lon="-6.380854">
        <ele>396.5</ele>
        <time>1970-01-01T00:00:00Z</time>
      </trkpt>
      <trkpt lat="39.798895" lon="-6.380824">
        <ele>399.6</ele>
        <time>1970-01-01T00:00:00Z</time>
      </trkpt>
      <trkpt lat="39.799195" lon="-6.380744">
        <ele>401.9</ele>
        <time>1970-01-01T00:00:00Z</time>
      </trkpt>
      <trkpt lat="39.799415" lon="-6.380664">
        <ele>403.4</ele>
        <time>1970-01-01T00:00:00Z</time>
      </trkpt>
      <trkpt lat="39.799525" lon="-6.380604">
        <ele>403.6</ele>
        <time>1970-01-01T00:00:00Z</time>
      </trkpt>
      <trkpt lat="39.799895" lon="-6.380274">
        <ele>405.3</ele>
        <time>1970-01-01T00:00:00Z</time>
      </trkpt>
      <trkpt lat="39.800005" lon="-6.380204">
        <ele>406.4</ele>
        <time>1970-01-01T00:00:00Z</time>
      </trkpt>
      <trkpt lat="39.800565" lon="-6.379934">
        <ele>412.2</ele>
        <time>1970-01-01T00:00:00Z</time>
      </trkpt>
      <trkpt lat="39.800635" lon="-6.379874">
        <ele>412.9</ele>
        <time>1970-01-01T00:00:00Z</time>
      </trkpt>
      <trkpt lat="39.800705" lon="-6.379804">
        <ele>413.8</ele>
        <time>1970-01-01T00:00:00Z</time>
      </trkpt>
      <trkpt lat="39.801055" lon="-6.379264">
        <ele>416.5</ele>
        <time>1970-01-01T00:00:00Z</time>
      </trkpt>
      <trkpt lat="39.801615" lon="-6.378634">
        <ele>411.7</ele>
        <time>1970-01-01T00:00:00Z</time>
      </trkpt>
      <trkpt lat="39.801755" lon="-6.378374">
        <ele>409.0</ele>
        <time>1970-01-01T00:00:00Z</time>
      </trkpt>
      <trkpt lat="39.801964" lon="-6.377886">
        <ele>405.8</ele>
        <time>1970-01-01T00:00:00Z</time>
      </trkpt>
      <trkpt lat="39.802249" lon="-6.377125">
        <ele>408.8</ele>
        <time>1970-01-01T00:00:00Z</time>
      </trkpt>
      <trkpt lat="39.802426" lon="-6.376193">
        <ele>416.1</ele>
        <time>1970-01-01T00:00:00Z</time>
      </trkpt>
      <trkpt lat="39.802687" lon="-6.375313">
        <ele>422.3</ele>
        <time>1970-01-01T00:00:00Z</time>
      </trkpt>
      <trkpt lat="39.802770" lon="-6.375109">
        <ele>421.7</ele>
        <time>1970-01-01T00:00:00Z</time>
      </trkpt>
      <trkpt lat="39.802842" lon="-6.374979">
        <ele>421.3</ele>
        <time>1970-01-01T00:00:00Z</time>
      </trkpt>
      <trkpt lat="39.802937" lon="-6.374765">
        <ele>419.8</ele>
        <time>1970-01-01T00:00:00Z</time>
      </trkpt>
      <trkpt lat="39.803177" lon="-6.374176">
        <ele>413.4</ele>
        <time>1970-01-01T00:00:00Z</time>
      </trkpt>
      <trkpt lat="39.803296" lon="-6.373941">
        <ele>410.1</ele>
        <time>1970-01-01T00:00:00Z</time>
      </trkpt>
      <trkpt lat="39.803362" lon="-6.373829">
        <ele>408.4</ele>
        <time>1970-01-01T00:00:00Z</time>
      </trkpt>
      <trkpt lat="39.804133" lon="-6.373162">
        <ele>404.3</ele>
        <time>1970-01-01T00:00:00Z</time>
      </trkpt>
      <trkpt lat="39.804352" lon="-6.372925">
        <ele>405.1</ele>
        <time>1970-01-01T00:00:00Z</time>
      </trkpt>
      <trkpt lat="39.804475" lon="-6.372723">
        <ele>406.7</ele>
        <time>1970-01-01T00:00:00Z</time>
      </trkpt>
      <trkpt lat="39.804537" lon="-6.372555">
        <ele>406.6</ele>
        <time>1970-01-01T00:00:00Z</time>
      </trkpt>
      <trkpt lat="39.804468" lon="-6.372482">
        <ele>405.6</ele>
        <time>1970-01-01T00:00:00Z</time>
      </trkpt>
      <trkpt lat="39.804394" lon="-6.372371">
        <ele>404.2</ele>
        <time>1970-01-01T00:00:00Z</time>
      </trkpt>
      <trkpt lat="39.804293" lon="-6.372110">
        <ele>402.3</ele>
        <time>1970-01-01T00:00:00Z</time>
      </trkpt>
      <trkpt lat="39.804590" lon="-6.371984">
        <ele>404.5</ele>
        <time>1970-01-01T00:00:00Z</time>
      </trkpt>
      <trkpt lat="39.804685" lon="-6.371876">
        <ele>404.4</ele>
        <time>1970-01-01T00:00:00Z</time>
      </trkpt>
      <trkpt lat="39.804744" lon="-6.371760">
        <ele>404.2</ele>
        <time>1970-01-01T00:00:00Z</time>
      </trkpt>
      <trkpt lat="39.804769" lon="-6.371667">
        <ele>404.3</ele>
        <time>1970-01-01T00:00:00Z</time>
      </trkpt>
      <trkpt lat="39.804707" lon="-6.371172">
        <ele>402.1</ele>
        <time>1970-01-01T00:00:00Z</time>
      </trkpt>
      <trkpt lat="39.804710" lon="-6.371064">
        <ele>401.7</ele>
        <time>1970-01-01T00:00:00Z</time>
      </trkpt>
      <trkpt lat="39.804671" lon="-6.370832">
        <ele>400.4</ele>
        <time>1970-01-01T00:00:00Z</time>
      </trkpt>
      <trkpt lat="39.804812" lon="-6.370248">
        <ele>398.4</ele>
        <time>1970-01-01T00:00:00Z</time>
      </trkpt>
      <trkpt lat="39.804827" lon="-6.370135">
        <ele>397.8</ele>
        <time>1970-01-01T00:00:00Z</time>
      </trkpt>
      <trkpt lat="39.804776" lon="-6.369801">
        <ele>396.7</ele>
        <time>1970-01-01T00:00:00Z</time>
      </trkpt>
      <trkpt lat="39.804700" lon="-6.369459">
        <ele>395.7</ele>
        <time>1970-01-01T00:00:00Z</time>
      </trkpt>
      <trkpt lat="39.804659" lon="-6.369413">
        <ele>395.2</ele>
        <time>1970-01-01T00:00:00Z</time>
      </trkpt>
      <trkpt lat="39.804455" lon="-6.369296">
        <ele>393.6</ele>
        <time>1970-01-01T00:00:00Z</time>
      </trkpt>
      <trkpt lat="39.804312" lon="-6.369173">
        <ele>392.1</ele>
        <time>1970-01-01T00:00:00Z</time>
      </trkpt>
      <trkpt lat="39.804139" lon="-6.369081">
        <ele>390.2</ele>
        <time>1970-01-01T00:00:00Z</time>
      </trkpt>
      <trkpt lat="39.804214" lon="-6.368649">
        <ele>390.5</ele>
        <time>1970-01-01T00:00:00Z</time>
      </trkpt>
      <trkpt lat="39.804195" lon="-6.368517">
        <ele>390.4</ele>
        <time>1970-01-01T00:00:00Z</time>
      </trkpt>
      <trkpt lat="39.804144" lon="-6.368428">
        <ele>389.9</ele>
        <time>1970-01-01T00:00:00Z</time>
      </trkpt>
      <trkpt lat="39.804096" lon="-6.368176">
        <ele>389.5</ele>
        <time>1970-01-01T00:00:00Z</time>
      </trkpt>
      <trkpt lat="39.804463" lon="-6.368086">
        <ele>392.7</ele>
        <time>1970-01-01T00:00:00Z</time>
      </trkpt>
      <trkpt lat="39.804872" lon="-6.367517">
        <ele>393.6</ele>
        <time>1970-01-01T00:00:00Z</time>
      </trkpt>
      <trkpt lat="39.805075" lon="-6.367369">
        <ele>394.4</ele>
        <time>1970-01-01T00:00:00Z</time>
      </trkpt>
      <trkpt lat="39.805358" lon="-6.367197">
        <ele>395.7</ele>
        <time>1970-01-01T00:00:00Z</time>
      </trkpt>
      <trkpt lat="39.806162" lon="-6.366641">
        <ele>401.9</ele>
        <time>1970-01-01T00:00:00Z</time>
      </trkpt>
      <trkpt lat="39.806676" lon="-6.366268">
        <ele>399.4</ele>
        <time>1970-01-01T00:00:00Z</time>
      </trkpt>
      <trkpt lat="39.807017" lon="-6.366139">
        <ele>396.3</ele>
        <time>1970-01-01T00:00:00Z</time>
      </trkpt>
      <trkpt lat="39.807180" lon="-6.366058">
        <ele>394.9</ele>
        <time>1970-01-01T00:00:00Z</time>
      </trkpt>
      <trkpt lat="39.807262" lon="-6.365970">
        <ele>394.1</ele>
        <time>1970-01-01T00:00:00Z</time>
      </trkpt>
      <trkpt lat="39.807291" lon="-6.365826">
        <ele>394.0</ele>
        <time>1970-01-01T00:00:00Z</time>
      </trkpt>
      <trkpt lat="39.807257" lon="-6.365621">
        <ele>393.4</ele>
        <time>1970-01-01T00:00:00Z</time>
      </trkpt>
      <trkpt lat="39.807056" lon="-6.365206">
        <ele>392.0</ele>
        <time>1970-01-01T00:00:00Z</time>
      </trkpt>
      <trkpt lat="39.806975" lon="-6.365108">
        <ele>391.5</ele>
        <time>1970-01-01T00:00:00Z</time>
      </trkpt>
      <trkpt lat="39.806912" lon="-6.365118">
        <ele>391.1</ele>
        <time>1970-01-01T00:00:00Z</time>
      </trkpt>
      <trkpt lat="39.806824" lon="-6.365192">
        <ele>391.0</ele>
        <time>1970-01-01T00:00:00Z</time>
      </trkpt>
      <trkpt lat="39.806712" lon="-6.365362">
        <ele>392.1</ele>
        <time>1970-01-01T00:00:00Z</time>
      </trkpt>
      <trkpt lat="39.806598" lon="-6.365473">
        <ele>393.2</ele>
        <time>1970-01-01T00:00:00Z</time>
      </trkpt>
      <trkpt lat="39.806417" lon="-6.365603">
        <ele>394.7</ele>
        <time>1970-01-01T00:00:00Z</time>
      </trkpt>
      <trkpt lat="39.805841" lon="-6.365874">
        <ele>396.5</ele>
        <time>1970-01-01T00:00:00Z</time>
      </trkpt>
      <trkpt lat="39.805521" lon="-6.366132">
        <ele>394.8</ele>
        <time>1970-01-01T00:00:00Z</time>
      </trkpt>
      <trkpt lat="39.805422" lon="-6.366180">
        <ele>393.7</ele>
        <time>1970-01-01T00:00:00Z</time>
      </trkpt>
      <trkpt lat="39.805340" lon="-6.366181">
        <ele>392.6</ele>
        <time>1970-01-01T00:00:00Z</time>
      </trkpt>
      <trkpt lat="39.805325" lon="-6.366115">
        <ele>392.0</ele>
        <time>1970-01-01T00:00:00Z</time>
      </trkpt>
      <trkpt lat="39.805329" lon="-6.366044">
        <ele>391.6</ele>
        <time>1970-01-01T00:00:00Z</time>
      </trkpt>
      <trkpt lat="39.805456" lon="-6.365949">
        <ele>393.1</ele>
        <time>1970-01-01T00:00:00Z</time>
      </trkpt>
      <trkpt lat="39.805564" lon="-6.365897">
        <ele>394.1</ele>
        <time>1970-01-01T00:00:00Z</time>
      </trkpt>
      <trkpt lat="39.805634" lon="-6.365802">
        <ele>394.1</ele>
        <time>1970-01-01T00:00:00Z</time>
      </trkpt>
      <trkpt lat="39.805693" lon="-6.365446">
        <ele>390.4</ele>
        <time>1970-01-01T00:00:00Z</time>
      </trkpt>
      <trkpt lat="39.805823" lon="-6.365121">
        <ele>387.3</ele>
        <time>1970-01-01T00:00:00Z</time>
      </trkpt>
      <trkpt lat="39.805853" lon="-6.364887">
        <ele>385.2</ele>
        <time>1970-01-01T00:00:00Z</time>
      </trkpt>
      <trkpt lat="39.806021" lon="-6.364439">
        <ele>383.1</ele>
        <time>1970-01-01T00:00:00Z</time>
      </trkpt>
      <trkpt lat="39.806070" lon="-6.364271">
        <ele>382.9</ele>
        <time>1970-01-01T00:00:00Z</time>
      </trkpt>
      <trkpt lat="39.806114" lon="-6.364010">
        <ele>382.4</ele>
        <time>1970-01-01T00:00:00Z</time>
      </trkpt>
      <trkpt lat="39.806218" lon="-6.363795">
        <ele>383.4</ele>
        <time>1970-01-01T00:00:00Z</time>
      </trkpt>
      <trkpt lat="39.806234" lon="-6.363672">
        <ele>384.0</ele>
        <time>1970-01-01T00:00:00Z</time>
      </trkpt>
      <trkpt lat="39.806182" lon="-6.363438">
        <ele>383.6</ele>
        <time>1970-01-01T00:00:00Z</time>
      </trkpt>
      <trkpt lat="39.806103" lon="-6.363228">
        <ele>383.9</ele>
        <time>1970-01-01T00:00:00Z</time>
      </trkpt>
      <trkpt lat="39.806076" lon="-6.363199">
        <ele>383.7</ele>
        <time>1970-01-01T00:00:00Z</time>
      </trkpt>
      <trkpt lat="39.806043" lon="-6.363125">
        <ele>383.5</ele>
        <time>1970-01-01T00:00:00Z</time>
      </trkpt>
      <trkpt lat="39.805999" lon="-6.362998">
        <ele>383.5</ele>
        <time>1970-01-01T00:00:00Z</time>
      </trkpt>
      <trkpt lat="39.805968" lon="-6.362827">
        <ele>384.1</ele>
        <time>1970-01-01T00:00:00Z</time>
      </trkpt>
      <trkpt lat="39.805958" lon="-6.362600">
        <ele>384.5</ele>
        <time>1970-01-01T00:00:00Z</time>
      </trkpt>
      <trkpt lat="39.805967" lon="-6.362370">
        <ele>384.7</ele>
        <time>1970-01-01T00:00:00Z</time>
      </trkpt>
      <trkpt lat="39.805931" lon="-6.361954">
        <ele>384.2</ele>
        <time>1970-01-01T00:00:00Z</time>
      </trkpt>
      <trkpt lat="39.805924" lon="-6.361637">
        <ele>384.3</ele>
        <time>1970-01-01T00:00:00Z</time>
      </trkpt>
      <trkpt lat="39.805884" lon="-6.361308">
        <ele>385.0</ele>
        <time>1970-01-01T00:00:00Z</time>
      </trkpt>
      <trkpt lat="39.805818" lon="-6.361061">
        <ele>385.1</ele>
        <time>1970-01-01T00:00:00Z</time>
      </trkpt>
      <trkpt lat="39.805819" lon="-6.360830">
        <ele>385.4</ele>
        <time>1970-01-01T00:00:00Z</time>
      </trkpt>
      <trkpt lat="39.805737" lon="-6.360318">
        <ele>386.5</ele>
        <time>1970-01-01T00:00:00Z</time>
      </trkpt>
      <trkpt lat="39.805747" lon="-6.359862">
        <ele>387.9</ele>
        <time>1970-01-01T00:00:00Z</time>
      </trkpt>
      <trkpt lat="39.805693" lon="-6.359310">
        <ele>390.6</ele>
        <time>1970-01-01T00:00:00Z</time>
      </trkpt>
      <trkpt lat="39.805600" lon="-6.358871">
        <ele>393.3</ele>
        <time>1970-01-01T00:00:00Z</time>
      </trkpt>
      <trkpt lat="39.805521" lon="-6.358643">
        <ele>395.0</ele>
        <time>1970-01-01T00:00:00Z</time>
      </trkpt>
      <trkpt lat="39.805438" lon="-6.358514">
        <ele>396.6</ele>
        <time>1970-01-01T00:00:00Z</time>
      </trkpt>
      <trkpt lat="39.805128" lon="-6.358177">
        <ele>402.8</ele>
        <time>1970-01-01T00:00:00Z</time>
      </trkpt>
      <trkpt lat="39.804965" lon="-6.358025">
        <ele>406.4</ele>
        <time>1970-01-01T00:00:00Z</time>
      </trkpt>
      <trkpt lat="39.804854" lon="-6.357944">
        <ele>408.1</ele>
        <time>1970-01-01T00:00:00Z</time>
      </trkpt>
      <trkpt lat="39.804738" lon="-6.357812">
        <ele>410.7</ele>
        <time>1970-01-01T00:00:00Z</time>
      </trkpt>
      <trkpt lat="39.804677" lon="-6.357704">
        <ele>411.7</ele>
        <time>1970-01-01T00:00:00Z</time>
      </trkpt>
      <trkpt lat="39.804290" lon="-6.356816">
        <ele>416.3</ele>
        <time>1970-01-01T00:00:00Z</time>
      </trkpt>
      <trkpt lat="39.804229" lon="-6.356654">
        <ele>417.2</ele>
        <time>1970-01-01T00:00:00Z</time>
      </trkpt>
      <trkpt lat="39.804106" lon="-6.356444">
        <ele>417.5</ele>
        <time>1970-01-01T00:00:00Z</time>
      </trkpt>
      <trkpt lat="39.803714" lon="-6.355645">
        <ele>418.9</ele>
        <time>1970-01-01T00:00:00Z</time>
      </trkpt>
      <trkpt lat="39.803667" lon="-6.355417">
        <ele>419.0</ele>
        <time>1970-01-01T00:00:00Z</time>
      </trkpt>
      <trkpt lat="39.803688" lon="-6.355069">
        <ele>418.4</ele>
        <time>1970-01-01T00:00:00Z</time>
      </trkpt>
      <trkpt lat="39.803769" lon="-6.354661">
        <ele>417.0</ele>
        <time>1970-01-01T00:00:00Z</time>
      </trkpt>
      <trkpt lat="39.803909" lon="-6.354257">
        <ele>416.7</ele>
        <time>1970-01-01T00:00:00Z</time>
      </trkpt>
      <trkpt lat="39.803974" lon="-6.353978">
        <ele>416.0</ele>
        <time>1970-01-01T00:00:00Z</time>
      </trkpt>
      <trkpt lat="39.804029" lon="-6.353558">
        <ele>416.0</ele>
        <time>1970-01-01T00:00:00Z</time>
      </trkpt>
      <trkpt lat="39.804037" lon="-6.353303">
        <ele>416.0</ele>
        <time>1970-01-01T00:00:00Z</time>
      </trkpt>
      <trkpt lat="39.803831" lon="-6.353189">
        <ele>416.0</ele>
        <time>1970-01-01T00:00:00Z</time>
      </trkpt>
      <trkpt lat="39.803534" lon="-6.353100">
        <ele>414.8</ele>
        <time>1970-01-01T00:00:00Z</time>
      </trkpt>
      <trkpt lat="39.803349" lon="-6.353069">
        <ele>414.0</ele>
        <time>1970-01-01T00:00:00Z</time>
      </trkpt>
      <trkpt lat="39.803331" lon="-6.352898">
        <ele>414.0</ele>
        <time>1970-01-01T00:00:00Z</time>
      </trkpt>
      <trkpt lat="39.803288" lon="-6.352013">
        <ele>412.8</ele>
        <time>1970-01-01T00:00:00Z</time>
      </trkpt>
      <trkpt lat="39.803277" lon="-6.351386">
        <ele>413.0</ele>
        <time>1970-01-01T00:00:00Z</time>
      </trkpt>
      <trkpt lat="39.803290" lon="-6.350949">
        <ele>413.0</ele>
        <time>1970-01-01T00:00:00Z</time>
      </trkpt>
      <trkpt lat="39.803320" lon="-6.350509">
        <ele>412.1</ele>
        <time>1970-01-01T00:00:00Z</time>
      </trkpt>
      <trkpt lat="39.803335" lon="-6.349501">
        <ele>408.7</ele>
        <time>1970-01-01T00:00:00Z</time>
      </trkpt>
      <trkpt lat="39.803352" lon="-6.349191">
        <ele>407.4</ele>
        <time>1970-01-01T00:00:00Z</time>
      </trkpt>
      <trkpt lat="39.803400" lon="-6.349008">
        <ele>406.6</ele>
        <time>1970-01-01T00:00:00Z</time>
      </trkpt>
      <trkpt lat="39.803498" lon="-6.348879">
        <ele>406.0</ele>
        <time>1970-01-01T00:00:00Z</time>
      </trkpt>
      <trkpt lat="39.803583" lon="-6.348805">
        <ele>405.7</ele>
        <time>1970-01-01T00:00:00Z</time>
      </trkpt>
      <trkpt lat="39.803667" lon="-6.348791">
        <ele>405.8</ele>
        <time>1970-01-01T00:00:00Z</time>
      </trkpt>
      <trkpt lat="39.803798" lon="-6.348812">
        <ele>406.0</ele>
        <time>1970-01-01T00:00:00Z</time>
      </trkpt>
      <trkpt lat="39.803900" lon="-6.348743">
        <ele>406.4</ele>
        <time>1970-01-01T00:00:00Z</time>
      </trkpt>
      <trkpt lat="39.803885" lon="-6.348471">
        <ele>406.3</ele>
        <time>1970-01-01T00:00:00Z</time>
      </trkpt>
      <trkpt lat="39.803907" lon="-6.348013">
        <ele>406.3</ele>
        <time>1970-01-01T00:00:00Z</time>
      </trkpt>
      <trkpt lat="39.803902" lon="-6.347864">
        <ele>406.4</ele>
        <time>1970-01-01T00:00:00Z</time>
      </trkpt>
      <trkpt lat="39.803937" lon="-6.347744">
        <ele>406.6</ele>
        <time>1970-01-01T00:00:00Z</time>
      </trkpt>
      <trkpt lat="39.804008" lon="-6.347654">
        <ele>407.1</ele>
        <time>1970-01-01T00:00:00Z</time>
      </trkpt>
      <trkpt lat="39.804198" lon="-6.347537">
        <ele>409.2</ele>
        <time>1970-01-01T00:00:00Z</time>
      </trkpt>
      <trkpt lat="39.804311" lon="-6.347376">
        <ele>410.8</ele>
        <time>1970-01-01T00:00:00Z</time>
      </trkpt>
      <trkpt lat="39.804443" lon="-6.347156">
        <ele>412.1</ele>
        <time>1970-01-01T00:00:00Z</time>
      </trkpt>
      <trkpt lat="39.804668" lon="-6.346704">
        <ele>414.8</ele>
        <time>1970-01-01T00:00:00Z</time>
      </trkpt>
      <trkpt lat="39.804724" lon="-6.346543">
        <ele>415.9</ele>
        <time>1970-01-01T00:00:00Z</time>
      </trkpt>
      <trkpt lat="39.804902" lon="-6.346233">
        <ele>416.7</ele>
        <time>1970-01-01T00:00:00Z</time>
      </trkpt>
      <trkpt lat="39.805104" lon="-6.345965">
        <ele>417.0</ele>
        <time>1970-01-01T00:00:00Z</time>
      </trkpt>
      <trkpt lat="39.805307" lon="-6.345778">
        <ele>417.0</ele>
        <time>1970-01-01T00:00:00Z</time>
      </trkpt>
      <trkpt lat="39.805786" lon="-6.345269">
        <ele>416.0</ele>
        <time>1970-01-01T00:00:00Z</time>
      </trkpt>
      <trkpt lat="39.806340" lon="-6.344784">
        <ele>417.0</ele>
        <time>1970-01-01T00:00:00Z</time>
      </trkpt>
      <trkpt lat="39.806379" lon="-6.344709">
        <ele>417.1</ele>
        <time>1970-01-01T00:00:00Z</time>
      </trkpt>
      <trkpt lat="39.806546" lon="-6.344560">
        <ele>417.3</ele>
        <time>1970-01-01T00:00:00Z</time>
      </trkpt>
      <trkpt lat="39.806699" lon="-6.344448">
        <ele>417.4</ele>
        <time>1970-01-01T00:00:00Z</time>
      </trkpt>
      <trkpt lat="39.806830" lon="-6.344194">
        <ele>417.1</ele>
        <time>1970-01-01T00:00:00Z</time>
      </trkpt>
      <trkpt lat="39.807208" lon="-6.343953">
        <ele>418.7</ele>
        <time>1970-01-01T00:00:00Z</time>
      </trkpt>
      <trkpt lat="39.807444" lon="-6.343721">
        <ele>420.5</ele>
        <time>1970-01-01T00:00:00Z</time>
      </trkpt>
      <trkpt lat="39.807548" lon="-6.343480">
        <ele>421.4</ele>
        <time>1970-01-01T00:00:00Z</time>
      </trkpt>
      <trkpt lat="39.807599" lon="-6.343320">
        <ele>421.8</ele>
        <time>1970-01-01T00:00:00Z</time>
      </trkpt>
      <trkpt lat="39.807630" lon="-6.343128">
        <ele>421.7</ele>
        <time>1970-01-01T00:00:00Z</time>
      </trkpt>
      <trkpt lat="39.807645" lon="-6.342918">
        <ele>421.0</ele>
        <time>1970-01-01T00:00:00Z</time>
      </trkpt>
      <trkpt lat="39.807685" lon="-6.342808">
        <ele>421.1</ele>
        <time>1970-01-01T00:00:00Z</time>
      </trkpt>
      <trkpt lat="39.807743" lon="-6.342770">
        <ele>421.7</ele>
        <time>1970-01-01T00:00:00Z</time>
      </trkpt>
      <trkpt lat="39.807904" lon="-6.342760">
        <ele>423.0</ele>
        <time>1970-01-01T00:00:00Z</time>
      </trkpt>
      <trkpt lat="39.808164" lon="-6.342776">
        <ele>425.6</ele>
        <time>1970-01-01T00:00:00Z</time>
      </trkpt>
      <trkpt lat="39.808235" lon="-6.342668">
        <ele>426.3</ele>
        <time>1970-01-01T00:00:00Z</time>
      </trkpt>
      <trkpt lat="39.808413" lon="-6.342347">
        <ele>428.0</ele>
        <time>1970-01-01T00:00:00Z</time>
      </trkpt>
      <trkpt lat="39.808541" lon="-6.342186">
        <ele>429.8</ele>
        <time>1970-01-01T00:00:00Z</time>
      </trkpt>
      <trkpt lat="39.808639" lon="-6.342150">
        <ele>430.8</ele>
        <time>1970-01-01T00:00:00Z</time>
      </trkpt>
      <trkpt lat="39.808812" lon="-6.342203">
        <ele>432.2</ele>
        <time>1970-01-01T00:00:00Z</time>
      </trkpt>
      <trkpt lat="39.809143" lon="-6.342336">
        <ele>434.1</ele>
        <time>1970-01-01T00:00:00Z</time>
      </trkpt>
      <trkpt lat="39.809291" lon="-6.342363">
        <ele>434.8</ele>
        <time>1970-01-01T00:00:00Z</time>
      </trkpt>
      <trkpt lat="39.809504" lon="-6.342433">
        <ele>435.6</ele>
        <time>1970-01-01T00:00:00Z</time>
      </trkpt>
      <trkpt lat="39.809559" lon="-6.342432">
        <ele>435.9</ele>
        <time>1970-01-01T00:00:00Z</time>
      </trkpt>
      <trkpt lat="39.809590" lon="-6.342381">
        <ele>436.0</ele>
        <time>1970-01-01T00:00:00Z</time>
      </trkpt>
      <trkpt lat="39.809630" lon="-6.342232">
        <ele>436.9</ele>
        <time>1970-01-01T00:00:00Z</time>
      </trkpt>
      <trkpt lat="39.809828" lon="-6.341685">
        <ele>439.0</ele>
        <time>1970-01-01T00:00:00Z</time>
      </trkpt>
      <trkpt lat="39.809889" lon="-6.341460">
        <ele>438.9</ele>
        <time>1970-01-01T00:00:00Z</time>
      </trkpt>
      <trkpt lat="39.809987" lon="-6.341257">
        <ele>437.8</ele>
        <time>1970-01-01T00:00:00Z</time>
      </trkpt>
      <trkpt lat="39.810162" lon="-6.340922">
        <ele>436.8</ele>
        <time>1970-01-01T00:00:00Z</time>
      </trkpt>
      <trkpt lat="39.810602" lon="-6.340167">
        <ele>434.4</ele>
        <time>1970-01-01T00:00:00Z</time>
      </trkpt>
      <trkpt lat="39.811102" lon="-6.339379">
        <ele>436.1</ele>
        <time>1970-01-01T00:00:00Z</time>
      </trkpt>
      <trkpt lat="39.811177" lon="-6.339307">
        <ele>437.0</ele>
        <time>1970-01-01T00:00:00Z</time>
      </trkpt>
      <trkpt lat="39.811286" lon="-6.339134">
        <ele>438.4</ele>
        <time>1970-01-01T00:00:00Z</time>
      </trkpt>
      <trkpt lat="39.811609" lon="-6.338702">
        <ele>442.4</ele>
        <time>1970-01-01T00:00:00Z</time>
      </trkpt>
      <trkpt lat="39.811919" lon="-6.338236">
        <ele>447.2</ele>
        <time>1970-01-01T00:00:00Z</time>
      </trkpt>
      <trkpt lat="39.812305" lon="-6.337817">
        <ele>451.7</ele>
        <time>1970-01-01T00:00:00Z</time>
      </trkpt>
      <trkpt lat="39.813206" lon="-6.337176">
        <ele>461.7</ele>
        <time>1970-01-01T00:00:00Z</time>
      </trkpt>
      <trkpt lat="39.813244" lon="-6.336987">
        <ele>460.9</ele>
        <time>1970-01-01T00:00:00Z</time>
      </trkpt>
      <trkpt lat="39.813357" lon="-6.336592">
        <ele>460.5</ele>
        <time>1970-01-01T00:00:00Z</time>
      </trkpt>
      <trkpt lat="39.813520" lon="-6.336227">
        <ele>459.7</ele>
        <time>1970-01-01T00:00:00Z</time>
      </trkpt>
      <trkpt lat="39.813608" lon="-6.336080">
        <ele>459.1</ele>
        <time>1970-01-01T00:00:00Z</time>
      </trkpt>
      <trkpt lat="39.813769" lon="-6.335759">
        <ele>456.8</ele>
        <time>1970-01-01T00:00:00Z</time>
      </trkpt>
      <trkpt lat="39.814138" lon="-6.335325">
        <ele>453.4</ele>
        <time>1970-01-01T00:00:00Z</time>
      </trkpt>
      <trkpt lat="39.814279" lon="-6.335082">
        <ele>450.8</ele>
        <time>1970-01-01T00:00:00Z</time>
      </trkpt>
      <trkpt lat="39.814373" lon="-6.334718">
        <ele>445.1</ele>
        <time>1970-01-01T00:00:00Z</time>
      </trkpt>
      <trkpt lat="39.814441" lon="-6.334217">
        <ele>439.6</ele>
        <time>1970-01-01T00:00:00Z</time>
      </trkpt>
      <trkpt lat="39.814470" lon="-6.334080">
        <ele>439.2</ele>
        <time>1970-01-01T00:00:00Z</time>
      </trkpt>
      <trkpt lat="39.814554" lon="-6.333204">
        <ele>439.8</ele>
        <time>1970-01-01T00:00:00Z</time>
      </trkpt>
      <trkpt lat="39.814623" lon="-6.332639">
        <ele>442.9</ele>
        <time>1970-01-01T00:00:00Z</time>
      </trkpt>
      <trkpt lat="39.814655" lon="-6.332515">
        <ele>443.6</ele>
        <time>1970-01-01T00:00:00Z</time>
      </trkpt>
      <trkpt lat="39.814691" lon="-6.332432">
        <ele>444.1</ele>
        <time>1970-01-01T00:00:00Z</time>
      </trkpt>
      <trkpt lat="39.814842" lon="-6.332270">
        <ele>445.4</ele>
        <time>1970-01-01T00:00:00Z</time>
      </trkpt>
      <trkpt lat="39.815116" lon="-6.332187">
        <ele>447.8</ele>
        <time>1970-01-01T00:00:00Z</time>
      </trkpt>
      <trkpt lat="39.815138" lon="-6.332117">
        <ele>447.9</ele>
        <time>1970-01-01T00:00:00Z</time>
      </trkpt>
      <trkpt lat="39.815197" lon="-6.331412">
        <ele>446.6</ele>
        <time>1970-01-01T00:00:00Z</time>
      </trkpt>
      <trkpt lat="39.815266" lon="-6.331280">
        <ele>446.0</ele>
        <time>1970-01-01T00:00:00Z</time>
      </trkpt>
      <trkpt lat="39.815575" lon="-6.330877">
        <ele>445.1</ele>
        <time>1970-01-01T00:00:00Z</time>
      </trkpt>
      <trkpt lat="39.815635" lon="-6.330754">
        <ele>444.8</ele>
        <time>1970-01-01T00:00:00Z</time>
      </trkpt>
      <trkpt lat="39.815462" lon="-6.330687">
        <ele>443.8</ele>
        <time>1970-01-01T00:00:00Z</time>
      </trkpt>
      <trkpt lat="39.815499" lon="-6.330580">
        <ele>443.5</ele>
        <time>1970-01-01T00:00:00Z</time>
      </trkpt>
      <trkpt lat="39.815528" lon="-6.330429">
        <ele>443.4</ele>
        <time>1970-01-01T00:00:00Z</time>
      </trkpt>
      <trkpt lat="39.815526" lon="-6.330352">
        <ele>443.3</ele>
        <time>1970-01-01T00:00:00Z</time>
      </trkpt>
      <trkpt lat="39.815495" lon="-6.330265">
        <ele>442.8</ele>
        <time>1970-01-01T00:00:00Z</time>
      </trkpt>
      <trkpt lat="39.815512" lon="-6.330144">
        <ele>442.6</ele>
        <time>1970-01-01T00:00:00Z</time>
      </trkpt>
      <trkpt lat="39.815560" lon="-6.330010">
        <ele>443.2</ele>
        <time>1970-01-01T00:00:00Z</time>
      </trkpt>
      <trkpt lat="39.815577" lon="-6.329885">
        <ele>443.7</ele>
        <time>1970-01-01T00:00:00Z</time>
      </trkpt>
      <trkpt lat="39.815794" lon="-6.329168">
        <ele>445.0</ele>
        <time>1970-01-01T00:00:00Z</time>
      </trkpt>
      <trkpt lat="39.815828" lon="-6.328992">
        <ele>445.0</ele>
        <time>1970-01-01T00:00:00Z</time>
      </trkpt>
      <trkpt lat="39.815281" lon="-6.328105">
        <ele>438.6</ele>
        <time>1970-01-01T00:00:00Z</time>
      </trkpt>
      <trkpt lat="39.815195" lon="-6.327919">
        <ele>436.8</ele>
        <time>1970-01-01T00:00:00Z</time>
      </trkpt>
      <trkpt lat="39.815189" lon="-6.327741">
        <ele>435.6</ele>
        <time>1970-01-01T00:00:00Z</time>
      </trkpt>
      <trkpt lat="39.815254" lon="-6.327262">
        <ele>432.1</ele>
        <time>1970-01-01T00:00:00Z</time>
      </trkpt>
      <trkpt lat="39.815255" lon="-6.327021">
        <ele>431.3</ele>
        <time>1970-01-01T00:00:00Z</time>
      </trkpt>
      <trkpt lat="39.815219" lon="-6.326871">
        <ele>430.6</ele>
        <time>1970-01-01T00:00:00Z</time>
      </trkpt>
      <trkpt lat="39.815068" lon="-6.326560">
        <ele>427.9</ele>
        <time>1970-01-01T00:00:00Z</time>
      </trkpt>
      <trkpt lat="39.814853" lon="-6.326179">
        <ele>426.2</ele>
        <time>1970-01-01T00:00:00Z</time>
      </trkpt>
      <trkpt lat="39.814388" lon="-6.325459">
        <ele>422.3</ele>
        <time>1970-01-01T00:00:00Z</time>
      </trkpt>
      <trkpt lat="39.813836" lon="-6.324546">
        <ele>420.4</ele>
        <time>1970-01-01T00:00:00Z</time>
      </trkpt>
      <trkpt lat="39.813695" lon="-6.324287">
        <ele>420.2</ele>
        <time>1970-01-01T00:00:00Z</time>
      </trkpt>
      <trkpt lat="39.813609" lon="-6.324079">
        <ele>421.0</ele>
        <time>1970-01-01T00:00:00Z</time>
      </trkpt>
      <trkpt lat="39.813560" lon="-6.323791">
        <ele>421.5</ele>
        <time>1970-01-01T00:00:00Z</time>
      </trkpt>
      <trkpt lat="39.813654" lon="-6.323132">
        <ele>424.8</ele>
        <time>1970-01-01T00:00:00Z</time>
      </trkpt>
      <trkpt lat="39.813801" lon="-6.322575">
        <ele>427.8</ele>
        <time>1970-01-01T00:00:00Z</time>
      </trkpt>
      <trkpt lat="39.814029" lon="-6.321614">
        <ele>431.0</ele>
        <time>1970-01-01T00:00:00Z</time>
      </trkpt>
      <trkpt lat="39.814196" lon="-6.321066">
        <ele>430.1</ele>
        <time>1970-01-01T00:00:00Z</time>
      </trkpt>
      <trkpt lat="39.814454" lon="-6.320667">
        <ele>428.1</ele>
        <time>1970-01-01T00:00:00Z</time>
      </trkpt>
      <trkpt lat="39.814638" lon="-6.320409">
        <ele>428.0</ele>
        <time>1970-01-01T00:00:00Z</time>
      </trkpt>
      <trkpt lat="39.814694" lon="-6.320252">
        <ele>427.4</ele>
        <time>1970-01-01T00:00:00Z</time>
      </trkpt>
      <trkpt lat="39.814773" lon="-6.319592">
        <ele>425.5</ele>
        <time>1970-01-01T00:00:00Z</time>
      </trkpt>
      <trkpt lat="39.814781" lon="-6.319426">
        <ele>424.9</ele>
        <time>1970-01-01T00:00:00Z</time>
      </trkpt>
      <trkpt lat="39.814722" lon="-6.319174">
        <ele>424.2</ele>
        <time>1970-01-01T00:00:00Z</time>
      </trkpt>
      <trkpt lat="39.814508" lon="-6.318678">
        <ele>421.8</ele>
        <time>1970-01-01T00:00:00Z</time>
      </trkpt>
      <trkpt lat="39.814327" lon="-6.318295">
        <ele>421.0</ele>
        <time>1970-01-01T00:00:00Z</time>
      </trkpt>
      <trkpt lat="39.814255" lon="-6.318106">
        <ele>421.0</ele>
        <time>1970-01-01T00:00:00Z</time>
      </trkpt>
      <trkpt lat="39.814227" lon="-6.317882">
        <ele>421.0</ele>
        <time>1970-01-01T00:00:00Z</time>
      </trkpt>
      <trkpt lat="39.814234" lon="-6.317564">
        <ele>421.0</ele>
        <time>1970-01-01T00:00:00Z</time>
      </trkpt>
      <trkpt lat="39.814268" lon="-6.317146">
        <ele>421.0</ele>
        <time>1970-01-01T00:00:00Z</time>
      </trkpt>
      <trkpt lat="39.814439" lon="-6.315482">
        <ele>424.0</ele>
        <time>1970-01-01T00:00:00Z</time>
      </trkpt>
      <trkpt lat="39.814421" lon="-6.315225">
        <ele>423.6</ele>
        <time>1970-01-01T00:00:00Z</time>
      </trkpt>
      <trkpt lat="39.814341" lon="-6.314795">
        <ele>421.7</ele>
        <time>1970-01-01T00:00:00Z</time>
      </trkpt>
      <trkpt lat="39.813959" lon="-6.313482">
        <ele>411.0</ele>
        <time>1970-01-01T00:00:00Z</time>
      </trkpt>
      <trkpt lat="39.813900" lon="-6.313038">
        <ele>409.7</ele>
        <time>1970-01-01T00:00:00Z</time>
      </trkpt>
      <trkpt lat="39.813805" lon="-6.312147">
        <ele>409.9</ele>
        <time>1970-01-01T00:00:00Z</time>
      </trkpt>
      <trkpt lat="39.813773" lon="-6.311582">
        <ele>411.1</ele>
        <time>1970-01-01T00:00:00Z</time>
      </trkpt>
      <trkpt lat="39.813767" lon="-6.310280">
        <ele>407.1</ele>
        <time>1970-01-01T00:00:00Z</time>
      </trkpt>
      <trkpt lat="39.813686" lon="-6.309594">
        <ele>407.6</ele>
        <time>1970-01-01T00:00:00Z</time>
      </trkpt>
      <trkpt lat="39.813596" lon="-6.309141">
        <ele>408.0</ele>
        <time>1970-01-01T00:00:00Z</time>
      </trkpt>
      <trkpt lat="39.813521" lon="-6.308666">
        <ele>408.0</ele>
        <time>1970-01-01T00:00:00Z</time>
      </trkpt>
      <trkpt lat="39.813466" lon="-6.308208">
        <ele>409.7</ele>
        <time>1970-01-01T00:00:00Z</time>
      </trkpt>
      <trkpt lat="39.813452" lon="-6.307387">
        <ele>409.5</ele>
        <time>1970-01-01T00:00:00Z</time>
      </trkpt>
      <trkpt lat="39.813418" lon="-6.306466">
        <ele>408.5</ele>
        <time>1970-01-01T00:00:00Z</time>
      </trkpt>
      <trkpt lat="39.813427" lon="-6.305243">
        <ele>410.9</ele>
        <time>1970-01-01T00:00:00Z</time>
      </trkpt>
      <trkpt lat="39.813419" lon="-6.304130">
        <ele>409.1</ele>
        <time>1970-01-01T00:00:00Z</time>
      </trkpt>
      <trkpt lat="39.813437" lon="-6.303893">
        <ele>407.9</ele>
        <time>1970-01-01T00:00:00Z</time>
      </trkpt>
      <trkpt lat="39.813912" lon="-6.301387">
        <ele>406.3</ele>
        <time>1970-01-01T00:00:00Z</time>
      </trkpt>
      <trkpt lat="39.814087" lon="-6.300060">
        <ele>405.8</ele>
        <time>1970-01-01T00:00:00Z</time>
      </trkpt>
      <trkpt lat="39.814034" lon="-6.299698">
        <ele>404.9</ele>
        <time>1970-01-01T00:00:00Z</time>
      </trkpt>
      <trkpt lat="39.813334" lon="-6.297288">
        <ele>396.2</ele>
        <time>1970-01-01T00:00:00Z</time>
      </trkpt>
      <trkpt lat="39.813253" lon="-6.296820">
        <ele>397.6</ele>
        <time>1970-01-01T00:00:00Z</time>
      </trkpt>
      <trkpt lat="39.813233" lon="-6.296519">
        <ele>397.7</ele>
        <time>1970-01-01T00:00:00Z</time>
      </trkpt>
      <trkpt lat="39.813264" lon="-6.296109">
        <ele>397.7</ele>
        <time>1970-01-01T00:00:00Z</time>
      </trkpt>
      <trkpt lat="39.813360" lon="-6.295642">
        <ele>395.3</ele>
        <time>1970-01-01T00:00:00Z</time>
      </trkpt>
      <trkpt lat="39.813495" lon="-6.295226">
        <ele>394.8</ele>
        <time>1970-01-01T00:00:00Z</time>
      </trkpt>
      <trkpt lat="39.814384" lon="-6.293036">
        <ele>403.9</ele>
        <time>1970-01-01T00:00:00Z</time>
      </trkpt>
      <trkpt lat="39.814592" lon="-6.292464">
        <ele>406.6</ele>
        <time>1970-01-01T00:00:00Z</time>
      </trkpt>
      <trkpt lat="39.814715" lon="-6.292047">
        <ele>407.3</ele>
        <time>1970-01-01T00:00:00Z</time>
      </trkpt>
      <trkpt lat="39.814790" lon="-6.291735">
        <ele>407.9</ele>
        <time>1970-01-01T00:00:00Z</time>
      </trkpt>
      <trkpt lat="39.814932" lon="-6.290763">
        <ele>407.1</ele>
        <time>1970-01-01T00:00:00Z</time>
      </trkpt>
      <trkpt lat="39.814990" lon="-6.290235">
        <ele>406.1</ele>
        <time>1970-01-01T00:00:00Z</time>
      </trkpt>
      <trkpt lat="39.815032" lon="-6.289537">
        <ele>404.0</ele>
        <time>1970-01-01T00:00:00Z</time>
      </trkpt>
      <trkpt lat="39.815044" lon="-6.289025">
        <ele>404.6</ele>
        <time>1970-01-01T00:00:00Z</time>
      </trkpt>
      <trkpt lat="39.815020" lon="-6.287875">
        <ele>405.5</ele>
        <time>1970-01-01T00:00:00Z</time>
      </trkpt>
      <trkpt lat="39.815027" lon="-6.286596">
        <ele>402.4</ele>
        <time>1970-01-01T00:00:00Z</time>
      </trkpt>
      <trkpt lat="39.815152" lon="-6.284718">
        <ele>404.0</ele>
        <time>1970-01-01T00:00:00Z</time>
      </trkpt>
      <trkpt lat="39.815208" lon="-6.284038">
        <ele>403.5</ele>
        <time>1970-01-01T00:00:00Z</time>
      </trkpt>
      <trkpt lat="39.815272" lon="-6.282921">
        <ele>406.5</ele>
        <time>1970-01-01T00:00:00Z</time>
      </trkpt>
      <trkpt lat="39.815248" lon="-6.281815">
        <ele>409.4</ele>
        <time>1970-01-01T00:00:00Z</time>
      </trkpt>
      <trkpt lat="39.815257" lon="-6.281218">
        <ele>409.5</ele>
        <time>1970-01-01T00:00:00Z</time>
      </trkpt>
      <trkpt lat="39.815357" lon="-6.280192">
        <ele>408.8</ele>
        <time>1970-01-01T00:00:00Z</time>
      </trkpt>
      <trkpt lat="39.815401" lon="-6.279860">
        <ele>409.2</ele>
        <time>1970-01-01T00:00:00Z</time>
      </trkpt>
      <trkpt lat="39.815494" lon="-6.279498">
        <ele>409.5</ele>
        <time>1970-01-01T00:00:00Z</time>
      </trkpt>
      <trkpt lat="39.816338" lon="-6.276760">
        <ele>395.1</ele>
        <time>1970-01-01T00:00:00Z</time>
      </trkpt>
      <trkpt lat="39.817276" lon="-6.273812">
        <ele>384.7</ele>
        <time>1970-01-01T00:00:00Z</time>
      </trkpt>
      <trkpt lat="39.817331" lon="-6.273288">
        <ele>383.6</ele>
        <time>1970-01-01T00:00:00Z</time>
      </trkpt>
      <trkpt lat="39.817397" lon="-6.272801">
        <ele>383.3</ele>
        <time>1970-01-01T00:00:00Z</time>
      </trkpt>
      <trkpt lat="39.817708" lon="-6.271596">
        <ele>376.3</ele>
        <time>1970-01-01T00:00:00Z</time>
      </trkpt>
      <trkpt lat="39.817782" lon="-6.269567">
        <ele>370.8</ele>
        <time>1970-01-01T00:00:00Z</time>
      </trkpt>
      <trkpt lat="39.817780" lon="-6.269144">
        <ele>370.0</ele>
        <time>1970-01-01T00:00:00Z</time>
      </trkpt>
      <trkpt lat="39.817625" lon="-6.268762">
        <ele>368.2</ele>
        <time>1970-01-01T00:00:00Z</time>
      </trkpt>
      <trkpt lat="39.817538" lon="-6.268610">
        <ele>367.9</ele>
        <time>1970-01-01T00:00:00Z</time>
      </trkpt>
      <trkpt lat="39.817511" lon="-6.268427">
        <ele>366.3</ele>
        <time>1970-01-01T00:00:00Z</time>
      </trkpt>
      <trkpt lat="39.817499" lon="-6.268241">
        <ele>363.9</ele>
        <time>1970-01-01T00:00:00Z</time>
      </trkpt>
      <trkpt lat="39.817555" lon="-6.267676">
        <ele>356.2</ele>
        <time>1970-01-01T00:00:00Z</time>
      </trkpt>
      <trkpt lat="39.817497" lon="-6.267303">
        <ele>353.7</ele>
        <time>1970-01-01T00:00:00Z</time>
      </trkpt>
      <trkpt lat="39.817424" lon="-6.266973">
        <ele>353.7</ele>
        <time>1970-01-01T00:00:00Z</time>
      </trkpt>
      <trkpt lat="39.817337" lon="-6.266698">
        <ele>355.5</ele>
        <time>1970-01-01T00:00:00Z</time>
      </trkpt>
      <trkpt lat="39.817211" lon="-6.266521">
        <ele>357.2</ele>
        <time>1970-01-01T00:00:00Z</time>
      </trkpt>
      <trkpt lat="39.816847" lon="-6.265929">
        <ele>361.2</ele>
        <time>1970-01-01T00:00:00Z</time>
      </trkpt>
      <trkpt lat="39.816731" lon="-6.265664">
        <ele>361.9</ele>
        <time>1970-01-01T00:00:00Z</time>
      </trkpt>
      <trkpt lat="39.816702" lon="-6.265496">
        <ele>363.5</ele>
        <time>1970-01-01T00:00:00Z</time>
      </trkpt>
      <trkpt lat="39.816684" lon="-6.265298">
        <ele>365.6</ele>
        <time>1970-01-01T00:00:00Z</time>
      </trkpt>
      <trkpt lat="39.816700" lon="-6.264958">
        <ele>367.4</ele>
        <time>1970-01-01T00:00:00Z</time>
      </trkpt>
      <trkpt lat="39.816787" lon="-6.264202">
        <ele>370.4</ele>
        <time>1970-01-01T00:00:00Z</time>
      </trkpt>
      <trkpt lat="39.816899" lon="-6.263569">
        <ele>374.3</ele>
        <time>1970-01-01T00:00:00Z</time>
      </trkpt>
      <trkpt lat="39.817022" lon="-6.262971">
        <ele>375.3</ele>
        <time>1970-01-01T00:00:00Z</time>
      </trkpt>
      <trkpt lat="39.817121" lon="-6.262582">
        <ele>376.2</ele>
        <time>1970-01-01T00:00:00Z</time>
      </trkpt>
      <trkpt lat="39.817130" lon="-6.262379">
        <ele>376.1</ele>
        <time>1970-01-01T00:00:00Z</time>
      </trkpt>
      <trkpt lat="39.817072" lon="-6.262209">
        <ele>375.6</ele>
        <time>1970-01-01T00:00:00Z</time>
      </trkpt>
      <trkpt lat="39.816953" lon="-6.262066">
        <ele>374.8</ele>
        <time>1970-01-01T00:00:00Z</time>
      </trkpt>
      <trkpt lat="39.816812" lon="-6.261985">
        <ele>374.5</ele>
        <time>1970-01-01T00:00:00Z</time>
      </trkpt>
      <trkpt lat="39.816381" lon="-6.261857">
        <ele>374.9</ele>
        <time>1970-01-01T00:00:00Z</time>
      </trkpt>
      <trkpt lat="39.816247" lon="-6.261758">
        <ele>376.0</ele>
        <time>1970-01-01T00:00:00Z</time>
      </trkpt>
      <trkpt lat="39.815981" lon="-6.261523">
        <ele>379.5</ele>
        <time>1970-01-01T00:00:00Z</time>
      </trkpt>
      <trkpt lat="39.814270" lon="-6.259840">
        <ele>389.0</ele>
        <time>1970-01-01T00:00:00Z</time>
      </trkpt>
      <trkpt lat="39.814005" lon="-6.259601">
        <ele>388.8</ele>
        <time>1970-01-01T00:00:00Z</time>
      </trkpt>
      <trkpt lat="39.813689" lon="-6.259442">
        <ele>388.3</ele>
        <time>1970-01-01T00:00:00Z</time>
      </trkpt>
      <trkpt lat="39.813036" lon="-6.259159">
        <ele>388.6</ele>
        <time>1970-01-01T00:00:00Z</time>
      </trkpt>
      <trkpt lat="39.811280" lon="-6.258464">
        <ele>388.0</ele>
        <time>1970-01-01T00:00:00Z</time>
      </trkpt>
      <trkpt lat="39.808290" lon="-6.257310">
        <ele>371.1</ele>
        <time>1970-01-01T00:00:00Z</time>
      </trkpt>
      <trkpt lat="39.804257" lon="-6.255716">
        <ele>363.4</ele>
        <time>1970-01-01T00:00:00Z</time>
      </trkpt>
      <trkpt lat="39.802986" lon="-6.255235">
        <ele>356.9</ele>
        <time>1970-01-01T00:00:00Z</time>
      </trkpt>
      <trkpt lat="39.800335" lon="-6.254171">
        <ele>351.9</ele>
        <time>1970-01-01T00:00:00Z</time>
      </trkpt>
      <trkpt lat="39.800090" lon="-6.254046">
        <ele>350.3</ele>
        <time>1970-01-01T00:00:00Z</time>
      </trkpt>
      <trkpt lat="39.799953" lon="-6.253911">
        <ele>350.0</ele>
        <time>1970-01-01T00:00:00Z</time>
      </trkpt>
      <trkpt lat="39.799844" lon="-6.253723">
        <ele>349.8</ele>
        <time>1970-01-01T00:00:00Z</time>
      </trkpt>
      <trkpt lat="39.799038" lon="-6.251752">
        <ele>342.7</ele>
        <time>1970-01-01T00:00:00Z</time>
      </trkpt>
      <trkpt lat="39.798921" lon="-6.251430">
        <ele>340.9</ele>
        <time>1970-01-01T00:00:00Z</time>
      </trkpt>
      <trkpt lat="39.798866" lon="-6.251210">
        <ele>340.7</ele>
        <time>1970-01-01T00:00:00Z</time>
      </trkpt>
      <trkpt lat="39.798832" lon="-6.250912">
        <ele>340.6</ele>
        <time>1970-01-01T00:00:00Z</time>
      </trkpt>
      <trkpt lat="39.798824" lon="-6.249833">
        <ele>342.9</ele>
        <time>1970-01-01T00:00:00Z</time>
      </trkpt>
      <trkpt lat="39.798836" lon="-6.249404">
        <ele>344.8</ele>
        <time>1970-01-01T00:00:00Z</time>
      </trkpt>
      <trkpt lat="39.799138" lon="-6.247070">
        <ele>345.0</ele>
        <time>1970-01-01T00:00:00Z</time>
      </trkpt>
      <trkpt lat="39.799275" lon="-6.245870">
        <ele>346.4</ele>
        <time>1970-01-01T00:00:00Z</time>
      </trkpt>
      <trkpt lat="39.799431" lon="-6.243836">
        <ele>352.9</ele>
        <time>1970-01-01T00:00:00Z</time>
      </trkpt>
      <trkpt lat="39.799447" lon="-6.243268">
        <ele>354.0</ele>
        <time>1970-01-01T00:00:00Z</time>
      </trkpt>
      <trkpt lat="39.799669" lon="-6.239551">
        <ele>361.1</ele>
        <time>1970-01-01T00:00:00Z</time>
      </trkpt>
      <trkpt lat="39.800249" lon="-6.237616">
        <ele>358.7</ele>
        <time>1970-01-01T00:00:00Z</time>
      </trkpt>
      <trkpt lat="39.800867" lon="-6.235297">
        <ele>351.0</ele>
        <time>1970-01-01T00:00:00Z</time>
      </trkpt>
      <trkpt lat="39.800952" lon="-6.234861">
        <ele>348.3</ele>
        <time>1970-01-01T00:00:00Z</time>
      </trkpt>
      <trkpt lat="39.801040" lon="-6.234306">
        <ele>346.0</ele>
        <time>1970-01-01T00:00:00Z</time>
      </trkpt>
      <trkpt lat="39.801318" lon="-6.232134">
        <ele>347.4</ele>
        <time>1970-01-01T00:00:00Z</time>
      </trkpt>
      <trkpt lat="39.801590" lon="-6.228108">
        <ele>351.7</ele>
        <time>1970-01-01T00:00:00Z</time>
      </trkpt>
      <trkpt lat="39.801709" lon="-6.224361">
        <ele>344.8</ele>
        <time>1970-01-01T00:00:00Z</time>
      </trkpt>
      <trkpt lat="39.801803" lon="-6.220712">
        <ele>352.7</ele>
        <time>1970-01-01T00:00:00Z</time>
      </trkpt>
      <trkpt lat="39.801995" lon="-6.219011">
        <ele>352.2</ele>
        <time>1970-01-01T00:00:00Z</time>
      </trkpt>
      <trkpt lat="39.802075" lon="-6.218614">
        <ele>352.1</ele>
        <time>1970-01-01T00:00:00Z</time>
      </trkpt>
      <trkpt lat="39.802297" lon="-6.217907">
        <ele>350.2</ele>
        <time>1970-01-01T00:00:00Z</time>
      </trkpt>
      <trkpt lat="39.802416" lon="-6.217582">
        <ele>350.0</ele>
        <time>1970-01-01T00:00:00Z</time>
      </trkpt>
      <trkpt lat="39.802518" lon="-6.217364">
        <ele>350.4</ele>
        <time>1970-01-01T00:00:00Z</time>
      </trkpt>
      <trkpt lat="39.803050" lon="-6.216593">
        <ele>351.8</ele>
        <time>1970-01-01T00:00:00Z</time>
      </trkpt>
      <trkpt lat="39.803219" lon="-6.216279">
        <ele>352.9</ele>
        <time>1970-01-01T00:00:00Z</time>
      </trkpt>
      <trkpt lat="39.804254" lon="-6.214029">
        <ele>359.0</ele>
        <time>1970-01-01T00:00:00Z</time>
      </trkpt>
      <trkpt lat="39.804634" lon="-6.213236">
        <ele>361.0</ele>
        <time>1970-01-01T00:00:00Z</time>
      </trkpt>
      <trkpt lat="39.805207" lon="-6.212115">
        <ele>364.8</ele>
        <time>1970-01-01T00:00:00Z</time>
      </trkpt>
      <trkpt lat="39.807261" lon="-6.208562">
        <ele>360.8</ele>
        <time>1970-01-01T00:00:00Z</time>
      </trkpt>
      <trkpt lat="39.810831" lon="-6.202330">
        <ele>358.6</ele>
        <time>1970-01-01T00:00:00Z</time>
      </trkpt>
      <trkpt lat="39.811212" lon="-6.201102">
        <ele>360.4</ele>
        <time>1970-01-01T00:00:00Z</time>
      </trkpt>
      <trkpt lat="39.812078" lon="-6.198477">
        <ele>370.0</ele>
        <time>1970-01-01T00:00:00Z</time>
      </trkpt>
      <trkpt lat="39.812679" lon="-6.196710">
        <ele>368.3</ele>
        <time>1970-01-01T00:00:00Z</time>
      </trkpt>
      <trkpt lat="39.813186" lon="-6.195082">
        <ele>358.5</ele>
        <time>1970-01-01T00:00:00Z</time>
      </trkpt>
      <trkpt lat="39.813780" lon="-6.193013">
        <ele>354.2</ele>
        <time>1970-01-01T00:00:00Z</time>
      </trkpt>
      <trkpt lat="39.813926" lon="-6.192432">
        <ele>355.5</ele>
        <time>1970-01-01T00:00:00Z</time>
      </trkpt>
      <trkpt lat="39.814051" lon="-6.191775">
        <ele>354.8</ele>
        <time>1970-01-01T00:00:00Z</time>
      </trkpt>
      <trkpt lat="39.814016" lon="-6.191254">
        <ele>354.2</ele>
        <time>1970-01-01T00:00:00Z</time>
      </trkpt>
      <trkpt lat="39.813917" lon="-6.190265">
        <ele>354.4</ele>
        <time>1970-01-01T00:00:00Z</time>
      </trkpt>
      <trkpt lat="39.813648" lon="-6.187706">
        <ele>352.5</ele>
        <time>1970-01-01T00:00:00Z</time>
      </trkpt>
      <trkpt lat="39.813519" lon="-6.186707">
        <ele>352.6</ele>
        <time>1970-01-01T00:00:00Z</time>
      </trkpt>
      <trkpt lat="39.813462" lon="-6.186135">
        <ele>353.1</ele>
        <time>1970-01-01T00:00:00Z</time>
      </trkpt>
      <trkpt lat="39.813456" lon="-6.185829">
        <ele>354.4</ele>
        <time>1970-01-01T00:00:00Z</time>
      </trkpt>
      <trkpt lat="39.813526" lon="-6.185347">
        <ele>356.5</ele>
        <time>1970-01-01T00:00:00Z</time>
      </trkpt>
      <trkpt lat="39.814043" lon="-6.182479">
        <ele>365.0</ele>
        <time>1970-01-01T00:00:00Z</time>
      </trkpt>
      <trkpt lat="39.814203" lon="-6.181818">
        <ele>365.0</ele>
        <time>1970-01-01T00:00:00Z</time>
      </trkpt>
      <trkpt lat="39.814389" lon="-6.181130">
        <ele>366.0</ele>
        <time>1970-01-01T00:00:00Z</time>
      </trkpt>
      <trkpt lat="39.814564" lon="-6.180594">
        <ele>365.5</ele>
        <time>1970-01-01T00:00:00Z</time>
      </trkpt>
      <trkpt lat="39.815218" lon="-6.178874">
        <ele>364.0</ele>
        <time>1970-01-01T00:00:00Z</time>
      </trkpt>
      <trkpt lat="39.815300" lon="-6.178492">
        <ele>364.0</ele>
        <time>1970-01-01T00:00:00Z</time>
      </trkpt>
      <trkpt lat="39.815270" lon="-6.177788">
        <ele>360.4</ele>
        <time>1970-01-01T00:00:00Z</time>
      </trkpt>
      <trkpt lat="39.814989" lon="-6.175679">
        <ele>362.2</ele>
        <time>1970-01-01T00:00:00Z</time>
      </trkpt>
      <trkpt lat="39.814978" lon="-6.175377">
        <ele>363.1</ele>
        <time>1970-01-01T00:00:00Z</time>
      </trkpt>
      <trkpt lat="39.815004" lon="-6.174977">
        <ele>364.7</ele>
        <time>1970-01-01T00:00:00Z</time>
      </trkpt>
      <trkpt lat="39.815068" lon="-6.174446">
        <ele>366.8</ele>
        <time>1970-01-01T00:00:00Z</time>
      </trkpt>
      <trkpt lat="39.815133" lon="-6.174162">
        <ele>367.1</ele>
        <time>1970-01-01T00:00:00Z</time>
      </trkpt>
      <trkpt lat="39.816499" lon="-6.170927">
        <ele>357.5</ele>
        <time>1970-01-01T00:00:00Z</time>
      </trkpt>
      <trkpt lat="39.816970" lon="-6.169895">
        <ele>361.8</ele>
        <time>1970-01-01T00:00:00Z</time>
      </trkpt>
      <trkpt lat="39.817826" lon="-6.168407">
        <ele>354.2</ele>
        <time>1970-01-01T00:00:00Z</time>
      </trkpt>
      <trkpt lat="39.818051" lon="-6.167982">
        <ele>351.2</ele>
        <time>1970-01-01T00:00:00Z</time>
      </trkpt>
      <trkpt lat="39.818386" lon="-6.167186">
        <ele>350.0</ele>
        <time>1970-01-01T00:00:00Z</time>
      </trkpt>
      <trkpt lat="39.818499" lon="-6.166806">
        <ele>352.9</ele>
        <time>1970-01-01T00:00:00Z</time>
      </trkpt>
      <trkpt lat="39.818689" lon="-6.166014">
        <ele>361.6</ele>
        <time>1970-01-01T00:00:00Z</time>
      </trkpt>
      <trkpt lat="39.818777" lon="-6.165731">
        <ele>364.8</ele>
        <time>1970-01-01T00:00:00Z</time>
      </trkpt>
      <trkpt lat="39.819280" lon="-6.164617">
        <ele>368.8</ele>
        <time>1970-01-01T00:00:00Z</time>
      </trkpt>
      <trkpt lat="39.819484" lon="-6.164131">
        <ele>367.7</ele>
        <time>1970-01-01T00:00:00Z</time>
      </trkpt>
      <trkpt lat="39.819612" lon="-6.163771">
        <ele>367.8</ele>
        <time>1970-01-01T00:00:00Z</time>
      </trkpt>
      <trkpt lat="39.819716" lon="-6.163435">
        <ele>368.5</ele>
        <time>1970-01-01T00:00:00Z</time>
      </trkpt>
      <trkpt lat="39.819765" lon="-6.163180">
        <ele>368.9</ele>
        <time>1970-01-01T00:00:00Z</time>
      </trkpt>
      <trkpt lat="39.819835" lon="-6.162575">
        <ele>371.1</ele>
        <time>1970-01-01T00:00:00Z</time>
      </trkpt>
      <trkpt lat="39.819914" lon="-6.162341">
        <ele>371.9</ele>
        <time>1970-01-01T00:00:00Z</time>
      </trkpt>
      <trkpt lat="39.820102" lon="-6.161865">
        <ele>372.5</ele>
        <time>1970-01-01T00:00:00Z</time>
      </trkpt>
      <trkpt lat="39.820518" lon="-6.161148">
        <ele>370.8</ele>
        <time>1970-01-01T00:00:00Z</time>
      </trkpt>
      <trkpt lat="39.820600" lon="-6.160944">
        <ele>370.4</ele>
        <time>1970-01-01T00:00:00Z</time>
      </trkpt>
      <trkpt lat="39.820710" lon="-6.160424">
        <ele>372.1</ele>
        <time>1970-01-01T00:00:00Z</time>
      </trkpt>
      <trkpt lat="39.820897" lon="-6.159137">
        <ele>379.7</ele>
        <time>1970-01-01T00:00:00Z</time>
      </trkpt>
      <trkpt lat="39.821071" lon="-6.158062">
        <ele>385.9</ele>
        <time>1970-01-01T00:00:00Z</time>
      </trkpt>
      <trkpt lat="39.821177" lon="-6.157558">
        <ele>388.5</ele>
        <time>1970-01-01T00:00:00Z</time>
      </trkpt>
      <trkpt lat="39.821344" lon="-6.156888">
        <ele>392.5</ele>
        <time>1970-01-01T00:00:00Z</time>
      </trkpt>
      <trkpt lat="39.821434" lon="-6.156660">
        <ele>394.6</ele>
        <time>1970-01-01T00:00:00Z</time>
      </trkpt>
      <trkpt lat="39.822804" lon="-6.154507">
        <ele>393.9</ele>
        <time>1970-01-01T00:00:00Z</time>
      </trkpt>
      <trkpt lat="39.823323" lon="-6.153230">
        <ele>391.5</ele>
        <time>1970-01-01T00:00:00Z</time>
      </trkpt>
      <trkpt lat="39.823444" lon="-6.152870">
        <ele>389.3</ele>
        <time>1970-01-01T00:00:00Z</time>
      </trkpt>
      <trkpt lat="39.823515" lon="-6.152487">
        <ele>386.4</ele>
        <time>1970-01-01T00:00:00Z</time>
      </trkpt>
      <trkpt lat="39.823549" lon="-6.152068">
        <ele>384.8</ele>
        <time>1970-01-01T00:00:00Z</time>
      </trkpt>
      <trkpt lat="39.823564" lon="-6.151649">
        <ele>383.4</ele>
        <time>1970-01-01T00:00:00Z</time>
      </trkpt>
      <trkpt lat="39.823508" lon="-6.150647">
        <ele>386.6</ele>
        <time>1970-01-01T00:00:00Z</time>
      </trkpt>
      <trkpt lat="39.823673" lon="-6.149913">
        <ele>388.1</ele>
        <time>1970-01-01T00:00:00Z</time>
      </trkpt>
      <trkpt lat="39.823864" lon="-6.149180">
        <ele>388.3</ele>
        <time>1970-01-01T00:00:00Z</time>
      </trkpt>
      <trkpt lat="39.824059" lon="-6.148605">
        <ele>387.6</ele>
        <time>1970-01-01T00:00:00Z</time>
      </trkpt>
      <trkpt lat="39.824431" lon="-6.147668">
        <ele>389.1</ele>
        <time>1970-01-01T00:00:00Z</time>
      </trkpt>
      <trkpt lat="39.824991" lon="-6.146180">
        <ele>389.2</ele>
        <time>1970-01-01T00:00:00Z</time>
      </trkpt>
      <trkpt lat="39.825074" lon="-6.145917">
        <ele>388.9</ele>
        <time>1970-01-01T00:00:00Z</time>
      </trkpt>
      <trkpt lat="39.825346" lon="-6.144886">
        <ele>389.1</ele>
        <time>1970-01-01T00:00:00Z</time>
      </trkpt>
      <trkpt lat="39.825351" lon="-6.144693">
        <ele>389.3</ele>
        <time>1970-01-01T00:00:00Z</time>
      </trkpt>
      <trkpt lat="39.825448" lon="-6.144643">
        <ele>390.3</ele>
        <time>1970-01-01T00:00:00Z</time>
      </trkpt>
    </trkseg>
    <trkseg>
      <trkpt lat="39.825448" lon="-6.144643">
        <ele>390.3</ele>
        <time>1970-01-01T00:00:00Z</time>
      </trkpt>
      <trkpt lat="39.825516" lon="-6.144592">
        <ele>391.1</ele>
        <time>1970-01-01T00:00:00Z</time>
      </trkpt>
      <trkpt lat="39.827582" lon="-6.143932">
        <ele>402.1</ele>
        <time>1970-01-01T00:00:00Z</time>
      </trkpt>
      <trkpt lat="39.827543" lon="-6.143284">
        <ele>402.4</ele>
        <time>1970-01-01T00:00:00Z</time>
      </trkpt>
      <trkpt lat="39.828746" lon="-6.141664">
        <ele>407.5</ele>
        <time>1970-01-01T00:00:00Z</time>
      </trkpt>
      <trkpt lat="39.828940" lon="-6.141259">
        <ele>408.2</ele>
        <time>1970-01-01T00:00:00Z</time>
      </trkpt>
      <trkpt lat="39.829100" lon="-6.141080">
        <ele>409.6</ele>
        <time>1970-01-01T00:00:00Z</time>
      </trkpt>
      <trkpt lat="39.829392" lon="-6.140009">
        <ele>412.1</ele>
        <time>1970-01-01T00:00:00Z</time>
      </trkpt>
      <trkpt lat="39.829451" lon="-6.139877">
        <ele>412.6</ele>
        <time>1970-01-01T00:00:00Z</time>
      </trkpt>
      <trkpt lat="39.829666" lon="-6.139783">
        <ele>413.4</ele>
        <time>1970-01-01T00:00:00Z</time>
      </trkpt>
      <trkpt lat="39.829735" lon="-6.139622">
        <ele>413.0</ele>
        <time>1970-01-01T00:00:00Z</time>
      </trkpt>
      <trkpt lat="39.829773" lon="-6.139320">
        <ele>411.5</ele>
        <time>1970-01-01T00:00:00Z</time>
      </trkpt>
      <trkpt lat="39.829819" lon="-6.139194">
        <ele>410.3</ele>
        <time>1970-01-01T00:00:00Z</time>
      </trkpt>
      <trkpt lat="39.829958" lon="-6.139170">
        <ele>410.1</ele>
        <time>1970-01-01T00:00:00Z</time>
      </trkpt>
      <trkpt lat="39.829986" lon="-6.139067">
        <ele>409.1</ele>
        <time>1970-01-01T00:00:00Z</time>
      </trkpt>
      <trkpt lat="39.830057" lon="-6.138960">
        <ele>407.8</ele>
        <time>1970-01-01T00:00:00Z</time>
      </trkpt>
      <trkpt lat="39.830007" lon="-6.138717">
        <ele>405.9</ele>
        <time>1970-01-01T00:00:00Z</time>
      </trkpt>
      <trkpt lat="39.829872" lon="-6.138286">
        <ele>401.8</ele>
        <time>1970-01-01T00:00:00Z</time>
      </trkpt>
      <trkpt lat="39.829856" lon="-6.138052">
        <ele>399.9</ele>
        <time>1970-01-01T00:00:00Z</time>
      </trkpt>
      <trkpt lat="39.830319" lon="-6.138073">
        <ele>398.0</ele>
        <time>1970-01-01T00:00:00Z</time>
      </trkpt>
      <trkpt lat="39.830484" lon="-6.137999">
        <ele>396.7</ele>
        <time>1970-01-01T00:00:00Z</time>
      </trkpt>
      <trkpt lat="39.830582" lon="-6.137884">
        <ele>395.3</ele>
        <time>1970-01-01T00:00:00Z</time>
      </trkpt>
      <trkpt lat="39.830668" lon="-6.137584">
        <ele>392.4</ele>
        <time>1970-01-01T00:00:00Z</time>
      </trkpt>
      <trkpt lat="39.830709" lon="-6.137065">
        <ele>388.1</ele>
        <time>1970-01-01T00:00:00Z</time>
      </trkpt>
      <trkpt lat="39.830712" lon="-6.136595">
        <ele>385.3</ele>
        <time>1970-01-01T00:00:00Z</time>
      </trkpt>
      <trkpt lat="39.830991" lon="-6.136231">
        <ele>386.3</ele>
        <time>1970-01-01T00:00:00Z</time>
      </trkpt>
      <trkpt lat="39.831248" lon="-6.135963">
        <ele>388.9</ele>
        <time>1970-01-01T00:00:00Z</time>
      </trkpt>
      <trkpt lat="39.831506" lon="-6.135663">
        <ele>392.4</ele>
        <time>1970-01-01T00:00:00Z</time>
      </trkpt>
      <trkpt lat="39.831686" lon="-6.135513">
        <ele>394.4</ele>
        <time>1970-01-01T00:00:00Z</time>
      </trkpt>
      <trkpt lat="39.831853" lon="-6.135382">
        <ele>396.1</ele>
        <time>1970-01-01T00:00:00Z</time>
      </trkpt>
      <trkpt lat="39.831994" lon="-6.135307">
        <ele>397.4</ele>
        <time>1970-01-01T00:00:00Z</time>
      </trkpt>
      <trkpt lat="39.832387" lon="-6.135159">
        <ele>401.0</ele>
        <time>1970-01-01T00:00:00Z</time>
      </trkpt>
      <trkpt lat="39.832633" lon="-6.134958">
        <ele>403.1</ele>
        <time>1970-01-01T00:00:00Z</time>
      </trkpt>
      <trkpt lat="39.832785" lon="-6.134927">
        <ele>404.4</ele>
        <time>1970-01-01T00:00:00Z</time>
      </trkpt>
      <trkpt lat="39.832897" lon="-6.134870">
        <ele>405.4</ele>
        <time>1970-01-01T00:00:00Z</time>
      </trkpt>
      <trkpt lat="39.833100" lon="-6.134692">
        <ele>408.1</ele>
        <time>1970-01-01T00:00:00Z</time>
      </trkpt>
      <trkpt lat="39.833185" lon="-6.134649">
        <ele>409.3</ele>
        <time>1970-01-01T00:00:00Z</time>
      </trkpt>
      <trkpt lat="39.833253" lon="-6.134585">
        <ele>410.3</ele>
        <time>1970-01-01T00:00:00Z</time>
      </trkpt>
      <trkpt lat="39.833350" lon="-6.134466">
        <ele>412.2</ele>
        <time>1970-01-01T00:00:00Z</time>
      </trkpt>
      <trkpt lat="39.833468" lon="-6.134271">
        <ele>414.5</ele>
        <time>1970-01-01T00:00:00Z</time>
      </trkpt>
      <trkpt lat="39.833699" lon="-6.133950">
        <ele>419.3</ele>
        <time>1970-01-01T00:00:00Z</time>
      </trkpt>
      <trkpt lat="39.833803" lon="-6.133846">
        <ele>421.6</ele>
        <time>1970-01-01T00:00:00Z</time>
      </trkpt>
      <trkpt lat="39.833922" lon="-6.133624">
        <ele>423.8</ele>
        <time>1970-01-01T00:00:00Z</time>
      </trkpt>
      <trkpt lat="39.834205" lon="-6.133503">
        <ele>429.6</ele>
        <time>1970-01-01T00:00:00Z</time>
      </trkpt>
      <trkpt lat="39.834456" lon="-6.133275">
        <ele>433.8</ele>
        <time>1970-01-01T00:00:00Z</time>
      </trkpt>
      <trkpt lat="39.835136" lon="-6.132504">
        <ele>457.2</ele>
        <time>1970-01-01T00:00:00Z</time>
      </trkpt>
      <trkpt lat="39.835613" lon="-6.131873">
        <ele>474.4</ele>
        <time>1970-01-01T00:00:00Z</time>
      </trkpt>
      <trkpt lat="39.835587" lon="-6.131612">
        <ele>471.2</ele>
        <time>1970-01-01T00:00:00Z</time>
      </trkpt>
      <trkpt lat="39.835824" lon="-6.130903">
        <ele>475.7</ele>
        <time>1970-01-01T00:00:00Z</time>
      </trkpt>
      <trkpt lat="39.836003" lon="-6.130704">
        <ele>482.0</ele>
        <time>1970-01-01T00:00:00Z</time>
      </trkpt>
      <trkpt lat="39.836086" lon="-6.130584">
        <ele>484.6</ele>
        <time>1970-01-01T00:00:00Z</time>
      </trkpt>
      <trkpt lat="39.836084" lon="-6.130386">
        <ele>483.1</ele>
        <time>1970-01-01T00:00:00Z</time>
      </trkpt>
      <trkpt lat="39.836050" lon="-6.130162">
        <ele>479.6</ele>
        <time>1970-01-01T00:00:00Z</time>
      </trkpt>
      <trkpt lat="39.836053" lon="-6.129689">
        <ele>477.0</ele>
        <time>1970-01-01T00:00:00Z</time>
      </trkpt>
      <trkpt lat="39.836073" lon="-6.129530">
        <ele>477.9</ele>
        <time>1970-01-01T00:00:00Z</time>
      </trkpt>
      <trkpt lat="39.836286" lon="-6.128746">
        <ele>492.0</ele>
        <time>1970-01-01T00:00:00Z</time>
      </trkpt>
      <trkpt lat="39.836252" lon="-6.128613">
        <ele>490.7</ele>
        <time>1970-01-01T00:00:00Z</time>
      </trkpt>
      <trkpt lat="39.836256" lon="-6.128467">
        <ele>491.6</ele>
        <time>1970-01-01T00:00:00Z</time>
      </trkpt>
      <trkpt lat="39.836244" lon="-6.128328">
        <ele>491.6</ele>
        <time>1970-01-01T00:00:00Z</time>
      </trkpt>
      <trkpt lat="39.836261" lon="-6.128272">
        <ele>492.7</ele>
        <time>1970-01-01T00:00:00Z</time>
      </trkpt>
      <trkpt lat="39.836257" lon="-6.128195">
        <ele>493.2</ele>
        <time>1970-01-01T00:00:00Z</time>
      </trkpt>
      <trkpt lat="39.836273" lon="-6.128043">
        <ele>495.3</ele>
        <time>1970-01-01T00:00:00Z</time>
      </trkpt>
      <trkpt lat="39.836329" lon="-6.127733">
        <ele>499.8</ele>
        <time>1970-01-01T00:00:00Z</time>
      </trkpt>
      <trkpt lat="39.836324" lon="-6.127619">
        <ele>499.9</ele>
        <time>1970-01-01T00:00:00Z</time>
      </trkpt>
      <trkpt lat="39.836355" lon="-6.127272">
        <ele>501.5</ele>
        <time>1970-01-01T00:00:00Z</time>
      </trkpt>
      <trkpt lat="39.836396" lon="-6.127207">
        <ele>503.7</ele>
        <time>1970-01-01T00:00:00Z</time>
      </trkpt>
      <trkpt lat="39.836560" lon="-6.126653">
        <ele>511.6</ele>
        <time>1970-01-01T00:00:00Z</time>
      </trkpt>
      <trkpt lat="39.836626" lon="-6.126345">
        <ele>514.2</ele>
        <time>1970-01-01T00:00:00Z</time>
      </trkpt>
      <trkpt lat="39.836694" lon="-6.125868">
        <ele>516.4</ele>
        <time>1970-01-01T00:00:00Z</time>
      </trkpt>
      <trkpt lat="39.836749" lon="-6.125710">
        <ele>518.3</ele>
        <time>1970-01-01T00:00:00Z</time>
      </trkpt>
      <trkpt lat="39.836808" lon="-6.125445">
        <ele>520.6</ele>
        <time>1970-01-01T00:00:00Z</time>
      </trkpt>
      <trkpt lat="39.836828" lon="-6.125184">
        <ele>520.5</ele>
        <time>1970-01-01T00:00:00Z</time>
      </trkpt>
      <trkpt lat="39.836970" lon="-6.124731">
        <ele>524.9</ele>
        <time>1970-01-01T00:00:00Z</time>
      </trkpt>
      <trkpt lat="39.836992" lon="-6.124714">
        <ele>525.6</ele>
        <time>1970-01-01T00:00:00Z</time>
      </trkpt>
      <trkpt lat="39.836985" lon="-6.124669">
        <ele>525.2</ele>
        <time>1970-01-01T00:00:00Z</time>
      </trkpt>
      <trkpt lat="39.837015" lon="-6.124569">
        <ele>525.8</ele>
        <time>1970-01-01T00:00:00Z</time>
      </trkpt>
      <trkpt lat="39.837002" lon="-6.124482">
        <ele>525.2</ele>
        <time>1970-01-01T00:00:00Z</time>
      </trkpt>
      <trkpt lat="39.837011" lon="-6.124416">
        <ele>525.4</ele>
        <time>1970-01-01T00:00:00Z</time>
      </trkpt>
      <trkpt lat="39.837038" lon="-6.124274">
        <ele>526.0</ele>
        <time>1970-01-01T00:00:00Z</time>
      </trkpt>
      <trkpt lat="39.837071" lon="-6.124196">
        <ele>527.0</ele>
        <time>1970-01-01T00:00:00Z</time>
      </trkpt>
      <trkpt lat="39.837161" lon="-6.123755">
        <ele>529.2</ele>
        <time>1970-01-01T00:00:00Z</time>
      </trkpt>
      <trkpt lat="39.837174" lon="-6.123605">
        <ele>529.4</ele>
        <time>1970-01-01T00:00:00Z</time>
      </trkpt>
      <trkpt lat="39.837197" lon="-6.123541">
        <ele>530.3</ele>
        <time>1970-01-01T00:00:00Z</time>
      </trkpt>
      <trkpt lat="39.837165" lon="-6.123466">
        <ele>529.7</ele>
        <time>1970-01-01T00:00:00Z</time>
      </trkpt>
      <trkpt lat="39.837217" lon="-6.123154">
        <ele>531.4</ele>
        <time>1970-01-01T00:00:00Z</time>
      </trkpt>
      <trkpt lat="39.837224" lon="-6.123043">
        <ele>531.4</ele>
        <time>1970-01-01T00:00:00Z</time>
      </trkpt>
      <trkpt lat="39.837307" lon="-6.122794">
        <ele>532.7</ele>
        <time>1970-01-01T00:00:00Z</time>
      </trkpt>
      <trkpt lat="39.837291" lon="-6.122722">
        <ele>532.0</ele>
        <time>1970-01-01T00:00:00Z</time>
      </trkpt>
      <trkpt lat="39.837317" lon="-6.122411">
        <ele>531.6</ele>
        <time>1970-01-01T00:00:00Z</time>
      </trkpt>
      <trkpt lat="39.837354" lon="-6.122102">
        <ele>531.9</ele>
        <time>1970-01-01T00:00:00Z</time>
      </trkpt>
      <trkpt lat="39.837418" lon="-6.121855">
        <ele>532.5</ele>
        <time>1970-01-01T00:00:00Z</time>
      </trkpt>
      <trkpt lat="39.837455" lon="-6.121829">
        <ele>533.4</ele>
        <time>1970-01-01T00:00:00Z</time>
      </trkpt>
      <trkpt lat="39.837489" lon="-6.121853">
        <ele>534.4</ele>
        <time>1970-01-01T00:00:00Z</time>
      </trkpt>
      <trkpt lat="39.837501" lon="-6.121950">
        <ele>535.1</ele>
        <time>1970-01-01T00:00:00Z</time>
      </trkpt>
      <trkpt lat="39.837557" lon="-6.122133">
        <ele>537.0</ele>
        <time>1970-01-01T00:00:00Z</time>
      </trkpt>
      <trkpt lat="39.837560" lon="-6.122242">
        <ele>537.1</ele>
        <time>1970-01-01T00:00:00Z</time>
      </trkpt>
      <trkpt lat="39.837586" lon="-6.122332">
        <ele>538.0</ele>
        <time>1970-01-01T00:00:00Z</time>
      </trkpt>
      <trkpt lat="39.837640" lon="-6.122379">
        <ele>539.4</ele>
        <time>1970-01-01T00:00:00Z</time>
      </trkpt>
      <trkpt lat="39.837739" lon="-6.122403">
        <ele>541.6</ele>
        <time>1970-01-01T00:00:00Z</time>
      </trkpt>
      <trkpt lat="39.837991" lon="-6.122242">
        <ele>543.6</ele>
        <time>1970-01-01T00:00:00Z</time>
      </trkpt>
      <trkpt lat="39.838239" lon="-6.122238">
        <ele>543.1</ele>
        <time>1970-01-01T00:00:00Z</time>
      </trkpt>
      <trkpt lat="39.838365" lon="-6.122170">
        <ele>541.8</ele>
        <time>1970-01-01T00:00:00Z</time>
      </trkpt>
      <trkpt lat="39.838480" lon="-6.121979">
        <ele>540.4</ele>
        <time>1970-01-01T00:00:00Z</time>
      </trkpt>
      <trkpt lat="39.838594" lon="-6.121849">
        <ele>538.8</ele>
        <time>1970-01-01T00:00:00Z</time>
      </trkpt>
      <trkpt lat="39.838959" lon="-6.121341">
        <ele>530.6</ele>
        <time>1970-01-01T00:00:00Z</time>
      </trkpt>
      <trkpt lat="39.839031" lon="-6.121159">
        <ele>528.7</ele>
        <time>1970-01-01T00:00:00Z</time>
      </trkpt>
      <trkpt lat="39.839144" lon="-6.120996">
        <ele>525.8</ele>
        <time>1970-01-01T00:00:00Z</time>
      </trkpt>
      <trkpt lat="39.839187" lon="-6.120867">
        <ele>525.0</ele>
        <time>1970-01-01T00:00:00Z</time>
      </trkpt>
      <trkpt lat="39.839317" lon="-6.120568">
        <ele>521.3</ele>
        <time>1970-01-01T00:00:00Z</time>
      </trkpt>
      <trkpt lat="39.839486" lon="-6.120264">
        <ele>516.4</ele>
        <time>1970-01-01T00:00:00Z</time>
      </trkpt>
      <trkpt lat="39.839926" lon="-6.119639">
        <ele>504.2</ele>
        <time>1970-01-01T00:00:00Z</time>
      </trkpt>
      <trkpt lat="39.840048" lon="-6.119412">
        <ele>499.3</ele>
        <time>1970-01-01T00:00:00Z</time>
      </trkpt>
      <trkpt lat="39.840337" lon="-6.118742">
        <ele>484.3</ele>
        <time>1970-01-01T00:00:00Z</time>
      </trkpt>
      <trkpt lat="39.840426" lon="-6.118395">
        <ele>477.9</ele>
        <time>1970-01-01T00:00:00Z</time>
      </trkpt>
      <trkpt lat="39.840425" lon="-6.118098">
        <ele>477.7</ele>
        <time>1970-01-01T00:00:00Z</time>
      </trkpt>
      <trkpt lat="39.840460" lon="-6.117966">
        <ele>476.6</ele>
        <time>1970-01-01T00:00:00Z</time>
      </trkpt>
      <trkpt lat="39.840602" lon="-6.117599">
        <ele>471.3</ele>
        <time>1970-01-01T00:00:00Z</time>
      </trkpt>
      <trkpt lat="39.840847" lon="-6.116772">
        <ele>462.8</ele>
        <time>1970-01-01T00:00:00Z</time>
      </trkpt>
      <trkpt lat="39.840905" lon="-6.116628">
        <ele>461.1</ele>
        <time>1970-01-01T00:00:00Z</time>
      </trkpt>
      <trkpt lat="39.840907" lon="-6.116520">
        <ele>460.7</ele>
        <time>1970-01-01T00:00:00Z</time>
      </trkpt>
      <trkpt lat="39.840934" lon="-6.116315">
        <ele>459.3</ele>
        <time>1970-01-01T00:00:00Z</time>
      </trkpt>
      <trkpt lat="39.840934" lon="-6.116180">
        <ele>458.8</ele>
        <time>1970-01-01T00:00:00Z</time>
      </trkpt>
      <trkpt lat="39.840985" lon="-6.116137">
        <ele>457.6</ele>
        <time>1970-01-01T00:00:00Z</time>
      </trkpt>
      <trkpt lat="39.841114" lon="-6.116230">
        <ele>454.8</ele>
        <time>1970-01-01T00:00:00Z</time>
      </trkpt>
      <trkpt lat="39.841223" lon="-6.116361">
        <ele>452.6</ele>
        <time>1970-01-01T00:00:00Z</time>
      </trkpt>
      <trkpt lat="39.841314" lon="-6.116442">
        <ele>450.5</ele>
        <time>1970-01-01T00:00:00Z</time>
      </trkpt>
      <trkpt lat="39.841423" lon="-6.116580">
        <ele>448.1</ele>
        <time>1970-01-01T00:00:00Z</time>
      </trkpt>
      <trkpt lat="39.841570" lon="-6.116970">
        <ele>444.5</ele>
        <time>1970-01-01T00:00:00Z</time>
      </trkpt>
      <trkpt lat="39.841600" lon="-6.117149">
        <ele>442.8</ele>
        <time>1970-01-01T00:00:00Z</time>
      </trkpt>
      <trkpt lat="39.841636" lon="-6.117000">
        <ele>441.9</ele>
        <time>1970-01-01T00:00:00Z</time>
      </trkpt>
      <trkpt lat="39.841714" lon="-6.116865">
        <ele>438.9</ele>
        <time>1970-01-01T00:00:00Z</time>
      </trkpt>
      <trkpt lat="39.841817" lon="-6.116600">
        <ele>434.9</ele>
        <time>1970-01-01T00:00:00Z</time>
      </trkpt>
      <trkpt lat="39.841897" lon="-6.116174">
        <ele>430.2</ele>
        <time>1970-01-01T00:00:00Z</time>
      </trkpt>
      <trkpt lat="39.842020" lon="-6.115974">
        <ele>424.7</ele>
        <time>1970-01-01T00:00:00Z</time>
      </trkpt>
      <trkpt lat="39.842141" lon="-6.115823">
        <ele>419.3</ele>
        <time>1970-01-01T00:00:00Z</time>
      </trkpt>
      <trkpt lat="39.842173" lon="-6.115741">
        <ele>417.5</ele>
        <time>1970-01-01T00:00:00Z</time>
      </trkpt>
      <trkpt lat="39.842205" lon="-6.115698">
        <ele>416.1</ele>
        <time>1970-01-01T00:00:00Z</time>
      </trkpt>
      <trkpt lat="39.842249" lon="-6.115715">
        <ele>414.9</ele>
        <time>1970-01-01T00:00:00Z</time>
      </trkpt>
      <trkpt lat="39.842291" lon="-6.115912">
        <ele>414.9</ele>
        <time>1970-01-01T00:00:00Z</time>
      </trkpt>
      <trkpt lat="39.842334" lon="-6.115936">
        <ele>413.9</ele>
        <time>1970-01-01T00:00:00Z</time>
      </trkpt>
      <trkpt lat="39.842438" lon="-6.115686">
        <ele>410.1</ele>
        <time>1970-01-01T00:00:00Z</time>
      </trkpt>
      <trkpt lat="39.842498" lon="-6.115506">
        <ele>408.0</ele>
        <time>1970-01-01T00:00:00Z</time>
      </trkpt>
      <trkpt lat="39.842523" lon="-6.115349">
        <ele>406.4</ele>
        <time>1970-01-01T00:00:00Z</time>
      </trkpt>
      <trkpt lat="39.842516" lon="-6.115321">
        <ele>406.3</ele>
        <time>1970-01-01T00:00:00Z</time>
      </trkpt>
      <trkpt lat="39.842563" lon="-6.115167">
        <ele>404.0</ele>
        <time>1970-01-01T00:00:00Z</time>
      </trkpt>
      <trkpt lat="39.842589" lon="-6.115119">
        <ele>403.2</ele>
        <time>1970-01-01T00:00:00Z</time>
      </trkpt>
      <trkpt lat="39.842530" lon="-6.115097">
        <ele>403.5</ele>
        <time>1970-01-01T00:00:00Z</time>
      </trkpt>
      <trkpt lat="39.842465" lon="-6.115106">
        <ele>404.2</ele>
        <time>1970-01-01T00:00:00Z</time>
      </trkpt>
      <trkpt lat="39.842399" lon="-6.115096">
        <ele>405.1</ele>
        <time>1970-01-01T00:00:00Z</time>
      </trkpt>
      <trkpt lat="39.842394" lon="-6.115068">
        <ele>404.9</ele>
        <time>1970-01-01T00:00:00Z</time>
      </trkpt>
      <trkpt lat="39.842456" lon="-6.115022">
        <ele>403.5</ele>
        <time>1970-01-01T00:00:00Z</time>
      </trkpt>
      <trkpt lat="39.842579" lon="-6.114847">
        <ele>400.9</ele>
        <time>1970-01-01T00:00:00Z</time>
      </trkpt>
      <trkpt lat="39.842643" lon="-6.114790">
        <ele>399.8</ele>
        <time>1970-01-01T00:00:00Z</time>
      </trkpt>
      <trkpt lat="39.842748" lon="-6.114735">
        <ele>399.0</ele>
        <time>1970-01-01T00:00:00Z</time>
      </trkpt>
      <trkpt lat="39.842746" lon="-6.114597">
        <ele>398.1</ele>
        <time>1970-01-01T00:00:00Z</time>
      </trkpt>
      <trkpt lat="39.842650" lon="-6.114553">
        <ele>397.9</ele>
        <time>1970-01-01T00:00:00Z</time>
      </trkpt>
      <trkpt lat="39.842680" lon="-6.114495">
        <ele>397.5</ele>
        <time>1970-01-01T00:00:00Z</time>
      </trkpt>
      <trkpt lat="39.842689" lon="-6.114446">
        <ele>397.2</ele>
        <time>1970-01-01T00:00:00Z</time>
      </trkpt>
      <trkpt lat="39.842743" lon="-6.114429">
        <ele>397.4</ele>
        <time>1970-01-01T00:00:00Z</time>
      </trkpt>
      <trkpt lat="39.842732" lon="-6.114384">
        <ele>397.1</ele>
        <time>1970-01-01T00:00:00Z</time>
      </trkpt>
      <trkpt lat="39.842658" lon="-6.114373">
        <ele>396.9</ele>
        <time>1970-01-01T00:00:00Z</time>
      </trkpt>
      <trkpt lat="39.842629" lon="-6.114337">
        <ele>396.7</ele>
        <time>1970-01-01T00:00:00Z</time>
      </trkpt>
      <trkpt lat="39.842823" lon="-6.114059">
        <ele>397.5</ele>
        <time>1970-01-01T00:00:00Z</time>
      </trkpt>
      <trkpt lat="39.842961" lon="-6.114033">
        <ele>399.8</ele>
        <time>1970-01-01T00:00:00Z</time>
      </trkpt>
      <trkpt lat="39.843120" lon="-6.114087">
        <ele>402.7</ele>
        <time>1970-01-01T00:00:00Z</time>
      </trkpt>
      <trkpt lat="39.843179" lon="-6.114077">
        <ele>404.1</ele>
        <time>1970-01-01T00:00:00Z</time>
      </trkpt>
      <trkpt lat="39.843183" lon="-6.114018">
        <ele>404.4</ele>
        <time>1970-01-01T00:00:00Z</time>
      </trkpt>
      <trkpt lat="39.843075" lon="-6.113561">
        <ele>405.2</ele>
        <time>1970-01-01T00:00:00Z</time>
      </trkpt>
      <trkpt lat="39.843102" lon="-6.113458">
        <ele>406.7</ele>
        <time>1970-01-01T00:00:00Z</time>
      </trkpt>
      <trkpt lat="39.843170" lon="-6.113340">
        <ele>409.0</ele>
        <time>1970-01-01T00:00:00Z</time>
      </trkpt>
      <trkpt lat="39.843295" lon="-6.113244">
        <ele>412.6</ele>
        <time>1970-01-01T00:00:00Z</time>
      </trkpt>
      <trkpt lat="39.843348" lon="-6.113182">
        <ele>414.3</ele>
        <time>1970-01-01T00:00:00Z</time>
      </trkpt>
      <trkpt lat="39.843435" lon="-6.112949">
        <ele>417.1</ele>
        <time>1970-01-01T00:00:00Z</time>
      </trkpt>
      <trkpt lat="39.843529" lon="-6.112785">
        <ele>419.4</ele>
        <time>1970-01-01T00:00:00Z</time>
      </trkpt>
      <trkpt lat="39.843576" lon="-6.112677">
        <ele>420.4</ele>
        <time>1970-01-01T00:00:00Z</time>
      </trkpt>
      <trkpt lat="39.843667" lon="-6.112563">
        <ele>421.2</ele>
        <time>1970-01-01T00:00:00Z</time>
      </trkpt>
      <trkpt lat="39.843775" lon="-6.112389">
        <ele>421.0</ele>
        <time>1970-01-01T00:00:00Z</time>
      </trkpt>
      <trkpt lat="39.843953" lon="-6.112244">
        <ele>421.5</ele>
        <time>1970-01-01T00:00:00Z</time>
      </trkpt>
      <trkpt lat="39.844077" lon="-6.112077">
        <ele>422.0</ele>
        <time>1970-01-01T00:00:00Z</time>
      </trkpt>
      <trkpt lat="39.844154" lon="-6.111768">
        <ele>422.6</ele>
        <time>1970-01-01T00:00:00Z</time>
      </trkpt>
      <trkpt lat="39.844199" lon="-6.111713">
        <ele>423.0</ele>
        <time>1970-01-01T00:00:00Z</time>
      </trkpt>
      <trkpt lat="39.844188" lon="-6.111635">
        <ele>422.9</ele>
        <time>1970-01-01T00:00:00Z</time>
      </trkpt>
      <trkpt lat="39.844203" lon="-6.111533">
        <ele>423.4</ele>
        <time>1970-01-01T00:00:00Z</time>
      </trkpt>
      <trkpt lat="39.844239" lon="-6.111444">
        <ele>424.1</ele>
        <time>1970-01-01T00:00:00Z</time>
      </trkpt>
      <trkpt lat="39.844337" lon="-6.111372">
        <ele>425.4</ele>
        <time>1970-01-01T00:00:00Z</time>
      </trkpt>
      <trkpt lat="39.844354" lon="-6.111266">
        <ele>425.2</ele>
        <time>1970-01-01T00:00:00Z</time>
      </trkpt>
      <trkpt lat="39.844341" lon="-6.111133">
        <ele>424.4</ele>
        <time>1970-01-01T00:00:00Z</time>
      </trkpt>
      <trkpt lat="39.844283" lon="-6.111045">
        <ele>423.3</ele>
        <time>1970-01-01T00:00:00Z</time>
      </trkpt>
      <trkpt lat="39.844180" lon="-6.110939">
        <ele>421.9</ele>
        <time>1970-01-01T00:00:00Z</time>
      </trkpt>
      <trkpt lat="39.844177" lon="-6.110825">
        <ele>421.6</ele>
        <time>1970-01-01T00:00:00Z</time>
      </trkpt>
      <trkpt lat="39.844195" lon="-6.110764">
        <ele>421.6</ele>
        <time>1970-01-01T00:00:00Z</time>
      </trkpt>
      <trkpt lat="39.844168" lon="-6.110590">
        <ele>421.1</ele>
        <time>1970-01-01T00:00:00Z</time>
      </trkpt>
      <trkpt lat="39.844205" lon="-6.110353">
        <ele>422.1</ele>
        <time>1970-01-01T00:00:00Z</time>
      </trkpt>
      <trkpt lat="39.844225" lon="-6.110053">
        <ele>423.2</ele>
        <time>1970-01-01T00:00:00Z</time>
      </trkpt>
      <trkpt lat="39.844105" lon="-6.109896">
        <ele>422.2</ele>
        <time>1970-01-01T00:00:00Z</time>
      </trkpt>
      <trkpt lat="39.844015" lon="-6.109808">
        <ele>421.9</ele>
        <time>1970-01-01T00:00:00Z</time>
      </trkpt>
      <trkpt lat="39.843995" lon="-6.109751">
        <ele>422.1</ele>
        <time>1970-01-01T00:00:00Z</time>
      </trkpt>
      <trkpt lat="39.844005" lon="-6.109153">
        <ele>425.1</ele>
        <time>1970-01-01T00:00:00Z</time>
      </trkpt>
      <trkpt lat="39.844022" lon="-6.108878">
        <ele>426.8</ele>
        <time>1970-01-01T00:00:00Z</time>
      </trkpt>
      <trkpt lat="39.844032" lon="-6.108750">
        <ele>427.4</ele>
        <time>1970-01-01T00:00:00Z</time>
      </trkpt>
      <trkpt lat="39.844080" lon="-6.108571">
        <ele>428.3</ele>
        <time>1970-01-01T00:00:00Z</time>
      </trkpt>
      <trkpt lat="39.844091" lon="-6.108415">
        <ele>429.7</ele>
        <time>1970-01-01T00:00:00Z</time>
      </trkpt>
      <trkpt lat="39.844087" lon="-6.108236">
        <ele>430.6</ele>
        <time>1970-01-01T00:00:00Z</time>
      </trkpt>
      <trkpt lat="39.844052" lon="-6.107828">
        <ele>432.3</ele>
        <time>1970-01-01T00:00:00Z</time>
      </trkpt>
      <trkpt lat="39.844139" lon="-6.107591">
        <ele>432.8</ele>
        <time>1970-01-01T00:00:00Z</time>
      </trkpt>
      <trkpt lat="39.844079" lon="-6.107488">
        <ele>433.0</ele>
        <time>1970-01-01T00:00:00Z</time>
      </trkpt>
      <trkpt lat="39.844037" lon="-6.107304">
        <ele>433.6</ele>
        <time>1970-01-01T00:00:00Z</time>
      </trkpt>
      <trkpt lat="39.844047" lon="-6.107153">
        <ele>434.0</ele>
        <time>1970-01-01T00:00:00Z</time>
      </trkpt>
      <trkpt lat="39.844016" lon="-6.106968">
        <ele>434.3</ele>
        <time>1970-01-01T00:00:00Z</time>
      </trkpt>
      <trkpt lat="39.844010" lon="-6.106666">
        <ele>434.3</ele>
        <time>1970-01-01T00:00:00Z</time>
      </trkpt>
      <trkpt lat="39.843948" lon="-6.106437">
        <ele>434.8</ele>
        <time>1970-01-01T00:00:00Z</time>
      </trkpt>
      <trkpt lat="39.843952" lon="-6.106360">
        <ele>434.9</ele>
        <time>1970-01-01T00:00:00Z</time>
      </trkpt>
      <trkpt lat="39.843932" lon="-6.106323">
        <ele>435.2</ele>
        <time>1970-01-01T00:00:00Z</time>
      </trkpt>
      <trkpt lat="39.843957" lon="-6.106298">
        <ele>435.1</ele>
        <time>1970-01-01T00:00:00Z</time>
      </trkpt>
      <trkpt lat="39.843940" lon="-6.106252">
        <ele>435.3</ele>
        <time>1970-01-01T00:00:00Z</time>
      </trkpt>
      <trkpt lat="39.843968" lon="-6.106172">
        <ele>435.2</ele>
        <time>1970-01-01T00:00:00Z</time>
      </trkpt>
      <trkpt lat="39.843958" lon="-6.106074">
        <ele>435.5</ele>
        <time>1970-01-01T00:00:00Z</time>
      </trkpt>
      <trkpt lat="39.844191" lon="-6.105707">
        <ele>433.8</ele>
        <time>1970-01-01T00:00:00Z</time>
      </trkpt>
      <trkpt lat="39.844293" lon="-6.105359">
        <ele>433.0</ele>
        <time>1970-01-01T00:00:00Z</time>
      </trkpt>
      <trkpt lat="39.844494" lon="-6.105262">
        <ele>432.1</ele>
        <time>1970-01-01T00:00:00Z</time>
      </trkpt>
      <trkpt lat="39.844534" lon="-6.105176">
        <ele>432.0</ele>
        <time>1970-01-01T00:00:00Z</time>
      </trkpt>
      <trkpt lat="39.844531" lon="-6.105030">
        <ele>432.0</ele>
        <time>1970-01-01T00:00:00Z</time>
      </trkpt>
      <trkpt lat="39.844551" lon="-6.104760">
        <ele>432.1</ele>
        <time>1970-01-01T00:00:00Z</time>
      </trkpt>
      <trkpt lat="39.844584" lon="-6.104617">
        <ele>432.4</ele>
        <time>1970-01-01T00:00:00Z</time>
      </trkpt>
      <trkpt lat="39.844648" lon="-6.104464">
        <ele>433.3</ele>
        <time>1970-01-01T00:00:00Z</time>
      </trkpt>
      <trkpt lat="39.844916" lon="-6.104172">
        <ele>436.9</ele>
        <time>1970-01-01T00:00:00Z</time>
      </trkpt>
      <trkpt lat="39.844974" lon="-6.104041">
        <ele>438.2</ele>
        <time>1970-01-01T00:00:00Z</time>
      </trkpt>
      <trkpt lat="39.845109" lon="-6.103453">
        <ele>440.8</ele>
        <time>1970-01-01T00:00:00Z</time>
      </trkpt>
      <trkpt lat="39.845340" lon="-6.102647">
        <ele>442.9</ele>
        <time>1970-01-01T00:00:00Z</time>
      </trkpt>
      <trkpt lat="39.845522" lon="-6.102140">
        <ele>445.4</ele>
        <time>1970-01-01T00:00:00Z</time>
      </trkpt>
      <trkpt lat="39.845581" lon="-6.101861">
        <ele>445.9</ele>
        <time>1970-01-01T00:00:00Z</time>
      </trkpt>
      <trkpt lat="39.845615" lon="-6.101561">
        <ele>446.3</ele>
        <time>1970-01-01T00:00:00Z</time>
      </trkpt>
      <trkpt lat="39.845613" lon="-6.101306">
        <ele>445.4</ele>
        <time>1970-01-01T00:00:00Z</time>
      </trkpt>
      <trkpt lat="39.845668" lon="-6.100855">
        <ele>444.9</ele>
        <time>1970-01-01T00:00:00Z</time>
      </trkpt>
      <trkpt lat="39.845737" lon="-6.100409">
        <ele>444.7</ele>
        <time>1970-01-01T00:00:00Z</time>
      </trkpt>
      <trkpt lat="39.845866" lon="-6.099777">
        <ele>444.6</ele>
        <time>1970-01-01T00:00:00Z</time>
      </trkpt>
      <trkpt lat="39.846193" lon="-6.098668">
        <ele>439.5</ele>
        <time>1970-01-01T00:00:00Z</time>
      </trkpt>
      <trkpt lat="39.846356" lon="-6.098233">
        <ele>438.7</ele>
        <time>1970-01-01T00:00:00Z</time>
      </trkpt>
      <trkpt lat="39.846479" lon="-6.098016">
        <ele>438.6</ele>
        <time>1970-01-01T00:00:00Z</time>
      </trkpt>
      <trkpt lat="39.846537" lon="-6.097885">
        <ele>438.6</ele>
        <time>1970-01-01T00:00:00Z</time>
      </trkpt>
      <trkpt lat="39.846530" lon="-6.097833">
        <ele>438.6</ele>
        <time>1970-01-01T00:00:00Z</time>
      </trkpt>
      <trkpt lat="39.846311" lon="-6.097578">
        <ele>436.9</ele>
        <time>1970-01-01T00:00:00Z</time>
      </trkpt>
      <trkpt lat="39.846245" lon="-6.097449">
        <ele>436.2</ele>
        <time>1970-01-01T00:00:00Z</time>
      </trkpt>
      <trkpt lat="39.846072" lon="-6.096436">
        <ele>438.9</ele>
        <time>1970-01-01T00:00:00Z</time>
      </trkpt>
      <trkpt lat="39.845957" lon="-6.095611">
        <ele>440.7</ele>
        <time>1970-01-01T00:00:00Z</time>
      </trkpt>
      <trkpt lat="39.845965" lon="-6.094869">
        <ele>443.2</ele>
        <time>1970-01-01T00:00:00Z</time>
      </trkpt>
      <trkpt lat="39.845933" lon="-6.094471">
        <ele>444.0</ele>
        <time>1970-01-01T00:00:00Z</time>
      </trkpt>
      <trkpt lat="39.845910" lon="-6.093958">
        <ele>443.3</ele>
        <time>1970-01-01T00:00:00Z</time>
      </trkpt>
      <trkpt lat="39.845914" lon="-6.093590">
        <ele>442.5</ele>
        <time>1970-01-01T00:00:00Z</time>
      </trkpt>
      <trkpt lat="39.845959" lon="-6.093170">
        <ele>442.1</ele>
        <time>1970-01-01T00:00:00Z</time>
      </trkpt>
      <trkpt lat="39.846013" lon="-6.092871">
        <ele>441.8</ele>
        <time>1970-01-01T00:00:00Z</time>
      </trkpt>
      <trkpt lat="39.846177" lon="-6.092174">
        <ele>443.4</ele>
        <time>1970-01-01T00:00:00Z</time>
      </trkpt>
      <trkpt lat="39.846429" lon="-6.091432">
        <ele>445.2</ele>
        <time>1970-01-01T00:00:00Z</time>
      </trkpt>
      <trkpt lat="39.846472" lon="-6.091107">
        <ele>443.5</ele>
        <time>1970-01-01T00:00:00Z</time>
      </trkpt>
      <trkpt lat="39.846480" lon="-6.090900">
        <ele>443.5</ele>
        <time>1970-01-01T00:00:00Z</time>
      </trkpt>
      <trkpt lat="39.846484" lon="-6.089791">
        <ele>441.3</ele>
        <time>1970-01-01T00:00:00Z</time>
      </trkpt>
      <trkpt lat="39.846538" lon="-6.089378">
        <ele>441.6</ele>
        <time>1970-01-01T00:00:00Z</time>
      </trkpt>
      <trkpt lat="39.846784" lon="-6.087997">
        <ele>445.0</ele>
        <time>1970-01-01T00:00:00Z</time>
      </trkpt>
      <trkpt lat="39.846886" lon="-6.087045">
        <ele>442.1</ele>
        <time>1970-01-01T00:00:00Z</time>
      </trkpt>
      <trkpt lat="39.846888" lon="-6.086882">
        <ele>440.7</ele>
        <time>1970-01-01T00:00:00Z</time>
      </trkpt>
      <trkpt lat="39.846827" lon="-6.086460">
        <ele>438.3</ele>
        <time>1970-01-01T00:00:00Z</time>
      </trkpt>
      <trkpt lat="39.846689" lon="-6.085734">
        <ele>435.0</ele>
        <time>1970-01-01T00:00:00Z</time>
      </trkpt>
      <trkpt lat="39.846654" lon="-6.085446">
        <ele>433.8</ele>
        <time>1970-01-01T00:00:00Z</time>
      </trkpt>
      <trkpt lat="39.846626" lon="-6.084774">
        <ele>431.0</ele>
        <time>1970-01-01T00:00:00Z</time>
      </trkpt>
      <trkpt lat="39.846699" lon="-6.084628">
        <ele>429.8</ele>
        <time>1970-01-01T00:00:00Z</time>
      </trkpt>
      <trkpt lat="39.846739" lon="-6.084404">
        <ele>428.5</ele>
        <time>1970-01-01T00:00:00Z</time>
      </trkpt>
      <trkpt lat="39.846750" lon="-6.084219">
        <ele>427.6</ele>
        <time>1970-01-01T00:00:00Z</time>
      </trkpt>
      <trkpt lat="39.846825" lon="-6.084196">
        <ele>426.8</ele>
        <time>1970-01-01T00:00:00Z</time>
      </trkpt>
      <trkpt lat="39.846898" lon="-6.084251">
        <ele>426.1</ele>
        <time>1970-01-01T00:00:00Z</time>
      </trkpt>
      <trkpt lat="39.846934" lon="-6.084401">
        <ele>426.2</ele>
        <time>1970-01-01T00:00:00Z</time>
      </trkpt>
      <trkpt lat="39.846997" lon="-6.084508">
        <ele>426.0</ele>
        <time>1970-01-01T00:00:00Z</time>
      </trkpt>
      <trkpt lat="39.847062" lon="-6.084526">
        <ele>425.3</ele>
        <time>1970-01-01T00:00:00Z</time>
      </trkpt>
      <trkpt lat="39.847148" lon="-6.083995">
        <ele>419.6</ele>
        <time>1970-01-01T00:00:00Z</time>
      </trkpt>
      <trkpt lat="39.847356" lon="-6.083266">
        <ele>407.0</ele>
        <time>1970-01-01T00:00:00Z</time>
      </trkpt>
      <trkpt lat="39.847439" lon="-6.082803">
        <ele>400.9</ele>
        <time>1970-01-01T00:00:00Z</time>
      </trkpt>
      <trkpt lat="39.847586" lon="-6.081715">
        <ele>388.5</ele>
        <time>1970-01-01T00:00:00Z</time>
      </trkpt>
      <trkpt lat="39.847724" lon="-6.080823">
        <ele>380.4</ele>
        <time>1970-01-01T00:00:00Z</time>
      </trkpt>
      <trkpt lat="39.847811" lon="-6.080029">
        <ele>374.7</ele>
        <time>1970-01-01T00:00:00Z</time>
      </trkpt>
      <trkpt lat="39.848097" lon="-6.079489">
        <ele>360.8</ele>
        <time>1970-01-01T00:00:00Z</time>
      </trkpt>
      <trkpt lat="39.848209" lon="-6.079038">
        <ele>357.1</ele>
        <time>1970-01-01T00:00:00Z</time>
      </trkpt>
      <trkpt lat="39.848241" lon="-6.078679">
        <ele>357.8</ele>
        <time>1970-01-01T00:00:00Z</time>
      </trkpt>
      <trkpt lat="39.848297" lon="-6.078418">
        <ele>357.6</ele>
        <time>1970-01-01T00:00:00Z</time>
      </trkpt>
      <trkpt lat="39.848452" lon="-6.078058">
        <ele>353.8</ele>
        <time>1970-01-01T00:00:00Z</time>
      </trkpt>
      <trkpt lat="39.848548" lon="-6.078014">
        <ele>351.1</ele>
        <time>1970-01-01T00:00:00Z</time>
      </trkpt>
      <trkpt lat="39.848706" lon="-6.077765">
        <ele>348.3</ele>
        <time>1970-01-01T00:00:00Z</time>
      </trkpt>
      <trkpt lat="39.848848" lon="-6.077474">
        <ele>345.9</ele>
        <time>1970-01-01T00:00:00Z</time>
      </trkpt>
      <trkpt lat="39.848910" lon="-6.077173">
        <ele>345.6</ele>
        <time>1970-01-01T00:00:00Z</time>
      </trkpt>
      <trkpt lat="39.848889" lon="-6.076897">
        <ele>347.1</ele>
        <time>1970-01-01T00:00:00Z</time>
      </trkpt>
      <trkpt lat="39.848846" lon="-6.076684">
        <ele>348.0</ele>
        <time>1970-01-01T00:00:00Z</time>
      </trkpt>
      <trkpt lat="39.848625" lon="-6.076385">
        <ele>352.7</ele>
        <time>1970-01-01T00:00:00Z</time>
      </trkpt>
      <trkpt lat="39.848591" lon="-6.076268">
        <ele>353.2</ele>
        <time>1970-01-01T00:00:00Z</time>
      </trkpt>
      <trkpt lat="39.848600" lon="-6.076031">
        <ele>352.0</ele>
        <time>1970-01-01T00:00:00Z</time>
      </trkpt>
      <trkpt lat="39.848664" lon="-6.075678">
        <ele>347.0</ele>
        <time>1970-01-01T00:00:00Z</time>
      </trkpt>
      <trkpt lat="39.848701" lon="-6.075372">
        <ele>342.5</ele>
        <time>1970-01-01T00:00:00Z</time>
      </trkpt>
      <trkpt lat="39.848605" lon="-6.075200">
        <ele>343.3</ele>
        <time>1970-01-01T00:00:00Z</time>
      </trkpt>
      <trkpt lat="39.848505" lon="-6.075114">
        <ele>345.3</ele>
        <time>1970-01-01T00:00:00Z</time>
      </trkpt>
      <trkpt lat="39.848410" lon="-6.075002">
        <ele>346.7</ele>
        <time>1970-01-01T00:00:00Z</time>
      </trkpt>
      <trkpt lat="39.848360" lon="-6.074848">
        <ele>345.3</ele>
        <time>1970-01-01T00:00:00Z</time>
      </trkpt>
      <trkpt lat="39.848370" lon="-6.074696">
        <ele>342.2</ele>
        <time>1970-01-01T00:00:00Z</time>
      </trkpt>
      <trkpt lat="39.848457" lon="-6.074429">
        <ele>333.6</ele>
        <time>1970-01-01T00:00:00Z</time>
      </trkpt>
      <trkpt lat="39.848500" lon="-6.074209">
        <ele>327.6</ele>
        <time>1970-01-01T00:00:00Z</time>
      </trkpt>
      <trkpt lat="39.848511" lon="-6.073998">
        <ele>322.8</ele>
        <time>1970-01-01T00:00:00Z</time>
      </trkpt>
      <trkpt lat="39.848488" lon="-6.073700">
        <ele>316.7</ele>
        <time>1970-01-01T00:00:00Z</time>
      </trkpt>
      <trkpt lat="39.848400" lon="-6.073547">
        <ele>317.0</ele>
        <time>1970-01-01T00:00:00Z</time>
      </trkpt>
      <trkpt lat="39.848306" lon="-6.073421">
        <ele>318.3</ele>
        <time>1970-01-01T00:00:00Z</time>
      </trkpt>
      <trkpt lat="39.848077" lon="-6.073218">
        <ele>323.1</ele>
        <time>1970-01-01T00:00:00Z</time>
      </trkpt>
      <trkpt lat="39.848097" lon="-6.072902">
        <ele>317.4</ele>
        <time>1970-01-01T00:00:00Z</time>
      </trkpt>
      <trkpt lat="39.848085" lon="-6.072494">
        <ele>309.9</ele>
        <time>1970-01-01T00:00:00Z</time>
      </trkpt>
      <trkpt lat="39.848023" lon="-6.072323">
        <ele>309.6</ele>
        <time>1970-01-01T00:00:00Z</time>
      </trkpt>
      <trkpt lat="39.847920" lon="-6.071887">
        <ele>308.6</ele>
        <time>1970-01-01T00:00:00Z</time>
      </trkpt>
      <trkpt lat="39.847848" lon="-6.071477">
        <ele>308.3</ele>
        <time>1970-01-01T00:00:00Z</time>
      </trkpt>
      <trkpt lat="39.847812" lon="-6.070907">
        <ele>305.8</ele>
        <time>1970-01-01T00:00:00Z</time>
      </trkpt>
      <trkpt lat="39.847779" lon="-6.070623">
        <ele>306.2</ele>
        <time>1970-01-01T00:00:00Z</time>
      </trkpt>
      <trkpt lat="39.847776" lon="-6.070465">
        <ele>306.4</ele>
        <time>1970-01-01T00:00:00Z</time>
      </trkpt>
      <trkpt lat="39.847817" lon="-6.070179">
        <ele>305.2</ele>
        <time>1970-01-01T00:00:00Z</time>
      </trkpt>
      <trkpt lat="39.847906" lon="-6.069993">
        <ele>300.6</ele>
        <time>1970-01-01T00:00:00Z</time>
      </trkpt>
      <trkpt lat="39.847944" lon="-6.069866">
        <ele>298.7</ele>
        <time>1970-01-01T00:00:00Z</time>
      </trkpt>
      <trkpt lat="39.847964" lon="-6.069746">
        <ele>297.6</ele>
        <time>1970-01-01T00:00:00Z</time>
      </trkpt>
      <trkpt lat="39.848076" lon="-6.069429">
        <ele>293.2</ele>
        <time>1970-01-01T00:00:00Z</time>
      </trkpt>
      <trkpt lat="39.848120" lon="-6.069251">
        <ele>290.9</ele>
        <time>1970-01-01T00:00:00Z</time>
      </trkpt>
      <trkpt lat="39.848136" lon="-6.069096">
        <ele>290.0</ele>
        <time>1970-01-01T00:00:00Z</time>
      </trkpt>
      <trkpt lat="39.848118" lon="-6.068922">
        <ele>289.5</ele>
        <time>1970-01-01T00:00:00Z</time>
      </trkpt>
      <trkpt lat="39.848051" lon="-6.068768">
        <ele>290.4</ele>
        <time>1970-01-01T00:00:00Z</time>
      </trkpt>
      <trkpt lat="39.847996" lon="-6.068684">
        <ele>291.3</ele>
        <time>1970-01-01T00:00:00Z</time>
      </trkpt>
      <trkpt lat="39.847934" lon="-6.068673">
        <ele>293.6</ele>
        <time>1970-01-01T00:00:00Z</time>
      </trkpt>
      <trkpt lat="39.847871" lon="-6.068525">
        <ele>293.9</ele>
        <time>1970-01-01T00:00:00Z</time>
      </trkpt>
      <trkpt lat="39.847725" lon="-6.068273">
        <ele>295.6</ele>
        <time>1970-01-01T00:00:00Z</time>
      </trkpt>
      <trkpt lat="39.847680" lon="-6.068229">
        <ele>296.9</ele>
        <time>1970-01-01T00:00:00Z</time>
      </trkpt>
      <trkpt lat="39.847614" lon="-6.068199">
        <ele>299.6</ele>
        <time>1970-01-01T00:00:00Z</time>
      </trkpt>
      <trkpt lat="39.847543" lon="-6.068109">
        <ele>301.6</ele>
        <time>1970-01-01T00:00:00Z</time>
      </trkpt>
      <trkpt lat="39.847526" lon="-6.068071">
        <ele>301.7</ele>
        <time>1970-01-01T00:00:00Z</time>
      </trkpt>
      <trkpt lat="39.847575" lon="-6.067732">
        <ele>291.8</ele>
        <time>1970-01-01T00:00:00Z</time>
      </trkpt>
      <trkpt lat="39.847579" lon="-6.067604">
        <ele>289.1</ele>
        <time>1970-01-01T00:00:00Z</time>
      </trkpt>
      <trkpt lat="39.847528" lon="-6.067354">
        <ele>288.2</ele>
        <time>1970-01-01T00:00:00Z</time>
      </trkpt>
      <trkpt lat="39.847424" lon="-6.067033">
        <ele>287.4</ele>
        <time>1970-01-01T00:00:00Z</time>
      </trkpt>
      <trkpt lat="39.847381" lon="-6.066803">
        <ele>285.2</ele>
        <time>1970-01-01T00:00:00Z</time>
      </trkpt>
      <trkpt lat="39.847332" lon="-6.066638">
        <ele>284.4</ele>
        <time>1970-01-01T00:00:00Z</time>
      </trkpt>
      <trkpt lat="39.847153" lon="-6.066170">
        <ele>283.3</ele>
        <time>1970-01-01T00:00:00Z</time>
      </trkpt>
      <trkpt lat="39.847130" lon="-6.066048">
        <ele>282.4</ele>
        <time>1970-01-01T00:00:00Z</time>
      </trkpt>
      <trkpt lat="39.847084" lon="-6.065981">
        <ele>283.4</ele>
        <time>1970-01-01T00:00:00Z</time>
      </trkpt>
      <trkpt lat="39.847071" lon="-6.065897">
        <ele>282.2</ele>
        <time>1970-01-01T00:00:00Z</time>
      </trkpt>
      <trkpt lat="39.847040" lon="-6.065853">
        <ele>282.8</ele>
        <time>1970-01-01T00:00:00Z</time>
      </trkpt>
      <trkpt lat="39.847014" lon="-6.065758">
        <ele>282.0</ele>
        <time>1970-01-01T00:00:00Z</time>
      </trkpt>
      <trkpt lat="39.846974" lon="-6.065729">
        <ele>283.2</ele>
        <time>1970-01-01T00:00:00Z</time>
      </trkpt>
      <trkpt lat="39.846854" lon="-6.065016">
        <ele>279.2</ele>
        <time>1970-01-01T00:00:00Z</time>
      </trkpt>
      <trkpt lat="39.846824" lon="-6.064780">
        <ele>278.3</ele>
        <time>1970-01-01T00:00:00Z</time>
      </trkpt>
      <trkpt lat="39.846948" lon="-6.064140">
        <ele>268.4</ele>
        <time>1970-01-01T00:00:00Z</time>
      </trkpt>
      <trkpt lat="39.846959" lon="-6.063987">
        <ele>266.6</ele>
        <time>1970-01-01T00:00:00Z</time>
      </trkpt>
      <trkpt lat="39.846958" lon="-6.063623">
        <ele>264.1</ele>
        <time>1970-01-01T00:00:00Z</time>
      </trkpt>
      <trkpt lat="39.846997" lon="-6.063148">
        <ele>257.7</ele>
        <time>1970-01-01T00:00:00Z</time>
      </trkpt>
      <trkpt lat="39.846988" lon="-6.062964">
        <ele>255.5</ele>
        <time>1970-01-01T00:00:00Z</time>
      </trkpt>
      <trkpt lat="39.846906" lon="-6.062775">
        <ele>255.1</ele>
        <time>1970-01-01T00:00:00Z</time>
      </trkpt>
      <trkpt lat="39.846825" lon="-6.062673">
        <ele>254.8</ele>
        <time>1970-01-01T00:00:00Z</time>
      </trkpt>
      <trkpt lat="39.846866" lon="-6.062600">
        <ele>251.3</ele>
        <time>1970-01-01T00:00:00Z</time>
      </trkpt>
      <trkpt lat="39.846905" lon="-6.062359">
        <ele>242.3</ele>
        <time>1970-01-01T00:00:00Z</time>
      </trkpt>
      <trkpt lat="39.846941" lon="-6.062233">
        <ele>237.5</ele>
        <time>1970-01-01T00:00:00Z</time>
      </trkpt>
      <trkpt lat="39.846955" lon="-6.062045">
        <ele>231.9</ele>
        <time>1970-01-01T00:00:00Z</time>
      </trkpt>
      <trkpt lat="39.846994" lon="-6.062015">
        <ele>230.3</ele>
        <time>1970-01-01T00:00:00Z</time>
      </trkpt>
      <trkpt lat="39.847054" lon="-6.061931">
        <ele>227.3</ele>
        <time>1970-01-01T00:00:00Z</time>
      </trkpt>
      <trkpt lat="39.847092" lon="-6.061848">
        <ele>224.9</ele>
        <time>1970-01-01T00:00:00Z</time>
      </trkpt>
      <trkpt lat="39.847204" lon="-6.061789">
        <ele>221.2</ele>
        <time>1970-01-01T00:00:00Z</time>
      </trkpt>
      <trkpt lat="39.847214" lon="-6.061696">
        <ele>219.0</ele>
        <time>1970-01-01T00:00:00Z</time>
      </trkpt>
      <trkpt lat="39.847377" lon="-6.061371">
        <ele>211.9</ele>
        <time>1970-01-01T00:00:00Z</time>
      </trkpt>
      <trkpt lat="39.847433" lon="-6.061287">
        <ele>211.1</ele>
        <time>1970-01-01T00:00:00Z</time>
      </trkpt>
      <trkpt lat="39.847476" lon="-6.061185">
        <ele>210.2</ele>
        <time>1970-01-01T00:00:00Z</time>
      </trkpt>
      <trkpt lat="39.847435" lon="-6.061055">
        <ele>209.8</ele>
        <time>1970-01-01T00:00:00Z</time>
      </trkpt>
      <trkpt lat="39.847318" lon="-6.060812">
        <ele>209.5</ele>
        <time>1970-01-01T00:00:00Z</time>
      </trkpt>
      <trkpt lat="39.847219" lon="-6.060781">
        <ele>209.2</ele>
        <time>1970-01-01T00:00:00Z</time>
      </trkpt>
      <trkpt lat="39.846980" lon="-6.060812">
        <ele>208.5</ele>
        <time>1970-01-01T00:00:00Z</time>
      </trkpt>
      <trkpt lat="39.846902" lon="-6.060836">
        <ele>208.2</ele>
        <time>1970-01-01T00:00:00Z</time>
      </trkpt>
      <trkpt lat="39.846734" lon="-6.060754">
        <ele>209.2</ele>
        <time>1970-01-01T00:00:00Z</time>
      </trkpt>
      <trkpt lat="39.846543" lon="-6.060756">
        <ele>208.8</ele>
        <time>1970-01-01T00:00:00Z</time>
      </trkpt>
      <trkpt lat="39.846455" lon="-6.060791">
        <ele>208.0</ele>
        <time>1970-01-01T00:00:00Z</time>
      </trkpt>
      <trkpt lat="39.846203" lon="-6.060718">
        <ele>208.8</ele>
        <time>1970-01-01T00:00:00Z</time>
      </trkpt>
      <trkpt lat="39.846072" lon="-6.060702">
        <ele>209.3</ele>
        <time>1970-01-01T00:00:00Z</time>
      </trkpt>
      <trkpt lat="39.845891" lon="-6.060764">
        <ele>210.2</ele>
        <time>1970-01-01T00:00:00Z</time>
      </trkpt>
      <trkpt lat="39.845813" lon="-6.060827">
        <ele>210.5</ele>
        <time>1970-01-01T00:00:00Z</time>
      </trkpt>
      <trkpt lat="39.845639" lon="-6.060849">
        <ele>210.8</ele>
        <time>1970-01-01T00:00:00Z</time>
      </trkpt>
      <trkpt lat="39.845456" lon="-6.060771">
        <ele>209.5</ele>
        <time>1970-01-01T00:00:00Z</time>
      </trkpt>
      <trkpt lat="39.845357" lon="-6.060772">
        <ele>208.6</ele>
        <time>1970-01-01T00:00:00Z</time>
      </trkpt>
      <trkpt lat="39.845302" lon="-6.060745">
        <ele>207.6</ele>
        <time>1970-01-01T00:00:00Z</time>
      </trkpt>
      <trkpt lat="39.845171" lon="-6.060734">
        <ele>206.5</ele>
        <time>1970-01-01T00:00:00Z</time>
      </trkpt>
      <trkpt lat="39.845127" lon="-6.060660">
        <ele>205.2</ele>
        <time>1970-01-01T00:00:00Z</time>
      </trkpt>
      <trkpt lat="39.845079" lon="-6.060396">
        <ele>203.4</ele>
        <time>1970-01-01T00:00:00Z</time>
      </trkpt>
      <trkpt lat="39.845107" lon="-6.060202">
        <ele>204.5</ele>
        <time>1970-01-01T00:00:00Z</time>
      </trkpt>
      <trkpt lat="39.845142" lon="-6.059595">
        <ele>221.8</ele>
        <time>1970-01-01T00:00:00Z</time>
      </trkpt>
      <trkpt lat="39.845203" lon="-6.059514">
        <ele>224.8</ele>
        <time>1970-01-01T00:00:00Z</time>
      </trkpt>
      <trkpt lat="39.845482" lon="-6.059355">
        <ele>229.3</ele>
        <time>1970-01-01T00:00:00Z</time>
      </trkpt>
      <trkpt lat="39.845638" lon="-6.059234">
        <ele>232.4</ele>
        <time>1970-01-01T00:00:00Z</time>
      </trkpt>
      <trkpt lat="39.845619" lon="-6.059163">
        <ele>233.9</ele>
        <time>1970-01-01T00:00:00Z</time>
      </trkpt>
      <trkpt lat="39.845674" lon="-6.059154">
        <ele>233.8</ele>
        <time>1970-01-01T00:00:00Z</time>
      </trkpt>
      <trkpt lat="39.845879" lon="-6.059037">
        <ele>234.8</ele>
        <time>1970-01-01T00:00:00Z</time>
      </trkpt>
      <trkpt lat="39.846078" lon="-6.058729">
        <ele>236.9</ele>
        <time>1970-01-01T00:00:00Z</time>
      </trkpt>
      <trkpt lat="39.846153" lon="-6.058636">
        <ele>236.9</ele>
        <time>1970-01-01T00:00:00Z</time>
      </trkpt>
      <trkpt lat="39.846265" lon="-6.058574">
        <ele>235.8</ele>
        <time>1970-01-01T00:00:00Z</time>
      </trkpt>
      <trkpt lat="39.846586" lon="-6.058123">
        <ele>232.8</ele>
        <time>1970-01-01T00:00:00Z</time>
      </trkpt>
      <trkpt lat="39.846815" lon="-6.057903">
        <ele>230.5</ele>
        <time>1970-01-01T00:00:00Z</time>
      </trkpt>
      <trkpt lat="39.846870" lon="-6.057834">
        <ele>229.8</ele>
        <time>1970-01-01T00:00:00Z</time>
      </trkpt>
      <trkpt lat="39.846943" lon="-6.057736">
        <ele>228.9</ele>
        <time>1970-01-01T00:00:00Z</time>
      </trkpt>
      <trkpt lat="39.846967" lon="-6.057618">
        <ele>228.6</ele>
        <time>1970-01-01T00:00:00Z</time>
      </trkpt>
      <trkpt lat="39.847036" lon="-6.057559">
        <ele>227.7</ele>
        <time>1970-01-01T00:00:00Z</time>
      </trkpt>
      <trkpt lat="39.847084" lon="-6.057549">
        <ele>227.1</ele>
        <time>1970-01-01T00:00:00Z</time>
      </trkpt>
      <trkpt lat="39.847190" lon="-6.057484">
        <ele>225.7</ele>
        <time>1970-01-01T00:00:00Z</time>
      </trkpt>
      <trkpt lat="39.847269" lon="-6.057307">
        <ele>223.4</ele>
        <time>1970-01-01T00:00:00Z</time>
      </trkpt>
      <trkpt lat="39.847285" lon="-6.057212">
        <ele>222.4</ele>
        <time>1970-01-01T00:00:00Z</time>
      </trkpt>
      <trkpt lat="39.847254" lon="-6.056817">
        <ele>220.4</ele>
        <time>1970-01-01T00:00:00Z</time>
      </trkpt>
      <trkpt lat="39.847233" lon="-6.056753">
        <ele>220.5</ele>
        <time>1970-01-01T00:00:00Z</time>
      </trkpt>
      <trkpt lat="39.847240" lon="-6.056711">
        <ele>220.3</ele>
        <time>1970-01-01T00:00:00Z</time>
      </trkpt>
      <trkpt lat="39.847199" lon="-6.056674">
        <ele>220.9</ele>
        <time>1970-01-01T00:00:00Z</time>
      </trkpt>
      <trkpt lat="39.847232" lon="-6.056621">
        <ele>220.2</ele>
        <time>1970-01-01T00:00:00Z</time>
      </trkpt>
      <trkpt lat="39.847236" lon="-6.056556">
        <ele>219.9</ele>
        <time>1970-01-01T00:00:00Z</time>
      </trkpt>
      <trkpt lat="39.847256" lon="-6.056518">
        <ele>219.4</ele>
        <time>1970-01-01T00:00:00Z</time>
      </trkpt>
      <trkpt lat="39.847259" lon="-6.056382">
        <ele>219.3</ele>
        <time>1970-01-01T00:00:00Z</time>
      </trkpt>
      <trkpt lat="39.847349" lon="-6.056094">
        <ele>218.1</ele>
        <time>1970-01-01T00:00:00Z</time>
      </trkpt>
      <trkpt lat="39.847325" lon="-6.055581">
        <ele>222.3</ele>
        <time>1970-01-01T00:00:00Z</time>
      </trkpt>
      <trkpt lat="39.847302" lon="-6.055545">
        <ele>223.0</ele>
        <time>1970-01-01T00:00:00Z</time>
      </trkpt>
      <trkpt lat="39.847317" lon="-6.055498">
        <ele>223.4</ele>
        <time>1970-01-01T00:00:00Z</time>
      </trkpt>
      <trkpt lat="39.847286" lon="-6.055460">
        <ele>224.4</ele>
        <time>1970-01-01T00:00:00Z</time>
      </trkpt>
      <trkpt lat="39.847281" lon="-6.055286">
        <ele>227.0</ele>
        <time>1970-01-01T00:00:00Z</time>
      </trkpt>
      <trkpt lat="39.847205" lon="-6.054989">
        <ele>231.6</ele>
        <time>1970-01-01T00:00:00Z</time>
      </trkpt>
      <trkpt lat="39.847204" lon="-6.054931">
        <ele>232.2</ele>
        <time>1970-01-01T00:00:00Z</time>
      </trkpt>
      <trkpt lat="39.847168" lon="-6.054756">
        <ele>233.9</ele>
        <time>1970-01-01T00:00:00Z</time>
      </trkpt>
      <trkpt lat="39.847146" lon="-6.054679">
        <ele>234.5</ele>
        <time>1970-01-01T00:00:00Z</time>
      </trkpt>
      <trkpt lat="39.847096" lon="-6.054596">
        <ele>235.5</ele>
        <time>1970-01-01T00:00:00Z</time>
      </trkpt>
      <trkpt lat="39.847040" lon="-6.054362">
        <ele>239.7</ele>
        <time>1970-01-01T00:00:00Z</time>
      </trkpt>
      <trkpt lat="39.846953" lon="-6.054147">
        <ele>243.8</ele>
        <time>1970-01-01T00:00:00Z</time>
      </trkpt>
      <trkpt lat="39.846891" lon="-6.054079">
        <ele>245.0</ele>
        <time>1970-01-01T00:00:00Z</time>
      </trkpt>
      <trkpt lat="39.846790" lon="-6.053923">
        <ele>248.2</ele>
        <time>1970-01-01T00:00:00Z</time>
      </trkpt>
      <trkpt lat="39.846750" lon="-6.053836">
        <ele>249.7</ele>
        <time>1970-01-01T00:00:00Z</time>
      </trkpt>
      <trkpt lat="39.846686" lon="-6.053488">
        <ele>254.6</ele>
        <time>1970-01-01T00:00:00Z</time>
      </trkpt>
      <trkpt lat="39.846637" lon="-6.053379">
        <ele>256.4</ele>
        <time>1970-01-01T00:00:00Z</time>
      </trkpt>
      <trkpt lat="39.846579" lon="-6.053304">
        <ele>257.7</ele>
        <time>1970-01-01T00:00:00Z</time>
      </trkpt>
      <trkpt lat="39.846454" lon="-6.053231">
        <ele>258.8</ele>
        <time>1970-01-01T00:00:00Z</time>
      </trkpt>
      <trkpt lat="39.846387" lon="-6.053210">
        <ele>259.1</ele>
        <time>1970-01-01T00:00:00Z</time>
      </trkpt>
      <trkpt lat="39.846076" lon="-6.053019">
        <ele>264.6</ele>
        <time>1970-01-01T00:00:00Z</time>
      </trkpt>
      <trkpt lat="39.845934" lon="-6.052882">
        <ele>267.5</ele>
        <time>1970-01-01T00:00:00Z</time>
      </trkpt>
      <trkpt lat="39.845774" lon="-6.052651">
        <ele>270.4</ele>
        <time>1970-01-01T00:00:00Z</time>
      </trkpt>
      <trkpt lat="39.845647" lon="-6.052600">
        <ele>270.9</ele>
        <time>1970-01-01T00:00:00Z</time>
      </trkpt>
      <trkpt lat="39.845586" lon="-6.052521">
        <ele>271.6</ele>
        <time>1970-01-01T00:00:00Z</time>
      </trkpt>
      <trkpt lat="39.845502" lon="-6.052448">
        <ele>271.8</ele>
        <time>1970-01-01T00:00:00Z</time>
      </trkpt>
      <trkpt lat="39.845436" lon="-6.052296">
        <ele>272.5</ele>
        <time>1970-01-01T00:00:00Z</time>
      </trkpt>
      <trkpt lat="39.845454" lon="-6.052177">
        <ele>273.5</ele>
        <time>1970-01-01T00:00:00Z</time>
      </trkpt>
      <trkpt lat="39.845535" lon="-6.052096">
        <ele>275.3</ele>
        <time>1970-01-01T00:00:00Z</time>
      </trkpt>
      <trkpt lat="39.846055" lon="-6.051970">
        <ele>283.4</ele>
        <time>1970-01-01T00:00:00Z</time>
      </trkpt>
      <trkpt lat="39.846181" lon="-6.051956">
        <ele>285.1</ele>
        <time>1970-01-01T00:00:00Z</time>
      </trkpt>
      <trkpt lat="39.846421" lon="-6.051766">
        <ele>289.3</ele>
        <time>1970-01-01T00:00:00Z</time>
      </trkpt>
      <trkpt lat="39.846562" lon="-6.051626">
        <ele>291.3</ele>
        <time>1970-01-01T00:00:00Z</time>
      </trkpt>
      <trkpt lat="39.846827" lon="-6.051487">
        <ele>292.7</ele>
        <time>1970-01-01T00:00:00Z</time>
      </trkpt>
      <trkpt lat="39.847062" lon="-6.051386">
        <ele>291.2</ele>
        <time>1970-01-01T00:00:00Z</time>
      </trkpt>
      <trkpt lat="39.847160" lon="-6.051376">
        <ele>291.0</ele>
        <time>1970-01-01T00:00:00Z</time>
      </trkpt>
      <trkpt lat="39.847320" lon="-6.051311">
        <ele>291.0</ele>
        <time>1970-01-01T00:00:00Z</time>
      </trkpt>
      <trkpt lat="39.847469" lon="-6.051229">
        <ele>291.1</ele>
        <time>1970-01-01T00:00:00Z</time>
      </trkpt>
      <trkpt lat="39.847802" lon="-6.051095">
        <ele>294.2</ele>
        <time>1970-01-01T00:00:00Z</time>
      </trkpt>
      <trkpt lat="39.847844" lon="-6.051030">
        <ele>294.5</ele>
        <time>1970-01-01T00:00:00Z</time>
      </trkpt>
      <trkpt lat="39.847933" lon="-6.050957">
        <ele>295.3</ele>
        <time>1970-01-01T00:00:00Z</time>
      </trkpt>
      <trkpt lat="39.848090" lon="-6.050883">
        <ele>297.0</ele>
        <time>1970-01-01T00:00:00Z</time>
      </trkpt>
      <trkpt lat="39.848367" lon="-6.050905">
        <ele>299.9</ele>
        <time>1970-01-01T00:00:00Z</time>
      </trkpt>
      <trkpt lat="39.848559" lon="-6.050876">
        <ele>303.0</ele>
        <time>1970-01-01T00:00:00Z</time>
      </trkpt>
      <trkpt lat="39.848694" lon="-6.050811">
        <ele>305.7</ele>
        <time>1970-01-01T00:00:00Z</time>
      </trkpt>
      <trkpt lat="39.848857" lon="-6.050694">
        <ele>308.6</ele>
        <time>1970-01-01T00:00:00Z</time>
      </trkpt>
      <trkpt lat="39.848932" lon="-6.050584">
        <ele>309.9</ele>
        <time>1970-01-01T00:00:00Z</time>
      </trkpt>
      <trkpt lat="39.848951" lon="-6.050463">
        <ele>310.1</ele>
        <time>1970-01-01T00:00:00Z</time>
      </trkpt>
      <trkpt lat="39.848915" lon="-6.050365">
        <ele>309.7</ele>
        <time>1970-01-01T00:00:00Z</time>
      </trkpt>
      <trkpt lat="39.848850" lon="-6.050105">
        <ele>309.2</ele>
        <time>1970-01-01T00:00:00Z</time>
      </trkpt>
      <trkpt lat="39.848848" lon="-6.049979">
        <ele>308.6</ele>
        <time>1970-01-01T00:00:00Z</time>
      </trkpt>
      <trkpt lat="39.848929" lon="-6.049547">
        <ele>305.6</ele>
        <time>1970-01-01T00:00:00Z</time>
      </trkpt>
      <trkpt lat="39.848948" lon="-6.049370">
        <ele>304.2</ele>
        <time>1970-01-01T00:00:00Z</time>
      </trkpt>
      <trkpt lat="39.848947" lon="-6.048944">
        <ele>300.7</ele>
        <time>1970-01-01T00:00:00Z</time>
      </trkpt>
      <trkpt lat="39.848970" lon="-6.048666">
        <ele>297.1</ele>
        <time>1970-01-01T00:00:00Z</time>
      </trkpt>
      <trkpt lat="39.849017" lon="-6.048475">
        <ele>294.4</ele>
        <time>1970-01-01T00:00:00Z</time>
      </trkpt>
      <trkpt lat="39.849047" lon="-6.048409">
        <ele>293.3</ele>
        <time>1970-01-01T00:00:00Z</time>
      </trkpt>
      <trkpt lat="39.849214" lon="-6.048226">
        <ele>289.4</ele>
        <time>1970-01-01T00:00:00Z</time>
      </trkpt>
      <trkpt lat="39.849272" lon="-6.048123">
        <ele>287.5</ele>
        <time>1970-01-01T00:00:00Z</time>
      </trkpt>
      <trkpt lat="39.849276" lon="-6.047960">
        <ele>285.0</ele>
        <time>1970-01-01T00:00:00Z</time>
      </trkpt>
      <trkpt lat="39.849244" lon="-6.047607">
        <ele>278.6</ele>
        <time>1970-01-01T00:00:00Z</time>
      </trkpt>
      <trkpt lat="39.849296" lon="-6.047414">
        <ele>274.9</ele>
        <time>1970-01-01T00:00:00Z</time>
      </trkpt>
      <trkpt lat="39.849366" lon="-6.047318">
        <ele>272.3</ele>
        <time>1970-01-01T00:00:00Z</time>
      </trkpt>
      <trkpt lat="39.849431" lon="-6.047145">
        <ele>268.5</ele>
        <time>1970-01-01T00:00:00Z</time>
      </trkpt>
      <trkpt lat="39.849479" lon="-6.046982">
        <ele>265.4</ele>
        <time>1970-01-01T00:00:00Z</time>
      </trkpt>
      <trkpt lat="39.849524" lon="-6.046744">
        <ele>262.0</ele>
        <time>1970-01-01T00:00:00Z</time>
      </trkpt>
      <trkpt lat="39.849508" lon="-6.046552">
        <ele>259.2</ele>
        <time>1970-01-01T00:00:00Z</time>
      </trkpt>
      <trkpt lat="39.849482" lon="-6.046430">
        <ele>257.6</ele>
        <time>1970-01-01T00:00:00Z</time>
      </trkpt>
      <trkpt lat="39.849483" lon="-6.046128">
        <ele>252.9</ele>
        <time>1970-01-01T00:00:00Z</time>
      </trkpt>
      <trkpt lat="39.849527" lon="-6.046046">
        <ele>251.6</ele>
        <time>1970-01-01T00:00:00Z</time>
      </trkpt>
      <trkpt lat="39.849687" lon="-6.046024">
        <ele>251.3</ele>
        <time>1970-01-01T00:00:00Z</time>
      </trkpt>
      <trkpt lat="39.849842" lon="-6.046033">
        <ele>251.6</ele>
        <time>1970-01-01T00:00:00Z</time>
      </trkpt>
      <trkpt lat="39.849983" lon="-6.046019">
        <ele>252.0</ele>
        <time>1970-01-01T00:00:00Z</time>
      </trkpt>
      <trkpt lat="39.850033" lon="-6.045945">
        <ele>252.3</ele>
        <time>1970-01-01T00:00:00Z</time>
      </trkpt>
      <trkpt lat="39.850005" lon="-6.045850">
        <ele>252.3</ele>
        <time>1970-01-01T00:00:00Z</time>
      </trkpt>
      <trkpt lat="39.849769" lon="-6.045758">
        <ele>250.1</ele>
        <time>1970-01-01T00:00:00Z</time>
      </trkpt>
      <trkpt lat="39.849661" lon="-6.045664">
        <ele>248.5</ele>
        <time>1970-01-01T00:00:00Z</time>
      </trkpt>
      <trkpt lat="39.849597" lon="-6.045490">
        <ele>246.9</ele>
        <time>1970-01-01T00:00:00Z</time>
      </trkpt>
      <trkpt lat="39.849581" lon="-6.045368">
        <ele>246.1</ele>
        <time>1970-01-01T00:00:00Z</time>
      </trkpt>
      <trkpt lat="39.849581" lon="-6.045062">
        <ele>245.1</ele>
        <time>1970-01-01T00:00:00Z</time>
      </trkpt>
      <trkpt lat="39.849508" lon="-6.044883">
        <ele>242.9</ele>
        <time>1970-01-01T00:00:00Z</time>
      </trkpt>
      <trkpt lat="39.849408" lon="-6.044772">
        <ele>240.3</ele>
        <time>1970-01-01T00:00:00Z</time>
      </trkpt>
      <trkpt lat="39.849354" lon="-6.044653">
        <ele>239.4</ele>
        <time>1970-01-01T00:00:00Z</time>
      </trkpt>
      <trkpt lat="39.849226" lon="-6.043858">
        <ele>238.8</ele>
        <time>1970-01-01T00:00:00Z</time>
      </trkpt>
      <trkpt lat="39.849311" lon="-6.043521">
        <ele>242.1</ele>
        <time>1970-01-01T00:00:00Z</time>
      </trkpt>
      <trkpt lat="39.849348" lon="-6.043424">
        <ele>243.0</ele>
        <time>1970-01-01T00:00:00Z</time>
      </trkpt>
      <trkpt lat="39.849335" lon="-6.043329">
        <ele>243.4</ele>
        <time>1970-01-01T00:00:00Z</time>
      </trkpt>
      <trkpt lat="39.849293" lon="-6.043191">
        <ele>244.3</ele>
        <time>1970-01-01T00:00:00Z</time>
      </trkpt>
      <trkpt lat="39.849274" lon="-6.042963">
        <ele>246.1</ele>
        <time>1970-01-01T00:00:00Z</time>
      </trkpt>
      <trkpt lat="39.849278" lon="-6.042886">
        <ele>246.8</ele>
        <time>1970-01-01T00:00:00Z</time>
      </trkpt>
      <trkpt lat="39.849255" lon="-6.042752">
        <ele>247.9</ele>
        <time>1970-01-01T00:00:00Z</time>
      </trkpt>
      <trkpt lat="39.849246" lon="-6.042351">
        <ele>250.8</ele>
        <time>1970-01-01T00:00:00Z</time>
      </trkpt>
      <trkpt lat="39.849256" lon="-6.042190">
        <ele>251.2</ele>
        <time>1970-01-01T00:00:00Z</time>
      </trkpt>
      <trkpt lat="39.849467" lon="-6.041643">
        <ele>252.7</ele>
        <time>1970-01-01T00:00:00Z</time>
      </trkpt>
      <trkpt lat="39.849703" lon="-6.041206">
        <ele>253.4</ele>
        <time>1970-01-01T00:00:00Z</time>
      </trkpt>
      <trkpt lat="39.849753" lon="-6.041069">
        <ele>254.6</ele>
        <time>1970-01-01T00:00:00Z</time>
      </trkpt>
      <trkpt lat="39.849797" lon="-6.040854">
        <ele>255.7</ele>
        <time>1970-01-01T00:00:00Z</time>
      </trkpt>
      <trkpt lat="39.849858" lon="-6.040705">
        <ele>256.0</ele>
        <time>1970-01-01T00:00:00Z</time>
      </trkpt>
      <trkpt lat="39.849963" lon="-6.040554">
        <ele>256.0</ele>
        <time>1970-01-01T00:00:00Z</time>
      </trkpt>
      <trkpt lat="39.850159" lon="-6.040323">
        <ele>256.5</ele>
        <time>1970-01-01T00:00:00Z</time>
      </trkpt>
      <trkpt lat="39.850498" lon="-6.040066">
        <ele>258.7</ele>
        <time>1970-01-01T00:00:00Z</time>
      </trkpt>
      <trkpt lat="39.850956" lon="-6.039614">
        <ele>263.5</ele>
        <time>1970-01-01T00:00:00Z</time>
      </trkpt>
      <trkpt lat="39.850881" lon="-6.039430">
        <ele>263.6</ele>
        <time>1970-01-01T00:00:00Z</time>
      </trkpt>
      <trkpt lat="39.850808" lon="-6.039377">
        <ele>263.2</ele>
        <time>1970-01-01T00:00:00Z</time>
      </trkpt>
      <trkpt lat="39.850516" lon="-6.039322">
        <ele>259.7</ele>
        <time>1970-01-01T00:00:00Z</time>
      </trkpt>
      <trkpt lat="39.850432" lon="-6.039326">
        <ele>258.6</ele>
        <time>1970-01-01T00:00:00Z</time>
      </trkpt>
      <trkpt lat="39.850324" lon="-6.039294">
        <ele>257.4</ele>
        <time>1970-01-01T00:00:00Z</time>
      </trkpt>
      <trkpt lat="39.850232" lon="-6.039245">
        <ele>257.0</ele>
        <time>1970-01-01T00:00:00Z</time>
      </trkpt>
      <trkpt lat="39.850110" lon="-6.039015">
        <ele>256.1</ele>
        <time>1970-01-01T00:00:00Z</time>
      </trkpt>
      <trkpt lat="39.850005" lon="-6.038706">
        <ele>257.0</ele>
        <time>1970-01-01T00:00:00Z</time>
      </trkpt>
      <trkpt lat="39.849906" lon="-6.038192">
        <ele>260.4</ele>
        <time>1970-01-01T00:00:00Z</time>
      </trkpt>
      <trkpt lat="39.849935" lon="-6.038047">
        <ele>261.7</ele>
        <time>1970-01-01T00:00:00Z</time>
      </trkpt>
      <trkpt lat="39.849944" lon="-6.037780">
        <ele>264.0</ele>
        <time>1970-01-01T00:00:00Z</time>
      </trkpt>
      <trkpt lat="39.849933" lon="-6.037631">
        <ele>265.3</ele>
        <time>1970-01-01T00:00:00Z</time>
      </trkpt>
      <trkpt lat="39.849892" lon="-6.037432">
        <ele>266.6</ele>
        <time>1970-01-01T00:00:00Z</time>
      </trkpt>
      <trkpt lat="39.849831" lon="-6.037221">
        <ele>268.1</ele>
        <time>1970-01-01T00:00:00Z</time>
      </trkpt>
      <trkpt lat="39.849755" lon="-6.036562">
        <ele>272.6</ele>
        <time>1970-01-01T00:00:00Z</time>
      </trkpt>
      <trkpt lat="39.849537" lon="-6.035479">
        <ele>281.4</ele>
        <time>1970-01-01T00:00:00Z</time>
      </trkpt>
      <trkpt lat="39.849494" lon="-6.035215">
        <ele>284.0</ele>
        <time>1970-01-01T00:00:00Z</time>
      </trkpt>
      <trkpt lat="39.849482" lon="-6.035024">
        <ele>286.4</ele>
        <time>1970-01-01T00:00:00Z</time>
      </trkpt>
      <trkpt lat="39.849428" lon="-6.034760">
        <ele>289.3</ele>
        <time>1970-01-01T00:00:00Z</time>
      </trkpt>
      <trkpt lat="39.849501" lon="-6.034599">
        <ele>291.3</ele>
        <time>1970-01-01T00:00:00Z</time>
      </trkpt>
      <trkpt lat="39.849635" lon="-6.034356">
        <ele>294.6</ele>
        <time>1970-01-01T00:00:00Z</time>
      </trkpt>
      <trkpt lat="39.849719" lon="-6.034154">
        <ele>297.0</ele>
        <time>1970-01-01T00:00:00Z</time>
      </trkpt>
      <trkpt lat="39.849713" lon="-6.033654">
        <ele>299.3</ele>
        <time>1970-01-01T00:00:00Z</time>
      </trkpt>
      <trkpt lat="39.849681" lon="-6.033338">
        <ele>300.4</ele>
        <time>1970-01-01T00:00:00Z</time>
      </trkpt>
      <trkpt lat="39.849675" lon="-6.033135">
        <ele>301.2</ele>
        <time>1970-01-01T00:00:00Z</time>
      </trkpt>
      <trkpt lat="39.849734" lon="-6.032831">
        <ele>302.6</ele>
        <time>1970-01-01T00:00:00Z</time>
      </trkpt>
      <trkpt lat="39.849721" lon="-6.032304">
        <ele>303.6</ele>
        <time>1970-01-01T00:00:00Z</time>
      </trkpt>
      <trkpt lat="39.849674" lon="-6.032156">
        <ele>303.6</ele>
        <time>1970-01-01T00:00:00Z</time>
      </trkpt>
      <trkpt lat="39.849446" lon="-6.031965">
        <ele>302.4</ele>
        <time>1970-01-01T00:00:00Z</time>
      </trkpt>
      <trkpt lat="39.849173" lon="-6.031763">
        <ele>300.0</ele>
        <time>1970-01-01T00:00:00Z</time>
      </trkpt>
      <trkpt lat="39.849157" lon="-6.031564">
        <ele>299.8</ele>
        <time>1970-01-01T00:00:00Z</time>
      </trkpt>
      <trkpt lat="39.849127" lon="-6.031464">
        <ele>299.4</ele>
        <time>1970-01-01T00:00:00Z</time>
      </trkpt>
      <trkpt lat="39.849047" lon="-6.031383">
        <ele>298.4</ele>
        <time>1970-01-01T00:00:00Z</time>
      </trkpt>
      <trkpt lat="39.848924" lon="-6.030992">
        <ele>298.2</ele>
        <time>1970-01-01T00:00:00Z</time>
      </trkpt>
      <trkpt lat="39.848652" lon="-6.030520">
        <ele>298.1</ele>
        <time>1970-01-01T00:00:00Z</time>
      </trkpt>
      <trkpt lat="39.848659" lon="-6.030418">
        <ele>298.6</ele>
        <time>1970-01-01T00:00:00Z</time>
      </trkpt>
    </trkseg>
    <trkseg>
      <trkpt lat="39.848659" lon="-6.030418">
        <ele>298.6</ele>
        <time>1970-01-01T00:00:00Z</time>
      </trkpt>
      <trkpt lat="39.848699" lon="-6.030339">
        <ele>299.0</ele>
        <time>1970-01-01T00:00:00Z</time>
      </trkpt>
      <trkpt lat="39.848705" lon="-6.030261">
        <ele>299.0</ele>
        <time>1970-01-01T00:00:00Z</time>
      </trkpt>
      <trkpt lat="39.848684" lon="-6.029934">
        <ele>299.1</ele>
        <time>1970-01-01T00:00:00Z</time>
      </trkpt>
      <trkpt lat="39.848685" lon="-6.029784">
        <ele>299.7</ele>
        <time>1970-01-01T00:00:00Z</time>
      </trkpt>
      <trkpt lat="39.848707" lon="-6.029597">
        <ele>299.7</ele>
        <time>1970-01-01T00:00:00Z</time>
      </trkpt>
      <trkpt lat="39.848927" lon="-6.028919">
        <ele>295.8</ele>
        <time>1970-01-01T00:00:00Z</time>
      </trkpt>
      <trkpt lat="39.848938" lon="-6.028774">
        <ele>295.1</ele>
        <time>1970-01-01T00:00:00Z</time>
      </trkpt>
      <trkpt lat="39.848985" lon="-6.028598">
        <ele>294.0</ele>
        <time>1970-01-01T00:00:00Z</time>
      </trkpt>
      <trkpt lat="39.849021" lon="-6.028307">
        <ele>291.8</ele>
        <time>1970-01-01T00:00:00Z</time>
      </trkpt>
      <trkpt lat="39.849059" lon="-6.028223">
        <ele>291.2</ele>
        <time>1970-01-01T00:00:00Z</time>
      </trkpt>
      <trkpt lat="39.849139" lon="-6.028174">
        <ele>290.7</ele>
        <time>1970-01-01T00:00:00Z</time>
      </trkpt>
      <trkpt lat="39.849190" lon="-6.028119">
        <ele>290.2</ele>
        <time>1970-01-01T00:00:00Z</time>
      </trkpt>
      <trkpt lat="39.849267" lon="-6.027999">
        <ele>288.9</ele>
        <time>1970-01-01T00:00:00Z</time>
      </trkpt>
      <trkpt lat="39.849305" lon="-6.027776">
        <ele>286.4</ele>
        <time>1970-01-01T00:00:00Z</time>
      </trkpt>
      <trkpt lat="39.849291" lon="-6.027528">
        <ele>283.6</ele>
        <time>1970-01-01T00:00:00Z</time>
      </trkpt>
      <trkpt lat="39.849246" lon="-6.027350">
        <ele>282.3</ele>
        <time>1970-01-01T00:00:00Z</time>
      </trkpt>
      <trkpt lat="39.848816" lon="-6.026495">
        <ele>279.7</ele>
        <time>1970-01-01T00:00:00Z</time>
      </trkpt>
      <trkpt lat="39.848847" lon="-6.026412">
        <ele>279.4</ele>
        <time>1970-01-01T00:00:00Z</time>
      </trkpt>
      <trkpt lat="39.849106" lon="-6.026278">
        <ele>280.2</ele>
        <time>1970-01-01T00:00:00Z</time>
      </trkpt>
      <trkpt lat="39.849134" lon="-6.026173">
        <ele>280.8</ele>
        <time>1970-01-01T00:00:00Z</time>
      </trkpt>
      <trkpt lat="39.849139" lon="-6.026037">
        <ele>281.4</ele>
        <time>1970-01-01T00:00:00Z</time>
      </trkpt>
      <trkpt lat="39.848767" lon="-6.025531">
        <ele>277.8</ele>
        <time>1970-01-01T00:00:00Z</time>
      </trkpt>
      <trkpt lat="39.848674" lon="-6.025378">
        <ele>276.8</ele>
        <time>1970-01-01T00:00:00Z</time>
      </trkpt>
      <trkpt lat="39.848641" lon="-6.025253">
        <ele>276.3</ele>
        <time>1970-01-01T00:00:00Z</time>
      </trkpt>
      <trkpt lat="39.848619" lon="-6.025074">
        <ele>275.3</ele>
        <time>1970-01-01T00:00:00Z</time>
      </trkpt>
      <trkpt lat="39.848625" lon="-6.024698">
        <ele>274.3</ele>
        <time>1970-01-01T00:00:00Z</time>
      </trkpt>
      <trkpt lat="39.848657" lon="-6.024437">
        <ele>274.5</ele>
        <time>1970-01-01T00:00:00Z</time>
      </trkpt>
      <trkpt lat="39.848773" lon="-6.023906">
        <ele>276.3</ele>
        <time>1970-01-01T00:00:00Z</time>
      </trkpt>
      <trkpt lat="39.848810" lon="-6.023759">
        <ele>276.8</ele>
        <time>1970-01-01T00:00:00Z</time>
      </trkpt>
      <trkpt lat="39.848873" lon="-6.023608">
        <ele>276.8</ele>
        <time>1970-01-01T00:00:00Z</time>
      </trkpt>
      <trkpt lat="39.848988" lon="-6.023228">
        <ele>275.1</ele>
        <time>1970-01-01T00:00:00Z</time>
      </trkpt>
      <trkpt lat="39.849012" lon="-6.023159">
        <ele>275.0</ele>
        <time>1970-01-01T00:00:00Z</time>
      </trkpt>
      <trkpt lat="39.849261" lon="-6.023032">
        <ele>275.0</ele>
        <time>1970-01-01T00:00:00Z</time>
      </trkpt>
      <trkpt lat="39.849398" lon="-6.022902">
        <ele>274.7</ele>
        <time>1970-01-01T00:00:00Z</time>
      </trkpt>
      <trkpt lat="39.849462" lon="-6.022744">
        <ele>274.5</ele>
        <time>1970-01-01T00:00:00Z</time>
      </trkpt>
      <trkpt lat="39.849487" lon="-6.022500">
        <ele>274.7</ele>
        <time>1970-01-01T00:00:00Z</time>
      </trkpt>
      <trkpt lat="39.849487" lon="-6.022292">
        <ele>274.1</ele>
        <time>1970-01-01T00:00:00Z</time>
      </trkpt>
      <trkpt lat="39.849424" lon="-6.022156">
        <ele>272.8</ele>
        <time>1970-01-01T00:00:00Z</time>
      </trkpt>
      <trkpt lat="39.849328" lon="-6.021573">
        <ele>270.0</ele>
        <time>1970-01-01T00:00:00Z</time>
      </trkpt>
      <trkpt lat="39.849300" lon="-6.021487">
        <ele>270.0</ele>
        <time>1970-01-01T00:00:00Z</time>
      </trkpt>
      <trkpt lat="39.849204" lon="-6.021345">
        <ele>269.4</ele>
        <time>1970-01-01T00:00:00Z</time>
      </trkpt>
      <trkpt lat="39.849098" lon="-6.021125">
        <ele>268.4</ele>
        <time>1970-01-01T00:00:00Z</time>
      </trkpt>
      <trkpt lat="39.849042" lon="-6.020977">
        <ele>268.5</ele>
        <time>1970-01-01T00:00:00Z</time>
      </trkpt>
      <trkpt lat="39.848920" lon="-6.020568">
        <ele>269.3</ele>
        <time>1970-01-01T00:00:00Z</time>
      </trkpt>
      <trkpt lat="39.848830" lon="-6.019990">
        <ele>271.7</ele>
        <time>1970-01-01T00:00:00Z</time>
      </trkpt>
      <trkpt lat="39.848671" lon="-6.019127">
        <ele>276.9</ele>
        <time>1970-01-01T00:00:00Z</time>
      </trkpt>
      <trkpt lat="39.848593" lon="-6.018834">
        <ele>278.2</ele>
        <time>1970-01-01T00:00:00Z</time>
      </trkpt>
      <trkpt lat="39.848569" lon="-6.018591">
        <ele>279.1</ele>
        <time>1970-01-01T00:00:00Z</time>
      </trkpt>
      <trkpt lat="39.848596" lon="-6.018266">
        <ele>281.3</ele>
        <time>1970-01-01T00:00:00Z</time>
      </trkpt>
      <trkpt lat="39.848520" lon="-6.017965">
        <ele>281.5</ele>
        <time>1970-01-01T00:00:00Z</time>
      </trkpt>
      <trkpt lat="39.848469" lon="-6.017884">
        <ele>280.9</ele>
        <time>1970-01-01T00:00:00Z</time>
      </trkpt>
      <trkpt lat="39.848084" lon="-6.017877">
        <ele>276.9</ele>
        <time>1970-01-01T00:00:00Z</time>
      </trkpt>
      <trkpt lat="39.847872" lon="-6.017813">
        <ele>274.6</ele>
        <time>1970-01-01T00:00:00Z</time>
      </trkpt>
      <trkpt lat="39.847775" lon="-6.017755">
        <ele>273.3</ele>
        <time>1970-01-01T00:00:00Z</time>
      </trkpt>
      <trkpt lat="39.847503" lon="-6.017406">
        <ele>267.1</ele>
        <time>1970-01-01T00:00:00Z</time>
      </trkpt>
      <trkpt lat="39.847480" lon="-6.017361">
        <ele>266.5</ele>
        <time>1970-01-01T00:00:00Z</time>
      </trkpt>
      <trkpt lat="39.847411" lon="-6.017145">
        <ele>264.4</ele>
        <time>1970-01-01T00:00:00Z</time>
      </trkpt>
      <trkpt lat="39.847325" lon="-6.016785">
        <ele>261.4</ele>
        <time>1970-01-01T00:00:00Z</time>
      </trkpt>
      <trkpt lat="39.847285" lon="-6.016363">
        <ele>261.7</ele>
        <time>1970-01-01T00:00:00Z</time>
      </trkpt>
      <trkpt lat="39.847280" lon="-6.016177">
        <ele>262.0</ele>
        <time>1970-01-01T00:00:00Z</time>
      </trkpt>
      <trkpt lat="39.847366" lon="-6.015956">
        <ele>263.8</ele>
        <time>1970-01-01T00:00:00Z</time>
      </trkpt>
      <trkpt lat="39.847343" lon="-6.015819">
        <ele>263.5</ele>
        <time>1970-01-01T00:00:00Z</time>
      </trkpt>
      <trkpt lat="39.847352" lon="-6.015537">
        <ele>264.8</ele>
        <time>1970-01-01T00:00:00Z</time>
      </trkpt>
      <trkpt lat="39.847340" lon="-6.015260">
        <ele>265.5</ele>
        <time>1970-01-01T00:00:00Z</time>
      </trkpt>
      <trkpt lat="39.847388" lon="-6.015153">
        <ele>266.9</ele>
        <time>1970-01-01T00:00:00Z</time>
      </trkpt>
      <trkpt lat="39.847416" lon="-6.015028">
        <ele>267.6</ele>
        <time>1970-01-01T00:00:00Z</time>
      </trkpt>
      <trkpt lat="39.847384" lon="-6.014893">
        <ele>266.0</ele>
        <time>1970-01-01T00:00:00Z</time>
      </trkpt>
      <trkpt lat="39.847400" lon="-6.014785">
        <ele>266.2</ele>
        <time>1970-01-01T00:00:00Z</time>
      </trkpt>
      <trkpt lat="39.847392" lon="-6.014705">
        <ele>265.7</ele>
        <time>1970-01-01T00:00:00Z</time>
      </trkpt>
      <trkpt lat="39.847313" lon="-6.014551">
        <ele>262.8</ele>
        <time>1970-01-01T00:00:00Z</time>
      </trkpt>
      <trkpt lat="39.847180" lon="-6.014367">
        <ele>259.0</ele>
        <time>1970-01-01T00:00:00Z</time>
      </trkpt>
      <trkpt lat="39.847019" lon="-6.014105">
        <ele>255.6</ele>
        <time>1970-01-01T00:00:00Z</time>
      </trkpt>
      <trkpt lat="39.847023" lon="-6.013964">
        <ele>257.4</ele>
        <time>1970-01-01T00:00:00Z</time>
      </trkpt>
      <trkpt lat="39.847279" lon="-6.013491">
        <ele>275.3</ele>
        <time>1970-01-01T00:00:00Z</time>
      </trkpt>
      <trkpt lat="39.847273" lon="-6.013374">
        <ele>276.6</ele>
        <time>1970-01-01T00:00:00Z</time>
      </trkpt>
      <trkpt lat="39.847229" lon="-6.013224">
        <ele>277.1</ele>
        <time>1970-01-01T00:00:00Z</time>
      </trkpt>
      <trkpt lat="39.847069" lon="-6.013051">
        <ele>273.7</ele>
        <time>1970-01-01T00:00:00Z</time>
      </trkpt>
      <trkpt lat="39.846982" lon="-6.012983">
        <ele>271.1</ele>
        <time>1970-01-01T00:00:00Z</time>
      </trkpt>
      <trkpt lat="39.846922" lon="-6.012914">
        <ele>269.4</ele>
        <time>1970-01-01T00:00:00Z</time>
      </trkpt>
      <trkpt lat="39.846868" lon="-6.012805">
        <ele>268.2</ele>
        <time>1970-01-01T00:00:00Z</time>
      </trkpt>
      <trkpt lat="39.846803" lon="-6.012651">
        <ele>266.5</ele>
        <time>1970-01-01T00:00:00Z</time>
      </trkpt>
      <trkpt lat="39.846758" lon="-6.012429">
        <ele>265.2</ele>
        <time>1970-01-01T00:00:00Z</time>
      </trkpt>
      <trkpt lat="39.846743" lon="-6.012176">
        <ele>263.7</ele>
        <time>1970-01-01T00:00:00Z</time>
      </trkpt>
      <trkpt lat="39.846801" lon="-6.011580">
        <ele>263.3</ele>
        <time>1970-01-01T00:00:00Z</time>
      </trkpt>
      <trkpt lat="39.846805" lon="-6.011422">
        <ele>261.4</ele>
        <time>1970-01-01T00:00:00Z</time>
      </trkpt>
      <trkpt lat="39.846832" lon="-6.011262">
        <ele>261.3</ele>
        <time>1970-01-01T00:00:00Z</time>
      </trkpt>
      <trkpt lat="39.846889" lon="-6.011111">
        <ele>263.1</ele>
        <time>1970-01-01T00:00:00Z</time>
      </trkpt>
      <trkpt lat="39.846950" lon="-6.010842">
        <ele>262.3</ele>
        <time>1970-01-01T00:00:00Z</time>
      </trkpt>
      <trkpt lat="39.846965" lon="-6.010603">
        <ele>258.5</ele>
        <time>1970-01-01T00:00:00Z</time>
      </trkpt>
      <trkpt lat="39.847053" lon="-6.010235">
        <ele>257.9</ele>
        <time>1970-01-01T00:00:00Z</time>
      </trkpt>
      <trkpt lat="39.847093" lon="-6.010036">
        <ele>256.0</ele>
        <time>1970-01-01T00:00:00Z</time>
      </trkpt>
      <trkpt lat="39.847099" lon="-6.009952">
        <ele>254.9</ele>
        <time>1970-01-01T00:00:00Z</time>
      </trkpt>
      <trkpt lat="39.847116" lon="-6.009923">
        <ele>255.4</ele>
        <time>1970-01-01T00:00:00Z</time>
      </trkpt>
      <trkpt lat="39.847120" lon="-6.009864">
        <ele>254.7</ele>
        <time>1970-01-01T00:00:00Z</time>
      </trkpt>
      <trkpt lat="39.847144" lon="-6.009844">
        <ele>255.6</ele>
        <time>1970-01-01T00:00:00Z</time>
      </trkpt>
      <trkpt lat="39.847144" lon="-6.009799">
        <ele>255.0</ele>
        <time>1970-01-01T00:00:00Z</time>
      </trkpt>
      <trkpt lat="39.847189" lon="-6.009749">
        <ele>256.5</ele>
        <time>1970-01-01T00:00:00Z</time>
      </trkpt>
      <trkpt lat="39.847168" lon="-6.009640">
        <ele>254.2</ele>
        <time>1970-01-01T00:00:00Z</time>
      </trkpt>
      <trkpt lat="39.847222" lon="-6.009601">
        <ele>256.5</ele>
        <time>1970-01-01T00:00:00Z</time>
      </trkpt>
      <trkpt lat="39.847236" lon="-6.009568">
        <ele>256.9</ele>
        <time>1970-01-01T00:00:00Z</time>
      </trkpt>
      <trkpt lat="39.847280" lon="-6.009551">
        <ele>259.0</ele>
        <time>1970-01-01T00:00:00Z</time>
      </trkpt>
      <trkpt lat="39.847281" lon="-6.009508">
        <ele>258.7</ele>
        <time>1970-01-01T00:00:00Z</time>
      </trkpt>
      <trkpt lat="39.847342" lon="-6.009464">
        <ele>261.1</ele>
        <time>1970-01-01T00:00:00Z</time>
      </trkpt>
      <trkpt lat="39.847356" lon="-6.009346">
        <ele>260.7</ele>
        <time>1970-01-01T00:00:00Z</time>
      </trkpt>
      <trkpt lat="39.847392" lon="-6.009312">
        <ele>261.8</ele>
        <time>1970-01-01T00:00:00Z</time>
      </trkpt>
      <trkpt lat="39.847406" lon="-6.009254">
        <ele>262.2</ele>
        <time>1970-01-01T00:00:00Z</time>
      </trkpt>
      <trkpt lat="39.847456" lon="-6.009161">
        <ele>264.0</ele>
        <time>1970-01-01T00:00:00Z</time>
      </trkpt>
      <trkpt lat="39.847401" lon="-6.008926">
        <ele>261.5</ele>
        <time>1970-01-01T00:00:00Z</time>
      </trkpt>
      <trkpt lat="39.847369" lon="-6.008864">
        <ele>260.1</ele>
        <time>1970-01-01T00:00:00Z</time>
      </trkpt>
      <trkpt lat="39.847363" lon="-6.008796">
        <ele>260.0</ele>
        <time>1970-01-01T00:00:00Z</time>
      </trkpt>
      <trkpt lat="39.847404" lon="-6.008676">
        <ele>262.1</ele>
        <time>1970-01-01T00:00:00Z</time>
      </trkpt>
      <trkpt lat="39.847410" lon="-6.008616">
        <ele>262.5</ele>
        <time>1970-01-01T00:00:00Z</time>
      </trkpt>
      <trkpt lat="39.847269" lon="-6.008350">
        <ele>258.4</ele>
        <time>1970-01-01T00:00:00Z</time>
      </trkpt>
      <trkpt lat="39.847163" lon="-6.008253">
        <ele>255.2</ele>
        <time>1970-01-01T00:00:00Z</time>
      </trkpt>
      <trkpt lat="39.847087" lon="-6.008162">
        <ele>252.8</ele>
        <time>1970-01-01T00:00:00Z</time>
      </trkpt>
      <trkpt lat="39.847022" lon="-6.007999">
        <ele>252.0</ele>
        <time>1970-01-01T00:00:00Z</time>
      </trkpt>
      <trkpt lat="39.846955" lon="-6.007933">
        <ele>250.0</ele>
        <time>1970-01-01T00:00:00Z</time>
      </trkpt>
      <trkpt lat="39.846940" lon="-6.007889">
        <ele>249.8</ele>
        <time>1970-01-01T00:00:00Z</time>
      </trkpt>
      <trkpt lat="39.846841" lon="-6.007802">
        <ele>246.8</ele>
        <time>1970-01-01T00:00:00Z</time>
      </trkpt>
      <trkpt lat="39.846738" lon="-6.007665">
        <ele>244.1</ele>
        <time>1970-01-01T00:00:00Z</time>
      </trkpt>
      <trkpt lat="39.846656" lon="-6.007521">
        <ele>242.4</ele>
        <time>1970-01-01T00:00:00Z</time>
      </trkpt>
      <trkpt lat="39.846635" lon="-6.007406">
        <ele>242.8</ele>
        <time>1970-01-01T00:00:00Z</time>
      </trkpt>
      <trkpt lat="39.846637" lon="-6.007263">
        <ele>244.1</ele>
        <time>1970-01-01T00:00:00Z</time>
      </trkpt>
      <trkpt lat="39.846606" lon="-6.007067">
        <ele>245.1</ele>
        <time>1970-01-01T00:00:00Z</time>
      </trkpt>
      <trkpt lat="39.846619" lon="-6.007029">
        <ele>246.2</ele>
        <time>1970-01-01T00:00:00Z</time>
      </trkpt>
      <trkpt lat="39.846626" lon="-6.006871">
        <ele>247.5</ele>
        <time>1970-01-01T00:00:00Z</time>
      </trkpt>
      <trkpt lat="39.846527" lon="-6.006684">
        <ele>244.4</ele>
        <time>1970-01-01T00:00:00Z</time>
      </trkpt>
      <trkpt lat="39.846526" lon="-6.006645">
        <ele>244.7</ele>
        <time>1970-01-01T00:00:00Z</time>
      </trkpt>
      <trkpt lat="39.846546" lon="-6.006601">
        <ele>245.9</ele>
        <time>1970-01-01T00:00:00Z</time>
      </trkpt>
      <trkpt lat="39.846549" lon="-6.006520">
        <ele>246.7</ele>
        <time>1970-01-01T00:00:00Z</time>
      </trkpt>
      <trkpt lat="39.846510" lon="-6.006395">
        <ele>245.3</ele>
        <time>1970-01-01T00:00:00Z</time>
      </trkpt>
      <trkpt lat="39.846420" lon="-6.006215">
        <ele>242.4</ele>
        <time>1970-01-01T00:00:00Z</time>
      </trkpt>
      <trkpt lat="39.846432" lon="-6.006158">
        <ele>243.1</ele>
        <time>1970-01-01T00:00:00Z</time>
      </trkpt>
      <trkpt lat="39.846405" lon="-6.006055">
        <ele>242.4</ele>
        <time>1970-01-01T00:00:00Z</time>
      </trkpt>
      <trkpt lat="39.846383" lon="-6.005805">
        <ele>242.4</ele>
        <time>1970-01-01T00:00:00Z</time>
      </trkpt>
      <trkpt lat="39.846357" lon="-6.005674">
        <ele>240.9</ele>
        <time>1970-01-01T00:00:00Z</time>
      </trkpt>
      <trkpt lat="39.846318" lon="-6.005564">
        <ele>239.3</ele>
        <time>1970-01-01T00:00:00Z</time>
      </trkpt>
      <trkpt lat="39.846195" lon="-6.005340">
        <ele>235.8</ele>
        <time>1970-01-01T00:00:00Z</time>
      </trkpt>
      <trkpt lat="39.846088" lon="-6.005095">
        <ele>234.3</ele>
        <time>1970-01-01T00:00:00Z</time>
      </trkpt>
      <trkpt lat="39.846081" lon="-6.005046">
        <ele>234.5</ele>
        <time>1970-01-01T00:00:00Z</time>
      </trkpt>
      <trkpt lat="39.846096" lon="-6.004814">
        <ele>235.8</ele>
        <time>1970-01-01T00:00:00Z</time>
      </trkpt>
      <trkpt lat="39.846092" lon="-6.004733">
        <ele>236.1</ele>
        <time>1970-01-01T00:00:00Z</time>
      </trkpt>
      <trkpt lat="39.846067" lon="-6.004683">
        <ele>236.2</ele>
        <time>1970-01-01T00:00:00Z</time>
      </trkpt>
      <trkpt lat="39.846020" lon="-6.004684">
        <ele>235.7</ele>
        <time>1970-01-01T00:00:00Z</time>
      </trkpt>
      <trkpt lat="39.846000" lon="-6.004701">
        <ele>235.5</ele>
        <time>1970-01-01T00:00:00Z</time>
      </trkpt>
      <trkpt lat="39.845565" lon="-6.004699">
        <ele>233.8</ele>
        <time>1970-01-01T00:00:00Z</time>
      </trkpt>
      <trkpt lat="39.845409" lon="-6.004745">
        <ele>232.9</ele>
        <time>1970-01-01T00:00:00Z</time>
      </trkpt>
      <trkpt lat="39.845209" lon="-6.004752">
        <ele>231.8</ele>
        <time>1970-01-01T00:00:00Z</time>
      </trkpt>
      <trkpt lat="39.845085" lon="-6.004741">
        <ele>230.7</ele>
        <time>1970-01-01T00:00:00Z</time>
      </trkpt>
      <trkpt lat="39.844966" lon="-6.004693">
        <ele>229.9</ele>
        <time>1970-01-01T00:00:00Z</time>
      </trkpt>
      <trkpt lat="39.844900" lon="-6.004687">
        <ele>228.6</ele>
        <time>1970-01-01T00:00:00Z</time>
      </trkpt>
      <trkpt lat="39.844876" lon="-6.004667">
        <ele>228.3</ele>
        <time>1970-01-01T00:00:00Z</time>
      </trkpt>
      <trkpt lat="39.844850" lon="-6.004613">
        <ele>228.2</ele>
        <time>1970-01-01T00:00:00Z</time>
      </trkpt>
      <trkpt lat="39.844750" lon="-6.004363">
        <ele>227.7</ele>
        <time>1970-01-01T00:00:00Z</time>
      </trkpt>
      <trkpt lat="39.844727" lon="-6.004233">
        <ele>227.5</ele>
        <time>1970-01-01T00:00:00Z</time>
      </trkpt>
      <trkpt lat="39.844712" lon="-6.004010">
        <ele>228.0</ele>
        <time>1970-01-01T00:00:00Z</time>
      </trkpt>
      <trkpt lat="39.844691" lon="-6.003971">
        <ele>227.5</ele>
        <time>1970-01-01T00:00:00Z</time>
      </trkpt>
      <trkpt lat="39.844690" lon="-6.003908">
        <ele>227.6</ele>
        <time>1970-01-01T00:00:00Z</time>
      </trkpt>
      <trkpt lat="39.844676" lon="-6.003866">
        <ele>227.2</ele>
        <time>1970-01-01T00:00:00Z</time>
      </trkpt>
      <trkpt lat="39.844641" lon="-6.003804">
        <ele>226.4</ele>
        <time>1970-01-01T00:00:00Z</time>
      </trkpt>
      <trkpt lat="39.844615" lon="-6.003709">
        <ele>225.9</ele>
        <time>1970-01-01T00:00:00Z</time>
      </trkpt>
      <trkpt lat="39.844503" lon="-6.003474">
        <ele>223.0</ele>
        <time>1970-01-01T00:00:00Z</time>
      </trkpt>
      <trkpt lat="39.844447" lon="-6.003404">
        <ele>221.6</ele>
        <time>1970-01-01T00:00:00Z</time>
      </trkpt>
      <trkpt lat="39.844408" lon="-6.003401">
        <ele>220.9</ele>
        <time>1970-01-01T00:00:00Z</time>
      </trkpt>
      <trkpt lat="39.844283" lon="-6.003446">
        <ele>218.6</ele>
        <time>1970-01-01T00:00:00Z</time>
      </trkpt>
      <trkpt lat="39.844249" lon="-6.003483">
        <ele>218.0</ele>
        <time>1970-01-01T00:00:00Z</time>
      </trkpt>
      <trkpt lat="39.844181" lon="-6.003615">
        <ele>216.6</ele>
        <time>1970-01-01T00:00:00Z</time>
      </trkpt>
      <trkpt lat="39.844134" lon="-6.003839">
        <ele>215.3</ele>
        <time>1970-01-01T00:00:00Z</time>
      </trkpt>
      <trkpt lat="39.844079" lon="-6.003869">
        <ele>214.5</ele>
        <time>1970-01-01T00:00:00Z</time>
      </trkpt>
      <trkpt lat="39.843974" lon="-6.004077">
        <ele>213.1</ele>
        <time>1970-01-01T00:00:00Z</time>
      </trkpt>
      <trkpt lat="39.843883" lon="-6.004133">
        <ele>212.5</ele>
        <time>1970-01-01T00:00:00Z</time>
      </trkpt>
      <trkpt lat="39.843743" lon="-6.004251">
        <ele>212.4</ele>
        <time>1970-01-01T00:00:00Z</time>
      </trkpt>
      <trkpt lat="39.843706" lon="-6.004241">
        <ele>212.5</ele>
        <time>1970-01-01T00:00:00Z</time>
      </trkpt>
      <trkpt lat="39.843678" lon="-6.004249">
        <ele>212.6</ele>
        <time>1970-01-01T00:00:00Z</time>
      </trkpt>
      <trkpt lat="39.843542" lon="-6.004372">
        <ele>213.6</ele>
        <time>1970-01-01T00:00:00Z</time>
      </trkpt>
      <trkpt lat="39.843404" lon="-6.004532">
        <ele>215.3</ele>
        <time>1970-01-01T00:00:00Z</time>
      </trkpt>
      <trkpt lat="39.843315" lon="-6.004748">
        <ele>216.2</ele>
        <time>1970-01-01T00:00:00Z</time>
      </trkpt>
      <trkpt lat="39.843236" lon="-6.005111">
        <ele>214.9</ele>
        <time>1970-01-01T00:00:00Z</time>
      </trkpt>
      <trkpt lat="39.843177" lon="-6.005281">
        <ele>213.8</ele>
        <time>1970-01-01T00:00:00Z</time>
      </trkpt>
      <trkpt lat="39.843115" lon="-6.005387">
        <ele>213.3</ele>
        <time>1970-01-01T00:00:00Z</time>
      </trkpt>
      <trkpt lat="39.842962" lon="-6.005486">
        <ele>213.5</ele>
        <time>1970-01-01T00:00:00Z</time>
      </trkpt>
      <trkpt lat="39.842824" lon="-6.005524">
        <ele>213.2</ele>
        <time>1970-01-01T00:00:00Z</time>
      </trkpt>
      <trkpt lat="39.842772" lon="-6.005523">
        <ele>213.3</ele>
        <time>1970-01-01T00:00:00Z</time>
      </trkpt>
      <trkpt lat="39.842624" lon="-6.005478">
        <ele>214.8</ele>
        <time>1970-01-01T00:00:00Z</time>
      </trkpt>
      <trkpt lat="39.842461" lon="-6.005478">
        <ele>214.8</ele>
        <time>1970-01-01T00:00:00Z</time>
      </trkpt>
      <trkpt lat="39.842305" lon="-6.005430">
        <ele>215.6</ele>
        <time>1970-01-01T00:00:00Z</time>
      </trkpt>
      <trkpt lat="39.842262" lon="-6.005440">
        <ele>215.1</ele>
        <time>1970-01-01T00:00:00Z</time>
      </trkpt>
      <trkpt lat="39.842097" lon="-6.005535">
        <ele>210.0</ele>
        <time>1970-01-01T00:00:00Z</time>
      </trkpt>
      <trkpt lat="39.842052" lon="-6.005527">
        <ele>209.6</ele>
        <time>1970-01-01T00:00:00Z</time>
      </trkpt>
      <trkpt lat="39.841984" lon="-6.005486">
        <ele>209.8</ele>
        <time>1970-01-01T00:00:00Z</time>
      </trkpt>
      <trkpt lat="39.841819" lon="-6.005347">
        <ele>210.2</ele>
        <time>1970-01-01T00:00:00Z</time>
      </trkpt>
      <trkpt lat="39.841785" lon="-6.005350">
        <ele>209.2</ele>
        <time>1970-01-01T00:00:00Z</time>
      </trkpt>
      <trkpt lat="39.841653" lon="-6.005415">
        <ele>203.5</ele>
        <time>1970-01-01T00:00:00Z</time>
      </trkpt>
      <trkpt lat="39.841583" lon="-6.005418">
        <ele>201.4</ele>
        <time>1970-01-01T00:00:00Z</time>
      </trkpt>
      <trkpt lat="39.841525" lon="-6.005380">
        <ele>200.7</ele>
        <time>1970-01-01T00:00:00Z</time>
      </trkpt>
      <trkpt lat="39.841502" lon="-6.005337">
        <ele>201.4</ele>
        <time>1970-01-01T00:00:00Z</time>
      </trkpt>
      <trkpt lat="39.841477" lon="-6.005216">
        <ele>204.2</ele>
        <time>1970-01-01T00:00:00Z</time>
      </trkpt>
      <trkpt lat="39.841409" lon="-6.005162">
        <ele>203.7</ele>
        <time>1970-01-01T00:00:00Z</time>
      </trkpt>
      <trkpt lat="39.841372" lon="-6.005149">
        <ele>202.9</ele>
        <time>1970-01-01T00:00:00Z</time>
      </trkpt>
      <trkpt lat="39.841300" lon="-6.005074">
        <ele>202.4</ele>
        <time>1970-01-01T00:00:00Z</time>
      </trkpt>
      <trkpt lat="39.841286" lon="-6.005039">
        <ele>202.8</ele>
        <time>1970-01-01T00:00:00Z</time>
      </trkpt>
      <trkpt lat="39.841279" lon="-6.004872">
        <ele>206.2</ele>
        <time>1970-01-01T00:00:00Z</time>
      </trkpt>
      <trkpt lat="39.841147" lon="-6.004495">
        <ele>211.2</ele>
        <time>1970-01-01T00:00:00Z</time>
      </trkpt>
      <trkpt lat="39.841115" lon="-6.004340">
        <ele>214.1</ele>
        <time>1970-01-01T00:00:00Z</time>
      </trkpt>
      <trkpt lat="39.841084" lon="-6.004259">
        <ele>215.3</ele>
        <time>1970-01-01T00:00:00Z</time>
      </trkpt>
      <trkpt lat="39.841022" lon="-6.004142">
        <ele>215.9</ele>
        <time>1970-01-01T00:00:00Z</time>
      </trkpt>
      <trkpt lat="39.840943" lon="-6.004091">
        <ele>214.3</ele>
        <time>1970-01-01T00:00:00Z</time>
      </trkpt>
      <trkpt lat="39.840880" lon="-6.004003">
        <ele>214.0</ele>
        <time>1970-01-01T00:00:00Z</time>
      </trkpt>
      <trkpt lat="39.840875" lon="-6.003889">
        <ele>215.9</ele>
        <time>1970-01-01T00:00:00Z</time>
      </trkpt>
      <trkpt lat="39.840848" lon="-6.003813">
        <ele>216.2</ele>
        <time>1970-01-01T00:00:00Z</time>
      </trkpt>
      <trkpt lat="39.840685" lon="-6.003120">
        <ele>219.3</ele>
        <time>1970-01-01T00:00:00Z</time>
      </trkpt>
      <trkpt lat="39.840651" lon="-6.003091">
        <ele>218.3</ele>
        <time>1970-01-01T00:00:00Z</time>
      </trkpt>
      <trkpt lat="39.840619" lon="-6.003033">
        <ele>217.8</ele>
        <time>1970-01-01T00:00:00Z</time>
      </trkpt>
      <trkpt lat="39.840592" lon="-6.002946">
        <ele>217.8</ele>
        <time>1970-01-01T00:00:00Z</time>
      </trkpt>
      <trkpt lat="39.840572" lon="-6.002836">
        <ele>218.3</ele>
        <time>1970-01-01T00:00:00Z</time>
      </trkpt>
      <trkpt lat="39.840575" lon="-6.002708">
        <ele>220.6</ele>
        <time>1970-01-01T00:00:00Z</time>
      </trkpt>
      <trkpt lat="39.840557" lon="-6.002390">
        <ele>224.2</ele>
        <time>1970-01-01T00:00:00Z</time>
      </trkpt>
      <trkpt lat="39.840538" lon="-6.002363">
        <ele>223.7</ele>
        <time>1970-01-01T00:00:00Z</time>
      </trkpt>
      <trkpt lat="39.840542" lon="-6.002306">
        <ele>224.6</ele>
        <time>1970-01-01T00:00:00Z</time>
      </trkpt>
      <trkpt lat="39.840509" lon="-6.002254">
        <ele>223.7</ele>
        <time>1970-01-01T00:00:00Z</time>
      </trkpt>
      <trkpt lat="39.840472" lon="-6.002100">
        <ele>223.9</ele>
        <time>1970-01-01T00:00:00Z</time>
      </trkpt>
      <trkpt lat="39.840452" lon="-6.001775">
        <ele>227.8</ele>
        <time>1970-01-01T00:00:00Z</time>
      </trkpt>
      <trkpt lat="39.840426" lon="-6.001705">
        <ele>227.8</ele>
        <time>1970-01-01T00:00:00Z</time>
      </trkpt>
      <trkpt lat="39.840351" lon="-6.001682">
        <ele>224.7</ele>
        <time>1970-01-01T00:00:00Z</time>
      </trkpt>
      <trkpt lat="39.840111" lon="-6.001174">
        <ele>223.4</ele>
        <time>1970-01-01T00:00:00Z</time>
      </trkpt>
      <trkpt lat="39.839976" lon="-6.000952">
        <ele>222.0</ele>
        <time>1970-01-01T00:00:00Z</time>
      </trkpt>
      <trkpt lat="39.839901" lon="-6.000763">
        <ele>221.3</ele>
        <time>1970-01-01T00:00:00Z</time>
      </trkpt>
      <trkpt lat="39.839862" lon="-6.000622">
        <ele>222.2</ele>
        <time>1970-01-01T00:00:00Z</time>
      </trkpt>
      <trkpt lat="39.839776" lon="-6.000502">
        <ele>220.8</ele>
        <time>1970-01-01T00:00:00Z</time>
      </trkpt>
      <trkpt lat="39.839712" lon="-6.000448">
        <ele>219.0</ele>
        <time>1970-01-01T00:00:00Z</time>
      </trkpt>
      <trkpt lat="39.839668" lon="-6.000381">
        <ele>218.1</ele>
        <time>1970-01-01T00:00:00Z</time>
      </trkpt>
      <trkpt lat="39.839640" lon="-6.000367">
        <ele>217.3</ele>
        <time>1970-01-01T00:00:00Z</time>
      </trkpt>
      <trkpt lat="39.839512" lon="-5.999878">
        <ele>217.1</ele>
        <time>1970-01-01T00:00:00Z</time>
      </trkpt>
      <trkpt lat="39.839483" lon="-5.999713">
        <ele>216.9</ele>
        <time>1970-01-01T00:00:00Z</time>
      </trkpt>
      <trkpt lat="39.839457" lon="-5.999662">
        <ele>216.0</ele>
        <time>1970-01-01T00:00:00Z</time>
      </trkpt>
      <trkpt lat="39.839425" lon="-5.999444">
        <ele>216.1</ele>
        <time>1970-01-01T00:00:00Z</time>
      </trkpt>
      <trkpt lat="39.839400" lon="-5.999387">
        <ele>215.3</ele>
        <time>1970-01-01T00:00:00Z</time>
      </trkpt>
      <trkpt lat="39.839391" lon="-5.999277">
        <ele>215.3</ele>
        <time>1970-01-01T00:00:00Z</time>
      </trkpt>
      <trkpt lat="39.839372" lon="-5.999219">
        <ele>214.5</ele>
        <time>1970-01-01T00:00:00Z</time>
      </trkpt>
      <trkpt lat="39.839360" lon="-5.999041">
        <ele>214.7</ele>
        <time>1970-01-01T00:00:00Z</time>
      </trkpt>
      <trkpt lat="39.839351" lon="-5.998607">
        <ele>217.6</ele>
        <time>1970-01-01T00:00:00Z</time>
      </trkpt>
      <trkpt lat="39.839313" lon="-5.998488">
        <ele>216.7</ele>
        <time>1970-01-01T00:00:00Z</time>
      </trkpt>
      <trkpt lat="39.839282" lon="-5.998452">
        <ele>215.5</ele>
        <time>1970-01-01T00:00:00Z</time>
      </trkpt>
      <trkpt lat="39.839275" lon="-5.998402">
        <ele>215.4</ele>
        <time>1970-01-01T00:00:00Z</time>
      </trkpt>
      <trkpt lat="39.839209" lon="-5.998303">
        <ele>212.6</ele>
        <time>1970-01-01T00:00:00Z</time>
      </trkpt>
      <trkpt lat="39.839219" lon="-5.998125">
        <ele>213.3</ele>
        <time>1970-01-01T00:00:00Z</time>
      </trkpt>
      <trkpt lat="39.839177" lon="-5.997703">
        <ele>214.6</ele>
        <time>1970-01-01T00:00:00Z</time>
      </trkpt>
      <trkpt lat="39.839147" lon="-5.997647">
        <ele>213.8</ele>
        <time>1970-01-01T00:00:00Z</time>
      </trkpt>
      <trkpt lat="39.839147" lon="-5.997600">
        <ele>214.2</ele>
        <time>1970-01-01T00:00:00Z</time>
      </trkpt>
      <trkpt lat="39.839104" lon="-5.997545">
        <ele>212.8</ele>
        <time>1970-01-01T00:00:00Z</time>
      </trkpt>
      <trkpt lat="39.839054" lon="-5.997092">
        <ele>213.9</ele>
        <time>1970-01-01T00:00:00Z</time>
      </trkpt>
      <trkpt lat="39.839000" lon="-5.996953">
        <ele>212.7</ele>
        <time>1970-01-01T00:00:00Z</time>
      </trkpt>
      <trkpt lat="39.838890" lon="-5.996862">
        <ele>209.7</ele>
        <time>1970-01-01T00:00:00Z</time>
      </trkpt>
      <trkpt lat="39.838872" lon="-5.996799">
        <ele>209.5</ele>
        <time>1970-01-01T00:00:00Z</time>
      </trkpt>
      <trkpt lat="39.838865" lon="-5.996749">
        <ele>209.5</ele>
        <time>1970-01-01T00:00:00Z</time>
      </trkpt>
      <trkpt lat="39.838940" lon="-5.996623">
        <ele>213.0</ele>
        <time>1970-01-01T00:00:00Z</time>
      </trkpt>
      <trkpt lat="39.838945" lon="-5.996517">
        <ele>214.1</ele>
        <time>1970-01-01T00:00:00Z</time>
      </trkpt>
      <trkpt lat="39.838928" lon="-5.996340">
        <ele>215.5</ele>
        <time>1970-01-01T00:00:00Z</time>
      </trkpt>
      <trkpt lat="39.838796" lon="-5.996016">
        <ele>213.6</ele>
        <time>1970-01-01T00:00:00Z</time>
      </trkpt>
      <trkpt lat="39.838661" lon="-5.995616">
        <ele>213.0</ele>
        <time>1970-01-01T00:00:00Z</time>
      </trkpt>
      <trkpt lat="39.838600" lon="-5.995327">
        <ele>213.0</ele>
        <time>1970-01-01T00:00:00Z</time>
      </trkpt>
      <trkpt lat="39.838437" lon="-5.994781">
        <ele>212.0</ele>
        <time>1970-01-01T00:00:00Z</time>
      </trkpt>
      <trkpt lat="39.838034" lon="-5.993146">
        <ele>207.3</ele>
        <time>1970-01-01T00:00:00Z</time>
      </trkpt>
      <trkpt lat="39.837958" lon="-5.992549">
        <ele>207.2</ele>
        <time>1970-01-01T00:00:00Z</time>
      </trkpt>
      <trkpt lat="39.837840" lon="-5.992237">
        <ele>205.9</ele>
        <time>1970-01-01T00:00:00Z</time>
      </trkpt>
      <trkpt lat="39.837577" lon="-5.991785">
        <ele>203.7</ele>
        <time>1970-01-01T00:00:00Z</time>
      </trkpt>
      <trkpt lat="39.837355" lon="-5.991518">
        <ele>200.9</ele>
        <time>1970-01-01T00:00:00Z</time>
      </trkpt>
      <trkpt lat="39.837087" lon="-5.991254">
        <ele>200.2</ele>
        <time>1970-01-01T00:00:00Z</time>
      </trkpt>
      <trkpt lat="39.836402" lon="-5.990918">
        <ele>209.1</ele>
        <time>1970-01-01T00:00:00Z</time>
      </trkpt>
      <trkpt lat="39.836302" lon="-5.990820">
        <ele>210.3</ele>
        <time>1970-01-01T00:00:00Z</time>
      </trkpt>
      <trkpt lat="39.836277" lon="-5.990571">
        <ele>212.9</ele>
        <time>1970-01-01T00:00:00Z</time>
      </trkpt>
      <trkpt lat="39.836312" lon="-5.990410">
        <ele>215.5</ele>
        <time>1970-01-01T00:00:00Z</time>
      </trkpt>
      <trkpt lat="39.836465" lon="-5.990248">
        <ele>219.4</ele>
        <time>1970-01-01T00:00:00Z</time>
      </trkpt>
      <trkpt lat="39.836689" lon="-5.990154">
        <ele>221.7</ele>
        <time>1970-01-01T00:00:00Z</time>
      </trkpt>
      <trkpt lat="39.837145" lon="-5.989748">
        <ele>231.0</ele>
        <time>1970-01-01T00:00:00Z</time>
      </trkpt>
      <trkpt lat="39.837367" lon="-5.989577">
        <ele>235.0</ele>
        <time>1970-01-01T00:00:00Z</time>
      </trkpt>
      <trkpt lat="39.837584" lon="-5.989280">
        <ele>241.0</ele>
        <time>1970-01-01T00:00:00Z</time>
      </trkpt>
      <trkpt lat="39.837721" lon="-5.989019">
        <ele>245.2</ele>
        <time>1970-01-01T00:00:00Z</time>
      </trkpt>
      <trkpt lat="39.837742" lon="-5.988797">
        <ele>247.5</ele>
        <time>1970-01-01T00:00:00Z</time>
      </trkpt>
      <trkpt lat="39.837640" lon="-5.988614">
        <ele>248.5</ele>
        <time>1970-01-01T00:00:00Z</time>
      </trkpt>
      <trkpt lat="39.837488" lon="-5.988583">
        <ele>247.9</ele>
        <time>1970-01-01T00:00:00Z</time>
      </trkpt>
      <trkpt lat="39.837331" lon="-5.988626">
        <ele>246.4</ele>
        <time>1970-01-01T00:00:00Z</time>
      </trkpt>
      <trkpt lat="39.837151" lon="-5.988771">
        <ele>243.8</ele>
        <time>1970-01-01T00:00:00Z</time>
      </trkpt>
      <trkpt lat="39.837031" lon="-5.989167">
        <ele>240.6</ele>
        <time>1970-01-01T00:00:00Z</time>
      </trkpt>
      <trkpt lat="39.836975" lon="-5.989243">
        <ele>239.4</ele>
        <time>1970-01-01T00:00:00Z</time>
      </trkpt>
      <trkpt lat="39.836881" lon="-5.989210">
        <ele>239.4</ele>
        <time>1970-01-01T00:00:00Z</time>
      </trkpt>
      <trkpt lat="39.836910" lon="-5.988518">
        <ele>245.6</ele>
        <time>1970-01-01T00:00:00Z</time>
      </trkpt>
      <trkpt lat="39.836742" lon="-5.988076">
        <ele>247.8</ele>
        <time>1970-01-01T00:00:00Z</time>
      </trkpt>
      <trkpt lat="39.836619" lon="-5.987818">
        <ele>249.4</ele>
        <time>1970-01-01T00:00:00Z</time>
      </trkpt>
      <trkpt lat="39.836477" lon="-5.987584">
        <ele>251.7</ele>
        <time>1970-01-01T00:00:00Z</time>
      </trkpt>
      <trkpt lat="39.836370" lon="-5.987436">
        <ele>252.2</ele>
        <time>1970-01-01T00:00:00Z</time>
      </trkpt>
      <trkpt lat="39.836179" lon="-5.986572">
        <ele>259.4</ele>
        <time>1970-01-01T00:00:00Z</time>
      </trkpt>
      <trkpt lat="39.836109" lon="-5.986174">
        <ele>264.3</ele>
        <time>1970-01-01T00:00:00Z</time>
      </trkpt>
      <trkpt lat="39.836119" lon="-5.985907">
        <ele>266.3</ele>
        <time>1970-01-01T00:00:00Z</time>
      </trkpt>
      <trkpt lat="39.836153" lon="-5.985621">
        <ele>267.2</ele>
        <time>1970-01-01T00:00:00Z</time>
      </trkpt>
      <trkpt lat="39.836169" lon="-5.985306">
        <ele>267.7</ele>
        <time>1970-01-01T00:00:00Z</time>
      </trkpt>
      <trkpt lat="39.836115" lon="-5.984284">
        <ele>271.7</ele>
        <time>1970-01-01T00:00:00Z</time>
      </trkpt>
      <trkpt lat="39.836066" lon="-5.983847">
        <ele>274.5</ele>
        <time>1970-01-01T00:00:00Z</time>
      </trkpt>
      <trkpt lat="39.836019" lon="-5.983286">
        <ele>278.2</ele>
        <time>1970-01-01T00:00:00Z</time>
      </trkpt>
      <trkpt lat="39.836256" lon="-5.982070">
        <ele>278.6</ele>
        <time>1970-01-01T00:00:00Z</time>
      </trkpt>
      <trkpt lat="39.836211" lon="-5.981741">
        <ele>279.0</ele>
        <time>1970-01-01T00:00:00Z</time>
      </trkpt>
      <trkpt lat="39.836031" lon="-5.981323">
        <ele>280.5</ele>
        <time>1970-01-01T00:00:00Z</time>
      </trkpt>
      <trkpt lat="39.835593" lon="-5.980582">
        <ele>283.3</ele>
        <time>1970-01-01T00:00:00Z</time>
      </trkpt>
      <trkpt lat="39.834539" lon="-5.978696">
        <ele>285.2</ele>
        <time>1970-01-01T00:00:00Z</time>
      </trkpt>
      <trkpt lat="39.834334" lon="-5.977945">
        <ele>286.5</ele>
        <time>1970-01-01T00:00:00Z</time>
      </trkpt>
      <trkpt lat="39.834200" lon="-5.977366">
        <ele>289.7</ele>
        <time>1970-01-01T00:00:00Z</time>
      </trkpt>
      <trkpt lat="39.834221" lon="-5.976981">
        <ele>292.0</ele>
        <time>1970-01-01T00:00:00Z</time>
      </trkpt>
      <trkpt lat="39.834332" lon="-5.976387">
        <ele>296.2</ele>
        <time>1970-01-01T00:00:00Z</time>
      </trkpt>
      <trkpt lat="39.834553" lon="-5.975645">
        <ele>299.6</ele>
        <time>1970-01-01T00:00:00Z</time>
      </trkpt>
      <trkpt lat="39.836040" lon="-5.972073">
        <ele>273.7</ele>
        <time>1970-01-01T00:00:00Z</time>
      </trkpt>
      <trkpt lat="39.837139" lon="-5.970568">
        <ele>264.0</ele>
        <time>1970-01-01T00:00:00Z</time>
      </trkpt>
      <trkpt lat="39.837800" lon="-5.969617">
        <ele>259.6</ele>
        <time>1970-01-01T00:00:00Z</time>
      </trkpt>
      <trkpt lat="39.838021" lon="-5.969191">
        <ele>258.2</ele>
        <time>1970-01-01T00:00:00Z</time>
      </trkpt>
      <trkpt lat="39.838344" lon="-5.968488">
        <ele>253.4</ele>
        <time>1970-01-01T00:00:00Z</time>
      </trkpt>
      <trkpt lat="39.839312" lon="-5.967768">
        <ele>254.8</ele>
        <time>1970-01-01T00:00:00Z</time>
      </trkpt>
      <trkpt lat="39.840141" lon="-5.967259">
        <ele>256.7</ele>
        <time>1970-01-01T00:00:00Z</time>
      </trkpt>
      <trkpt lat="39.841093" lon="-5.965965">
        <ele>230.6</ele>
        <time>1970-01-01T00:00:00Z</time>
      </trkpt>
      <trkpt lat="39.841173" lon="-5.965834">
        <ele>228.7</ele>
        <time>1970-01-01T00:00:00Z</time>
      </trkpt>
      <trkpt lat="39.841044" lon="-5.964300">
        <ele>233.8</ele>
        <time>1970-01-01T00:00:00Z</time>
      </trkpt>
      <trkpt lat="39.841080" lon="-5.963921">
        <ele>232.8</ele>
        <time>1970-01-01T00:00:00Z</time>
      </trkpt>
      <trkpt lat="39.841725" lon="-5.961396">
        <ele>229.2</ele>
        <time>1970-01-01T00:00:00Z</time>
      </trkpt>
      <trkpt lat="39.841820" lon="-5.961094">
        <ele>228.8</ele>
        <time>1970-01-01T00:00:00Z</time>
      </trkpt>
      <trkpt lat="39.842027" lon="-5.960885">
        <ele>228.1</ele>
        <time>1970-01-01T00:00:00Z</time>
      </trkpt>
      <trkpt lat="39.842269" lon="-5.960816">
        <ele>227.2</ele>
        <time>1970-01-01T00:00:00Z</time>
      </trkpt>
      <trkpt lat="39.843719" lon="-5.960631">
        <ele>212.7</ele>
        <time>1970-01-01T00:00:00Z</time>
      </trkpt>
      <trkpt lat="39.844910" lon="-5.960450">
        <ele>215.0</ele>
        <time>1970-01-01T00:00:00Z</time>
      </trkpt>
      <trkpt lat="39.845110" lon="-5.960379">
        <ele>214.7</ele>
        <time>1970-01-01T00:00:00Z</time>
      </trkpt>
      <trkpt lat="39.845618" lon="-5.960045">
        <ele>214.2</ele>
        <time>1970-01-01T00:00:00Z</time>
      </trkpt>
      <trkpt lat="39.845800" lon="-5.959954">
        <ele>213.7</ele>
        <time>1970-01-01T00:00:00Z</time>
      </trkpt>
      <trkpt lat="39.847241" lon="-5.959674">
        <ele>205.9</ele>
        <time>1970-01-01T00:00:00Z</time>
      </trkpt>
      <trkpt lat="39.847626" lon="-5.959518">
        <ele>208.9</ele>
        <time>1970-01-01T00:00:00Z</time>
      </trkpt>
      <trkpt lat="39.847817" lon="-5.959496">
        <ele>209.6</ele>
        <time>1970-01-01T00:00:00Z</time>
      </trkpt>
      <trkpt lat="39.849053" lon="-5.959787">
        <ele>198.6</ele>
        <time>1970-01-01T00:00:00Z</time>
      </trkpt>
      <trkpt lat="39.849630" lon="-5.959901">
        <ele>198.6</ele>
        <time>1970-01-01T00:00:00Z</time>
      </trkpt>
      <trkpt lat="39.850659" lon="-5.960064">
        <ele>205.7</ele>
        <time>1970-01-01T00:00:00Z</time>
      </trkpt>
      <trkpt lat="39.853076" lon="-5.960375">
        <ele>201.5</ele>
        <time>1970-01-01T00:00:00Z</time>
      </trkpt>
      <trkpt lat="39.854424" lon="-5.960427">
        <ele>221.5</ele>
        <time>1970-01-01T00:00:00Z</time>
      </trkpt>
      <trkpt lat="39.854702" lon="-5.960405">
        <ele>231.5</ele>
        <time>1970-01-01T00:00:00Z</time>
      </trkpt>
      <trkpt lat="39.854942" lon="-5.960336">
        <ele>238.7</ele>
        <time>1970-01-01T00:00:00Z</time>
      </trkpt>
      <trkpt lat="39.855492" lon="-5.960218">
        <ele>246.2</ele>
        <time>1970-01-01T00:00:00Z</time>
      </trkpt>
      <trkpt lat="39.856014" lon="-5.960077">
        <ele>245.1</ele>
        <time>1970-01-01T00:00:00Z</time>
      </trkpt>
      <trkpt lat="39.856641" lon="-5.959887">
        <ele>238.7</ele>
        <time>1970-01-01T00:00:00Z</time>
      </trkpt>
      <trkpt lat="39.856865" lon="-5.959792">
        <ele>236.2</ele>
        <time>1970-01-01T00:00:00Z</time>
      </trkpt>
      <trkpt lat="39.857009" lon="-5.959598">
        <ele>233.2</ele>
        <time>1970-01-01T00:00:00Z</time>
      </trkpt>
      <trkpt lat="39.857378" lon="-5.958886">
        <ele>224.6</ele>
        <time>1970-01-01T00:00:00Z</time>
      </trkpt>
      <trkpt lat="39.857572" lon="-5.958243">
        <ele>222.7</ele>
        <time>1970-01-01T00:00:00Z</time>
      </trkpt>
      <trkpt lat="39.857599" lon="-5.958056">
        <ele>223.9</ele>
        <time>1970-01-01T00:00:00Z</time>
      </trkpt>
      <trkpt lat="39.857615" lon="-5.957684">
        <ele>225.6</ele>
        <time>1970-01-01T00:00:00Z</time>
      </trkpt>
      <trkpt lat="39.857642" lon="-5.957372">
        <ele>225.2</ele>
        <time>1970-01-01T00:00:00Z</time>
      </trkpt>
      <trkpt lat="39.857660" lon="-5.956671">
        <ele>227.7</ele>
        <time>1970-01-01T00:00:00Z</time>
      </trkpt>
      <trkpt lat="39.857770" lon="-5.956295">
        <ele>226.5</ele>
        <time>1970-01-01T00:00:00Z</time>
      </trkpt>
      <trkpt lat="39.857887" lon="-5.955728">
        <ele>227.0</ele>
        <time>1970-01-01T00:00:00Z</time>
      </trkpt>
      <trkpt lat="39.857981" lon="-5.955339">
        <ele>227.1</ele>
        <time>1970-01-01T00:00:00Z</time>
      </trkpt>
      <trkpt lat="39.858047" lon="-5.954761">
        <ele>230.3</ele>
        <time>1970-01-01T00:00:00Z</time>
      </trkpt>
      <trkpt lat="39.858059" lon="-5.954431">
        <ele>232.2</ele>
        <time>1970-01-01T00:00:00Z</time>
      </trkpt>
      <trkpt lat="39.858122" lon="-5.954104">
        <ele>234.0</ele>
        <time>1970-01-01T00:00:00Z</time>
      </trkpt>
      <trkpt lat="39.858491" lon="-5.952887">
        <ele>237.0</ele>
        <time>1970-01-01T00:00:00Z</time>
      </trkpt>
      <trkpt lat="39.859020" lon="-5.952103">
        <ele>230.8</ele>
        <time>1970-01-01T00:00:00Z</time>
      </trkpt>
      <trkpt lat="39.859092" lon="-5.951939">
        <ele>229.6</ele>
        <time>1970-01-01T00:00:00Z</time>
      </trkpt>
      <trkpt lat="39.859131" lon="-5.951681">
        <ele>229.0</ele>
        <time>1970-01-01T00:00:00Z</time>
      </trkpt>
      <trkpt lat="39.859106" lon="-5.951358">
        <ele>228.0</ele>
        <time>1970-01-01T00:00:00Z</time>
      </trkpt>
      <trkpt lat="39.859120" lon="-5.951079">
        <ele>227.6</ele>
        <time>1970-01-01T00:00:00Z</time>
      </trkpt>
      <trkpt lat="39.859099" lon="-5.950765">
        <ele>228.3</ele>
        <time>1970-01-01T00:00:00Z</time>
      </trkpt>
      <trkpt lat="39.859101" lon="-5.950326">
        <ele>228.2</ele>
        <time>1970-01-01T00:00:00Z</time>
      </trkpt>
      <trkpt lat="39.859131" lon="-5.949884">
        <ele>227.7</ele>
        <time>1970-01-01T00:00:00Z</time>
      </trkpt>
      <trkpt lat="39.859201" lon="-5.949022">
        <ele>231.5</ele>
        <time>1970-01-01T00:00:00Z</time>
      </trkpt>
      <trkpt lat="39.859251" lon="-5.948707">
        <ele>232.3</ele>
        <time>1970-01-01T00:00:00Z</time>
      </trkpt>
      <trkpt lat="39.859565" lon="-5.945375">
        <ele>230.1</ele>
        <time>1970-01-01T00:00:00Z</time>
      </trkpt>
      <trkpt lat="39.859596" lon="-5.944848">
        <ele>230.0</ele>
        <time>1970-01-01T00:00:00Z</time>
      </trkpt>
      <trkpt lat="39.859877" lon="-5.941942">
        <ele>228.0</ele>
        <time>1970-01-01T00:00:00Z</time>
      </trkpt>
      <trkpt lat="39.860021" lon="-5.940199">
        <ele>230.2</ele>
        <time>1970-01-01T00:00:00Z</time>
      </trkpt>
      <trkpt lat="39.860126" lon="-5.939502">
        <ele>229.4</ele>
        <time>1970-01-01T00:00:00Z</time>
      </trkpt>
      <trkpt lat="39.860742" lon="-5.938082">
        <ele>221.3</ele>
        <time>1970-01-01T00:00:00Z</time>
      </trkpt>
      <trkpt lat="39.860949" lon="-5.937545">
        <ele>219.1</ele>
        <time>1970-01-01T00:00:00Z</time>
      </trkpt>
      <trkpt lat="39.860982" lon="-5.936785">
        <ele>217.6</ele>
        <time>1970-01-01T00:00:00Z</time>
      </trkpt>
      <trkpt lat="39.860874" lon="-5.932606">
        <ele>217.8</ele>
        <time>1970-01-01T00:00:00Z</time>
      </trkpt>
      <trkpt lat="39.860826" lon="-5.931894">
        <ele>217.7</ele>
        <time>1970-01-01T00:00:00Z</time>
      </trkpt>
      <trkpt lat="39.860786" lon="-5.930801">
        <ele>219.0</ele>
        <time>1970-01-01T00:00:00Z</time>
      </trkpt>
      <trkpt lat="39.860777" lon="-5.930126">
        <ele>220.1</ele>
        <time>1970-01-01T00:00:00Z</time>
      </trkpt>
      <trkpt lat="39.860792" lon="-5.929806">
        <ele>220.8</ele>
        <time>1970-01-01T00:00:00Z</time>
      </trkpt>
      <trkpt lat="39.860963" lon="-5.928826">
        <ele>222.9</ele>
        <time>1970-01-01T00:00:00Z</time>
      </trkpt>
      <trkpt lat="39.861340" lon="-5.926868">
        <ele>229.8</ele>
        <time>1970-01-01T00:00:00Z</time>
      </trkpt>
      <trkpt lat="39.861447" lon="-5.926586">
        <ele>229.3</ele>
        <time>1970-01-01T00:00:00Z</time>
      </trkpt>
      <trkpt lat="39.861675" lon="-5.926267">
        <ele>226.7</ele>
        <time>1970-01-01T00:00:00Z</time>
      </trkpt>
      <trkpt lat="39.862481" lon="-5.925288">
        <ele>220.5</ele>
        <time>1970-01-01T00:00:00Z</time>
      </trkpt>
      <trkpt lat="39.863053" lon="-5.924568">
        <ele>216.0</ele>
        <time>1970-01-01T00:00:00Z</time>
      </trkpt>
      <trkpt lat="39.863190" lon="-5.924158">
        <ele>213.6</ele>
        <time>1970-01-01T00:00:00Z</time>
      </trkpt>
      <trkpt lat="39.863348" lon="-5.921835">
        <ele>220.9</ele>
        <time>1970-01-01T00:00:00Z</time>
      </trkpt>
      <trkpt lat="39.863441" lon="-5.921345">
        <ele>224.0</ele>
        <time>1970-01-01T00:00:00Z</time>
      </trkpt>
      <trkpt lat="39.864315" lon="-5.919252">
        <ele>221.6</ele>
        <time>1970-01-01T00:00:00Z</time>
      </trkpt>
      <trkpt lat="39.864479" lon="-5.918818">
        <ele>221.9</ele>
        <time>1970-01-01T00:00:00Z</time>
      </trkpt>
      <trkpt lat="39.865106" lon="-5.916722">
        <ele>221.0</ele>
        <time>1970-01-01T00:00:00Z</time>
      </trkpt>
      <trkpt lat="39.865249" lon="-5.916079">
        <ele>216.4</ele>
        <time>1970-01-01T00:00:00Z</time>
      </trkpt>
      <trkpt lat="39.865537" lon="-5.915225">
        <ele>214.0</ele>
        <time>1970-01-01T00:00:00Z</time>
      </trkpt>
      <trkpt lat="39.865735" lon="-5.914524">
        <ele>215.0</ele>
        <time>1970-01-01T00:00:00Z</time>
      </trkpt>
      <trkpt lat="39.865952" lon="-5.913831">
        <ele>218.7</ele>
        <time>1970-01-01T00:00:00Z</time>
      </trkpt>
      <trkpt lat="39.866016" lon="-5.913687">
        <ele>219.1</ele>
        <time>1970-01-01T00:00:00Z</time>
      </trkpt>
      <trkpt lat="39.866186" lon="-5.913449">
        <ele>221.1</ele>
        <time>1970-01-01T00:00:00Z</time>
      </trkpt>
      <trkpt lat="39.867085" lon="-5.912380">
        <ele>226.4</ele>
        <time>1970-01-01T00:00:00Z</time>
      </trkpt>
      <trkpt lat="39.869865" lon="-5.910623">
        <ele>221.3</ele>
        <time>1970-01-01T00:00:00Z</time>
      </trkpt>
      <trkpt lat="39.870969" lon="-5.909773">
        <ele>223.0</ele>
        <time>1970-01-01T00:00:00Z</time>
      </trkpt>
      <trkpt lat="39.874899" lon="-5.906827">
        <ele>219.7</ele>
        <time>1970-01-01T00:00:00Z</time>
      </trkpt>
      <trkpt lat="39.875891" lon="-5.906040">
        <ele>220.0</ele>
        <time>1970-01-01T00:00:00Z</time>
      </trkpt>
      <trkpt lat="39.876613" lon="-5.905186">
        <ele>223.4</ele>
        <time>1970-01-01T00:00:00Z</time>
      </trkpt>
      <trkpt lat="39.878438" lon="-5.902955">
        <ele>229.7</ele>
        <time>1970-01-01T00:00:00Z</time>
      </trkpt>
      <trkpt lat="39.880072" lon="-5.900902">
        <ele>235.5</ele>
        <time>1970-01-01T00:00:00Z</time>
      </trkpt>
      <trkpt lat="39.881087" lon="-5.899188">
        <ele>242.9</ele>
        <time>1970-01-01T00:00:00Z</time>
      </trkpt>
      <trkpt lat="39.881879" lon="-5.897810">
        <ele>240.8</ele>
        <time>1970-01-01T00:00:00Z</time>
      </trkpt>
      <trkpt lat="39.882277" lon="-5.897165">
        <ele>240.5</ele>
        <time>1970-01-01T00:00:00Z</time>
      </trkpt>
      <trkpt lat="39.882419" lon="-5.896985">
        <ele>241.0</ele>
        <time>1970-01-01T00:00:00Z</time>
      </trkpt>
      <trkpt lat="39.882955" lon="-5.896525">
        <ele>241.9</ele>
        <time>1970-01-01T00:00:00Z</time>
      </trkpt>
      <trkpt lat="39.883286" lon="-5.896279">
        <ele>243.8</ele>
        <time>1970-01-01T00:00:00Z</time>
      </trkpt>
      <trkpt lat="39.883116" lon="-5.896019">
        <ele>242.5</ele>
        <time>1970-01-01T00:00:00Z</time>
      </trkpt>
      <trkpt lat="39.882784" lon="-5.895578">
        <ele>239.9</ele>
        <time>1970-01-01T00:00:00Z</time>
      </trkpt>
      <trkpt lat="39.882596" lon="-5.895279">
        <ele>238.4</ele>
        <time>1970-01-01T00:00:00Z</time>
      </trkpt>
      <trkpt lat="39.882436" lon="-5.894994">
        <ele>237.7</ele>
        <time>1970-01-01T00:00:00Z</time>
      </trkpt>
      <trkpt lat="39.882077" lon="-5.894490">
        <ele>234.1</ele>
        <time>1970-01-01T00:00:00Z</time>
      </trkpt>
      <trkpt lat="39.881865" lon="-5.894203">
        <ele>233.0</ele>
        <time>1970-01-01T00:00:00Z</time>
      </trkpt>
      <trkpt lat="39.881720" lon="-5.894060">
        <ele>232.7</ele>
        <time>1970-01-01T00:00:00Z</time>
      </trkpt>
      <trkpt lat="39.881626" lon="-5.894013">
        <ele>232.2</ele>
        <time>1970-01-01T00:00:00Z</time>
      </trkpt>
      <trkpt lat="39.881675" lon="-5.893768">
        <ele>232.0</ele>
        <time>1970-01-01T00:00:00Z</time>
      </trkpt>
      <trkpt lat="39.881715" lon="-5.893485">
        <ele>232.0</ele>
        <time>1970-01-01T00:00:00Z</time>
      </trkpt>
      <trkpt lat="39.881700" lon="-5.892695">
        <ele>232.0</ele>
        <time>1970-01-01T00:00:00Z</time>
      </trkpt>
      <trkpt lat="39.881679" lon="-5.892399">
        <ele>232.6</ele>
        <time>1970-01-01T00:00:00Z</time>
      </trkpt>
      <trkpt lat="39.881634" lon="-5.892202">
        <ele>232.8</ele>
        <time>1970-01-01T00:00:00Z</time>
      </trkpt>
      <trkpt lat="39.881476" lon="-5.891829">
        <ele>234.8</ele>
        <time>1970-01-01T00:00:00Z</time>
      </trkpt>
      <trkpt lat="39.881448" lon="-5.891647">
        <ele>235.9</ele>
        <time>1970-01-01T00:00:00Z</time>
      </trkpt>
      <trkpt lat="39.881452" lon="-5.891489">
        <ele>236.5</ele>
        <time>1970-01-01T00:00:00Z</time>
      </trkpt>
      <trkpt lat="39.881575" lon="-5.891051">
        <ele>237.9</ele>
        <time>1970-01-01T00:00:00Z</time>
      </trkpt>
      <trkpt lat="39.881590" lon="-5.890819">
        <ele>239.7</ele>
        <time>1970-01-01T00:00:00Z</time>
      </trkpt>
      <trkpt lat="39.881797" lon="-5.890271">
        <ele>241.1</ele>
        <time>1970-01-01T00:00:00Z</time>
      </trkpt>
      <trkpt lat="39.881984" lon="-5.889476">
        <ele>243.6</ele>
        <time>1970-01-01T00:00:00Z</time>
      </trkpt>
      <trkpt lat="39.882053" lon="-5.888892">
        <ele>243.0</ele>
        <time>1970-01-01T00:00:00Z</time>
      </trkpt>
      <trkpt lat="39.882060" lon="-5.888632">
        <ele>242.6</ele>
        <time>1970-01-01T00:00:00Z</time>
      </trkpt>
      <trkpt lat="39.882113" lon="-5.888327">
        <ele>241.0</ele>
        <time>1970-01-01T00:00:00Z</time>
      </trkpt>
      <trkpt lat="39.882182" lon="-5.887761">
        <ele>238.9</ele>
        <time>1970-01-01T00:00:00Z</time>
      </trkpt>
      <trkpt lat="39.882207" lon="-5.886753">
        <ele>235.7</ele>
        <time>1970-01-01T00:00:00Z</time>
      </trkpt>
      <trkpt lat="39.882207" lon="-5.885817">
        <ele>235.0</ele>
        <time>1970-01-01T00:00:00Z</time>
      </trkpt>
      <trkpt lat="39.882173" lon="-5.884880">
        <ele>237.9</ele>
        <time>1970-01-01T00:00:00Z</time>
      </trkpt>
      <trkpt lat="39.882202" lon="-5.884633">
        <ele>239.3</ele>
        <time>1970-01-01T00:00:00Z</time>
      </trkpt>
      <trkpt lat="39.882266" lon="-5.884372">
        <ele>240.0</ele>
        <time>1970-01-01T00:00:00Z</time>
      </trkpt>
      <trkpt lat="39.882214" lon="-5.883694">
        <ele>243.4</ele>
        <time>1970-01-01T00:00:00Z</time>
      </trkpt>
      <trkpt lat="39.882214" lon="-5.883571">
        <ele>244.0</ele>
        <time>1970-01-01T00:00:00Z</time>
      </trkpt>
      <trkpt lat="39.882258" lon="-5.883191">
        <ele>246.6</ele>
        <time>1970-01-01T00:00:00Z</time>
      </trkpt>
      <trkpt lat="39.882386" lon="-5.882532">
        <ele>250.0</ele>
        <time>1970-01-01T00:00:00Z</time>
      </trkpt>
      <trkpt lat="39.882434" lon="-5.882226">
        <ele>250.0</ele>
        <time>1970-01-01T00:00:00Z</time>
      </trkpt>
      <trkpt lat="39.882530" lon="-5.882033">
        <ele>249.9</ele>
        <time>1970-01-01T00:00:00Z</time>
      </trkpt>
      <trkpt lat="39.882832" lon="-5.881504">
        <ele>247.9</ele>
        <time>1970-01-01T00:00:00Z</time>
      </trkpt>
      <trkpt lat="39.882898" lon="-5.881276">
        <ele>246.9</ele>
        <time>1970-01-01T00:00:00Z</time>
      </trkpt>
      <trkpt lat="39.882901" lon="-5.881132">
        <ele>246.3</ele>
        <time>1970-01-01T00:00:00Z</time>
      </trkpt>
      <trkpt lat="39.882877" lon="-5.880967">
        <ele>245.5</ele>
        <time>1970-01-01T00:00:00Z</time>
      </trkpt>
      <trkpt lat="39.882912" lon="-5.880835">
        <ele>245.0</ele>
        <time>1970-01-01T00:00:00Z</time>
      </trkpt>
      <trkpt lat="39.882922" lon="-5.880646">
        <ele>244.2</ele>
        <time>1970-01-01T00:00:00Z</time>
      </trkpt>
      <trkpt lat="39.882909" lon="-5.879907">
        <ele>243.8</ele>
        <time>1970-01-01T00:00:00Z</time>
      </trkpt>
      <trkpt lat="39.882919" lon="-5.879614">
        <ele>244.6</ele>
        <time>1970-01-01T00:00:00Z</time>
      </trkpt>
      <trkpt lat="39.882914" lon="-5.879120">
        <ele>248.3</ele>
        <time>1970-01-01T00:00:00Z</time>
      </trkpt>
      <trkpt lat="39.883131" lon="-5.878227">
        <ele>250.5</ele>
        <time>1970-01-01T00:00:00Z</time>
      </trkpt>
      <trkpt lat="39.883669" lon="-5.877069">
        <ele>248.9</ele>
        <time>1970-01-01T00:00:00Z</time>
      </trkpt>
      <trkpt lat="39.883748" lon="-5.876764">
        <ele>249.2</ele>
        <time>1970-01-01T00:00:00Z</time>
      </trkpt>
      <trkpt lat="39.883907" lon="-5.875872">
        <ele>251.9</ele>
        <time>1970-01-01T00:00:00Z</time>
      </trkpt>
      <trkpt lat="39.884039" lon="-5.875299">
        <ele>250.7</ele>
        <time>1970-01-01T00:00:00Z</time>
      </trkpt>
      <trkpt lat="39.884122" lon="-5.875046">
        <ele>250.0</ele>
        <time>1970-01-01T00:00:00Z</time>
      </trkpt>
      <trkpt lat="39.884262" lon="-5.874718">
        <ele>248.5</ele>
        <time>1970-01-01T00:00:00Z</time>
      </trkpt>
      <trkpt lat="39.884364" lon="-5.874406">
        <ele>248.0</ele>
        <time>1970-01-01T00:00:00Z</time>
      </trkpt>
      <trkpt lat="39.884389" lon="-5.874085">
        <ele>248.1</ele>
        <time>1970-01-01T00:00:00Z</time>
      </trkpt>
      <trkpt lat="39.884396" lon="-5.873714">
        <ele>247.4</ele>
        <time>1970-01-01T00:00:00Z</time>
      </trkpt>
      <trkpt lat="39.884373" lon="-5.872900">
        <ele>246.8</ele>
        <time>1970-01-01T00:00:00Z</time>
      </trkpt>
      <trkpt lat="39.884395" lon="-5.872136">
        <ele>245.4</ele>
        <time>1970-01-01T00:00:00Z</time>
      </trkpt>
      <trkpt lat="39.884422" lon="-5.871624">
        <ele>245.0</ele>
        <time>1970-01-01T00:00:00Z</time>
      </trkpt>
      <trkpt lat="39.884403" lon="-5.871442">
        <ele>245.6</ele>
        <time>1970-01-01T00:00:00Z</time>
      </trkpt>
      <trkpt lat="39.884358" lon="-5.871295">
        <ele>246.0</ele>
        <time>1970-01-01T00:00:00Z</time>
      </trkpt>
      <trkpt lat="39.884290" lon="-5.870917">
        <ele>246.0</ele>
        <time>1970-01-01T00:00:00Z</time>
      </trkpt>
      <trkpt lat="39.884304" lon="-5.870354">
        <ele>247.0</ele>
        <time>1970-01-01T00:00:00Z</time>
      </trkpt>
      <trkpt lat="39.884234" lon="-5.869742">
        <ele>247.5</ele>
        <time>1970-01-01T00:00:00Z</time>
      </trkpt>
      <trkpt lat="39.884256" lon="-5.869520">
        <ele>247.6</ele>
        <time>1970-01-01T00:00:00Z</time>
      </trkpt>
      <trkpt lat="39.884341" lon="-5.869112">
        <ele>248.6</ele>
        <time>1970-01-01T00:00:00Z</time>
      </trkpt>
      <trkpt lat="39.884437" lon="-5.868689">
        <ele>250.0</ele>
        <time>1970-01-01T00:00:00Z</time>
      </trkpt>
      <trkpt lat="39.884590" lon="-5.868160">
        <ele>251.0</ele>
        <time>1970-01-01T00:00:00Z</time>
      </trkpt>
      <trkpt lat="39.884653" lon="-5.867814">
        <ele>251.3</ele>
        <time>1970-01-01T00:00:00Z</time>
      </trkpt>
      <trkpt lat="39.884670" lon="-5.867622">
        <ele>252.0</ele>
        <time>1970-01-01T00:00:00Z</time>
      </trkpt>
      <trkpt lat="39.884562" lon="-5.867090">
        <ele>251.9</ele>
        <time>1970-01-01T00:00:00Z</time>
      </trkpt>
      <trkpt lat="39.884520" lon="-5.866724">
        <ele>251.4</ele>
        <time>1970-01-01T00:00:00Z</time>
      </trkpt>
      <trkpt lat="39.884286" lon="-5.865883">
        <ele>247.1</ele>
        <time>1970-01-01T00:00:00Z</time>
      </trkpt>
      <trkpt lat="39.884264" lon="-5.865730">
        <ele>246.2</ele>
        <time>1970-01-01T00:00:00Z</time>
      </trkpt>
      <trkpt lat="39.884260" lon="-5.865455">
        <ele>244.7</ele>
        <time>1970-01-01T00:00:00Z</time>
      </trkpt>
      <trkpt lat="39.884233" lon="-5.865272">
        <ele>243.8</ele>
        <time>1970-01-01T00:00:00Z</time>
      </trkpt>
      <trkpt lat="39.884128" lon="-5.864755">
        <ele>244.5</ele>
        <time>1970-01-01T00:00:00Z</time>
      </trkpt>
      <trkpt lat="39.884049" lon="-5.864611">
        <ele>244.8</ele>
        <time>1970-01-01T00:00:00Z</time>
      </trkpt>
      <trkpt lat="39.883913" lon="-5.864420">
        <ele>244.2</ele>
        <time>1970-01-01T00:00:00Z</time>
      </trkpt>
      <trkpt lat="39.883818" lon="-5.864237">
        <ele>244.4</ele>
        <time>1970-01-01T00:00:00Z</time>
      </trkpt>
      <trkpt lat="39.883726" lon="-5.864122">
        <ele>244.3</ele>
        <time>1970-01-01T00:00:00Z</time>
      </trkpt>
      <trkpt lat="39.883582" lon="-5.863704">
        <ele>244.7</ele>
        <time>1970-01-01T00:00:00Z</time>
      </trkpt>
      <trkpt lat="39.883413" lon="-5.863270">
        <ele>244.8</ele>
        <time>1970-01-01T00:00:00Z</time>
      </trkpt>
      <trkpt lat="39.883299" lon="-5.862894">
        <ele>245.0</ele>
        <time>1970-01-01T00:00:00Z</time>
      </trkpt>
      <trkpt lat="39.883166" lon="-5.862725">
        <ele>245.2</ele>
        <time>1970-01-01T00:00:00Z</time>
      </trkpt>
      <trkpt lat="39.883056" lon="-5.862524">
        <ele>246.4</ele>
        <time>1970-01-01T00:00:00Z</time>
      </trkpt>
      <trkpt lat="39.882826" lon="-5.861794">
        <ele>250.3</ele>
        <time>1970-01-01T00:00:00Z</time>
      </trkpt>
      <trkpt lat="39.882621" lon="-5.860828">
        <ele>253.5</ele>
        <time>1970-01-01T00:00:00Z</time>
      </trkpt>
      <trkpt lat="39.882579" lon="-5.860563">
        <ele>253.9</ele>
        <time>1970-01-01T00:00:00Z</time>
      </trkpt>
      <trkpt lat="39.882512" lon="-5.859799">
        <ele>253.1</ele>
        <time>1970-01-01T00:00:00Z</time>
      </trkpt>
      <trkpt lat="39.882551" lon="-5.858909">
        <ele>249.6</ele>
        <time>1970-01-01T00:00:00Z</time>
      </trkpt>
      <trkpt lat="39.882563" lon="-5.858193">
        <ele>247.0</ele>
        <time>1970-01-01T00:00:00Z</time>
      </trkpt>
      <trkpt lat="39.882506" lon="-5.857478">
        <ele>249.9</ele>
        <time>1970-01-01T00:00:00Z</time>
      </trkpt>
      <trkpt lat="39.882496" lon="-5.857200">
        <ele>251.2</ele>
        <time>1970-01-01T00:00:00Z</time>
      </trkpt>
      <trkpt lat="39.882408" lon="-5.856706">
        <ele>253.6</ele>
        <time>1970-01-01T00:00:00Z</time>
      </trkpt>
      <trkpt lat="39.882437" lon="-5.856473">
        <ele>253.9</ele>
        <time>1970-01-01T00:00:00Z</time>
      </trkpt>
      <trkpt lat="39.882485" lon="-5.856230">
        <ele>253.9</ele>
        <time>1970-01-01T00:00:00Z</time>
      </trkpt>
      <trkpt lat="39.882497" lon="-5.856090">
        <ele>254.0</ele>
        <time>1970-01-01T00:00:00Z</time>
      </trkpt>
      <trkpt lat="39.882487" lon="-5.855814">
        <ele>251.8</ele>
        <time>1970-01-01T00:00:00Z</time>
      </trkpt>
      <trkpt lat="39.882500" lon="-5.855540">
        <ele>249.7</ele>
        <time>1970-01-01T00:00:00Z</time>
      </trkpt>
      <trkpt lat="39.882469" lon="-5.855160">
        <ele>247.3</ele>
        <time>1970-01-01T00:00:00Z</time>
      </trkpt>
      <trkpt lat="39.882440" lon="-5.854959">
        <ele>246.5</ele>
        <time>1970-01-01T00:00:00Z</time>
      </trkpt>
      <trkpt lat="39.882421" lon="-5.854653">
        <ele>244.1</ele>
        <time>1970-01-01T00:00:00Z</time>
      </trkpt>
      <trkpt lat="39.882444" lon="-5.854064">
        <ele>240.3</ele>
        <time>1970-01-01T00:00:00Z</time>
      </trkpt>
      <trkpt lat="39.882290" lon="-5.853497">
        <ele>240.1</ele>
        <time>1970-01-01T00:00:00Z</time>
      </trkpt>
      <trkpt lat="39.882110" lon="-5.852673">
        <ele>241.0</ele>
        <time>1970-01-01T00:00:00Z</time>
      </trkpt>
      <trkpt lat="39.882153" lon="-5.852552">
        <ele>241.0</ele>
        <time>1970-01-01T00:00:00Z</time>
      </trkpt>
      <trkpt lat="39.882291" lon="-5.852298">
        <ele>241.4</ele>
        <time>1970-01-01T00:00:00Z</time>
      </trkpt>
      <trkpt lat="39.882299" lon="-5.852183">
        <ele>241.9</ele>
        <time>1970-01-01T00:00:00Z</time>
      </trkpt>
      <trkpt lat="39.882232" lon="-5.852106">
        <ele>241.8</ele>
        <time>1970-01-01T00:00:00Z</time>
      </trkpt>
      <trkpt lat="39.882194" lon="-5.852038">
        <ele>241.7</ele>
        <time>1970-01-01T00:00:00Z</time>
      </trkpt>
      <trkpt lat="39.882180" lon="-5.851926">
        <ele>241.6</ele>
        <time>1970-01-01T00:00:00Z</time>
      </trkpt>
      <trkpt lat="39.882054" lon="-5.851579">
        <ele>242.5</ele>
        <time>1970-01-01T00:00:00Z</time>
      </trkpt>
      <trkpt lat="39.881930" lon="-5.851363">
        <ele>242.9</ele>
        <time>1970-01-01T00:00:00Z</time>
      </trkpt>
      <trkpt lat="39.881786" lon="-5.851048">
        <ele>243.5</ele>
        <time>1970-01-01T00:00:00Z</time>
      </trkpt>
      <trkpt lat="39.881619" lon="-5.850778">
        <ele>243.1</ele>
        <time>1970-01-01T00:00:00Z</time>
      </trkpt>
      <trkpt lat="39.881531" lon="-5.850507">
        <ele>242.6</ele>
        <time>1970-01-01T00:00:00Z</time>
      </trkpt>
      <trkpt lat="39.881039" lon="-5.849822">
        <ele>239.4</ele>
        <time>1970-01-01T00:00:00Z</time>
      </trkpt>
      <trkpt lat="39.880885" lon="-5.849571">
        <ele>239.0</ele>
        <time>1970-01-01T00:00:00Z</time>
      </trkpt>
      <trkpt lat="39.880776" lon="-5.849202">
        <ele>239.2</ele>
        <time>1970-01-01T00:00:00Z</time>
      </trkpt>
      <trkpt lat="39.880643" lon="-5.848807">
        <ele>239.9</ele>
        <time>1970-01-01T00:00:00Z</time>
      </trkpt>
      <trkpt lat="39.880562" lon="-5.848622">
        <ele>239.8</ele>
        <time>1970-01-01T00:00:00Z</time>
      </trkpt>
      <trkpt lat="39.880387" lon="-5.847831">
        <ele>241.9</ele>
        <time>1970-01-01T00:00:00Z</time>
      </trkpt>
      <trkpt lat="39.880258" lon="-5.847039">
        <ele>243.0</ele>
        <time>1970-01-01T00:00:00Z</time>
      </trkpt>
      <trkpt lat="39.880171" lon="-5.846716">
        <ele>244.0</ele>
        <time>1970-01-01T00:00:00Z</time>
      </trkpt>
      <trkpt lat="39.880175" lon="-5.846215">
        <ele>245.0</ele>
        <time>1970-01-01T00:00:00Z</time>
      </trkpt>
      <trkpt lat="39.880297" lon="-5.845441">
        <ele>245.0</ele>
        <time>1970-01-01T00:00:00Z</time>
      </trkpt>
      <trkpt lat="39.880319" lon="-5.845222">
        <ele>245.0</ele>
        <time>1970-01-01T00:00:00Z</time>
      </trkpt>
      <trkpt lat="39.880290" lon="-5.845036">
        <ele>245.0</ele>
        <time>1970-01-01T00:00:00Z</time>
      </trkpt>
      <trkpt lat="39.880260" lon="-5.844362">
        <ele>245.0</ele>
        <time>1970-01-01T00:00:00Z</time>
      </trkpt>
      <trkpt lat="39.880233" lon="-5.844061">
        <ele>245.0</ele>
        <time>1970-01-01T00:00:00Z</time>
      </trkpt>
      <trkpt lat="39.880234" lon="-5.843589">
        <ele>247.5</ele>
        <time>1970-01-01T00:00:00Z</time>
      </trkpt>
      <trkpt lat="39.880245" lon="-5.843374">
        <ele>248.6</ele>
        <time>1970-01-01T00:00:00Z</time>
      </trkpt>
      <trkpt lat="39.880220" lon="-5.842880">
        <ele>251.0</ele>
        <time>1970-01-01T00:00:00Z</time>
      </trkpt>
      <trkpt lat="39.880180" lon="-5.842529">
        <ele>250.4</ele>
        <time>1970-01-01T00:00:00Z</time>
      </trkpt>
      <trkpt lat="39.880220" lon="-5.842301">
        <ele>249.6</ele>
        <time>1970-01-01T00:00:00Z</time>
      </trkpt>
      <trkpt lat="39.880299" lon="-5.842088">
        <ele>249.1</ele>
        <time>1970-01-01T00:00:00Z</time>
      </trkpt>
      <trkpt lat="39.880405" lon="-5.841967">
        <ele>249.0</ele>
        <time>1970-01-01T00:00:00Z</time>
      </trkpt>
      <trkpt lat="39.880651" lon="-5.841865">
        <ele>249.6</ele>
        <time>1970-01-01T00:00:00Z</time>
      </trkpt>
      <trkpt lat="39.880889" lon="-5.841690">
        <ele>248.9</ele>
        <time>1970-01-01T00:00:00Z</time>
      </trkpt>
      <trkpt lat="39.881202" lon="-5.841324">
        <ele>248.6</ele>
        <time>1970-01-01T00:00:00Z</time>
      </trkpt>
      <trkpt lat="39.881666" lon="-5.840567">
        <ele>248.8</ele>
        <time>1970-01-01T00:00:00Z</time>
      </trkpt>
      <trkpt lat="39.881836" lon="-5.840184">
        <ele>249.2</ele>
        <time>1970-01-01T00:00:00Z</time>
      </trkpt>
      <trkpt lat="39.881916" lon="-5.839932">
        <ele>249.5</ele>
        <time>1970-01-01T00:00:00Z</time>
      </trkpt>
      <trkpt lat="39.881882" lon="-5.839689">
        <ele>248.7</ele>
        <time>1970-01-01T00:00:00Z</time>
      </trkpt>
      <trkpt lat="39.881549" lon="-5.839063">
        <ele>245.9</ele>
        <time>1970-01-01T00:00:00Z</time>
      </trkpt>
      <trkpt lat="39.881426" lon="-5.838697">
        <ele>245.3</ele>
        <time>1970-01-01T00:00:00Z</time>
      </trkpt>
      <trkpt lat="39.881348" lon="-5.837792">
        <ele>246.0</ele>
        <time>1970-01-01T00:00:00Z</time>
      </trkpt>
      <trkpt lat="39.881388" lon="-5.837437">
        <ele>245.9</ele>
        <time>1970-01-01T00:00:00Z</time>
      </trkpt>
      <trkpt lat="39.881507" lon="-5.836700">
        <ele>246.3</ele>
        <time>1970-01-01T00:00:00Z</time>
      </trkpt>
      <trkpt lat="39.881502" lon="-5.836313">
        <ele>246.5</ele>
        <time>1970-01-01T00:00:00Z</time>
      </trkpt>
      <trkpt lat="39.881466" lon="-5.836000">
        <ele>247.3</ele>
        <time>1970-01-01T00:00:00Z</time>
      </trkpt>
      <trkpt lat="39.881401" lon="-5.835641">
        <ele>248.7</ele>
        <time>1970-01-01T00:00:00Z</time>
      </trkpt>
      <trkpt lat="39.881302" lon="-5.835255">
        <ele>250.2</ele>
        <time>1970-01-01T00:00:00Z</time>
      </trkpt>
      <trkpt lat="39.880743" lon="-5.834129">
        <ele>250.6</ele>
        <time>1970-01-01T00:00:00Z</time>
      </trkpt>
      <trkpt lat="39.880698" lon="-5.833860">
        <ele>248.3</ele>
        <time>1970-01-01T00:00:00Z</time>
      </trkpt>
      <trkpt lat="39.880734" lon="-5.833438">
        <ele>246.3</ele>
        <time>1970-01-01T00:00:00Z</time>
      </trkpt>
      <trkpt lat="39.880802" lon="-5.833118">
        <ele>244.5</ele>
        <time>1970-01-01T00:00:00Z</time>
      </trkpt>
      <trkpt lat="39.880800" lon="-5.832747">
        <ele>244.0</ele>
        <time>1970-01-01T00:00:00Z</time>
      </trkpt>
      <trkpt lat="39.880703" lon="-5.831900">
        <ele>246.5</ele>
        <time>1970-01-01T00:00:00Z</time>
      </trkpt>
      <trkpt lat="39.880602" lon="-5.831361">
        <ele>247.9</ele>
        <time>1970-01-01T00:00:00Z</time>
      </trkpt>
      <trkpt lat="39.880498" lon="-5.831019">
        <ele>249.7</ele>
        <time>1970-01-01T00:00:00Z</time>
      </trkpt>
      <trkpt lat="39.880467" lon="-5.830784">
        <ele>251.2</ele>
        <time>1970-01-01T00:00:00Z</time>
      </trkpt>
      <trkpt lat="39.880483" lon="-5.830503">
        <ele>252.2</ele>
        <time>1970-01-01T00:00:00Z</time>
      </trkpt>
      <trkpt lat="39.880678" lon="-5.829865">
        <ele>253.0</ele>
        <time>1970-01-01T00:00:00Z</time>
      </trkpt>
      <trkpt lat="39.880934" lon="-5.829244">
        <ele>250.4</ele>
        <time>1970-01-01T00:00:00Z</time>
      </trkpt>
      <trkpt lat="39.881488" lon="-5.828079">
        <ele>245.6</ele>
        <time>1970-01-01T00:00:00Z</time>
      </trkpt>
      <trkpt lat="39.881560" lon="-5.827837">
        <ele>244.1</ele>
        <time>1970-01-01T00:00:00Z</time>
      </trkpt>
      <trkpt lat="39.881620" lon="-5.827502">
        <ele>243.6</ele>
        <time>1970-01-01T00:00:00Z</time>
      </trkpt>
      <trkpt lat="39.881631" lon="-5.827272">
        <ele>242.8</ele>
        <time>1970-01-01T00:00:00Z</time>
      </trkpt>
      <trkpt lat="39.881516" lon="-5.825901">
        <ele>239.8</ele>
        <time>1970-01-01T00:00:00Z</time>
      </trkpt>
      <trkpt lat="39.881501" lon="-5.825199">
        <ele>240.0</ele>
        <time>1970-01-01T00:00:00Z</time>
      </trkpt>
      <trkpt lat="39.881469" lon="-5.824767">
        <ele>240.6</ele>
        <time>1970-01-01T00:00:00Z</time>
      </trkpt>
      <trkpt lat="39.881459" lon="-5.824358">
        <ele>241.0</ele>
        <time>1970-01-01T00:00:00Z</time>
      </trkpt>
      <trkpt lat="39.881445" lon="-5.823515">
        <ele>240.7</ele>
        <time>1970-01-01T00:00:00Z</time>
      </trkpt>
      <trkpt lat="39.881454" lon="-5.823159">
        <ele>240.4</ele>
        <time>1970-01-01T00:00:00Z</time>
      </trkpt>
      <trkpt lat="39.881434" lon="-5.822582">
        <ele>239.2</ele>
        <time>1970-01-01T00:00:00Z</time>
      </trkpt>
      <trkpt lat="39.881433" lon="-5.822141">
        <ele>239.0</ele>
        <time>1970-01-01T00:00:00Z</time>
      </trkpt>
      <trkpt lat="39.881408" lon="-5.821880">
        <ele>238.3</ele>
        <time>1970-01-01T00:00:00Z</time>
      </trkpt>
      <trkpt lat="39.881427" lon="-5.821212">
        <ele>238.0</ele>
        <time>1970-01-01T00:00:00Z</time>
      </trkpt>
      <trkpt lat="39.881471" lon="-5.820824">
        <ele>238.0</ele>
        <time>1970-01-01T00:00:00Z</time>
      </trkpt>
      <trkpt lat="39.881537" lon="-5.820348">
        <ele>238.9</ele>
        <time>1970-01-01T00:00:00Z</time>
      </trkpt>
      <trkpt lat="39.881578" lon="-5.819934">
        <ele>239.0</ele>
        <time>1970-01-01T00:00:00Z</time>
      </trkpt>
      <trkpt lat="39.881673" lon="-5.819552">
        <ele>239.0</ele>
        <time>1970-01-01T00:00:00Z</time>
      </trkpt>
      <trkpt lat="39.881855" lon="-5.819003">
        <ele>237.9</ele>
        <time>1970-01-01T00:00:00Z</time>
      </trkpt>
      <trkpt lat="39.881959" lon="-5.817923">
        <ele>234.6</ele>
        <time>1970-01-01T00:00:00Z</time>
      </trkpt>
      <trkpt lat="39.882013" lon="-5.817710">
        <ele>235.5</ele>
        <time>1970-01-01T00:00:00Z</time>
      </trkpt>
      <trkpt lat="39.882157" lon="-5.817400">
        <ele>236.1</ele>
        <time>1970-01-01T00:00:00Z</time>
      </trkpt>
      <trkpt lat="39.882315" lon="-5.817176">
        <ele>238.0</ele>
        <time>1970-01-01T00:00:00Z</time>
      </trkpt>
      <trkpt lat="39.882515" lon="-5.816832">
        <ele>239.1</ele>
        <time>1970-01-01T00:00:00Z</time>
      </trkpt>
      <trkpt lat="39.882702" lon="-5.816550">
        <ele>241.5</ele>
        <time>1970-01-01T00:00:00Z</time>
      </trkpt>
      <trkpt lat="39.883277" lon="-5.815824">
        <ele>244.9</ele>
        <time>1970-01-01T00:00:00Z</time>
      </trkpt>
      <trkpt lat="39.883479" lon="-5.815505">
        <ele>244.9</ele>
        <time>1970-01-01T00:00:00Z</time>
      </trkpt>
      <trkpt lat="39.883790" lon="-5.814961">
        <ele>241.1</ele>
        <time>1970-01-01T00:00:00Z</time>
      </trkpt>
      <trkpt lat="39.884216" lon="-5.814136">
        <ele>233.4</ele>
        <time>1970-01-01T00:00:00Z</time>
      </trkpt>
      <trkpt lat="39.884620" lon="-5.813298">
        <ele>234.1</ele>
        <time>1970-01-01T00:00:00Z</time>
      </trkpt>
      <trkpt lat="39.884934" lon="-5.812598">
        <ele>239.3</ele>
        <time>1970-01-01T00:00:00Z</time>
      </trkpt>
      <trkpt lat="39.885373" lon="-5.811484">
        <ele>237.4</ele>
        <time>1970-01-01T00:00:00Z</time>
      </trkpt>
      <trkpt lat="39.885739" lon="-5.810905">
        <ele>239.0</ele>
        <time>1970-01-01T00:00:00Z</time>
      </trkpt>
      <trkpt lat="39.885934" lon="-5.810627">
        <ele>239.8</ele>
        <time>1970-01-01T00:00:00Z</time>
      </trkpt>
      <trkpt lat="39.886162" lon="-5.810187">
        <ele>242.7</ele>
        <time>1970-01-01T00:00:00Z</time>
      </trkpt>
      <trkpt lat="39.886299" lon="-5.809955">
        <ele>243.0</ele>
        <time>1970-01-01T00:00:00Z</time>
      </trkpt>
      <trkpt lat="39.886724" lon="-5.809564">
        <ele>243.7</ele>
        <time>1970-01-01T00:00:00Z</time>
      </trkpt>
      <trkpt lat="39.886787" lon="-5.809426">
        <ele>243.8</ele>
        <time>1970-01-01T00:00:00Z</time>
      </trkpt>
      <trkpt lat="39.886832" lon="-5.809227">
        <ele>243.9</ele>
        <time>1970-01-01T00:00:00Z</time>
      </trkpt>
      <trkpt lat="39.886883" lon="-5.808397">
        <ele>245.0</ele>
        <time>1970-01-01T00:00:00Z</time>
      </trkpt>
      <trkpt lat="39.886916" lon="-5.806468">
        <ele>248.0</ele>
        <time>1970-01-01T00:00:00Z</time>
      </trkpt>
      <trkpt lat="39.886924" lon="-5.805321">
        <ele>247.9</ele>
        <time>1970-01-01T00:00:00Z</time>
      </trkpt>
      <trkpt lat="39.886946" lon="-5.804854">
        <ele>247.8</ele>
        <time>1970-01-01T00:00:00Z</time>
      </trkpt>
      <trkpt lat="39.887041" lon="-5.803782">
        <ele>246.4</ele>
        <time>1970-01-01T00:00:00Z</time>
      </trkpt>
      <trkpt lat="39.887115" lon="-5.803324">
        <ele>246.0</ele>
        <time>1970-01-01T00:00:00Z</time>
      </trkpt>
      <trkpt lat="39.887156" lon="-5.802910">
        <ele>245.9</ele>
        <time>1970-01-01T00:00:00Z</time>
      </trkpt>
      <trkpt lat="39.887181" lon="-5.802265">
        <ele>245.2</ele>
        <time>1970-01-01T00:00:00Z</time>
      </trkpt>
      <trkpt lat="39.887188" lon="-5.801356">
        <ele>244.4</ele>
        <time>1970-01-01T00:00:00Z</time>
      </trkpt>
      <trkpt lat="39.887120" lon="-5.801104">
        <ele>244.5</ele>
        <time>1970-01-01T00:00:00Z</time>
      </trkpt>
      <trkpt lat="39.886816" lon="-5.800290">
        <ele>245.0</ele>
        <time>1970-01-01T00:00:00Z</time>
      </trkpt>
      <trkpt lat="39.886525" lon="-5.799317">
        <ele>245.0</ele>
        <time>1970-01-01T00:00:00Z</time>
      </trkpt>
      <trkpt lat="39.886404" lon="-5.798799">
        <ele>246.0</ele>
        <time>1970-01-01T00:00:00Z</time>
      </trkpt>
      <trkpt lat="39.886359" lon="-5.798370">
        <ele>249.0</ele>
        <time>1970-01-01T00:00:00Z</time>
      </trkpt>
      <trkpt lat="39.886312" lon="-5.798109">
        <ele>249.7</ele>
        <time>1970-01-01T00:00:00Z</time>
      </trkpt>
      <trkpt lat="39.886294" lon="-5.797881">
        <ele>250.2</ele>
        <time>1970-01-01T00:00:00Z</time>
      </trkpt>
      <trkpt lat="39.886435" lon="-5.797735">
        <ele>251.0</ele>
        <time>1970-01-01T00:00:00Z</time>
      </trkpt>
      <trkpt lat="39.888242" lon="-5.796583">
        <ele>249.0</ele>
        <time>1970-01-01T00:00:00Z</time>
      </trkpt>
      <trkpt lat="39.889647" lon="-5.795590">
        <ele>243.0</ele>
        <time>1970-01-01T00:00:00Z</time>
      </trkpt>
      <trkpt lat="39.892350" lon="-5.792837">
        <ele>225.4</ele>
        <time>1970-01-01T00:00:00Z</time>
      </trkpt>
      <trkpt lat="39.892576" lon="-5.792738">
        <ele>225.0</ele>
        <time>1970-01-01T00:00:00Z</time>
      </trkpt>
      <trkpt lat="39.893591" lon="-5.792872">
        <ele>229.8</ele>
        <time>1970-01-01T00:00:00Z</time>
      </trkpt>
      <trkpt lat="39.894003" lon="-5.792748">
        <ele>233.8</ele>
        <time>1970-01-01T00:00:00Z</time>
      </trkpt>
      <trkpt lat="39.894219" lon="-5.792805">
        <ele>236.0</ele>
        <time>1970-01-01T00:00:00Z</time>
      </trkpt>
      <trkpt lat="39.894323" lon="-5.792850">
        <ele>237.2</ele>
        <time>1970-01-01T00:00:00Z</time>
      </trkpt>
      <trkpt lat="39.894579" lon="-5.793161">
        <ele>239.0</ele>
        <time>1970-01-01T00:00:00Z</time>
      </trkpt>
      <trkpt lat="39.894701" lon="-5.793081">
        <ele>239.8</ele>
        <time>1970-01-01T00:00:00Z</time>
      </trkpt>
      <trkpt lat="39.894809" lon="-5.792896">
        <ele>241.1</ele>
        <time>1970-01-01T00:00:00Z</time>
      </trkpt>
      <trkpt lat="39.894828" lon="-5.792113">
        <ele>242.8</ele>
        <time>1970-01-01T00:00:00Z</time>
      </trkpt>
      <trkpt lat="39.894853" lon="-5.791773">
        <ele>243.1</ele>
        <time>1970-01-01T00:00:00Z</time>
      </trkpt>
      <trkpt lat="39.895009" lon="-5.790621">
        <ele>245.8</ele>
        <time>1970-01-01T00:00:00Z</time>
      </trkpt>
      <trkpt lat="39.895146" lon="-5.789939">
        <ele>246.7</ele>
        <time>1970-01-01T00:00:00Z</time>
      </trkpt>
      <trkpt lat="39.895686" lon="-5.787588">
        <ele>245.2</ele>
        <time>1970-01-01T00:00:00Z</time>
      </trkpt>
      <trkpt lat="39.896023" lon="-5.786184">
        <ele>242.0</ele>
        <time>1970-01-01T00:00:00Z</time>
      </trkpt>
      <trkpt lat="39.896535" lon="-5.783913">
        <ele>243.0</ele>
        <time>1970-01-01T00:00:00Z</time>
      </trkpt>
      <trkpt lat="39.897103" lon="-5.781348">
        <ele>245.8</ele>
        <time>1970-01-01T00:00:00Z</time>
      </trkpt>
      <trkpt lat="39.897192" lon="-5.780865">
        <ele>249.3</ele>
        <time>1970-01-01T00:00:00Z</time>
      </trkpt>
      <trkpt lat="39.897227" lon="-5.780581">
        <ele>250.8</ele>
        <time>1970-01-01T00:00:00Z</time>
      </trkpt>
      <trkpt lat="39.897032" lon="-5.780347">
        <ele>250.9</ele>
        <time>1970-01-01T00:00:00Z</time>
      </trkpt>
      <trkpt lat="39.896778" lon="-5.780088">
        <ele>250.0</ele>
        <time>1970-01-01T00:00:00Z</time>
      </trkpt>
      <trkpt lat="39.896499" lon="-5.779827">
        <ele>247.1</ele>
        <time>1970-01-01T00:00:00Z</time>
      </trkpt>
      <trkpt lat="39.895481" lon="-5.779070">
        <ele>242.0</ele>
        <time>1970-01-01T00:00:00Z</time>
      </trkpt>
      <trkpt lat="39.894854" lon="-5.778654">
        <ele>247.0</ele>
        <time>1970-01-01T00:00:00Z</time>
      </trkpt>
      <trkpt lat="39.894633" lon="-5.778556">
        <ele>248.0</ele>
        <time>1970-01-01T00:00:00Z</time>
      </trkpt>
      <trkpt lat="39.892956" lon="-5.778214">
        <ele>241.8</ele>
        <time>1970-01-01T00:00:00Z</time>
      </trkpt>
      <trkpt lat="39.892336" lon="-5.778066">
        <ele>240.5</ele>
        <time>1970-01-01T00:00:00Z</time>
      </trkpt>
      <trkpt lat="39.892070" lon="-5.777862">
        <ele>241.0</ele>
        <time>1970-01-01T00:00:00Z</time>
      </trkpt>
      <trkpt lat="39.891594" lon="-5.777294">
        <ele>242.1</ele>
        <time>1970-01-01T00:00:00Z</time>
      </trkpt>
      <trkpt lat="39.891426" lon="-5.777168">
        <ele>241.5</ele>
        <time>1970-01-01T00:00:00Z</time>
      </trkpt>
      <trkpt lat="39.891272" lon="-5.777140">
        <ele>240.9</ele>
        <time>1970-01-01T00:00:00Z</time>
      </trkpt>
      <trkpt lat="39.890928" lon="-5.777037">
        <ele>239.9</ele>
        <time>1970-01-01T00:00:00Z</time>
      </trkpt>
      <trkpt lat="39.890654" lon="-5.776914">
        <ele>239.2</ele>
        <time>1970-01-01T00:00:00Z</time>
      </trkpt>
      <trkpt lat="39.890373" lon="-5.776810">
        <ele>238.6</ele>
        <time>1970-01-01T00:00:00Z</time>
      </trkpt>
      <trkpt lat="39.889862" lon="-5.777001">
        <ele>237.0</ele>
        <time>1970-01-01T00:00:00Z</time>
      </trkpt>
      <trkpt lat="39.889309" lon="-5.777161">
        <ele>236.9</ele>
        <time>1970-01-01T00:00:00Z</time>
      </trkpt>
      <trkpt lat="39.888803" lon="-5.777185">
        <ele>236.8</ele>
        <time>1970-01-01T00:00:00Z</time>
      </trkpt>
      <trkpt lat="39.888569" lon="-5.777157">
        <ele>236.9</ele>
        <time>1970-01-01T00:00:00Z</time>
      </trkpt>
      <trkpt lat="39.886721" lon="-5.776792">
        <ele>226.6</ele>
        <time>1970-01-01T00:00:00Z</time>
      </trkpt>
      <trkpt lat="39.885432" lon="-5.776612">
        <ele>222.8</ele>
        <time>1970-01-01T00:00:00Z</time>
      </trkpt>
      <trkpt lat="39.883990" lon="-5.776469">
        <ele>231.0</ele>
        <time>1970-01-01T00:00:00Z</time>
      </trkpt>
      <trkpt lat="39.883192" lon="-5.776348">
        <ele>230.4</ele>
        <time>1970-01-01T00:00:00Z</time>
      </trkpt>
      <trkpt lat="39.882768" lon="-5.776361">
        <ele>228.5</ele>
        <time>1970-01-01T00:00:00Z</time>
      </trkpt>
      <trkpt lat="39.881947" lon="-5.776422">
        <ele>227.4</ele>
        <time>1970-01-01T00:00:00Z</time>
      </trkpt>
      <trkpt lat="39.880668" lon="-5.776632">
        <ele>236.5</ele>
        <time>1970-01-01T00:00:00Z</time>
      </trkpt>
      <trkpt lat="39.880118" lon="-5.776674">
        <ele>239.0</ele>
        <time>1970-01-01T00:00:00Z</time>
      </trkpt>
      <trkpt lat="39.878785" lon="-5.776630">
        <ele>243.1</ele>
        <time>1970-01-01T00:00:00Z</time>
      </trkpt>
      <trkpt lat="39.878417" lon="-5.776695">
        <ele>244.7</ele>
        <time>1970-01-01T00:00:00Z</time>
      </trkpt>
      <trkpt lat="39.878005" lon="-5.776842">
        <ele>246.3</ele>
        <time>1970-01-01T00:00:00Z</time>
      </trkpt>
      <trkpt lat="39.876923" lon="-5.777283">
        <ele>251.0</ele>
        <time>1970-01-01T00:00:00Z</time>
      </trkpt>
      <trkpt lat="39.876238" lon="-5.777696">
        <ele>250.5</ele>
        <time>1970-01-01T00:00:00Z</time>
      </trkpt>
      <trkpt lat="39.875804" lon="-5.778010">
        <ele>252.0</ele>
        <time>1970-01-01T00:00:00Z</time>
      </trkpt>
      <trkpt lat="39.875434" lon="-5.778336">
        <ele>252.6</ele>
        <time>1970-01-01T00:00:00Z</time>
      </trkpt>
      <trkpt lat="39.875302" lon="-5.778425">
        <ele>253.0</ele>
        <time>1970-01-01T00:00:00Z</time>
      </trkpt>
      <trkpt lat="39.875125" lon="-5.778626">
        <ele>253.0</ele>
        <time>1970-01-01T00:00:00Z</time>
      </trkpt>
      <trkpt lat="39.874958" lon="-5.778768">
        <ele>253.6</ele>
        <time>1970-01-01T00:00:00Z</time>
      </trkpt>
      <trkpt lat="39.874477" lon="-5.779114">
        <ele>255.7</ele>
        <time>1970-01-01T00:00:00Z</time>
      </trkpt>
      <trkpt lat="39.874122" lon="-5.779456">
        <ele>256.2</ele>
        <time>1970-01-01T00:00:00Z</time>
      </trkpt>
      <trkpt lat="39.874007" lon="-5.779493">
        <ele>256.6</ele>
        <time>1970-01-01T00:00:00Z</time>
      </trkpt>
      <trkpt lat="39.873828" lon="-5.779613">
        <ele>256.3</ele>
        <time>1970-01-01T00:00:00Z</time>
      </trkpt>
      <trkpt lat="39.873626" lon="-5.779778">
        <ele>256.0</ele>
        <time>1970-01-01T00:00:00Z</time>
      </trkpt>
      <trkpt lat="39.873161" lon="-5.780244">
        <ele>253.2</ele>
        <time>1970-01-01T00:00:00Z</time>
      </trkpt>
      <trkpt lat="39.873041" lon="-5.780309">
        <ele>252.4</ele>
        <time>1970-01-01T00:00:00Z</time>
      </trkpt>
      <trkpt lat="39.872342" lon="-5.780538">
        <ele>252.0</ele>
        <time>1970-01-01T00:00:00Z</time>
      </trkpt>
      <trkpt lat="39.872118" lon="-5.780459">
        <ele>252.0</ele>
        <time>1970-01-01T00:00:00Z</time>
      </trkpt>
      <trkpt lat="39.871826" lon="-5.780413">
        <ele>253.0</ele>
        <time>1970-01-01T00:00:00Z</time>
      </trkpt>
      <trkpt lat="39.871214" lon="-5.780329">
        <ele>252.0</ele>
        <time>1970-01-01T00:00:00Z</time>
      </trkpt>
      <trkpt lat="39.870039" lon="-5.780207">
        <ele>252.7</ele>
        <time>1970-01-01T00:00:00Z</time>
      </trkpt>
      <trkpt lat="39.869723" lon="-5.780150">
        <ele>253.0</ele>
        <time>1970-01-01T00:00:00Z</time>
      </trkpt>
      <trkpt lat="39.869263" lon="-5.780097">
        <ele>253.2</ele>
        <time>1970-01-01T00:00:00Z</time>
      </trkpt>
      <trkpt lat="39.868905" lon="-5.780082">
        <ele>252.6</ele>
        <time>1970-01-01T00:00:00Z</time>
      </trkpt>
      <trkpt lat="39.868746" lon="-5.780036">
        <ele>252.5</ele>
        <time>1970-01-01T00:00:00Z</time>
      </trkpt>
      <trkpt lat="39.868642" lon="-5.779923">
        <ele>253.0</ele>
        <time>1970-01-01T00:00:00Z</time>
      </trkpt>
      <trkpt lat="39.868616" lon="-5.779729">
        <ele>253.8</ele>
        <time>1970-01-01T00:00:00Z</time>
      </trkpt>
      <trkpt lat="39.868528" lon="-5.779572">
        <ele>254.5</ele>
        <time>1970-01-01T00:00:00Z</time>
      </trkpt>
      <trkpt lat="39.868349" lon="-5.779421">
        <ele>254.9</ele>
        <time>1970-01-01T00:00:00Z</time>
      </trkpt>
      <trkpt lat="39.868126" lon="-5.779318">
        <ele>254.5</ele>
        <time>1970-01-01T00:00:00Z</time>
      </trkpt>
      <trkpt lat="39.867911" lon="-5.779259">
        <ele>253.8</ele>
        <time>1970-01-01T00:00:00Z</time>
      </trkpt>
      <trkpt lat="39.867641" lon="-5.779157">
        <ele>253.2</ele>
        <time>1970-01-01T00:00:00Z</time>
      </trkpt>
      <trkpt lat="39.867548" lon="-5.779074">
        <ele>253.3</ele>
        <time>1970-01-01T00:00:00Z</time>
      </trkpt>
      <trkpt lat="39.867440" lon="-5.778926">
        <ele>253.3</ele>
        <time>1970-01-01T00:00:00Z</time>
      </trkpt>
      <trkpt lat="39.867331" lon="-5.778738">
        <ele>254.1</ele>
        <time>1970-01-01T00:00:00Z</time>
      </trkpt>
      <trkpt lat="39.867121" lon="-5.778552">
        <ele>254.9</ele>
        <time>1970-01-01T00:00:00Z</time>
      </trkpt>
      <trkpt lat="39.866986" lon="-5.778487">
        <ele>255.2</ele>
        <time>1970-01-01T00:00:00Z</time>
      </trkpt>
      <trkpt lat="39.866723" lon="-5.778476">
        <ele>255.2</ele>
        <time>1970-01-01T00:00:00Z</time>
      </trkpt>
      <trkpt lat="39.865799" lon="-5.778197">
        <ele>256.4</ele>
        <time>1970-01-01T00:00:00Z</time>
      </trkpt>
      <trkpt lat="39.865584" lon="-5.778109">
        <ele>255.9</ele>
        <time>1970-01-01T00:00:00Z</time>
      </trkpt>
      <trkpt lat="39.864954" lon="-5.777811">
        <ele>250.6</ele>
        <time>1970-01-01T00:00:00Z</time>
      </trkpt>
      <trkpt lat="39.864610" lon="-5.777708">
        <ele>249.0</ele>
        <time>1970-01-01T00:00:00Z</time>
      </trkpt>
      <trkpt lat="39.864485" lon="-5.777639">
        <ele>249.0</ele>
        <time>1970-01-01T00:00:00Z</time>
      </trkpt>
      <trkpt lat="39.864262" lon="-5.777417">
        <ele>249.0</ele>
        <time>1970-01-01T00:00:00Z</time>
      </trkpt>
      <trkpt lat="39.864157" lon="-5.777334">
        <ele>249.7</ele>
        <time>1970-01-01T00:00:00Z</time>
      </trkpt>
      <trkpt lat="39.863964" lon="-5.777271">
        <ele>251.2</ele>
        <time>1970-01-01T00:00:00Z</time>
      </trkpt>
      <trkpt lat="39.863801" lon="-5.777245">
        <ele>252.6</ele>
        <time>1970-01-01T00:00:00Z</time>
      </trkpt>
      <trkpt lat="39.863418" lon="-5.777145">
        <ele>254.5</ele>
        <time>1970-01-01T00:00:00Z</time>
      </trkpt>
      <trkpt lat="39.863199" lon="-5.777048">
        <ele>255.2</ele>
        <time>1970-01-01T00:00:00Z</time>
      </trkpt>
      <trkpt lat="39.862814" lon="-5.777205">
        <ele>257.4</ele>
        <time>1970-01-01T00:00:00Z</time>
      </trkpt>
      <trkpt lat="39.862459" lon="-5.777389">
        <ele>260.2</ele>
        <time>1970-01-01T00:00:00Z</time>
      </trkpt>
      <trkpt lat="39.861955" lon="-5.777730">
        <ele>260.9</ele>
        <time>1970-01-01T00:00:00Z</time>
      </trkpt>
      <trkpt lat="39.861812" lon="-5.777808">
        <ele>260.6</ele>
        <time>1970-01-01T00:00:00Z</time>
      </trkpt>
      <trkpt lat="39.861636" lon="-5.777840">
        <ele>261.3</ele>
        <time>1970-01-01T00:00:00Z</time>
      </trkpt>
      <trkpt lat="39.861417" lon="-5.778044">
        <ele>262.2</ele>
        <time>1970-01-01T00:00:00Z</time>
      </trkpt>
      <trkpt lat="39.861146" lon="-5.778395">
        <ele>262.6</ele>
        <time>1970-01-01T00:00:00Z</time>
      </trkpt>
      <trkpt lat="39.861000" lon="-5.778607">
        <ele>263.0</ele>
        <time>1970-01-01T00:00:00Z</time>
      </trkpt>
      <trkpt lat="39.860967" lon="-5.778714">
        <ele>263.0</ele>
        <time>1970-01-01T00:00:00Z</time>
      </trkpt>
      <trkpt lat="39.860753" lon="-5.778730">
        <ele>264.0</ele>
        <time>1970-01-01T00:00:00Z</time>
      </trkpt>
      <trkpt lat="39.860597" lon="-5.778843">
        <ele>264.6</ele>
        <time>1970-01-01T00:00:00Z</time>
      </trkpt>
      <trkpt lat="39.860481" lon="-5.778947">
        <ele>265.0</ele>
        <time>1970-01-01T00:00:00Z</time>
      </trkpt>
      <trkpt lat="39.860380" lon="-5.779012">
        <ele>265.0</ele>
        <time>1970-01-01T00:00:00Z</time>
      </trkpt>
      <trkpt lat="39.860022" lon="-5.779166">
        <ele>264.8</ele>
        <time>1970-01-01T00:00:00Z</time>
      </trkpt>
      <trkpt lat="39.859547" lon="-5.779246">
        <ele>262.6</ele>
        <time>1970-01-01T00:00:00Z</time>
      </trkpt>
      <trkpt lat="39.859375" lon="-5.779254">
        <ele>261.1</ele>
        <time>1970-01-01T00:00:00Z</time>
      </trkpt>
      <trkpt lat="39.859173" lon="-5.779226">
        <ele>261.0</ele>
        <time>1970-01-01T00:00:00Z</time>
      </trkpt>
      <trkpt lat="39.858935" lon="-5.779161">
        <ele>261.9</ele>
        <time>1970-01-01T00:00:00Z</time>
      </trkpt>
      <trkpt lat="39.858729" lon="-5.779143">
        <ele>262.0</ele>
        <time>1970-01-01T00:00:00Z</time>
      </trkpt>
      <trkpt lat="39.858561" lon="-5.779151">
        <ele>262.1</ele>
        <time>1970-01-01T00:00:00Z</time>
      </trkpt>
      <trkpt lat="39.858041" lon="-5.779224">
        <ele>262.3</ele>
        <time>1970-01-01T00:00:00Z</time>
      </trkpt>
      <trkpt lat="39.857577" lon="-5.779324">
        <ele>263.8</ele>
        <time>1970-01-01T00:00:00Z</time>
      </trkpt>
      <trkpt lat="39.857322" lon="-5.779453">
        <ele>263.8</ele>
        <time>1970-01-01T00:00:00Z</time>
      </trkpt>
      <trkpt lat="39.857024" lon="-5.779653">
        <ele>263.0</ele>
        <time>1970-01-01T00:00:00Z</time>
      </trkpt>
      <trkpt lat="39.856730" lon="-5.779651">
        <ele>263.5</ele>
        <time>1970-01-01T00:00:00Z</time>
      </trkpt>
      <trkpt lat="39.856573" lon="-5.779685">
        <ele>264.0</ele>
        <time>1970-01-01T00:00:00Z</time>
      </trkpt>
      <trkpt lat="39.856500" lon="-5.779769">
        <ele>264.3</ele>
        <time>1970-01-01T00:00:00Z</time>
      </trkpt>
      <trkpt lat="39.856241" lon="-5.779937">
        <ele>265.5</ele>
        <time>1970-01-01T00:00:00Z</time>
      </trkpt>
      <trkpt lat="39.856158" lon="-5.780038">
        <ele>265.8</ele>
        <time>1970-01-01T00:00:00Z</time>
      </trkpt>
      <trkpt lat="39.856090" lon="-5.780161">
        <ele>266.1</ele>
        <time>1970-01-01T00:00:00Z</time>
      </trkpt>
      <trkpt lat="39.856016" lon="-5.780240">
        <ele>266.3</ele>
        <time>1970-01-01T00:00:00Z</time>
      </trkpt>
      <trkpt lat="39.855688" lon="-5.780460">
        <ele>267.8</ele>
        <time>1970-01-01T00:00:00Z</time>
      </trkpt>
      <trkpt lat="39.855274" lon="-5.780793">
        <ele>269.9</ele>
        <time>1970-01-01T00:00:00Z</time>
      </trkpt>
      <trkpt lat="39.855105" lon="-5.780908">
        <ele>269.7</ele>
        <time>1970-01-01T00:00:00Z</time>
      </trkpt>
      <trkpt lat="39.854929" lon="-5.780964">
        <ele>269.5</ele>
        <time>1970-01-01T00:00:00Z</time>
      </trkpt>
      <trkpt lat="39.854703" lon="-5.780999">
        <ele>269.5</ele>
        <time>1970-01-01T00:00:00Z</time>
      </trkpt>
      <trkpt lat="39.854591" lon="-5.780984">
        <ele>268.7</ele>
        <time>1970-01-01T00:00:00Z</time>
      </trkpt>
      <trkpt lat="39.854495" lon="-5.780939">
        <ele>268.0</ele>
        <time>1970-01-01T00:00:00Z</time>
      </trkpt>
      <trkpt lat="39.854290" lon="-5.780916">
        <ele>268.0</ele>
        <time>1970-01-01T00:00:00Z</time>
      </trkpt>
      <trkpt lat="39.853920" lon="-5.780949">
        <ele>267.9</ele>
        <time>1970-01-01T00:00:00Z</time>
      </trkpt>
      <trkpt lat="39.853718" lon="-5.781012">
        <ele>268.7</ele>
        <time>1970-01-01T00:00:00Z</time>
      </trkpt>
      <trkpt lat="39.853516" lon="-5.781119">
        <ele>269.2</ele>
        <time>1970-01-01T00:00:00Z</time>
      </trkpt>
      <trkpt lat="39.853040" lon="-5.781174">
        <ele>269.2</ele>
        <time>1970-01-01T00:00:00Z</time>
      </trkpt>
      <trkpt lat="39.852111" lon="-5.781500">
        <ele>268.8</ele>
        <time>1970-01-01T00:00:00Z</time>
      </trkpt>
      <trkpt lat="39.852047" lon="-5.781542">
        <ele>269.0</ele>
        <time>1970-01-01T00:00:00Z</time>
      </trkpt>
      <trkpt lat="39.851336" lon="-5.781736">
        <ele>268.3</ele>
        <time>1970-01-01T00:00:00Z</time>
      </trkpt>
      <trkpt lat="39.850635" lon="-5.781852">
        <ele>269.0</ele>
        <time>1970-01-01T00:00:00Z</time>
      </trkpt>
      <trkpt lat="39.850299" lon="-5.781924">
        <ele>269.8</ele>
        <time>1970-01-01T00:00:00Z</time>
      </trkpt>
      <trkpt lat="39.850016" lon="-5.781901">
        <ele>270.2</ele>
        <time>1970-01-01T00:00:00Z</time>
      </trkpt>
      <trkpt lat="39.849587" lon="-5.782032">
        <ele>269.3</ele>
        <time>1970-01-01T00:00:00Z</time>
      </trkpt>
      <trkpt lat="39.849402" lon="-5.782106">
        <ele>270.0</ele>
        <time>1970-01-01T00:00:00Z</time>
      </trkpt>
      <trkpt lat="39.849135" lon="-5.782285">
        <ele>270.0</ele>
        <time>1970-01-01T00:00:00Z</time>
      </trkpt>
      <trkpt lat="39.848944" lon="-5.782244">
        <ele>270.0</ele>
        <time>1970-01-01T00:00:00Z</time>
      </trkpt>
      <trkpt lat="39.848612" lon="-5.782249">
        <ele>270.8</ele>
        <time>1970-01-01T00:00:00Z</time>
      </trkpt>
      <trkpt lat="39.848477" lon="-5.782273">
        <ele>272.0</ele>
        <time>1970-01-01T00:00:00Z</time>
      </trkpt>
      <trkpt lat="39.848210" lon="-5.782426">
        <ele>273.2</ele>
        <time>1970-01-01T00:00:00Z</time>
      </trkpt>
      <trkpt lat="39.847843" lon="-5.782485">
        <ele>274.7</ele>
        <time>1970-01-01T00:00:00Z</time>
      </trkpt>
      <trkpt lat="39.847551" lon="-5.782592">
        <ele>274.5</ele>
        <time>1970-01-01T00:00:00Z</time>
      </trkpt>
      <trkpt lat="39.847461" lon="-5.782640">
        <ele>274.2</ele>
        <time>1970-01-01T00:00:00Z</time>
      </trkpt>
      <trkpt lat="39.847289" lon="-5.782815">
        <ele>273.2</ele>
        <time>1970-01-01T00:00:00Z</time>
      </trkpt>
      <trkpt lat="39.847131" lon="-5.782924">
        <ele>271.4</ele>
        <time>1970-01-01T00:00:00Z</time>
      </trkpt>
      <trkpt lat="39.846330" lon="-5.783437">
        <ele>265.9</ele>
        <time>1970-01-01T00:00:00Z</time>
      </trkpt>
      <trkpt lat="39.846176" lon="-5.783516">
        <ele>265.6</ele>
        <time>1970-01-01T00:00:00Z</time>
      </trkpt>
      <trkpt lat="39.845945" lon="-5.783740">
        <ele>266.0</ele>
        <time>1970-01-01T00:00:00Z</time>
      </trkpt>
      <trkpt lat="39.845526" lon="-5.784265">
        <ele>265.2</ele>
        <time>1970-01-01T00:00:00Z</time>
      </trkpt>
      <trkpt lat="39.845193" lon="-5.784560">
        <ele>264.8</ele>
        <time>1970-01-01T00:00:00Z</time>
      </trkpt>
      <trkpt lat="39.844899" lon="-5.784793">
        <ele>264.0</ele>
        <time>1970-01-01T00:00:00Z</time>
      </trkpt>
      <trkpt lat="39.844637" lon="-5.784968">
        <ele>263.9</ele>
        <time>1970-01-01T00:00:00Z</time>
      </trkpt>
      <trkpt lat="39.844249" lon="-5.785163">
        <ele>262.4</ele>
        <time>1970-01-01T00:00:00Z</time>
      </trkpt>
      <trkpt lat="39.844039" lon="-5.785333">
        <ele>261.8</ele>
        <time>1970-01-01T00:00:00Z</time>
      </trkpt>
      <trkpt lat="39.843917" lon="-5.785525">
        <ele>261.4</ele>
        <time>1970-01-01T00:00:00Z</time>
      </trkpt>
      <trkpt lat="39.843575" lon="-5.785956">
        <ele>259.8</ele>
        <time>1970-01-01T00:00:00Z</time>
      </trkpt>
      <trkpt lat="39.842944" lon="-5.786272">
        <ele>260.3</ele>
        <time>1970-01-01T00:00:00Z</time>
      </trkpt>
      <trkpt lat="39.842704" lon="-5.786478">
        <ele>262.6</ele>
        <time>1970-01-01T00:00:00Z</time>
      </trkpt>
      <trkpt lat="39.842312" lon="-5.786636">
        <ele>265.0</ele>
        <time>1970-01-01T00:00:00Z</time>
      </trkpt>
      <trkpt lat="39.841832" lon="-5.786854">
        <ele>269.6</ele>
        <time>1970-01-01T00:00:00Z</time>
      </trkpt>
      <trkpt lat="39.841723" lon="-5.786850">
        <ele>269.7</ele>
        <time>1970-01-01T00:00:00Z</time>
      </trkpt>
      <trkpt lat="39.841594" lon="-5.786874">
        <ele>269.3</ele>
        <time>1970-01-01T00:00:00Z</time>
      </trkpt>
      <trkpt lat="39.840894" lon="-5.787313">
        <ele>261.8</ele>
        <time>1970-01-01T00:00:00Z</time>
      </trkpt>
      <trkpt lat="39.840777" lon="-5.787409">
        <ele>259.7</ele>
        <time>1970-01-01T00:00:00Z</time>
      </trkpt>
      <trkpt lat="39.840630" lon="-5.787570">
        <ele>256.2</ele>
        <time>1970-01-01T00:00:00Z</time>
      </trkpt>
      <trkpt lat="39.840396" lon="-5.787679">
        <ele>252.7</ele>
        <time>1970-01-01T00:00:00Z</time>
      </trkpt>
      <trkpt lat="39.840290" lon="-5.787801">
        <ele>250.9</ele>
        <time>1970-01-01T00:00:00Z</time>
      </trkpt>
      <trkpt lat="39.840191" lon="-5.787882">
        <ele>250.3</ele>
        <time>1970-01-01T00:00:00Z</time>
      </trkpt>
      <trkpt lat="39.840093" lon="-5.787926">
        <ele>250.2</ele>
        <time>1970-01-01T00:00:00Z</time>
      </trkpt>
      <trkpt lat="39.839961" lon="-5.787940">
        <ele>251.0</ele>
        <time>1970-01-01T00:00:00Z</time>
      </trkpt>
      <trkpt lat="39.839869" lon="-5.788066">
        <ele>251.4</ele>
        <time>1970-01-01T00:00:00Z</time>
      </trkpt>
      <trkpt lat="39.839649" lon="-5.788068">
        <ele>254.3</ele>
        <time>1970-01-01T00:00:00Z</time>
      </trkpt>
      <trkpt lat="39.839497" lon="-5.788095">
        <ele>256.1</ele>
        <time>1970-01-01T00:00:00Z</time>
      </trkpt>
      <trkpt lat="39.839328" lon="-5.788192">
        <ele>259.6</ele>
        <time>1970-01-01T00:00:00Z</time>
      </trkpt>
      <trkpt lat="39.839177" lon="-5.788308">
        <ele>262.6</ele>
        <time>1970-01-01T00:00:00Z</time>
      </trkpt>
      <trkpt lat="39.838835" lon="-5.788629">
        <ele>270.9</ele>
        <time>1970-01-01T00:00:00Z</time>
      </trkpt>
      <trkpt lat="39.838235" lon="-5.789276">
        <ele>276.4</ele>
        <time>1970-01-01T00:00:00Z</time>
      </trkpt>
      <trkpt lat="39.838028" lon="-5.789457">
        <ele>277.2</ele>
        <time>1970-01-01T00:00:00Z</time>
      </trkpt>
      <trkpt lat="39.837448" lon="-5.789915">
        <ele>280.9</ele>
        <time>1970-01-01T00:00:00Z</time>
      </trkpt>
      <trkpt lat="39.836091" lon="-5.790929">
        <ele>276.0</ele>
        <time>1970-01-01T00:00:00Z</time>
      </trkpt>
      <trkpt lat="39.835830" lon="-5.791174">
        <ele>274.4</ele>
        <time>1970-01-01T00:00:00Z</time>
      </trkpt>
      <trkpt lat="39.835070" lon="-5.791845">
        <ele>270.7</ele>
        <time>1970-01-01T00:00:00Z</time>
      </trkpt>
      <trkpt lat="39.834909" lon="-5.792031">
        <ele>270.5</ele>
        <time>1970-01-01T00:00:00Z</time>
      </trkpt>
      <trkpt lat="39.834801" lon="-5.792120">
        <ele>269.7</ele>
        <time>1970-01-01T00:00:00Z</time>
      </trkpt>
      <trkpt lat="39.834645" lon="-5.792280">
        <ele>267.7</ele>
        <time>1970-01-01T00:00:00Z</time>
      </trkpt>
      <trkpt lat="39.834558" lon="-5.792343">
        <ele>266.6</ele>
        <time>1970-01-01T00:00:00Z</time>
      </trkpt>
      <trkpt lat="39.834014" lon="-5.792618">
        <ele>261.0</ele>
        <time>1970-01-01T00:00:00Z</time>
      </trkpt>
      <trkpt lat="39.833861" lon="-5.792653">
        <ele>259.7</ele>
        <time>1970-01-01T00:00:00Z</time>
      </trkpt>
      <trkpt lat="39.833772" lon="-5.792657">
        <ele>258.9</ele>
        <time>1970-01-01T00:00:00Z</time>
      </trkpt>
      <trkpt lat="39.833640" lon="-5.792703">
        <ele>257.8</ele>
        <time>1970-01-01T00:00:00Z</time>
      </trkpt>
      <trkpt lat="39.833291" lon="-5.792945">
        <ele>254.9</ele>
        <time>1970-01-01T00:00:00Z</time>
      </trkpt>
      <trkpt lat="39.833085" lon="-5.793181">
        <ele>255.3</ele>
        <time>1970-01-01T00:00:00Z</time>
      </trkpt>
      <trkpt lat="39.833003" lon="-5.793241">
        <ele>255.5</ele>
        <time>1970-01-01T00:00:00Z</time>
      </trkpt>
      <trkpt lat="39.832778" lon="-5.793455">
        <ele>256.5</ele>
        <time>1970-01-01T00:00:00Z</time>
      </trkpt>
      <trkpt lat="39.832688" lon="-5.793492">
        <ele>256.8</ele>
        <time>1970-01-01T00:00:00Z</time>
      </trkpt>
      <trkpt lat="39.832612" lon="-5.793570">
        <ele>257.5</ele>
        <time>1970-01-01T00:00:00Z</time>
      </trkpt>
      <trkpt lat="39.832408" lon="-5.793621">
        <ele>258.8</ele>
        <time>1970-01-01T00:00:00Z</time>
      </trkpt>
      <trkpt lat="39.831746" lon="-5.793906">
        <ele>262.7</ele>
        <time>1970-01-01T00:00:00Z</time>
      </trkpt>
      <trkpt lat="39.831377" lon="-5.794047">
        <ele>265.8</ele>
        <time>1970-01-01T00:00:00Z</time>
      </trkpt>
      <trkpt lat="39.830961" lon="-5.794297">
        <ele>272.1</ele>
        <time>1970-01-01T00:00:00Z</time>
      </trkpt>
      <trkpt lat="39.830708" lon="-5.794473">
        <ele>276.2</ele>
        <time>1970-01-01T00:00:00Z</time>
      </trkpt>
      <trkpt lat="39.829475" lon="-5.795220">
        <ele>276.8</ele>
        <time>1970-01-01T00:00:00Z</time>
      </trkpt>
      <trkpt lat="39.829256" lon="-5.795296">
        <ele>275.0</ele>
        <time>1970-01-01T00:00:00Z</time>
      </trkpt>
      <trkpt lat="39.828540" lon="-5.795798">
        <ele>275.3</ele>
        <time>1970-01-01T00:00:00Z</time>
      </trkpt>
      <trkpt lat="39.827971" lon="-5.796246">
        <ele>282.2</ele>
        <time>1970-01-01T00:00:00Z</time>
      </trkpt>
      <trkpt lat="39.827596" lon="-5.796386">
        <ele>285.5</ele>
        <time>1970-01-01T00:00:00Z</time>
      </trkpt>
      <trkpt lat="39.827225" lon="-5.796728">
        <ele>287.6</ele>
        <time>1970-01-01T00:00:00Z</time>
      </trkpt>
      <trkpt lat="39.827098" lon="-5.796771">
        <ele>287.8</ele>
        <time>1970-01-01T00:00:00Z</time>
      </trkpt>
      <trkpt lat="39.825913" lon="-5.796789">
        <ele>292.9</ele>
        <time>1970-01-01T00:00:00Z</time>
      </trkpt>
      <trkpt lat="39.825517" lon="-5.796758">
        <ele>291.6</ele>
        <time>1970-01-01T00:00:00Z</time>
      </trkpt>
      <trkpt lat="39.825049" lon="-5.796840">
        <ele>291.0</ele>
        <time>1970-01-01T00:00:00Z</time>
      </trkpt>
      <trkpt lat="39.824715" lon="-5.796926">
        <ele>291.5</ele>
        <time>1970-01-01T00:00:00Z</time>
      </trkpt>
      <trkpt lat="39.824416" lon="-5.797085">
        <ele>292.1</ele>
        <time>1970-01-01T00:00:00Z</time>
      </trkpt>
      <trkpt lat="39.823979" lon="-5.797416">
        <ele>295.5</ele>
        <time>1970-01-01T00:00:00Z</time>
      </trkpt>
      <trkpt lat="39.823585" lon="-5.797763">
        <ele>299.2</ele>
        <time>1970-01-01T00:00:00Z</time>
      </trkpt>
      <trkpt lat="39.823376" lon="-5.797866">
        <ele>301.4</ele>
        <time>1970-01-01T00:00:00Z</time>
      </trkpt>
      <trkpt lat="39.823127" lon="-5.798023">
        <ele>304.2</ele>
        <time>1970-01-01T00:00:00Z</time>
      </trkpt>
      <trkpt lat="39.822669" lon="-5.798275">
        <ele>309.5</ele>
        <time>1970-01-01T00:00:00Z</time>
      </trkpt>
      <trkpt lat="39.822374" lon="-5.798415">
        <ele>313.3</ele>
        <time>1970-01-01T00:00:00Z</time>
      </trkpt>
      <trkpt lat="39.821932" lon="-5.798790">
        <ele>316.7</ele>
        <time>1970-01-01T00:00:00Z</time>
      </trkpt>
      <trkpt lat="39.821780" lon="-5.798930">
        <ele>317.3</ele>
        <time>1970-01-01T00:00:00Z</time>
      </trkpt>
      <trkpt lat="39.821686" lon="-5.799044">
        <ele>317.6</ele>
        <time>1970-01-01T00:00:00Z</time>
      </trkpt>
      <trkpt lat="39.821409" lon="-5.799553">
        <ele>317.0</ele>
        <time>1970-01-01T00:00:00Z</time>
      </trkpt>
      <trkpt lat="39.821250" lon="-5.799807">
        <ele>317.0</ele>
        <time>1970-01-01T00:00:00Z</time>
      </trkpt>
      <trkpt lat="39.821086" lon="-5.799995">
        <ele>316.7</ele>
        <time>1970-01-01T00:00:00Z</time>
      </trkpt>
      <trkpt lat="39.820484" lon="-5.800481">
        <ele>313.0</ele>
        <time>1970-01-01T00:00:00Z</time>
      </trkpt>
      <trkpt lat="39.820357" lon="-5.800665">
        <ele>312.4</ele>
        <time>1970-01-01T00:00:00Z</time>
      </trkpt>
      <trkpt lat="39.820304" lon="-5.800837">
        <ele>311.5</ele>
        <time>1970-01-01T00:00:00Z</time>
      </trkpt>
      <trkpt lat="39.820079" lon="-5.800707">
        <ele>312.8</ele>
        <time>1970-01-01T00:00:00Z</time>
      </trkpt>
      <trkpt lat="39.819745" lon="-5.800793">
        <ele>315.1</ele>
        <time>1970-01-01T00:00:00Z</time>
      </trkpt>
      <trkpt lat="39.819071" lon="-5.800826">
        <ele>320.1</ele>
        <time>1970-01-01T00:00:00Z</time>
      </trkpt>
      <trkpt lat="39.818729" lon="-5.800932">
        <ele>322.2</ele>
        <time>1970-01-01T00:00:00Z</time>
      </trkpt>
      <trkpt lat="39.818647" lon="-5.800625">
        <ele>320.4</ele>
        <time>1970-01-01T00:00:00Z</time>
      </trkpt>
      <trkpt lat="39.818134" lon="-5.800315">
        <ele>317.1</ele>
        <time>1970-01-01T00:00:00Z</time>
      </trkpt>
      <trkpt lat="39.817646" lon="-5.799946">
        <ele>313.0</ele>
        <time>1970-01-01T00:00:00Z</time>
      </trkpt>
      <trkpt lat="39.817718" lon="-5.799811">
        <ele>312.0</ele>
        <time>1970-01-01T00:00:00Z</time>
      </trkpt>
      <trkpt lat="39.817568" lon="-5.799718">
        <ele>312.0</ele>
        <time>1970-01-01T00:00:00Z</time>
      </trkpt>
    </trkseg>
    <trkseg>
      <trkpt lat="39.817568" lon="-5.799718">
        <ele>312.0</ele>
        <time>1970-01-01T00:00:00Z</time>
      </trkpt>
      <trkpt lat="39.817104" lon="-5.799411">
        <ele>314.0</ele>
        <time>1970-01-01T00:00:00Z</time>
      </trkpt>
      <trkpt lat="39.817034" lon="-5.799309">
        <ele>314.0</ele>
        <time>1970-01-01T00:00:00Z</time>
      </trkpt>
      <trkpt lat="39.817083" lon="-5.799037">
        <ele>314.0</ele>
        <time>1970-01-01T00:00:00Z</time>
      </trkpt>
      <trkpt lat="39.817127" lon="-5.798894">
        <ele>314.0</ele>
        <time>1970-01-01T00:00:00Z</time>
      </trkpt>
      <trkpt lat="39.817219" lon="-5.798733">
        <ele>314.0</ele>
        <time>1970-01-01T00:00:00Z</time>
      </trkpt>
      <trkpt lat="39.817226" lon="-5.798528">
        <ele>314.0</ele>
        <time>1970-01-01T00:00:00Z</time>
      </trkpt>
      <trkpt lat="39.817188" lon="-5.798319">
        <ele>314.0</ele>
        <time>1970-01-01T00:00:00Z</time>
      </trkpt>
      <trkpt lat="39.817165" lon="-5.798007">
        <ele>314.0</ele>
        <time>1970-01-01T00:00:00Z</time>
      </trkpt>
      <trkpt lat="39.817162" lon="-5.797725">
        <ele>314.0</ele>
        <time>1970-01-01T00:00:00Z</time>
      </trkpt>
      <trkpt lat="39.817268" lon="-5.796864">
        <ele>314.7</ele>
        <time>1970-01-01T00:00:00Z</time>
      </trkpt>
      <trkpt lat="39.817398" lon="-5.796377">
        <ele>314.3</ele>
        <time>1970-01-01T00:00:00Z</time>
      </trkpt>
      <trkpt lat="39.817454" lon="-5.795583">
        <ele>314.1</ele>
        <time>1970-01-01T00:00:00Z</time>
      </trkpt>
      <trkpt lat="39.817384" lon="-5.794739">
        <ele>315.6</ele>
        <time>1970-01-01T00:00:00Z</time>
      </trkpt>
      <trkpt lat="39.817343" lon="-5.794396">
        <ele>315.5</ele>
        <time>1970-01-01T00:00:00Z</time>
      </trkpt>
      <trkpt lat="39.817237" lon="-5.793880">
        <ele>316.0</ele>
        <time>1970-01-01T00:00:00Z</time>
      </trkpt>
      <trkpt lat="39.817153" lon="-5.793602">
        <ele>314.5</ele>
        <time>1970-01-01T00:00:00Z</time>
      </trkpt>
      <trkpt lat="39.817048" lon="-5.793413">
        <ele>314.2</ele>
        <time>1970-01-01T00:00:00Z</time>
      </trkpt>
      <trkpt lat="39.816922" lon="-5.793277">
        <ele>313.6</ele>
        <time>1970-01-01T00:00:00Z</time>
      </trkpt>
      <trkpt lat="39.816573" lon="-5.792830">
        <ele>312.2</ele>
        <time>1970-01-01T00:00:00Z</time>
      </trkpt>
      <trkpt lat="39.816500" lon="-5.792666">
        <ele>311.9</ele>
        <time>1970-01-01T00:00:00Z</time>
      </trkpt>
      <trkpt lat="39.816435" lon="-5.792357">
        <ele>311.7</ele>
        <time>1970-01-01T00:00:00Z</time>
      </trkpt>
      <trkpt lat="39.816406" lon="-5.792047">
        <ele>312.0</ele>
        <time>1970-01-01T00:00:00Z</time>
      </trkpt>
      <trkpt lat="39.816419" lon="-5.791595">
        <ele>312.5</ele>
        <time>1970-01-01T00:00:00Z</time>
      </trkpt>
      <trkpt lat="39.816351" lon="-5.791318">
        <ele>312.2</ele>
        <time>1970-01-01T00:00:00Z</time>
      </trkpt>
      <trkpt lat="39.815817" lon="-5.789746">
        <ele>311.5</ele>
        <time>1970-01-01T00:00:00Z</time>
      </trkpt>
      <trkpt lat="39.815377" lon="-5.788766">
        <ele>310.0</ele>
        <time>1970-01-01T00:00:00Z</time>
      </trkpt>
      <trkpt lat="39.815115" lon="-5.788429">
        <ele>311.4</ele>
        <time>1970-01-01T00:00:00Z</time>
      </trkpt>
      <trkpt lat="39.815058" lon="-5.787794">
        <ele>313.0</ele>
        <time>1970-01-01T00:00:00Z</time>
      </trkpt>
      <trkpt lat="39.815091" lon="-5.787679">
        <ele>313.9</ele>
        <time>1970-01-01T00:00:00Z</time>
      </trkpt>
      <trkpt lat="39.815134" lon="-5.787250">
        <ele>315.9</ele>
        <time>1970-01-01T00:00:00Z</time>
      </trkpt>
      <trkpt lat="39.815128" lon="-5.787080">
        <ele>316.0</ele>
        <time>1970-01-01T00:00:00Z</time>
      </trkpt>
      <trkpt lat="39.815061" lon="-5.786931">
        <ele>316.3</ele>
        <time>1970-01-01T00:00:00Z</time>
      </trkpt>
      <trkpt lat="39.814982" lon="-5.786681">
        <ele>316.5</ele>
        <time>1970-01-01T00:00:00Z</time>
      </trkpt>
      <trkpt lat="39.814907" lon="-5.786514">
        <ele>316.5</ele>
        <time>1970-01-01T00:00:00Z</time>
      </trkpt>
      <trkpt lat="39.814805" lon="-5.786411">
        <ele>316.0</ele>
        <time>1970-01-01T00:00:00Z</time>
      </trkpt>
      <trkpt lat="39.814739" lon="-5.786206">
        <ele>315.5</ele>
        <time>1970-01-01T00:00:00Z</time>
      </trkpt>
      <trkpt lat="39.814729" lon="-5.785666">
        <ele>315.4</ele>
        <time>1970-01-01T00:00:00Z</time>
      </trkpt>
      <trkpt lat="39.814737" lon="-5.785046">
        <ele>315.0</ele>
        <time>1970-01-01T00:00:00Z</time>
      </trkpt>
      <trkpt lat="39.814808" lon="-5.784050">
        <ele>312.5</ele>
        <time>1970-01-01T00:00:00Z</time>
      </trkpt>
      <trkpt lat="39.814897" lon="-5.783473">
        <ele>311.0</ele>
        <time>1970-01-01T00:00:00Z</time>
      </trkpt>
      <trkpt lat="39.815249" lon="-5.782527">
        <ele>309.0</ele>
        <time>1970-01-01T00:00:00Z</time>
      </trkpt>
      <trkpt lat="39.816082" lon="-5.779982">
        <ele>306.0</ele>
        <time>1970-01-01T00:00:00Z</time>
      </trkpt>
      <trkpt lat="39.816232" lon="-5.779565">
        <ele>305.7</ele>
        <time>1970-01-01T00:00:00Z</time>
      </trkpt>
      <trkpt lat="39.816335" lon="-5.778904">
        <ele>302.1</ele>
        <time>1970-01-01T00:00:00Z</time>
      </trkpt>
      <trkpt lat="39.816609" lon="-5.777914">
        <ele>300.8</ele>
        <time>1970-01-01T00:00:00Z</time>
      </trkpt>
      <trkpt lat="39.816717" lon="-5.776885">
        <ele>296.1</ele>
        <time>1970-01-01T00:00:00Z</time>
      </trkpt>
      <trkpt lat="39.816958" lon="-5.775661">
        <ele>295.2</ele>
        <time>1970-01-01T00:00:00Z</time>
      </trkpt>
      <trkpt lat="39.816960" lon="-5.775488">
        <ele>295.5</ele>
        <time>1970-01-01T00:00:00Z</time>
      </trkpt>
      <trkpt lat="39.817228" lon="-5.774975">
        <ele>294.4</ele>
        <time>1970-01-01T00:00:00Z</time>
      </trkpt>
      <trkpt lat="39.817353" lon="-5.774762">
        <ele>294.3</ele>
        <time>1970-01-01T00:00:00Z</time>
      </trkpt>
      <trkpt lat="39.817444" lon="-5.774548">
        <ele>293.8</ele>
        <time>1970-01-01T00:00:00Z</time>
      </trkpt>
      <trkpt lat="39.817503" lon="-5.774308">
        <ele>293.0</ele>
        <time>1970-01-01T00:00:00Z</time>
      </trkpt>
      <trkpt lat="39.817663" lon="-5.773449">
        <ele>291.0</ele>
        <time>1970-01-01T00:00:00Z</time>
      </trkpt>
      <trkpt lat="39.817731" lon="-5.772910">
        <ele>290.8</ele>
        <time>1970-01-01T00:00:00Z</time>
      </trkpt>
      <trkpt lat="39.817759" lon="-5.772768">
        <ele>290.7</ele>
        <time>1970-01-01T00:00:00Z</time>
      </trkpt>
      <trkpt lat="39.817956" lon="-5.771903">
        <ele>292.4</ele>
        <time>1970-01-01T00:00:00Z</time>
      </trkpt>
      <trkpt lat="39.818153" lon="-5.771295">
        <ele>292.5</ele>
        <time>1970-01-01T00:00:00Z</time>
      </trkpt>
      <trkpt lat="39.818213" lon="-5.771041">
        <ele>294.5</ele>
        <time>1970-01-01T00:00:00Z</time>
      </trkpt>
      <trkpt lat="39.818487" lon="-5.770349">
        <ele>296.9</ele>
        <time>1970-01-01T00:00:00Z</time>
      </trkpt>
      <trkpt lat="39.818719" lon="-5.769810">
        <ele>297.8</ele>
        <time>1970-01-01T00:00:00Z</time>
      </trkpt>
      <trkpt lat="39.818992" lon="-5.769302">
        <ele>297.3</ele>
        <time>1970-01-01T00:00:00Z</time>
      </trkpt>
      <trkpt lat="39.819226" lon="-5.768760">
        <ele>294.2</ele>
        <time>1970-01-01T00:00:00Z</time>
      </trkpt>
      <trkpt lat="39.819557" lon="-5.767915">
        <ele>289.9</ele>
        <time>1970-01-01T00:00:00Z</time>
      </trkpt>
      <trkpt lat="39.819940" lon="-5.766983">
        <ele>288.5</ele>
        <time>1970-01-01T00:00:00Z</time>
      </trkpt>
      <trkpt lat="39.820252" lon="-5.766056">
        <ele>290.8</ele>
        <time>1970-01-01T00:00:00Z</time>
      </trkpt>
      <trkpt lat="39.820700" lon="-5.764842">
        <ele>298.0</ele>
        <time>1970-01-01T00:00:00Z</time>
      </trkpt>
      <trkpt lat="39.820857" lon="-5.764354">
        <ele>298.5</ele>
        <time>1970-01-01T00:00:00Z</time>
      </trkpt>
      <trkpt lat="39.821211" lon="-5.763476">
        <ele>296.6</ele>
        <time>1970-01-01T00:00:00Z</time>
      </trkpt>
      <trkpt lat="39.821252" lon="-5.763314">
        <ele>296.5</ele>
        <time>1970-01-01T00:00:00Z</time>
      </trkpt>
      <trkpt lat="39.821369" lon="-5.763190">
        <ele>295.8</ele>
        <time>1970-01-01T00:00:00Z</time>
      </trkpt>
      <trkpt lat="39.821321" lon="-5.763025">
        <ele>295.3</ele>
        <time>1970-01-01T00:00:00Z</time>
      </trkpt>
      <trkpt lat="39.821119" lon="-5.762970">
        <ele>295.8</ele>
        <time>1970-01-01T00:00:00Z</time>
      </trkpt>
      <trkpt lat="39.820926" lon="-5.762876">
        <ele>296.0</ele>
        <time>1970-01-01T00:00:00Z</time>
      </trkpt>
      <trkpt lat="39.820555" lon="-5.762762">
        <ele>295.7</ele>
        <time>1970-01-01T00:00:00Z</time>
      </trkpt>
      <trkpt lat="39.820138" lon="-5.762592">
        <ele>294.6</ele>
        <time>1970-01-01T00:00:00Z</time>
      </trkpt>
      <trkpt lat="39.819917" lon="-5.762418">
        <ele>293.8</ele>
        <time>1970-01-01T00:00:00Z</time>
      </trkpt>
      <trkpt lat="39.819677" lon="-5.762180">
        <ele>291.3</ele>
        <time>1970-01-01T00:00:00Z</time>
      </trkpt>
      <trkpt lat="39.819443" lon="-5.762005">
        <ele>289.6</ele>
        <time>1970-01-01T00:00:00Z</time>
      </trkpt>
      <trkpt lat="39.819272" lon="-5.761905">
        <ele>289.0</ele>
        <time>1970-01-01T00:00:00Z</time>
      </trkpt>
      <trkpt lat="39.818735" lon="-5.761675">
        <ele>289.5</ele>
        <time>1970-01-01T00:00:00Z</time>
      </trkpt>
      <trkpt lat="39.818578" lon="-5.761573">
        <ele>289.8</ele>
        <time>1970-01-01T00:00:00Z</time>
      </trkpt>
      <trkpt lat="39.818499" lon="-5.761505">
        <ele>290.0</ele>
        <time>1970-01-01T00:00:00Z</time>
      </trkpt>
      <trkpt lat="39.818080" lon="-5.761335">
        <ele>292.0</ele>
        <time>1970-01-01T00:00:00Z</time>
      </trkpt>
      <trkpt lat="39.817696" lon="-5.761132">
        <ele>291.0</ele>
        <time>1970-01-01T00:00:00Z</time>
      </trkpt>
      <trkpt lat="39.817607" lon="-5.761007">
        <ele>290.7</ele>
        <time>1970-01-01T00:00:00Z</time>
      </trkpt>
      <trkpt lat="39.817598" lon="-5.760908">
        <ele>290.6</ele>
        <time>1970-01-01T00:00:00Z</time>
      </trkpt>
      <trkpt lat="39.817513" lon="-5.760712">
        <ele>290.2</ele>
        <time>1970-01-01T00:00:00Z</time>
      </trkpt>
      <trkpt lat="39.817279" lon="-5.760307">
        <ele>289.2</ele>
        <time>1970-01-01T00:00:00Z</time>
      </trkpt>
      <trkpt lat="39.817087" lon="-5.759886">
        <ele>287.8</ele>
        <time>1970-01-01T00:00:00Z</time>
      </trkpt>
      <trkpt lat="39.816783" lon="-5.759107">
        <ele>285.1</ele>
        <time>1970-01-01T00:00:00Z</time>
      </trkpt>
      <trkpt lat="39.816218" lon="-5.757470">
        <ele>281.0</ele>
        <time>1970-01-01T00:00:00Z</time>
      </trkpt>
      <trkpt lat="39.816142" lon="-5.757294">
        <ele>281.0</ele>
        <time>1970-01-01T00:00:00Z</time>
      </trkpt>
      <trkpt lat="39.816073" lon="-5.757079">
        <ele>281.0</ele>
        <time>1970-01-01T00:00:00Z</time>
      </trkpt>
      <trkpt lat="39.815867" lon="-5.756657">
        <ele>281.0</ele>
        <time>1970-01-01T00:00:00Z</time>
      </trkpt>
      <trkpt lat="39.815434" lon="-5.756010">
        <ele>281.0</ele>
        <time>1970-01-01T00:00:00Z</time>
      </trkpt>
      <trkpt lat="39.815249" lon="-5.755767">
        <ele>281.0</ele>
        <time>1970-01-01T00:00:00Z</time>
      </trkpt>
      <trkpt lat="39.814754" lon="-5.755278">
        <ele>280.2</ele>
        <time>1970-01-01T00:00:00Z</time>
      </trkpt>
      <trkpt lat="39.814636" lon="-5.755009">
        <ele>279.2</ele>
        <time>1970-01-01T00:00:00Z</time>
      </trkpt>
      <trkpt lat="39.814499" lon="-5.754775">
        <ele>278.1</ele>
        <time>1970-01-01T00:00:00Z</time>
      </trkpt>
      <trkpt lat="39.814196" lon="-5.754449">
        <ele>276.9</ele>
        <time>1970-01-01T00:00:00Z</time>
      </trkpt>
      <trkpt lat="39.814026" lon="-5.754304">
        <ele>275.5</ele>
        <time>1970-01-01T00:00:00Z</time>
      </trkpt>
      <trkpt lat="39.813924" lon="-5.754189">
        <ele>275.0</ele>
        <time>1970-01-01T00:00:00Z</time>
      </trkpt>
      <trkpt lat="39.813758" lon="-5.753920">
        <ele>274.0</ele>
        <time>1970-01-01T00:00:00Z</time>
      </trkpt>
      <trkpt lat="39.813581" lon="-5.753673">
        <ele>273.5</ele>
        <time>1970-01-01T00:00:00Z</time>
      </trkpt>
      <trkpt lat="39.813432" lon="-5.753534">
        <ele>273.6</ele>
        <time>1970-01-01T00:00:00Z</time>
      </trkpt>
      <trkpt lat="39.813115" lon="-5.753318">
        <ele>272.4</ele>
        <time>1970-01-01T00:00:00Z</time>
      </trkpt>
      <trkpt lat="39.812601" lon="-5.753103">
        <ele>271.0</ele>
        <time>1970-01-01T00:00:00Z</time>
      </trkpt>
      <trkpt lat="39.812523" lon="-5.753119">
        <ele>271.1</ele>
        <time>1970-01-01T00:00:00Z</time>
      </trkpt>
      <trkpt lat="39.812418" lon="-5.753209">
        <ele>271.5</ele>
        <time>1970-01-01T00:00:00Z</time>
      </trkpt>
      <trkpt lat="39.812293" lon="-5.753174">
        <ele>271.6</ele>
        <time>1970-01-01T00:00:00Z</time>
      </trkpt>
      <trkpt lat="39.812146" lon="-5.753074">
        <ele>272.0</ele>
        <time>1970-01-01T00:00:00Z</time>
      </trkpt>
      <trkpt lat="39.812028" lon="-5.752907">
        <ele>272.1</ele>
        <time>1970-01-01T00:00:00Z</time>
      </trkpt>
      <trkpt lat="39.811940" lon="-5.752604">
        <ele>272.0</ele>
        <time>1970-01-01T00:00:00Z</time>
      </trkpt>
      <trkpt lat="39.811892" lon="-5.752310">
        <ele>273.1</ele>
        <time>1970-01-01T00:00:00Z</time>
      </trkpt>
      <trkpt lat="39.811884" lon="-5.752169">
        <ele>273.1</ele>
        <time>1970-01-01T00:00:00Z</time>
      </trkpt>
      <trkpt lat="39.811945" lon="-5.751919">
        <ele>273.0</ele>
        <time>1970-01-01T00:00:00Z</time>
      </trkpt>
      <trkpt lat="39.811954" lon="-5.751721">
        <ele>273.0</ele>
        <time>1970-01-01T00:00:00Z</time>
      </trkpt>
      <trkpt lat="39.811922" lon="-5.751515">
        <ele>273.1</ele>
        <time>1970-01-01T00:00:00Z</time>
      </trkpt>
      <trkpt lat="39.811828" lon="-5.751136">
        <ele>272.0</ele>
        <time>1970-01-01T00:00:00Z</time>
      </trkpt>
      <trkpt lat="39.811559" lon="-5.750606">
        <ele>268.5</ele>
        <time>1970-01-01T00:00:00Z</time>
      </trkpt>
      <trkpt lat="39.811309" lon="-5.750284">
        <ele>265.4</ele>
        <time>1970-01-01T00:00:00Z</time>
      </trkpt>
      <trkpt lat="39.811087" lon="-5.750055">
        <ele>263.5</ele>
        <time>1970-01-01T00:00:00Z</time>
      </trkpt>
      <trkpt lat="39.810719" lon="-5.749643">
        <ele>264.2</ele>
        <time>1970-01-01T00:00:00Z</time>
      </trkpt>
      <trkpt lat="39.810451" lon="-5.749308">
        <ele>266.6</ele>
        <time>1970-01-01T00:00:00Z</time>
      </trkpt>
      <trkpt lat="39.810167" lon="-5.749069">
        <ele>270.0</ele>
        <time>1970-01-01T00:00:00Z</time>
      </trkpt>
      <trkpt lat="39.809123" lon="-5.748044">
        <ele>269.0</ele>
        <time>1970-01-01T00:00:00Z</time>
      </trkpt>
      <trkpt lat="39.808457" lon="-5.747360">
        <ele>265.8</ele>
        <time>1970-01-01T00:00:00Z</time>
      </trkpt>
      <trkpt lat="39.808255" lon="-5.747181">
        <ele>266.1</ele>
        <time>1970-01-01T00:00:00Z</time>
      </trkpt>
      <trkpt lat="39.807689" lon="-5.746624">
        <ele>266.6</ele>
        <time>1970-01-01T00:00:00Z</time>
      </trkpt>
      <trkpt lat="39.806387" lon="-5.745317">
        <ele>264.8</ele>
        <time>1970-01-01T00:00:00Z</time>
      </trkpt>
      <trkpt lat="39.805932" lon="-5.744821">
        <ele>266.8</ele>
        <time>1970-01-01T00:00:00Z</time>
      </trkpt>
      <trkpt lat="39.805623" lon="-5.744401">
        <ele>267.1</ele>
        <time>1970-01-01T00:00:00Z</time>
      </trkpt>
      <trkpt lat="39.805460" lon="-5.744133">
        <ele>266.4</ele>
        <time>1970-01-01T00:00:00Z</time>
      </trkpt>
      <trkpt lat="39.805319" lon="-5.744216">
        <ele>267.2</ele>
        <time>1970-01-01T00:00:00Z</time>
      </trkpt>
      <trkpt lat="39.804648" lon="-5.744810">
        <ele>278.3</ele>
        <time>1970-01-01T00:00:00Z</time>
      </trkpt>
      <trkpt lat="39.804186" lon="-5.745246">
        <ele>288.7</ele>
        <time>1970-01-01T00:00:00Z</time>
      </trkpt>
      <trkpt lat="39.803460" lon="-5.745882">
        <ele>289.5</ele>
        <time>1970-01-01T00:00:00Z</time>
      </trkpt>
      <trkpt lat="39.803173" lon="-5.746168">
        <ele>286.6</ele>
        <time>1970-01-01T00:00:00Z</time>
      </trkpt>
      <trkpt lat="39.802304" lon="-5.746959">
        <ele>282.3</ele>
        <time>1970-01-01T00:00:00Z</time>
      </trkpt>
      <trkpt lat="39.802068" lon="-5.746957">
        <ele>278.5</ele>
        <time>1970-01-01T00:00:00Z</time>
      </trkpt>
      <trkpt lat="39.801702" lon="-5.747157">
        <ele>267.5</ele>
        <time>1970-01-01T00:00:00Z</time>
      </trkpt>
      <trkpt lat="39.801567" lon="-5.747162">
        <ele>262.7</ele>
        <time>1970-01-01T00:00:00Z</time>
      </trkpt>
      <trkpt lat="39.801385" lon="-5.747016">
        <ele>258.7</ele>
        <time>1970-01-01T00:00:00Z</time>
      </trkpt>
      <trkpt lat="39.800977" lon="-5.746770">
        <ele>255.3</ele>
        <time>1970-01-01T00:00:00Z</time>
      </trkpt>
      <trkpt lat="39.800562" lon="-5.746653">
        <ele>256.6</ele>
        <time>1970-01-01T00:00:00Z</time>
      </trkpt>
      <trkpt lat="39.800056" lon="-5.746400">
        <ele>265.3</ele>
        <time>1970-01-01T00:00:00Z</time>
      </trkpt>
      <trkpt lat="39.799697" lon="-5.745948">
        <ele>273.3</ele>
        <time>1970-01-01T00:00:00Z</time>
      </trkpt>
      <trkpt lat="39.799398" lon="-5.745424">
        <ele>278.0</ele>
        <time>1970-01-01T00:00:00Z</time>
      </trkpt>
      <trkpt lat="39.799096" lon="-5.745023">
        <ele>279.0</ele>
        <time>1970-01-01T00:00:00Z</time>
      </trkpt>
      <trkpt lat="39.798792" lon="-5.745163">
        <ele>274.5</ele>
        <time>1970-01-01T00:00:00Z</time>
      </trkpt>
      <trkpt lat="39.798566" lon="-5.745176">
        <ele>271.4</ele>
        <time>1970-01-01T00:00:00Z</time>
      </trkpt>
      <trkpt lat="39.798380" lon="-5.745065">
        <ele>270.1</ele>
        <time>1970-01-01T00:00:00Z</time>
      </trkpt>
      <trkpt lat="39.798247" lon="-5.745011">
        <ele>269.4</ele>
        <time>1970-01-01T00:00:00Z</time>
      </trkpt>
      <trkpt lat="39.797832" lon="-5.745024">
        <ele>266.3</ele>
        <time>1970-01-01T00:00:00Z</time>
      </trkpt>
      <trkpt lat="39.797641" lon="-5.744965">
        <ele>267.1</ele>
        <time>1970-01-01T00:00:00Z</time>
      </trkpt>
      <trkpt lat="39.797362" lon="-5.744943">
        <ele>270.9</ele>
        <time>1970-01-01T00:00:00Z</time>
      </trkpt>
      <trkpt lat="39.796962" lon="-5.745045">
        <ele>276.3</ele>
        <time>1970-01-01T00:00:00Z</time>
      </trkpt>
      <trkpt lat="39.796601" lon="-5.745194">
        <ele>281.6</ele>
        <time>1970-01-01T00:00:00Z</time>
      </trkpt>
      <trkpt lat="39.796359" lon="-5.745392">
        <ele>282.1</ele>
        <time>1970-01-01T00:00:00Z</time>
      </trkpt>
      <trkpt lat="39.795973" lon="-5.745607">
        <ele>280.8</ele>
        <time>1970-01-01T00:00:00Z</time>
      </trkpt>
      <trkpt lat="39.795710" lon="-5.745722">
        <ele>276.6</ele>
        <time>1970-01-01T00:00:00Z</time>
      </trkpt>
      <trkpt lat="39.795575" lon="-5.745761">
        <ele>274.7</ele>
        <time>1970-01-01T00:00:00Z</time>
      </trkpt>
      <trkpt lat="39.795009" lon="-5.745976">
        <ele>269.7</ele>
        <time>1970-01-01T00:00:00Z</time>
      </trkpt>
      <trkpt lat="39.794941" lon="-5.745584">
        <ele>272.0</ele>
        <time>1970-01-01T00:00:00Z</time>
      </trkpt>
      <trkpt lat="39.794905" lon="-5.745435">
        <ele>272.0</ele>
        <time>1970-01-01T00:00:00Z</time>
      </trkpt>
      <trkpt lat="39.794807" lon="-5.745219">
        <ele>272.9</ele>
        <time>1970-01-01T00:00:00Z</time>
      </trkpt>
      <trkpt lat="39.794650" lon="-5.745079">
        <ele>273.5</ele>
        <time>1970-01-01T00:00:00Z</time>
      </trkpt>
      <trkpt lat="39.794542" lon="-5.745038">
        <ele>273.7</ele>
        <time>1970-01-01T00:00:00Z</time>
      </trkpt>
      <trkpt lat="39.793739" lon="-5.744899">
        <ele>269.2</ele>
        <time>1970-01-01T00:00:00Z</time>
      </trkpt>
      <trkpt lat="39.792689" lon="-5.744557">
        <ele>257.5</ele>
        <time>1970-01-01T00:00:00Z</time>
      </trkpt>
      <trkpt lat="39.792333" lon="-5.744480">
        <ele>256.3</ele>
        <time>1970-01-01T00:00:00Z</time>
      </trkpt>
      <trkpt lat="39.791675" lon="-5.744364">
        <ele>256.9</ele>
        <time>1970-01-01T00:00:00Z</time>
      </trkpt>
      <trkpt lat="39.791362" lon="-5.744185">
        <ele>258.0</ele>
        <time>1970-01-01T00:00:00Z</time>
      </trkpt>
      <trkpt lat="39.791134" lon="-5.744009">
        <ele>260.1</ele>
        <time>1970-01-01T00:00:00Z</time>
      </trkpt>
      <trkpt lat="39.790869" lon="-5.743746">
        <ele>262.0</ele>
        <time>1970-01-01T00:00:00Z</time>
      </trkpt>
      <trkpt lat="39.790354" lon="-5.743277">
        <ele>261.7</ele>
        <time>1970-01-01T00:00:00Z</time>
      </trkpt>
      <trkpt lat="39.789682" lon="-5.742639">
        <ele>263.1</ele>
        <time>1970-01-01T00:00:00Z</time>
      </trkpt>
      <trkpt lat="39.789503" lon="-5.742491">
        <ele>262.8</ele>
        <time>1970-01-01T00:00:00Z</time>
      </trkpt>
      <trkpt lat="39.789375" lon="-5.742349">
        <ele>263.3</ele>
        <time>1970-01-01T00:00:00Z</time>
      </trkpt>
      <trkpt lat="39.789173" lon="-5.742059">
        <ele>264.3</ele>
        <time>1970-01-01T00:00:00Z</time>
      </trkpt>
      <trkpt lat="39.788776" lon="-5.741406">
        <ele>265.0</ele>
        <time>1970-01-01T00:00:00Z</time>
      </trkpt>
      <trkpt lat="39.788438" lon="-5.740736">
        <ele>267.1</ele>
        <time>1970-01-01T00:00:00Z</time>
      </trkpt>
      <trkpt lat="39.788168" lon="-5.740288">
        <ele>268.7</ele>
        <time>1970-01-01T00:00:00Z</time>
      </trkpt>
      <trkpt lat="39.788042" lon="-5.740031">
        <ele>269.2</ele>
        <time>1970-01-01T00:00:00Z</time>
      </trkpt>
      <trkpt lat="39.787985" lon="-5.739802">
        <ele>269.5</ele>
        <time>1970-01-01T00:00:00Z</time>
      </trkpt>
      <trkpt lat="39.787915" lon="-5.739747">
        <ele>268.9</ele>
        <time>1970-01-01T00:00:00Z</time>
      </trkpt>
      <trkpt lat="39.787781" lon="-5.739690">
        <ele>267.4</ele>
        <time>1970-01-01T00:00:00Z</time>
      </trkpt>
      <trkpt lat="39.787667" lon="-5.739697">
        <ele>266.0</ele>
        <time>1970-01-01T00:00:00Z</time>
      </trkpt>
      <trkpt lat="39.787424" lon="-5.739921">
        <ele>264.5</ele>
        <time>1970-01-01T00:00:00Z</time>
      </trkpt>
      <trkpt lat="39.787095" lon="-5.740193">
        <ele>263.1</ele>
        <time>1970-01-01T00:00:00Z</time>
      </trkpt>
      <trkpt lat="39.786880" lon="-5.739966">
        <ele>260.3</ele>
        <time>1970-01-01T00:00:00Z</time>
      </trkpt>
      <trkpt lat="39.786611" lon="-5.739603">
        <ele>257.2</ele>
        <time>1970-01-01T00:00:00Z</time>
      </trkpt>
      <trkpt lat="39.786380" lon="-5.739431">
        <ele>255.1</ele>
        <time>1970-01-01T00:00:00Z</time>
      </trkpt>
      <trkpt lat="39.786025" lon="-5.739361">
        <ele>251.6</ele>
        <time>1970-01-01T00:00:00Z</time>
      </trkpt>
      <trkpt lat="39.785518" lon="-5.739360">
        <ele>252.0</ele>
        <time>1970-01-01T00:00:00Z</time>
      </trkpt>
      <trkpt lat="39.785074" lon="-5.739401">
        <ele>253.9</ele>
        <time>1970-01-01T00:00:00Z</time>
      </trkpt>
      <trkpt lat="39.784719" lon="-5.739398">
        <ele>255.0</ele>
        <time>1970-01-01T00:00:00Z</time>
      </trkpt>
      <trkpt lat="39.784238" lon="-5.739183">
        <ele>254.9</ele>
        <time>1970-01-01T00:00:00Z</time>
      </trkpt>
      <trkpt lat="39.783986" lon="-5.738954">
        <ele>256.0</ele>
        <time>1970-01-01T00:00:00Z</time>
      </trkpt>
      <trkpt lat="39.783792" lon="-5.738698">
        <ele>256.7</ele>
        <time>1970-01-01T00:00:00Z</time>
      </trkpt>
      <trkpt lat="39.783637" lon="-5.738358">
        <ele>258.3</ele>
        <time>1970-01-01T00:00:00Z</time>
      </trkpt>
      <trkpt lat="39.783528" lon="-5.738005">
        <ele>257.3</ele>
        <time>1970-01-01T00:00:00Z</time>
      </trkpt>
      <trkpt lat="39.783476" lon="-5.737692">
        <ele>255.1</ele>
        <time>1970-01-01T00:00:00Z</time>
      </trkpt>
      <trkpt lat="39.783511" lon="-5.737415">
        <ele>251.1</ele>
        <time>1970-01-01T00:00:00Z</time>
      </trkpt>
      <trkpt lat="39.783730" lon="-5.736983">
        <ele>243.4</ele>
        <time>1970-01-01T00:00:00Z</time>
      </trkpt>
      <trkpt lat="39.783776" lon="-5.736736">
        <ele>239.1</ele>
        <time>1970-01-01T00:00:00Z</time>
      </trkpt>
      <trkpt lat="39.783700" lon="-5.736559">
        <ele>237.9</ele>
        <time>1970-01-01T00:00:00Z</time>
      </trkpt>
      <trkpt lat="39.783557" lon="-5.736409">
        <ele>238.4</ele>
        <time>1970-01-01T00:00:00Z</time>
      </trkpt>
      <trkpt lat="39.783417" lon="-5.736407">
        <ele>240.2</ele>
        <time>1970-01-01T00:00:00Z</time>
      </trkpt>
      <trkpt lat="39.783271" lon="-5.736538">
        <ele>242.2</ele>
        <time>1970-01-01T00:00:00Z</time>
      </trkpt>
      <trkpt lat="39.783100" lon="-5.736654">
        <ele>242.7</ele>
        <time>1970-01-01T00:00:00Z</time>
      </trkpt>
      <trkpt lat="39.782958" lon="-5.736592">
        <ele>241.9</ele>
        <time>1970-01-01T00:00:00Z</time>
      </trkpt>
      <trkpt lat="39.782489" lon="-5.733675">
        <ele>255.4</ele>
        <time>1970-01-01T00:00:00Z</time>
      </trkpt>
      <trkpt lat="39.782265" lon="-5.732009">
        <ele>263.0</ele>
        <time>1970-01-01T00:00:00Z</time>
      </trkpt>
      <trkpt lat="39.782263" lon="-5.731616">
        <ele>264.7</ele>
        <time>1970-01-01T00:00:00Z</time>
      </trkpt>
      <trkpt lat="39.782344" lon="-5.730978">
        <ele>267.3</ele>
        <time>1970-01-01T00:00:00Z</time>
      </trkpt>
      <trkpt lat="39.782443" lon="-5.730544">
        <ele>270.6</ele>
        <time>1970-01-01T00:00:00Z</time>
      </trkpt>
      <trkpt lat="39.782689" lon="-5.729935">
        <ele>272.2</ele>
        <time>1970-01-01T00:00:00Z</time>
      </trkpt>
      <trkpt lat="39.784298" lon="-5.726588">
        <ele>277.9</ele>
        <time>1970-01-01T00:00:00Z</time>
      </trkpt>
      <trkpt lat="39.785787" lon="-5.723448">
        <ele>280.2</ele>
        <time>1970-01-01T00:00:00Z</time>
      </trkpt>
      <trkpt lat="39.787778" lon="-5.719192">
        <ele>291.6</ele>
        <time>1970-01-01T00:00:00Z</time>
      </trkpt>
      <trkpt lat="39.788306" lon="-5.718116">
        <ele>292.0</ele>
        <time>1970-01-01T00:00:00Z</time>
      </trkpt>
      <trkpt lat="39.788436" lon="-5.717732">
        <ele>292.7</ele>
        <time>1970-01-01T00:00:00Z</time>
      </trkpt>
      <trkpt lat="39.788496" lon="-5.717448">
        <ele>292.3</ele>
        <time>1970-01-01T00:00:00Z</time>
      </trkpt>
      <trkpt lat="39.788566" lon="-5.716914">
        <ele>291.7</ele>
        <time>1970-01-01T00:00:00Z</time>
      </trkpt>
      <trkpt lat="39.788720" lon="-5.715948">
        <ele>293.0</ele>
        <time>1970-01-01T00:00:00Z</time>
      </trkpt>
      <trkpt lat="39.788787" lon="-5.715677">
        <ele>294.9</ele>
        <time>1970-01-01T00:00:00Z</time>
      </trkpt>
      <trkpt lat="39.788905" lon="-5.715392">
        <ele>296.0</ele>
        <time>1970-01-01T00:00:00Z</time>
      </trkpt>
      <trkpt lat="39.789216" lon="-5.714818">
        <ele>295.0</ele>
        <time>1970-01-01T00:00:00Z</time>
      </trkpt>
      <trkpt lat="39.789548" lon="-5.714086">
        <ele>296.4</ele>
        <time>1970-01-01T00:00:00Z</time>
      </trkpt>
      <trkpt lat="39.789736" lon="-5.713601">
        <ele>298.4</ele>
        <time>1970-01-01T00:00:00Z</time>
      </trkpt>
      <trkpt lat="39.790040" lon="-5.712612">
        <ele>304.4</ele>
        <time>1970-01-01T00:00:00Z</time>
      </trkpt>
      <trkpt lat="39.790747" lon="-5.710118">
        <ele>309.1</ele>
        <time>1970-01-01T00:00:00Z</time>
      </trkpt>
      <trkpt lat="39.790800" lon="-5.709965">
        <ele>307.5</ele>
        <time>1970-01-01T00:00:00Z</time>
      </trkpt>
      <trkpt lat="39.790633" lon="-5.709873">
        <ele>306.8</ele>
        <time>1970-01-01T00:00:00Z</time>
      </trkpt>
      <trkpt lat="39.790509" lon="-5.709657">
        <ele>304.9</ele>
        <time>1970-01-01T00:00:00Z</time>
      </trkpt>
      <trkpt lat="39.790315" lon="-5.709034">
        <ele>303.3</ele>
        <time>1970-01-01T00:00:00Z</time>
      </trkpt>
      <trkpt lat="39.790233" lon="-5.708889">
        <ele>303.6</ele>
        <time>1970-01-01T00:00:00Z</time>
      </trkpt>
      <trkpt lat="39.790088" lon="-5.708939">
        <ele>304.3</ele>
        <time>1970-01-01T00:00:00Z</time>
      </trkpt>
      <trkpt lat="39.789920" lon="-5.709029">
        <ele>305.0</ele>
        <time>1970-01-01T00:00:00Z</time>
      </trkpt>
      <trkpt lat="39.789707" lon="-5.709102">
        <ele>305.9</ele>
        <time>1970-01-01T00:00:00Z</time>
      </trkpt>
      <trkpt lat="39.789398" lon="-5.709109">
        <ele>306.9</ele>
        <time>1970-01-01T00:00:00Z</time>
      </trkpt>
      <trkpt lat="39.788854" lon="-5.709013">
        <ele>307.3</ele>
        <time>1970-01-01T00:00:00Z</time>
      </trkpt>
      <trkpt lat="39.788896" lon="-5.708092">
        <ele>308.8</ele>
        <time>1970-01-01T00:00:00Z</time>
      </trkpt>
      <trkpt lat="39.788985" lon="-5.705137">
        <ele>305.0</ele>
        <time>1970-01-01T00:00:00Z</time>
      </trkpt>
      <trkpt lat="39.789020" lon="-5.702131">
        <ele>300.3</ele>
        <time>1970-01-01T00:00:00Z</time>
      </trkpt>
      <trkpt lat="39.788935" lon="-5.701761">
        <ele>301.2</ele>
        <time>1970-01-01T00:00:00Z</time>
      </trkpt>
      <trkpt lat="39.788843" lon="-5.701572">
        <ele>300.7</ele>
        <time>1970-01-01T00:00:00Z</time>
      </trkpt>
      <trkpt lat="39.788612" lon="-5.701275">
        <ele>300.1</ele>
        <time>1970-01-01T00:00:00Z</time>
      </trkpt>
      <trkpt lat="39.788466" lon="-5.701155">
        <ele>299.7</ele>
        <time>1970-01-01T00:00:00Z</time>
      </trkpt>
      <trkpt lat="39.788387" lon="-5.701046">
        <ele>299.4</ele>
        <time>1970-01-01T00:00:00Z</time>
      </trkpt>
      <trkpt lat="39.788178" lon="-5.700819">
        <ele>298.5</ele>
        <time>1970-01-01T00:00:00Z</time>
      </trkpt>
      <trkpt lat="39.787697" lon="-5.700444">
        <ele>298.1</ele>
        <time>1970-01-01T00:00:00Z</time>
      </trkpt>
      <trkpt lat="39.787513" lon="-5.700374">
        <ele>298.0</ele>
        <time>1970-01-01T00:00:00Z</time>
      </trkpt>
      <trkpt lat="39.787287" lon="-5.700239">
        <ele>298.2</ele>
        <time>1970-01-01T00:00:00Z</time>
      </trkpt>
      <trkpt lat="39.787112" lon="-5.700158">
        <ele>298.0</ele>
        <time>1970-01-01T00:00:00Z</time>
      </trkpt>
      <trkpt lat="39.787014" lon="-5.700084">
        <ele>298.0</ele>
        <time>1970-01-01T00:00:00Z</time>
      </trkpt>
      <trkpt lat="39.786830" lon="-5.700099">
        <ele>297.9</ele>
        <time>1970-01-01T00:00:00Z</time>
      </trkpt>
      <trkpt lat="39.786708" lon="-5.700057">
        <ele>298.0</ele>
        <time>1970-01-01T00:00:00Z</time>
      </trkpt>
      <trkpt lat="39.786467" lon="-5.700085">
        <ele>297.0</ele>
        <time>1970-01-01T00:00:00Z</time>
      </trkpt>
      <trkpt lat="39.785850" lon="-5.699801">
        <ele>291.4</ele>
        <time>1970-01-01T00:00:00Z</time>
      </trkpt>
      <trkpt lat="39.785726" lon="-5.699503">
        <ele>291.3</ele>
        <time>1970-01-01T00:00:00Z</time>
      </trkpt>
      <trkpt lat="39.785496" lon="-5.699276">
        <ele>290.3</ele>
        <time>1970-01-01T00:00:00Z</time>
      </trkpt>
      <trkpt lat="39.785219" lon="-5.699053">
        <ele>288.2</ele>
        <time>1970-01-01T00:00:00Z</time>
      </trkpt>
      <trkpt lat="39.784799" lon="-5.698778">
        <ele>286.4</ele>
        <time>1970-01-01T00:00:00Z</time>
      </trkpt>
      <trkpt lat="39.784607" lon="-5.698666">
        <ele>285.2</ele>
        <time>1970-01-01T00:00:00Z</time>
      </trkpt>
      <trkpt lat="39.784479" lon="-5.698609">
        <ele>285.1</ele>
        <time>1970-01-01T00:00:00Z</time>
      </trkpt>
      <trkpt lat="39.784258" lon="-5.698434">
        <ele>285.0</ele>
        <time>1970-01-01T00:00:00Z</time>
      </trkpt>
      <trkpt lat="39.783793" lon="-5.698012">
        <ele>282.2</ele>
        <time>1970-01-01T00:00:00Z</time>
      </trkpt>
      <trkpt lat="39.783351" lon="-5.697702">
        <ele>277.9</ele>
        <time>1970-01-01T00:00:00Z</time>
      </trkpt>
      <trkpt lat="39.782711" lon="-5.697054">
        <ele>273.0</ele>
        <time>1970-01-01T00:00:00Z</time>
      </trkpt>
      <trkpt lat="39.782525" lon="-5.697061">
        <ele>273.0</ele>
        <time>1970-01-01T00:00:00Z</time>
      </trkpt>
      <trkpt lat="39.782302" lon="-5.697045">
        <ele>273.0</ele>
        <time>1970-01-01T00:00:00Z</time>
      </trkpt>
      <trkpt lat="39.782107" lon="-5.697064">
        <ele>271.5</ele>
        <time>1970-01-01T00:00:00Z</time>
      </trkpt>
      <trkpt lat="39.781948" lon="-5.697039">
        <ele>268.9</ele>
        <time>1970-01-01T00:00:00Z</time>
      </trkpt>
      <trkpt lat="39.781809" lon="-5.697093">
        <ele>266.0</ele>
        <time>1970-01-01T00:00:00Z</time>
      </trkpt>
      <trkpt lat="39.781677" lon="-5.697117">
        <ele>263.1</ele>
        <time>1970-01-01T00:00:00Z</time>
      </trkpt>
      <trkpt lat="39.781668" lon="-5.696883">
        <ele>262.8</ele>
        <time>1970-01-01T00:00:00Z</time>
      </trkpt>
      <trkpt lat="39.781620" lon="-5.696600">
        <ele>260.8</ele>
        <time>1970-01-01T00:00:00Z</time>
      </trkpt>
      <trkpt lat="39.781488" lon="-5.696368">
        <ele>256.6</ele>
        <time>1970-01-01T00:00:00Z</time>
      </trkpt>
      <trkpt lat="39.781317" lon="-5.696225">
        <ele>252.3</ele>
        <time>1970-01-01T00:00:00Z</time>
      </trkpt>
      <trkpt lat="39.781139" lon="-5.696162">
        <ele>248.4</ele>
        <time>1970-01-01T00:00:00Z</time>
      </trkpt>
      <trkpt lat="39.780759" lon="-5.696125">
        <ele>241.9</ele>
        <time>1970-01-01T00:00:00Z</time>
      </trkpt>
      <trkpt lat="39.780507" lon="-5.696122">
        <ele>241.6</ele>
        <time>1970-01-01T00:00:00Z</time>
      </trkpt>
      <trkpt lat="39.779820" lon="-5.696155">
        <ele>247.3</ele>
        <time>1970-01-01T00:00:00Z</time>
      </trkpt>
      <trkpt lat="39.779580" lon="-5.696138">
        <ele>250.6</ele>
        <time>1970-01-01T00:00:00Z</time>
      </trkpt>
      <trkpt lat="39.779516" lon="-5.695936">
        <ele>250.9</ele>
        <time>1970-01-01T00:00:00Z</time>
      </trkpt>
      <trkpt lat="39.779494" lon="-5.695683">
        <ele>250.2</ele>
        <time>1970-01-01T00:00:00Z</time>
      </trkpt>
      <trkpt lat="39.779458" lon="-5.695618">
        <ele>250.1</ele>
        <time>1970-01-01T00:00:00Z</time>
      </trkpt>
      <trkpt lat="39.779389" lon="-5.695623">
        <ele>251.1</ele>
        <time>1970-01-01T00:00:00Z</time>
      </trkpt>
      <trkpt lat="39.779340" lon="-5.695665">
        <ele>252.1</ele>
        <time>1970-01-01T00:00:00Z</time>
      </trkpt>
      <trkpt lat="39.779247" lon="-5.695955">
        <ele>255.8</ele>
        <time>1970-01-01T00:00:00Z</time>
      </trkpt>
      <trkpt lat="39.779159" lon="-5.696040">
        <ele>257.9</ele>
        <time>1970-01-01T00:00:00Z</time>
      </trkpt>
      <trkpt lat="39.779023" lon="-5.696109">
        <ele>260.9</ele>
        <time>1970-01-01T00:00:00Z</time>
      </trkpt>
      <trkpt lat="39.778933" lon="-5.696176">
        <ele>262.2</ele>
        <time>1970-01-01T00:00:00Z</time>
      </trkpt>
      <trkpt lat="39.778775" lon="-5.696333">
        <ele>265.0</ele>
        <time>1970-01-01T00:00:00Z</time>
      </trkpt>
      <trkpt lat="39.778648" lon="-5.696491">
        <ele>267.5</ele>
        <time>1970-01-01T00:00:00Z</time>
      </trkpt>
      <trkpt lat="39.778543" lon="-5.696591">
        <ele>269.0</ele>
        <time>1970-01-01T00:00:00Z</time>
      </trkpt>
      <trkpt lat="39.778418" lon="-5.696660">
        <ele>269.2</ele>
        <time>1970-01-01T00:00:00Z</time>
      </trkpt>
      <trkpt lat="39.778264" lon="-5.696650">
        <ele>268.9</ele>
        <time>1970-01-01T00:00:00Z</time>
      </trkpt>
      <trkpt lat="39.778038" lon="-5.696541">
        <ele>267.2</ele>
        <time>1970-01-01T00:00:00Z</time>
      </trkpt>
      <trkpt lat="39.777739" lon="-5.696359">
        <ele>264.4</ele>
        <time>1970-01-01T00:00:00Z</time>
      </trkpt>
      <trkpt lat="39.777511" lon="-5.696317">
        <ele>263.8</ele>
        <time>1970-01-01T00:00:00Z</time>
      </trkpt>
      <trkpt lat="39.777348" lon="-5.696333">
        <ele>265.1</ele>
        <time>1970-01-01T00:00:00Z</time>
      </trkpt>
      <trkpt lat="39.777123" lon="-5.696405">
        <ele>268.4</ele>
        <time>1970-01-01T00:00:00Z</time>
      </trkpt>
      <trkpt lat="39.776875" lon="-5.696514">
        <ele>274.0</ele>
        <time>1970-01-01T00:00:00Z</time>
      </trkpt>
      <trkpt lat="39.776257" lon="-5.696850">
        <ele>289.5</ele>
        <time>1970-01-01T00:00:00Z</time>
      </trkpt>
      <trkpt lat="39.776060" lon="-5.696987">
        <ele>292.7</ele>
        <time>1970-01-01T00:00:00Z</time>
      </trkpt>
      <trkpt lat="39.774926" lon="-5.697884">
        <ele>296.3</ele>
        <time>1970-01-01T00:00:00Z</time>
      </trkpt>
      <trkpt lat="39.774787" lon="-5.698079">
        <ele>295.8</ele>
        <time>1970-01-01T00:00:00Z</time>
      </trkpt>
      <trkpt lat="39.774531" lon="-5.698165">
        <ele>293.6</ele>
        <time>1970-01-01T00:00:00Z</time>
      </trkpt>
      <trkpt lat="39.774385" lon="-5.698282">
        <ele>293.5</ele>
        <time>1970-01-01T00:00:00Z</time>
      </trkpt>
      <trkpt lat="39.774277" lon="-5.698392">
        <ele>293.1</ele>
        <time>1970-01-01T00:00:00Z</time>
      </trkpt>
      <trkpt lat="39.774187" lon="-5.698437">
        <ele>292.1</ele>
        <time>1970-01-01T00:00:00Z</time>
      </trkpt>
      <trkpt lat="39.773926" lon="-5.698479">
        <ele>289.1</ele>
        <time>1970-01-01T00:00:00Z</time>
      </trkpt>
      <trkpt lat="39.773578" lon="-5.698691">
        <ele>284.9</ele>
        <time>1970-01-01T00:00:00Z</time>
      </trkpt>
      <trkpt lat="39.773474" lon="-5.698728">
        <ele>283.6</ele>
        <time>1970-01-01T00:00:00Z</time>
      </trkpt>
      <trkpt lat="39.773339" lon="-5.698749">
        <ele>282.1</ele>
        <time>1970-01-01T00:00:00Z</time>
      </trkpt>
      <trkpt lat="39.773214" lon="-5.698810">
        <ele>281.4</ele>
        <time>1970-01-01T00:00:00Z</time>
      </trkpt>
      <trkpt lat="39.773119" lon="-5.698873">
        <ele>281.0</ele>
        <time>1970-01-01T00:00:00Z</time>
      </trkpt>
      <trkpt lat="39.772949" lon="-5.699030">
        <ele>280.3</ele>
        <time>1970-01-01T00:00:00Z</time>
      </trkpt>
      <trkpt lat="39.772821" lon="-5.699125">
        <ele>279.4</ele>
        <time>1970-01-01T00:00:00Z</time>
      </trkpt>
      <trkpt lat="39.772592" lon="-5.699146">
        <ele>277.3</ele>
        <time>1970-01-01T00:00:00Z</time>
      </trkpt>
      <trkpt lat="39.772278" lon="-5.699222">
        <ele>276.6</ele>
        <time>1970-01-01T00:00:00Z</time>
      </trkpt>
      <trkpt lat="39.772170" lon="-5.699218">
        <ele>277.2</ele>
        <time>1970-01-01T00:00:00Z</time>
      </trkpt>
      <trkpt lat="39.772045" lon="-5.699146">
        <ele>277.5</ele>
        <time>1970-01-01T00:00:00Z</time>
      </trkpt>
      <trkpt lat="39.771881" lon="-5.699092">
        <ele>278.8</ele>
        <time>1970-01-01T00:00:00Z</time>
      </trkpt>
      <trkpt lat="39.771778" lon="-5.699077">
        <ele>279.7</ele>
        <time>1970-01-01T00:00:00Z</time>
      </trkpt>
      <trkpt lat="39.771602" lon="-5.699148">
        <ele>281.0</ele>
        <time>1970-01-01T00:00:00Z</time>
      </trkpt>
      <trkpt lat="39.771037" lon="-5.699226">
        <ele>283.8</ele>
        <time>1970-01-01T00:00:00Z</time>
      </trkpt>
      <trkpt lat="39.770899" lon="-5.699231">
        <ele>284.7</ele>
        <time>1970-01-01T00:00:00Z</time>
      </trkpt>
      <trkpt lat="39.770780" lon="-5.699201">
        <ele>285.4</ele>
        <time>1970-01-01T00:00:00Z</time>
      </trkpt>
      <trkpt lat="39.770342" lon="-5.699228">
        <ele>287.8</ele>
        <time>1970-01-01T00:00:00Z</time>
      </trkpt>
      <trkpt lat="39.770269" lon="-5.699266">
        <ele>287.9</ele>
        <time>1970-01-01T00:00:00Z</time>
      </trkpt>
      <trkpt lat="39.769888" lon="-5.699591">
        <ele>288.5</ele>
        <time>1970-01-01T00:00:00Z</time>
      </trkpt>
      <trkpt lat="39.769747" lon="-5.699667">
        <ele>288.3</ele>
        <time>1970-01-01T00:00:00Z</time>
      </trkpt>
      <trkpt lat="39.769596" lon="-5.699691">
        <ele>286.9</ele>
        <time>1970-01-01T00:00:00Z</time>
      </trkpt>
      <trkpt lat="39.769263" lon="-5.699673">
        <ele>283.5</ele>
        <time>1970-01-01T00:00:00Z</time>
      </trkpt>
      <trkpt lat="39.768804" lon="-5.699546">
        <ele>280.6</ele>
        <time>1970-01-01T00:00:00Z</time>
      </trkpt>
      <trkpt lat="39.768572" lon="-5.699448">
        <ele>281.2</ele>
        <time>1970-01-01T00:00:00Z</time>
      </trkpt>
      <trkpt lat="39.767944" lon="-5.699221">
        <ele>283.0</ele>
        <time>1970-01-01T00:00:00Z</time>
      </trkpt>
      <trkpt lat="39.767311" lon="-5.698670">
        <ele>283.4</ele>
        <time>1970-01-01T00:00:00Z</time>
      </trkpt>
      <trkpt lat="39.767162" lon="-5.698575">
        <ele>283.6</ele>
        <time>1970-01-01T00:00:00Z</time>
      </trkpt>
      <trkpt lat="39.766851" lon="-5.698435">
        <ele>283.5</ele>
        <time>1970-01-01T00:00:00Z</time>
      </trkpt>
      <trkpt lat="39.765578" lon="-5.697804">
        <ele>287.4</ele>
        <time>1970-01-01T00:00:00Z</time>
      </trkpt>
      <trkpt lat="39.765451" lon="-5.697782">
        <ele>287.8</ele>
        <time>1970-01-01T00:00:00Z</time>
      </trkpt>
      <trkpt lat="39.764297" lon="-5.697233">
        <ele>293.6</ele>
        <time>1970-01-01T00:00:00Z</time>
      </trkpt>
      <trkpt lat="39.763966" lon="-5.697114">
        <ele>296.1</ele>
        <time>1970-01-01T00:00:00Z</time>
      </trkpt>
      <trkpt lat="39.763475" lon="-5.696986">
        <ele>298.2</ele>
        <time>1970-01-01T00:00:00Z</time>
      </trkpt>
      <trkpt lat="39.763173" lon="-5.696942">
        <ele>299.3</ele>
        <time>1970-01-01T00:00:00Z</time>
      </trkpt>
      <trkpt lat="39.762846" lon="-5.696833">
        <ele>300.0</ele>
        <time>1970-01-01T00:00:00Z</time>
      </trkpt>
      <trkpt lat="39.762487" lon="-5.696769">
        <ele>299.2</ele>
        <time>1970-01-01T00:00:00Z</time>
      </trkpt>
      <trkpt lat="39.762295" lon="-5.696757">
        <ele>299.2</ele>
        <time>1970-01-01T00:00:00Z</time>
      </trkpt>
      <trkpt lat="39.762110" lon="-5.696752">
        <ele>299.0</ele>
        <time>1970-01-01T00:00:00Z</time>
      </trkpt>
      <trkpt lat="39.762023" lon="-5.696805">
        <ele>299.0</ele>
        <time>1970-01-01T00:00:00Z</time>
      </trkpt>
      <trkpt lat="39.761966" lon="-5.696872">
        <ele>299.0</ele>
        <time>1970-01-01T00:00:00Z</time>
      </trkpt>
      <trkpt lat="39.761936" lon="-5.696936">
        <ele>299.0</ele>
        <time>1970-01-01T00:00:00Z</time>
      </trkpt>
      <trkpt lat="39.761866" lon="-5.696982">
        <ele>299.2</ele>
        <time>1970-01-01T00:00:00Z</time>
      </trkpt>
      <trkpt lat="39.761784" lon="-5.696994">
        <ele>299.5</ele>
        <time>1970-01-01T00:00:00Z</time>
      </trkpt>
      <trkpt lat="39.761721" lon="-5.696893">
        <ele>299.8</ele>
        <time>1970-01-01T00:00:00Z</time>
      </trkpt>
      <trkpt lat="39.761542" lon="-5.696312">
        <ele>300.3</ele>
        <time>1970-01-01T00:00:00Z</time>
      </trkpt>
      <trkpt lat="39.761435" lon="-5.695908">
        <ele>303.0</ele>
        <time>1970-01-01T00:00:00Z</time>
      </trkpt>
      <trkpt lat="39.761354" lon="-5.695702">
        <ele>304.7</ele>
        <time>1970-01-01T00:00:00Z</time>
      </trkpt>
      <trkpt lat="39.761075" lon="-5.695308">
        <ele>308.0</ele>
        <time>1970-01-01T00:00:00Z</time>
      </trkpt>
      <trkpt lat="39.760997" lon="-5.695164">
        <ele>308.5</ele>
        <time>1970-01-01T00:00:00Z</time>
      </trkpt>
      <trkpt lat="39.760783" lon="-5.694618">
        <ele>312.8</ele>
        <time>1970-01-01T00:00:00Z</time>
      </trkpt>
      <trkpt lat="39.760403" lon="-5.693567">
        <ele>323.2</ele>
        <time>1970-01-01T00:00:00Z</time>
      </trkpt>
      <trkpt lat="39.760384" lon="-5.693399">
        <ele>324.7</ele>
        <time>1970-01-01T00:00:00Z</time>
      </trkpt>
      <trkpt lat="39.760396" lon="-5.693202">
        <ele>327.0</ele>
        <time>1970-01-01T00:00:00Z</time>
      </trkpt>
      <trkpt lat="39.760521" lon="-5.692806">
        <ele>331.7</ele>
        <time>1970-01-01T00:00:00Z</time>
      </trkpt>
      <trkpt lat="39.760525" lon="-5.692666">
        <ele>333.0</ele>
        <time>1970-01-01T00:00:00Z</time>
      </trkpt>
      <trkpt lat="39.760487" lon="-5.692466">
        <ele>333.5</ele>
        <time>1970-01-01T00:00:00Z</time>
      </trkpt>
      <trkpt lat="39.760476" lon="-5.691984">
        <ele>335.5</ele>
        <time>1970-01-01T00:00:00Z</time>
      </trkpt>
      <trkpt lat="39.760431" lon="-5.691609">
        <ele>337.7</ele>
        <time>1970-01-01T00:00:00Z</time>
      </trkpt>
      <trkpt lat="39.760371" lon="-5.691340">
        <ele>339.3</ele>
        <time>1970-01-01T00:00:00Z</time>
      </trkpt>
      <trkpt lat="39.760346" lon="-5.691144">
        <ele>341.0</ele>
        <time>1970-01-01T00:00:00Z</time>
      </trkpt>
      <trkpt lat="39.760341" lon="-5.690986">
        <ele>342.7</ele>
        <time>1970-01-01T00:00:00Z</time>
      </trkpt>
      <trkpt lat="39.760169" lon="-5.690567">
        <ele>346.6</ele>
        <time>1970-01-01T00:00:00Z</time>
      </trkpt>
      <trkpt lat="39.760047" lon="-5.690181">
        <ele>350.5</ele>
        <time>1970-01-01T00:00:00Z</time>
      </trkpt>
      <trkpt lat="39.760013" lon="-5.689819">
        <ele>353.2</ele>
        <time>1970-01-01T00:00:00Z</time>
      </trkpt>
      <trkpt lat="39.759884" lon="-5.689612">
        <ele>353.9</ele>
        <time>1970-01-01T00:00:00Z</time>
      </trkpt>
      <trkpt lat="39.759476" lon="-5.688813">
        <ele>357.8</ele>
        <time>1970-01-01T00:00:00Z</time>
      </trkpt>
      <trkpt lat="39.759384" lon="-5.688564">
        <ele>358.1</ele>
        <time>1970-01-01T00:00:00Z</time>
      </trkpt>
      <trkpt lat="39.759253" lon="-5.688310">
        <ele>358.4</ele>
        <time>1970-01-01T00:00:00Z</time>
      </trkpt>
      <trkpt lat="39.759133" lon="-5.687969">
        <ele>359.5</ele>
        <time>1970-01-01T00:00:00Z</time>
      </trkpt>
      <trkpt lat="39.759020" lon="-5.687733">
        <ele>361.2</ele>
        <time>1970-01-01T00:00:00Z</time>
      </trkpt>
      <trkpt lat="39.758826" lon="-5.687406">
        <ele>364.0</ele>
        <time>1970-01-01T00:00:00Z</time>
      </trkpt>
      <trkpt lat="39.758718" lon="-5.687291">
        <ele>365.4</ele>
        <time>1970-01-01T00:00:00Z</time>
      </trkpt>
      <trkpt lat="39.758562" lon="-5.687092">
        <ele>367.1</ele>
        <time>1970-01-01T00:00:00Z</time>
      </trkpt>
      <trkpt lat="39.758434" lon="-5.686875">
        <ele>369.0</ele>
        <time>1970-01-01T00:00:00Z</time>
      </trkpt>
      <trkpt lat="39.758336" lon="-5.686654">
        <ele>371.8</ele>
        <time>1970-01-01T00:00:00Z</time>
      </trkpt>
      <trkpt lat="39.757630" lon="-5.685361">
        <ele>377.5</ele>
        <time>1970-01-01T00:00:00Z</time>
      </trkpt>
      <trkpt lat="39.757505" lon="-5.685084">
        <ele>378.0</ele>
        <time>1970-01-01T00:00:00Z</time>
      </trkpt>
      <trkpt lat="39.757415" lon="-5.684837">
        <ele>377.6</ele>
        <time>1970-01-01T00:00:00Z</time>
      </trkpt>
      <trkpt lat="39.757084" lon="-5.684468">
        <ele>379.2</ele>
        <time>1970-01-01T00:00:00Z</time>
      </trkpt>
      <trkpt lat="39.756945" lon="-5.684374">
        <ele>380.5</ele>
        <time>1970-01-01T00:00:00Z</time>
      </trkpt>
      <trkpt lat="39.756685" lon="-5.684267">
        <ele>382.0</ele>
        <time>1970-01-01T00:00:00Z</time>
      </trkpt>
      <trkpt lat="39.756509" lon="-5.684211">
        <ele>382.2</ele>
        <time>1970-01-01T00:00:00Z</time>
      </trkpt>
      <trkpt lat="39.756332" lon="-5.684192">
        <ele>382.3</ele>
        <time>1970-01-01T00:00:00Z</time>
      </trkpt>
      <trkpt lat="39.756207" lon="-5.684160">
        <ele>382.3</ele>
        <time>1970-01-01T00:00:00Z</time>
      </trkpt>
      <trkpt lat="39.755635" lon="-5.683898">
        <ele>383.5</ele>
        <time>1970-01-01T00:00:00Z</time>
      </trkpt>
      <trkpt lat="39.755415" lon="-5.683756">
        <ele>384.1</ele>
        <time>1970-01-01T00:00:00Z</time>
      </trkpt>
      <trkpt lat="39.755328" lon="-5.683750">
        <ele>384.5</ele>
        <time>1970-01-01T00:00:00Z</time>
      </trkpt>
      <trkpt lat="39.755058" lon="-5.683628">
        <ele>384.6</ele>
        <time>1970-01-01T00:00:00Z</time>
      </trkpt>
      <trkpt lat="39.754934" lon="-5.683537">
        <ele>384.9</ele>
        <time>1970-01-01T00:00:00Z</time>
      </trkpt>
      <trkpt lat="39.754749" lon="-5.683461">
        <ele>386.1</ele>
        <time>1970-01-01T00:00:00Z</time>
      </trkpt>
      <trkpt lat="39.754376" lon="-5.683276">
        <ele>387.0</ele>
        <time>1970-01-01T00:00:00Z</time>
      </trkpt>
      <trkpt lat="39.754265" lon="-5.683195">
        <ele>387.0</ele>
        <time>1970-01-01T00:00:00Z</time>
      </trkpt>
      <trkpt lat="39.754120" lon="-5.683041">
        <ele>387.0</ele>
        <time>1970-01-01T00:00:00Z</time>
      </trkpt>
      <trkpt lat="39.753815" lon="-5.682792">
        <ele>387.0</ele>
        <time>1970-01-01T00:00:00Z</time>
      </trkpt>
      <trkpt lat="39.753631" lon="-5.682664">
        <ele>387.8</ele>
        <time>1970-01-01T00:00:00Z</time>
      </trkpt>
      <trkpt lat="39.753520" lon="-5.682529">
        <ele>388.2</ele>
        <time>1970-01-01T00:00:00Z</time>
      </trkpt>
      <trkpt lat="39.753329" lon="-5.682259">
        <ele>390.8</ele>
        <time>1970-01-01T00:00:00Z</time>
      </trkpt>
      <trkpt lat="39.753256" lon="-5.682188">
        <ele>391.3</ele>
        <time>1970-01-01T00:00:00Z</time>
      </trkpt>
      <trkpt lat="39.752998" lon="-5.682009">
        <ele>393.5</ele>
        <time>1970-01-01T00:00:00Z</time>
      </trkpt>
      <trkpt lat="39.752689" lon="-5.681674">
        <ele>395.6</ele>
        <time>1970-01-01T00:00:00Z</time>
      </trkpt>
      <trkpt lat="39.752539" lon="-5.681569">
        <ele>395.4</ele>
        <time>1970-01-01T00:00:00Z</time>
      </trkpt>
      <trkpt lat="39.752416" lon="-5.681441">
        <ele>395.0</ele>
        <time>1970-01-01T00:00:00Z</time>
      </trkpt>
      <trkpt lat="39.752189" lon="-5.681116">
        <ele>393.0</ele>
        <time>1970-01-01T00:00:00Z</time>
      </trkpt>
      <trkpt lat="39.752077" lon="-5.680924">
        <ele>392.2</ele>
        <time>1970-01-01T00:00:00Z</time>
      </trkpt>
      <trkpt lat="39.751677" lon="-5.680493">
        <ele>387.9</ele>
        <time>1970-01-01T00:00:00Z</time>
      </trkpt>
      <trkpt lat="39.751253" lon="-5.680121">
        <ele>386.0</ele>
        <time>1970-01-01T00:00:00Z</time>
      </trkpt>
      <trkpt lat="39.751007" lon="-5.679939">
        <ele>384.9</ele>
        <time>1970-01-01T00:00:00Z</time>
      </trkpt>
      <trkpt lat="39.750716" lon="-5.679663">
        <ele>385.4</ele>
        <time>1970-01-01T00:00:00Z</time>
      </trkpt>
      <trkpt lat="39.750214" lon="-5.679293">
        <ele>383.2</ele>
        <time>1970-01-01T00:00:00Z</time>
      </trkpt>
      <trkpt lat="39.750166" lon="-5.679288">
        <ele>383.0</ele>
        <time>1970-01-01T00:00:00Z</time>
      </trkpt>
      <trkpt lat="39.750004" lon="-5.679218">
        <ele>382.6</ele>
        <time>1970-01-01T00:00:00Z</time>
      </trkpt>
      <trkpt lat="39.749861" lon="-5.679128">
        <ele>382.4</ele>
        <time>1970-01-01T00:00:00Z</time>
      </trkpt>
      <trkpt lat="39.749678" lon="-5.678963">
        <ele>383.0</ele>
        <time>1970-01-01T00:00:00Z</time>
      </trkpt>
      <trkpt lat="39.749460" lon="-5.678816">
        <ele>383.0</ele>
        <time>1970-01-01T00:00:00Z</time>
      </trkpt>
      <trkpt lat="39.749365" lon="-5.678731">
        <ele>383.0</ele>
        <time>1970-01-01T00:00:00Z</time>
      </trkpt>
      <trkpt lat="39.749248" lon="-5.678660">
        <ele>383.0</ele>
        <time>1970-01-01T00:00:00Z</time>
      </trkpt>
      <trkpt lat="39.749118" lon="-5.678618">
        <ele>383.0</ele>
        <time>1970-01-01T00:00:00Z</time>
      </trkpt>
      <trkpt lat="39.748842" lon="-5.678595">
        <ele>383.8</ele>
        <time>1970-01-01T00:00:00Z</time>
      </trkpt>
      <trkpt lat="39.748721" lon="-5.678555">
        <ele>384.9</ele>
        <time>1970-01-01T00:00:00Z</time>
      </trkpt>
      <trkpt lat="39.748619" lon="-5.678495">
        <ele>384.9</ele>
        <time>1970-01-01T00:00:00Z</time>
      </trkpt>
      <trkpt lat="39.748413" lon="-5.678250">
        <ele>385.1</ele>
        <time>1970-01-01T00:00:00Z</time>
      </trkpt>
      <trkpt lat="39.748157" lon="-5.678020">
        <ele>384.9</ele>
        <time>1970-01-01T00:00:00Z</time>
      </trkpt>
      <trkpt lat="39.747757" lon="-5.677747">
        <ele>384.1</ele>
        <time>1970-01-01T00:00:00Z</time>
      </trkpt>
      <trkpt lat="39.747650" lon="-5.677691">
        <ele>384.2</ele>
        <time>1970-01-01T00:00:00Z</time>
      </trkpt>
      <trkpt lat="39.747230" lon="-5.677534">
        <ele>383.3</ele>
        <time>1970-01-01T00:00:00Z</time>
      </trkpt>
      <trkpt lat="39.747103" lon="-5.677502">
        <ele>383.5</ele>
        <time>1970-01-01T00:00:00Z</time>
      </trkpt>
      <trkpt lat="39.746986" lon="-5.677443">
        <ele>383.7</ele>
        <time>1970-01-01T00:00:00Z</time>
      </trkpt>
      <trkpt lat="39.746876" lon="-5.677365">
        <ele>383.9</ele>
        <time>1970-01-01T00:00:00Z</time>
      </trkpt>
      <trkpt lat="39.746759" lon="-5.677311">
        <ele>384.6</ele>
        <time>1970-01-01T00:00:00Z</time>
      </trkpt>
      <trkpt lat="39.746659" lon="-5.677320">
        <ele>385.5</ele>
        <time>1970-01-01T00:00:00Z</time>
      </trkpt>
      <trkpt lat="39.746336" lon="-5.677258">
        <ele>385.6</ele>
        <time>1970-01-01T00:00:00Z</time>
      </trkpt>
      <trkpt lat="39.746040" lon="-5.677155">
        <ele>386.0</ele>
        <time>1970-01-01T00:00:00Z</time>
      </trkpt>
      <trkpt lat="39.745719" lon="-5.676923">
        <ele>387.9</ele>
        <time>1970-01-01T00:00:00Z</time>
      </trkpt>
      <trkpt lat="39.745362" lon="-5.676694">
        <ele>391.9</ele>
        <time>1970-01-01T00:00:00Z</time>
      </trkpt>
      <trkpt lat="39.745219" lon="-5.676619">
        <ele>393.0</ele>
        <time>1970-01-01T00:00:00Z</time>
      </trkpt>
      <trkpt lat="39.745095" lon="-5.676592">
        <ele>393.0</ele>
        <time>1970-01-01T00:00:00Z</time>
      </trkpt>
      <trkpt lat="39.744891" lon="-5.676587">
        <ele>392.9</ele>
        <time>1970-01-01T00:00:00Z</time>
      </trkpt>
      <trkpt lat="39.744580" lon="-5.676597">
        <ele>393.0</ele>
        <time>1970-01-01T00:00:00Z</time>
      </trkpt>
      <trkpt lat="39.744418" lon="-5.676623">
        <ele>393.0</ele>
        <time>1970-01-01T00:00:00Z</time>
      </trkpt>
      <trkpt lat="39.744315" lon="-5.676673">
        <ele>393.0</ele>
        <time>1970-01-01T00:00:00Z</time>
      </trkpt>
      <trkpt lat="39.744238" lon="-5.676739">
        <ele>393.0</ele>
        <time>1970-01-01T00:00:00Z</time>
      </trkpt>
      <trkpt lat="39.744190" lon="-5.676807">
        <ele>393.0</ele>
        <time>1970-01-01T00:00:00Z</time>
      </trkpt>
      <trkpt lat="39.744117" lon="-5.676851">
        <ele>393.0</ele>
        <time>1970-01-01T00:00:00Z</time>
      </trkpt>
      <trkpt lat="39.744037" lon="-5.676845">
        <ele>393.4</ele>
        <time>1970-01-01T00:00:00Z</time>
      </trkpt>
      <trkpt lat="39.743869" lon="-5.676599">
        <ele>394.9</ele>
        <time>1970-01-01T00:00:00Z</time>
      </trkpt>
      <trkpt lat="39.743619" lon="-5.676280">
        <ele>397.8</ele>
        <time>1970-01-01T00:00:00Z</time>
      </trkpt>
      <trkpt lat="39.743498" lon="-5.676068">
        <ele>399.1</ele>
        <time>1970-01-01T00:00:00Z</time>
      </trkpt>
      <trkpt lat="39.742985" lon="-5.675483">
        <ele>402.8</ele>
        <time>1970-01-01T00:00:00Z</time>
      </trkpt>
      <trkpt lat="39.742879" lon="-5.675387">
        <ele>403.2</ele>
        <time>1970-01-01T00:00:00Z</time>
      </trkpt>
      <trkpt lat="39.742811" lon="-5.675338">
        <ele>403.5</ele>
        <time>1970-01-01T00:00:00Z</time>
      </trkpt>
      <trkpt lat="39.742726" lon="-5.675300">
        <ele>403.9</ele>
        <time>1970-01-01T00:00:00Z</time>
      </trkpt>
      <trkpt lat="39.742509" lon="-5.675299">
        <ele>404.8</ele>
        <time>1970-01-01T00:00:00Z</time>
      </trkpt>
      <trkpt lat="39.742138" lon="-5.675253">
        <ele>406.9</ele>
        <time>1970-01-01T00:00:00Z</time>
      </trkpt>
      <trkpt lat="39.742048" lon="-5.675212">
        <ele>407.7</ele>
        <time>1970-01-01T00:00:00Z</time>
      </trkpt>
      <trkpt lat="39.741760" lon="-5.675124">
        <ele>409.8</ele>
        <time>1970-01-01T00:00:00Z</time>
      </trkpt>
      <trkpt lat="39.741196" lon="-5.674764">
        <ele>411.3</ele>
        <time>1970-01-01T00:00:00Z</time>
      </trkpt>
      <trkpt lat="39.740910" lon="-5.674597">
        <ele>412.0</ele>
        <time>1970-01-01T00:00:00Z</time>
      </trkpt>
      <trkpt lat="39.740568" lon="-5.674288">
        <ele>411.0</ele>
        <time>1970-01-01T00:00:00Z</time>
      </trkpt>
      <trkpt lat="39.740382" lon="-5.674088">
        <ele>411.4</ele>
        <time>1970-01-01T00:00:00Z</time>
      </trkpt>
      <trkpt lat="39.740204" lon="-5.673950">
        <ele>411.9</ele>
        <time>1970-01-01T00:00:00Z</time>
      </trkpt>
      <trkpt lat="39.740122" lon="-5.673900">
        <ele>412.0</ele>
        <time>1970-01-01T00:00:00Z</time>
      </trkpt>
      <trkpt lat="39.739621" lon="-5.673698">
        <ele>414.4</ele>
        <time>1970-01-01T00:00:00Z</time>
      </trkpt>
      <trkpt lat="39.739463" lon="-5.673598">
        <ele>414.7</ele>
        <time>1970-01-01T00:00:00Z</time>
      </trkpt>
      <trkpt lat="39.739370" lon="-5.673520">
        <ele>414.9</ele>
        <time>1970-01-01T00:00:00Z</time>
      </trkpt>
      <trkpt lat="39.739288" lon="-5.673433">
        <ele>415.4</ele>
        <time>1970-01-01T00:00:00Z</time>
      </trkpt>
      <trkpt lat="39.739210" lon="-5.673322">
        <ele>415.9</ele>
        <time>1970-01-01T00:00:00Z</time>
      </trkpt>
      <trkpt lat="39.739034" lon="-5.673164">
        <ele>415.7</ele>
        <time>1970-01-01T00:00:00Z</time>
      </trkpt>
      <trkpt lat="39.738947" lon="-5.673059">
        <ele>415.9</ele>
        <time>1970-01-01T00:00:00Z</time>
      </trkpt>
      <trkpt lat="39.738862" lon="-5.672883">
        <ele>416.5</ele>
        <time>1970-01-01T00:00:00Z</time>
      </trkpt>
      <trkpt lat="39.738687" lon="-5.672619">
        <ele>416.5</ele>
        <time>1970-01-01T00:00:00Z</time>
      </trkpt>
      <trkpt lat="39.738590" lon="-5.672497">
        <ele>416.7</ele>
        <time>1970-01-01T00:00:00Z</time>
      </trkpt>
      <trkpt lat="39.737553" lon="-5.671526">
        <ele>417.3</ele>
        <time>1970-01-01T00:00:00Z</time>
      </trkpt>
      <trkpt lat="39.737386" lon="-5.671389">
        <ele>417.9</ele>
        <time>1970-01-01T00:00:00Z</time>
      </trkpt>
      <trkpt lat="39.736764" lon="-5.671135">
        <ele>419.6</ele>
        <time>1970-01-01T00:00:00Z</time>
      </trkpt>
      <trkpt lat="39.736445" lon="-5.671100">
        <ele>422.0</ele>
        <time>1970-01-01T00:00:00Z</time>
      </trkpt>
      <trkpt lat="39.735940" lon="-5.671162">
        <ele>428.4</ele>
        <time>1970-01-01T00:00:00Z</time>
      </trkpt>
      <trkpt lat="39.735263" lon="-5.671193">
        <ele>434.3</ele>
        <time>1970-01-01T00:00:00Z</time>
      </trkpt>
      <trkpt lat="39.735118" lon="-5.671217">
        <ele>435.8</ele>
        <time>1970-01-01T00:00:00Z</time>
      </trkpt>
      <trkpt lat="39.734743" lon="-5.671348">
        <ele>438.3</ele>
        <time>1970-01-01T00:00:00Z</time>
      </trkpt>
      <trkpt lat="39.734622" lon="-5.671370">
        <ele>438.9</ele>
        <time>1970-01-01T00:00:00Z</time>
      </trkpt>
      <trkpt lat="39.734424" lon="-5.671354">
        <ele>438.3</ele>
        <time>1970-01-01T00:00:00Z</time>
      </trkpt>
      <trkpt lat="39.733148" lon="-5.670716">
        <ele>436.7</ele>
        <time>1970-01-01T00:00:00Z</time>
      </trkpt>
      <trkpt lat="39.732735" lon="-5.670555">
        <ele>441.0</ele>
        <time>1970-01-01T00:00:00Z</time>
      </trkpt>
      <trkpt lat="39.732229" lon="-5.670389">
        <ele>444.0</ele>
        <time>1970-01-01T00:00:00Z</time>
      </trkpt>
      <trkpt lat="39.732104" lon="-5.670358">
        <ele>444.0</ele>
        <time>1970-01-01T00:00:00Z</time>
      </trkpt>
      <trkpt lat="39.731700" lon="-5.670348">
        <ele>443.7</ele>
        <time>1970-01-01T00:00:00Z</time>
      </trkpt>
      <trkpt lat="39.731404" lon="-5.670289">
        <ele>443.1</ele>
        <time>1970-01-01T00:00:00Z</time>
      </trkpt>
      <trkpt lat="39.730839" lon="-5.670223">
        <ele>442.0</ele>
        <time>1970-01-01T00:00:00Z</time>
      </trkpt>
      <trkpt lat="39.730708" lon="-5.670087">
        <ele>442.0</ele>
        <time>1970-01-01T00:00:00Z</time>
      </trkpt>
      <trkpt lat="39.730541" lon="-5.669829">
        <ele>442.0</ele>
        <time>1970-01-01T00:00:00Z</time>
      </trkpt>
      <trkpt lat="39.730403" lon="-5.669599">
        <ele>442.0</ele>
        <time>1970-01-01T00:00:00Z</time>
      </trkpt>
      <trkpt lat="39.730345" lon="-5.669451">
        <ele>441.8</ele>
        <time>1970-01-01T00:00:00Z</time>
      </trkpt>
      <trkpt lat="39.730243" lon="-5.669271">
        <ele>441.8</ele>
        <time>1970-01-01T00:00:00Z</time>
      </trkpt>
      <trkpt lat="39.730106" lon="-5.669170">
        <ele>442.3</ele>
        <time>1970-01-01T00:00:00Z</time>
      </trkpt>
      <trkpt lat="39.729910" lon="-5.669056">
        <ele>443.3</ele>
        <time>1970-01-01T00:00:00Z</time>
      </trkpt>
      <trkpt lat="39.729662" lon="-5.668951">
        <ele>444.2</ele>
        <time>1970-01-01T00:00:00Z</time>
      </trkpt>
      <trkpt lat="39.728353" lon="-5.667997">
        <ele>447.9</ele>
        <time>1970-01-01T00:00:00Z</time>
      </trkpt>
      <trkpt lat="39.728139" lon="-5.667874">
        <ele>447.8</ele>
        <time>1970-01-01T00:00:00Z</time>
      </trkpt>
      <trkpt lat="39.728100" lon="-5.667835">
        <ele>447.8</ele>
        <time>1970-01-01T00:00:00Z</time>
      </trkpt>
      <trkpt lat="39.728193" lon="-5.667642">
        <ele>447.0</ele>
        <time>1970-01-01T00:00:00Z</time>
      </trkpt>
    </trkseg>
    <trkseg>
      <trkpt lat="39.728232" lon="-5.667628">
        <ele>447.1</ele>
        <time>1970-01-01T00:00:00Z</time>
      </trkpt>
      <trkpt lat="39.728413" lon="-5.667227">
        <ele>446.7</ele>
        <time>1970-01-01T00:00:00Z</time>
      </trkpt>
      <trkpt lat="39.727319" lon="-5.666123">
        <ele>452.5</ele>
        <time>1970-01-01T00:00:00Z</time>
      </trkpt>
      <trkpt lat="39.727670" lon="-5.664879">
        <ele>449.3</ele>
        <time>1970-01-01T00:00:00Z</time>
      </trkpt>
      <trkpt lat="39.727911" lon="-5.663666">
        <ele>450.4</ele>
        <time>1970-01-01T00:00:00Z</time>
      </trkpt>
      <trkpt lat="39.728433" lon="-5.662382">
        <ele>448.3</ele>
        <time>1970-01-01T00:00:00Z</time>
      </trkpt>
      <trkpt lat="39.728834" lon="-5.661519">
        <ele>448.0</ele>
        <time>1970-01-01T00:00:00Z</time>
      </trkpt>
      <trkpt lat="39.729666" lon="-5.661108">
        <ele>447.8</ele>
        <time>1970-01-01T00:00:00Z</time>
      </trkpt>
      <trkpt lat="39.730679" lon="-5.660847">
        <ele>442.3</ele>
        <time>1970-01-01T00:00:00Z</time>
      </trkpt>
      <trkpt lat="39.731151" lon="-5.660787">
        <ele>440.5</ele>
        <time>1970-01-01T00:00:00Z</time>
      </trkpt>
      <trkpt lat="39.731718" lon="-5.660333">
        <ele>442.4</ele>
        <time>1970-01-01T00:00:00Z</time>
      </trkpt>
      <trkpt lat="39.732831" lon="-5.659852">
        <ele>444.1</ele>
        <time>1970-01-01T00:00:00Z</time>
      </trkpt>
      <trkpt lat="39.734937" lon="-5.658247">
        <ele>443.0</ele>
        <time>1970-01-01T00:00:00Z</time>
      </trkpt>
      <trkpt lat="39.735629" lon="-5.658465">
        <ele>435.1</ele>
        <time>1970-01-01T00:00:00Z</time>
      </trkpt>
      <trkpt lat="39.736442" lon="-5.658425">
        <ele>435.6</ele>
        <time>1970-01-01T00:00:00Z</time>
      </trkpt>
      <trkpt lat="39.737936" lon="-5.657833">
        <ele>452.6</ele>
        <time>1970-01-01T00:00:00Z</time>
      </trkpt>
      <trkpt lat="39.739311" lon="-5.656850">
        <ele>456.0</ele>
        <time>1970-01-01T00:00:00Z</time>
      </trkpt>
      <trkpt lat="39.739712" lon="-5.656514">
        <ele>454.8</ele>
        <time>1970-01-01T00:00:00Z</time>
      </trkpt>
      <trkpt lat="39.740615" lon="-5.654127">
        <ele>440.6</ele>
        <time>1970-01-01T00:00:00Z</time>
      </trkpt>
      <trkpt lat="39.740564" lon="-5.653334">
        <ele>440.8</ele>
        <time>1970-01-01T00:00:00Z</time>
      </trkpt>
      <trkpt lat="39.740153" lon="-5.652351">
        <ele>443.3</ele>
        <time>1970-01-01T00:00:00Z</time>
      </trkpt>
      <trkpt lat="39.739591" lon="-5.651188">
        <ele>444.1</ele>
        <time>1970-01-01T00:00:00Z</time>
      </trkpt>
      <trkpt lat="39.739491" lon="-5.650493">
        <ele>448.2</ele>
        <time>1970-01-01T00:00:00Z</time>
      </trkpt>
      <trkpt lat="39.739461" lon="-5.649972">
        <ele>450.4</ele>
        <time>1970-01-01T00:00:00Z</time>
      </trkpt>
      <trkpt lat="39.739963" lon="-5.649129">
        <ele>442.5</ele>
        <time>1970-01-01T00:00:00Z</time>
      </trkpt>
      <trkpt lat="39.740223" lon="-5.648547">
        <ele>434.4</ele>
        <time>1970-01-01T00:00:00Z</time>
      </trkpt>
      <trkpt lat="39.740394" lon="-5.647522">
        <ele>427.8</ele>
        <time>1970-01-01T00:00:00Z</time>
      </trkpt>
      <trkpt lat="39.740655" lon="-5.647351">
        <ele>423.5</ele>
        <time>1970-01-01T00:00:00Z</time>
      </trkpt>
      <trkpt lat="39.742631" lon="-5.646479">
        <ele>399.6</ele>
        <time>1970-01-01T00:00:00Z</time>
      </trkpt>
      <trkpt lat="39.742791" lon="-5.646138">
        <ele>399.3</ele>
        <time>1970-01-01T00:00:00Z</time>
      </trkpt>
      <trkpt lat="39.742881" lon="-5.645847">
        <ele>401.9</ele>
        <time>1970-01-01T00:00:00Z</time>
      </trkpt>
      <trkpt lat="39.743042" lon="-5.645947">
        <ele>397.4</ele>
        <time>1970-01-01T00:00:00Z</time>
      </trkpt>
      <trkpt lat="39.743523" lon="-5.646408">
        <ele>387.1</ele>
        <time>1970-01-01T00:00:00Z</time>
      </trkpt>
      <trkpt lat="39.743829" lon="-5.646376">
        <ele>385.2</ele>
        <time>1970-01-01T00:00:00Z</time>
      </trkpt>
      <trkpt lat="39.744311" lon="-5.645744">
        <ele>383.1</ele>
        <time>1970-01-01T00:00:00Z</time>
      </trkpt>
      <trkpt lat="39.744642" lon="-5.645132">
        <ele>373.7</ele>
        <time>1970-01-01T00:00:00Z</time>
      </trkpt>
      <trkpt lat="39.745234" lon="-5.644761">
        <ele>361.4</ele>
        <time>1970-01-01T00:00:00Z</time>
      </trkpt>
      <trkpt lat="39.745675" lon="-5.644340">
        <ele>351.7</ele>
        <time>1970-01-01T00:00:00Z</time>
      </trkpt>
      <trkpt lat="39.746121" lon="-5.643763">
        <ele>348.9</ele>
        <time>1970-01-01T00:00:00Z</time>
      </trkpt>
      <trkpt lat="39.746392" lon="-5.643241">
        <ele>344.5</ele>
        <time>1970-01-01T00:00:00Z</time>
      </trkpt>
      <trkpt lat="39.746312" lon="-5.642900">
        <ele>333.4</ele>
        <time>1970-01-01T00:00:00Z</time>
      </trkpt>
      <trkpt lat="39.746031" lon="-5.642800">
        <ele>321.6</ele>
        <time>1970-01-01T00:00:00Z</time>
      </trkpt>
      <trkpt lat="39.745750" lon="-5.642991">
        <ele>319.0</ele>
        <time>1970-01-01T00:00:00Z</time>
      </trkpt>
      <trkpt lat="39.745359" lon="-5.643693">
        <ele>330.0</ele>
        <time>1970-01-01T00:00:00Z</time>
      </trkpt>
      <trkpt lat="39.744978" lon="-5.643803">
        <ele>327.4</ele>
        <time>1970-01-01T00:00:00Z</time>
      </trkpt>
      <trkpt lat="39.744597" lon="-5.643632">
        <ele>322.5</ele>
        <time>1970-01-01T00:00:00Z</time>
      </trkpt>
      <trkpt lat="39.744276" lon="-5.642960">
        <ele>300.8</ele>
        <time>1970-01-01T00:00:00Z</time>
      </trkpt>
      <trkpt lat="39.743885" lon="-5.642790">
        <ele>304.0</ele>
        <time>1970-01-01T00:00:00Z</time>
      </trkpt>
      <trkpt lat="39.743433" lon="-5.642670">
        <ele>312.1</ele>
        <time>1970-01-01T00:00:00Z</time>
      </trkpt>
      <trkpt lat="39.742420" lon="-5.641837">
        <ele>297.5</ele>
        <time>1970-01-01T00:00:00Z</time>
      </trkpt>
      <trkpt lat="39.741597" lon="-5.641005">
        <ele>270.7</ele>
        <time>1970-01-01T00:00:00Z</time>
      </trkpt>
      <trkpt lat="39.741377" lon="-5.640593">
        <ele>264.7</ele>
        <time>1970-01-01T00:00:00Z</time>
      </trkpt>
      <trkpt lat="39.741246" lon="-5.640202">
        <ele>263.3</ele>
        <time>1970-01-01T00:00:00Z</time>
      </trkpt>
      <trkpt lat="39.741246" lon="-5.639821">
        <ele>265.5</ele>
        <time>1970-01-01T00:00:00Z</time>
      </trkpt>
      <trkpt lat="39.741106" lon="-5.639450">
        <ele>267.9</ele>
        <time>1970-01-01T00:00:00Z</time>
      </trkpt>
      <trkpt lat="39.741347" lon="-5.639049">
        <ele>270.9</ele>
        <time>1970-01-01T00:00:00Z</time>
      </trkpt>
      <trkpt lat="39.741588" lon="-5.638785">
        <ele>271.1</ele>
        <time>1970-01-01T00:00:00Z</time>
      </trkpt>
      <trkpt lat="39.741758" lon="-5.638153">
        <ele>273.1</ele>
        <time>1970-01-01T00:00:00Z</time>
      </trkpt>
      <trkpt lat="39.742550" lon="-5.637802">
        <ele>268.2</ele>
        <time>1970-01-01T00:00:00Z</time>
      </trkpt>
      <trkpt lat="39.743483" lon="-5.637742">
        <ele>256.3</ele>
        <time>1970-01-01T00:00:00Z</time>
      </trkpt>
      <trkpt lat="39.744055" lon="-5.637882">
        <ele>254.7</ele>
        <time>1970-01-01T00:00:00Z</time>
      </trkpt>
      <trkpt lat="39.744456" lon="-5.637361">
        <ele>257.7</ele>
        <time>1970-01-01T00:00:00Z</time>
      </trkpt>
      <trkpt lat="39.744516" lon="-5.636777">
        <ele>260.0</ele>
        <time>1970-01-01T00:00:00Z</time>
      </trkpt>
      <trkpt lat="39.743935" lon="-5.635523">
        <ele>254.7</ele>
        <time>1970-01-01T00:00:00Z</time>
      </trkpt>
      <trkpt lat="39.743774" lon="-5.634861">
        <ele>258.4</ele>
        <time>1970-01-01T00:00:00Z</time>
      </trkpt>
      <trkpt lat="39.743724" lon="-5.633968">
        <ele>260.8</ele>
        <time>1970-01-01T00:00:00Z</time>
      </trkpt>
      <trkpt lat="39.743694" lon="-5.633043">
        <ele>263.6</ele>
        <time>1970-01-01T00:00:00Z</time>
      </trkpt>
      <trkpt lat="39.743433" lon="-5.632070">
        <ele>264.4</ele>
        <time>1970-01-01T00:00:00Z</time>
      </trkpt>
      <trkpt lat="39.743513" lon="-5.630914">
        <ele>268.6</ele>
        <time>1970-01-01T00:00:00Z</time>
      </trkpt>
      <trkpt lat="39.743543" lon="-5.630432">
        <ele>266.6</ele>
        <time>1970-01-01T00:00:00Z</time>
      </trkpt>
      <trkpt lat="39.744095" lon="-5.629439">
        <ele>266.2</ele>
        <time>1970-01-01T00:00:00Z</time>
      </trkpt>
      <trkpt lat="39.746332" lon="-5.628745">
        <ele>275.1</ele>
        <time>1970-01-01T00:00:00Z</time>
      </trkpt>
      <trkpt lat="39.746452" lon="-5.628534">
        <ele>276.0</ele>
        <time>1970-01-01T00:00:00Z</time>
      </trkpt>
      <trkpt lat="39.747024" lon="-5.627170">
        <ele>292.0</ele>
        <time>1970-01-01T00:00:00Z</time>
      </trkpt>
      <trkpt lat="39.747616" lon="-5.626759">
        <ele>289.6</ele>
        <time>1970-01-01T00:00:00Z</time>
      </trkpt>
      <trkpt lat="39.748233" lon="-5.626453">
        <ele>291.2</ele>
        <time>1970-01-01T00:00:00Z</time>
      </trkpt>
      <trkpt lat="39.749165" lon="-5.626282">
        <ele>300.2</ele>
        <time>1970-01-01T00:00:00Z</time>
      </trkpt>
      <trkpt lat="39.750836" lon="-5.625658">
        <ele>303.8</ele>
        <time>1970-01-01T00:00:00Z</time>
      </trkpt>
      <trkpt lat="39.751748" lon="-5.625397">
        <ele>299.8</ele>
        <time>1970-01-01T00:00:00Z</time>
      </trkpt>
      <trkpt lat="39.752129" lon="-5.625377">
        <ele>301.2</ele>
        <time>1970-01-01T00:00:00Z</time>
      </trkpt>
      <trkpt lat="39.752977" lon="-5.625588">
        <ele>304.4</ele>
        <time>1970-01-01T00:00:00Z</time>
      </trkpt>
      <trkpt lat="39.753589" lon="-5.625568">
        <ele>303.6</ele>
        <time>1970-01-01T00:00:00Z</time>
      </trkpt>
      <trkpt lat="39.753920" lon="-5.625217">
        <ele>302.5</ele>
        <time>1970-01-01T00:00:00Z</time>
      </trkpt>
      <trkpt lat="39.754010" lon="-5.624655">
        <ele>304.3</ele>
        <time>1970-01-01T00:00:00Z</time>
      </trkpt>
      <trkpt lat="39.753960" lon="-5.623943">
        <ele>307.5</ele>
        <time>1970-01-01T00:00:00Z</time>
      </trkpt>
      <trkpt lat="39.754060" lon="-5.623341">
        <ele>307.5</ele>
        <time>1970-01-01T00:00:00Z</time>
      </trkpt>
      <trkpt lat="39.754181" lon="-5.622579">
        <ele>311.1</ele>
        <time>1970-01-01T00:00:00Z</time>
      </trkpt>
      <trkpt lat="39.754672" lon="-5.622243">
        <ele>314.1</ele>
        <time>1970-01-01T00:00:00Z</time>
      </trkpt>
      <trkpt lat="39.755104" lon="-5.621540">
        <ele>317.1</ele>
        <time>1970-01-01T00:00:00Z</time>
      </trkpt>
      <trkpt lat="39.755575" lon="-5.621310">
        <ele>319.7</ele>
        <time>1970-01-01T00:00:00Z</time>
      </trkpt>
      <trkpt lat="39.756708" lon="-5.619996">
        <ele>333.5</ele>
        <time>1970-01-01T00:00:00Z</time>
      </trkpt>
      <trkpt lat="39.757100" lon="-5.619685">
        <ele>335.7</ele>
        <time>1970-01-01T00:00:00Z</time>
      </trkpt>
      <trkpt lat="39.758138" lon="-5.619946">
        <ele>350.9</ele>
        <time>1970-01-01T00:00:00Z</time>
      </trkpt>
      <trkpt lat="39.758118" lon="-5.621250">
        <ele>354.1</ele>
        <time>1970-01-01T00:00:00Z</time>
      </trkpt>
      <trkpt lat="39.758419" lon="-5.621761">
        <ele>357.8</ele>
        <time>1970-01-01T00:00:00Z</time>
      </trkpt>
      <trkpt lat="39.758780" lon="-5.621861">
        <ele>359.9</ele>
        <time>1970-01-01T00:00:00Z</time>
      </trkpt>
    </trkseg>
    <trkseg>
      <trkpt lat="39.758787" lon="-5.621841">
        <ele>360.0</ele>
        <time>1970-01-01T00:00:00Z</time>
      </trkpt>
      <trkpt lat="39.759015" lon="-5.621714">
        <ele>360.5</ele>
        <time>1970-01-01T00:00:00Z</time>
      </trkpt>
      <trkpt lat="39.759080" lon="-5.621645">
        <ele>360.8</ele>
        <time>1970-01-01T00:00:00Z</time>
      </trkpt>
      <trkpt lat="39.759170" lon="-5.621371">
        <ele>361.2</ele>
        <time>1970-01-01T00:00:00Z</time>
      </trkpt>
      <trkpt lat="39.759191" lon="-5.621207">
        <ele>361.1</ele>
        <time>1970-01-01T00:00:00Z</time>
      </trkpt>
      <trkpt lat="39.759185" lon="-5.621036">
        <ele>361.0</ele>
        <time>1970-01-01T00:00:00Z</time>
      </trkpt>
      <trkpt lat="39.759223" lon="-5.620766">
        <ele>361.0</ele>
        <time>1970-01-01T00:00:00Z</time>
      </trkpt>
      <trkpt lat="39.759081" lon="-5.620659">
        <ele>361.0</ele>
        <time>1970-01-01T00:00:00Z</time>
      </trkpt>
      <trkpt lat="39.759057" lon="-5.619788">
        <ele>362.5</ele>
        <time>1970-01-01T00:00:00Z</time>
      </trkpt>
      <trkpt lat="39.758985" lon="-5.619516">
        <ele>363.0</ele>
        <time>1970-01-01T00:00:00Z</time>
      </trkpt>
      <trkpt lat="39.759077" lon="-5.619317">
        <ele>364.5</ele>
        <time>1970-01-01T00:00:00Z</time>
      </trkpt>
      <trkpt lat="39.759202" lon="-5.619270">
        <ele>365.4</ele>
        <time>1970-01-01T00:00:00Z</time>
      </trkpt>
      <trkpt lat="39.759270" lon="-5.619317">
        <ele>365.3</ele>
        <time>1970-01-01T00:00:00Z</time>
      </trkpt>
      <trkpt lat="39.759411" lon="-5.619454">
        <ele>364.5</ele>
        <time>1970-01-01T00:00:00Z</time>
      </trkpt>
      <trkpt lat="39.759460" lon="-5.619399">
        <ele>365.0</ele>
        <time>1970-01-01T00:00:00Z</time>
      </trkpt>
      <trkpt lat="39.759534" lon="-5.619258">
        <ele>366.2</ele>
        <time>1970-01-01T00:00:00Z</time>
      </trkpt>
      <trkpt lat="39.759825" lon="-5.619200">
        <ele>367.0</ele>
        <time>1970-01-01T00:00:00Z</time>
      </trkpt>
      <trkpt lat="39.759995" lon="-5.619105">
        <ele>369.2</ele>
        <time>1970-01-01T00:00:00Z</time>
      </trkpt>
      <trkpt lat="39.760235" lon="-5.618714">
        <ele>376.5</ele>
        <time>1970-01-01T00:00:00Z</time>
      </trkpt>
      <trkpt lat="39.760413" lon="-5.618852">
        <ele>377.6</ele>
        <time>1970-01-01T00:00:00Z</time>
      </trkpt>
      <trkpt lat="39.760687" lon="-5.619025">
        <ele>379.2</ele>
        <time>1970-01-01T00:00:00Z</time>
      </trkpt>
      <trkpt lat="39.761068" lon="-5.619235">
        <ele>381.0</ele>
        <time>1970-01-01T00:00:00Z</time>
      </trkpt>
      <trkpt lat="39.762064" lon="-5.619851">
        <ele>375.3</ele>
        <time>1970-01-01T00:00:00Z</time>
      </trkpt>
      <trkpt lat="39.762434" lon="-5.620052">
        <ele>372.6</ele>
        <time>1970-01-01T00:00:00Z</time>
      </trkpt>
      <trkpt lat="39.762945" lon="-5.620277">
        <ele>372.7</ele>
        <time>1970-01-01T00:00:00Z</time>
      </trkpt>
      <trkpt lat="39.762978" lon="-5.620172">
        <ele>374.8</ele>
        <time>1970-01-01T00:00:00Z</time>
      </trkpt>
      <trkpt lat="39.763005" lon="-5.619978">
        <ele>378.0</ele>
        <time>1970-01-01T00:00:00Z</time>
      </trkpt>
      <trkpt lat="39.763076" lon="-5.619731">
        <ele>382.2</ele>
        <time>1970-01-01T00:00:00Z</time>
      </trkpt>
      <trkpt lat="39.763150" lon="-5.619578">
        <ele>384.2</ele>
        <time>1970-01-01T00:00:00Z</time>
      </trkpt>
      <trkpt lat="39.763324" lon="-5.619130">
        <ele>388.1</ele>
        <time>1970-01-01T00:00:00Z</time>
      </trkpt>
      <trkpt lat="39.763376" lon="-5.619026">
        <ele>388.8</ele>
        <time>1970-01-01T00:00:00Z</time>
      </trkpt>
      <trkpt lat="39.763828" lon="-5.618746">
        <ele>386.5</ele>
        <time>1970-01-01T00:00:00Z</time>
      </trkpt>
      <trkpt lat="39.764213" lon="-5.618578">
        <ele>383.2</ele>
        <time>1970-01-01T00:00:00Z</time>
      </trkpt>
      <trkpt lat="39.764264" lon="-5.618536">
        <ele>382.9</ele>
        <time>1970-01-01T00:00:00Z</time>
      </trkpt>
      <trkpt lat="39.764438" lon="-5.618332">
        <ele>382.4</ele>
        <time>1970-01-01T00:00:00Z</time>
      </trkpt>
      <trkpt lat="39.764685" lon="-5.618109">
        <ele>383.1</ele>
        <time>1970-01-01T00:00:00Z</time>
      </trkpt>
      <trkpt lat="39.765195" lon="-5.617600">
        <ele>378.7</ele>
        <time>1970-01-01T00:00:00Z</time>
      </trkpt>
      <trkpt lat="39.765391" lon="-5.617432">
        <ele>376.8</ele>
        <time>1970-01-01T00:00:00Z</time>
      </trkpt>
      <trkpt lat="39.766079" lon="-5.616779">
        <ele>375.6</ele>
        <time>1970-01-01T00:00:00Z</time>
      </trkpt>
      <trkpt lat="39.766234" lon="-5.616673">
        <ele>376.2</ele>
        <time>1970-01-01T00:00:00Z</time>
      </trkpt>
      <trkpt lat="39.766515" lon="-5.616522">
        <ele>377.0</ele>
        <time>1970-01-01T00:00:00Z</time>
      </trkpt>
      <trkpt lat="39.766710" lon="-5.616357">
        <ele>377.3</ele>
        <time>1970-01-01T00:00:00Z</time>
      </trkpt>
      <trkpt lat="39.766778" lon="-5.616088">
        <ele>375.3</ele>
        <time>1970-01-01T00:00:00Z</time>
      </trkpt>
      <trkpt lat="39.766801" lon="-5.615786">
        <ele>372.2</ele>
        <time>1970-01-01T00:00:00Z</time>
      </trkpt>
      <trkpt lat="39.766714" lon="-5.615498">
        <ele>367.5</ele>
        <time>1970-01-01T00:00:00Z</time>
      </trkpt>
      <trkpt lat="39.766582" lon="-5.615212">
        <ele>361.8</ele>
        <time>1970-01-01T00:00:00Z</time>
      </trkpt>
      <trkpt lat="39.766307" lon="-5.614767">
        <ele>356.5</ele>
        <time>1970-01-01T00:00:00Z</time>
      </trkpt>
      <trkpt lat="39.766334" lon="-5.614726">
        <ele>355.5</ele>
        <time>1970-01-01T00:00:00Z</time>
      </trkpt>
      <trkpt lat="39.766792" lon="-5.614996">
        <ele>355.2</ele>
        <time>1970-01-01T00:00:00Z</time>
      </trkpt>
      <trkpt lat="39.767049" lon="-5.615006">
        <ele>352.7</ele>
        <time>1970-01-01T00:00:00Z</time>
      </trkpt>
      <trkpt lat="39.767472" lon="-5.615069">
        <ele>344.2</ele>
        <time>1970-01-01T00:00:00Z</time>
      </trkpt>
      <trkpt lat="39.767747" lon="-5.615232">
        <ele>341.3</ele>
        <time>1970-01-01T00:00:00Z</time>
      </trkpt>
      <trkpt lat="39.768117" lon="-5.615426">
        <ele>334.3</ele>
        <time>1970-01-01T00:00:00Z</time>
      </trkpt>
      <trkpt lat="39.768442" lon="-5.615493">
        <ele>325.6</ele>
        <time>1970-01-01T00:00:00Z</time>
      </trkpt>
      <trkpt lat="39.768624" lon="-5.615511">
        <ele>321.4</ele>
        <time>1970-01-01T00:00:00Z</time>
      </trkpt>
      <trkpt lat="39.768854" lon="-5.615570">
        <ele>317.0</ele>
        <time>1970-01-01T00:00:00Z</time>
      </trkpt>
      <trkpt lat="39.769013" lon="-5.615699">
        <ele>314.5</ele>
        <time>1970-01-01T00:00:00Z</time>
      </trkpt>
      <trkpt lat="39.769483" lon="-5.616018">
        <ele>304.9</ele>
        <time>1970-01-01T00:00:00Z</time>
      </trkpt>
      <trkpt lat="39.769548" lon="-5.616042">
        <ele>303.0</ele>
        <time>1970-01-01T00:00:00Z</time>
      </trkpt>
      <trkpt lat="39.769238" lon="-5.615712">
        <ele>309.9</ele>
        <time>1970-01-01T00:00:00Z</time>
      </trkpt>
      <trkpt lat="39.768900" lon="-5.615441">
        <ele>316.9</ele>
        <time>1970-01-01T00:00:00Z</time>
      </trkpt>
      <trkpt lat="39.768741" lon="-5.615289">
        <ele>319.2</ele>
        <time>1970-01-01T00:00:00Z</time>
      </trkpt>
      <trkpt lat="39.768708" lon="-5.615145">
        <ele>320.1</ele>
        <time>1970-01-01T00:00:00Z</time>
      </trkpt>
      <trkpt lat="39.768708" lon="-5.614927">
        <ele>321.4</ele>
        <time>1970-01-01T00:00:00Z</time>
      </trkpt>
      <trkpt lat="39.768747" lon="-5.614810">
        <ele>322.6</ele>
        <time>1970-01-01T00:00:00Z</time>
      </trkpt>
      <trkpt lat="39.768810" lon="-5.614677">
        <ele>324.6</ele>
        <time>1970-01-01T00:00:00Z</time>
      </trkpt>
      <trkpt lat="39.768901" lon="-5.614598">
        <ele>325.8</ele>
        <time>1970-01-01T00:00:00Z</time>
      </trkpt>
      <trkpt lat="39.769211" lon="-5.614559">
        <ele>325.9</ele>
        <time>1970-01-01T00:00:00Z</time>
      </trkpt>
      <trkpt lat="39.769447" lon="-5.614565">
        <ele>326.2</ele>
        <time>1970-01-01T00:00:00Z</time>
      </trkpt>
      <trkpt lat="39.770286" lon="-5.614834">
        <ele>329.9</ele>
        <time>1970-01-01T00:00:00Z</time>
      </trkpt>
      <trkpt lat="39.770439" lon="-5.614901">
        <ele>330.0</ele>
        <time>1970-01-01T00:00:00Z</time>
      </trkpt>
      <trkpt lat="39.770850" lon="-5.615124">
        <ele>332.5</ele>
        <time>1970-01-01T00:00:00Z</time>
      </trkpt>
      <trkpt lat="39.771357" lon="-5.615201">
        <ele>341.9</ele>
        <time>1970-01-01T00:00:00Z</time>
      </trkpt>
      <trkpt lat="39.771494" lon="-5.615288">
        <ele>341.6</ele>
        <time>1970-01-01T00:00:00Z</time>
      </trkpt>
      <trkpt lat="39.771806" lon="-5.615439">
        <ele>341.1</ele>
        <time>1970-01-01T00:00:00Z</time>
      </trkpt>
      <trkpt lat="39.771965" lon="-5.615452">
        <ele>341.5</ele>
        <time>1970-01-01T00:00:00Z</time>
      </trkpt>
      <trkpt lat="39.772372" lon="-5.615338">
        <ele>345.6</ele>
        <time>1970-01-01T00:00:00Z</time>
      </trkpt>
      <trkpt lat="39.772556" lon="-5.615314">
        <ele>347.9</ele>
        <time>1970-01-01T00:00:00Z</time>
      </trkpt>
      <trkpt lat="39.772689" lon="-5.615316">
        <ele>349.7</ele>
        <time>1970-01-01T00:00:00Z</time>
      </trkpt>
      <trkpt lat="39.772822" lon="-5.615358">
        <ele>350.4</ele>
        <time>1970-01-01T00:00:00Z</time>
      </trkpt>
      <trkpt lat="39.772923" lon="-5.615410">
        <ele>350.8</ele>
        <time>1970-01-01T00:00:00Z</time>
      </trkpt>
      <trkpt lat="39.773595" lon="-5.615965">
        <ele>347.2</ele>
        <time>1970-01-01T00:00:00Z</time>
      </trkpt>
      <trkpt lat="39.774351" lon="-5.616521">
        <ele>343.4</ele>
        <time>1970-01-01T00:00:00Z</time>
      </trkpt>
      <trkpt lat="39.774511" lon="-5.616513">
        <ele>343.4</ele>
        <time>1970-01-01T00:00:00Z</time>
      </trkpt>
      <trkpt lat="39.774593" lon="-5.616472">
        <ele>343.5</ele>
        <time>1970-01-01T00:00:00Z</time>
      </trkpt>
      <trkpt lat="39.774730" lon="-5.616321">
        <ele>343.5</ele>
        <time>1970-01-01T00:00:00Z</time>
      </trkpt>
      <trkpt lat="39.774862" lon="-5.615803">
        <ele>343.2</ele>
        <time>1970-01-01T00:00:00Z</time>
      </trkpt>
      <trkpt lat="39.775038" lon="-5.614393">
        <ele>346.7</ele>
        <time>1970-01-01T00:00:00Z</time>
      </trkpt>
      <trkpt lat="39.775088" lon="-5.613817">
        <ele>359.2</ele>
        <time>1970-01-01T00:00:00Z</time>
      </trkpt>
      <trkpt lat="39.775193" lon="-5.613121">
        <ele>371.1</ele>
        <time>1970-01-01T00:00:00Z</time>
      </trkpt>
      <trkpt lat="39.775277" lon="-5.612886">
        <ele>372.9</ele>
        <time>1970-01-01T00:00:00Z</time>
      </trkpt>
      <trkpt lat="39.775512" lon="-5.612314">
        <ele>374.9</ele>
        <time>1970-01-01T00:00:00Z</time>
      </trkpt>
      <trkpt lat="39.775905" lon="-5.611778">
        <ele>365.7</ele>
        <time>1970-01-01T00:00:00Z</time>
      </trkpt>
      <trkpt lat="39.775972" lon="-5.611591">
        <ele>364.0</ele>
        <time>1970-01-01T00:00:00Z</time>
      </trkpt>
      <trkpt lat="39.776030" lon="-5.611334">
        <ele>361.2</ele>
        <time>1970-01-01T00:00:00Z</time>
      </trkpt>
      <trkpt lat="39.776032" lon="-5.611117">
        <ele>359.5</ele>
        <time>1970-01-01T00:00:00Z</time>
      </trkpt>
      <trkpt lat="39.775865" lon="-5.610401">
        <ele>362.3</ele>
        <time>1970-01-01T00:00:00Z</time>
      </trkpt>
      <trkpt lat="39.775796" lon="-5.609729">
        <ele>364.0</ele>
        <time>1970-01-01T00:00:00Z</time>
      </trkpt>
      <trkpt lat="39.775634" lon="-5.609026">
        <ele>374.1</ele>
        <time>1970-01-01T00:00:00Z</time>
      </trkpt>
      <trkpt lat="39.775618" lon="-5.608801">
        <ele>376.1</ele>
        <time>1970-01-01T00:00:00Z</time>
      </trkpt>
      <trkpt lat="39.775645" lon="-5.608541">
        <ele>376.2</ele>
        <time>1970-01-01T00:00:00Z</time>
      </trkpt>
      <trkpt lat="39.775768" lon="-5.608195">
        <ele>370.6</ele>
        <time>1970-01-01T00:00:00Z</time>
      </trkpt>
      <trkpt lat="39.775780" lon="-5.608019">
        <ele>371.3</ele>
        <time>1970-01-01T00:00:00Z</time>
      </trkpt>
      <trkpt lat="39.775709" lon="-5.607422">
        <ele>379.4</ele>
        <time>1970-01-01T00:00:00Z</time>
      </trkpt>
      <trkpt lat="39.775705" lon="-5.607146">
        <ele>382.0</ele>
        <time>1970-01-01T00:00:00Z</time>
      </trkpt>
      <trkpt lat="39.775761" lon="-5.606856">
        <ele>380.6</ele>
        <time>1970-01-01T00:00:00Z</time>
      </trkpt>
      <trkpt lat="39.775894" lon="-5.606307">
        <ele>375.4</ele>
        <time>1970-01-01T00:00:00Z</time>
      </trkpt>
      <trkpt lat="39.775900" lon="-5.606043">
        <ele>375.6</ele>
        <time>1970-01-01T00:00:00Z</time>
      </trkpt>
      <trkpt lat="39.775847" lon="-5.605585">
        <ele>376.8</ele>
        <time>1970-01-01T00:00:00Z</time>
      </trkpt>
      <trkpt lat="39.775698" lon="-5.604870">
        <ele>377.8</ele>
        <time>1970-01-01T00:00:00Z</time>
      </trkpt>
      <trkpt lat="39.775570" lon="-5.604403">
        <ele>374.5</ele>
        <time>1970-01-01T00:00:00Z</time>
      </trkpt>
      <trkpt lat="39.775477" lon="-5.604117">
        <ele>370.9</ele>
        <time>1970-01-01T00:00:00Z</time>
      </trkpt>
      <trkpt lat="39.775338" lon="-5.603874">
        <ele>369.1</ele>
        <time>1970-01-01T00:00:00Z</time>
      </trkpt>
      <trkpt lat="39.775114" lon="-5.603550">
        <ele>368.8</ele>
        <time>1970-01-01T00:00:00Z</time>
      </trkpt>
      <trkpt lat="39.774911" lon="-5.603358">
        <ele>369.0</ele>
        <time>1970-01-01T00:00:00Z</time>
      </trkpt>
      <trkpt lat="39.774708" lon="-5.603211">
        <ele>372.1</ele>
        <time>1970-01-01T00:00:00Z</time>
      </trkpt>
      <trkpt lat="39.774347" lon="-5.603035">
        <ele>380.9</ele>
        <time>1970-01-01T00:00:00Z</time>
      </trkpt>
      <trkpt lat="39.774242" lon="-5.602953">
        <ele>384.2</ele>
        <time>1970-01-01T00:00:00Z</time>
      </trkpt>
      <trkpt lat="39.774187" lon="-5.602828">
        <ele>385.6</ele>
        <time>1970-01-01T00:00:00Z</time>
      </trkpt>
      <trkpt lat="39.774189" lon="-5.602716">
        <ele>385.5</ele>
        <time>1970-01-01T00:00:00Z</time>
      </trkpt>
      <trkpt lat="39.774289" lon="-5.602608">
        <ele>382.1</ele>
        <time>1970-01-01T00:00:00Z</time>
      </trkpt>
      <trkpt lat="39.774433" lon="-5.602501">
        <ele>377.6</ele>
        <time>1970-01-01T00:00:00Z</time>
      </trkpt>
      <trkpt lat="39.774722" lon="-5.602227">
        <ele>368.1</ele>
        <time>1970-01-01T00:00:00Z</time>
      </trkpt>
      <trkpt lat="39.774848" lon="-5.601966">
        <ele>365.4</ele>
        <time>1970-01-01T00:00:00Z</time>
      </trkpt>
      <trkpt lat="39.774984" lon="-5.601547">
        <ele>364.1</ele>
        <time>1970-01-01T00:00:00Z</time>
      </trkpt>
      <trkpt lat="39.775232" lon="-5.600635">
        <ele>362.0</ele>
        <time>1970-01-01T00:00:00Z</time>
      </trkpt>
      <trkpt lat="39.775240" lon="-5.600328">
        <ele>363.5</ele>
        <time>1970-01-01T00:00:00Z</time>
      </trkpt>
      <trkpt lat="39.775139" lon="-5.599896">
        <ele>365.3</ele>
        <time>1970-01-01T00:00:00Z</time>
      </trkpt>
      <trkpt lat="39.774942" lon="-5.599263">
        <ele>366.0</ele>
        <time>1970-01-01T00:00:00Z</time>
      </trkpt>
      <trkpt lat="39.774790" lon="-5.598852">
        <ele>365.2</ele>
        <time>1970-01-01T00:00:00Z</time>
      </trkpt>
      <trkpt lat="39.774517" lon="-5.598216">
        <ele>363.6</ele>
        <time>1970-01-01T00:00:00Z</time>
      </trkpt>
      <trkpt lat="39.774343" lon="-5.597683">
        <ele>363.0</ele>
        <time>1970-01-01T00:00:00Z</time>
      </trkpt>
      <trkpt lat="39.774138" lon="-5.597017">
        <ele>363.3</ele>
        <time>1970-01-01T00:00:00Z</time>
      </trkpt>
      <trkpt lat="39.774000" lon="-5.596332">
        <ele>365.1</ele>
        <time>1970-01-01T00:00:00Z</time>
      </trkpt>
      <trkpt lat="39.773802" lon="-5.595743">
        <ele>364.5</ele>
        <time>1970-01-01T00:00:00Z</time>
      </trkpt>
      <trkpt lat="39.773248" lon="-5.594406">
        <ele>356.1</ele>
        <time>1970-01-01T00:00:00Z</time>
      </trkpt>
      <trkpt lat="39.772297" lon="-5.591891">
        <ele>373.8</ele>
        <time>1970-01-01T00:00:00Z</time>
      </trkpt>
      <trkpt lat="39.771747" lon="-5.590719">
        <ele>370.9</ele>
        <time>1970-01-01T00:00:00Z</time>
      </trkpt>
      <trkpt lat="39.771204" lon="-5.589646">
        <ele>378.4</ele>
        <time>1970-01-01T00:00:00Z</time>
      </trkpt>
      <trkpt lat="39.770542" lon="-5.588239">
        <ele>390.8</ele>
        <time>1970-01-01T00:00:00Z</time>
      </trkpt>
      <trkpt lat="39.770126" lon="-5.587521">
        <ele>396.0</ele>
        <time>1970-01-01T00:00:00Z</time>
      </trkpt>
      <trkpt lat="39.769337" lon="-5.586471">
        <ele>392.5</ele>
        <time>1970-01-01T00:00:00Z</time>
      </trkpt>
      <trkpt lat="39.768783" lon="-5.585708">
        <ele>390.6</ele>
        <time>1970-01-01T00:00:00Z</time>
      </trkpt>
      <trkpt lat="39.768370" lon="-5.585174">
        <ele>394.7</ele>
        <time>1970-01-01T00:00:00Z</time>
      </trkpt>
      <trkpt lat="39.767799" lon="-5.584386">
        <ele>407.3</ele>
        <time>1970-01-01T00:00:00Z</time>
      </trkpt>
      <trkpt lat="39.767101" lon="-5.583479">
        <ele>417.3</ele>
        <time>1970-01-01T00:00:00Z</time>
      </trkpt>
      <trkpt lat="39.766699" lon="-5.583037">
        <ele>416.4</ele>
        <time>1970-01-01T00:00:00Z</time>
      </trkpt>
      <trkpt lat="39.766394" lon="-5.582788">
        <ele>415.7</ele>
        <time>1970-01-01T00:00:00Z</time>
      </trkpt>
      <trkpt lat="39.763657" lon="-5.580356">
        <ele>436.7</ele>
        <time>1970-01-01T00:00:00Z</time>
      </trkpt>
      <trkpt lat="39.762974" lon="-5.579707">
        <ele>438.5</ele>
        <time>1970-01-01T00:00:00Z</time>
      </trkpt>
      <trkpt lat="39.760567" lon="-5.577316">
        <ele>442.9</ele>
        <time>1970-01-01T00:00:00Z</time>
      </trkpt>
      <trkpt lat="39.760324" lon="-5.577063">
        <ele>444.8</ele>
        <time>1970-01-01T00:00:00Z</time>
      </trkpt>
      <trkpt lat="39.759975" lon="-5.576640">
        <ele>448.6</ele>
        <time>1970-01-01T00:00:00Z</time>
      </trkpt>
      <trkpt lat="39.759634" lon="-5.576192">
        <ele>449.5</ele>
        <time>1970-01-01T00:00:00Z</time>
      </trkpt>
      <trkpt lat="39.759396" lon="-5.575848">
        <ele>447.6</ele>
        <time>1970-01-01T00:00:00Z</time>
      </trkpt>
      <trkpt lat="39.757993" lon="-5.573951">
        <ele>442.2</ele>
        <time>1970-01-01T00:00:00Z</time>
      </trkpt>
      <trkpt lat="39.756285" lon="-5.571711">
        <ele>445.3</ele>
        <time>1970-01-01T00:00:00Z</time>
      </trkpt>
      <trkpt lat="39.755315" lon="-5.570345">
        <ele>458.2</ele>
        <time>1970-01-01T00:00:00Z</time>
      </trkpt>
      <trkpt lat="39.754265" lon="-5.568739">
        <ele>456.0</ele>
        <time>1970-01-01T00:00:00Z</time>
      </trkpt>
      <trkpt lat="39.753623" lon="-5.567784">
        <ele>456.4</ele>
        <time>1970-01-01T00:00:00Z</time>
      </trkpt>
      <trkpt lat="39.753143" lon="-5.566872">
        <ele>456.0</ele>
        <time>1970-01-01T00:00:00Z</time>
      </trkpt>
      <trkpt lat="39.752970" lon="-5.566491">
        <ele>453.1</ele>
        <time>1970-01-01T00:00:00Z</time>
      </trkpt>
      <trkpt lat="39.752842" lon="-5.566176">
        <ele>451.0</ele>
        <time>1970-01-01T00:00:00Z</time>
      </trkpt>
      <trkpt lat="39.752596" lon="-5.565694">
        <ele>449.4</ele>
        <time>1970-01-01T00:00:00Z</time>
      </trkpt>
      <trkpt lat="39.752062" lon="-5.564815">
        <ele>449.4</ele>
        <time>1970-01-01T00:00:00Z</time>
      </trkpt>
      <trkpt lat="39.751205" lon="-5.563526">
        <ele>449.0</ele>
        <time>1970-01-01T00:00:00Z</time>
      </trkpt>
      <trkpt lat="39.751155" lon="-5.563394">
        <ele>449.2</ele>
        <time>1970-01-01T00:00:00Z</time>
      </trkpt>
      <trkpt lat="39.751112" lon="-5.563232">
        <ele>449.8</ele>
        <time>1970-01-01T00:00:00Z</time>
      </trkpt>
      <trkpt lat="39.751085" lon="-5.563059">
        <ele>450.6</ele>
        <time>1970-01-01T00:00:00Z</time>
      </trkpt>
      <trkpt lat="39.750874" lon="-5.561138">
        <ele>460.5</ele>
        <time>1970-01-01T00:00:00Z</time>
      </trkpt>
      <trkpt lat="39.750648" lon="-5.559440">
        <ele>470.4</ele>
        <time>1970-01-01T00:00:00Z</time>
      </trkpt>
      <trkpt lat="39.750603" lon="-5.559059">
        <ele>472.3</ele>
        <time>1970-01-01T00:00:00Z</time>
      </trkpt>
      <trkpt lat="39.750583" lon="-5.558624">
        <ele>474.1</ele>
        <time>1970-01-01T00:00:00Z</time>
      </trkpt>
      <trkpt lat="39.750593" lon="-5.558256">
        <ele>476.3</ele>
        <time>1970-01-01T00:00:00Z</time>
      </trkpt>
      <trkpt lat="39.750660" lon="-5.557610">
        <ele>480.4</ele>
        <time>1970-01-01T00:00:00Z</time>
      </trkpt>
      <trkpt lat="39.750722" lon="-5.557255">
        <ele>482.6</ele>
        <time>1970-01-01T00:00:00Z</time>
      </trkpt>
      <trkpt lat="39.751019" lon="-5.556208">
        <ele>490.0</ele>
        <time>1970-01-01T00:00:00Z</time>
      </trkpt>
      <trkpt lat="39.751026" lon="-5.555954">
        <ele>492.2</ele>
        <time>1970-01-01T00:00:00Z</time>
      </trkpt>
      <trkpt lat="39.751000" lon="-5.555498">
        <ele>493.9</ele>
        <time>1970-01-01T00:00:00Z</time>
      </trkpt>
      <trkpt lat="39.750921" lon="-5.554703">
        <ele>492.1</ele>
        <time>1970-01-01T00:00:00Z</time>
      </trkpt>
      <trkpt lat="39.750897" lon="-5.553789">
        <ele>492.8</ele>
        <time>1970-01-01T00:00:00Z</time>
      </trkpt>
      <trkpt lat="39.750992" lon="-5.552828">
        <ele>493.9</ele>
        <time>1970-01-01T00:00:00Z</time>
      </trkpt>
      <trkpt lat="39.751023" lon="-5.552616">
        <ele>494.0</ele>
        <time>1970-01-01T00:00:00Z</time>
      </trkpt>
      <trkpt lat="39.751151" lon="-5.552244">
        <ele>494.7</ele>
        <time>1970-01-01T00:00:00Z</time>
      </trkpt>
      <trkpt lat="39.751388" lon="-5.551932">
        <ele>494.0</ele>
        <time>1970-01-01T00:00:00Z</time>
      </trkpt>
      <trkpt lat="39.751513" lon="-5.551798">
        <ele>494.0</ele>
        <time>1970-01-01T00:00:00Z</time>
      </trkpt>
      <trkpt lat="39.751666" lon="-5.551671">
        <ele>493.2</ele>
        <time>1970-01-01T00:00:00Z</time>
      </trkpt>
      <trkpt lat="39.751876" lon="-5.551443">
        <ele>492.3</ele>
        <time>1970-01-01T00:00:00Z</time>
      </trkpt>
      <trkpt lat="39.752041" lon="-5.551214">
        <ele>491.6</ele>
        <time>1970-01-01T00:00:00Z</time>
      </trkpt>
      <trkpt lat="39.752136" lon="-5.550996">
        <ele>491.2</ele>
        <time>1970-01-01T00:00:00Z</time>
      </trkpt>
      <trkpt lat="39.752198" lon="-5.550710">
        <ele>489.9</ele>
        <time>1970-01-01T00:00:00Z</time>
      </trkpt>
      <trkpt lat="39.752301" lon="-5.550578">
        <ele>489.0</ele>
        <time>1970-01-01T00:00:00Z</time>
      </trkpt>
      <trkpt lat="39.752362" lon="-5.550530">
        <ele>488.5</ele>
        <time>1970-01-01T00:00:00Z</time>
      </trkpt>
      <trkpt lat="39.752699" lon="-5.549989">
        <ele>484.4</ele>
        <time>1970-01-01T00:00:00Z</time>
      </trkpt>
      <trkpt lat="39.752785" lon="-5.549879">
        <ele>483.6</ele>
        <time>1970-01-01T00:00:00Z</time>
      </trkpt>
      <trkpt lat="39.752865" lon="-5.549804">
        <ele>482.9</ele>
        <time>1970-01-01T00:00:00Z</time>
      </trkpt>
      <trkpt lat="39.752972" lon="-5.549754">
        <ele>481.8</ele>
        <time>1970-01-01T00:00:00Z</time>
      </trkpt>
      <trkpt lat="39.753242" lon="-5.549691">
        <ele>479.2</ele>
        <time>1970-01-01T00:00:00Z</time>
      </trkpt>
      <trkpt lat="39.753298" lon="-5.549665">
        <ele>478.6</ele>
        <time>1970-01-01T00:00:00Z</time>
      </trkpt>
      <trkpt lat="39.753663" lon="-5.549393">
        <ele>474.9</ele>
        <time>1970-01-01T00:00:00Z</time>
      </trkpt>
      <trkpt lat="39.753873" lon="-5.549096">
        <ele>472.2</ele>
        <time>1970-01-01T00:00:00Z</time>
      </trkpt>
      <trkpt lat="39.754112" lon="-5.548795">
        <ele>470.0</ele>
        <time>1970-01-01T00:00:00Z</time>
      </trkpt>
      <trkpt lat="39.754191" lon="-5.548621">
        <ele>469.6</ele>
        <time>1970-01-01T00:00:00Z</time>
      </trkpt>
      <trkpt lat="39.754365" lon="-5.548392">
        <ele>469.1</ele>
        <time>1970-01-01T00:00:00Z</time>
      </trkpt>
      <trkpt lat="39.754474" lon="-5.548210">
        <ele>469.9</ele>
        <time>1970-01-01T00:00:00Z</time>
      </trkpt>
      <trkpt lat="39.754727" lon="-5.547715">
        <ele>471.1</ele>
        <time>1970-01-01T00:00:00Z</time>
      </trkpt>
    </trkseg>
    <trkseg>
      <trkpt lat="39.754727" lon="-5.547715">
        <ele>471.1</ele>
        <time>1970-01-01T00:00:00Z</time>
      </trkpt>
      <trkpt lat="39.754784" lon="-5.547665">
        <ele>471.8</ele>
        <time>1970-01-01T00:00:00Z</time>
      </trkpt>
      <trkpt lat="39.754962" lon="-5.547174">
        <ele>474.5</ele>
        <time>1970-01-01T00:00:00Z</time>
      </trkpt>
      <trkpt lat="39.755204" lon="-5.546817">
        <ele>477.1</ele>
        <time>1970-01-01T00:00:00Z</time>
      </trkpt>
      <trkpt lat="39.755385" lon="-5.546769">
        <ele>478.9</ele>
        <time>1970-01-01T00:00:00Z</time>
      </trkpt>
      <trkpt lat="39.755557" lon="-5.546775">
        <ele>480.4</ele>
        <time>1970-01-01T00:00:00Z</time>
      </trkpt>
      <trkpt lat="39.755597" lon="-5.546687">
        <ele>481.1</ele>
        <time>1970-01-01T00:00:00Z</time>
      </trkpt>
      <trkpt lat="39.755757" lon="-5.546728">
        <ele>481.7</ele>
        <time>1970-01-01T00:00:00Z</time>
      </trkpt>
      <trkpt lat="39.755889" lon="-5.546450">
        <ele>482.6</ele>
        <time>1970-01-01T00:00:00Z</time>
      </trkpt>
      <trkpt lat="39.755970" lon="-5.546413">
        <ele>482.5</ele>
        <time>1970-01-01T00:00:00Z</time>
      </trkpt>
      <trkpt lat="39.756092" lon="-5.546151">
        <ele>483.1</ele>
        <time>1970-01-01T00:00:00Z</time>
      </trkpt>
      <trkpt lat="39.756252" lon="-5.546242">
        <ele>482.0</ele>
        <time>1970-01-01T00:00:00Z</time>
      </trkpt>
      <trkpt lat="39.756452" lon="-5.546287">
        <ele>480.9</ele>
        <time>1970-01-01T00:00:00Z</time>
      </trkpt>
      <trkpt lat="39.756506" lon="-5.546418">
        <ele>480.2</ele>
        <time>1970-01-01T00:00:00Z</time>
      </trkpt>
      <trkpt lat="39.756678" lon="-5.546623">
        <ele>478.6</ele>
        <time>1970-01-01T00:00:00Z</time>
      </trkpt>
      <trkpt lat="39.756920" lon="-5.546582">
        <ele>477.1</ele>
        <time>1970-01-01T00:00:00Z</time>
      </trkpt>
      <trkpt lat="39.757209" lon="-5.546618">
        <ele>474.6</ele>
        <time>1970-01-01T00:00:00Z</time>
      </trkpt>
      <trkpt lat="39.757476" lon="-5.546489">
        <ele>474.1</ele>
        <time>1970-01-01T00:00:00Z</time>
      </trkpt>
      <trkpt lat="39.757703" lon="-5.546464">
        <ele>474.5</ele>
        <time>1970-01-01T00:00:00Z</time>
      </trkpt>
      <trkpt lat="39.757860" lon="-5.546344">
        <ele>475.0</ele>
        <time>1970-01-01T00:00:00Z</time>
      </trkpt>
      <trkpt lat="39.758355" lon="-5.545592">
        <ele>478.8</ele>
        <time>1970-01-01T00:00:00Z</time>
      </trkpt>
      <trkpt lat="39.758917" lon="-5.544457">
        <ele>482.0</ele>
        <time>1970-01-01T00:00:00Z</time>
      </trkpt>
      <trkpt lat="39.759150" lon="-5.544139">
        <ele>483.7</ele>
        <time>1970-01-01T00:00:00Z</time>
      </trkpt>
      <trkpt lat="39.759331" lon="-5.544129">
        <ele>484.5</ele>
        <time>1970-01-01T00:00:00Z</time>
      </trkpt>
      <trkpt lat="39.759566" lon="-5.544028">
        <ele>485.2</ele>
        <time>1970-01-01T00:00:00Z</time>
      </trkpt>
      <trkpt lat="39.759692" lon="-5.543882">
        <ele>486.2</ele>
        <time>1970-01-01T00:00:00Z</time>
      </trkpt>
      <trkpt lat="39.760167" lon="-5.543137">
        <ele>490.9</ele>
        <time>1970-01-01T00:00:00Z</time>
      </trkpt>
      <trkpt lat="39.760782" lon="-5.542239">
        <ele>496.1</ele>
        <time>1970-01-01T00:00:00Z</time>
      </trkpt>
      <trkpt lat="39.761151" lon="-5.541616">
        <ele>501.3</ele>
        <time>1970-01-01T00:00:00Z</time>
      </trkpt>
      <trkpt lat="39.761454" lon="-5.541074">
        <ele>503.0</ele>
        <time>1970-01-01T00:00:00Z</time>
      </trkpt>
      <trkpt lat="39.762299" lon="-5.539673">
        <ele>499.1</ele>
        <time>1970-01-01T00:00:00Z</time>
      </trkpt>
      <trkpt lat="39.762875" lon="-5.538781">
        <ele>493.4</ele>
        <time>1970-01-01T00:00:00Z</time>
      </trkpt>
      <trkpt lat="39.763134" lon="-5.538499">
        <ele>492.0</ele>
        <time>1970-01-01T00:00:00Z</time>
      </trkpt>
      <trkpt lat="39.763447" lon="-5.538048">
        <ele>491.6</ele>
        <time>1970-01-01T00:00:00Z</time>
      </trkpt>
      <trkpt lat="39.763957" lon="-5.537121">
        <ele>497.5</ele>
        <time>1970-01-01T00:00:00Z</time>
      </trkpt>
      <trkpt lat="39.764699" lon="-5.536067">
        <ele>498.4</ele>
        <time>1970-01-01T00:00:00Z</time>
      </trkpt>
      <trkpt lat="39.765596" lon="-5.535399">
        <ele>487.8</ele>
        <time>1970-01-01T00:00:00Z</time>
      </trkpt>
      <trkpt lat="39.766082" lon="-5.534887">
        <ele>482.4</ele>
        <time>1970-01-01T00:00:00Z</time>
      </trkpt>
      <trkpt lat="39.766536" lon="-5.534478">
        <ele>477.6</ele>
        <time>1970-01-01T00:00:00Z</time>
      </trkpt>
      <trkpt lat="39.766737" lon="-5.534409">
        <ele>475.0</ele>
        <time>1970-01-01T00:00:00Z</time>
      </trkpt>
      <trkpt lat="39.766883" lon="-5.534385">
        <ele>473.0</ele>
        <time>1970-01-01T00:00:00Z</time>
      </trkpt>
      <trkpt lat="39.767093" lon="-5.534312">
        <ele>469.6</ele>
        <time>1970-01-01T00:00:00Z</time>
      </trkpt>
      <trkpt lat="39.767182" lon="-5.534361">
        <ele>468.9</ele>
        <time>1970-01-01T00:00:00Z</time>
      </trkpt>
      <trkpt lat="39.767315" lon="-5.534506">
        <ele>468.7</ele>
        <time>1970-01-01T00:00:00Z</time>
      </trkpt>
      <trkpt lat="39.767504" lon="-5.534566">
        <ele>467.7</ele>
        <time>1970-01-01T00:00:00Z</time>
      </trkpt>
      <trkpt lat="39.767801" lon="-5.534525">
        <ele>465.2</ele>
        <time>1970-01-01T00:00:00Z</time>
      </trkpt>
      <trkpt lat="39.767884" lon="-5.534478">
        <ele>464.5</ele>
        <time>1970-01-01T00:00:00Z</time>
      </trkpt>
      <trkpt lat="39.767870" lon="-5.533888">
        <ele>460.6</ele>
        <time>1970-01-01T00:00:00Z</time>
      </trkpt>
      <trkpt lat="39.767910" lon="-5.533732">
        <ele>460.1</ele>
        <time>1970-01-01T00:00:00Z</time>
      </trkpt>
      <trkpt lat="39.767975" lon="-5.533653">
        <ele>460.0</ele>
        <time>1970-01-01T00:00:00Z</time>
      </trkpt>
      <trkpt lat="39.768089" lon="-5.533465">
        <ele>460.0</ele>
        <time>1970-01-01T00:00:00Z</time>
      </trkpt>
      <trkpt lat="39.768175" lon="-5.533369">
        <ele>459.8</ele>
        <time>1970-01-01T00:00:00Z</time>
      </trkpt>
      <trkpt lat="39.768532" lon="-5.532770">
        <ele>455.8</ele>
        <time>1970-01-01T00:00:00Z</time>
      </trkpt>
      <trkpt lat="39.768604" lon="-5.532668">
        <ele>454.7</ele>
        <time>1970-01-01T00:00:00Z</time>
      </trkpt>
      <trkpt lat="39.768683" lon="-5.532626">
        <ele>454.1</ele>
        <time>1970-01-01T00:00:00Z</time>
      </trkpt>
      <trkpt lat="39.768732" lon="-5.532501">
        <ele>453.1</ele>
        <time>1970-01-01T00:00:00Z</time>
      </trkpt>
      <trkpt lat="39.768649" lon="-5.532428">
        <ele>452.8</ele>
        <time>1970-01-01T00:00:00Z</time>
      </trkpt>
      <trkpt lat="39.768620" lon="-5.532348">
        <ele>452.4</ele>
        <time>1970-01-01T00:00:00Z</time>
      </trkpt>
      <trkpt lat="39.768582" lon="-5.532172">
        <ele>451.8</ele>
        <time>1970-01-01T00:00:00Z</time>
      </trkpt>
      <trkpt lat="39.768502" lon="-5.531940">
        <ele>451.2</ele>
        <time>1970-01-01T00:00:00Z</time>
      </trkpt>
      <trkpt lat="39.768161" lon="-5.531044">
        <ele>448.8</ele>
        <time>1970-01-01T00:00:00Z</time>
      </trkpt>
      <trkpt lat="39.768029" lon="-5.530734">
        <ele>446.9</ele>
        <time>1970-01-01T00:00:00Z</time>
      </trkpt>
      <trkpt lat="39.767978" lon="-5.530558">
        <ele>445.7</ele>
        <time>1970-01-01T00:00:00Z</time>
      </trkpt>
      <trkpt lat="39.767982" lon="-5.530428">
        <ele>445.1</ele>
        <time>1970-01-01T00:00:00Z</time>
      </trkpt>
      <trkpt lat="39.768016" lon="-5.530372">
        <ele>444.9</ele>
        <time>1970-01-01T00:00:00Z</time>
      </trkpt>
      <trkpt lat="39.768007" lon="-5.530330">
        <ele>444.7</ele>
        <time>1970-01-01T00:00:00Z</time>
      </trkpt>
      <trkpt lat="39.768034" lon="-5.530259">
        <ele>444.4</ele>
        <time>1970-01-01T00:00:00Z</time>
      </trkpt>
      <trkpt lat="39.768083" lon="-5.530211">
        <ele>444.2</ele>
        <time>1970-01-01T00:00:00Z</time>
      </trkpt>
      <trkpt lat="39.768251" lon="-5.530157">
        <ele>443.2</ele>
        <time>1970-01-01T00:00:00Z</time>
      </trkpt>
      <trkpt lat="39.768280" lon="-5.530059">
        <ele>442.7</ele>
        <time>1970-01-01T00:00:00Z</time>
      </trkpt>
      <trkpt lat="39.768286" lon="-5.529996">
        <ele>442.6</ele>
        <time>1970-01-01T00:00:00Z</time>
      </trkpt>
      <trkpt lat="39.768330" lon="-5.529916">
        <ele>442.2</ele>
        <time>1970-01-01T00:00:00Z</time>
      </trkpt>
      <trkpt lat="39.768526" lon="-5.529752">
        <ele>439.4</ele>
        <time>1970-01-01T00:00:00Z</time>
      </trkpt>
      <trkpt lat="39.768559" lon="-5.529664">
        <ele>438.8</ele>
        <time>1970-01-01T00:00:00Z</time>
      </trkpt>
      <trkpt lat="39.768618" lon="-5.529575">
        <ele>438.0</ele>
        <time>1970-01-01T00:00:00Z</time>
      </trkpt>
      <trkpt lat="39.768656" lon="-5.529477">
        <ele>437.4</ele>
        <time>1970-01-01T00:00:00Z</time>
      </trkpt>
      <trkpt lat="39.768675" lon="-5.529465">
        <ele>437.0</ele>
        <time>1970-01-01T00:00:00Z</time>
      </trkpt>
      <trkpt lat="39.768705" lon="-5.529332">
        <ele>435.9</ele>
        <time>1970-01-01T00:00:00Z</time>
      </trkpt>
      <trkpt lat="39.768807" lon="-5.529246">
        <ele>433.8</ele>
        <time>1970-01-01T00:00:00Z</time>
      </trkpt>
      <trkpt lat="39.768815" lon="-5.529121">
        <ele>433.1</ele>
        <time>1970-01-01T00:00:00Z</time>
      </trkpt>
      <trkpt lat="39.768795" lon="-5.528703">
        <ele>431.2</ele>
        <time>1970-01-01T00:00:00Z</time>
      </trkpt>
      <trkpt lat="39.768774" lon="-5.528592">
        <ele>431.4</ele>
        <time>1970-01-01T00:00:00Z</time>
      </trkpt>
      <trkpt lat="39.768628" lon="-5.528347">
        <ele>432.2</ele>
        <time>1970-01-01T00:00:00Z</time>
      </trkpt>
      <trkpt lat="39.768591" lon="-5.528247">
        <ele>432.2</ele>
        <time>1970-01-01T00:00:00Z</time>
      </trkpt>
      <trkpt lat="39.768599" lon="-5.528136">
        <ele>431.6</ele>
        <time>1970-01-01T00:00:00Z</time>
      </trkpt>
      <trkpt lat="39.768623" lon="-5.528026">
        <ele>430.7</ele>
        <time>1970-01-01T00:00:00Z</time>
      </trkpt>
      <trkpt lat="39.768629" lon="-5.527890">
        <ele>430.0</ele>
        <time>1970-01-01T00:00:00Z</time>
      </trkpt>
      <trkpt lat="39.768586" lon="-5.527791">
        <ele>430.3</ele>
        <time>1970-01-01T00:00:00Z</time>
      </trkpt>
      <trkpt lat="39.768541" lon="-5.527798">
        <ele>431.2</ele>
        <time>1970-01-01T00:00:00Z</time>
      </trkpt>
      <trkpt lat="39.768487" lon="-5.527781">
        <ele>432.0</ele>
        <time>1970-01-01T00:00:00Z</time>
      </trkpt>
      <trkpt lat="39.768455" lon="-5.527752">
        <ele>432.4</ele>
        <time>1970-01-01T00:00:00Z</time>
      </trkpt>
      <trkpt lat="39.768456" lon="-5.527664">
        <ele>432.0</ele>
        <time>1970-01-01T00:00:00Z</time>
      </trkpt>
      <trkpt lat="39.768641" lon="-5.527736">
        <ele>429.0</ele>
        <time>1970-01-01T00:00:00Z</time>
      </trkpt>
      <trkpt lat="39.768553" lon="-5.527466">
        <ele>429.0</ele>
        <time>1970-01-01T00:00:00Z</time>
      </trkpt>
      <trkpt lat="39.768563" lon="-5.527406">
        <ele>428.4</ele>
        <time>1970-01-01T00:00:00Z</time>
      </trkpt>
      <trkpt lat="39.768637" lon="-5.527247">
        <ele>426.0</ele>
        <time>1970-01-01T00:00:00Z</time>
      </trkpt>
      <trkpt lat="39.768630" lon="-5.527149">
        <ele>425.8</ele>
        <time>1970-01-01T00:00:00Z</time>
      </trkpt>
      <trkpt lat="39.768668" lon="-5.527071">
        <ele>424.9</ele>
        <time>1970-01-01T00:00:00Z</time>
      </trkpt>
      <trkpt lat="39.768664" lon="-5.527007">
        <ele>424.9</ele>
        <time>1970-01-01T00:00:00Z</time>
      </trkpt>
      <trkpt lat="39.768629" lon="-5.526960">
        <ele>425.8</ele>
        <time>1970-01-01T00:00:00Z</time>
      </trkpt>
      <trkpt lat="39.768614" lon="-5.526893">
        <ele>426.0</ele>
        <time>1970-01-01T00:00:00Z</time>
      </trkpt>
      <trkpt lat="39.768623" lon="-5.526558">
        <ele>424.4</ele>
        <time>1970-01-01T00:00:00Z</time>
      </trkpt>
      <trkpt lat="39.768606" lon="-5.526499">
        <ele>424.4</ele>
        <time>1970-01-01T00:00:00Z</time>
      </trkpt>
      <trkpt lat="39.768563" lon="-5.526468">
        <ele>425.0</ele>
        <time>1970-01-01T00:00:00Z</time>
      </trkpt>
      <trkpt lat="39.768572" lon="-5.526383">
        <ele>424.7</ele>
        <time>1970-01-01T00:00:00Z</time>
      </trkpt>
      <trkpt lat="39.768539" lon="-5.526231">
        <ele>424.7</ele>
        <time>1970-01-01T00:00:00Z</time>
      </trkpt>
      <trkpt lat="39.768476" lon="-5.526050">
        <ele>423.7</ele>
        <time>1970-01-01T00:00:00Z</time>
      </trkpt>
      <trkpt lat="39.768418" lon="-5.525937">
        <ele>423.2</ele>
        <time>1970-01-01T00:00:00Z</time>
      </trkpt>
      <trkpt lat="39.768256" lon="-5.525929">
        <ele>424.0</ele>
        <time>1970-01-01T00:00:00Z</time>
      </trkpt>
      <trkpt lat="39.768181" lon="-5.525966">
        <ele>424.6</ele>
        <time>1970-01-01T00:00:00Z</time>
      </trkpt>
      <trkpt lat="39.768122" lon="-5.525954">
        <ele>424.8</ele>
        <time>1970-01-01T00:00:00Z</time>
      </trkpt>
      <trkpt lat="39.768070" lon="-5.525905">
        <ele>424.6</ele>
        <time>1970-01-01T00:00:00Z</time>
      </trkpt>
      <trkpt lat="39.767998" lon="-5.525793">
        <ele>423.9</ele>
        <time>1970-01-01T00:00:00Z</time>
      </trkpt>
      <trkpt lat="39.767931" lon="-5.525642">
        <ele>422.4</ele>
        <time>1970-01-01T00:00:00Z</time>
      </trkpt>
      <trkpt lat="39.767748" lon="-5.525154">
        <ele>414.2</ele>
        <time>1970-01-01T00:00:00Z</time>
      </trkpt>
      <trkpt lat="39.767604" lon="-5.524927">
        <ele>409.6</ele>
        <time>1970-01-01T00:00:00Z</time>
      </trkpt>
      <trkpt lat="39.767664" lon="-5.524825">
        <ele>406.0</ele>
        <time>1970-01-01T00:00:00Z</time>
      </trkpt>
      <trkpt lat="39.767551" lon="-5.524752">
        <ele>405.8</ele>
        <time>1970-01-01T00:00:00Z</time>
      </trkpt>
      <trkpt lat="39.767504" lon="-5.524663">
        <ele>404.5</ele>
        <time>1970-01-01T00:00:00Z</time>
      </trkpt>
      <trkpt lat="39.767352" lon="-5.524461">
        <ele>403.5</ele>
        <time>1970-01-01T00:00:00Z</time>
      </trkpt>
      <trkpt lat="39.767133" lon="-5.524255">
        <ele>402.5</ele>
        <time>1970-01-01T00:00:00Z</time>
      </trkpt>
      <trkpt lat="39.766892" lon="-5.524136">
        <ele>402.7</ele>
        <time>1970-01-01T00:00:00Z</time>
      </trkpt>
      <trkpt lat="39.766736" lon="-5.524098">
        <ele>402.9</ele>
        <time>1970-01-01T00:00:00Z</time>
      </trkpt>
      <trkpt lat="39.766518" lon="-5.524120">
        <ele>404.2</ele>
        <time>1970-01-01T00:00:00Z</time>
      </trkpt>
      <trkpt lat="39.766413" lon="-5.524064">
        <ele>402.5</ele>
        <time>1970-01-01T00:00:00Z</time>
      </trkpt>
      <trkpt lat="39.766356" lon="-5.523947">
        <ele>399.0</ele>
        <time>1970-01-01T00:00:00Z</time>
      </trkpt>
      <trkpt lat="39.766431" lon="-5.523764">
        <ele>393.8</ele>
        <time>1970-01-01T00:00:00Z</time>
      </trkpt>
      <trkpt lat="39.766633" lon="-5.523701">
        <ele>392.4</ele>
        <time>1970-01-01T00:00:00Z</time>
      </trkpt>
      <trkpt lat="39.766897" lon="-5.523688">
        <ele>391.0</ele>
        <time>1970-01-01T00:00:00Z</time>
      </trkpt>
      <trkpt lat="39.767408" lon="-5.523770">
        <ele>386.6</ele>
        <time>1970-01-01T00:00:00Z</time>
      </trkpt>
      <trkpt lat="39.767457" lon="-5.523651">
        <ele>383.5</ele>
        <time>1970-01-01T00:00:00Z</time>
      </trkpt>
      <trkpt lat="39.767519" lon="-5.523642">
        <ele>382.4</ele>
        <time>1970-01-01T00:00:00Z</time>
      </trkpt>
      <trkpt lat="39.767700" lon="-5.523696">
        <ele>380.2</ele>
        <time>1970-01-01T00:00:00Z</time>
      </trkpt>
      <trkpt lat="39.767718" lon="-5.523743">
        <ele>380.9</ele>
        <time>1970-01-01T00:00:00Z</time>
      </trkpt>
      <trkpt lat="39.767837" lon="-5.523820">
        <ele>380.7</ele>
        <time>1970-01-01T00:00:00Z</time>
      </trkpt>
      <trkpt lat="39.768686" lon="-5.524209">
        <ele>379.3</ele>
        <time>1970-01-01T00:00:00Z</time>
      </trkpt>
      <trkpt lat="39.769155" lon="-5.524269">
        <ele>378.2</ele>
        <time>1970-01-01T00:00:00Z</time>
      </trkpt>
      <trkpt lat="39.769323" lon="-5.524313">
        <ele>378.2</ele>
        <time>1970-01-01T00:00:00Z</time>
      </trkpt>
      <trkpt lat="39.769461" lon="-5.524324">
        <ele>376.8</ele>
        <time>1970-01-01T00:00:00Z</time>
      </trkpt>
      <trkpt lat="39.769624" lon="-5.524366">
        <ele>375.7</ele>
        <time>1970-01-01T00:00:00Z</time>
      </trkpt>
      <trkpt lat="39.770102" lon="-5.524444">
        <ele>370.9</ele>
        <time>1970-01-01T00:00:00Z</time>
      </trkpt>
      <trkpt lat="39.770342" lon="-5.524460">
        <ele>369.6</ele>
        <time>1970-01-01T00:00:00Z</time>
      </trkpt>
      <trkpt lat="39.770584" lon="-5.524372">
        <ele>368.5</ele>
        <time>1970-01-01T00:00:00Z</time>
      </trkpt>
      <trkpt lat="39.770728" lon="-5.524246">
        <ele>368.0</ele>
        <time>1970-01-01T00:00:00Z</time>
      </trkpt>
      <trkpt lat="39.770852" lon="-5.524012">
        <ele>368.2</ele>
        <time>1970-01-01T00:00:00Z</time>
      </trkpt>
      <trkpt lat="39.770907" lon="-5.523837">
        <ele>368.7</ele>
        <time>1970-01-01T00:00:00Z</time>
      </trkpt>
      <trkpt lat="39.770930" lon="-5.523622">
        <ele>368.9</ele>
        <time>1970-01-01T00:00:00Z</time>
      </trkpt>
      <trkpt lat="39.770882" lon="-5.523295">
        <ele>369.0</ele>
        <time>1970-01-01T00:00:00Z</time>
      </trkpt>
      <trkpt lat="39.770748" lon="-5.523038">
        <ele>367.1</ele>
        <time>1970-01-01T00:00:00Z</time>
      </trkpt>
      <trkpt lat="39.770367" lon="-5.522652">
        <ele>360.6</ele>
        <time>1970-01-01T00:00:00Z</time>
      </trkpt>
      <trkpt lat="39.770137" lon="-5.522344">
        <ele>356.5</ele>
        <time>1970-01-01T00:00:00Z</time>
      </trkpt>
      <trkpt lat="39.770098" lon="-5.522227">
        <ele>355.3</ele>
        <time>1970-01-01T00:00:00Z</time>
      </trkpt>
      <trkpt lat="39.769720" lon="-5.521793">
        <ele>349.3</ele>
        <time>1970-01-01T00:00:00Z</time>
      </trkpt>
      <trkpt lat="39.769645" lon="-5.521498">
        <ele>346.4</ele>
        <time>1970-01-01T00:00:00Z</time>
      </trkpt>
      <trkpt lat="39.769673" lon="-5.521274">
        <ele>344.2</ele>
        <time>1970-01-01T00:00:00Z</time>
      </trkpt>
      <trkpt lat="39.769537" lon="-5.520872">
        <ele>336.4</ele>
        <time>1970-01-01T00:00:00Z</time>
      </trkpt>
      <trkpt lat="39.769632" lon="-5.520769">
        <ele>335.2</ele>
        <time>1970-01-01T00:00:00Z</time>
      </trkpt>
      <trkpt lat="39.769780" lon="-5.520722">
        <ele>335.0</ele>
        <time>1970-01-01T00:00:00Z</time>
      </trkpt>
      <trkpt lat="39.770123" lon="-5.520730">
        <ele>337.8</ele>
        <time>1970-01-01T00:00:00Z</time>
      </trkpt>
      <trkpt lat="39.770226" lon="-5.520640">
        <ele>336.2</ele>
        <time>1970-01-01T00:00:00Z</time>
      </trkpt>
      <trkpt lat="39.770360" lon="-5.520364">
        <ele>330.5</ele>
        <time>1970-01-01T00:00:00Z</time>
      </trkpt>
      <trkpt lat="39.770517" lon="-5.520250">
        <ele>328.9</ele>
        <time>1970-01-01T00:00:00Z</time>
      </trkpt>
      <trkpt lat="39.770721" lon="-5.520161">
        <ele>328.0</ele>
        <time>1970-01-01T00:00:00Z</time>
      </trkpt>
      <trkpt lat="39.771021" lon="-5.520118">
        <ele>328.3</ele>
        <time>1970-01-01T00:00:00Z</time>
      </trkpt>
      <trkpt lat="39.771228" lon="-5.520125">
        <ele>329.2</ele>
        <time>1970-01-01T00:00:00Z</time>
      </trkpt>
      <trkpt lat="39.771570" lon="-5.519967">
        <ele>326.9</ele>
        <time>1970-01-01T00:00:00Z</time>
      </trkpt>
      <trkpt lat="39.771707" lon="-5.519980">
        <ele>327.3</ele>
        <time>1970-01-01T00:00:00Z</time>
      </trkpt>
      <trkpt lat="39.772022" lon="-5.519682">
        <ele>325.6</ele>
        <time>1970-01-01T00:00:00Z</time>
      </trkpt>
      <trkpt lat="39.772178" lon="-5.519436">
        <ele>325.1</ele>
        <time>1970-01-01T00:00:00Z</time>
      </trkpt>
      <trkpt lat="39.772377" lon="-5.519250">
        <ele>326.3</ele>
        <time>1970-01-01T00:00:00Z</time>
      </trkpt>
      <trkpt lat="39.772629" lon="-5.519089">
        <ele>328.9</ele>
        <time>1970-01-01T00:00:00Z</time>
      </trkpt>
      <trkpt lat="39.772780" lon="-5.518858">
        <ele>331.8</ele>
        <time>1970-01-01T00:00:00Z</time>
      </trkpt>
      <trkpt lat="39.772840" lon="-5.518654">
        <ele>333.4</ele>
        <time>1970-01-01T00:00:00Z</time>
      </trkpt>
      <trkpt lat="39.772857" lon="-5.518485">
        <ele>334.5</ele>
        <time>1970-01-01T00:00:00Z</time>
      </trkpt>
      <trkpt lat="39.772819" lon="-5.518315">
        <ele>334.8</ele>
        <time>1970-01-01T00:00:00Z</time>
      </trkpt>
      <trkpt lat="39.772843" lon="-5.518197">
        <ele>335.8</ele>
        <time>1970-01-01T00:00:00Z</time>
      </trkpt>
      <trkpt lat="39.772849" lon="-5.517945">
        <ele>337.7</ele>
        <time>1970-01-01T00:00:00Z</time>
      </trkpt>
      <trkpt lat="39.772740" lon="-5.517554">
        <ele>339.3</ele>
        <time>1970-01-01T00:00:00Z</time>
      </trkpt>
      <trkpt lat="39.772641" lon="-5.517401">
        <ele>338.9</ele>
        <time>1970-01-01T00:00:00Z</time>
      </trkpt>
      <trkpt lat="39.772532" lon="-5.517267">
        <ele>339.7</ele>
        <time>1970-01-01T00:00:00Z</time>
      </trkpt>
      <trkpt lat="39.772306" lon="-5.517241">
        <ele>338.2</ele>
        <time>1970-01-01T00:00:00Z</time>
      </trkpt>
      <trkpt lat="39.772216" lon="-5.517164">
        <ele>338.6</ele>
        <time>1970-01-01T00:00:00Z</time>
      </trkpt>
      <trkpt lat="39.772126" lon="-5.517035">
        <ele>340.1</ele>
        <time>1970-01-01T00:00:00Z</time>
      </trkpt>
      <trkpt lat="39.771941" lon="-5.516570">
        <ele>344.6</ele>
        <time>1970-01-01T00:00:00Z</time>
      </trkpt>
      <trkpt lat="39.771775" lon="-5.516298">
        <ele>346.1</ele>
        <time>1970-01-01T00:00:00Z</time>
      </trkpt>
      <trkpt lat="39.771520" lon="-5.516044">
        <ele>347.5</ele>
        <time>1970-01-01T00:00:00Z</time>
      </trkpt>
      <trkpt lat="39.771440" lon="-5.515861">
        <ele>348.0</ele>
        <time>1970-01-01T00:00:00Z</time>
      </trkpt>
      <trkpt lat="39.771404" lon="-5.515679">
        <ele>349.2</ele>
        <time>1970-01-01T00:00:00Z</time>
      </trkpt>
      <trkpt lat="39.771403" lon="-5.515509">
        <ele>350.3</ele>
        <time>1970-01-01T00:00:00Z</time>
      </trkpt>
      <trkpt lat="39.771554" lon="-5.515325">
        <ele>351.1</ele>
        <time>1970-01-01T00:00:00Z</time>
      </trkpt>
      <trkpt lat="39.772005" lon="-5.514984">
        <ele>352.6</ele>
        <time>1970-01-01T00:00:00Z</time>
      </trkpt>
      <trkpt lat="39.772279" lon="-5.514710">
        <ele>354.6</ele>
        <time>1970-01-01T00:00:00Z</time>
      </trkpt>
      <trkpt lat="39.772536" lon="-5.514382">
        <ele>358.0</ele>
        <time>1970-01-01T00:00:00Z</time>
      </trkpt>
      <trkpt lat="39.772764" lon="-5.513974">
        <ele>361.7</ele>
        <time>1970-01-01T00:00:00Z</time>
      </trkpt>
      <trkpt lat="39.772881" lon="-5.513668">
        <ele>364.9</ele>
        <time>1970-01-01T00:00:00Z</time>
      </trkpt>
      <trkpt lat="39.772926" lon="-5.513436">
        <ele>366.8</ele>
        <time>1970-01-01T00:00:00Z</time>
      </trkpt>
      <trkpt lat="39.772878" lon="-5.513226">
        <ele>367.6</ele>
        <time>1970-01-01T00:00:00Z</time>
      </trkpt>
      <trkpt lat="39.772820" lon="-5.513082">
        <ele>368.1</ele>
        <time>1970-01-01T00:00:00Z</time>
      </trkpt>
      <trkpt lat="39.772713" lon="-5.512952">
        <ele>367.2</ele>
        <time>1970-01-01T00:00:00Z</time>
      </trkpt>
      <trkpt lat="39.772527" lon="-5.512764">
        <ele>366.1</ele>
        <time>1970-01-01T00:00:00Z</time>
      </trkpt>
      <trkpt lat="39.772461" lon="-5.512661">
        <ele>366.4</ele>
        <time>1970-01-01T00:00:00Z</time>
      </trkpt>
      <trkpt lat="39.772446" lon="-5.512465">
        <ele>368.5</ele>
        <time>1970-01-01T00:00:00Z</time>
      </trkpt>
      <trkpt lat="39.772574" lon="-5.512200">
        <ele>371.9</ele>
        <time>1970-01-01T00:00:00Z</time>
      </trkpt>
      <trkpt lat="39.772601" lon="-5.512043">
        <ele>373.4</ele>
        <time>1970-01-01T00:00:00Z</time>
      </trkpt>
      <trkpt lat="39.772589" lon="-5.511674">
        <ele>377.0</ele>
        <time>1970-01-01T00:00:00Z</time>
      </trkpt>
      <trkpt lat="39.772635" lon="-5.511543">
        <ele>378.1</ele>
        <time>1970-01-01T00:00:00Z</time>
      </trkpt>
      <trkpt lat="39.772737" lon="-5.511341">
        <ele>380.0</ele>
        <time>1970-01-01T00:00:00Z</time>
      </trkpt>
      <trkpt lat="39.773054" lon="-5.510904">
        <ele>383.3</ele>
        <time>1970-01-01T00:00:00Z</time>
      </trkpt>
      <trkpt lat="39.773292" lon="-5.510626">
        <ele>384.0</ele>
        <time>1970-01-01T00:00:00Z</time>
      </trkpt>
      <trkpt lat="39.773547" lon="-5.510512">
        <ele>384.0</ele>
        <time>1970-01-01T00:00:00Z</time>
      </trkpt>
      <trkpt lat="39.773670" lon="-5.510414">
        <ele>384.0</ele>
        <time>1970-01-01T00:00:00Z</time>
      </trkpt>
      <trkpt lat="39.773948" lon="-5.509842">
        <ele>384.8</ele>
        <time>1970-01-01T00:00:00Z</time>
      </trkpt>
      <trkpt lat="39.773975" lon="-5.509572">
        <ele>387.1</ele>
        <time>1970-01-01T00:00:00Z</time>
      </trkpt>
      <trkpt lat="39.773912" lon="-5.509333">
        <ele>388.9</ele>
        <time>1970-01-01T00:00:00Z</time>
      </trkpt>
      <trkpt lat="39.773642" lon="-5.508897">
        <ele>389.9</ele>
        <time>1970-01-01T00:00:00Z</time>
      </trkpt>
      <trkpt lat="39.773537" lon="-5.508688">
        <ele>391.6</ele>
        <time>1970-01-01T00:00:00Z</time>
      </trkpt>
      <trkpt lat="39.773466" lon="-5.508479">
        <ele>393.4</ele>
        <time>1970-01-01T00:00:00Z</time>
      </trkpt>
      <trkpt lat="39.773458" lon="-5.508370">
        <ele>394.2</ele>
        <time>1970-01-01T00:00:00Z</time>
      </trkpt>
      <trkpt lat="39.773680" lon="-5.507969">
        <ele>396.7</ele>
        <time>1970-01-01T00:00:00Z</time>
      </trkpt>
      <trkpt lat="39.773690" lon="-5.507794">
        <ele>397.5</ele>
        <time>1970-01-01T00:00:00Z</time>
      </trkpt>
      <trkpt lat="39.773673" lon="-5.507383">
        <ele>398.2</ele>
        <time>1970-01-01T00:00:00Z</time>
      </trkpt>
      <trkpt lat="39.773694" lon="-5.507131">
        <ele>399.4</ele>
        <time>1970-01-01T00:00:00Z</time>
      </trkpt>
      <trkpt lat="39.773757" lon="-5.506843">
        <ele>400.9</ele>
        <time>1970-01-01T00:00:00Z</time>
      </trkpt>
      <trkpt lat="39.773934" lon="-5.506312">
        <ele>401.9</ele>
        <time>1970-01-01T00:00:00Z</time>
      </trkpt>
      <trkpt lat="39.774026" lon="-5.506138">
        <ele>402.4</ele>
        <time>1970-01-01T00:00:00Z</time>
      </trkpt>
      <trkpt lat="39.774517" lon="-5.505549">
        <ele>405.0</ele>
        <time>1970-01-01T00:00:00Z</time>
      </trkpt>
      <trkpt lat="39.774703" lon="-5.505335">
        <ele>404.5</ele>
        <time>1970-01-01T00:00:00Z</time>
      </trkpt>
      <trkpt lat="39.774793" lon="-5.505253">
        <ele>403.7</ele>
        <time>1970-01-01T00:00:00Z</time>
      </trkpt>
      <trkpt lat="39.775125" lon="-5.504714">
        <ele>399.8</ele>
        <time>1970-01-01T00:00:00Z</time>
      </trkpt>
      <trkpt lat="39.775597" lon="-5.504137">
        <ele>396.3</ele>
        <time>1970-01-01T00:00:00Z</time>
      </trkpt>
      <trkpt lat="39.775649" lon="-5.504100">
        <ele>396.2</ele>
        <time>1970-01-01T00:00:00Z</time>
      </trkpt>
      <trkpt lat="39.775670" lon="-5.504038">
        <ele>396.4</ele>
        <time>1970-01-01T00:00:00Z</time>
      </trkpt>
      <trkpt lat="39.775810" lon="-5.503837">
        <ele>395.9</ele>
        <time>1970-01-01T00:00:00Z</time>
      </trkpt>
      <trkpt lat="39.776151" lon="-5.503119">
        <ele>395.5</ele>
        <time>1970-01-01T00:00:00Z</time>
      </trkpt>
      <trkpt lat="39.776520" lon="-5.502288">
        <ele>390.5</ele>
        <time>1970-01-01T00:00:00Z</time>
      </trkpt>
      <trkpt lat="39.776543" lon="-5.502174">
        <ele>390.1</ele>
        <time>1970-01-01T00:00:00Z</time>
      </trkpt>
      <trkpt lat="39.776823" lon="-5.501485">
        <ele>390.9</ele>
        <time>1970-01-01T00:00:00Z</time>
      </trkpt>
      <trkpt lat="39.776956" lon="-5.501336">
        <ele>391.5</ele>
        <time>1970-01-01T00:00:00Z</time>
      </trkpt>
      <trkpt lat="39.777595" lon="-5.499805">
        <ele>395.2</ele>
        <time>1970-01-01T00:00:00Z</time>
      </trkpt>
      <trkpt lat="39.777843" lon="-5.499295">
        <ele>392.3</ele>
        <time>1970-01-01T00:00:00Z</time>
      </trkpt>
      <trkpt lat="39.778114" lon="-5.498859">
        <ele>388.5</ele>
        <time>1970-01-01T00:00:00Z</time>
      </trkpt>
      <trkpt lat="39.778423" lon="-5.498418">
        <ele>384.2</ele>
        <time>1970-01-01T00:00:00Z</time>
      </trkpt>
      <trkpt lat="39.778413" lon="-5.498368">
        <ele>384.1</ele>
        <time>1970-01-01T00:00:00Z</time>
      </trkpt>
      <trkpt lat="39.779189" lon="-5.497235">
        <ele>379.0</ele>
        <time>1970-01-01T00:00:00Z</time>
      </trkpt>
      <trkpt lat="39.779817" lon="-5.496343">
        <ele>373.3</ele>
        <time>1970-01-01T00:00:00Z</time>
      </trkpt>
      <trkpt lat="39.780190" lon="-5.495840">
        <ele>371.3</ele>
        <time>1970-01-01T00:00:00Z</time>
      </trkpt>
      <trkpt lat="39.780491" lon="-5.495386">
        <ele>370.4</ele>
        <time>1970-01-01T00:00:00Z</time>
      </trkpt>
      <trkpt lat="39.780546" lon="-5.495403">
        <ele>370.0</ele>
        <time>1970-01-01T00:00:00Z</time>
      </trkpt>
      <trkpt lat="39.780921" lon="-5.494841">
        <ele>367.8</ele>
        <time>1970-01-01T00:00:00Z</time>
      </trkpt>
      <trkpt lat="39.781095" lon="-5.494555">
        <ele>367.1</ele>
        <time>1970-01-01T00:00:00Z</time>
      </trkpt>
      <trkpt lat="39.781393" lon="-5.494000">
        <ele>366.0</ele>
        <time>1970-01-01T00:00:00Z</time>
      </trkpt>
      <trkpt lat="39.781680" lon="-5.493648">
        <ele>364.6</ele>
        <time>1970-01-01T00:00:00Z</time>
      </trkpt>
      <trkpt lat="39.781907" lon="-5.493240">
        <ele>362.1</ele>
        <time>1970-01-01T00:00:00Z</time>
      </trkpt>
      <trkpt lat="39.782162" lon="-5.492898">
        <ele>359.5</ele>
        <time>1970-01-01T00:00:00Z</time>
      </trkpt>
      <trkpt lat="39.782425" lon="-5.492469">
        <ele>359.0</ele>
        <time>1970-01-01T00:00:00Z</time>
      </trkpt>
      <trkpt lat="39.782560" lon="-5.492146">
        <ele>357.8</ele>
        <time>1970-01-01T00:00:00Z</time>
      </trkpt>
      <trkpt lat="39.782757" lon="-5.491497">
        <ele>356.9</ele>
        <time>1970-01-01T00:00:00Z</time>
      </trkpt>
      <trkpt lat="39.782811" lon="-5.491269">
        <ele>356.7</ele>
        <time>1970-01-01T00:00:00Z</time>
      </trkpt>
      <trkpt lat="39.782725" lon="-5.491021">
        <ele>357.1</ele>
        <time>1970-01-01T00:00:00Z</time>
      </trkpt>
      <trkpt lat="39.782810" lon="-5.490624">
        <ele>357.0</ele>
        <time>1970-01-01T00:00:00Z</time>
      </trkpt>
      <trkpt lat="39.782812" lon="-5.490366">
        <ele>357.6</ele>
        <time>1970-01-01T00:00:00Z</time>
      </trkpt>
      <trkpt lat="39.782767" lon="-5.490066">
        <ele>359.1</ele>
        <time>1970-01-01T00:00:00Z</time>
      </trkpt>
      <trkpt lat="39.782607" lon="-5.489712">
        <ele>360.2</ele>
        <time>1970-01-01T00:00:00Z</time>
      </trkpt>
      <trkpt lat="39.782283" lon="-5.489225">
        <ele>359.0</ele>
        <time>1970-01-01T00:00:00Z</time>
      </trkpt>
      <trkpt lat="39.782031" lon="-5.488909">
        <ele>356.7</ele>
        <time>1970-01-01T00:00:00Z</time>
      </trkpt>
      <trkpt lat="39.781748" lon="-5.488176">
        <ele>353.4</ele>
        <time>1970-01-01T00:00:00Z</time>
      </trkpt>
      <trkpt lat="39.781689" lon="-5.487495">
        <ele>353.2</ele>
        <time>1970-01-01T00:00:00Z</time>
      </trkpt>
      <trkpt lat="39.781873" lon="-5.486650">
        <ele>355.5</ele>
        <time>1970-01-01T00:00:00Z</time>
      </trkpt>
      <trkpt lat="39.782028" lon="-5.486234">
        <ele>357.7</ele>
        <time>1970-01-01T00:00:00Z</time>
      </trkpt>
      <trkpt lat="39.782192" lon="-5.485732">
        <ele>358.4</ele>
        <time>1970-01-01T00:00:00Z</time>
      </trkpt>
      <trkpt lat="39.782325" lon="-5.485368">
        <ele>357.7</ele>
        <time>1970-01-01T00:00:00Z</time>
      </trkpt>
      <trkpt lat="39.782549" lon="-5.484516">
        <ele>355.4</ele>
        <time>1970-01-01T00:00:00Z</time>
      </trkpt>
      <trkpt lat="39.782952" lon="-5.482733">
        <ele>348.3</ele>
        <time>1970-01-01T00:00:00Z</time>
      </trkpt>
      <trkpt lat="39.783017" lon="-5.482210">
        <ele>348.0</ele>
        <time>1970-01-01T00:00:00Z</time>
      </trkpt>
      <trkpt lat="39.783032" lon="-5.481824">
        <ele>346.9</ele>
        <time>1970-01-01T00:00:00Z</time>
      </trkpt>
      <trkpt lat="39.782878" lon="-5.481543">
        <ele>345.9</ele>
        <time>1970-01-01T00:00:00Z</time>
      </trkpt>
      <trkpt lat="39.782615" lon="-5.481129">
        <ele>344.2</ele>
        <time>1970-01-01T00:00:00Z</time>
      </trkpt>
      <trkpt lat="39.782351" lon="-5.480750">
        <ele>341.5</ele>
        <time>1970-01-01T00:00:00Z</time>
      </trkpt>
      <trkpt lat="39.782104" lon="-5.480217">
        <ele>339.2</ele>
        <time>1970-01-01T00:00:00Z</time>
      </trkpt>
      <trkpt lat="39.781918" lon="-5.479582">
        <ele>336.5</ele>
        <time>1970-01-01T00:00:00Z</time>
      </trkpt>
      <trkpt lat="39.781815" lon="-5.479149">
        <ele>336.0</ele>
        <time>1970-01-01T00:00:00Z</time>
      </trkpt>
      <trkpt lat="39.781731" lon="-5.478716">
        <ele>335.0</ele>
        <time>1970-01-01T00:00:00Z</time>
      </trkpt>
      <trkpt lat="39.781594" lon="-5.478418">
        <ele>335.0</ele>
        <time>1970-01-01T00:00:00Z</time>
      </trkpt>
      <trkpt lat="39.781293" lon="-5.477628">
        <ele>335.0</ele>
        <time>1970-01-01T00:00:00Z</time>
      </trkpt>
      <trkpt lat="39.780907" lon="-5.476816">
        <ele>335.0</ele>
        <time>1970-01-01T00:00:00Z</time>
      </trkpt>
      <trkpt lat="39.780331" lon="-5.476098">
        <ele>336.0</ele>
        <time>1970-01-01T00:00:00Z</time>
      </trkpt>
      <trkpt lat="39.780114" lon="-5.475850">
        <ele>336.0</ele>
        <time>1970-01-01T00:00:00Z</time>
      </trkpt>
      <trkpt lat="39.779528" lon="-5.475018">
        <ele>337.0</ele>
        <time>1970-01-01T00:00:00Z</time>
      </trkpt>
      <trkpt lat="39.779424" lon="-5.474748">
        <ele>337.6</ele>
        <time>1970-01-01T00:00:00Z</time>
      </trkpt>
      <trkpt lat="39.779209" lon="-5.474373">
        <ele>337.7</ele>
        <time>1970-01-01T00:00:00Z</time>
      </trkpt>
      <trkpt lat="39.778868" lon="-5.473996">
        <ele>335.8</ele>
        <time>1970-01-01T00:00:00Z</time>
      </trkpt>
      <trkpt lat="39.778640" lon="-5.473789">
        <ele>333.7</ele>
        <time>1970-01-01T00:00:00Z</time>
      </trkpt>
      <trkpt lat="39.778497" lon="-5.473746">
        <ele>332.7</ele>
        <time>1970-01-01T00:00:00Z</time>
      </trkpt>
      <trkpt lat="39.778132" lon="-5.473422">
        <ele>330.9</ele>
        <time>1970-01-01T00:00:00Z</time>
      </trkpt>
      <trkpt lat="39.778008" lon="-5.473275">
        <ele>329.8</ele>
        <time>1970-01-01T00:00:00Z</time>
      </trkpt>
      <trkpt lat="39.777900" lon="-5.473065">
        <ele>329.7</ele>
        <time>1970-01-01T00:00:00Z</time>
      </trkpt>
      <trkpt lat="39.777709" lon="-5.472897">
        <ele>328.9</ele>
        <time>1970-01-01T00:00:00Z</time>
      </trkpt>
      <trkpt lat="39.777522" lon="-5.472710">
        <ele>327.9</ele>
        <time>1970-01-01T00:00:00Z</time>
      </trkpt>
      <trkpt lat="39.777341" lon="-5.472488">
        <ele>327.2</ele>
        <time>1970-01-01T00:00:00Z</time>
      </trkpt>
      <trkpt lat="39.777207" lon="-5.472220">
        <ele>326.1</ele>
        <time>1970-01-01T00:00:00Z</time>
      </trkpt>
      <trkpt lat="39.777124" lon="-5.472021">
        <ele>326.0</ele>
        <time>1970-01-01T00:00:00Z</time>
      </trkpt>
      <trkpt lat="39.776915" lon="-5.471843">
        <ele>326.3</ele>
        <time>1970-01-01T00:00:00Z</time>
      </trkpt>
      <trkpt lat="39.776648" lon="-5.471766">
        <ele>329.0</ele>
        <time>1970-01-01T00:00:00Z</time>
      </trkpt>
      <trkpt lat="39.776444" lon="-5.471788">
        <ele>331.6</ele>
        <time>1970-01-01T00:00:00Z</time>
      </trkpt>
      <trkpt lat="39.776240" lon="-5.471856">
        <ele>334.3</ele>
        <time>1970-01-01T00:00:00Z</time>
      </trkpt>
      <trkpt lat="39.775768" lon="-5.472188">
        <ele>339.7</ele>
        <time>1970-01-01T00:00:00Z</time>
      </trkpt>
      <trkpt lat="39.775556" lon="-5.472307">
        <ele>341.1</ele>
        <time>1970-01-01T00:00:00Z</time>
      </trkpt>
      <trkpt lat="39.775371" lon="-5.472386">
        <ele>343.5</ele>
        <time>1970-01-01T00:00:00Z</time>
      </trkpt>
      <trkpt lat="39.775128" lon="-5.472425">
        <ele>345.3</ele>
        <time>1970-01-01T00:00:00Z</time>
      </trkpt>
      <trkpt lat="39.774622" lon="-5.472413">
        <ele>349.0</ele>
        <time>1970-01-01T00:00:00Z</time>
      </trkpt>
      <trkpt lat="39.774392" lon="-5.472439">
        <ele>349.5</ele>
        <time>1970-01-01T00:00:00Z</time>
      </trkpt>
      <trkpt lat="39.774139" lon="-5.472525">
        <ele>350.2</ele>
        <time>1970-01-01T00:00:00Z</time>
      </trkpt>
      <trkpt lat="39.773943" lon="-5.472547">
        <ele>350.9</ele>
        <time>1970-01-01T00:00:00Z</time>
      </trkpt>
      <trkpt lat="39.773687" lon="-5.472519">
        <ele>353.3</ele>
        <time>1970-01-01T00:00:00Z</time>
      </trkpt>
      <trkpt lat="39.773296" lon="-5.472381">
        <ele>356.1</ele>
        <time>1970-01-01T00:00:00Z</time>
      </trkpt>
      <trkpt lat="39.773089" lon="-5.472247">
        <ele>358.1</ele>
        <time>1970-01-01T00:00:00Z</time>
      </trkpt>
      <trkpt lat="39.772877" lon="-5.472078">
        <ele>359.9</ele>
        <time>1970-01-01T00:00:00Z</time>
      </trkpt>
      <trkpt lat="39.772150" lon="-5.471428">
        <ele>360.2</ele>
        <time>1970-01-01T00:00:00Z</time>
      </trkpt>
      <trkpt lat="39.771636" lon="-5.471026">
        <ele>360.0</ele>
        <time>1970-01-01T00:00:00Z</time>
      </trkpt>
      <trkpt lat="39.770531" lon="-5.470341">
        <ele>361.5</ele>
        <time>1970-01-01T00:00:00Z</time>
      </trkpt>
      <trkpt lat="39.769882" lon="-5.470099">
        <ele>361.0</ele>
        <time>1970-01-01T00:00:00Z</time>
      </trkpt>
      <trkpt lat="39.769257" lon="-5.469808">
        <ele>360.8</ele>
        <time>1970-01-01T00:00:00Z</time>
      </trkpt>
      <trkpt lat="39.768496" lon="-5.469299">
        <ele>361.0</ele>
        <time>1970-01-01T00:00:00Z</time>
      </trkpt>
      <trkpt lat="39.768290" lon="-5.469203">
        <ele>362.0</ele>
        <time>1970-01-01T00:00:00Z</time>
      </trkpt>
      <trkpt lat="39.768162" lon="-5.469116">
        <ele>362.7</ele>
        <time>1970-01-01T00:00:00Z</time>
      </trkpt>
      <trkpt lat="39.767930" lon="-5.468889">
        <ele>364.4</ele>
        <time>1970-01-01T00:00:00Z</time>
      </trkpt>
      <trkpt lat="39.767747" lon="-5.468667">
        <ele>366.5</ele>
        <time>1970-01-01T00:00:00Z</time>
      </trkpt>
      <trkpt lat="39.767339" lon="-5.468298">
        <ele>368.6</ele>
        <time>1970-01-01T00:00:00Z</time>
      </trkpt>
      <trkpt lat="39.767094" lon="-5.468236">
        <ele>369.1</ele>
        <time>1970-01-01T00:00:00Z</time>
      </trkpt>
      <trkpt lat="39.766342" lon="-5.468174">
        <ele>371.0</ele>
        <time>1970-01-01T00:00:00Z</time>
      </trkpt>
      <trkpt lat="39.766146" lon="-5.468186">
        <ele>371.5</ele>
        <time>1970-01-01T00:00:00Z</time>
      </trkpt>
      <trkpt lat="39.765856" lon="-5.468163">
        <ele>372.0</ele>
        <time>1970-01-01T00:00:00Z</time>
      </trkpt>
      <trkpt lat="39.765605" lon="-5.468125">
        <ele>371.9</ele>
        <time>1970-01-01T00:00:00Z</time>
      </trkpt>
      <trkpt lat="39.765256" lon="-5.467989">
        <ele>369.9</ele>
        <time>1970-01-01T00:00:00Z</time>
      </trkpt>
      <trkpt lat="39.764965" lon="-5.467792">
        <ele>366.9</ele>
        <time>1970-01-01T00:00:00Z</time>
      </trkpt>
      <trkpt lat="39.764824" lon="-5.467743">
        <ele>365.9</ele>
        <time>1970-01-01T00:00:00Z</time>
      </trkpt>
      <trkpt lat="39.764680" lon="-5.467636">
        <ele>364.7</ele>
        <time>1970-01-01T00:00:00Z</time>
      </trkpt>
      <trkpt lat="39.764163" lon="-5.467323">
        <ele>362.8</ele>
        <time>1970-01-01T00:00:00Z</time>
      </trkpt>
      <trkpt lat="39.764061" lon="-5.467307">
        <ele>363.1</ele>
        <time>1970-01-01T00:00:00Z</time>
      </trkpt>
      <trkpt lat="39.763780" lon="-5.467300">
        <ele>363.4</ele>
        <time>1970-01-01T00:00:00Z</time>
      </trkpt>
      <trkpt lat="39.763676" lon="-5.467246">
        <ele>363.2</ele>
        <time>1970-01-01T00:00:00Z</time>
      </trkpt>
      <trkpt lat="39.763596" lon="-5.467110">
        <ele>362.6</ele>
        <time>1970-01-01T00:00:00Z</time>
      </trkpt>
      <trkpt lat="39.763301" lon="-5.466501">
        <ele>362.0</ele>
        <time>1970-01-01T00:00:00Z</time>
      </trkpt>
      <trkpt lat="39.762971" lon="-5.466274">
        <ele>361.0</ele>
        <time>1970-01-01T00:00:00Z</time>
      </trkpt>
      <trkpt lat="39.762912" lon="-5.466148">
        <ele>360.4</ele>
        <time>1970-01-01T00:00:00Z</time>
      </trkpt>
      <trkpt lat="39.762899" lon="-5.465996">
        <ele>359.8</ele>
        <time>1970-01-01T00:00:00Z</time>
      </trkpt>
      <trkpt lat="39.762954" lon="-5.465681">
        <ele>358.7</ele>
        <time>1970-01-01T00:00:00Z</time>
      </trkpt>
      <trkpt lat="39.762953" lon="-5.465523">
        <ele>358.2</ele>
        <time>1970-01-01T00:00:00Z</time>
      </trkpt>
      <trkpt lat="39.762905" lon="-5.465445">
        <ele>357.7</ele>
        <time>1970-01-01T00:00:00Z</time>
      </trkpt>
      <trkpt lat="39.762564" lon="-5.465160">
        <ele>355.1</ele>
        <time>1970-01-01T00:00:00Z</time>
      </trkpt>
      <trkpt lat="39.762353" lon="-5.464865">
        <ele>355.2</ele>
        <time>1970-01-01T00:00:00Z</time>
      </trkpt>
      <trkpt lat="39.762258" lon="-5.464760">
        <ele>356.1</ele>
        <time>1970-01-01T00:00:00Z</time>
      </trkpt>
      <trkpt lat="39.762127" lon="-5.464705">
        <ele>356.8</ele>
        <time>1970-01-01T00:00:00Z</time>
      </trkpt>
      <trkpt lat="39.762005" lon="-5.464713">
        <ele>356.8</ele>
        <time>1970-01-01T00:00:00Z</time>
      </trkpt>
      <trkpt lat="39.761815" lon="-5.464763">
        <ele>356.9</ele>
        <time>1970-01-01T00:00:00Z</time>
      </trkpt>
      <trkpt lat="39.761605" lon="-5.464654">
        <ele>358.7</ele>
        <time>1970-01-01T00:00:00Z</time>
      </trkpt>
      <trkpt lat="39.761499" lon="-5.464682">
        <ele>359.4</ele>
        <time>1970-01-01T00:00:00Z</time>
      </trkpt>
      <trkpt lat="39.761399" lon="-5.464679">
        <ele>360.1</ele>
        <time>1970-01-01T00:00:00Z</time>
      </trkpt>
      <trkpt lat="39.761271" lon="-5.464617">
        <ele>361.1</ele>
        <time>1970-01-01T00:00:00Z</time>
      </trkpt>
      <trkpt lat="39.760965" lon="-5.464651">
        <ele>362.2</ele>
        <time>1970-01-01T00:00:00Z</time>
      </trkpt>
      <trkpt lat="39.760752" lon="-5.464193">
        <ele>367.0</ele>
        <time>1970-01-01T00:00:00Z</time>
      </trkpt>
      <trkpt lat="39.760335" lon="-5.463238">
        <ele>376.4</ele>
        <time>1970-01-01T00:00:00Z</time>
      </trkpt>
      <trkpt lat="39.760219" lon="-5.463041">
        <ele>379.0</ele>
        <time>1970-01-01T00:00:00Z</time>
      </trkpt>
      <trkpt lat="39.760112" lon="-5.462898">
        <ele>380.7</ele>
        <time>1970-01-01T00:00:00Z</time>
      </trkpt>
      <trkpt lat="39.759955" lon="-5.462465">
        <ele>384.4</ele>
        <time>1970-01-01T00:00:00Z</time>
      </trkpt>
      <trkpt lat="39.759832" lon="-5.462178">
        <ele>386.7</ele>
        <time>1970-01-01T00:00:00Z</time>
      </trkpt>
      <trkpt lat="39.759673" lon="-5.462087">
        <ele>387.1</ele>
        <time>1970-01-01T00:00:00Z</time>
      </trkpt>
      <trkpt lat="39.759523" lon="-5.462126">
        <ele>387.3</ele>
        <time>1970-01-01T00:00:00Z</time>
      </trkpt>
      <trkpt lat="39.759328" lon="-5.462220">
        <ele>388.2</ele>
        <time>1970-01-01T00:00:00Z</time>
      </trkpt>
      <trkpt lat="39.759143" lon="-5.462268">
        <ele>389.3</ele>
        <time>1970-01-01T00:00:00Z</time>
      </trkpt>
      <trkpt lat="39.758995" lon="-5.462250">
        <ele>390.3</ele>
        <time>1970-01-01T00:00:00Z</time>
      </trkpt>
      <trkpt lat="39.758752" lon="-5.462165">
        <ele>392.1</ele>
        <time>1970-01-01T00:00:00Z</time>
      </trkpt>
      <trkpt lat="39.758537" lon="-5.462135">
        <ele>394.1</ele>
        <time>1970-01-01T00:00:00Z</time>
      </trkpt>
      <trkpt lat="39.758333" lon="-5.461988">
        <ele>396.1</ele>
        <time>1970-01-01T00:00:00Z</time>
      </trkpt>
      <trkpt lat="39.758190" lon="-5.461978">
        <ele>397.7</ele>
        <time>1970-01-01T00:00:00Z</time>
      </trkpt>
      <trkpt lat="39.758031" lon="-5.462004">
        <ele>398.6</ele>
        <time>1970-01-01T00:00:00Z</time>
      </trkpt>
      <trkpt lat="39.757891" lon="-5.461986">
        <ele>399.7</ele>
        <time>1970-01-01T00:00:00Z</time>
      </trkpt>
      <trkpt lat="39.757769" lon="-5.461959">
        <ele>400.8</ele>
        <time>1970-01-01T00:00:00Z</time>
      </trkpt>
      <trkpt lat="39.757609" lon="-5.461900">
        <ele>401.6</ele>
        <time>1970-01-01T00:00:00Z</time>
      </trkpt>
      <trkpt lat="39.757253" lon="-5.461843">
        <ele>404.3</ele>
        <time>1970-01-01T00:00:00Z</time>
      </trkpt>
      <trkpt lat="39.757056" lon="-5.461722">
        <ele>406.3</ele>
        <time>1970-01-01T00:00:00Z</time>
      </trkpt>
      <trkpt lat="39.756700" lon="-5.461538">
        <ele>411.5</ele>
        <time>1970-01-01T00:00:00Z</time>
      </trkpt>
      <trkpt lat="39.756385" lon="-5.461166">
        <ele>416.8</ele>
        <time>1970-01-01T00:00:00Z</time>
      </trkpt>
      <trkpt lat="39.756223" lon="-5.461008">
        <ele>418.5</ele>
        <time>1970-01-01T00:00:00Z</time>
      </trkpt>
      <trkpt lat="39.756027" lon="-5.460893">
        <ele>420.1</ele>
        <time>1970-01-01T00:00:00Z</time>
      </trkpt>
      <trkpt lat="39.755860" lon="-5.460824">
        <ele>421.7</ele>
        <time>1970-01-01T00:00:00Z</time>
      </trkpt>
      <trkpt lat="39.755670" lon="-5.460786">
        <ele>423.2</ele>
        <time>1970-01-01T00:00:00Z</time>
      </trkpt>
      <trkpt lat="39.755521" lon="-5.460784">
        <ele>423.9</ele>
        <time>1970-01-01T00:00:00Z</time>
      </trkpt>
      <trkpt lat="39.755406" lon="-5.460798">
        <ele>424.4</ele>
        <time>1970-01-01T00:00:00Z</time>
      </trkpt>
      <trkpt lat="39.755209" lon="-5.460858">
        <ele>425.5</ele>
        <time>1970-01-01T00:00:00Z</time>
      </trkpt>
      <trkpt lat="39.753982" lon="-5.460893">
        <ele>431.0</ele>
        <time>1970-01-01T00:00:00Z</time>
      </trkpt>
      <trkpt lat="39.753770" lon="-5.460845">
        <ele>431.5</ele>
        <time>1970-01-01T00:00:00Z</time>
      </trkpt>
      <trkpt lat="39.753492" lon="-5.460816">
        <ele>431.6</ele>
        <time>1970-01-01T00:00:00Z</time>
      </trkpt>
      <trkpt lat="39.753263" lon="-5.460773">
        <ele>432.0</ele>
        <time>1970-01-01T00:00:00Z</time>
      </trkpt>
      <trkpt lat="39.753014" lon="-5.460631">
        <ele>431.6</ele>
        <time>1970-01-01T00:00:00Z</time>
      </trkpt>
      <trkpt lat="39.752925" lon="-5.460602">
        <ele>431.5</ele>
        <time>1970-01-01T00:00:00Z</time>
      </trkpt>
      <trkpt lat="39.752678" lon="-5.460486">
        <ele>431.0</ele>
        <time>1970-01-01T00:00:00Z</time>
      </trkpt>
      <trkpt lat="39.752521" lon="-5.460484">
        <ele>430.4</ele>
        <time>1970-01-01T00:00:00Z</time>
      </trkpt>
      <trkpt lat="39.751680" lon="-5.459934">
        <ele>429.7</ele>
        <time>1970-01-01T00:00:00Z</time>
      </trkpt>
      <trkpt lat="39.751533" lon="-5.459863">
        <ele>430.5</ele>
        <time>1970-01-01T00:00:00Z</time>
      </trkpt>
      <trkpt lat="39.751497" lon="-5.459817">
        <ele>430.9</ele>
        <time>1970-01-01T00:00:00Z</time>
      </trkpt>
      <trkpt lat="39.751418" lon="-5.459637">
        <ele>429.8</ele>
        <time>1970-01-01T00:00:00Z</time>
      </trkpt>
      <trkpt lat="39.750806" lon="-5.459106">
        <ele>432.0</ele>
        <time>1970-01-01T00:00:00Z</time>
      </trkpt>
      <trkpt lat="39.750637" lon="-5.458868">
        <ele>431.7</ele>
        <time>1970-01-01T00:00:00Z</time>
      </trkpt>
      <trkpt lat="39.750453" lon="-5.458697">
        <ele>431.7</ele>
        <time>1970-01-01T00:00:00Z</time>
      </trkpt>
      <trkpt lat="39.750058" lon="-5.458509">
        <ele>432.0</ele>
        <time>1970-01-01T00:00:00Z</time>
      </trkpt>
      <trkpt lat="39.749965" lon="-5.458423">
        <ele>432.0</ele>
        <time>1970-01-01T00:00:00Z</time>
      </trkpt>
      <trkpt lat="39.749712" lon="-5.458136">
        <ele>432.7</ele>
        <time>1970-01-01T00:00:00Z</time>
      </trkpt>
      <trkpt lat="39.749298" lon="-5.457947">
        <ele>436.0</ele>
        <time>1970-01-01T00:00:00Z</time>
      </trkpt>
      <trkpt lat="39.749161" lon="-5.457831">
        <ele>437.2</ele>
        <time>1970-01-01T00:00:00Z</time>
      </trkpt>
      <trkpt lat="39.748951" lon="-5.457586">
        <ele>440.9</ele>
        <time>1970-01-01T00:00:00Z</time>
      </trkpt>
      <trkpt lat="39.748762" lon="-5.457272">
        <ele>445.9</ele>
        <time>1970-01-01T00:00:00Z</time>
      </trkpt>
      <trkpt lat="39.748678" lon="-5.457092">
        <ele>447.7</ele>
        <time>1970-01-01T00:00:00Z</time>
      </trkpt>
      <trkpt lat="39.748573" lon="-5.456734">
        <ele>450.0</ele>
        <time>1970-01-01T00:00:00Z</time>
      </trkpt>
      <trkpt lat="39.748523" lon="-5.456441">
        <ele>450.9</ele>
        <time>1970-01-01T00:00:00Z</time>
      </trkpt>
      <trkpt lat="39.748497" lon="-5.455591">
        <ele>453.4</ele>
        <time>1970-01-01T00:00:00Z</time>
      </trkpt>
      <trkpt lat="39.748475" lon="-5.455255">
        <ele>453.2</ele>
        <time>1970-01-01T00:00:00Z</time>
      </trkpt>
      <trkpt lat="39.748421" lon="-5.455126">
        <ele>455.0</ele>
        <time>1970-01-01T00:00:00Z</time>
      </trkpt>
      <trkpt lat="39.748276" lon="-5.454950">
        <ele>459.3</ele>
        <time>1970-01-01T00:00:00Z</time>
      </trkpt>
      <trkpt lat="39.748215" lon="-5.454333">
        <ele>462.0</ele>
        <time>1970-01-01T00:00:00Z</time>
      </trkpt>
      <trkpt lat="39.748069" lon="-5.453873">
        <ele>466.7</ele>
        <time>1970-01-01T00:00:00Z</time>
      </trkpt>
      <trkpt lat="39.748165" lon="-5.453382">
        <ele>468.5</ele>
        <time>1970-01-01T00:00:00Z</time>
      </trkpt>
      <trkpt lat="39.748143" lon="-5.453252">
        <ele>469.8</ele>
        <time>1970-01-01T00:00:00Z</time>
      </trkpt>
      <trkpt lat="39.747934" lon="-5.452245">
        <ele>478.0</ele>
        <time>1970-01-01T00:00:00Z</time>
      </trkpt>
      <trkpt lat="39.747737" lon="-5.451920">
        <ele>479.9</ele>
        <time>1970-01-01T00:00:00Z</time>
      </trkpt>
      <trkpt lat="39.747723" lon="-5.451739">
        <ele>479.9</ele>
        <time>1970-01-01T00:00:00Z</time>
      </trkpt>
      <trkpt lat="39.747729" lon="-5.451420">
        <ele>479.3</ele>
        <time>1970-01-01T00:00:00Z</time>
      </trkpt>
      <trkpt lat="39.747808" lon="-5.451299">
        <ele>478.0</ele>
        <time>1970-01-01T00:00:00Z</time>
      </trkpt>
      <trkpt lat="39.747885" lon="-5.451150">
        <ele>476.3</ele>
        <time>1970-01-01T00:00:00Z</time>
      </trkpt>
      <trkpt lat="39.747943" lon="-5.450965">
        <ele>475.2</ele>
        <time>1970-01-01T00:00:00Z</time>
      </trkpt>
      <trkpt lat="39.748226" lon="-5.450266">
        <ele>469.9</ele>
        <time>1970-01-01T00:00:00Z</time>
      </trkpt>
      <trkpt lat="39.748420" lon="-5.449744">
        <ele>463.3</ele>
        <time>1970-01-01T00:00:00Z</time>
      </trkpt>
      <trkpt lat="39.748512" lon="-5.449580">
        <ele>461.4</ele>
        <time>1970-01-01T00:00:00Z</time>
      </trkpt>
      <trkpt lat="39.748728" lon="-5.449293">
        <ele>457.1</ele>
        <time>1970-01-01T00:00:00Z</time>
      </trkpt>
      <trkpt lat="39.748787" lon="-5.449175">
        <ele>455.6</ele>
        <time>1970-01-01T00:00:00Z</time>
      </trkpt>
      <trkpt lat="39.748808" lon="-5.448862">
        <ele>453.3</ele>
        <time>1970-01-01T00:00:00Z</time>
      </trkpt>
      <trkpt lat="39.748784" lon="-5.448747">
        <ele>453.0</ele>
        <time>1970-01-01T00:00:00Z</time>
      </trkpt>
      <trkpt lat="39.748741" lon="-5.448676">
        <ele>452.9</ele>
        <time>1970-01-01T00:00:00Z</time>
      </trkpt>
      <trkpt lat="39.748745" lon="-5.448486">
        <ele>453.7</ele>
        <time>1970-01-01T00:00:00Z</time>
      </trkpt>
      <trkpt lat="39.748771" lon="-5.448080">
        <ele>454.4</ele>
        <time>1970-01-01T00:00:00Z</time>
      </trkpt>
      <trkpt lat="39.748829" lon="-5.447849">
        <ele>455.1</ele>
        <time>1970-01-01T00:00:00Z</time>
      </trkpt>
      <trkpt lat="39.748857" lon="-5.447689">
        <ele>455.7</ele>
        <time>1970-01-01T00:00:00Z</time>
      </trkpt>
      <trkpt lat="39.748771" lon="-5.447366">
        <ele>457.6</ele>
        <time>1970-01-01T00:00:00Z</time>
      </trkpt>
      <trkpt lat="39.748467" lon="-5.446849">
        <ele>463.2</ele>
        <time>1970-01-01T00:00:00Z</time>
      </trkpt>
      <trkpt lat="39.748445" lon="-5.446712">
        <ele>464.3</ele>
        <time>1970-01-01T00:00:00Z</time>
      </trkpt>
      <trkpt lat="39.748446" lon="-5.446579">
        <ele>464.9</ele>
        <time>1970-01-01T00:00:00Z</time>
      </trkpt>
      <trkpt lat="39.748499" lon="-5.446480">
        <ele>464.2</ele>
        <time>1970-01-01T00:00:00Z</time>
      </trkpt>
      <trkpt lat="39.748547" lon="-5.446294">
        <ele>463.7</ele>
        <time>1970-01-01T00:00:00Z</time>
      </trkpt>
      <trkpt lat="39.748580" lon="-5.445982">
        <ele>463.0</ele>
        <time>1970-01-01T00:00:00Z</time>
      </trkpt>
      <trkpt lat="39.748556" lon="-5.445842">
        <ele>463.4</ele>
        <time>1970-01-01T00:00:00Z</time>
      </trkpt>
      <trkpt lat="39.748594" lon="-5.445460">
        <ele>461.7</ele>
        <time>1970-01-01T00:00:00Z</time>
      </trkpt>
      <trkpt lat="39.748623" lon="-5.445354">
        <ele>460.8</ele>
        <time>1970-01-01T00:00:00Z</time>
      </trkpt>
      <trkpt lat="39.748646" lon="-5.445174">
        <ele>459.8</ele>
        <time>1970-01-01T00:00:00Z</time>
      </trkpt>
      <trkpt lat="39.748660" lon="-5.444551">
        <ele>454.4</ele>
        <time>1970-01-01T00:00:00Z</time>
      </trkpt>
      <trkpt lat="39.748586" lon="-5.444235">
        <ele>453.3</ele>
        <time>1970-01-01T00:00:00Z</time>
      </trkpt>
      <trkpt lat="39.748488" lon="-5.444137">
        <ele>453.9</ele>
        <time>1970-01-01T00:00:00Z</time>
      </trkpt>
      <trkpt lat="39.748319" lon="-5.444146">
        <ele>456.3</ele>
        <time>1970-01-01T00:00:00Z</time>
      </trkpt>
      <trkpt lat="39.748221" lon="-5.444124">
        <ele>457.1</ele>
        <time>1970-01-01T00:00:00Z</time>
      </trkpt>
      <trkpt lat="39.748196" lon="-5.444044">
        <ele>456.4</ele>
        <time>1970-01-01T00:00:00Z</time>
      </trkpt>
      <trkpt lat="39.748232" lon="-5.443956">
        <ele>455.3</ele>
        <time>1970-01-01T00:00:00Z</time>
      </trkpt>
      <trkpt lat="39.748233" lon="-5.443785">
        <ele>453.6</ele>
        <time>1970-01-01T00:00:00Z</time>
      </trkpt>
      <trkpt lat="39.748046" lon="-5.443260">
        <ele>448.0</ele>
        <time>1970-01-01T00:00:00Z</time>
      </trkpt>
      <trkpt lat="39.747988" lon="-5.443134">
        <ele>446.2</ele>
        <time>1970-01-01T00:00:00Z</time>
      </trkpt>
      <trkpt lat="39.747803" lon="-5.442969">
        <ele>444.8</ele>
        <time>1970-01-01T00:00:00Z</time>
      </trkpt>
      <trkpt lat="39.747419" lon="-5.442525">
        <ele>443.9</ele>
        <time>1970-01-01T00:00:00Z</time>
      </trkpt>
      <trkpt lat="39.747116" lon="-5.442217">
        <ele>444.0</ele>
        <time>1970-01-01T00:00:00Z</time>
      </trkpt>
      <trkpt lat="39.747040" lon="-5.441997">
        <ele>443.6</ele>
        <time>1970-01-01T00:00:00Z</time>
      </trkpt>
      <trkpt lat="39.746981" lon="-5.441666">
        <ele>442.6</ele>
        <time>1970-01-01T00:00:00Z</time>
      </trkpt>
      <trkpt lat="39.747014" lon="-5.441287">
        <ele>441.4</ele>
        <time>1970-01-01T00:00:00Z</time>
      </trkpt>
      <trkpt lat="39.747071" lon="-5.441055">
        <ele>441.1</ele>
        <time>1970-01-01T00:00:00Z</time>
      </trkpt>
      <trkpt lat="39.747027" lon="-5.440974">
        <ele>441.1</ele>
        <time>1970-01-01T00:00:00Z</time>
      </trkpt>
      <trkpt lat="39.746884" lon="-5.440926">
        <ele>441.9</ele>
        <time>1970-01-01T00:00:00Z</time>
      </trkpt>
      <trkpt lat="39.746329" lon="-5.440980">
        <ele>446.6</ele>
        <time>1970-01-01T00:00:00Z</time>
      </trkpt>
      <trkpt lat="39.746215" lon="-5.440941">
        <ele>447.9</ele>
        <time>1970-01-01T00:00:00Z</time>
      </trkpt>
      <trkpt lat="39.746117" lon="-5.440871">
        <ele>449.3</ele>
        <time>1970-01-01T00:00:00Z</time>
      </trkpt>
      <trkpt lat="39.746039" lon="-5.440838">
        <ele>450.8</ele>
        <time>1970-01-01T00:00:00Z</time>
      </trkpt>
      <trkpt lat="39.745783" lon="-5.440780">
        <ele>455.4</ele>
        <time>1970-01-01T00:00:00Z</time>
      </trkpt>
      <trkpt lat="39.745403" lon="-5.440644">
        <ele>461.2</ele>
        <time>1970-01-01T00:00:00Z</time>
      </trkpt>
      <trkpt lat="39.745341" lon="-5.440609">
        <ele>461.9</ele>
        <time>1970-01-01T00:00:00Z</time>
      </trkpt>
      <trkpt lat="39.745278" lon="-5.440549">
        <ele>462.4</ele>
        <time>1970-01-01T00:00:00Z</time>
      </trkpt>
      <trkpt lat="39.745146" lon="-5.440383">
        <ele>463.8</ele>
        <time>1970-01-01T00:00:00Z</time>
      </trkpt>
      <trkpt lat="39.745093" lon="-5.440337">
        <ele>464.5</ele>
        <time>1970-01-01T00:00:00Z</time>
      </trkpt>
      <trkpt lat="39.744849" lon="-5.440280">
        <ele>467.4</ele>
        <time>1970-01-01T00:00:00Z</time>
      </trkpt>
      <trkpt lat="39.744724" lon="-5.440185">
        <ele>468.2</ele>
        <time>1970-01-01T00:00:00Z</time>
      </trkpt>
      <trkpt lat="39.744580" lon="-5.439996">
        <ele>469.6</ele>
        <time>1970-01-01T00:00:00Z</time>
      </trkpt>
      <trkpt lat="39.744501" lon="-5.439746">
        <ele>470.2</ele>
        <time>1970-01-01T00:00:00Z</time>
      </trkpt>
      <trkpt lat="39.744462" lon="-5.439703">
        <ele>470.7</ele>
        <time>1970-01-01T00:00:00Z</time>
      </trkpt>
      <trkpt lat="39.744411" lon="-5.439597">
        <ele>471.1</ele>
        <time>1970-01-01T00:00:00Z</time>
      </trkpt>
      <trkpt lat="39.744316" lon="-5.439468">
        <ele>472.2</ele>
        <time>1970-01-01T00:00:00Z</time>
      </trkpt>
      <trkpt lat="39.744220" lon="-5.439252">
        <ele>472.0</ele>
        <time>1970-01-01T00:00:00Z</time>
      </trkpt>
      <trkpt lat="39.744125" lon="-5.438943">
        <ele>471.3</ele>
        <time>1970-01-01T00:00:00Z</time>
      </trkpt>
      <trkpt lat="39.744064" lon="-5.438830">
        <ele>471.1</ele>
        <time>1970-01-01T00:00:00Z</time>
      </trkpt>
      <trkpt lat="39.743973" lon="-5.438686">
        <ele>471.2</ele>
        <time>1970-01-01T00:00:00Z</time>
      </trkpt>
      <trkpt lat="39.743834" lon="-5.438546">
        <ele>472.3</ele>
        <time>1970-01-01T00:00:00Z</time>
      </trkpt>
      <trkpt lat="39.743608" lon="-5.438365">
        <ele>472.5</ele>
        <time>1970-01-01T00:00:00Z</time>
      </trkpt>
      <trkpt lat="39.743475" lon="-5.438131">
        <ele>471.4</ele>
        <time>1970-01-01T00:00:00Z</time>
      </trkpt>
      <trkpt lat="39.743403" lon="-5.438133">
        <ele>471.8</ele>
        <time>1970-01-01T00:00:00Z</time>
      </trkpt>
      <trkpt lat="39.743212" lon="-5.438221">
        <ele>472.4</ele>
        <time>1970-01-01T00:00:00Z</time>
      </trkpt>
      <trkpt lat="39.743055" lon="-5.438368">
        <ele>474.0</ele>
        <time>1970-01-01T00:00:00Z</time>
      </trkpt>
      <trkpt lat="39.742734" lon="-5.438537">
        <ele>477.4</ele>
        <time>1970-01-01T00:00:00Z</time>
      </trkpt>
      <trkpt lat="39.742479" lon="-5.438690">
        <ele>480.4</ele>
        <time>1970-01-01T00:00:00Z</time>
      </trkpt>
      <trkpt lat="39.742305" lon="-5.438671">
        <ele>481.4</ele>
        <time>1970-01-01T00:00:00Z</time>
      </trkpt>
      <trkpt lat="39.742179" lon="-5.438620">
        <ele>481.7</ele>
        <time>1970-01-01T00:00:00Z</time>
      </trkpt>
      <trkpt lat="39.741774" lon="-5.438319">
        <ele>480.6</ele>
        <time>1970-01-01T00:00:00Z</time>
      </trkpt>
      <trkpt lat="39.741664" lon="-5.438292">
        <ele>480.7</ele>
        <time>1970-01-01T00:00:00Z</time>
      </trkpt>
      <trkpt lat="39.741477" lon="-5.438303">
        <ele>481.4</ele>
        <time>1970-01-01T00:00:00Z</time>
      </trkpt>
      <trkpt lat="39.741344" lon="-5.437630">
        <ele>471.0</ele>
        <time>1970-01-01T00:00:00Z</time>
      </trkpt>
      <trkpt lat="39.741276" lon="-5.437429">
        <ele>467.9</ele>
        <time>1970-01-01T00:00:00Z</time>
      </trkpt>
      <trkpt lat="39.741278" lon="-5.437313">
        <ele>466.5</ele>
        <time>1970-01-01T00:00:00Z</time>
      </trkpt>
      <trkpt lat="39.741215" lon="-5.437222">
        <ele>465.2</ele>
        <time>1970-01-01T00:00:00Z</time>
      </trkpt>
      <trkpt lat="39.741195" lon="-5.437080">
        <ele>463.6</ele>
        <time>1970-01-01T00:00:00Z</time>
      </trkpt>
      <trkpt lat="39.741201" lon="-5.436989">
        <ele>462.7</ele>
        <time>1970-01-01T00:00:00Z</time>
      </trkpt>
      <trkpt lat="39.741190" lon="-5.436907">
        <ele>461.8</ele>
        <time>1970-01-01T00:00:00Z</time>
      </trkpt>
      <trkpt lat="39.741065" lon="-5.436737">
        <ele>459.1</ele>
        <time>1970-01-01T00:00:00Z</time>
      </trkpt>
      <trkpt lat="39.741072" lon="-5.436695">
        <ele>458.6</ele>
        <time>1970-01-01T00:00:00Z</time>
      </trkpt>
      <trkpt lat="39.741035" lon="-5.436645">
        <ele>457.9</ele>
        <time>1970-01-01T00:00:00Z</time>
      </trkpt>
      <trkpt lat="39.740982" lon="-5.436640">
        <ele>457.9</ele>
        <time>1970-01-01T00:00:00Z</time>
      </trkpt>
      <trkpt lat="39.740785" lon="-5.436470">
        <ele>455.7</ele>
        <time>1970-01-01T00:00:00Z</time>
      </trkpt>
      <trkpt lat="39.740645" lon="-5.436418">
        <ele>455.0</ele>
        <time>1970-01-01T00:00:00Z</time>
      </trkpt>
      <trkpt lat="39.740459" lon="-5.436177">
        <ele>452.2</ele>
        <time>1970-01-01T00:00:00Z</time>
      </trkpt>
      <trkpt lat="39.740156" lon="-5.435715">
        <ele>447.9</ele>
        <time>1970-01-01T00:00:00Z</time>
      </trkpt>
      <trkpt lat="39.739904" lon="-5.435430">
        <ele>443.9</ele>
        <time>1970-01-01T00:00:00Z</time>
      </trkpt>
      <trkpt lat="39.739736" lon="-5.435028">
        <ele>437.2</ele>
        <time>1970-01-01T00:00:00Z</time>
      </trkpt>
      <trkpt lat="39.739515" lon="-5.434564">
        <ele>430.2</ele>
        <time>1970-01-01T00:00:00Z</time>
      </trkpt>
      <trkpt lat="39.739387" lon="-5.434252">
        <ele>427.2</ele>
        <time>1970-01-01T00:00:00Z</time>
      </trkpt>
      <trkpt lat="39.739307" lon="-5.434161">
        <ele>426.0</ele>
        <time>1970-01-01T00:00:00Z</time>
      </trkpt>
      <trkpt lat="39.739241" lon="-5.433999">
        <ele>424.1</ele>
        <time>1970-01-01T00:00:00Z</time>
      </trkpt>
      <trkpt lat="39.739188" lon="-5.433951">
        <ele>423.8</ele>
        <time>1970-01-01T00:00:00Z</time>
      </trkpt>
      <trkpt lat="39.739111" lon="-5.433967">
        <ele>424.3</ele>
        <time>1970-01-01T00:00:00Z</time>
      </trkpt>
      <trkpt lat="39.738949" lon="-5.434104">
        <ele>426.6</ele>
        <time>1970-01-01T00:00:00Z</time>
      </trkpt>
      <trkpt lat="39.738750" lon="-5.434303">
        <ele>430.8</ele>
        <time>1970-01-01T00:00:00Z</time>
      </trkpt>
      <trkpt lat="39.738544" lon="-5.434338">
        <ele>432.9</ele>
        <time>1970-01-01T00:00:00Z</time>
      </trkpt>
      <trkpt lat="39.737910" lon="-5.434397">
        <ele>440.1</ele>
        <time>1970-01-01T00:00:00Z</time>
      </trkpt>
      <trkpt lat="39.737848" lon="-5.434422">
        <ele>441.0</ele>
        <time>1970-01-01T00:00:00Z</time>
      </trkpt>
      <trkpt lat="39.737785" lon="-5.434394">
        <ele>441.4</ele>
        <time>1970-01-01T00:00:00Z</time>
      </trkpt>
      <trkpt lat="39.737757" lon="-5.434282">
        <ele>440.9</ele>
        <time>1970-01-01T00:00:00Z</time>
      </trkpt>
      <trkpt lat="39.737886" lon="-5.434058">
        <ele>437.9</ele>
        <time>1970-01-01T00:00:00Z</time>
      </trkpt>
      <trkpt lat="39.738022" lon="-5.433757">
        <ele>434.3</ele>
        <time>1970-01-01T00:00:00Z</time>
      </trkpt>
      <trkpt lat="39.738018" lon="-5.433581">
        <ele>433.6</ele>
        <time>1970-01-01T00:00:00Z</time>
      </trkpt>
      <trkpt lat="39.738048" lon="-5.433448">
        <ele>432.5</ele>
        <time>1970-01-01T00:00:00Z</time>
      </trkpt>
      <trkpt lat="39.738196" lon="-5.433195">
        <ele>429.8</ele>
        <time>1970-01-01T00:00:00Z</time>
      </trkpt>
      <trkpt lat="39.738251" lon="-5.433038">
        <ele>428.2</ele>
        <time>1970-01-01T00:00:00Z</time>
      </trkpt>
      <trkpt lat="39.738264" lon="-5.432853">
        <ele>427.6</ele>
        <time>1970-01-01T00:00:00Z</time>
      </trkpt>
      <trkpt lat="39.738173" lon="-5.432500">
        <ele>429.2</ele>
        <time>1970-01-01T00:00:00Z</time>
      </trkpt>
      <trkpt lat="39.738057" lon="-5.432237">
        <ele>430.2</ele>
        <time>1970-01-01T00:00:00Z</time>
      </trkpt>
      <trkpt lat="39.737968" lon="-5.432130">
        <ele>432.3</ele>
        <time>1970-01-01T00:00:00Z</time>
      </trkpt>
      <trkpt lat="39.737804" lon="-5.432038">
        <ele>435.9</ele>
        <time>1970-01-01T00:00:00Z</time>
      </trkpt>
      <trkpt lat="39.737571" lon="-5.431784">
        <ele>442.0</ele>
        <time>1970-01-01T00:00:00Z</time>
      </trkpt>
      <trkpt lat="39.737446" lon="-5.431678">
        <ele>445.8</ele>
        <time>1970-01-01T00:00:00Z</time>
      </trkpt>
      <trkpt lat="39.737370" lon="-5.431590">
        <ele>448.1</ele>
        <time>1970-01-01T00:00:00Z</time>
      </trkpt>
      <trkpt lat="39.737354" lon="-5.431480">
        <ele>448.5</ele>
        <time>1970-01-01T00:00:00Z</time>
      </trkpt>
      <trkpt lat="39.737394" lon="-5.431382">
        <ele>447.4</ele>
        <time>1970-01-01T00:00:00Z</time>
      </trkpt>
      <trkpt lat="39.737540" lon="-5.431151">
        <ele>442.9</ele>
        <time>1970-01-01T00:00:00Z</time>
      </trkpt>
      <trkpt lat="39.737682" lon="-5.430850">
        <ele>437.9</ele>
        <time>1970-01-01T00:00:00Z</time>
      </trkpt>
      <trkpt lat="39.737700" lon="-5.430656">
        <ele>437.0</ele>
        <time>1970-01-01T00:00:00Z</time>
      </trkpt>
      <trkpt lat="39.737685" lon="-5.430466">
        <ele>436.3</ele>
        <time>1970-01-01T00:00:00Z</time>
      </trkpt>
      <trkpt lat="39.737644" lon="-5.430253">
        <ele>435.8</ele>
        <time>1970-01-01T00:00:00Z</time>
      </trkpt>
      <trkpt lat="39.737523" lon="-5.430065">
        <ele>437.2</ele>
        <time>1970-01-01T00:00:00Z</time>
      </trkpt>
      <trkpt lat="39.737218" lon="-5.429802">
        <ele>442.8</ele>
        <time>1970-01-01T00:00:00Z</time>
      </trkpt>
      <trkpt lat="39.737200" lon="-5.429733">
        <ele>442.7</ele>
        <time>1970-01-01T00:00:00Z</time>
      </trkpt>
      <trkpt lat="39.737201" lon="-5.429603">
        <ele>441.2</ele>
        <time>1970-01-01T00:00:00Z</time>
      </trkpt>
      <trkpt lat="39.737230" lon="-5.429409">
        <ele>438.6</ele>
        <time>1970-01-01T00:00:00Z</time>
      </trkpt>
      <trkpt lat="39.737223" lon="-5.429182">
        <ele>437.1</ele>
        <time>1970-01-01T00:00:00Z</time>
      </trkpt>
      <trkpt lat="39.737186" lon="-5.429063">
        <ele>436.7</ele>
        <time>1970-01-01T00:00:00Z</time>
      </trkpt>
      <trkpt lat="39.737180" lon="-5.428914">
        <ele>435.6</ele>
        <time>1970-01-01T00:00:00Z</time>
      </trkpt>
      <trkpt lat="39.737224" lon="-5.428701">
        <ele>434.3</ele>
        <time>1970-01-01T00:00:00Z</time>
      </trkpt>
      <trkpt lat="39.737353" lon="-5.428199">
        <ele>431.5</ele>
        <time>1970-01-01T00:00:00Z</time>
      </trkpt>
      <trkpt lat="39.737467" lon="-5.428003">
        <ele>430.2</ele>
        <time>1970-01-01T00:00:00Z</time>
      </trkpt>
      <trkpt lat="39.737921" lon="-5.427710">
        <ele>426.5</ele>
        <time>1970-01-01T00:00:00Z</time>
      </trkpt>
      <trkpt lat="39.737987" lon="-5.427622">
        <ele>425.7</ele>
        <time>1970-01-01T00:00:00Z</time>
      </trkpt>
      <trkpt lat="39.738034" lon="-5.427434">
        <ele>425.2</ele>
        <time>1970-01-01T00:00:00Z</time>
      </trkpt>
      <trkpt lat="39.738048" lon="-5.427182">
        <ele>425.0</ele>
        <time>1970-01-01T00:00:00Z</time>
      </trkpt>
      <trkpt lat="39.737999" lon="-5.426796">
        <ele>423.3</ele>
        <time>1970-01-01T00:00:00Z</time>
      </trkpt>
      <trkpt lat="39.737922" lon="-5.426383">
        <ele>420.3</ele>
        <time>1970-01-01T00:00:00Z</time>
      </trkpt>
      <trkpt lat="39.737906" lon="-5.426017">
        <ele>418.7</ele>
        <time>1970-01-01T00:00:00Z</time>
      </trkpt>
      <trkpt lat="39.737916" lon="-5.425718">
        <ele>415.5</ele>
        <time>1970-01-01T00:00:00Z</time>
      </trkpt>
      <trkpt lat="39.737876" lon="-5.425175">
        <ele>408.8</ele>
        <time>1970-01-01T00:00:00Z</time>
      </trkpt>
      <trkpt lat="39.737833" lon="-5.424917">
        <ele>404.9</ele>
        <time>1970-01-01T00:00:00Z</time>
      </trkpt>
      <trkpt lat="39.737809" lon="-5.424682">
        <ele>403.1</ele>
        <time>1970-01-01T00:00:00Z</time>
      </trkpt>
      <trkpt lat="39.737680" lon="-5.424263">
        <ele>399.3</ele>
        <time>1970-01-01T00:00:00Z</time>
      </trkpt>
      <trkpt lat="39.737621" lon="-5.423599">
        <ele>395.3</ele>
        <time>1970-01-01T00:00:00Z</time>
      </trkpt>
      <trkpt lat="39.737493" lon="-5.422684">
        <ele>392.0</ele>
        <time>1970-01-01T00:00:00Z</time>
      </trkpt>
      <trkpt lat="39.737472" lon="-5.422331">
        <ele>389.8</ele>
        <time>1970-01-01T00:00:00Z</time>
      </trkpt>
      <trkpt lat="39.737481" lon="-5.422098">
        <ele>388.7</ele>
        <time>1970-01-01T00:00:00Z</time>
      </trkpt>
      <trkpt lat="39.737416" lon="-5.421767">
        <ele>388.3</ele>
        <time>1970-01-01T00:00:00Z</time>
      </trkpt>
      <trkpt lat="39.737407" lon="-5.421602">
        <ele>387.7</ele>
        <time>1970-01-01T00:00:00Z</time>
      </trkpt>
      <trkpt lat="39.737434" lon="-5.421432">
        <ele>386.7</ele>
        <time>1970-01-01T00:00:00Z</time>
      </trkpt>
      <trkpt lat="39.737777" lon="-5.420934">
        <ele>381.4</ele>
        <time>1970-01-01T00:00:00Z</time>
      </trkpt>
      <trkpt lat="39.737908" lon="-5.420702">
        <ele>379.8</ele>
        <time>1970-01-01T00:00:00Z</time>
      </trkpt>
      <trkpt lat="39.737951" lon="-5.420544">
        <ele>378.6</ele>
        <time>1970-01-01T00:00:00Z</time>
      </trkpt>
      <trkpt lat="39.737948" lon="-5.420342">
        <ele>377.5</ele>
        <time>1970-01-01T00:00:00Z</time>
      </trkpt>
      <trkpt lat="39.737865" lon="-5.419944">
        <ele>376.7</ele>
        <time>1970-01-01T00:00:00Z</time>
      </trkpt>
      <trkpt lat="39.737806" lon="-5.419030">
        <ele>372.0</ele>
        <time>1970-01-01T00:00:00Z</time>
      </trkpt>
      <trkpt lat="39.737726" lon="-5.418652">
        <ele>370.7</ele>
        <time>1970-01-01T00:00:00Z</time>
      </trkpt>
      <trkpt lat="39.737637" lon="-5.418438">
        <ele>370.1</ele>
        <time>1970-01-01T00:00:00Z</time>
      </trkpt>
      <trkpt lat="39.737453" lon="-5.418209">
        <ele>371.3</ele>
        <time>1970-01-01T00:00:00Z</time>
      </trkpt>
      <trkpt lat="39.737389" lon="-5.418089">
        <ele>371.6</ele>
        <time>1970-01-01T00:00:00Z</time>
      </trkpt>
      <trkpt lat="39.737405" lon="-5.417373">
        <ele>368.1</ele>
        <time>1970-01-01T00:00:00Z</time>
      </trkpt>
      <trkpt lat="39.737551" lon="-5.417085">
        <ele>364.4</ele>
        <time>1970-01-01T00:00:00Z</time>
      </trkpt>
      <trkpt lat="39.737589" lon="-5.416870">
        <ele>362.4</ele>
        <time>1970-01-01T00:00:00Z</time>
      </trkpt>
      <trkpt lat="39.737499" lon="-5.416333">
        <ele>361.5</ele>
        <time>1970-01-01T00:00:00Z</time>
      </trkpt>
      <trkpt lat="39.737450" lon="-5.415678">
        <ele>358.0</ele>
        <time>1970-01-01T00:00:00Z</time>
      </trkpt>
      <trkpt lat="39.737239" lon="-5.415085">
        <ele>356.3</ele>
        <time>1970-01-01T00:00:00Z</time>
      </trkpt>
      <trkpt lat="39.737110" lon="-5.414824">
        <ele>354.5</ele>
        <time>1970-01-01T00:00:00Z</time>
      </trkpt>
      <trkpt lat="39.736938" lon="-5.414665">
        <ele>353.9</ele>
        <time>1970-01-01T00:00:00Z</time>
      </trkpt>
      <trkpt lat="39.736360" lon="-5.414344">
        <ele>350.3</ele>
        <time>1970-01-01T00:00:00Z</time>
      </trkpt>
      <trkpt lat="39.736237" lon="-5.414103">
        <ele>348.7</ele>
        <time>1970-01-01T00:00:00Z</time>
      </trkpt>
      <trkpt lat="39.735991" lon="-5.413551">
        <ele>348.8</ele>
        <time>1970-01-01T00:00:00Z</time>
      </trkpt>
      <trkpt lat="39.735865" lon="-5.413295">
        <ele>349.9</ele>
        <time>1970-01-01T00:00:00Z</time>
      </trkpt>
      <trkpt lat="39.736286" lon="-5.412970">
        <ele>351.8</ele>
        <time>1970-01-01T00:00:00Z</time>
      </trkpt>
      <trkpt lat="39.736475" lon="-5.412880">
        <ele>352.9</ele>
        <time>1970-01-01T00:00:00Z</time>
      </trkpt>
      <trkpt lat="39.736453" lon="-5.412617">
        <ele>356.4</ele>
        <time>1970-01-01T00:00:00Z</time>
      </trkpt>
      <trkpt lat="39.736462" lon="-5.412499">
        <ele>358.8</ele>
        <time>1970-01-01T00:00:00Z</time>
      </trkpt>
      <trkpt lat="39.736246" lon="-5.412501">
        <ele>358.7</ele>
        <time>1970-01-01T00:00:00Z</time>
      </trkpt>
      <trkpt lat="39.736101" lon="-5.412521">
        <ele>358.1</ele>
        <time>1970-01-01T00:00:00Z</time>
      </trkpt>
      <trkpt lat="39.735998" lon="-5.412498">
        <ele>358.4</ele>
        <time>1970-01-01T00:00:00Z</time>
      </trkpt>
      <trkpt lat="39.735655" lon="-5.412520">
        <ele>357.0</ele>
        <time>1970-01-01T00:00:00Z</time>
      </trkpt>
      <trkpt lat="39.735517" lon="-5.412508">
        <ele>357.2</ele>
        <time>1970-01-01T00:00:00Z</time>
      </trkpt>
      <trkpt lat="39.735344" lon="-5.412522">
        <ele>357.0</ele>
        <time>1970-01-01T00:00:00Z</time>
      </trkpt>
      <trkpt lat="39.735244" lon="-5.412558">
        <ele>356.5</ele>
        <time>1970-01-01T00:00:00Z</time>
      </trkpt>
      <trkpt lat="39.735167" lon="-5.412568">
        <ele>356.7</ele>
        <time>1970-01-01T00:00:00Z</time>
      </trkpt>
      <trkpt lat="39.734885" lon="-5.412748">
        <ele>355.3</ele>
        <time>1970-01-01T00:00:00Z</time>
      </trkpt>
      <trkpt lat="39.734689" lon="-5.412996">
        <ele>353.9</ele>
        <time>1970-01-01T00:00:00Z</time>
      </trkpt>
      <trkpt lat="39.734636" lon="-5.413172">
        <ele>353.3</ele>
        <time>1970-01-01T00:00:00Z</time>
      </trkpt>
      <trkpt lat="39.734490" lon="-5.413334">
        <ele>352.7</ele>
        <time>1970-01-01T00:00:00Z</time>
      </trkpt>
      <trkpt lat="39.734272" lon="-5.413688">
        <ele>351.1</ele>
        <time>1970-01-01T00:00:00Z</time>
      </trkpt>
      <trkpt lat="39.734113" lon="-5.414010">
        <ele>350.0</ele>
        <time>1970-01-01T00:00:00Z</time>
      </trkpt>
      <trkpt lat="39.733998" lon="-5.414324">
        <ele>350.6</ele>
        <time>1970-01-01T00:00:00Z</time>
      </trkpt>
      <trkpt lat="39.733953" lon="-5.414397">
        <ele>350.8</ele>
        <time>1970-01-01T00:00:00Z</time>
      </trkpt>
      <trkpt lat="39.733899" lon="-5.414433">
        <ele>351.0</ele>
        <time>1970-01-01T00:00:00Z</time>
      </trkpt>
      <trkpt lat="39.733792" lon="-5.414388">
        <ele>350.9</ele>
        <time>1970-01-01T00:00:00Z</time>
      </trkpt>
      <trkpt lat="39.733567" lon="-5.414133">
        <ele>349.4</ele>
        <time>1970-01-01T00:00:00Z</time>
      </trkpt>
      <trkpt lat="39.732722" lon="-5.413233">
        <ele>350.3</ele>
        <time>1970-01-01T00:00:00Z</time>
      </trkpt>
      <trkpt lat="39.732536" lon="-5.412634">
        <ele>354.5</ele>
        <time>1970-01-01T00:00:00Z</time>
      </trkpt>
      <trkpt lat="39.732425" lon="-5.412206">
        <ele>358.7</ele>
        <time>1970-01-01T00:00:00Z</time>
      </trkpt>
      <trkpt lat="39.732360" lon="-5.412076">
        <ele>359.9</ele>
        <time>1970-01-01T00:00:00Z</time>
      </trkpt>
      <trkpt lat="39.732191" lon="-5.411966">
        <ele>362.1</ele>
        <time>1970-01-01T00:00:00Z</time>
      </trkpt>
      <trkpt lat="39.732026" lon="-5.411912">
        <ele>363.9</ele>
        <time>1970-01-01T00:00:00Z</time>
      </trkpt>
      <trkpt lat="39.731849" lon="-5.411917">
        <ele>364.7</ele>
        <time>1970-01-01T00:00:00Z</time>
      </trkpt>
      <trkpt lat="39.731497" lon="-5.411893">
        <ele>365.9</ele>
        <time>1970-01-01T00:00:00Z</time>
      </trkpt>
      <trkpt lat="39.731440" lon="-5.411824">
        <ele>366.4</ele>
        <time>1970-01-01T00:00:00Z</time>
      </trkpt>
      <trkpt lat="39.731433" lon="-5.411727">
        <ele>367.1</ele>
        <time>1970-01-01T00:00:00Z</time>
      </trkpt>
      <trkpt lat="39.731744" lon="-5.410517">
        <ele>375.5</ele>
        <time>1970-01-01T00:00:00Z</time>
      </trkpt>
      <trkpt lat="39.731782" lon="-5.410250">
        <ele>377.5</ele>
        <time>1970-01-01T00:00:00Z</time>
      </trkpt>
      <trkpt lat="39.731639" lon="-5.409725">
        <ele>385.7</ele>
        <time>1970-01-01T00:00:00Z</time>
      </trkpt>
      <trkpt lat="39.731538" lon="-5.409006">
        <ele>395.0</ele>
        <time>1970-01-01T00:00:00Z</time>
      </trkpt>
      <trkpt lat="39.731525" lon="-5.408649">
        <ele>399.2</ele>
        <time>1970-01-01T00:00:00Z</time>
      </trkpt>
      <trkpt lat="39.731629" lon="-5.408022">
        <ele>403.5</ele>
        <time>1970-01-01T00:00:00Z</time>
      </trkpt>
      <trkpt lat="39.731701" lon="-5.407831">
        <ele>404.5</ele>
        <time>1970-01-01T00:00:00Z</time>
      </trkpt>
      <trkpt lat="39.731793" lon="-5.407779">
        <ele>404.6</ele>
        <time>1970-01-01T00:00:00Z</time>
      </trkpt>
      <trkpt lat="39.731889" lon="-5.407779">
        <ele>404.5</ele>
        <time>1970-01-01T00:00:00Z</time>
      </trkpt>
      <trkpt lat="39.732002" lon="-5.407822">
        <ele>404.1</ele>
        <time>1970-01-01T00:00:00Z</time>
      </trkpt>
      <trkpt lat="39.732132" lon="-5.407850">
        <ele>403.9</ele>
        <time>1970-01-01T00:00:00Z</time>
      </trkpt>
      <trkpt lat="39.732260" lon="-5.407795">
        <ele>404.3</ele>
        <time>1970-01-01T00:00:00Z</time>
      </trkpt>
      <trkpt lat="39.732451" lon="-5.407755">
        <ele>405.5</ele>
        <time>1970-01-01T00:00:00Z</time>
      </trkpt>
      <trkpt lat="39.732526" lon="-5.407650">
        <ele>406.7</ele>
        <time>1970-01-01T00:00:00Z</time>
      </trkpt>
      <trkpt lat="39.732585" lon="-5.407508">
        <ele>408.2</ele>
        <time>1970-01-01T00:00:00Z</time>
      </trkpt>
      <trkpt lat="39.732582" lon="-5.407368">
        <ele>409.3</ele>
        <time>1970-01-01T00:00:00Z</time>
      </trkpt>
      <trkpt lat="39.732465" lon="-5.407043">
        <ele>412.0</ele>
        <time>1970-01-01T00:00:00Z</time>
      </trkpt>
      <trkpt lat="39.732420" lon="-5.406602">
        <ele>419.3</ele>
        <time>1970-01-01T00:00:00Z</time>
      </trkpt>
      <trkpt lat="39.732629" lon="-5.406301">
        <ele>423.5</ele>
        <time>1970-01-01T00:00:00Z</time>
      </trkpt>
      <trkpt lat="39.732907" lon="-5.406056">
        <ele>426.2</ele>
        <time>1970-01-01T00:00:00Z</time>
      </trkpt>
      <trkpt lat="39.733182" lon="-5.405750">
        <ele>430.7</ele>
        <time>1970-01-01T00:00:00Z</time>
      </trkpt>
      <trkpt lat="39.733450" lon="-5.405595">
        <ele>431.5</ele>
        <time>1970-01-01T00:00:00Z</time>
      </trkpt>
      <trkpt lat="39.733553" lon="-5.405550">
        <ele>430.8</ele>
        <time>1970-01-01T00:00:00Z</time>
      </trkpt>
      <trkpt lat="39.733682" lon="-5.405439">
        <ele>430.4</ele>
        <time>1970-01-01T00:00:00Z</time>
      </trkpt>
      <trkpt lat="39.733945" lon="-5.405133">
        <ele>431.1</ele>
        <time>1970-01-01T00:00:00Z</time>
      </trkpt>
      <trkpt lat="39.734227" lon="-5.404847">
        <ele>432.2</ele>
        <time>1970-01-01T00:00:00Z</time>
      </trkpt>
      <trkpt lat="39.734523" lon="-5.404452">
        <ele>433.6</ele>
        <time>1970-01-01T00:00:00Z</time>
      </trkpt>
      <trkpt lat="39.734667" lon="-5.404140">
        <ele>435.5</ele>
        <time>1970-01-01T00:00:00Z</time>
      </trkpt>
      <trkpt lat="39.734720" lon="-5.403944">
        <ele>436.3</ele>
        <time>1970-01-01T00:00:00Z</time>
      </trkpt>
      <trkpt lat="39.734744" lon="-5.403625">
        <ele>437.5</ele>
        <time>1970-01-01T00:00:00Z</time>
      </trkpt>
      <trkpt lat="39.734803" lon="-5.403336">
        <ele>437.3</ele>
        <time>1970-01-01T00:00:00Z</time>
      </trkpt>
      <trkpt lat="39.735106" lon="-5.402872">
        <ele>442.0</ele>
        <time>1970-01-01T00:00:00Z</time>
      </trkpt>
      <trkpt lat="39.735165" lon="-5.402724">
        <ele>443.6</ele>
        <time>1970-01-01T00:00:00Z</time>
      </trkpt>
      <trkpt lat="39.735223" lon="-5.402356">
        <ele>444.3</ele>
        <time>1970-01-01T00:00:00Z</time>
      </trkpt>
      <trkpt lat="39.735308" lon="-5.402134">
        <ele>446.5</ele>
        <time>1970-01-01T00:00:00Z</time>
      </trkpt>
      <trkpt lat="39.735359" lon="-5.401845">
        <ele>448.8</ele>
        <time>1970-01-01T00:00:00Z</time>
      </trkpt>
      <trkpt lat="39.735343" lon="-5.401651">
        <ele>450.3</ele>
        <time>1970-01-01T00:00:00Z</time>
      </trkpt>
      <trkpt lat="39.735175" lon="-5.401370">
        <ele>452.7</ele>
        <time>1970-01-01T00:00:00Z</time>
      </trkpt>
      <trkpt lat="39.735158" lon="-5.401308">
        <ele>453.6</ele>
        <time>1970-01-01T00:00:00Z</time>
      </trkpt>
      <trkpt lat="39.735266" lon="-5.401374">
        <ele>453.4</ele>
        <time>1970-01-01T00:00:00Z</time>
      </trkpt>
      <trkpt lat="39.735513" lon="-5.401605">
        <ele>453.1</ele>
        <time>1970-01-01T00:00:00Z</time>
      </trkpt>
      <trkpt lat="39.735670" lon="-5.401731">
        <ele>454.5</ele>
        <time>1970-01-01T00:00:00Z</time>
      </trkpt>
      <trkpt lat="39.735726" lon="-5.401821">
        <ele>455.5</ele>
        <time>1970-01-01T00:00:00Z</time>
      </trkpt>
      <trkpt lat="39.735713" lon="-5.402184">
        <ele>454.4</ele>
        <time>1970-01-01T00:00:00Z</time>
      </trkpt>
      <trkpt lat="39.735743" lon="-5.402319">
        <ele>455.5</ele>
        <time>1970-01-01T00:00:00Z</time>
      </trkpt>
      <trkpt lat="39.735865" lon="-5.402176">
        <ele>458.0</ele>
        <time>1970-01-01T00:00:00Z</time>
      </trkpt>
      <trkpt lat="39.736070" lon="-5.401654">
        <ele>462.2</ele>
        <time>1970-01-01T00:00:00Z</time>
      </trkpt>
      <trkpt lat="39.736134" lon="-5.401308">
        <ele>466.0</ele>
        <time>1970-01-01T00:00:00Z</time>
      </trkpt>
      <trkpt lat="39.736119" lon="-5.400922">
        <ele>468.5</ele>
        <time>1970-01-01T00:00:00Z</time>
      </trkpt>
      <trkpt lat="39.736073" lon="-5.400600">
        <ele>471.1</ele>
        <time>1970-01-01T00:00:00Z</time>
      </trkpt>
      <trkpt lat="39.736018" lon="-5.400380">
        <ele>473.4</ele>
        <time>1970-01-01T00:00:00Z</time>
      </trkpt>
      <trkpt lat="39.736047" lon="-5.400328">
        <ele>474.3</ele>
        <time>1970-01-01T00:00:00Z</time>
      </trkpt>
      <trkpt lat="39.736130" lon="-5.400325">
        <ele>475.1</ele>
        <time>1970-01-01T00:00:00Z</time>
      </trkpt>
      <trkpt lat="39.736296" lon="-5.400373">
        <ele>476.0</ele>
        <time>1970-01-01T00:00:00Z</time>
      </trkpt>
      <trkpt lat="39.736379" lon="-5.400382">
        <ele>476.7</ele>
        <time>1970-01-01T00:00:00Z</time>
      </trkpt>
      <trkpt lat="39.736434" lon="-5.400299">
        <ele>478.0</ele>
        <time>1970-01-01T00:00:00Z</time>
      </trkpt>
      <trkpt lat="39.736111" lon="-5.399562">
        <ele>485.0</ele>
        <time>1970-01-01T00:00:00Z</time>
      </trkpt>
      <trkpt lat="39.735849" lon="-5.398894">
        <ele>489.1</ele>
        <time>1970-01-01T00:00:00Z</time>
      </trkpt>
      <trkpt lat="39.735714" lon="-5.398489">
        <ele>491.5</ele>
        <time>1970-01-01T00:00:00Z</time>
      </trkpt>
      <trkpt lat="39.735593" lon="-5.398022">
        <ele>492.4</ele>
        <time>1970-01-01T00:00:00Z</time>
      </trkpt>
      <trkpt lat="39.735585" lon="-5.397721">
        <ele>493.7</ele>
        <time>1970-01-01T00:00:00Z</time>
      </trkpt>
      <trkpt lat="39.735720" lon="-5.397187">
        <ele>497.4</ele>
        <time>1970-01-01T00:00:00Z</time>
      </trkpt>
      <trkpt lat="39.736206" lon="-5.396427">
        <ele>501.8</ele>
        <time>1970-01-01T00:00:00Z</time>
      </trkpt>
      <trkpt lat="39.736736" lon="-5.396066">
        <ele>501.7</ele>
        <time>1970-01-01T00:00:00Z</time>
      </trkpt>
      <trkpt lat="39.737316" lon="-5.395625">
        <ele>499.0</ele>
        <time>1970-01-01T00:00:00Z</time>
      </trkpt>
      <trkpt lat="39.738137" lon="-5.394842">
        <ele>492.0</ele>
        <time>1970-01-01T00:00:00Z</time>
      </trkpt>
      <trkpt lat="39.738598" lon="-5.394263">
        <ele>488.7</ele>
        <time>1970-01-01T00:00:00Z</time>
      </trkpt>
      <trkpt lat="39.738854" lon="-5.393870">
        <ele>486.8</ele>
        <time>1970-01-01T00:00:00Z</time>
      </trkpt>
      <trkpt lat="39.738976" lon="-5.393717">
        <ele>485.7</ele>
        <time>1970-01-01T00:00:00Z</time>
      </trkpt>
      <trkpt lat="39.739064" lon="-5.393694">
        <ele>484.8</ele>
        <time>1970-01-01T00:00:00Z</time>
      </trkpt>
      <trkpt lat="39.739221" lon="-5.393683">
        <ele>483.0</ele>
        <time>1970-01-01T00:00:00Z</time>
      </trkpt>
      <trkpt lat="39.739343" lon="-5.393645">
        <ele>482.0</ele>
        <time>1970-01-01T00:00:00Z</time>
      </trkpt>
      <trkpt lat="39.739696" lon="-5.393205">
        <ele>480.0</ele>
        <time>1970-01-01T00:00:00Z</time>
      </trkpt>
      <trkpt lat="39.740073" lon="-5.392475">
        <ele>478.3</ele>
        <time>1970-01-01T00:00:00Z</time>
      </trkpt>
    </trkseg>
    <trkseg>
      <trkpt lat="39.740073" lon="-5.392475">
        <ele>478.3</ele>
        <time>1970-01-01T00:00:00Z</time>
      </trkpt>
      <trkpt lat="39.740269" lon="-5.392044">
        <ele>477.8</ele>
        <time>1970-01-01T00:00:00Z</time>
      </trkpt>
      <trkpt lat="39.740405" lon="-5.391627">
        <ele>477.3</ele>
        <time>1970-01-01T00:00:00Z</time>
      </trkpt>
      <trkpt lat="39.740502" lon="-5.391272">
        <ele>477.0</ele>
        <time>1970-01-01T00:00:00Z</time>
      </trkpt>
      <trkpt lat="39.740578" lon="-5.390852">
        <ele>476.3</ele>
        <time>1970-01-01T00:00:00Z</time>
      </trkpt>
      <trkpt lat="39.740626" lon="-5.390543">
        <ele>476.1</ele>
        <time>1970-01-01T00:00:00Z</time>
      </trkpt>
      <trkpt lat="39.740518" lon="-5.389949">
        <ele>478.6</ele>
        <time>1970-01-01T00:00:00Z</time>
      </trkpt>
      <trkpt lat="39.740972" lon="-5.389151">
        <ele>477.7</ele>
        <time>1970-01-01T00:00:00Z</time>
      </trkpt>
      <trkpt lat="39.741032" lon="-5.388893">
        <ele>478.5</ele>
        <time>1970-01-01T00:00:00Z</time>
      </trkpt>
      <trkpt lat="39.741093" lon="-5.388699">
        <ele>478.9</ele>
        <time>1970-01-01T00:00:00Z</time>
      </trkpt>
      <trkpt lat="39.741304" lon="-5.388147">
        <ele>478.0</ele>
        <time>1970-01-01T00:00:00Z</time>
      </trkpt>
      <trkpt lat="39.741076" lon="-5.387824">
        <ele>478.1</ele>
        <time>1970-01-01T00:00:00Z</time>
      </trkpt>
      <trkpt lat="39.740938" lon="-5.387589">
        <ele>478.6</ele>
        <time>1970-01-01T00:00:00Z</time>
      </trkpt>
      <trkpt lat="39.740735" lon="-5.387301">
        <ele>477.3</ele>
        <time>1970-01-01T00:00:00Z</time>
      </trkpt>
      <trkpt lat="39.740436" lon="-5.386824">
        <ele>475.0</ele>
        <time>1970-01-01T00:00:00Z</time>
      </trkpt>
      <trkpt lat="39.740394" lon="-5.386248">
        <ele>471.5</ele>
        <time>1970-01-01T00:00:00Z</time>
      </trkpt>
      <trkpt lat="39.739986" lon="-5.385089">
        <ele>464.2</ele>
        <time>1970-01-01T00:00:00Z</time>
      </trkpt>
      <trkpt lat="39.739814" lon="-5.384383">
        <ele>460.7</ele>
        <time>1970-01-01T00:00:00Z</time>
      </trkpt>
      <trkpt lat="39.739849" lon="-5.382713">
        <ele>456.0</ele>
        <time>1970-01-01T00:00:00Z</time>
      </trkpt>
      <trkpt lat="39.739738" lon="-5.381565">
        <ele>453.0</ele>
        <time>1970-01-01T00:00:00Z</time>
      </trkpt>
      <trkpt lat="39.739830" lon="-5.381420">
        <ele>453.0</ele>
        <time>1970-01-01T00:00:00Z</time>
      </trkpt>
      <trkpt lat="39.739955" lon="-5.381313">
        <ele>453.0</ele>
        <time>1970-01-01T00:00:00Z</time>
      </trkpt>
      <trkpt lat="39.740087" lon="-5.381158">
        <ele>453.0</ele>
        <time>1970-01-01T00:00:00Z</time>
      </trkpt>
      <trkpt lat="39.740368" lon="-5.380679">
        <ele>453.0</ele>
        <time>1970-01-01T00:00:00Z</time>
      </trkpt>
      <trkpt lat="39.740575" lon="-5.380241">
        <ele>453.0</ele>
        <time>1970-01-01T00:00:00Z</time>
      </trkpt>
      <trkpt lat="39.741031" lon="-5.379030">
        <ele>448.0</ele>
        <time>1970-01-01T00:00:00Z</time>
      </trkpt>
      <trkpt lat="39.741305" lon="-5.378217">
        <ele>445.1</ele>
        <time>1970-01-01T00:00:00Z</time>
      </trkpt>
      <trkpt lat="39.742395" lon="-5.375576">
        <ele>437.0</ele>
        <time>1970-01-01T00:00:00Z</time>
      </trkpt>
      <trkpt lat="39.742710" lon="-5.374857">
        <ele>436.0</ele>
        <time>1970-01-01T00:00:00Z</time>
      </trkpt>
      <trkpt lat="39.742762" lon="-5.374699">
        <ele>436.0</ele>
        <time>1970-01-01T00:00:00Z</time>
      </trkpt>
      <trkpt lat="39.742356" lon="-5.374183">
        <ele>437.0</ele>
        <time>1970-01-01T00:00:00Z</time>
      </trkpt>
      <trkpt lat="39.742305" lon="-5.374071">
        <ele>437.2</ele>
        <time>1970-01-01T00:00:00Z</time>
      </trkpt>
      <trkpt lat="39.742316" lon="-5.373959">
        <ele>437.5</ele>
        <time>1970-01-01T00:00:00Z</time>
      </trkpt>
      <trkpt lat="39.742402" lon="-5.373574">
        <ele>437.3</ele>
        <time>1970-01-01T00:00:00Z</time>
      </trkpt>
      <trkpt lat="39.742452" lon="-5.373166">
        <ele>437.1</ele>
        <time>1970-01-01T00:00:00Z</time>
      </trkpt>
      <trkpt lat="39.742507" lon="-5.372979">
        <ele>436.8</ele>
        <time>1970-01-01T00:00:00Z</time>
      </trkpt>
      <trkpt lat="39.742424" lon="-5.372680">
        <ele>436.8</ele>
        <time>1970-01-01T00:00:00Z</time>
      </trkpt>
      <trkpt lat="39.742309" lon="-5.372355">
        <ele>436.7</ele>
        <time>1970-01-01T00:00:00Z</time>
      </trkpt>
      <trkpt lat="39.742266" lon="-5.371067">
        <ele>434.0</ele>
        <time>1970-01-01T00:00:00Z</time>
      </trkpt>
      <trkpt lat="39.742247" lon="-5.370864">
        <ele>433.8</ele>
        <time>1970-01-01T00:00:00Z</time>
      </trkpt>
      <trkpt lat="39.742217" lon="-5.370735">
        <ele>433.3</ele>
        <time>1970-01-01T00:00:00Z</time>
      </trkpt>
      <trkpt lat="39.742164" lon="-5.370726">
        <ele>433.4</ele>
        <time>1970-01-01T00:00:00Z</time>
      </trkpt>
      <trkpt lat="39.742047" lon="-5.370773">
        <ele>433.9</ele>
        <time>1970-01-01T00:00:00Z</time>
      </trkpt>
      <trkpt lat="39.741581" lon="-5.371558">
        <ele>435.8</ele>
        <time>1970-01-01T00:00:00Z</time>
      </trkpt>
      <trkpt lat="39.741484" lon="-5.371801">
        <ele>436.8</ele>
        <time>1970-01-01T00:00:00Z</time>
      </trkpt>
      <trkpt lat="39.741281" lon="-5.372209">
        <ele>437.6</ele>
        <time>1970-01-01T00:00:00Z</time>
      </trkpt>
      <trkpt lat="39.741064" lon="-5.372570">
        <ele>438.0</ele>
        <time>1970-01-01T00:00:00Z</time>
      </trkpt>
      <trkpt lat="39.740591" lon="-5.372754">
        <ele>438.0</ele>
        <time>1970-01-01T00:00:00Z</time>
      </trkpt>
      <trkpt lat="39.740367" lon="-5.372887">
        <ele>438.0</ele>
        <time>1970-01-01T00:00:00Z</time>
      </trkpt>
      <trkpt lat="39.740157" lon="-5.373028">
        <ele>438.1</ele>
        <time>1970-01-01T00:00:00Z</time>
      </trkpt>
      <trkpt lat="39.739963" lon="-5.373251">
        <ele>439.1</ele>
        <time>1970-01-01T00:00:00Z</time>
      </trkpt>
      <trkpt lat="39.739596" lon="-5.373488">
        <ele>440.1</ele>
        <time>1970-01-01T00:00:00Z</time>
      </trkpt>
      <trkpt lat="39.739441" lon="-5.373532">
        <ele>440.0</ele>
        <time>1970-01-01T00:00:00Z</time>
      </trkpt>
      <trkpt lat="39.738850" lon="-5.373529">
        <ele>441.9</ele>
        <time>1970-01-01T00:00:00Z</time>
      </trkpt>
      <trkpt lat="39.738850" lon="-5.373349">
        <ele>441.1</ele>
        <time>1970-01-01T00:00:00Z</time>
      </trkpt>
      <trkpt lat="39.738803" lon="-5.373137">
        <ele>440.8</ele>
        <time>1970-01-01T00:00:00Z</time>
      </trkpt>
      <trkpt lat="39.738777" lon="-5.372909">
        <ele>441.0</ele>
        <time>1970-01-01T00:00:00Z</time>
      </trkpt>
      <trkpt lat="39.738794" lon="-5.372418">
        <ele>440.4</ele>
        <time>1970-01-01T00:00:00Z</time>
      </trkpt>
      <trkpt lat="39.738777" lon="-5.372054">
        <ele>440.0</ele>
        <time>1970-01-01T00:00:00Z</time>
      </trkpt>
      <trkpt lat="39.738623" lon="-5.370444">
        <ele>439.6</ele>
        <time>1970-01-01T00:00:00Z</time>
      </trkpt>
      <trkpt lat="39.738547" lon="-5.369957">
        <ele>441.0</ele>
        <time>1970-01-01T00:00:00Z</time>
      </trkpt>
      <trkpt lat="39.738445" lon="-5.369571">
        <ele>442.4</ele>
        <time>1970-01-01T00:00:00Z</time>
      </trkpt>
      <trkpt lat="39.738513" lon="-5.369212">
        <ele>442.1</ele>
        <time>1970-01-01T00:00:00Z</time>
      </trkpt>
      <trkpt lat="39.738642" lon="-5.368695">
        <ele>441.4</ele>
        <time>1970-01-01T00:00:00Z</time>
      </trkpt>
      <trkpt lat="39.738692" lon="-5.368381">
        <ele>440.3</ele>
        <time>1970-01-01T00:00:00Z</time>
      </trkpt>
      <trkpt lat="39.738699" lon="-5.368045">
        <ele>439.9</ele>
        <time>1970-01-01T00:00:00Z</time>
      </trkpt>
      <trkpt lat="39.738553" lon="-5.367146">
        <ele>436.7</ele>
        <time>1970-01-01T00:00:00Z</time>
      </trkpt>
      <trkpt lat="39.738480" lon="-5.365111">
        <ele>435.2</ele>
        <time>1970-01-01T00:00:00Z</time>
      </trkpt>
      <trkpt lat="39.738394" lon="-5.364654">
        <ele>435.6</ele>
        <time>1970-01-01T00:00:00Z</time>
      </trkpt>
      <trkpt lat="39.738235" lon="-5.364231">
        <ele>435.4</ele>
        <time>1970-01-01T00:00:00Z</time>
      </trkpt>
      <trkpt lat="39.737826" lon="-5.363619">
        <ele>436.1</ele>
        <time>1970-01-01T00:00:00Z</time>
      </trkpt>
      <trkpt lat="39.736838" lon="-5.362412">
        <ele>436.0</ele>
        <time>1970-01-01T00:00:00Z</time>
      </trkpt>
      <trkpt lat="39.736785" lon="-5.362326">
        <ele>436.0</ele>
        <time>1970-01-01T00:00:00Z</time>
      </trkpt>
      <trkpt lat="39.736797" lon="-5.362258">
        <ele>436.0</ele>
        <time>1970-01-01T00:00:00Z</time>
      </trkpt>
      <trkpt lat="39.736723" lon="-5.362156">
        <ele>436.0</ele>
        <time>1970-01-01T00:00:00Z</time>
      </trkpt>
      <trkpt lat="39.736737" lon="-5.361574">
        <ele>435.0</ele>
        <time>1970-01-01T00:00:00Z</time>
      </trkpt>
      <trkpt lat="39.736728" lon="-5.361097">
        <ele>434.6</ele>
        <time>1970-01-01T00:00:00Z</time>
      </trkpt>
      <trkpt lat="39.736759" lon="-5.360876">
        <ele>433.9</ele>
        <time>1970-01-01T00:00:00Z</time>
      </trkpt>
      <trkpt lat="39.736843" lon="-5.360471">
        <ele>432.5</ele>
        <time>1970-01-01T00:00:00Z</time>
      </trkpt>
      <trkpt lat="39.736889" lon="-5.360082">
        <ele>431.4</ele>
        <time>1970-01-01T00:00:00Z</time>
      </trkpt>
      <trkpt lat="39.736898" lon="-5.359683">
        <ele>431.0</ele>
        <time>1970-01-01T00:00:00Z</time>
      </trkpt>
      <trkpt lat="39.737036" lon="-5.358803">
        <ele>429.5</ele>
        <time>1970-01-01T00:00:00Z</time>
      </trkpt>
      <trkpt lat="39.737068" lon="-5.358446">
        <ele>429.3</ele>
        <time>1970-01-01T00:00:00Z</time>
      </trkpt>
      <trkpt lat="39.737058" lon="-5.357984">
        <ele>430.0</ele>
        <time>1970-01-01T00:00:00Z</time>
      </trkpt>
      <trkpt lat="39.737167" lon="-5.357209">
        <ele>431.0</ele>
        <time>1970-01-01T00:00:00Z</time>
      </trkpt>
      <trkpt lat="39.737212" lon="-5.356502">
        <ele>432.2</ele>
        <time>1970-01-01T00:00:00Z</time>
      </trkpt>
      <trkpt lat="39.737366" lon="-5.355855">
        <ele>432.0</ele>
        <time>1970-01-01T00:00:00Z</time>
      </trkpt>
      <trkpt lat="39.737382" lon="-5.355569">
        <ele>431.9</ele>
        <time>1970-01-01T00:00:00Z</time>
      </trkpt>
      <trkpt lat="39.737352" lon="-5.355326">
        <ele>432.1</ele>
        <time>1970-01-01T00:00:00Z</time>
      </trkpt>
      <trkpt lat="39.737267" lon="-5.355010">
        <ele>432.5</ele>
        <time>1970-01-01T00:00:00Z</time>
      </trkpt>
      <trkpt lat="39.736947" lon="-5.354334">
        <ele>433.5</ele>
        <time>1970-01-01T00:00:00Z</time>
      </trkpt>
      <trkpt lat="39.736959" lon="-5.353861">
        <ele>433.9</ele>
        <time>1970-01-01T00:00:00Z</time>
      </trkpt>
      <trkpt lat="39.736668" lon="-5.352305">
        <ele>433.0</ele>
        <time>1970-01-01T00:00:00Z</time>
      </trkpt>
      <trkpt lat="39.736471" lon="-5.352051">
        <ele>432.9</ele>
        <time>1970-01-01T00:00:00Z</time>
      </trkpt>
      <trkpt lat="39.736755" lon="-5.351097">
        <ele>431.0</ele>
        <time>1970-01-01T00:00:00Z</time>
      </trkpt>
      <trkpt lat="39.736830" lon="-5.350769">
        <ele>431.7</ele>
        <time>1970-01-01T00:00:00Z</time>
      </trkpt>
      <trkpt lat="39.736686" lon="-5.350571">
        <ele>431.0</ele>
        <time>1970-01-01T00:00:00Z</time>
      </trkpt>
      <trkpt lat="39.736653" lon="-5.350422">
        <ele>430.9</ele>
        <time>1970-01-01T00:00:00Z</time>
      </trkpt>
      <trkpt lat="39.736589" lon="-5.350005">
        <ele>431.9</ele>
        <time>1970-01-01T00:00:00Z</time>
      </trkpt>
      <trkpt lat="39.736479" lon="-5.349873">
        <ele>432.0</ele>
        <time>1970-01-01T00:00:00Z</time>
      </trkpt>
      <trkpt lat="39.736348" lon="-5.349844">
        <ele>431.6</ele>
        <time>1970-01-01T00:00:00Z</time>
      </trkpt>
      <trkpt lat="39.736036" lon="-5.349870">
        <ele>430.9</ele>
        <time>1970-01-01T00:00:00Z</time>
      </trkpt>
      <trkpt lat="39.735903" lon="-5.349866">
        <ele>431.0</ele>
        <time>1970-01-01T00:00:00Z</time>
      </trkpt>
      <trkpt lat="39.735626" lon="-5.349804">
        <ele>431.9</ele>
        <time>1970-01-01T00:00:00Z</time>
      </trkpt>
      <trkpt lat="39.735378" lon="-5.349695">
        <ele>434.0</ele>
        <time>1970-01-01T00:00:00Z</time>
      </trkpt>
      <trkpt lat="39.735389" lon="-5.349631">
        <ele>434.5</ele>
        <time>1970-01-01T00:00:00Z</time>
      </trkpt>
      <trkpt lat="39.735267" lon="-5.349548">
        <ele>435.4</ele>
        <time>1970-01-01T00:00:00Z</time>
      </trkpt>
      <trkpt lat="39.734882" lon="-5.349236">
        <ele>437.7</ele>
        <time>1970-01-01T00:00:00Z</time>
      </trkpt>
      <trkpt lat="39.734733" lon="-5.348872">
        <ele>438.8</ele>
        <time>1970-01-01T00:00:00Z</time>
      </trkpt>
      <trkpt lat="39.734685" lon="-5.348784">
        <ele>439.0</ele>
        <time>1970-01-01T00:00:00Z</time>
      </trkpt>
      <trkpt lat="39.734609" lon="-5.348686">
        <ele>439.1</ele>
        <time>1970-01-01T00:00:00Z</time>
      </trkpt>
      <trkpt lat="39.734546" lon="-5.348688">
        <ele>438.8</ele>
        <time>1970-01-01T00:00:00Z</time>
      </trkpt>
      <trkpt lat="39.734442" lon="-5.348653">
        <ele>438.5</ele>
        <time>1970-01-01T00:00:00Z</time>
      </trkpt>
      <trkpt lat="39.734350" lon="-5.348605">
        <ele>438.3</ele>
        <time>1970-01-01T00:00:00Z</time>
      </trkpt>
      <trkpt lat="39.734234" lon="-5.348495">
        <ele>438.3</ele>
        <time>1970-01-01T00:00:00Z</time>
      </trkpt>
      <trkpt lat="39.734144" lon="-5.348139">
        <ele>439.4</ele>
        <time>1970-01-01T00:00:00Z</time>
      </trkpt>
      <trkpt lat="39.734002" lon="-5.347808">
        <ele>440.4</ele>
        <time>1970-01-01T00:00:00Z</time>
      </trkpt>
      <trkpt lat="39.733637" lon="-5.347435">
        <ele>442.4</ele>
        <time>1970-01-01T00:00:00Z</time>
      </trkpt>
      <trkpt lat="39.733351" lon="-5.347070">
        <ele>444.6</ele>
        <time>1970-01-01T00:00:00Z</time>
      </trkpt>
      <trkpt lat="39.733285" lon="-5.347038">
        <ele>444.6</ele>
        <time>1970-01-01T00:00:00Z</time>
      </trkpt>
      <trkpt lat="39.733259" lon="-5.347010">
        <ele>444.7</ele>
        <time>1970-01-01T00:00:00Z</time>
      </trkpt>
      <trkpt lat="39.733138" lon="-5.346754">
        <ele>446.1</ele>
        <time>1970-01-01T00:00:00Z</time>
      </trkpt>
      <trkpt lat="39.733027" lon="-5.346592">
        <ele>446.2</ele>
        <time>1970-01-01T00:00:00Z</time>
      </trkpt>
      <trkpt lat="39.732969" lon="-5.346538">
        <ele>446.0</ele>
        <time>1970-01-01T00:00:00Z</time>
      </trkpt>
      <trkpt lat="39.732918" lon="-5.346415">
        <ele>446.0</ele>
        <time>1970-01-01T00:00:00Z</time>
      </trkpt>
      <trkpt lat="39.732779" lon="-5.346198">
        <ele>447.6</ele>
        <time>1970-01-01T00:00:00Z</time>
      </trkpt>
      <trkpt lat="39.732335" lon="-5.345734">
        <ele>447.4</ele>
        <time>1970-01-01T00:00:00Z</time>
      </trkpt>
      <trkpt lat="39.732244" lon="-5.345686">
        <ele>446.8</ele>
        <time>1970-01-01T00:00:00Z</time>
      </trkpt>
      <trkpt lat="39.732078" lon="-5.345411">
        <ele>447.0</ele>
        <time>1970-01-01T00:00:00Z</time>
      </trkpt>
      <trkpt lat="39.731976" lon="-5.345395">
        <ele>446.4</ele>
        <time>1970-01-01T00:00:00Z</time>
      </trkpt>
      <trkpt lat="39.731854" lon="-5.345300">
        <ele>445.3</ele>
        <time>1970-01-01T00:00:00Z</time>
      </trkpt>
      <trkpt lat="39.731733" lon="-5.345244">
        <ele>445.0</ele>
        <time>1970-01-01T00:00:00Z</time>
      </trkpt>
      <trkpt lat="39.731506" lon="-5.345244">
        <ele>444.6</ele>
        <time>1970-01-01T00:00:00Z</time>
      </trkpt>
      <trkpt lat="39.731343" lon="-5.345194">
        <ele>444.1</ele>
        <time>1970-01-01T00:00:00Z</time>
      </trkpt>
      <trkpt lat="39.731236" lon="-5.344716">
        <ele>445.6</ele>
        <time>1970-01-01T00:00:00Z</time>
      </trkpt>
      <trkpt lat="39.731240" lon="-5.344551">
        <ele>445.9</ele>
        <time>1970-01-01T00:00:00Z</time>
      </trkpt>
      <trkpt lat="39.731266" lon="-5.344376">
        <ele>446.6</ele>
        <time>1970-01-01T00:00:00Z</time>
      </trkpt>
      <trkpt lat="39.731268" lon="-5.344188">
        <ele>447.5</ele>
        <time>1970-01-01T00:00:00Z</time>
      </trkpt>
      <trkpt lat="39.731177" lon="-5.343686">
        <ele>449.6</ele>
        <time>1970-01-01T00:00:00Z</time>
      </trkpt>
      <trkpt lat="39.731153" lon="-5.343567">
        <ele>450.2</ele>
        <time>1970-01-01T00:00:00Z</time>
      </trkpt>
      <trkpt lat="39.730997" lon="-5.343268">
        <ele>452.2</ele>
        <time>1970-01-01T00:00:00Z</time>
      </trkpt>
      <trkpt lat="39.730943" lon="-5.343113">
        <ele>453.1</ele>
        <time>1970-01-01T00:00:00Z</time>
      </trkpt>
      <trkpt lat="39.730932" lon="-5.342592">
        <ele>455.4</ele>
        <time>1970-01-01T00:00:00Z</time>
      </trkpt>
      <trkpt lat="39.730940" lon="-5.342473">
        <ele>455.9</ele>
        <time>1970-01-01T00:00:00Z</time>
      </trkpt>
      <trkpt lat="39.730992" lon="-5.342374">
        <ele>456.3</ele>
        <time>1970-01-01T00:00:00Z</time>
      </trkpt>
      <trkpt lat="39.731094" lon="-5.342298">
        <ele>456.6</ele>
        <time>1970-01-01T00:00:00Z</time>
      </trkpt>
      <trkpt lat="39.731139" lon="-5.342241">
        <ele>456.9</ele>
        <time>1970-01-01T00:00:00Z</time>
      </trkpt>
      <trkpt lat="39.731125" lon="-5.342176">
        <ele>457.2</ele>
        <time>1970-01-01T00:00:00Z</time>
      </trkpt>
      <trkpt lat="39.731096" lon="-5.342101">
        <ele>457.4</ele>
        <time>1970-01-01T00:00:00Z</time>
      </trkpt>
      <trkpt lat="39.730966" lon="-5.341931">
        <ele>457.4</ele>
        <time>1970-01-01T00:00:00Z</time>
      </trkpt>
      <trkpt lat="39.730739" lon="-5.341575">
        <ele>457.0</ele>
        <time>1970-01-01T00:00:00Z</time>
      </trkpt>
      <trkpt lat="39.730442" lon="-5.340814">
        <ele>455.1</ele>
        <time>1970-01-01T00:00:00Z</time>
      </trkpt>
      <trkpt lat="39.729629" lon="-5.339431">
        <ele>456.0</ele>
        <time>1970-01-01T00:00:00Z</time>
      </trkpt>
      <trkpt lat="39.728993" lon="-5.339389">
        <ele>458.4</ele>
        <time>1970-01-01T00:00:00Z</time>
      </trkpt>
      <trkpt lat="39.728672" lon="-5.339403">
        <ele>459.7</ele>
        <time>1970-01-01T00:00:00Z</time>
      </trkpt>
      <trkpt lat="39.728129" lon="-5.339454">
        <ele>462.8</ele>
        <time>1970-01-01T00:00:00Z</time>
      </trkpt>
      <trkpt lat="39.728089" lon="-5.339169">
        <ele>463.0</ele>
        <time>1970-01-01T00:00:00Z</time>
      </trkpt>
      <trkpt lat="39.728047" lon="-5.338733">
        <ele>464.0</ele>
        <time>1970-01-01T00:00:00Z</time>
      </trkpt>
      <trkpt lat="39.728084" lon="-5.338504">
        <ele>465.0</ele>
        <time>1970-01-01T00:00:00Z</time>
      </trkpt>
      <trkpt lat="39.728153" lon="-5.338251">
        <ele>465.9</ele>
        <time>1970-01-01T00:00:00Z</time>
      </trkpt>
      <trkpt lat="39.728197" lon="-5.338013">
        <ele>466.8</ele>
        <time>1970-01-01T00:00:00Z</time>
      </trkpt>
      <trkpt lat="39.728210" lon="-5.337776">
        <ele>467.7</ele>
        <time>1970-01-01T00:00:00Z</time>
      </trkpt>
      <trkpt lat="39.728183" lon="-5.337501">
        <ele>469.0</ele>
        <time>1970-01-01T00:00:00Z</time>
      </trkpt>
      <trkpt lat="39.728166" lon="-5.337118">
        <ele>470.8</ele>
        <time>1970-01-01T00:00:00Z</time>
      </trkpt>
      <trkpt lat="39.728163" lon="-5.336713">
        <ele>471.0</ele>
        <time>1970-01-01T00:00:00Z</time>
      </trkpt>
      <trkpt lat="39.728162" lon="-5.336357">
        <ele>471.9</ele>
        <time>1970-01-01T00:00:00Z</time>
      </trkpt>
      <trkpt lat="39.728207" lon="-5.336127">
        <ele>472.2</ele>
        <time>1970-01-01T00:00:00Z</time>
      </trkpt>
      <trkpt lat="39.728332" lon="-5.335980">
        <ele>472.1</ele>
        <time>1970-01-01T00:00:00Z</time>
      </trkpt>
      <trkpt lat="39.729325" lon="-5.335060">
        <ele>475.7</ele>
        <time>1970-01-01T00:00:00Z</time>
      </trkpt>
      <trkpt lat="39.730242" lon="-5.334318">
        <ele>480.3</ele>
        <time>1970-01-01T00:00:00Z</time>
      </trkpt>
      <trkpt lat="39.730993" lon="-5.333837">
        <ele>487.5</ele>
        <time>1970-01-01T00:00:00Z</time>
      </trkpt>
      <trkpt lat="39.730936" lon="-5.333653">
        <ele>487.4</ele>
        <time>1970-01-01T00:00:00Z</time>
      </trkpt>
      <trkpt lat="39.730915" lon="-5.333440">
        <ele>487.1</ele>
        <time>1970-01-01T00:00:00Z</time>
      </trkpt>
      <trkpt lat="39.730834" lon="-5.333106">
        <ele>485.3</ele>
        <time>1970-01-01T00:00:00Z</time>
      </trkpt>
      <trkpt lat="39.730822" lon="-5.332950">
        <ele>485.0</ele>
        <time>1970-01-01T00:00:00Z</time>
      </trkpt>
      <trkpt lat="39.730761" lon="-5.332659">
        <ele>484.1</ele>
        <time>1970-01-01T00:00:00Z</time>
      </trkpt>
      <trkpt lat="39.730465" lon="-5.332395">
        <ele>482.6</ele>
        <time>1970-01-01T00:00:00Z</time>
      </trkpt>
      <trkpt lat="39.730380" lon="-5.332169">
        <ele>482.0</ele>
        <time>1970-01-01T00:00:00Z</time>
      </trkpt>
      <trkpt lat="39.730095" lon="-5.331547">
        <ele>482.0</ele>
        <time>1970-01-01T00:00:00Z</time>
      </trkpt>
      <trkpt lat="39.729959" lon="-5.331113">
        <ele>482.0</ele>
        <time>1970-01-01T00:00:00Z</time>
      </trkpt>
      <trkpt lat="39.729890" lon="-5.330451">
        <ele>481.3</ele>
        <time>1970-01-01T00:00:00Z</time>
      </trkpt>
      <trkpt lat="39.730108" lon="-5.330165">
        <ele>480.4</ele>
        <time>1970-01-01T00:00:00Z</time>
      </trkpt>
      <trkpt lat="39.730147" lon="-5.329749">
        <ele>480.2</ele>
        <time>1970-01-01T00:00:00Z</time>
      </trkpt>
      <trkpt lat="39.730144" lon="-5.329324">
        <ele>480.2</ele>
        <time>1970-01-01T00:00:00Z</time>
      </trkpt>
      <trkpt lat="39.730166" lon="-5.329063">
        <ele>480.1</ele>
        <time>1970-01-01T00:00:00Z</time>
      </trkpt>
      <trkpt lat="39.730084" lon="-5.328606">
        <ele>479.1</ele>
        <time>1970-01-01T00:00:00Z</time>
      </trkpt>
      <trkpt lat="39.729841" lon="-5.327958">
        <ele>477.4</ele>
        <time>1970-01-01T00:00:00Z</time>
      </trkpt>
      <trkpt lat="39.729583" lon="-5.327702">
        <ele>477.2</ele>
        <time>1970-01-01T00:00:00Z</time>
      </trkpt>
      <trkpt lat="39.729444" lon="-5.327599">
        <ele>476.9</ele>
        <time>1970-01-01T00:00:00Z</time>
      </trkpt>
      <trkpt lat="39.729297" lon="-5.327520">
        <ele>476.5</ele>
        <time>1970-01-01T00:00:00Z</time>
      </trkpt>
      <trkpt lat="39.729195" lon="-5.327487">
        <ele>476.7</ele>
        <time>1970-01-01T00:00:00Z</time>
      </trkpt>
      <trkpt lat="39.729013" lon="-5.327236">
        <ele>476.4</ele>
        <time>1970-01-01T00:00:00Z</time>
      </trkpt>
      <trkpt lat="39.728994" lon="-5.327110">
        <ele>476.0</ele>
        <time>1970-01-01T00:00:00Z</time>
      </trkpt>
      <trkpt lat="39.729011" lon="-5.326784">
        <ele>474.5</ele>
        <time>1970-01-01T00:00:00Z</time>
      </trkpt>
      <trkpt lat="39.728911" lon="-5.326605">
        <ele>474.1</ele>
        <time>1970-01-01T00:00:00Z</time>
      </trkpt>
      <trkpt lat="39.728856" lon="-5.326406">
        <ele>473.5</ele>
        <time>1970-01-01T00:00:00Z</time>
      </trkpt>
      <trkpt lat="39.728896" lon="-5.326304">
        <ele>472.9</ele>
        <time>1970-01-01T00:00:00Z</time>
      </trkpt>
      <trkpt lat="39.729009" lon="-5.326090">
        <ele>471.5</ele>
        <time>1970-01-01T00:00:00Z</time>
      </trkpt>
      <trkpt lat="39.729140" lon="-5.325351">
        <ele>468.7</ele>
        <time>1970-01-01T00:00:00Z</time>
      </trkpt>
      <trkpt lat="39.729179" lon="-5.324925">
        <ele>466.0</ele>
        <time>1970-01-01T00:00:00Z</time>
      </trkpt>
      <trkpt lat="39.729166" lon="-5.324742">
        <ele>464.7</ele>
        <time>1970-01-01T00:00:00Z</time>
      </trkpt>
      <trkpt lat="39.728998" lon="-5.324186">
        <ele>463.3</ele>
        <time>1970-01-01T00:00:00Z</time>
      </trkpt>
      <trkpt lat="39.728938" lon="-5.324021">
        <ele>463.4</ele>
        <time>1970-01-01T00:00:00Z</time>
      </trkpt>
      <trkpt lat="39.728784" lon="-5.323724">
        <ele>465.0</ele>
        <time>1970-01-01T00:00:00Z</time>
      </trkpt>
      <trkpt lat="39.728780" lon="-5.323660">
        <ele>465.1</ele>
        <time>1970-01-01T00:00:00Z</time>
      </trkpt>
      <trkpt lat="39.728927" lon="-5.322946">
        <ele>466.1</ele>
        <time>1970-01-01T00:00:00Z</time>
      </trkpt>
      <trkpt lat="39.729126" lon="-5.322644">
        <ele>466.5</ele>
        <time>1970-01-01T00:00:00Z</time>
      </trkpt>
      <trkpt lat="39.729164" lon="-5.322546">
        <ele>467.0</ele>
        <time>1970-01-01T00:00:00Z</time>
      </trkpt>
      <trkpt lat="39.729182" lon="-5.322426">
        <ele>467.0</ele>
        <time>1970-01-01T00:00:00Z</time>
      </trkpt>
      <trkpt lat="39.729302" lon="-5.322321">
        <ele>467.0</ele>
        <time>1970-01-01T00:00:00Z</time>
      </trkpt>
      <trkpt lat="39.729334" lon="-5.322238">
        <ele>467.0</ele>
        <time>1970-01-01T00:00:00Z</time>
      </trkpt>
      <trkpt lat="39.729436" lon="-5.322106">
        <ele>467.0</ele>
        <time>1970-01-01T00:00:00Z</time>
      </trkpt>
      <trkpt lat="39.729451" lon="-5.322023">
        <ele>467.2</ele>
        <time>1970-01-01T00:00:00Z</time>
      </trkpt>
      <trkpt lat="39.729434" lon="-5.321610">
        <ele>468.0</ele>
        <time>1970-01-01T00:00:00Z</time>
      </trkpt>
      <trkpt lat="39.729390" lon="-5.321356">
        <ele>468.0</ele>
        <time>1970-01-01T00:00:00Z</time>
      </trkpt>
      <trkpt lat="39.729370" lon="-5.321138">
        <ele>468.6</ele>
        <time>1970-01-01T00:00:00Z</time>
      </trkpt>
      <trkpt lat="39.729380" lon="-5.320716">
        <ele>469.9</ele>
        <time>1970-01-01T00:00:00Z</time>
      </trkpt>
      <trkpt lat="39.729412" lon="-5.320525">
        <ele>470.7</ele>
        <time>1970-01-01T00:00:00Z</time>
      </trkpt>
      <trkpt lat="39.729448" lon="-5.319889">
        <ele>472.7</ele>
        <time>1970-01-01T00:00:00Z</time>
      </trkpt>
      <trkpt lat="39.729437" lon="-5.319565">
        <ele>474.1</ele>
        <time>1970-01-01T00:00:00Z</time>
      </trkpt>
      <trkpt lat="39.729446" lon="-5.319237">
        <ele>475.4</ele>
        <time>1970-01-01T00:00:00Z</time>
      </trkpt>
      <trkpt lat="39.729426" lon="-5.319073">
        <ele>476.0</ele>
        <time>1970-01-01T00:00:00Z</time>
      </trkpt>
      <trkpt lat="39.729391" lon="-5.318919">
        <ele>476.0</ele>
        <time>1970-01-01T00:00:00Z</time>
      </trkpt>
      <trkpt lat="39.729395" lon="-5.318820">
        <ele>476.0</ele>
        <time>1970-01-01T00:00:00Z</time>
      </trkpt>
      <trkpt lat="39.729455" lon="-5.318558">
        <ele>475.0</ele>
        <time>1970-01-01T00:00:00Z</time>
      </trkpt>
      <trkpt lat="39.729481" lon="-5.318322">
        <ele>473.9</ele>
        <time>1970-01-01T00:00:00Z</time>
      </trkpt>
      <trkpt lat="39.729236" lon="-5.317037">
        <ele>470.4</ele>
        <time>1970-01-01T00:00:00Z</time>
      </trkpt>
      <trkpt lat="39.729216" lon="-5.316636">
        <ele>468.7</ele>
        <time>1970-01-01T00:00:00Z</time>
      </trkpt>
      <trkpt lat="39.729220" lon="-5.316431">
        <ele>468.1</ele>
        <time>1970-01-01T00:00:00Z</time>
      </trkpt>
      <trkpt lat="39.728707" lon="-5.314880">
        <ele>466.4</ele>
        <time>1970-01-01T00:00:00Z</time>
      </trkpt>
      <trkpt lat="39.728639" lon="-5.314661">
        <ele>465.7</ele>
        <time>1970-01-01T00:00:00Z</time>
      </trkpt>
      <trkpt lat="39.728635" lon="-5.314584">
        <ele>464.8</ele>
        <time>1970-01-01T00:00:00Z</time>
      </trkpt>
      <trkpt lat="39.728566" lon="-5.314483">
        <ele>463.6</ele>
        <time>1970-01-01T00:00:00Z</time>
      </trkpt>
      <trkpt lat="39.728475" lon="-5.314300">
        <ele>461.8</ele>
        <time>1970-01-01T00:00:00Z</time>
      </trkpt>
      <trkpt lat="39.728445" lon="-5.314269">
        <ele>461.6</ele>
        <time>1970-01-01T00:00:00Z</time>
      </trkpt>
      <trkpt lat="39.728453" lon="-5.314160">
        <ele>460.4</ele>
        <time>1970-01-01T00:00:00Z</time>
      </trkpt>
      <trkpt lat="39.728378" lon="-5.313990">
        <ele>458.2</ele>
        <time>1970-01-01T00:00:00Z</time>
      </trkpt>
      <trkpt lat="39.728335" lon="-5.313850">
        <ele>456.4</ele>
        <time>1970-01-01T00:00:00Z</time>
      </trkpt>
      <trkpt lat="39.728311" lon="-5.313622">
        <ele>454.0</ele>
        <time>1970-01-01T00:00:00Z</time>
      </trkpt>
      <trkpt lat="39.728319" lon="-5.313489">
        <ele>452.8</ele>
        <time>1970-01-01T00:00:00Z</time>
      </trkpt>
      <trkpt lat="39.728233" lon="-5.313049">
        <ele>448.6</ele>
        <time>1970-01-01T00:00:00Z</time>
      </trkpt>
      <trkpt lat="39.728228" lon="-5.312891">
        <ele>447.5</ele>
        <time>1970-01-01T00:00:00Z</time>
      </trkpt>
      <trkpt lat="39.728200" lon="-5.312752">
        <ele>446.6</ele>
        <time>1970-01-01T00:00:00Z</time>
      </trkpt>
      <trkpt lat="39.728187" lon="-5.312643">
        <ele>446.0</ele>
        <time>1970-01-01T00:00:00Z</time>
      </trkpt>
      <trkpt lat="39.728193" lon="-5.312618">
        <ele>445.9</ele>
        <time>1970-01-01T00:00:00Z</time>
      </trkpt>
      <trkpt lat="39.728154" lon="-5.312484">
        <ele>445.4</ele>
        <time>1970-01-01T00:00:00Z</time>
      </trkpt>
      <trkpt lat="39.728099" lon="-5.312366">
        <ele>445.1</ele>
        <time>1970-01-01T00:00:00Z</time>
      </trkpt>
      <trkpt lat="39.728092" lon="-5.312247">
        <ele>444.2</ele>
        <time>1970-01-01T00:00:00Z</time>
      </trkpt>
      <trkpt lat="39.727984" lon="-5.311455">
        <ele>441.7</ele>
        <time>1970-01-01T00:00:00Z</time>
      </trkpt>
      <trkpt lat="39.727935" lon="-5.310856">
        <ele>440.5</ele>
        <time>1970-01-01T00:00:00Z</time>
      </trkpt>
      <trkpt lat="39.727944" lon="-5.310573">
        <ele>439.8</ele>
        <time>1970-01-01T00:00:00Z</time>
      </trkpt>
      <trkpt lat="39.727971" lon="-5.310282">
        <ele>437.7</ele>
        <time>1970-01-01T00:00:00Z</time>
      </trkpt>
      <trkpt lat="39.728013" lon="-5.310103">
        <ele>436.4</ele>
        <time>1970-01-01T00:00:00Z</time>
      </trkpt>
      <trkpt lat="39.728070" lon="-5.309991">
        <ele>435.8</ele>
        <time>1970-01-01T00:00:00Z</time>
      </trkpt>
      <trkpt lat="39.728099" lon="-5.309778">
        <ele>434.8</ele>
        <time>1970-01-01T00:00:00Z</time>
      </trkpt>
      <trkpt lat="39.728102" lon="-5.309558">
        <ele>433.0</ele>
        <time>1970-01-01T00:00:00Z</time>
      </trkpt>
      <trkpt lat="39.728123" lon="-5.309354">
        <ele>433.0</ele>
        <time>1970-01-01T00:00:00Z</time>
      </trkpt>
      <trkpt lat="39.728190" lon="-5.309141">
        <ele>431.8</ele>
        <time>1970-01-01T00:00:00Z</time>
      </trkpt>
      <trkpt lat="39.728250" lon="-5.309002">
        <ele>430.9</ele>
        <time>1970-01-01T00:00:00Z</time>
      </trkpt>
      <trkpt lat="39.728486" lon="-5.308768">
        <ele>428.9</ele>
        <time>1970-01-01T00:00:00Z</time>
      </trkpt>
      <trkpt lat="39.728543" lon="-5.308669">
        <ele>428.2</ele>
        <time>1970-01-01T00:00:00Z</time>
      </trkpt>
      <trkpt lat="39.728673" lon="-5.308066">
        <ele>426.1</ele>
        <time>1970-01-01T00:00:00Z</time>
      </trkpt>
      <trkpt lat="39.728844" lon="-5.307822">
        <ele>424.4</ele>
        <time>1970-01-01T00:00:00Z</time>
      </trkpt>
      <trkpt lat="39.728893" lon="-5.307727">
        <ele>424.0</ele>
        <time>1970-01-01T00:00:00Z</time>
      </trkpt>
      <trkpt lat="39.728910" lon="-5.307659">
        <ele>423.7</ele>
        <time>1970-01-01T00:00:00Z</time>
      </trkpt>
      <trkpt lat="39.728882" lon="-5.307423">
        <ele>422.7</ele>
        <time>1970-01-01T00:00:00Z</time>
      </trkpt>
      <trkpt lat="39.728805" lon="-5.307097">
        <ele>422.0</ele>
        <time>1970-01-01T00:00:00Z</time>
      </trkpt>
      <trkpt lat="39.728734" lon="-5.306927">
        <ele>421.6</ele>
        <time>1970-01-01T00:00:00Z</time>
      </trkpt>
      <trkpt lat="39.728570" lon="-5.306232">
        <ele>418.6</ele>
        <time>1970-01-01T00:00:00Z</time>
      </trkpt>
      <trkpt lat="39.728497" lon="-5.305985">
        <ele>418.3</ele>
        <time>1970-01-01T00:00:00Z</time>
      </trkpt>
      <trkpt lat="39.728382" lon="-5.305268">
        <ele>416.9</ele>
        <time>1970-01-01T00:00:00Z</time>
      </trkpt>
      <trkpt lat="39.728396" lon="-5.305115">
        <ele>416.8</ele>
        <time>1970-01-01T00:00:00Z</time>
      </trkpt>
      <trkpt lat="39.728459" lon="-5.305011">
        <ele>416.5</ele>
        <time>1970-01-01T00:00:00Z</time>
      </trkpt>
      <trkpt lat="39.728562" lon="-5.304908">
        <ele>415.9</ele>
        <time>1970-01-01T00:00:00Z</time>
      </trkpt>
      <trkpt lat="39.728669" lon="-5.304828">
        <ele>415.1</ele>
        <time>1970-01-01T00:00:00Z</time>
      </trkpt>
      <trkpt lat="39.728724" lon="-5.304721">
        <ele>414.4</ele>
        <time>1970-01-01T00:00:00Z</time>
      </trkpt>
      <trkpt lat="39.728748" lon="-5.304586">
        <ele>413.9</ele>
        <time>1970-01-01T00:00:00Z</time>
      </trkpt>
      <trkpt lat="39.728754" lon="-5.304396">
        <ele>413.4</ele>
        <time>1970-01-01T00:00:00Z</time>
      </trkpt>
      <trkpt lat="39.728731" lon="-5.303909">
        <ele>413.0</ele>
        <time>1970-01-01T00:00:00Z</time>
      </trkpt>
      <trkpt lat="39.728739" lon="-5.303326">
        <ele>411.3</ele>
        <time>1970-01-01T00:00:00Z</time>
      </trkpt>
      <trkpt lat="39.728768" lon="-5.303172">
        <ele>411.2</ele>
        <time>1970-01-01T00:00:00Z</time>
      </trkpt>
      <trkpt lat="39.728859" lon="-5.302950">
        <ele>411.0</ele>
        <time>1970-01-01T00:00:00Z</time>
      </trkpt>
      <trkpt lat="39.728920" lon="-5.302744">
        <ele>411.0</ele>
        <time>1970-01-01T00:00:00Z</time>
      </trkpt>
      <trkpt lat="39.728928" lon="-5.302646">
        <ele>411.0</ele>
        <time>1970-01-01T00:00:00Z</time>
      </trkpt>
      <trkpt lat="39.728913" lon="-5.302510">
        <ele>411.0</ele>
        <time>1970-01-01T00:00:00Z</time>
      </trkpt>
      <trkpt lat="39.728918" lon="-5.302381">
        <ele>411.0</ele>
        <time>1970-01-01T00:00:00Z</time>
      </trkpt>
      <trkpt lat="39.728899" lon="-5.302082">
        <ele>411.1</ele>
        <time>1970-01-01T00:00:00Z</time>
      </trkpt>
      <trkpt lat="39.728974" lon="-5.301845">
        <ele>411.7</ele>
        <time>1970-01-01T00:00:00Z</time>
      </trkpt>
      <trkpt lat="39.729129" lon="-5.301457">
        <ele>413.4</ele>
        <time>1970-01-01T00:00:00Z</time>
      </trkpt>
      <trkpt lat="39.729242" lon="-5.301041">
        <ele>415.8</ele>
        <time>1970-01-01T00:00:00Z</time>
      </trkpt>
      <trkpt lat="39.729317" lon="-5.300819">
        <ele>416.7</ele>
        <time>1970-01-01T00:00:00Z</time>
      </trkpt>
      <trkpt lat="39.729493" lon="-5.300370">
        <ele>417.8</ele>
        <time>1970-01-01T00:00:00Z</time>
      </trkpt>
      <trkpt lat="39.729671" lon="-5.299497">
        <ele>420.9</ele>
        <time>1970-01-01T00:00:00Z</time>
      </trkpt>
      <trkpt lat="39.729699" lon="-5.298967">
        <ele>421.3</ele>
        <time>1970-01-01T00:00:00Z</time>
      </trkpt>
      <trkpt lat="39.729591" lon="-5.298405">
        <ele>422.3</ele>
        <time>1970-01-01T00:00:00Z</time>
      </trkpt>
      <trkpt lat="39.729442" lon="-5.297390">
        <ele>423.1</ele>
        <time>1970-01-01T00:00:00Z</time>
      </trkpt>
      <trkpt lat="39.729370" lon="-5.297077">
        <ele>423.0</ele>
        <time>1970-01-01T00:00:00Z</time>
      </trkpt>
      <trkpt lat="39.729300" lon="-5.296867">
        <ele>423.0</ele>
        <time>1970-01-01T00:00:00Z</time>
      </trkpt>
      <trkpt lat="39.729269" lon="-5.296698">
        <ele>423.0</ele>
        <time>1970-01-01T00:00:00Z</time>
      </trkpt>
      <trkpt lat="39.729259" lon="-5.296397">
        <ele>424.0</ele>
        <time>1970-01-01T00:00:00Z</time>
      </trkpt>
      <trkpt lat="39.729296" lon="-5.295795">
        <ele>425.0</ele>
        <time>1970-01-01T00:00:00Z</time>
      </trkpt>
      <trkpt lat="39.729329" lon="-5.295584">
        <ele>425.4</ele>
        <time>1970-01-01T00:00:00Z</time>
      </trkpt>
      <trkpt lat="39.729341" lon="-5.295352">
        <ele>426.0</ele>
        <time>1970-01-01T00:00:00Z</time>
      </trkpt>
      <trkpt lat="39.729276" lon="-5.295054">
        <ele>426.0</ele>
        <time>1970-01-01T00:00:00Z</time>
      </trkpt>
      <trkpt lat="39.729253" lon="-5.294887">
        <ele>426.2</ele>
        <time>1970-01-01T00:00:00Z</time>
      </trkpt>
      <trkpt lat="39.729247" lon="-5.294704">
        <ele>426.2</ele>
        <time>1970-01-01T00:00:00Z</time>
      </trkpt>
      <trkpt lat="39.729191" lon="-5.294559">
        <ele>426.7</ele>
        <time>1970-01-01T00:00:00Z</time>
      </trkpt>
      <trkpt lat="39.729088" lon="-5.294371">
        <ele>427.0</ele>
        <time>1970-01-01T00:00:00Z</time>
      </trkpt>
      <trkpt lat="39.729065" lon="-5.294246">
        <ele>426.7</ele>
        <time>1970-01-01T00:00:00Z</time>
      </trkpt>
      <trkpt lat="39.729042" lon="-5.293989">
        <ele>426.0</ele>
        <time>1970-01-01T00:00:00Z</time>
      </trkpt>
      <trkpt lat="39.728996" lon="-5.293777">
        <ele>425.8</ele>
        <time>1970-01-01T00:00:00Z</time>
      </trkpt>
      <trkpt lat="39.728902" lon="-5.293552">
        <ele>425.6</ele>
        <time>1970-01-01T00:00:00Z</time>
      </trkpt>
      <trkpt lat="39.728631" lon="-5.293074">
        <ele>426.6</ele>
        <time>1970-01-01T00:00:00Z</time>
      </trkpt>
      <trkpt lat="39.728520" lon="-5.292050">
        <ele>430.5</ele>
        <time>1970-01-01T00:00:00Z</time>
      </trkpt>
      <trkpt lat="39.728442" lon="-5.291815">
        <ele>432.4</ele>
        <time>1970-01-01T00:00:00Z</time>
      </trkpt>
      <trkpt lat="39.728310" lon="-5.291290">
        <ele>435.0</ele>
        <time>1970-01-01T00:00:00Z</time>
      </trkpt>
      <trkpt lat="39.728315" lon="-5.290892">
        <ele>435.7</ele>
        <time>1970-01-01T00:00:00Z</time>
      </trkpt>
      <trkpt lat="39.728299" lon="-5.290596">
        <ele>436.0</ele>
        <time>1970-01-01T00:00:00Z</time>
      </trkpt>
      <trkpt lat="39.728284" lon="-5.289684">
        <ele>435.0</ele>
        <time>1970-01-01T00:00:00Z</time>
      </trkpt>
      <trkpt lat="39.728395" lon="-5.289566">
        <ele>434.6</ele>
        <time>1970-01-01T00:00:00Z</time>
      </trkpt>
      <trkpt lat="39.728453" lon="-5.289433">
        <ele>434.0</ele>
        <time>1970-01-01T00:00:00Z</time>
      </trkpt>
      <trkpt lat="39.728352" lon="-5.289256">
        <ele>434.0</ele>
        <time>1970-01-01T00:00:00Z</time>
      </trkpt>
      <trkpt lat="39.728226" lon="-5.288966">
        <ele>434.0</ele>
        <time>1970-01-01T00:00:00Z</time>
      </trkpt>
      <trkpt lat="39.728115" lon="-5.288774">
        <ele>434.0</ele>
        <time>1970-01-01T00:00:00Z</time>
      </trkpt>
      <trkpt lat="39.727898" lon="-5.288100">
        <ele>434.0</ele>
        <time>1970-01-01T00:00:00Z</time>
      </trkpt>
      <trkpt lat="39.727596" lon="-5.287624">
        <ele>434.2</ele>
        <time>1970-01-01T00:00:00Z</time>
      </trkpt>
      <trkpt lat="39.727418" lon="-5.287284">
        <ele>435.3</ele>
        <time>1970-01-01T00:00:00Z</time>
      </trkpt>
      <trkpt lat="39.727075" lon="-5.286543">
        <ele>438.5</ele>
        <time>1970-01-01T00:00:00Z</time>
      </trkpt>
    </trkseg>
    <trkseg>
      <trkpt lat="39.727075" lon="-5.286543">
        <ele>438.5</ele>
        <time>1970-01-01T00:00:00Z</time>
      </trkpt>
      <trkpt lat="39.726868" lon="-5.286112">
        <ele>439.8</ele>
        <time>1970-01-01T00:00:00Z</time>
      </trkpt>
      <trkpt lat="39.726572" lon="-5.285645">
        <ele>440.9</ele>
        <time>1970-01-01T00:00:00Z</time>
      </trkpt>
      <trkpt lat="39.726444" lon="-5.285463">
        <ele>441.2</ele>
        <time>1970-01-01T00:00:00Z</time>
      </trkpt>
      <trkpt lat="39.726372" lon="-5.285247">
        <ele>441.6</ele>
        <time>1970-01-01T00:00:00Z</time>
      </trkpt>
      <trkpt lat="39.726303" lon="-5.284886">
        <ele>443.3</ele>
        <time>1970-01-01T00:00:00Z</time>
      </trkpt>
      <trkpt lat="39.726257" lon="-5.284718">
        <ele>444.8</ele>
        <time>1970-01-01T00:00:00Z</time>
      </trkpt>
      <trkpt lat="39.726132" lon="-5.284384">
        <ele>448.3</ele>
        <time>1970-01-01T00:00:00Z</time>
      </trkpt>
      <trkpt lat="39.725824" lon="-5.283963">
        <ele>453.5</ele>
        <time>1970-01-01T00:00:00Z</time>
      </trkpt>
      <trkpt lat="39.725705" lon="-5.283703">
        <ele>456.4</ele>
        <time>1970-01-01T00:00:00Z</time>
      </trkpt>
      <trkpt lat="39.725480" lon="-5.283439">
        <ele>458.9</ele>
        <time>1970-01-01T00:00:00Z</time>
      </trkpt>
      <trkpt lat="39.725112" lon="-5.283046">
        <ele>458.4</ele>
        <time>1970-01-01T00:00:00Z</time>
      </trkpt>
      <trkpt lat="39.724900" lon="-5.282850">
        <ele>456.1</ele>
        <time>1970-01-01T00:00:00Z</time>
      </trkpt>
      <trkpt lat="39.724572" lon="-5.282807">
        <ele>454.5</ele>
        <time>1970-01-01T00:00:00Z</time>
      </trkpt>
      <trkpt lat="39.724381" lon="-5.282730">
        <ele>452.9</ele>
        <time>1970-01-01T00:00:00Z</time>
      </trkpt>
      <trkpt lat="39.724151" lon="-5.282822">
        <ele>452.3</ele>
        <time>1970-01-01T00:00:00Z</time>
      </trkpt>
      <trkpt lat="39.723985" lon="-5.282848">
        <ele>451.3</ele>
        <time>1970-01-01T00:00:00Z</time>
      </trkpt>
      <trkpt lat="39.723692" lon="-5.282755">
        <ele>451.0</ele>
        <time>1970-01-01T00:00:00Z</time>
      </trkpt>
      <trkpt lat="39.722505" lon="-5.282091">
        <ele>455.3</ele>
        <time>1970-01-01T00:00:00Z</time>
      </trkpt>
      <trkpt lat="39.722283" lon="-5.281940">
        <ele>455.6</ele>
        <time>1970-01-01T00:00:00Z</time>
      </trkpt>
      <trkpt lat="39.721973" lon="-5.281840">
        <ele>455.2</ele>
        <time>1970-01-01T00:00:00Z</time>
      </trkpt>
      <trkpt lat="39.721293" lon="-5.281821">
        <ele>452.7</ele>
        <time>1970-01-01T00:00:00Z</time>
      </trkpt>
      <trkpt lat="39.720894" lon="-5.281786">
        <ele>450.5</ele>
        <time>1970-01-01T00:00:00Z</time>
      </trkpt>
      <trkpt lat="39.720655" lon="-5.281644">
        <ele>448.0</ele>
        <time>1970-01-01T00:00:00Z</time>
      </trkpt>
      <trkpt lat="39.720483" lon="-5.281481">
        <ele>446.3</ele>
        <time>1970-01-01T00:00:00Z</time>
      </trkpt>
      <trkpt lat="39.720173" lon="-5.281291">
        <ele>443.9</ele>
        <time>1970-01-01T00:00:00Z</time>
      </trkpt>
      <trkpt lat="39.720053" lon="-5.281230">
        <ele>443.6</ele>
        <time>1970-01-01T00:00:00Z</time>
      </trkpt>
      <trkpt lat="39.719625" lon="-5.281100">
        <ele>444.7</ele>
        <time>1970-01-01T00:00:00Z</time>
      </trkpt>
      <trkpt lat="39.719525" lon="-5.281050">
        <ele>444.9</ele>
        <time>1970-01-01T00:00:00Z</time>
      </trkpt>
      <trkpt lat="39.719365" lon="-5.280890">
        <ele>444.9</ele>
        <time>1970-01-01T00:00:00Z</time>
      </trkpt>
      <trkpt lat="39.719234" lon="-5.280709">
        <ele>446.2</ele>
        <time>1970-01-01T00:00:00Z</time>
      </trkpt>
      <trkpt lat="39.719138" lon="-5.280534">
        <ele>446.9</ele>
        <time>1970-01-01T00:00:00Z</time>
      </trkpt>
      <trkpt lat="39.719073" lon="-5.280165">
        <ele>448.1</ele>
        <time>1970-01-01T00:00:00Z</time>
      </trkpt>
      <trkpt lat="39.718911" lon="-5.279676">
        <ele>450.2</ele>
        <time>1970-01-01T00:00:00Z</time>
      </trkpt>
      <trkpt lat="39.718852" lon="-5.279336">
        <ele>451.0</ele>
        <time>1970-01-01T00:00:00Z</time>
      </trkpt>
      <trkpt lat="39.718807" lon="-5.279187">
        <ele>451.2</ele>
        <time>1970-01-01T00:00:00Z</time>
      </trkpt>
      <trkpt lat="39.718702" lon="-5.279058">
        <ele>451.7</ele>
        <time>1970-01-01T00:00:00Z</time>
      </trkpt>
      <trkpt lat="39.718631" lon="-5.278871">
        <ele>452.0</ele>
        <time>1970-01-01T00:00:00Z</time>
      </trkpt>
      <trkpt lat="39.718578" lon="-5.278355">
        <ele>452.2</ele>
        <time>1970-01-01T00:00:00Z</time>
      </trkpt>
      <trkpt lat="39.718581" lon="-5.278082">
        <ele>452.2</ele>
        <time>1970-01-01T00:00:00Z</time>
      </trkpt>
      <trkpt lat="39.718557" lon="-5.277821">
        <ele>452.1</ele>
        <time>1970-01-01T00:00:00Z</time>
      </trkpt>
      <trkpt lat="39.718504" lon="-5.277459">
        <ele>452.2</ele>
        <time>1970-01-01T00:00:00Z</time>
      </trkpt>
      <trkpt lat="39.718126" lon="-5.276327">
        <ele>457.4</ele>
        <time>1970-01-01T00:00:00Z</time>
      </trkpt>
      <trkpt lat="39.717982" lon="-5.276043">
        <ele>459.5</ele>
        <time>1970-01-01T00:00:00Z</time>
      </trkpt>
      <trkpt lat="39.717634" lon="-5.275514">
        <ele>462.5</ele>
        <time>1970-01-01T00:00:00Z</time>
      </trkpt>
      <trkpt lat="39.717530" lon="-5.275376">
        <ele>462.9</ele>
        <time>1970-01-01T00:00:00Z</time>
      </trkpt>
      <trkpt lat="39.717435" lon="-5.275307">
        <ele>463.1</ele>
        <time>1970-01-01T00:00:00Z</time>
      </trkpt>
      <trkpt lat="39.717247" lon="-5.274978">
        <ele>463.4</ele>
        <time>1970-01-01T00:00:00Z</time>
      </trkpt>
      <trkpt lat="39.717092" lon="-5.274760">
        <ele>464.6</ele>
        <time>1970-01-01T00:00:00Z</time>
      </trkpt>
      <trkpt lat="39.716628" lon="-5.274227">
        <ele>468.2</ele>
        <time>1970-01-01T00:00:00Z</time>
      </trkpt>
      <trkpt lat="39.716108" lon="-5.273576">
        <ele>471.7</ele>
        <time>1970-01-01T00:00:00Z</time>
      </trkpt>
      <trkpt lat="39.715993" lon="-5.273472">
        <ele>473.1</ele>
        <time>1970-01-01T00:00:00Z</time>
      </trkpt>
      <trkpt lat="39.715844" lon="-5.273298">
        <ele>473.6</ele>
        <time>1970-01-01T00:00:00Z</time>
      </trkpt>
      <trkpt lat="39.715472" lon="-5.272794">
        <ele>474.7</ele>
        <time>1970-01-01T00:00:00Z</time>
      </trkpt>
      <trkpt lat="39.714225" lon="-5.271771">
        <ele>473.7</ele>
        <time>1970-01-01T00:00:00Z</time>
      </trkpt>
      <trkpt lat="39.713872" lon="-5.271374">
        <ele>473.5</ele>
        <time>1970-01-01T00:00:00Z</time>
      </trkpt>
      <trkpt lat="39.713728" lon="-5.271175">
        <ele>473.3</ele>
        <time>1970-01-01T00:00:00Z</time>
      </trkpt>
      <trkpt lat="39.713511" lon="-5.270999">
        <ele>473.3</ele>
        <time>1970-01-01T00:00:00Z</time>
      </trkpt>
      <trkpt lat="39.712562" lon="-5.270494">
        <ele>476.5</ele>
        <time>1970-01-01T00:00:00Z</time>
      </trkpt>
      <trkpt lat="39.712072" lon="-5.270186">
        <ele>479.0</ele>
        <time>1970-01-01T00:00:00Z</time>
      </trkpt>
      <trkpt lat="39.711759" lon="-5.269957">
        <ele>480.2</ele>
        <time>1970-01-01T00:00:00Z</time>
      </trkpt>
      <trkpt lat="39.711623" lon="-5.269877">
        <ele>481.2</ele>
        <time>1970-01-01T00:00:00Z</time>
      </trkpt>
      <trkpt lat="39.711066" lon="-5.269627">
        <ele>486.1</ele>
        <time>1970-01-01T00:00:00Z</time>
      </trkpt>
      <trkpt lat="39.710721" lon="-5.269528">
        <ele>488.1</ele>
        <time>1970-01-01T00:00:00Z</time>
      </trkpt>
      <trkpt lat="39.710373" lon="-5.269256">
        <ele>488.2</ele>
        <time>1970-01-01T00:00:00Z</time>
      </trkpt>
      <trkpt lat="39.710202" lon="-5.269222">
        <ele>489.3</ele>
        <time>1970-01-01T00:00:00Z</time>
      </trkpt>
      <trkpt lat="39.709960" lon="-5.269101">
        <ele>490.2</ele>
        <time>1970-01-01T00:00:00Z</time>
      </trkpt>
      <trkpt lat="39.709528" lon="-5.268752">
        <ele>490.8</ele>
        <time>1970-01-01T00:00:00Z</time>
      </trkpt>
      <trkpt lat="39.709277" lon="-5.268612">
        <ele>490.4</ele>
        <time>1970-01-01T00:00:00Z</time>
      </trkpt>
      <trkpt lat="39.709053" lon="-5.268551">
        <ele>490.6</ele>
        <time>1970-01-01T00:00:00Z</time>
      </trkpt>
      <trkpt lat="39.708876" lon="-5.268555">
        <ele>490.9</ele>
        <time>1970-01-01T00:00:00Z</time>
      </trkpt>
      <trkpt lat="39.708358" lon="-5.268682">
        <ele>492.6</ele>
        <time>1970-01-01T00:00:00Z</time>
      </trkpt>
      <trkpt lat="39.708117" lon="-5.268721">
        <ele>492.3</ele>
        <time>1970-01-01T00:00:00Z</time>
      </trkpt>
      <trkpt lat="39.707636" lon="-5.268677">
        <ele>492.5</ele>
        <time>1970-01-01T00:00:00Z</time>
      </trkpt>
      <trkpt lat="39.707478" lon="-5.268691">
        <ele>493.0</ele>
        <time>1970-01-01T00:00:00Z</time>
      </trkpt>
      <trkpt lat="39.707115" lon="-5.268591">
        <ele>493.0</ele>
        <time>1970-01-01T00:00:00Z</time>
      </trkpt>
      <trkpt lat="39.706909" lon="-5.268587">
        <ele>493.6</ele>
        <time>1970-01-01T00:00:00Z</time>
      </trkpt>
      <trkpt lat="39.706657" lon="-5.268598">
        <ele>495.4</ele>
        <time>1970-01-01T00:00:00Z</time>
      </trkpt>
      <trkpt lat="39.706084" lon="-5.268673">
        <ele>497.9</ele>
        <time>1970-01-01T00:00:00Z</time>
      </trkpt>
      <trkpt lat="39.705665" lon="-5.268816">
        <ele>500.9</ele>
        <time>1970-01-01T00:00:00Z</time>
      </trkpt>
      <trkpt lat="39.705502" lon="-5.268842">
        <ele>502.4</ele>
        <time>1970-01-01T00:00:00Z</time>
      </trkpt>
      <trkpt lat="39.705395" lon="-5.268842">
        <ele>503.2</ele>
        <time>1970-01-01T00:00:00Z</time>
      </trkpt>
      <trkpt lat="39.705285" lon="-5.268772">
        <ele>503.2</ele>
        <time>1970-01-01T00:00:00Z</time>
      </trkpt>
      <trkpt lat="39.705078" lon="-5.268352">
        <ele>501.9</ele>
        <time>1970-01-01T00:00:00Z</time>
      </trkpt>
      <trkpt lat="39.704958" lon="-5.268157">
        <ele>501.2</ele>
        <time>1970-01-01T00:00:00Z</time>
      </trkpt>
      <trkpt lat="39.704651" lon="-5.267896">
        <ele>501.7</ele>
        <time>1970-01-01T00:00:00Z</time>
      </trkpt>
      <trkpt lat="39.704112" lon="-5.267471">
        <ele>504.4</ele>
        <time>1970-01-01T00:00:00Z</time>
      </trkpt>
      <trkpt lat="39.703983" lon="-5.267404">
        <ele>504.8</ele>
        <time>1970-01-01T00:00:00Z</time>
      </trkpt>
      <trkpt lat="39.703775" lon="-5.267134">
        <ele>504.2</ele>
        <time>1970-01-01T00:00:00Z</time>
      </trkpt>
      <trkpt lat="39.703505" lon="-5.266833">
        <ele>505.4</ele>
        <time>1970-01-01T00:00:00Z</time>
      </trkpt>
      <trkpt lat="39.703296" lon="-5.266623">
        <ele>506.4</ele>
        <time>1970-01-01T00:00:00Z</time>
      </trkpt>
      <trkpt lat="39.703237" lon="-5.266407">
        <ele>506.9</ele>
        <time>1970-01-01T00:00:00Z</time>
      </trkpt>
      <trkpt lat="39.703085" lon="-5.266117">
        <ele>507.5</ele>
        <time>1970-01-01T00:00:00Z</time>
      </trkpt>
      <trkpt lat="39.702907" lon="-5.265942">
        <ele>508.8</ele>
        <time>1970-01-01T00:00:00Z</time>
      </trkpt>
      <trkpt lat="39.702718" lon="-5.265807">
        <ele>509.0</ele>
        <time>1970-01-01T00:00:00Z</time>
      </trkpt>
      <trkpt lat="39.702513" lon="-5.265638">
        <ele>510.5</ele>
        <time>1970-01-01T00:00:00Z</time>
      </trkpt>
      <trkpt lat="39.702270" lon="-5.265354">
        <ele>510.6</ele>
        <time>1970-01-01T00:00:00Z</time>
      </trkpt>
      <trkpt lat="39.702172" lon="-5.265269">
        <ele>510.7</ele>
        <time>1970-01-01T00:00:00Z</time>
      </trkpt>
      <trkpt lat="39.702111" lon="-5.265176">
        <ele>510.9</ele>
        <time>1970-01-01T00:00:00Z</time>
      </trkpt>
      <trkpt lat="39.702030" lon="-5.264992">
        <ele>511.0</ele>
        <time>1970-01-01T00:00:00Z</time>
      </trkpt>
      <trkpt lat="39.701897" lon="-5.264846">
        <ele>510.8</ele>
        <time>1970-01-01T00:00:00Z</time>
      </trkpt>
      <trkpt lat="39.701653" lon="-5.264418">
        <ele>507.8</ele>
        <time>1970-01-01T00:00:00Z</time>
      </trkpt>
      <trkpt lat="39.701230" lon="-5.263774">
        <ele>504.3</ele>
        <time>1970-01-01T00:00:00Z</time>
      </trkpt>
      <trkpt lat="39.700881" lon="-5.263195">
        <ele>503.9</ele>
        <time>1970-01-01T00:00:00Z</time>
      </trkpt>
      <trkpt lat="39.700715" lon="-5.262971">
        <ele>503.8</ele>
        <time>1970-01-01T00:00:00Z</time>
      </trkpt>
      <trkpt lat="39.700542" lon="-5.262796">
        <ele>503.8</ele>
        <time>1970-01-01T00:00:00Z</time>
      </trkpt>
      <trkpt lat="39.700170" lon="-5.262483">
        <ele>501.2</ele>
        <time>1970-01-01T00:00:00Z</time>
      </trkpt>
      <trkpt lat="39.699964" lon="-5.262272">
        <ele>500.8</ele>
        <time>1970-01-01T00:00:00Z</time>
      </trkpt>
      <trkpt lat="39.699889" lon="-5.262116">
        <ele>500.0</ele>
        <time>1970-01-01T00:00:00Z</time>
      </trkpt>
      <trkpt lat="39.699721" lon="-5.261852">
        <ele>498.2</ele>
        <time>1970-01-01T00:00:00Z</time>
      </trkpt>
      <trkpt lat="39.699513" lon="-5.261332">
        <ele>495.6</ele>
        <time>1970-01-01T00:00:00Z</time>
      </trkpt>
      <trkpt lat="39.699226" lon="-5.260903">
        <ele>492.7</ele>
        <time>1970-01-01T00:00:00Z</time>
      </trkpt>
      <trkpt lat="39.699033" lon="-5.260652">
        <ele>490.4</ele>
        <time>1970-01-01T00:00:00Z</time>
      </trkpt>
      <trkpt lat="39.698688" lon="-5.260243">
        <ele>487.8</ele>
        <time>1970-01-01T00:00:00Z</time>
      </trkpt>
      <trkpt lat="39.698609" lon="-5.260105">
        <ele>486.8</ele>
        <time>1970-01-01T00:00:00Z</time>
      </trkpt>
      <trkpt lat="39.698564" lon="-5.259857">
        <ele>486.1</ele>
        <time>1970-01-01T00:00:00Z</time>
      </trkpt>
      <trkpt lat="39.698523" lon="-5.259714">
        <ele>486.0</ele>
        <time>1970-01-01T00:00:00Z</time>
      </trkpt>
      <trkpt lat="39.698444" lon="-5.259344">
        <ele>485.8</ele>
        <time>1970-01-01T00:00:00Z</time>
      </trkpt>
      <trkpt lat="39.698407" lon="-5.258995">
        <ele>484.7</ele>
        <time>1970-01-01T00:00:00Z</time>
      </trkpt>
      <trkpt lat="39.698145" lon="-5.258574">
        <ele>483.5</ele>
        <time>1970-01-01T00:00:00Z</time>
      </trkpt>
      <trkpt lat="39.698046" lon="-5.258442">
        <ele>483.1</ele>
        <time>1970-01-01T00:00:00Z</time>
      </trkpt>
      <trkpt lat="39.697919" lon="-5.258233">
        <ele>482.2</ele>
        <time>1970-01-01T00:00:00Z</time>
      </trkpt>
      <trkpt lat="39.697834" lon="-5.258060">
        <ele>481.5</ele>
        <time>1970-01-01T00:00:00Z</time>
      </trkpt>
      <trkpt lat="39.697605" lon="-5.257702">
        <ele>479.9</ele>
        <time>1970-01-01T00:00:00Z</time>
      </trkpt>
      <trkpt lat="39.697494" lon="-5.257610">
        <ele>479.5</ele>
        <time>1970-01-01T00:00:00Z</time>
      </trkpt>
      <trkpt lat="39.697292" lon="-5.257396">
        <ele>478.8</ele>
        <time>1970-01-01T00:00:00Z</time>
      </trkpt>
      <trkpt lat="39.697187" lon="-5.257304">
        <ele>478.4</ele>
        <time>1970-01-01T00:00:00Z</time>
      </trkpt>
      <trkpt lat="39.697068" lon="-5.257233">
        <ele>477.8</ele>
        <time>1970-01-01T00:00:00Z</time>
      </trkpt>
      <trkpt lat="39.696833" lon="-5.257179">
        <ele>476.9</ele>
        <time>1970-01-01T00:00:00Z</time>
      </trkpt>
      <trkpt lat="39.696710" lon="-5.257133">
        <ele>476.3</ele>
        <time>1970-01-01T00:00:00Z</time>
      </trkpt>
      <trkpt lat="39.696366" lon="-5.256796">
        <ele>475.3</ele>
        <time>1970-01-01T00:00:00Z</time>
      </trkpt>
      <trkpt lat="39.696101" lon="-5.256501">
        <ele>476.3</ele>
        <time>1970-01-01T00:00:00Z</time>
      </trkpt>
      <trkpt lat="39.696002" lon="-5.256450">
        <ele>476.9</ele>
        <time>1970-01-01T00:00:00Z</time>
      </trkpt>
      <trkpt lat="39.695656" lon="-5.256326">
        <ele>479.7</ele>
        <time>1970-01-01T00:00:00Z</time>
      </trkpt>
      <trkpt lat="39.695577" lon="-5.256274">
        <ele>480.5</ele>
        <time>1970-01-01T00:00:00Z</time>
      </trkpt>
      <trkpt lat="39.695448" lon="-5.256134">
        <ele>481.5</ele>
        <time>1970-01-01T00:00:00Z</time>
      </trkpt>
      <trkpt lat="39.695361" lon="-5.256007">
        <ele>482.5</ele>
        <time>1970-01-01T00:00:00Z</time>
      </trkpt>
      <trkpt lat="39.695241" lon="-5.255880">
        <ele>484.0</ele>
        <time>1970-01-01T00:00:00Z</time>
      </trkpt>
      <trkpt lat="39.695081" lon="-5.255596">
        <ele>486.1</ele>
        <time>1970-01-01T00:00:00Z</time>
      </trkpt>
      <trkpt lat="39.694919" lon="-5.255393">
        <ele>487.8</ele>
        <time>1970-01-01T00:00:00Z</time>
      </trkpt>
      <trkpt lat="39.694828" lon="-5.255254">
        <ele>488.6</ele>
        <time>1970-01-01T00:00:00Z</time>
      </trkpt>
      <trkpt lat="39.694446" lon="-5.254899">
        <ele>489.8</ele>
        <time>1970-01-01T00:00:00Z</time>
      </trkpt>
      <trkpt lat="39.693962" lon="-5.254293">
        <ele>487.3</ele>
        <time>1970-01-01T00:00:00Z</time>
      </trkpt>
      <trkpt lat="39.693818" lon="-5.254158">
        <ele>486.5</ele>
        <time>1970-01-01T00:00:00Z</time>
      </trkpt>
      <trkpt lat="39.693538" lon="-5.253939">
        <ele>485.8</ele>
        <time>1970-01-01T00:00:00Z</time>
      </trkpt>
      <trkpt lat="39.693435" lon="-5.253842">
        <ele>485.9</ele>
        <time>1970-01-01T00:00:00Z</time>
      </trkpt>
      <trkpt lat="39.693071" lon="-5.253349">
        <ele>483.2</ele>
        <time>1970-01-01T00:00:00Z</time>
      </trkpt>
      <trkpt lat="39.692893" lon="-5.253160">
        <ele>482.9</ele>
        <time>1970-01-01T00:00:00Z</time>
      </trkpt>
      <trkpt lat="39.692827" lon="-5.253118">
        <ele>482.6</ele>
        <time>1970-01-01T00:00:00Z</time>
      </trkpt>
      <trkpt lat="39.692736" lon="-5.252990">
        <ele>482.1</ele>
        <time>1970-01-01T00:00:00Z</time>
      </trkpt>
      <trkpt lat="39.692659" lon="-5.252851">
        <ele>481.8</ele>
        <time>1970-01-01T00:00:00Z</time>
      </trkpt>
      <trkpt lat="39.692601" lon="-5.252820">
        <ele>481.4</ele>
        <time>1970-01-01T00:00:00Z</time>
      </trkpt>
      <trkpt lat="39.692496" lon="-5.252727">
        <ele>480.5</ele>
        <time>1970-01-01T00:00:00Z</time>
      </trkpt>
      <trkpt lat="39.692344" lon="-5.252688">
        <ele>479.7</ele>
        <time>1970-01-01T00:00:00Z</time>
      </trkpt>
      <trkpt lat="39.692277" lon="-5.252698">
        <ele>479.5</ele>
        <time>1970-01-01T00:00:00Z</time>
      </trkpt>
      <trkpt lat="39.692217" lon="-5.252649">
        <ele>479.0</ele>
        <time>1970-01-01T00:00:00Z</time>
      </trkpt>
      <trkpt lat="39.692093" lon="-5.252354">
        <ele>477.9</ele>
        <time>1970-01-01T00:00:00Z</time>
      </trkpt>
      <trkpt lat="39.692065" lon="-5.251931">
        <ele>477.0</ele>
        <time>1970-01-01T00:00:00Z</time>
      </trkpt>
      <trkpt lat="39.692029" lon="-5.251737">
        <ele>476.9</ele>
        <time>1970-01-01T00:00:00Z</time>
      </trkpt>
      <trkpt lat="39.691928" lon="-5.251586">
        <ele>476.7</ele>
        <time>1970-01-01T00:00:00Z</time>
      </trkpt>
      <trkpt lat="39.691903" lon="-5.251499">
        <ele>476.5</ele>
        <time>1970-01-01T00:00:00Z</time>
      </trkpt>
      <trkpt lat="39.691850" lon="-5.251389">
        <ele>476.8</ele>
        <time>1970-01-01T00:00:00Z</time>
      </trkpt>
      <trkpt lat="39.691784" lon="-5.251352">
        <ele>477.0</ele>
        <time>1970-01-01T00:00:00Z</time>
      </trkpt>
      <trkpt lat="39.691510" lon="-5.250857">
        <ele>478.1</ele>
        <time>1970-01-01T00:00:00Z</time>
      </trkpt>
      <trkpt lat="39.691196" lon="-5.250516">
        <ele>479.5</ele>
        <time>1970-01-01T00:00:00Z</time>
      </trkpt>
      <trkpt lat="39.691095" lon="-5.250416">
        <ele>479.9</ele>
        <time>1970-01-01T00:00:00Z</time>
      </trkpt>
      <trkpt lat="39.690902" lon="-5.250314">
        <ele>480.0</ele>
        <time>1970-01-01T00:00:00Z</time>
      </trkpt>
      <trkpt lat="39.690756" lon="-5.250215">
        <ele>479.3</ele>
        <time>1970-01-01T00:00:00Z</time>
      </trkpt>
      <trkpt lat="39.690599" lon="-5.249919">
        <ele>478.3</ele>
        <time>1970-01-01T00:00:00Z</time>
      </trkpt>
      <trkpt lat="39.690534" lon="-5.249823">
        <ele>478.3</ele>
        <time>1970-01-01T00:00:00Z</time>
      </trkpt>
      <trkpt lat="39.690368" lon="-5.249669">
        <ele>478.3</ele>
        <time>1970-01-01T00:00:00Z</time>
      </trkpt>
      <trkpt lat="39.690235" lon="-5.249443">
        <ele>478.8</ele>
        <time>1970-01-01T00:00:00Z</time>
      </trkpt>
      <trkpt lat="39.690160" lon="-5.249364">
        <ele>479.1</ele>
        <time>1970-01-01T00:00:00Z</time>
      </trkpt>
      <trkpt lat="39.690003" lon="-5.249270">
        <ele>480.8</ele>
        <time>1970-01-01T00:00:00Z</time>
      </trkpt>
      <trkpt lat="39.689941" lon="-5.249253">
        <ele>481.4</ele>
        <time>1970-01-01T00:00:00Z</time>
      </trkpt>
      <trkpt lat="39.689591" lon="-5.249227">
        <ele>483.6</ele>
        <time>1970-01-01T00:00:00Z</time>
      </trkpt>
      <trkpt lat="39.689475" lon="-5.249282">
        <ele>483.9</ele>
        <time>1970-01-01T00:00:00Z</time>
      </trkpt>
      <trkpt lat="39.689329" lon="-5.249443">
        <ele>484.2</ele>
        <time>1970-01-01T00:00:00Z</time>
      </trkpt>
      <trkpt lat="39.689249" lon="-5.249347">
        <ele>485.0</ele>
        <time>1970-01-01T00:00:00Z</time>
      </trkpt>
      <trkpt lat="39.689113" lon="-5.249266">
        <ele>486.0</ele>
        <time>1970-01-01T00:00:00Z</time>
      </trkpt>
      <trkpt lat="39.688971" lon="-5.249145">
        <ele>487.3</ele>
        <time>1970-01-01T00:00:00Z</time>
      </trkpt>
      <trkpt lat="39.688923" lon="-5.249050">
        <ele>488.6</ele>
        <time>1970-01-01T00:00:00Z</time>
      </trkpt>
      <trkpt lat="39.688869" lon="-5.248981">
        <ele>489.6</ele>
        <time>1970-01-01T00:00:00Z</time>
      </trkpt>
      <trkpt lat="39.688775" lon="-5.248894">
        <ele>491.1</ele>
        <time>1970-01-01T00:00:00Z</time>
      </trkpt>
      <trkpt lat="39.688538" lon="-5.248608">
        <ele>493.4</ele>
        <time>1970-01-01T00:00:00Z</time>
      </trkpt>
      <trkpt lat="39.688415" lon="-5.248495">
        <ele>493.9</ele>
        <time>1970-01-01T00:00:00Z</time>
      </trkpt>
      <trkpt lat="39.688317" lon="-5.248430">
        <ele>494.3</ele>
        <time>1970-01-01T00:00:00Z</time>
      </trkpt>
      <trkpt lat="39.688239" lon="-5.248413">
        <ele>494.7</ele>
        <time>1970-01-01T00:00:00Z</time>
      </trkpt>
      <trkpt lat="39.687883" lon="-5.248083">
        <ele>499.0</ele>
        <time>1970-01-01T00:00:00Z</time>
      </trkpt>
      <trkpt lat="39.687719" lon="-5.247900">
        <ele>501.4</ele>
        <time>1970-01-01T00:00:00Z</time>
      </trkpt>
      <trkpt lat="39.687516" lon="-5.247723">
        <ele>503.5</ele>
        <time>1970-01-01T00:00:00Z</time>
      </trkpt>
      <trkpt lat="39.687325" lon="-5.247660">
        <ele>504.0</ele>
        <time>1970-01-01T00:00:00Z</time>
      </trkpt>
      <trkpt lat="39.687087" lon="-5.247618">
        <ele>504.2</ele>
        <time>1970-01-01T00:00:00Z</time>
      </trkpt>
      <trkpt lat="39.686699" lon="-5.247492">
        <ele>505.7</ele>
        <time>1970-01-01T00:00:00Z</time>
      </trkpt>
      <trkpt lat="39.686117" lon="-5.247093">
        <ele>509.0</ele>
        <time>1970-01-01T00:00:00Z</time>
      </trkpt>
      <trkpt lat="39.685874" lon="-5.246865">
        <ele>510.4</ele>
        <time>1970-01-01T00:00:00Z</time>
      </trkpt>
      <trkpt lat="39.685774" lon="-5.246810">
        <ele>511.2</ele>
        <time>1970-01-01T00:00:00Z</time>
      </trkpt>
      <trkpt lat="39.685505" lon="-5.246740">
        <ele>513.5</ele>
        <time>1970-01-01T00:00:00Z</time>
      </trkpt>
      <trkpt lat="39.685208" lon="-5.246589">
        <ele>515.0</ele>
        <time>1970-01-01T00:00:00Z</time>
      </trkpt>
      <trkpt lat="39.685004" lon="-5.246474">
        <ele>514.9</ele>
        <time>1970-01-01T00:00:00Z</time>
      </trkpt>
      <trkpt lat="39.684788" lon="-5.246307">
        <ele>514.9</ele>
        <time>1970-01-01T00:00:00Z</time>
      </trkpt>
      <trkpt lat="39.684329" lon="-5.246018">
        <ele>514.0</ele>
        <time>1970-01-01T00:00:00Z</time>
      </trkpt>
      <trkpt lat="39.683964" lon="-5.245917">
        <ele>513.3</ele>
        <time>1970-01-01T00:00:00Z</time>
      </trkpt>
      <trkpt lat="39.683731" lon="-5.245764">
        <ele>511.6</ele>
        <time>1970-01-01T00:00:00Z</time>
      </trkpt>
      <trkpt lat="39.683320" lon="-5.245410">
        <ele>509.7</ele>
        <time>1970-01-01T00:00:00Z</time>
      </trkpt>
      <trkpt lat="39.683220" lon="-5.245289">
        <ele>509.2</ele>
        <time>1970-01-01T00:00:00Z</time>
      </trkpt>
      <trkpt lat="39.683147" lon="-5.245178">
        <ele>508.4</ele>
        <time>1970-01-01T00:00:00Z</time>
      </trkpt>
      <trkpt lat="39.683016" lon="-5.245149">
        <ele>508.3</ele>
        <time>1970-01-01T00:00:00Z</time>
      </trkpt>
      <trkpt lat="39.682749" lon="-5.244869">
        <ele>507.9</ele>
        <time>1970-01-01T00:00:00Z</time>
      </trkpt>
      <trkpt lat="39.682725" lon="-5.244811">
        <ele>507.5</ele>
        <time>1970-01-01T00:00:00Z</time>
      </trkpt>
      <trkpt lat="39.682522" lon="-5.244582">
        <ele>506.4</ele>
        <time>1970-01-01T00:00:00Z</time>
      </trkpt>
      <trkpt lat="39.681852" lon="-5.243912">
        <ele>505.3</ele>
        <time>1970-01-01T00:00:00Z</time>
      </trkpt>
      <trkpt lat="39.681315" lon="-5.243482">
        <ele>504.6</ele>
        <time>1970-01-01T00:00:00Z</time>
      </trkpt>
      <trkpt lat="39.680826" lon="-5.243047">
        <ele>502.9</ele>
        <time>1970-01-01T00:00:00Z</time>
      </trkpt>
      <trkpt lat="39.680598" lon="-5.242894">
        <ele>502.9</ele>
        <time>1970-01-01T00:00:00Z</time>
      </trkpt>
      <trkpt lat="39.680809" lon="-5.242419">
        <ele>500.9</ele>
        <time>1970-01-01T00:00:00Z</time>
      </trkpt>
      <trkpt lat="39.680948" lon="-5.242147">
        <ele>500.0</ele>
        <time>1970-01-01T00:00:00Z</time>
      </trkpt>
      <trkpt lat="39.681110" lon="-5.241883">
        <ele>499.6</ele>
        <time>1970-01-01T00:00:00Z</time>
      </trkpt>
      <trkpt lat="39.681384" lon="-5.241596">
        <ele>498.2</ele>
        <time>1970-01-01T00:00:00Z</time>
      </trkpt>
      <trkpt lat="39.681985" lon="-5.241030">
        <ele>492.4</ele>
        <time>1970-01-01T00:00:00Z</time>
      </trkpt>
      <trkpt lat="39.682270" lon="-5.240720">
        <ele>489.6</ele>
        <time>1970-01-01T00:00:00Z</time>
      </trkpt>
      <trkpt lat="39.682580" lon="-5.240353">
        <ele>488.0</ele>
        <time>1970-01-01T00:00:00Z</time>
      </trkpt>
      <trkpt lat="39.682721" lon="-5.240146">
        <ele>488.0</ele>
        <time>1970-01-01T00:00:00Z</time>
      </trkpt>
      <trkpt lat="39.682852" lon="-5.239877">
        <ele>488.0</ele>
        <time>1970-01-01T00:00:00Z</time>
      </trkpt>
      <trkpt lat="39.682901" lon="-5.239738">
        <ele>488.5</ele>
        <time>1970-01-01T00:00:00Z</time>
      </trkpt>
      <trkpt lat="39.682971" lon="-5.238933">
        <ele>489.2</ele>
        <time>1970-01-01T00:00:00Z</time>
      </trkpt>
      <trkpt lat="39.682836" lon="-5.237899">
        <ele>489.4</ele>
        <time>1970-01-01T00:00:00Z</time>
      </trkpt>
      <trkpt lat="39.682840" lon="-5.237548">
        <ele>488.1</ele>
        <time>1970-01-01T00:00:00Z</time>
      </trkpt>
      <trkpt lat="39.682873" lon="-5.237156">
        <ele>487.8</ele>
        <time>1970-01-01T00:00:00Z</time>
      </trkpt>
      <trkpt lat="39.682912" lon="-5.236921">
        <ele>488.2</ele>
        <time>1970-01-01T00:00:00Z</time>
      </trkpt>
      <trkpt lat="39.682916" lon="-5.236584">
        <ele>489.3</ele>
        <time>1970-01-01T00:00:00Z</time>
      </trkpt>
      <trkpt lat="39.682896" lon="-5.236395">
        <ele>490.2</ele>
        <time>1970-01-01T00:00:00Z</time>
      </trkpt>
      <trkpt lat="39.682785" lon="-5.235943">
        <ele>492.2</ele>
        <time>1970-01-01T00:00:00Z</time>
      </trkpt>
      <trkpt lat="39.682071" lon="-5.233503">
        <ele>505.3</ele>
        <time>1970-01-01T00:00:00Z</time>
      </trkpt>
      <trkpt lat="39.681935" lon="-5.232873">
        <ele>508.9</ele>
        <time>1970-01-01T00:00:00Z</time>
      </trkpt>
      <trkpt lat="39.681921" lon="-5.232683">
        <ele>509.7</ele>
        <time>1970-01-01T00:00:00Z</time>
      </trkpt>
      <trkpt lat="39.681955" lon="-5.232233">
        <ele>512.0</ele>
        <time>1970-01-01T00:00:00Z</time>
      </trkpt>
      <trkpt lat="39.682066" lon="-5.231604">
        <ele>513.0</ele>
        <time>1970-01-01T00:00:00Z</time>
      </trkpt>
      <trkpt lat="39.682153" lon="-5.231214">
        <ele>512.8</ele>
        <time>1970-01-01T00:00:00Z</time>
      </trkpt>
      <trkpt lat="39.682269" lon="-5.230848">
        <ele>511.1</ele>
        <time>1970-01-01T00:00:00Z</time>
      </trkpt>
      <trkpt lat="39.682358" lon="-5.230662">
        <ele>510.7</ele>
        <time>1970-01-01T00:00:00Z</time>
      </trkpt>
      <trkpt lat="39.682471" lon="-5.230473">
        <ele>509.6</ele>
        <time>1970-01-01T00:00:00Z</time>
      </trkpt>
      <trkpt lat="39.682590" lon="-5.230203">
        <ele>509.0</ele>
        <time>1970-01-01T00:00:00Z</time>
      </trkpt>
      <trkpt lat="39.682877" lon="-5.229446">
        <ele>510.6</ele>
        <time>1970-01-01T00:00:00Z</time>
      </trkpt>
      <trkpt lat="39.683025" lon="-5.228873">
        <ele>511.7</ele>
        <time>1970-01-01T00:00:00Z</time>
      </trkpt>
      <trkpt lat="39.683103" lon="-5.228379">
        <ele>512.8</ele>
        <time>1970-01-01T00:00:00Z</time>
      </trkpt>
      <trkpt lat="39.683194" lon="-5.227938">
        <ele>514.6</ele>
        <time>1970-01-01T00:00:00Z</time>
      </trkpt>
      <trkpt lat="39.683284" lon="-5.227586">
        <ele>516.5</ele>
        <time>1970-01-01T00:00:00Z</time>
      </trkpt>
      <trkpt lat="39.683651" lon="-5.227120">
        <ele>519.1</ele>
        <time>1970-01-01T00:00:00Z</time>
      </trkpt>
      <trkpt lat="39.684265" lon="-5.226121">
        <ele>524.3</ele>
        <time>1970-01-01T00:00:00Z</time>
      </trkpt>
      <trkpt lat="39.685158" lon="-5.222333">
        <ele>526.5</ele>
        <time>1970-01-01T00:00:00Z</time>
      </trkpt>
      <trkpt lat="39.685279" lon="-5.221878">
        <ele>527.9</ele>
        <time>1970-01-01T00:00:00Z</time>
      </trkpt>
      <trkpt lat="39.685394" lon="-5.221375">
        <ele>526.0</ele>
        <time>1970-01-01T00:00:00Z</time>
      </trkpt>
      <trkpt lat="39.685569" lon="-5.220729">
        <ele>525.2</ele>
        <time>1970-01-01T00:00:00Z</time>
      </trkpt>
      <trkpt lat="39.685697" lon="-5.220363">
        <ele>524.3</ele>
        <time>1970-01-01T00:00:00Z</time>
      </trkpt>
      <trkpt lat="39.685889" lon="-5.219991">
        <ele>523.6</ele>
        <time>1970-01-01T00:00:00Z</time>
      </trkpt>
      <trkpt lat="39.686052" lon="-5.219730">
        <ele>523.2</ele>
        <time>1970-01-01T00:00:00Z</time>
      </trkpt>
      <trkpt lat="39.686208" lon="-5.219502">
        <ele>523.8</ele>
        <time>1970-01-01T00:00:00Z</time>
      </trkpt>
      <trkpt lat="39.688013" lon="-5.217394">
        <ele>507.8</ele>
        <time>1970-01-01T00:00:00Z</time>
      </trkpt>
      <trkpt lat="39.689513" lon="-5.215553">
        <ele>506.0</ele>
        <time>1970-01-01T00:00:00Z</time>
      </trkpt>
      <trkpt lat="39.690666" lon="-5.214043">
        <ele>507.8</ele>
        <time>1970-01-01T00:00:00Z</time>
      </trkpt>
      <trkpt lat="39.692796" lon="-5.211534">
        <ele>503.0</ele>
        <time>1970-01-01T00:00:00Z</time>
      </trkpt>
      <trkpt lat="39.694149" lon="-5.209892">
        <ele>503.1</ele>
        <time>1970-01-01T00:00:00Z</time>
      </trkpt>
      <trkpt lat="39.694873" lon="-5.208975">
        <ele>498.4</ele>
        <time>1970-01-01T00:00:00Z</time>
      </trkpt>
      <trkpt lat="39.695664" lon="-5.207834">
        <ele>494.7</ele>
        <time>1970-01-01T00:00:00Z</time>
      </trkpt>
      <trkpt lat="39.695720" lon="-5.207902">
        <ele>494.2</ele>
        <time>1970-01-01T00:00:00Z</time>
      </trkpt>
      <trkpt lat="39.695861" lon="-5.207999">
        <ele>494.0</ele>
        <time>1970-01-01T00:00:00Z</time>
      </trkpt>
      <trkpt lat="39.695981" lon="-5.208007">
        <ele>494.0</ele>
        <time>1970-01-01T00:00:00Z</time>
      </trkpt>
      <trkpt lat="39.696156" lon="-5.207976">
        <ele>494.0</ele>
        <time>1970-01-01T00:00:00Z</time>
      </trkpt>
      <trkpt lat="39.696390" lon="-5.207968">
        <ele>495.0</ele>
        <time>1970-01-01T00:00:00Z</time>
      </trkpt>
      <trkpt lat="39.696577" lon="-5.207926">
        <ele>495.8</ele>
        <time>1970-01-01T00:00:00Z</time>
      </trkpt>
      <trkpt lat="39.696687" lon="-5.207870">
        <ele>496.2</ele>
        <time>1970-01-01T00:00:00Z</time>
      </trkpt>
      <trkpt lat="39.696824" lon="-5.207864">
        <ele>496.8</ele>
        <time>1970-01-01T00:00:00Z</time>
      </trkpt>
      <trkpt lat="39.696948" lon="-5.207816">
        <ele>497.4</ele>
        <time>1970-01-01T00:00:00Z</time>
      </trkpt>
      <trkpt lat="39.697126" lon="-5.207673">
        <ele>497.9</ele>
        <time>1970-01-01T00:00:00Z</time>
      </trkpt>
      <trkpt lat="39.697292" lon="-5.207478">
        <ele>497.8</ele>
        <time>1970-01-01T00:00:00Z</time>
      </trkpt>
      <trkpt lat="39.697733" lon="-5.206878">
        <ele>497.1</ele>
        <time>1970-01-01T00:00:00Z</time>
      </trkpt>
      <trkpt lat="39.698193" lon="-5.206311">
        <ele>495.6</ele>
        <time>1970-01-01T00:00:00Z</time>
      </trkpt>
      <trkpt lat="39.698810" lon="-5.205601">
        <ele>496.7</ele>
        <time>1970-01-01T00:00:00Z</time>
      </trkpt>
      <trkpt lat="39.699149" lon="-5.205323">
        <ele>495.6</ele>
        <time>1970-01-01T00:00:00Z</time>
      </trkpt>
      <trkpt lat="39.699738" lon="-5.204594">
        <ele>491.7</ele>
        <time>1970-01-01T00:00:00Z</time>
      </trkpt>
      <trkpt lat="39.699906" lon="-5.204359">
        <ele>490.6</ele>
        <time>1970-01-01T00:00:00Z</time>
      </trkpt>
      <trkpt lat="39.700043" lon="-5.204219">
        <ele>490.6</ele>
        <time>1970-01-01T00:00:00Z</time>
      </trkpt>
      <trkpt lat="39.700205" lon="-5.204098">
        <ele>490.8</ele>
        <time>1970-01-01T00:00:00Z</time>
      </trkpt>
      <trkpt lat="39.700384" lon="-5.204015">
        <ele>490.9</ele>
        <time>1970-01-01T00:00:00Z</time>
      </trkpt>
      <trkpt lat="39.700514" lon="-5.203978">
        <ele>490.8</ele>
        <time>1970-01-01T00:00:00Z</time>
      </trkpt>
      <trkpt lat="39.700832" lon="-5.203781">
        <ele>490.1</ele>
        <time>1970-01-01T00:00:00Z</time>
      </trkpt>
      <trkpt lat="39.700986" lon="-5.203638">
        <ele>490.1</ele>
        <time>1970-01-01T00:00:00Z</time>
      </trkpt>
      <trkpt lat="39.701191" lon="-5.203566">
        <ele>489.4</ele>
        <time>1970-01-01T00:00:00Z</time>
      </trkpt>
      <trkpt lat="39.701458" lon="-5.203505">
        <ele>489.6</ele>
        <time>1970-01-01T00:00:00Z</time>
      </trkpt>
      <trkpt lat="39.701540" lon="-5.203392">
        <ele>489.4</ele>
        <time>1970-01-01T00:00:00Z</time>
      </trkpt>
      <trkpt lat="39.701975" lon="-5.202477">
        <ele>487.1</ele>
        <time>1970-01-01T00:00:00Z</time>
      </trkpt>
      <trkpt lat="39.702162" lon="-5.202116">
        <ele>487.7</ele>
        <time>1970-01-01T00:00:00Z</time>
      </trkpt>
      <trkpt lat="39.702346" lon="-5.201807">
        <ele>487.7</ele>
        <time>1970-01-01T00:00:00Z</time>
      </trkpt>
      <trkpt lat="39.702516" lon="-5.201583">
        <ele>488.0</ele>
        <time>1970-01-01T00:00:00Z</time>
      </trkpt>
      <trkpt lat="39.702854" lon="-5.201224">
        <ele>486.9</ele>
        <time>1970-01-01T00:00:00Z</time>
      </trkpt>
      <trkpt lat="39.703018" lon="-5.201021">
        <ele>486.0</ele>
        <time>1970-01-01T00:00:00Z</time>
      </trkpt>
      <trkpt lat="39.703255" lon="-5.200770">
        <ele>486.5</ele>
        <time>1970-01-01T00:00:00Z</time>
      </trkpt>
      <trkpt lat="39.703481" lon="-5.200592">
        <ele>486.3</ele>
        <time>1970-01-01T00:00:00Z</time>
      </trkpt>
      <trkpt lat="39.703800" lon="-5.200391">
        <ele>486.2</ele>
        <time>1970-01-01T00:00:00Z</time>
      </trkpt>
      <trkpt lat="39.703960" lon="-5.200266">
        <ele>486.4</ele>
        <time>1970-01-01T00:00:00Z</time>
      </trkpt>
      <trkpt lat="39.704615" lon="-5.199454">
        <ele>488.5</ele>
        <time>1970-01-01T00:00:00Z</time>
      </trkpt>
      <trkpt lat="39.704692" lon="-5.199201">
        <ele>488.0</ele>
        <time>1970-01-01T00:00:00Z</time>
      </trkpt>
      <trkpt lat="39.704726" lon="-5.199032">
        <ele>488.5</ele>
        <time>1970-01-01T00:00:00Z</time>
      </trkpt>
      <trkpt lat="39.704751" lon="-5.198647">
        <ele>489.3</ele>
        <time>1970-01-01T00:00:00Z</time>
      </trkpt>
      <trkpt lat="39.704793" lon="-5.198401">
        <ele>490.5</ele>
        <time>1970-01-01T00:00:00Z</time>
      </trkpt>
      <trkpt lat="39.705103" lon="-5.198318">
        <ele>491.7</ele>
        <time>1970-01-01T00:00:00Z</time>
      </trkpt>
      <trkpt lat="39.705201" lon="-5.198132">
        <ele>492.4</ele>
        <time>1970-01-01T00:00:00Z</time>
      </trkpt>
      <trkpt lat="39.705422" lon="-5.197795">
        <ele>492.0</ele>
        <time>1970-01-01T00:00:00Z</time>
      </trkpt>
      <trkpt lat="39.705584" lon="-5.197692">
        <ele>491.0</ele>
        <time>1970-01-01T00:00:00Z</time>
      </trkpt>
      <trkpt lat="39.705820" lon="-5.197474">
        <ele>490.6</ele>
        <time>1970-01-01T00:00:00Z</time>
      </trkpt>
      <trkpt lat="39.705953" lon="-5.197382">
        <ele>490.2</ele>
        <time>1970-01-01T00:00:00Z</time>
      </trkpt>
      <trkpt lat="39.706099" lon="-5.197398">
        <ele>488.8</ele>
        <time>1970-01-01T00:00:00Z</time>
      </trkpt>
      <trkpt lat="39.706254" lon="-5.197373">
        <ele>487.6</ele>
        <time>1970-01-01T00:00:00Z</time>
      </trkpt>
      <trkpt lat="39.706431" lon="-5.197230">
        <ele>487.7</ele>
        <time>1970-01-01T00:00:00Z</time>
      </trkpt>
      <trkpt lat="39.706749" lon="-5.197044">
        <ele>488.4</ele>
        <time>1970-01-01T00:00:00Z</time>
      </trkpt>
      <trkpt lat="39.706940" lon="-5.196950">
        <ele>488.3</ele>
        <time>1970-01-01T00:00:00Z</time>
      </trkpt>
      <trkpt lat="39.707118" lon="-5.196886">
        <ele>488.0</ele>
        <time>1970-01-01T00:00:00Z</time>
      </trkpt>
      <trkpt lat="39.707274" lon="-5.196802">
        <ele>488.2</ele>
        <time>1970-01-01T00:00:00Z</time>
      </trkpt>
      <trkpt lat="39.707386" lon="-5.196676">
        <ele>488.2</ele>
        <time>1970-01-01T00:00:00Z</time>
      </trkpt>
      <trkpt lat="39.707530" lon="-5.196625">
        <ele>487.8</ele>
        <time>1970-01-01T00:00:00Z</time>
      </trkpt>
      <trkpt lat="39.707656" lon="-5.196610">
        <ele>486.8</ele>
        <time>1970-01-01T00:00:00Z</time>
      </trkpt>
      <trkpt lat="39.707902" lon="-5.197507">
        <ele>480.5</ele>
        <time>1970-01-01T00:00:00Z</time>
      </trkpt>
      <trkpt lat="39.708009" lon="-5.197754">
        <ele>479.7</ele>
        <time>1970-01-01T00:00:00Z</time>
      </trkpt>
      <trkpt lat="39.708103" lon="-5.197913">
        <ele>478.6</ele>
        <time>1970-01-01T00:00:00Z</time>
      </trkpt>
      <trkpt lat="39.708726" lon="-5.198844">
        <ele>479.3</ele>
        <time>1970-01-01T00:00:00Z</time>
      </trkpt>
      <trkpt lat="39.709105" lon="-5.199352">
        <ele>482.8</ele>
        <time>1970-01-01T00:00:00Z</time>
      </trkpt>
      <trkpt lat="39.709274" lon="-5.199532">
        <ele>483.6</ele>
        <time>1970-01-01T00:00:00Z</time>
      </trkpt>
      <trkpt lat="39.709441" lon="-5.199763">
        <ele>485.3</ele>
        <time>1970-01-01T00:00:00Z</time>
      </trkpt>
      <trkpt lat="39.709836" lon="-5.200190">
        <ele>486.6</ele>
        <time>1970-01-01T00:00:00Z</time>
      </trkpt>
      <trkpt lat="39.710317" lon="-5.200761">
        <ele>486.4</ele>
        <time>1970-01-01T00:00:00Z</time>
      </trkpt>
      <trkpt lat="39.710423" lon="-5.200938">
        <ele>487.1</ele>
        <time>1970-01-01T00:00:00Z</time>
      </trkpt>
      <trkpt lat="39.710818" lon="-5.201518">
        <ele>489.6</ele>
        <time>1970-01-01T00:00:00Z</time>
      </trkpt>
      <trkpt lat="39.711013" lon="-5.201772">
        <ele>491.5</ele>
        <time>1970-01-01T00:00:00Z</time>
      </trkpt>
      <trkpt lat="39.711156" lon="-5.202062">
        <ele>492.4</ele>
        <time>1970-01-01T00:00:00Z</time>
      </trkpt>
      <trkpt lat="39.711619" lon="-5.202710">
        <ele>493.0</ele>
        <time>1970-01-01T00:00:00Z</time>
      </trkpt>
      <trkpt lat="39.711926" lon="-5.203086">
        <ele>493.0</ele>
        <time>1970-01-01T00:00:00Z</time>
      </trkpt>
      <trkpt lat="39.712051" lon="-5.203160">
        <ele>493.0</ele>
        <time>1970-01-01T00:00:00Z</time>
      </trkpt>
      <trkpt lat="39.712793" lon="-5.203258">
        <ele>493.2</ele>
        <time>1970-01-01T00:00:00Z</time>
      </trkpt>
      <trkpt lat="39.713014" lon="-5.203328">
        <ele>493.0</ele>
        <time>1970-01-01T00:00:00Z</time>
      </trkpt>
      <trkpt lat="39.713420" lon="-5.203526">
        <ele>493.6</ele>
        <time>1970-01-01T00:00:00Z</time>
      </trkpt>
      <trkpt lat="39.713787" lon="-5.203767">
        <ele>495.0</ele>
        <time>1970-01-01T00:00:00Z</time>
      </trkpt>
      <trkpt lat="39.715270" lon="-5.204915">
        <ele>494.0</ele>
        <time>1970-01-01T00:00:00Z</time>
      </trkpt>
      <trkpt lat="39.715560" lon="-5.205146">
        <ele>494.1</ele>
        <time>1970-01-01T00:00:00Z</time>
      </trkpt>
      <trkpt lat="39.716078" lon="-5.205600">
        <ele>494.0</ele>
        <time>1970-01-01T00:00:00Z</time>
      </trkpt>
      <trkpt lat="39.716538" lon="-5.206037">
        <ele>494.3</ele>
        <time>1970-01-01T00:00:00Z</time>
      </trkpt>
      <trkpt lat="39.717162" lon="-5.206668">
        <ele>491.9</ele>
        <time>1970-01-01T00:00:00Z</time>
      </trkpt>
      <trkpt lat="39.720221" lon="-5.209417">
        <ele>488.0</ele>
        <time>1970-01-01T00:00:00Z</time>
      </trkpt>
      <trkpt lat="39.721177" lon="-5.210300">
        <ele>490.0</ele>
        <time>1970-01-01T00:00:00Z</time>
      </trkpt>
      <trkpt lat="39.721329" lon="-5.210456">
        <ele>489.3</ele>
        <time>1970-01-01T00:00:00Z</time>
      </trkpt>
      <trkpt lat="39.721495" lon="-5.210584">
        <ele>488.6</ele>
        <time>1970-01-01T00:00:00Z</time>
      </trkpt>
      <trkpt lat="39.721696" lon="-5.210672">
        <ele>488.0</ele>
        <time>1970-01-01T00:00:00Z</time>
      </trkpt>
      <trkpt lat="39.722240" lon="-5.210819">
        <ele>488.0</ele>
        <time>1970-01-01T00:00:00Z</time>
      </trkpt>
      <trkpt lat="39.724220" lon="-5.211197">
        <ele>493.2</ele>
        <time>1970-01-01T00:00:00Z</time>
      </trkpt>
      <trkpt lat="39.725496" lon="-5.211490">
        <ele>500.9</ele>
        <time>1970-01-01T00:00:00Z</time>
      </trkpt>
      <trkpt lat="39.727449" lon="-5.212004">
        <ele>499.4</ele>
        <time>1970-01-01T00:00:00Z</time>
      </trkpt>
      <trkpt lat="39.727579" lon="-5.212071">
        <ele>498.5</ele>
        <time>1970-01-01T00:00:00Z</time>
      </trkpt>
      <trkpt lat="39.727719" lon="-5.212220">
        <ele>497.4</ele>
        <time>1970-01-01T00:00:00Z</time>
      </trkpt>
      <trkpt lat="39.728331" lon="-5.213118">
        <ele>495.7</ele>
        <time>1970-01-01T00:00:00Z</time>
      </trkpt>
      <trkpt lat="39.728686" lon="-5.213581">
        <ele>496.9</ele>
        <time>1970-01-01T00:00:00Z</time>
      </trkpt>
      <trkpt lat="39.728855" lon="-5.213683">
        <ele>498.4</ele>
        <time>1970-01-01T00:00:00Z</time>
      </trkpt>
      <trkpt lat="39.728986" lon="-5.213742">
        <ele>499.5</ele>
        <time>1970-01-01T00:00:00Z</time>
      </trkpt>
      <trkpt lat="39.729120" lon="-5.213780">
        <ele>499.9</ele>
        <time>1970-01-01T00:00:00Z</time>
      </trkpt>
      <trkpt lat="39.729351" lon="-5.213798">
        <ele>500.0</ele>
        <time>1970-01-01T00:00:00Z</time>
      </trkpt>
      <trkpt lat="39.729916" lon="-5.213752">
        <ele>497.4</ele>
        <time>1970-01-01T00:00:00Z</time>
      </trkpt>
      <trkpt lat="39.730522" lon="-5.213542">
        <ele>493.2</ele>
        <time>1970-01-01T00:00:00Z</time>
      </trkpt>
      <trkpt lat="39.730706" lon="-5.213501">
        <ele>492.0</ele>
        <time>1970-01-01T00:00:00Z</time>
      </trkpt>
      <trkpt lat="39.730799" lon="-5.213504">
        <ele>492.0</ele>
        <time>1970-01-01T00:00:00Z</time>
      </trkpt>
      <trkpt lat="39.730926" lon="-5.213528">
        <ele>492.1</ele>
        <time>1970-01-01T00:00:00Z</time>
      </trkpt>
      <trkpt lat="39.731608" lon="-5.213797">
        <ele>493.1</ele>
        <time>1970-01-01T00:00:00Z</time>
      </trkpt>
      <trkpt lat="39.732070" lon="-5.213945">
        <ele>493.7</ele>
        <time>1970-01-01T00:00:00Z</time>
      </trkpt>
      <trkpt lat="39.732639" lon="-5.214019">
        <ele>493.6</ele>
        <time>1970-01-01T00:00:00Z</time>
      </trkpt>
      <trkpt lat="39.733290" lon="-5.214055">
        <ele>491.8</ele>
        <time>1970-01-01T00:00:00Z</time>
      </trkpt>
      <trkpt lat="39.733713" lon="-5.213993">
        <ele>491.0</ele>
        <time>1970-01-01T00:00:00Z</time>
      </trkpt>
      <trkpt lat="39.734622" lon="-5.213909">
        <ele>490.7</ele>
        <time>1970-01-01T00:00:00Z</time>
      </trkpt>
      <trkpt lat="39.735672" lon="-5.213789">
        <ele>494.2</ele>
        <time>1970-01-01T00:00:00Z</time>
      </trkpt>
      <trkpt lat="39.735925" lon="-5.213802">
        <ele>495.5</ele>
        <time>1970-01-01T00:00:00Z</time>
      </trkpt>
      <trkpt lat="39.736070" lon="-5.213881">
        <ele>495.6</ele>
        <time>1970-01-01T00:00:00Z</time>
      </trkpt>
      <trkpt lat="39.736494" lon="-5.214166">
        <ele>494.1</ele>
        <time>1970-01-01T00:00:00Z</time>
      </trkpt>
      <trkpt lat="39.736651" lon="-5.214317">
        <ele>494.0</ele>
        <time>1970-01-01T00:00:00Z</time>
      </trkpt>
      <trkpt lat="39.736785" lon="-5.214516">
        <ele>493.8</ele>
        <time>1970-01-01T00:00:00Z</time>
      </trkpt>
      <trkpt lat="39.736900" lon="-5.214747">
        <ele>493.6</ele>
        <time>1970-01-01T00:00:00Z</time>
      </trkpt>
      <trkpt lat="39.737101" lon="-5.215247">
        <ele>491.4</ele>
        <time>1970-01-01T00:00:00Z</time>
      </trkpt>
      <trkpt lat="39.737164" lon="-5.215329">
        <ele>491.2</ele>
        <time>1970-01-01T00:00:00Z</time>
      </trkpt>
      <trkpt lat="39.737381" lon="-5.215528">
        <ele>490.3</ele>
        <time>1970-01-01T00:00:00Z</time>
      </trkpt>
      <trkpt lat="39.737783" lon="-5.215951">
        <ele>487.9</ele>
        <time>1970-01-01T00:00:00Z</time>
      </trkpt>
      <trkpt lat="39.738312" lon="-5.216425">
        <ele>486.4</ele>
        <time>1970-01-01T00:00:00Z</time>
      </trkpt>
      <trkpt lat="39.738463" lon="-5.216521">
        <ele>486.0</ele>
        <time>1970-01-01T00:00:00Z</time>
      </trkpt>
      <trkpt lat="39.739217" lon="-5.216879">
        <ele>487.4</ele>
        <time>1970-01-01T00:00:00Z</time>
      </trkpt>
      <trkpt lat="39.739379" lon="-5.217069">
        <ele>487.3</ele>
        <time>1970-01-01T00:00:00Z</time>
      </trkpt>
      <trkpt lat="39.739583" lon="-5.217375">
        <ele>487.6</ele>
        <time>1970-01-01T00:00:00Z</time>
      </trkpt>
      <trkpt lat="39.739665" lon="-5.217575">
        <ele>487.9</ele>
        <time>1970-01-01T00:00:00Z</time>
      </trkpt>
      <trkpt lat="39.739750" lon="-5.217723">
        <ele>488.1</ele>
        <time>1970-01-01T00:00:00Z</time>
      </trkpt>
      <trkpt lat="39.739865" lon="-5.217875">
        <ele>487.9</ele>
        <time>1970-01-01T00:00:00Z</time>
      </trkpt>
      <trkpt lat="39.740155" lon="-5.218164">
        <ele>488.0</ele>
        <time>1970-01-01T00:00:00Z</time>
      </trkpt>
      <trkpt lat="39.740263" lon="-5.218288">
        <ele>488.0</ele>
        <time>1970-01-01T00:00:00Z</time>
      </trkpt>
      <trkpt lat="39.740397" lon="-5.218394">
        <ele>488.0</ele>
        <time>1970-01-01T00:00:00Z</time>
      </trkpt>
      <trkpt lat="39.740484" lon="-5.218436">
        <ele>488.0</ele>
        <time>1970-01-01T00:00:00Z</time>
      </trkpt>
      <trkpt lat="39.740559" lon="-5.218463">
        <ele>488.0</ele>
        <time>1970-01-01T00:00:00Z</time>
      </trkpt>
      <trkpt lat="39.740673" lon="-5.218479">
        <ele>488.0</ele>
        <time>1970-01-01T00:00:00Z</time>
      </trkpt>
      <trkpt lat="39.741065" lon="-5.218469">
        <ele>488.0</ele>
        <time>1970-01-01T00:00:00Z</time>
      </trkpt>
      <trkpt lat="39.741309" lon="-5.218440">
        <ele>488.0</ele>
        <time>1970-01-01T00:00:00Z</time>
      </trkpt>
      <trkpt lat="39.741440" lon="-5.218407">
        <ele>487.5</ele>
        <time>1970-01-01T00:00:00Z</time>
      </trkpt>
      <trkpt lat="39.741698" lon="-5.218455">
        <ele>486.7</ele>
        <time>1970-01-01T00:00:00Z</time>
      </trkpt>
      <trkpt lat="39.741794" lon="-5.218505">
        <ele>486.5</ele>
        <time>1970-01-01T00:00:00Z</time>
      </trkpt>
      <trkpt lat="39.741969" lon="-5.218629">
        <ele>486.2</ele>
        <time>1970-01-01T00:00:00Z</time>
      </trkpt>
      <trkpt lat="39.742039" lon="-5.218696">
        <ele>486.1</ele>
        <time>1970-01-01T00:00:00Z</time>
      </trkpt>
      <trkpt lat="39.742110" lon="-5.218728">
        <ele>485.6</ele>
        <time>1970-01-01T00:00:00Z</time>
      </trkpt>
      <trkpt lat="39.742513" lon="-5.218995">
        <ele>485.2</ele>
        <time>1970-01-01T00:00:00Z</time>
      </trkpt>
      <trkpt lat="39.742974" lon="-5.219225">
        <ele>486.1</ele>
        <time>1970-01-01T00:00:00Z</time>
      </trkpt>
      <trkpt lat="39.743330" lon="-5.219481">
        <ele>487.0</ele>
        <time>1970-01-01T00:00:00Z</time>
      </trkpt>
      <trkpt lat="39.743698" lon="-5.219957">
        <ele>488.5</ele>
        <time>1970-01-01T00:00:00Z</time>
      </trkpt>
      <trkpt lat="39.744169" lon="-5.220476">
        <ele>486.7</ele>
        <time>1970-01-01T00:00:00Z</time>
      </trkpt>
      <trkpt lat="39.744425" lon="-5.220914">
        <ele>487.0</ele>
        <time>1970-01-01T00:00:00Z</time>
      </trkpt>
      <trkpt lat="39.744581" lon="-5.221057">
        <ele>486.4</ele>
        <time>1970-01-01T00:00:00Z</time>
      </trkpt>
      <trkpt lat="39.744803" lon="-5.221208">
        <ele>486.1</ele>
        <time>1970-01-01T00:00:00Z</time>
      </trkpt>
      <trkpt lat="39.744993" lon="-5.221357">
        <ele>486.0</ele>
        <time>1970-01-01T00:00:00Z</time>
      </trkpt>
      <trkpt lat="39.745051" lon="-5.221386">
        <ele>486.0</ele>
        <time>1970-01-01T00:00:00Z</time>
      </trkpt>
      <trkpt lat="39.745493" lon="-5.221507">
        <ele>485.6</ele>
        <time>1970-01-01T00:00:00Z</time>
      </trkpt>
      <trkpt lat="39.745580" lon="-5.221843">
        <ele>488.0</ele>
        <time>1970-01-01T00:00:00Z</time>
      </trkpt>
      <trkpt lat="39.745668" lon="-5.222261">
        <ele>489.8</ele>
        <time>1970-01-01T00:00:00Z</time>
      </trkpt>
      <trkpt lat="39.745739" lon="-5.222493">
        <ele>490.0</ele>
        <time>1970-01-01T00:00:00Z</time>
      </trkpt>
      <trkpt lat="39.745825" lon="-5.222693">
        <ele>489.7</ele>
        <time>1970-01-01T00:00:00Z</time>
      </trkpt>
      <trkpt lat="39.745918" lon="-5.223252">
        <ele>489.1</ele>
        <time>1970-01-01T00:00:00Z</time>
      </trkpt>
      <trkpt lat="39.746101" lon="-5.223949">
        <ele>487.2</ele>
        <time>1970-01-01T00:00:00Z</time>
      </trkpt>
      <trkpt lat="39.746131" lon="-5.224146">
        <ele>486.2</ele>
        <time>1970-01-01T00:00:00Z</time>
      </trkpt>
      <trkpt lat="39.746331" lon="-5.224945">
        <ele>481.8</ele>
        <time>1970-01-01T00:00:00Z</time>
      </trkpt>
      <trkpt lat="39.746591" lon="-5.225432">
        <ele>477.6</ele>
        <time>1970-01-01T00:00:00Z</time>
      </trkpt>
      <trkpt lat="39.746656" lon="-5.225598">
        <ele>476.8</ele>
        <time>1970-01-01T00:00:00Z</time>
      </trkpt>
      <trkpt lat="39.746767" lon="-5.226093">
        <ele>474.9</ele>
        <time>1970-01-01T00:00:00Z</time>
      </trkpt>
      <trkpt lat="39.746832" lon="-5.226196">
        <ele>474.9</ele>
        <time>1970-01-01T00:00:00Z</time>
      </trkpt>
      <trkpt lat="39.746907" lon="-5.226246">
        <ele>475.2</ele>
        <time>1970-01-01T00:00:00Z</time>
      </trkpt>
      <trkpt lat="39.746966" lon="-5.226240">
        <ele>475.4</ele>
        <time>1970-01-01T00:00:00Z</time>
      </trkpt>
      <trkpt lat="39.747423" lon="-5.226013">
        <ele>476.0</ele>
        <time>1970-01-01T00:00:00Z</time>
      </trkpt>
      <trkpt lat="39.747729" lon="-5.225929">
        <ele>475.6</ele>
        <time>1970-01-01T00:00:00Z</time>
      </trkpt>
      <trkpt lat="39.748232" lon="-5.225762">
        <ele>472.2</ele>
        <time>1970-01-01T00:00:00Z</time>
      </trkpt>
      <trkpt lat="39.748373" lon="-5.225697">
        <ele>471.5</ele>
        <time>1970-01-01T00:00:00Z</time>
      </trkpt>
      <trkpt lat="39.748742" lon="-5.225630">
        <ele>469.8</ele>
        <time>1970-01-01T00:00:00Z</time>
      </trkpt>
      <trkpt lat="39.748876" lon="-5.225580">
        <ele>468.6</ele>
        <time>1970-01-01T00:00:00Z</time>
      </trkpt>
      <trkpt lat="39.749123" lon="-5.225568">
        <ele>466.5</ele>
        <time>1970-01-01T00:00:00Z</time>
      </trkpt>
      <trkpt lat="39.749224" lon="-5.225544">
        <ele>465.8</ele>
        <time>1970-01-01T00:00:00Z</time>
      </trkpt>
      <trkpt lat="39.749678" lon="-5.225342">
        <ele>463.6</ele>
        <time>1970-01-01T00:00:00Z</time>
      </trkpt>
      <trkpt lat="39.749860" lon="-5.225278">
        <ele>462.3</ele>
        <time>1970-01-01T00:00:00Z</time>
      </trkpt>
      <trkpt lat="39.750082" lon="-5.225145">
        <ele>460.9</ele>
        <time>1970-01-01T00:00:00Z</time>
      </trkpt>
      <trkpt lat="39.750361" lon="-5.225043">
        <ele>459.0</ele>
        <time>1970-01-01T00:00:00Z</time>
      </trkpt>
      <trkpt lat="39.750895" lon="-5.224813">
        <ele>459.1</ele>
        <time>1970-01-01T00:00:00Z</time>
      </trkpt>
      <trkpt lat="39.751674" lon="-5.224554">
        <ele>464.6</ele>
        <time>1970-01-01T00:00:00Z</time>
      </trkpt>
      <trkpt lat="39.752123" lon="-5.224435">
        <ele>468.7</ele>
        <time>1970-01-01T00:00:00Z</time>
      </trkpt>
      <trkpt lat="39.752466" lon="-5.224320">
        <ele>469.7</ele>
        <time>1970-01-01T00:00:00Z</time>
      </trkpt>
      <trkpt lat="39.752718" lon="-5.224115">
        <ele>469.0</ele>
        <time>1970-01-01T00:00:00Z</time>
      </trkpt>
      <trkpt lat="39.753224" lon="-5.223662">
        <ele>468.6</ele>
        <time>1970-01-01T00:00:00Z</time>
      </trkpt>
      <trkpt lat="39.753317" lon="-5.223621">
        <ele>468.4</ele>
        <time>1970-01-01T00:00:00Z</time>
      </trkpt>
      <trkpt lat="39.753458" lon="-5.223640">
        <ele>467.8</ele>
        <time>1970-01-01T00:00:00Z</time>
      </trkpt>
      <trkpt lat="39.753628" lon="-5.223690">
        <ele>467.0</ele>
        <time>1970-01-01T00:00:00Z</time>
      </trkpt>
      <trkpt lat="39.753757" lon="-5.223763">
        <ele>466.7</ele>
        <time>1970-01-01T00:00:00Z</time>
      </trkpt>
      <trkpt lat="39.753929" lon="-5.223809">
        <ele>465.7</ele>
        <time>1970-01-01T00:00:00Z</time>
      </trkpt>
      <trkpt lat="39.754055" lon="-5.223813">
        <ele>464.9</ele>
        <time>1970-01-01T00:00:00Z</time>
      </trkpt>
      <trkpt lat="39.754197" lon="-5.223864">
        <ele>463.7</ele>
        <time>1970-01-01T00:00:00Z</time>
      </trkpt>
      <trkpt lat="39.754414" lon="-5.223975">
        <ele>462.9</ele>
        <time>1970-01-01T00:00:00Z</time>
      </trkpt>
      <trkpt lat="39.754588" lon="-5.224079">
        <ele>462.0</ele>
        <time>1970-01-01T00:00:00Z</time>
      </trkpt>
      <trkpt lat="39.754995" lon="-5.224623">
        <ele>461.0</ele>
        <time>1970-01-01T00:00:00Z</time>
      </trkpt>
      <trkpt lat="39.755382" lon="-5.224799">
        <ele>461.8</ele>
        <time>1970-01-01T00:00:00Z</time>
      </trkpt>
      <trkpt lat="39.755502" lon="-5.224830">
        <ele>462.6</ele>
        <time>1970-01-01T00:00:00Z</time>
      </trkpt>
      <trkpt lat="39.755687" lon="-5.224826">
        <ele>464.1</ele>
        <time>1970-01-01T00:00:00Z</time>
      </trkpt>
      <trkpt lat="39.755878" lon="-5.224810">
        <ele>464.9</ele>
        <time>1970-01-01T00:00:00Z</time>
      </trkpt>
      <trkpt lat="39.756100" lon="-5.224765">
        <ele>465.0</ele>
        <time>1970-01-01T00:00:00Z</time>
      </trkpt>
      <trkpt lat="39.756318" lon="-5.224530">
        <ele>465.0</ele>
        <time>1970-01-01T00:00:00Z</time>
      </trkpt>
      <trkpt lat="39.756592" lon="-5.224282">
        <ele>465.0</ele>
        <time>1970-01-01T00:00:00Z</time>
      </trkpt>
      <trkpt lat="39.756883" lon="-5.223928">
        <ele>464.0</ele>
        <time>1970-01-01T00:00:00Z</time>
      </trkpt>
      <trkpt lat="39.757172" lon="-5.223671">
        <ele>463.3</ele>
        <time>1970-01-01T00:00:00Z</time>
      </trkpt>
      <trkpt lat="39.758092" lon="-5.222712">
        <ele>456.7</ele>
        <time>1970-01-01T00:00:00Z</time>
      </trkpt>
      <trkpt lat="39.758296" lon="-5.222541">
        <ele>454.2</ele>
        <time>1970-01-01T00:00:00Z</time>
      </trkpt>
      <trkpt lat="39.758449" lon="-5.222390">
        <ele>453.0</ele>
        <time>1970-01-01T00:00:00Z</time>
      </trkpt>
      <trkpt lat="39.758720" lon="-5.222162">
        <ele>453.0</ele>
        <time>1970-01-01T00:00:00Z</time>
      </trkpt>
      <trkpt lat="39.759171" lon="-5.222025">
        <ele>453.0</ele>
        <time>1970-01-01T00:00:00Z</time>
      </trkpt>
      <trkpt lat="39.759260" lon="-5.221966">
        <ele>453.0</ele>
        <time>1970-01-01T00:00:00Z</time>
      </trkpt>
      <trkpt lat="39.759390" lon="-5.221768">
        <ele>453.1</ele>
        <time>1970-01-01T00:00:00Z</time>
      </trkpt>
      <trkpt lat="39.759519" lon="-5.221604">
        <ele>453.6</ele>
        <time>1970-01-01T00:00:00Z</time>
      </trkpt>
      <trkpt lat="39.759657" lon="-5.221460">
        <ele>453.6</ele>
        <time>1970-01-01T00:00:00Z</time>
      </trkpt>
      <trkpt lat="39.759738" lon="-5.221416">
        <ele>453.8</ele>
        <time>1970-01-01T00:00:00Z</time>
      </trkpt>
      <trkpt lat="39.759965" lon="-5.220996">
        <ele>453.2</ele>
        <time>1970-01-01T00:00:00Z</time>
      </trkpt>
      <trkpt lat="39.760001" lon="-5.220824">
        <ele>452.6</ele>
        <time>1970-01-01T00:00:00Z</time>
      </trkpt>
      <trkpt lat="39.760112" lon="-5.220566">
        <ele>451.7</ele>
        <time>1970-01-01T00:00:00Z</time>
      </trkpt>
      <trkpt lat="39.760211" lon="-5.220384">
        <ele>451.5</ele>
        <time>1970-01-01T00:00:00Z</time>
      </trkpt>
      <trkpt lat="39.760278" lon="-5.220297">
        <ele>451.3</ele>
        <time>1970-01-01T00:00:00Z</time>
      </trkpt>
      <trkpt lat="39.760388" lon="-5.220216">
        <ele>451.0</ele>
        <time>1970-01-01T00:00:00Z</time>
      </trkpt>
      <trkpt lat="39.760517" lon="-5.219959">
        <ele>449.8</ele>
        <time>1970-01-01T00:00:00Z</time>
      </trkpt>
      <trkpt lat="39.760657" lon="-5.219738">
        <ele>449.0</ele>
        <time>1970-01-01T00:00:00Z</time>
      </trkpt>
      <trkpt lat="39.760821" lon="-5.219437">
        <ele>448.9</ele>
        <time>1970-01-01T00:00:00Z</time>
      </trkpt>
      <trkpt lat="39.760867" lon="-5.219320">
        <ele>448.5</ele>
        <time>1970-01-01T00:00:00Z</time>
      </trkpt>
      <trkpt lat="39.761032" lon="-5.219034">
        <ele>447.0</ele>
        <time>1970-01-01T00:00:00Z</time>
      </trkpt>
      <trkpt lat="39.761124" lon="-5.218945">
        <ele>447.0</ele>
        <time>1970-01-01T00:00:00Z</time>
      </trkpt>
      <trkpt lat="39.761434" lon="-5.218793">
        <ele>445.9</ele>
        <time>1970-01-01T00:00:00Z</time>
      </trkpt>
      <trkpt lat="39.761660" lon="-5.218630">
        <ele>444.2</ele>
        <time>1970-01-01T00:00:00Z</time>
      </trkpt>
      <trkpt lat="39.761808" lon="-5.218544">
        <ele>442.6</ele>
        <time>1970-01-01T00:00:00Z</time>
      </trkpt>
      <trkpt lat="39.761988" lon="-5.218404">
        <ele>441.1</ele>
        <time>1970-01-01T00:00:00Z</time>
      </trkpt>
      <trkpt lat="39.762095" lon="-5.218298">
        <ele>440.7</ele>
        <time>1970-01-01T00:00:00Z</time>
      </trkpt>
      <trkpt lat="39.762283" lon="-5.218042">
        <ele>438.6</ele>
        <time>1970-01-01T00:00:00Z</time>
      </trkpt>
      <trkpt lat="39.762529" lon="-5.217874">
        <ele>437.3</ele>
        <time>1970-01-01T00:00:00Z</time>
      </trkpt>
      <trkpt lat="39.762653" lon="-5.217824">
        <ele>436.8</ele>
        <time>1970-01-01T00:00:00Z</time>
      </trkpt>
      <trkpt lat="39.762842" lon="-5.217714">
        <ele>436.0</ele>
        <time>1970-01-01T00:00:00Z</time>
      </trkpt>
      <trkpt lat="39.763044" lon="-5.217550">
        <ele>436.0</ele>
        <time>1970-01-01T00:00:00Z</time>
      </trkpt>
      <trkpt lat="39.763281" lon="-5.217397">
        <ele>436.0</ele>
        <time>1970-01-01T00:00:00Z</time>
      </trkpt>
      <trkpt lat="39.763461" lon="-5.217168">
        <ele>435.3</ele>
        <time>1970-01-01T00:00:00Z</time>
      </trkpt>
      <trkpt lat="39.763533" lon="-5.217102">
        <ele>435.0</ele>
        <time>1970-01-01T00:00:00Z</time>
      </trkpt>
      <trkpt lat="39.763577" lon="-5.217002">
        <ele>435.0</ele>
        <time>1970-01-01T00:00:00Z</time>
      </trkpt>
      <trkpt lat="39.763650" lon="-5.216757">
        <ele>436.5</ele>
        <time>1970-01-01T00:00:00Z</time>
      </trkpt>
      <trkpt lat="39.763696" lon="-5.216679">
        <ele>436.9</ele>
        <time>1970-01-01T00:00:00Z</time>
      </trkpt>
      <trkpt lat="39.763838" lon="-5.216521">
        <ele>437.7</ele>
        <time>1970-01-01T00:00:00Z</time>
      </trkpt>
      <trkpt lat="39.763960" lon="-5.216436">
        <ele>437.5</ele>
        <time>1970-01-01T00:00:00Z</time>
      </trkpt>
      <trkpt lat="39.764128" lon="-5.216194">
        <ele>437.5</ele>
        <time>1970-01-01T00:00:00Z</time>
      </trkpt>
      <trkpt lat="39.764383" lon="-5.216106">
        <ele>437.0</ele>
        <time>1970-01-01T00:00:00Z</time>
      </trkpt>
      <trkpt lat="39.764642" lon="-5.215959">
        <ele>436.7</ele>
        <time>1970-01-01T00:00:00Z</time>
      </trkpt>
      <trkpt lat="39.764950" lon="-5.215870">
        <ele>435.5</ele>
        <time>1970-01-01T00:00:00Z</time>
      </trkpt>
      <trkpt lat="39.765149" lon="-5.215673">
        <ele>434.7</ele>
        <time>1970-01-01T00:00:00Z</time>
      </trkpt>
      <trkpt lat="39.765418" lon="-5.215465">
        <ele>432.7</ele>
        <time>1970-01-01T00:00:00Z</time>
      </trkpt>
      <trkpt lat="39.765502" lon="-5.215368">
        <ele>431.9</ele>
        <time>1970-01-01T00:00:00Z</time>
      </trkpt>
      <trkpt lat="39.765518" lon="-5.215305">
        <ele>431.8</ele>
        <time>1970-01-01T00:00:00Z</time>
      </trkpt>
      <trkpt lat="39.765648" lon="-5.215193">
        <ele>430.8</ele>
        <time>1970-01-01T00:00:00Z</time>
      </trkpt>
      <trkpt lat="39.765700" lon="-5.215155">
        <ele>430.6</ele>
        <time>1970-01-01T00:00:00Z</time>
      </trkpt>
      <trkpt lat="39.765771" lon="-5.215135">
        <ele>430.3</ele>
        <time>1970-01-01T00:00:00Z</time>
      </trkpt>
      <trkpt lat="39.765996" lon="-5.214920">
        <ele>430.3</ele>
        <time>1970-01-01T00:00:00Z</time>
      </trkpt>
      <trkpt lat="39.766180" lon="-5.214795">
        <ele>430.9</ele>
        <time>1970-01-01T00:00:00Z</time>
      </trkpt>
      <trkpt lat="39.766428" lon="-5.214573">
        <ele>432.4</ele>
        <time>1970-01-01T00:00:00Z</time>
      </trkpt>
      <trkpt lat="39.766484" lon="-5.214565">
        <ele>432.5</ele>
        <time>1970-01-01T00:00:00Z</time>
      </trkpt>
      <trkpt lat="39.766632" lon="-5.214471">
        <ele>432.8</ele>
        <time>1970-01-01T00:00:00Z</time>
      </trkpt>
      <trkpt lat="39.766726" lon="-5.214343">
        <ele>433.4</ele>
        <time>1970-01-01T00:00:00Z</time>
      </trkpt>
      <trkpt lat="39.766855" lon="-5.214369">
        <ele>432.8</ele>
        <time>1970-01-01T00:00:00Z</time>
      </trkpt>
      <trkpt lat="39.767141" lon="-5.214171">
        <ele>433.2</ele>
        <time>1970-01-01T00:00:00Z</time>
      </trkpt>
      <trkpt lat="39.767899" lon="-5.213770">
        <ele>430.0</ele>
        <time>1970-01-01T00:00:00Z</time>
      </trkpt>
      <trkpt lat="39.768091" lon="-5.213756">
        <ele>428.5</ele>
        <time>1970-01-01T00:00:00Z</time>
      </trkpt>
      <trkpt lat="39.768381" lon="-5.213672">
        <ele>425.7</ele>
        <time>1970-01-01T00:00:00Z</time>
      </trkpt>
      <trkpt lat="39.768842" lon="-5.213316">
        <ele>426.9</ele>
        <time>1970-01-01T00:00:00Z</time>
      </trkpt>
      <trkpt lat="39.769023" lon="-5.213223">
        <ele>426.5</ele>
        <time>1970-01-01T00:00:00Z</time>
      </trkpt>
      <trkpt lat="39.769378" lon="-5.212908">
        <ele>426.3</ele>
        <time>1970-01-01T00:00:00Z</time>
      </trkpt>
      <trkpt lat="39.769658" lon="-5.212623">
        <ele>425.0</ele>
        <time>1970-01-01T00:00:00Z</time>
      </trkpt>
      <trkpt lat="39.769869" lon="-5.212316">
        <ele>423.3</ele>
        <time>1970-01-01T00:00:00Z</time>
      </trkpt>
      <trkpt lat="39.769939" lon="-5.212187">
        <ele>422.8</ele>
        <time>1970-01-01T00:00:00Z</time>
      </trkpt>
      <trkpt lat="39.770218" lon="-5.212043">
        <ele>421.1</ele>
        <time>1970-01-01T00:00:00Z</time>
      </trkpt>
      <trkpt lat="39.770411" lon="-5.211839">
        <ele>419.5</ele>
        <time>1970-01-01T00:00:00Z</time>
      </trkpt>
      <trkpt lat="39.770432" lon="-5.211793">
        <ele>419.3</ele>
        <time>1970-01-01T00:00:00Z</time>
      </trkpt>
      <trkpt lat="39.770541" lon="-5.211406">
        <ele>419.5</ele>
        <time>1970-01-01T00:00:00Z</time>
      </trkpt>
      <trkpt lat="39.770618" lon="-5.211050">
        <ele>420.4</ele>
        <time>1970-01-01T00:00:00Z</time>
      </trkpt>
      <trkpt lat="39.770842" lon="-5.210536">
        <ele>419.8</ele>
        <time>1970-01-01T00:00:00Z</time>
      </trkpt>
      <trkpt lat="39.770874" lon="-5.210418">
        <ele>419.3</ele>
        <time>1970-01-01T00:00:00Z</time>
      </trkpt>
      <trkpt lat="39.770894" lon="-5.210290">
        <ele>418.6</ele>
        <time>1970-01-01T00:00:00Z</time>
      </trkpt>
      <trkpt lat="39.771021" lon="-5.209995">
        <ele>417.2</ele>
        <time>1970-01-01T00:00:00Z</time>
      </trkpt>
      <trkpt lat="39.771106" lon="-5.209855">
        <ele>415.9</ele>
        <time>1970-01-01T00:00:00Z</time>
      </trkpt>
      <trkpt lat="39.771190" lon="-5.209761">
        <ele>414.9</ele>
        <time>1970-01-01T00:00:00Z</time>
      </trkpt>
      <trkpt lat="39.771262" lon="-5.209607">
        <ele>414.2</ele>
        <time>1970-01-01T00:00:00Z</time>
      </trkpt>
      <trkpt lat="39.771323" lon="-5.209404">
        <ele>413.7</ele>
        <time>1970-01-01T00:00:00Z</time>
      </trkpt>
      <trkpt lat="39.771345" lon="-5.209237">
        <ele>413.5</ele>
        <time>1970-01-01T00:00:00Z</time>
      </trkpt>
      <trkpt lat="39.771359" lon="-5.208980">
        <ele>413.8</ele>
        <time>1970-01-01T00:00:00Z</time>
      </trkpt>
      <trkpt lat="39.771421" lon="-5.208750">
        <ele>414.0</ele>
        <time>1970-01-01T00:00:00Z</time>
      </trkpt>
      <trkpt lat="39.771443" lon="-5.208615">
        <ele>414.0</ele>
        <time>1970-01-01T00:00:00Z</time>
      </trkpt>
      <trkpt lat="39.771485" lon="-5.208201">
        <ele>414.4</ele>
        <time>1970-01-01T00:00:00Z</time>
      </trkpt>
      <trkpt lat="39.771486" lon="-5.207914">
        <ele>414.5</ele>
        <time>1970-01-01T00:00:00Z</time>
      </trkpt>
      <trkpt lat="39.771599" lon="-5.207624">
        <ele>416.1</ele>
        <time>1970-01-01T00:00:00Z</time>
      </trkpt>
      <trkpt lat="39.771642" lon="-5.207450">
        <ele>417.2</ele>
        <time>1970-01-01T00:00:00Z</time>
      </trkpt>
      <trkpt lat="39.771641" lon="-5.207289">
        <ele>417.2</ele>
        <time>1970-01-01T00:00:00Z</time>
      </trkpt>
      <trkpt lat="39.771693" lon="-5.207170">
        <ele>417.4</ele>
        <time>1970-01-01T00:00:00Z</time>
      </trkpt>
      <trkpt lat="39.771732" lon="-5.206959">
        <ele>417.0</ele>
        <time>1970-01-01T00:00:00Z</time>
      </trkpt>
      <trkpt lat="39.771805" lon="-5.206711">
        <ele>416.6</ele>
        <time>1970-01-01T00:00:00Z</time>
      </trkpt>
      <trkpt lat="39.771964" lon="-5.206358">
        <ele>417.4</ele>
        <time>1970-01-01T00:00:00Z</time>
      </trkpt>
      <trkpt lat="39.772012" lon="-5.206169">
        <ele>416.0</ele>
        <time>1970-01-01T00:00:00Z</time>
      </trkpt>
      <trkpt lat="39.771996" lon="-5.205988">
        <ele>413.9</ele>
        <time>1970-01-01T00:00:00Z</time>
      </trkpt>
      <trkpt lat="39.772034" lon="-5.205807">
        <ele>412.7</ele>
        <time>1970-01-01T00:00:00Z</time>
      </trkpt>
      <trkpt lat="39.772029" lon="-5.205676">
        <ele>411.7</ele>
        <time>1970-01-01T00:00:00Z</time>
      </trkpt>
      <trkpt lat="39.771933" lon="-5.205369">
        <ele>408.7</ele>
        <time>1970-01-01T00:00:00Z</time>
      </trkpt>
      <trkpt lat="39.771928" lon="-5.205252">
        <ele>408.0</ele>
        <time>1970-01-01T00:00:00Z</time>
      </trkpt>
      <trkpt lat="39.771944" lon="-5.205117">
        <ele>407.4</ele>
        <time>1970-01-01T00:00:00Z</time>
      </trkpt>
      <trkpt lat="39.772048" lon="-5.204567">
        <ele>406.0</ele>
        <time>1970-01-01T00:00:00Z</time>
      </trkpt>
      <trkpt lat="39.772043" lon="-5.204001">
        <ele>401.7</ele>
        <time>1970-01-01T00:00:00Z</time>
      </trkpt>
      <trkpt lat="39.772097" lon="-5.203869">
        <ele>401.4</ele>
        <time>1970-01-01T00:00:00Z</time>
      </trkpt>
      <trkpt lat="39.772137" lon="-5.203668">
        <ele>400.1</ele>
        <time>1970-01-01T00:00:00Z</time>
      </trkpt>
      <trkpt lat="39.772150" lon="-5.203174">
        <ele>396.8</ele>
        <time>1970-01-01T00:00:00Z</time>
      </trkpt>
      <trkpt lat="39.772170" lon="-5.203031">
        <ele>396.0</ele>
        <time>1970-01-01T00:00:00Z</time>
      </trkpt>
      <trkpt lat="39.772151" lon="-5.202929">
        <ele>395.3</ele>
        <time>1970-01-01T00:00:00Z</time>
      </trkpt>
      <trkpt lat="39.772156" lon="-5.202788">
        <ele>394.3</ele>
        <time>1970-01-01T00:00:00Z</time>
      </trkpt>
      <trkpt lat="39.772178" lon="-5.202720">
        <ele>393.7</ele>
        <time>1970-01-01T00:00:00Z</time>
      </trkpt>
      <trkpt lat="39.772402" lon="-5.202300">
        <ele>391.3</ele>
        <time>1970-01-01T00:00:00Z</time>
      </trkpt>
      <trkpt lat="39.772450" lon="-5.202150">
        <ele>390.4</ele>
        <time>1970-01-01T00:00:00Z</time>
      </trkpt>
      <trkpt lat="39.772482" lon="-5.201985">
        <ele>389.3</ele>
        <time>1970-01-01T00:00:00Z</time>
      </trkpt>
      <trkpt lat="39.772471" lon="-5.201725">
        <ele>387.1</ele>
        <time>1970-01-01T00:00:00Z</time>
      </trkpt>
      <trkpt lat="39.772442" lon="-5.201553">
        <ele>386.0</ele>
        <time>1970-01-01T00:00:00Z</time>
      </trkpt>
      <trkpt lat="39.772275" lon="-5.200898">
        <ele>383.2</ele>
        <time>1970-01-01T00:00:00Z</time>
      </trkpt>
      <trkpt lat="39.772183" lon="-5.200639">
        <ele>382.6</ele>
        <time>1970-01-01T00:00:00Z</time>
      </trkpt>
      <trkpt lat="39.772236" lon="-5.200534">
        <ele>381.9</ele>
        <time>1970-01-01T00:00:00Z</time>
      </trkpt>
      <trkpt lat="39.772415" lon="-5.200361">
        <ele>380.3</ele>
        <time>1970-01-01T00:00:00Z</time>
      </trkpt>
      <trkpt lat="39.772591" lon="-5.200349">
        <ele>380.0</ele>
        <time>1970-01-01T00:00:00Z</time>
      </trkpt>
      <trkpt lat="39.772786" lon="-5.200099">
        <ele>379.0</ele>
        <time>1970-01-01T00:00:00Z</time>
      </trkpt>
      <trkpt lat="39.772815" lon="-5.199996">
        <ele>379.4</ele>
        <time>1970-01-01T00:00:00Z</time>
      </trkpt>
      <trkpt lat="39.772813" lon="-5.199811">
        <ele>380.5</ele>
        <time>1970-01-01T00:00:00Z</time>
      </trkpt>
      <trkpt lat="39.772913" lon="-5.199689">
        <ele>381.6</ele>
        <time>1970-01-01T00:00:00Z</time>
      </trkpt>
      <trkpt lat="39.773117" lon="-5.199726">
        <ele>380.5</ele>
        <time>1970-01-01T00:00:00Z</time>
      </trkpt>
      <trkpt lat="39.773401" lon="-5.199735">
        <ele>380.0</ele>
        <time>1970-01-01T00:00:00Z</time>
      </trkpt>
      <trkpt lat="39.773648" lon="-5.199691">
        <ele>380.0</ele>
        <time>1970-01-01T00:00:00Z</time>
      </trkpt>
      <trkpt lat="39.773960" lon="-5.199728">
        <ele>379.6</ele>
        <time>1970-01-01T00:00:00Z</time>
      </trkpt>
      <trkpt lat="39.774964" lon="-5.199464">
        <ele>381.4</ele>
        <time>1970-01-01T00:00:00Z</time>
      </trkpt>
      <trkpt lat="39.775553" lon="-5.199279">
        <ele>382.5</ele>
        <time>1970-01-01T00:00:00Z</time>
      </trkpt>
      <trkpt lat="39.775962" lon="-5.199053">
        <ele>383.2</ele>
        <time>1970-01-01T00:00:00Z</time>
      </trkpt>
      <trkpt lat="39.776577" lon="-5.198470">
        <ele>390.0</ele>
        <time>1970-01-01T00:00:00Z</time>
      </trkpt>
      <trkpt lat="39.776642" lon="-5.198272">
        <ele>392.8</ele>
        <time>1970-01-01T00:00:00Z</time>
      </trkpt>
      <trkpt lat="39.776790" lon="-5.197992">
        <ele>396.8</ele>
        <time>1970-01-01T00:00:00Z</time>
      </trkpt>
      <trkpt lat="39.776853" lon="-5.197910">
        <ele>398.5</ele>
        <time>1970-01-01T00:00:00Z</time>
      </trkpt>
      <trkpt lat="39.776926" lon="-5.197866">
        <ele>399.6</ele>
        <time>1970-01-01T00:00:00Z</time>
      </trkpt>
      <trkpt lat="39.776993" lon="-5.197883">
        <ele>399.8</ele>
        <time>1970-01-01T00:00:00Z</time>
      </trkpt>
      <trkpt lat="39.777049" lon="-5.197931">
        <ele>399.4</ele>
        <time>1970-01-01T00:00:00Z</time>
      </trkpt>
      <trkpt lat="39.777230" lon="-5.197831">
        <ele>401.5</ele>
        <time>1970-01-01T00:00:00Z</time>
      </trkpt>
      <trkpt lat="39.777292" lon="-5.197904">
        <ele>401.0</ele>
        <time>1970-01-01T00:00:00Z</time>
      </trkpt>
      <trkpt lat="39.777317" lon="-5.198155">
        <ele>398.9</ele>
        <time>1970-01-01T00:00:00Z</time>
      </trkpt>
      <trkpt lat="39.777432" lon="-5.198242">
        <ele>399.0</ele>
        <time>1970-01-01T00:00:00Z</time>
      </trkpt>
      <trkpt lat="39.777672" lon="-5.198354">
        <ele>399.2</ele>
        <time>1970-01-01T00:00:00Z</time>
      </trkpt>
      <trkpt lat="39.777732" lon="-5.198445">
        <ele>398.9</ele>
        <time>1970-01-01T00:00:00Z</time>
      </trkpt>
      <trkpt lat="39.777814" lon="-5.198435">
        <ele>399.7</ele>
        <time>1970-01-01T00:00:00Z</time>
      </trkpt>
      <trkpt lat="39.777865" lon="-5.198338">
        <ele>401.0</ele>
        <time>1970-01-01T00:00:00Z</time>
      </trkpt>
      <trkpt lat="39.777990" lon="-5.198186">
        <ele>402.9</ele>
        <time>1970-01-01T00:00:00Z</time>
      </trkpt>
      <trkpt lat="39.778111" lon="-5.198126">
        <ele>404.0</ele>
        <time>1970-01-01T00:00:00Z</time>
      </trkpt>
      <trkpt lat="39.778151" lon="-5.198018">
        <ele>404.7</ele>
        <time>1970-01-01T00:00:00Z</time>
      </trkpt>
      <trkpt lat="39.778868" lon="-5.196909">
        <ele>400.7</ele>
        <time>1970-01-01T00:00:00Z</time>
      </trkpt>
      <trkpt lat="39.779190" lon="-5.196442">
        <ele>398.7</ele>
        <time>1970-01-01T00:00:00Z</time>
      </trkpt>
      <trkpt lat="39.779310" lon="-5.196249">
        <ele>397.7</ele>
        <time>1970-01-01T00:00:00Z</time>
      </trkpt>
      <trkpt lat="39.779345" lon="-5.196138">
        <ele>397.7</ele>
        <time>1970-01-01T00:00:00Z</time>
      </trkpt>
      <trkpt lat="39.779491" lon="-5.196066">
        <ele>397.1</ele>
        <time>1970-01-01T00:00:00Z</time>
      </trkpt>
      <trkpt lat="39.779862" lon="-5.195712">
        <ele>394.4</ele>
        <time>1970-01-01T00:00:00Z</time>
      </trkpt>
      <trkpt lat="39.780354" lon="-5.195014">
        <ele>391.6</ele>
        <time>1970-01-01T00:00:00Z</time>
      </trkpt>
      <trkpt lat="39.780743" lon="-5.194260">
        <ele>388.4</ele>
        <time>1970-01-01T00:00:00Z</time>
      </trkpt>
      <trkpt lat="39.780741" lon="-5.194166">
        <ele>388.9</ele>
        <time>1970-01-01T00:00:00Z</time>
      </trkpt>
      <trkpt lat="39.781239" lon="-5.193287">
        <ele>385.5</ele>
        <time>1970-01-01T00:00:00Z</time>
      </trkpt>
      <trkpt lat="39.781382" lon="-5.193252">
        <ele>384.9</ele>
        <time>1970-01-01T00:00:00Z</time>
      </trkpt>
      <trkpt lat="39.781922" lon="-5.192532">
        <ele>383.0</ele>
        <time>1970-01-01T00:00:00Z</time>
      </trkpt>
      <trkpt lat="39.782203" lon="-5.192279">
        <ele>383.9</ele>
        <time>1970-01-01T00:00:00Z</time>
      </trkpt>
      <trkpt lat="39.782242" lon="-5.192271">
        <ele>384.0</ele>
        <time>1970-01-01T00:00:00Z</time>
      </trkpt>
      <trkpt lat="39.782511" lon="-5.191538">
        <ele>384.0</ele>
        <time>1970-01-01T00:00:00Z</time>
      </trkpt>
      <trkpt lat="39.782791" lon="-5.190929">
        <ele>384.3</ele>
        <time>1970-01-01T00:00:00Z</time>
      </trkpt>
      <trkpt lat="39.782873" lon="-5.190819">
        <ele>384.5</ele>
        <time>1970-01-01T00:00:00Z</time>
      </trkpt>
      <trkpt lat="39.783252" lon="-5.190464">
        <ele>385.2</ele>
        <time>1970-01-01T00:00:00Z</time>
      </trkpt>
      <trkpt lat="39.783983" lon="-5.189919">
        <ele>390.3</ele>
        <time>1970-01-01T00:00:00Z</time>
      </trkpt>
      <trkpt lat="39.784071" lon="-5.189823">
        <ele>391.1</ele>
        <time>1970-01-01T00:00:00Z</time>
      </trkpt>
      <trkpt lat="39.784225" lon="-5.189566">
        <ele>392.6</ele>
        <time>1970-01-01T00:00:00Z</time>
      </trkpt>
      <trkpt lat="39.784666" lon="-5.189110">
        <ele>394.0</ele>
        <time>1970-01-01T00:00:00Z</time>
      </trkpt>
      <trkpt lat="39.785268" lon="-5.188328">
        <ele>390.3</ele>
        <time>1970-01-01T00:00:00Z</time>
      </trkpt>
      <trkpt lat="39.785523" lon="-5.187829">
        <ele>389.0</ele>
        <time>1970-01-01T00:00:00Z</time>
      </trkpt>
      <trkpt lat="39.786001" lon="-5.187299">
        <ele>387.9</ele>
        <time>1970-01-01T00:00:00Z</time>
      </trkpt>
      <trkpt lat="39.786333" lon="-5.186799">
        <ele>386.9</ele>
        <time>1970-01-01T00:00:00Z</time>
      </trkpt>
      <trkpt lat="39.786817" lon="-5.185963">
        <ele>387.0</ele>
        <time>1970-01-01T00:00:00Z</time>
      </trkpt>
      <trkpt lat="39.787223" lon="-5.185109">
        <ele>386.7</ele>
        <time>1970-01-01T00:00:00Z</time>
      </trkpt>
      <trkpt lat="39.787498" lon="-5.184640">
        <ele>385.1</ele>
        <time>1970-01-01T00:00:00Z</time>
      </trkpt>
      <trkpt lat="39.787863" lon="-5.184159">
        <ele>384.9</ele>
        <time>1970-01-01T00:00:00Z</time>
      </trkpt>
      <trkpt lat="39.788340" lon="-5.183569">
        <ele>380.6</ele>
        <time>1970-01-01T00:00:00Z</time>
      </trkpt>
      <trkpt lat="39.788777" lon="-5.183175">
        <ele>377.9</ele>
        <time>1970-01-01T00:00:00Z</time>
      </trkpt>
      <trkpt lat="39.789088" lon="-5.182821">
        <ele>374.8</ele>
        <time>1970-01-01T00:00:00Z</time>
      </trkpt>
      <trkpt lat="39.789783" lon="-5.181949">
        <ele>369.6</ele>
        <time>1970-01-01T00:00:00Z</time>
      </trkpt>
      <trkpt lat="39.790211" lon="-5.181344">
        <ele>367.7</ele>
        <time>1970-01-01T00:00:00Z</time>
      </trkpt>
      <trkpt lat="39.790619" lon="-5.180724">
        <ele>363.3</ele>
        <time>1970-01-01T00:00:00Z</time>
      </trkpt>
      <trkpt lat="39.791105" lon="-5.179944">
        <ele>360.0</ele>
        <time>1970-01-01T00:00:00Z</time>
      </trkpt>
      <trkpt lat="39.791563" lon="-5.179169">
        <ele>359.0</ele>
        <time>1970-01-01T00:00:00Z</time>
      </trkpt>
      <trkpt lat="39.792533" lon="-5.178369">
        <ele>352.8</ele>
        <time>1970-01-01T00:00:00Z</time>
      </trkpt>
      <trkpt lat="39.793213" lon="-5.177573">
        <ele>350.7</ele>
        <time>1970-01-01T00:00:00Z</time>
      </trkpt>
      <trkpt lat="39.794189" lon="-5.176363">
        <ele>347.5</ele>
        <time>1970-01-01T00:00:00Z</time>
      </trkpt>
      <trkpt lat="39.794510" lon="-5.176086">
        <ele>348.1</ele>
        <time>1970-01-01T00:00:00Z</time>
      </trkpt>
      <trkpt lat="39.794601" lon="-5.175958">
        <ele>348.2</ele>
        <time>1970-01-01T00:00:00Z</time>
      </trkpt>
      <trkpt lat="39.794923" lon="-5.175339">
        <ele>347.0</ele>
        <time>1970-01-01T00:00:00Z</time>
      </trkpt>
      <trkpt lat="39.796773" lon="-5.173065">
        <ele>335.3</ele>
        <time>1970-01-01T00:00:00Z</time>
      </trkpt>
      <trkpt lat="39.797123" lon="-5.172532">
        <ele>331.5</ele>
        <time>1970-01-01T00:00:00Z</time>
      </trkpt>
      <trkpt lat="39.797430" lon="-5.172023">
        <ele>324.9</ele>
        <time>1970-01-01T00:00:00Z</time>
      </trkpt>
      <trkpt lat="39.797466" lon="-5.171920">
        <ele>323.8</ele>
        <time>1970-01-01T00:00:00Z</time>
      </trkpt>
      <trkpt lat="39.797661" lon="-5.171664">
        <ele>320.2</ele>
        <time>1970-01-01T00:00:00Z</time>
      </trkpt>
      <trkpt lat="39.797814" lon="-5.171076">
        <ele>316.7</ele>
        <time>1970-01-01T00:00:00Z</time>
      </trkpt>
      <trkpt lat="39.797954" lon="-5.170756">
        <ele>315.5</ele>
        <time>1970-01-01T00:00:00Z</time>
      </trkpt>
      <trkpt lat="39.798232" lon="-5.169824">
        <ele>314.9</ele>
        <time>1970-01-01T00:00:00Z</time>
      </trkpt>
      <trkpt lat="39.798310" lon="-5.169440">
        <ele>315.9</ele>
        <time>1970-01-01T00:00:00Z</time>
      </trkpt>
      <trkpt lat="39.798473" lon="-5.169019">
        <ele>316.0</ele>
        <time>1970-01-01T00:00:00Z</time>
      </trkpt>
      <trkpt lat="39.798552" lon="-5.168937">
        <ele>315.4</ele>
        <time>1970-01-01T00:00:00Z</time>
      </trkpt>
      <trkpt lat="39.798603" lon="-5.168959">
        <ele>314.9</ele>
        <time>1970-01-01T00:00:00Z</time>
      </trkpt>
      <trkpt lat="39.798793" lon="-5.169099">
        <ele>313.3</ele>
        <time>1970-01-01T00:00:00Z</time>
      </trkpt>
      <trkpt lat="39.799529" lon="-5.169802">
        <ele>313.5</ele>
        <time>1970-01-01T00:00:00Z</time>
      </trkpt>
      <trkpt lat="39.800205" lon="-5.170417">
        <ele>319.7</ele>
        <time>1970-01-01T00:00:00Z</time>
      </trkpt>
    </trkseg>
  </trk>
</gpx>
